<?xml version='1.0' encoding='UTF-8'?><gpx version="1.1" creator="JPX - https://github.com/jenetics/jpx" xmlns="http://www.topografix.com/GPX/1/1"><trk><trkseg><trkpt lat="41.861675" lon="12.6192383"><ele>67.0</ele><time>2026-04-04T07:29:45.113Z</time></trkpt><trkpt lat="41.8616667" lon="12.6191033"><ele>67.0</ele><time>2026-04-04T07:29:48.114Z</time></trkpt><trkpt lat="41.8616717" lon="12.6190183"><ele>67.0</ele><time>2026-04-04T07:29:50.115Z</time></trkpt><trkpt lat="41.86164" lon="12.6189433"><ele>67.0</ele><time>2026-04-04T07:29:58.118Z</time></trkpt><trkpt lat="41.8615717" lon="12.6189533"><ele>67.0</ele><time>2026-04-04T07:30:02.115Z</time></trkpt><trkpt lat="41.8614933" lon="12.61898"><ele>67.0</ele><time>2026-04-04T07:30:06.11Z</time></trkpt><trkpt lat="41.8614283" lon="12.619"><ele>67.0</ele><time>2026-04-04T07:30:09.114Z</time></trkpt><trkpt lat="41.8613483" lon="12.619025"><ele>67.0</ele><time>2026-04-04T07:30:12.116Z</time></trkpt><trkpt lat="41.8612817" lon="12.6190467"><ele>67.0</ele><time>2026-04-04T07:30:14.115Z</time></trkpt><trkpt lat="41.8611967" lon="12.619075"><ele>67.0</ele><time>2026-04-04T07:30:17.109Z</time></trkpt><trkpt lat="41.8611267" lon="12.6190983"><ele>67.0</ele><time>2026-04-04T07:30:20.113Z</time></trkpt><trkpt lat="41.8610517" lon="12.6191233"><ele>67.0</ele><time>2026-04-04T07:30:23.114Z</time></trkpt><trkpt lat="41.8609783" lon="12.6191433"><ele>67.0</ele><time>2026-04-04T07:30:26.112Z</time></trkpt><trkpt lat="41.8609133" lon="12.61916"><ele>67.0</ele><time>2026-04-04T07:30:29.112Z</time></trkpt><trkpt lat="41.8608483" lon="12.619175"><ele>67.0</ele><time>2026-04-04T07:30:33.114Z</time></trkpt><trkpt lat="41.8607833" lon="12.6191967"><ele>67.0</ele><time>2026-04-04T07:30:41.111Z</time></trkpt><trkpt lat="41.8607133" lon="12.61923"><ele>67.0</ele><time>2026-04-04T07:32:26.114Z</time></trkpt><trkpt lat="41.8606083" lon="12.619135"><ele>67.0</ele><time>2026-04-04T07:33:32.117Z</time></trkpt><trkpt lat="41.86055" lon="12.6190133"><ele>67.0</ele><time>2026-04-04T07:33:34.119Z</time></trkpt><trkpt lat="41.8604883" lon="12.618855"><ele>67.0</ele><time>2026-04-04T07:33:36.115Z</time></trkpt><trkpt lat="41.860455" lon="12.6187433"><ele>67.0</ele><time>2026-04-04T07:33:37.115Z</time></trkpt><trkpt lat="41.8604317" lon="12.61865"><ele>67.0</ele><time>2026-04-04T07:33:38.118Z</time></trkpt><trkpt lat="41.860425" lon="12.6185483"><ele>67.0</ele><time>2026-04-04T07:33:39.116Z</time></trkpt><trkpt lat="41.8604083" lon="12.6184083"><ele>67.0</ele><time>2026-04-04T07:33:41.116Z</time></trkpt><trkpt lat="41.8603667" lon="12.618325"><ele>67.0</ele><time>2026-04-04T07:33:43.119Z</time></trkpt><trkpt lat="41.8602767" lon="12.6183333"><ele>67.16666666666666</ele><time>2026-04-04T07:33:49.119Z</time></trkpt><trkpt lat="41.8602183" lon="12.6183867"><ele>67.33333333333333</ele><time>2026-04-04T07:33:51.117Z</time></trkpt><trkpt lat="41.8601283" lon="12.61842"><ele>67.5</ele><time>2026-04-04T07:33:53.115Z</time></trkpt><trkpt lat="41.8600133" lon="12.61844"><ele>67.66666666666667</ele><time>2026-04-04T07:33:55.117Z</time></trkpt><trkpt lat="41.85994" lon="12.618475"><ele>67.83333333333334</ele><time>2026-04-04T07:33:56.115Z</time></trkpt><trkpt lat="41.85985" lon="12.6184983"><ele>68.0</ele><time>2026-04-04T07:33:57.118Z</time></trkpt><trkpt lat="41.8597733" lon="12.6185317"><ele>68.0</ele><time>2026-04-04T07:33:58.116Z</time></trkpt><trkpt lat="41.8597" lon="12.618555"><ele>68.0</ele><time>2026-04-04T07:33:59.118Z</time></trkpt><trkpt lat="41.8596217" lon="12.6185867"><ele>68.0</ele><time>2026-04-04T07:34:00.116Z</time></trkpt><trkpt lat="41.8595117" lon="12.6185833"><ele>68.0</ele><time>2026-04-04T07:34:01.118Z</time></trkpt><trkpt lat="41.8594467" lon="12.6186133"><ele>68.0</ele><time>2026-04-04T07:34:02.111Z</time></trkpt><trkpt lat="41.8594383" lon="12.6187433"><ele>68.0</ele><time>2026-04-04T07:34:06.118Z</time></trkpt><trkpt lat="41.859425" lon="12.6189217"><ele>68.0</ele><time>2026-04-04T07:34:08.114Z</time></trkpt><trkpt lat="41.8594467" lon="12.6190183"><ele>68.0</ele><time>2026-04-04T07:34:09.118Z</time></trkpt><trkpt lat="41.859485" lon="12.6191417"><ele>68.0</ele><time>2026-04-04T07:34:10.118Z</time></trkpt><trkpt lat="41.85952" lon="12.6192633"><ele>68.0</ele><time>2026-04-04T07:34:11.117Z</time></trkpt><trkpt lat="41.8595833" lon="12.6193733"><ele>68.0</ele><time>2026-04-04T07:34:12.114Z</time></trkpt><trkpt lat="41.8596433" lon="12.619485"><ele>67.4</ele><time>2026-04-04T07:34:13.115Z</time></trkpt><trkpt lat="41.8596617" lon="12.61962"><ele>66.8</ele><time>2026-04-04T07:34:14.113Z</time></trkpt><trkpt lat="41.8596833" lon="12.6197667"><ele>66.2</ele><time>2026-04-04T07:34:15.116Z</time></trkpt><trkpt lat="41.859695" lon="12.6199083"><ele>65.6</ele><time>2026-04-04T07:34:16.116Z</time></trkpt><trkpt lat="41.8597133" lon="12.6200483"><ele>65.0</ele><time>2026-04-04T07:34:17.114Z</time></trkpt><trkpt lat="41.8597267" lon="12.62019"><ele>64.25</ele><time>2026-04-04T07:34:18.116Z</time></trkpt><trkpt lat="41.8597683" lon="12.6203317"><ele>63.5</ele><time>2026-04-04T07:34:19.118Z</time></trkpt><trkpt lat="41.8597817" lon="12.62049"><ele>62.75</ele><time>2026-04-04T07:34:20.117Z</time></trkpt><trkpt lat="41.8598033" lon="12.6206483"><ele>62.0</ele><time>2026-04-04T07:34:21.116Z</time></trkpt><trkpt lat="41.8598233" lon="12.620815"><ele>62.0</ele><time>2026-04-04T07:34:22.118Z</time></trkpt><trkpt lat="41.859845" lon="12.6209867"><ele>62.0</ele><time>2026-04-04T07:34:23.112Z</time></trkpt><trkpt lat="41.8598717" lon="12.6211417"><ele>62.0</ele><time>2026-04-04T07:34:24.116Z</time></trkpt><trkpt lat="41.8598967" lon="12.6212917"><ele>62.0</ele><time>2026-04-04T07:34:25.115Z</time></trkpt><trkpt lat="41.859915" lon="12.6214317"><ele>62.333333333333336</ele><time>2026-04-04T07:34:26.115Z</time></trkpt><trkpt lat="41.8599317" lon="12.621555"><ele>62.66666666666667</ele><time>2026-04-04T07:34:27.116Z</time></trkpt><trkpt lat="41.859945" lon="12.62165"><ele>63.0</ele><time>2026-04-04T07:34:28.116Z</time></trkpt><trkpt lat="41.8599517" lon="12.6217767"><ele>63.33333333333333</ele><time>2026-04-04T07:34:30.11Z</time></trkpt><trkpt lat="41.8599783" lon="12.621855"><ele>63.666666666666664</ele><time>2026-04-04T07:34:38.115Z</time></trkpt><trkpt lat="41.859925" lon="12.6219117"><ele>64.0</ele><time>2026-04-04T07:34:40.114Z</time></trkpt><trkpt lat="41.859855" lon="12.6220083"><ele>65.0</ele><time>2026-04-04T07:34:42.114Z</time></trkpt><trkpt lat="41.8597467" lon="12.6221217"><ele>66.0</ele><time>2026-04-04T07:34:44.114Z</time></trkpt><trkpt lat="41.8596817" lon="12.62219"><ele>67.0</ele><time>2026-04-04T07:34:45.118Z</time></trkpt><trkpt lat="41.859615" lon="12.6222533"><ele>68.0</ele><time>2026-04-04T07:34:46.118Z</time></trkpt><trkpt lat="41.859545" lon="12.6223267"><ele>69.0</ele><time>2026-04-04T07:34:47.114Z</time></trkpt><trkpt lat="41.8594767" lon="12.6224083"><ele>69.0</ele><time>2026-04-04T07:34:48.117Z</time></trkpt><trkpt lat="41.8594017" lon="12.6224967"><ele>69.0</ele><time>2026-04-04T07:34:49.113Z</time></trkpt><trkpt lat="41.8593117" lon="12.622565"><ele>69.0</ele><time>2026-04-04T07:34:50.115Z</time></trkpt><trkpt lat="41.8592183" lon="12.62264"><ele>69.0</ele><time>2026-04-04T07:34:51.115Z</time></trkpt><trkpt lat="41.8591333" lon="12.6227233"><ele>69.0</ele><time>2026-04-04T07:34:52.116Z</time></trkpt><trkpt lat="41.8590517" lon="12.6227967"><ele>69.0</ele><time>2026-04-04T07:34:53.113Z</time></trkpt><trkpt lat="41.8589733" lon="12.6228633"><ele>69.0</ele><time>2026-04-04T07:34:54.114Z</time></trkpt><trkpt lat="41.8589" lon="12.6229233"><ele>69.0</ele><time>2026-04-04T07:34:55.116Z</time></trkpt><trkpt lat="41.858825" lon="12.622985"><ele>69.0</ele><time>2026-04-04T07:34:56.116Z</time></trkpt><trkpt lat="41.8587583" lon="12.6230533"><ele>69.0</ele><time>2026-04-04T07:34:57.117Z</time></trkpt><trkpt lat="41.8586967" lon="12.6231183"><ele>69.0</ele><time>2026-04-04T07:34:58.114Z</time></trkpt><trkpt lat="41.8586383" lon="12.6231817"><ele>69.0</ele><time>2026-04-04T07:34:59.116Z</time></trkpt><trkpt lat="41.858585" lon="12.62324"><ele>69.0</ele><time>2026-04-04T07:35:00.117Z</time></trkpt><trkpt lat="41.8585283" lon="12.623285"><ele>69.0</ele><time>2026-04-04T07:35:01.114Z</time></trkpt><trkpt lat="41.8584383" lon="12.6234"><ele>69.0</ele><time>2026-04-04T07:35:03.115Z</time></trkpt><trkpt lat="41.8583833" lon="12.6234617"><ele>69.0</ele><time>2026-04-04T07:35:04.115Z</time></trkpt><trkpt lat="41.8583217" lon="12.62352"><ele>69.0</ele><time>2026-04-04T07:35:05.115Z</time></trkpt><trkpt lat="41.8582533" lon="12.6235733"><ele>69.14285714285714</ele><time>2026-04-04T07:35:06.117Z</time></trkpt><trkpt lat="41.8582017" lon="12.6236333"><ele>69.28571428571429</ele><time>2026-04-04T07:35:07.116Z</time></trkpt><trkpt lat="41.858145" lon="12.6236883"><ele>69.42857142857143</ele><time>2026-04-04T07:35:08.115Z</time></trkpt><trkpt lat="41.85807" lon="12.623725"><ele>69.57142857142857</ele><time>2026-04-04T07:35:09.118Z</time></trkpt><trkpt lat="41.8579983" lon="12.6237633"><ele>69.71428571428572</ele><time>2026-04-04T07:35:10.112Z</time></trkpt><trkpt lat="41.85794" lon="12.6238033"><ele>69.85714285714286</ele><time>2026-04-04T07:35:11.118Z</time></trkpt><trkpt lat="41.8578783" lon="12.623835"><ele>70.0</ele><time>2026-04-04T07:35:12.118Z</time></trkpt><trkpt lat="41.85776" lon="12.6238817"><ele>70.0</ele><time>2026-04-04T07:35:14.114Z</time></trkpt><trkpt lat="41.8576783" lon="12.623955"><ele>70.0</ele><time>2026-04-04T07:35:16.117Z</time></trkpt><trkpt lat="41.8576267" lon="12.6240717"><ele>70.0</ele><time>2026-04-04T07:35:18.116Z</time></trkpt><trkpt lat="41.8576183" lon="12.6241683"><ele>70.0</ele><time>2026-04-04T07:35:20.115Z</time></trkpt><trkpt lat="41.857685" lon="12.6241833"><ele>70.0</ele><time>2026-04-04T07:35:25.116Z</time></trkpt><trkpt lat="41.8577833" lon="12.6241283"><ele>70.0</ele><time>2026-04-04T07:35:49.115Z</time></trkpt><trkpt lat="41.85786" lon="12.6240567"><ele>70.0</ele><time>2026-04-04T07:39:43.117Z</time></trkpt><trkpt lat="41.857885" lon="12.6239783"><ele>70.0</ele><time>2026-04-04T07:41:53.115Z</time></trkpt><trkpt lat="41.8578317" lon="12.6239133"><ele>70.0</ele><time>2026-04-04T07:41:55.118Z</time></trkpt><trkpt lat="41.85773" lon="12.6238817"><ele>70.0</ele><time>2026-04-04T07:41:57.118Z</time></trkpt><trkpt lat="41.85766" lon="12.6238833"><ele>70.0</ele><time>2026-04-04T07:41:58.116Z</time></trkpt><trkpt lat="41.8575833" lon="12.623885"><ele>70.0</ele><time>2026-04-04T07:41:59.113Z</time></trkpt><trkpt lat="41.8575117" lon="12.6238667"><ele>69.8</ele><time>2026-04-04T07:42:00.116Z</time></trkpt><trkpt lat="41.85742" lon="12.62383"><ele>69.6</ele><time>2026-04-04T07:42:01.117Z</time></trkpt><trkpt lat="41.85731" lon="12.62376"><ele>69.4</ele><time>2026-04-04T07:42:02.115Z</time></trkpt><trkpt lat="41.857215" lon="12.6236933"><ele>69.2</ele><time>2026-04-04T07:42:03.118Z</time></trkpt><trkpt lat="41.8571233" lon="12.6236217"><ele>69.0</ele><time>2026-04-04T07:42:04.117Z</time></trkpt><trkpt lat="41.85703" lon="12.623545"><ele>69.16666666666667</ele><time>2026-04-04T07:42:05.116Z</time></trkpt><trkpt lat="41.85697" lon="12.6234667"><ele>69.33333333333333</ele><time>2026-04-04T07:42:06.117Z</time></trkpt><trkpt lat="41.8569217" lon="12.6233817"><ele>69.5</ele><time>2026-04-04T07:42:07.118Z</time></trkpt><trkpt lat="41.8568817" lon="12.6232833"><ele>69.66666666666666</ele><time>2026-04-04T07:42:08.116Z</time></trkpt><trkpt lat="41.8568417" lon="12.623175"><ele>69.83333333333333</ele><time>2026-04-04T07:42:09.118Z</time></trkpt><trkpt lat="41.8568083" lon="12.6230333"><ele>70.0</ele><time>2026-04-04T07:42:10.119Z</time></trkpt><trkpt lat="41.8567767" lon="12.622885"><ele>69.0</ele><time>2026-04-04T07:42:11.115Z</time></trkpt><trkpt lat="41.8567417" lon="12.6227333"><ele>68.0</ele><time>2026-04-04T07:42:12.119Z</time></trkpt><trkpt lat="41.8567117" lon="12.6225767"><ele>67.0</ele><time>2026-04-04T07:42:13.115Z</time></trkpt><trkpt lat="41.856675" lon="12.6223933"><ele>66.0</ele><time>2026-04-04T07:42:14.117Z</time></trkpt><trkpt lat="41.8566433" lon="12.622205"><ele>66.0</ele><time>2026-04-04T07:42:15.117Z</time></trkpt><trkpt lat="41.8566117" lon="12.6220233"><ele>66.0</ele><time>2026-04-04T07:42:16.116Z</time></trkpt><trkpt lat="41.856585" lon="12.6218533"><ele>66.0</ele><time>2026-04-04T07:42:17.114Z</time></trkpt><trkpt lat="41.8565683" lon="12.62169"><ele>66.0</ele><time>2026-04-04T07:42:18.117Z</time></trkpt><trkpt lat="41.8565617" lon="12.62153"><ele>66.5</ele><time>2026-04-04T07:42:19.117Z</time></trkpt><trkpt lat="41.8565683" lon="12.621365"><ele>67.0</ele><time>2026-04-04T07:42:20.118Z</time></trkpt><trkpt lat="41.8565833" lon="12.6212217"><ele>67.5</ele><time>2026-04-04T07:42:21.115Z</time></trkpt><trkpt lat="41.8565883" lon="12.621065"><ele>68.0</ele><time>2026-04-04T07:42:22.114Z</time></trkpt><trkpt lat="41.8565733" lon="12.6209233"><ele>68.0</ele><time>2026-04-04T07:42:23.113Z</time></trkpt><trkpt lat="41.8565467" lon="12.6207933"><ele>68.0</ele><time>2026-04-04T07:42:24.118Z</time></trkpt><trkpt lat="41.8565017" lon="12.6206733"><ele>68.0</ele><time>2026-04-04T07:42:25.115Z</time></trkpt><trkpt lat="41.8564467" lon="12.6205583"><ele>68.0</ele><time>2026-04-04T07:42:26.115Z</time></trkpt><trkpt lat="41.8563833" lon="12.6204383"><ele>68.0</ele><time>2026-04-04T07:42:27.116Z</time></trkpt><trkpt lat="41.8563267" lon="12.62031"><ele>68.0</ele><time>2026-04-04T07:42:28.116Z</time></trkpt><trkpt lat="41.856275" lon="12.6201633"><ele>68.0</ele><time>2026-04-04T07:42:29.118Z</time></trkpt><trkpt lat="41.8562333" lon="12.620005"><ele>68.0</ele><time>2026-04-04T07:42:30.119Z</time></trkpt><trkpt lat="41.8561967" lon="12.61983"><ele>68.0</ele><time>2026-04-04T07:42:31.116Z</time></trkpt><trkpt lat="41.856165" lon="12.6196467"><ele>67.5</ele><time>2026-04-04T07:42:32.118Z</time></trkpt><trkpt lat="41.85613" lon="12.619465"><ele>67.0</ele><time>2026-04-04T07:42:33.116Z</time></trkpt><trkpt lat="41.8560967" lon="12.61929"><ele>66.5</ele><time>2026-04-04T07:42:34.114Z</time></trkpt><trkpt lat="41.8560633" lon="12.6191167"><ele>66.0</ele><time>2026-04-04T07:42:35.118Z</time></trkpt><trkpt lat="41.856035" lon="12.618945"><ele>66.0</ele><time>2026-04-04T07:42:36.117Z</time></trkpt><trkpt lat="41.8560133" lon="12.6187733"><ele>66.0</ele><time>2026-04-04T07:42:37.119Z</time></trkpt><trkpt lat="41.855985" lon="12.61861"><ele>66.0</ele><time>2026-04-04T07:42:38.115Z</time></trkpt><trkpt lat="41.8559633" lon="12.618445"><ele>66.0</ele><time>2026-04-04T07:42:39.118Z</time></trkpt><trkpt lat="41.8559483" lon="12.6182783"><ele>66.2</ele><time>2026-04-04T07:42:40.118Z</time></trkpt><trkpt lat="41.8559367" lon="12.6181117"><ele>66.39999999999999</ele><time>2026-04-04T07:42:41.117Z</time></trkpt><trkpt lat="41.85593" lon="12.617955"><ele>66.6</ele><time>2026-04-04T07:42:42.116Z</time></trkpt><trkpt lat="41.85593" lon="12.6178133"><ele>66.8</ele><time>2026-04-04T07:42:43.116Z</time></trkpt><trkpt lat="41.8559417" lon="12.61768"><ele>67.0</ele><time>2026-04-04T07:42:44.115Z</time></trkpt><trkpt lat="41.855965" lon="12.6175467"><ele>66.0</ele><time>2026-04-04T07:42:45.118Z</time></trkpt><trkpt lat="41.8559967" lon="12.6174117"><ele>65.0</ele><time>2026-04-04T07:42:46.116Z</time></trkpt><trkpt lat="41.8560367" lon="12.6172867"><ele>64.0</ele><time>2026-04-04T07:42:47.117Z</time></trkpt><trkpt lat="41.85607" lon="12.6171617"><ele>63.0</ele><time>2026-04-04T07:42:48.116Z</time></trkpt><trkpt lat="41.85609" lon="12.6170417"><ele>62.0</ele><time>2026-04-04T07:42:49.12Z</time></trkpt><trkpt lat="41.8560917" lon="12.6169133"><ele>62.0</ele><time>2026-04-04T07:42:50.115Z</time></trkpt><trkpt lat="41.8560733" lon="12.6167883"><ele>62.0</ele><time>2026-04-04T07:42:51.116Z</time></trkpt><trkpt lat="41.856035" lon="12.6166583"><ele>62.0</ele><time>2026-04-04T07:42:52.119Z</time></trkpt><trkpt lat="41.85598" lon="12.6165317"><ele>62.0</ele><time>2026-04-04T07:42:53.119Z</time></trkpt><trkpt lat="41.8559283" lon="12.616395"><ele>62.0</ele><time>2026-04-04T07:42:54.117Z</time></trkpt><trkpt lat="41.85589" lon="12.6162483"><ele>62.25</ele><time>2026-04-04T07:42:55.118Z</time></trkpt><trkpt lat="41.855865" lon="12.6160933"><ele>62.5</ele><time>2026-04-04T07:42:56.118Z</time></trkpt><trkpt lat="41.85585" lon="12.6159217"><ele>62.75</ele><time>2026-04-04T07:42:57.12Z</time></trkpt><trkpt lat="41.8558367" lon="12.61574"><ele>63.0</ele><time>2026-04-04T07:42:58.117Z</time></trkpt><trkpt lat="41.8558267" lon="12.6155567"><ele>63.0</ele><time>2026-04-04T07:42:59.118Z</time></trkpt><trkpt lat="41.8558183" lon="12.6153633"><ele>63.0</ele><time>2026-04-04T07:43:00.117Z</time></trkpt><trkpt lat="41.8558083" lon="12.6151633"><ele>63.0</ele><time>2026-04-04T07:43:01.119Z</time></trkpt><trkpt lat="41.85579" lon="12.6149583"><ele>63.0</ele><time>2026-04-04T07:43:02.118Z</time></trkpt><trkpt lat="41.8557617" lon="12.6147417"><ele>62.0</ele><time>2026-04-04T07:43:03.116Z</time></trkpt><trkpt lat="41.85572" lon="12.6145233"><ele>61.0</ele><time>2026-04-04T07:43:04.118Z</time></trkpt><trkpt lat="41.85567" lon="12.614305"><ele>60.0</ele><time>2026-04-04T07:43:05.11Z</time></trkpt><trkpt lat="41.8556067" lon="12.614095"><ele>60.0</ele><time>2026-04-04T07:43:06.118Z</time></trkpt><trkpt lat="41.8555333" lon="12.6138817"><ele>60.0</ele><time>2026-04-04T07:43:07.118Z</time></trkpt><trkpt lat="41.8554517" lon="12.6136683"><ele>60.0</ele><time>2026-04-04T07:43:08.115Z</time></trkpt><trkpt lat="41.8553617" lon="12.613455"><ele>60.0</ele><time>2026-04-04T07:43:09.116Z</time></trkpt><trkpt lat="41.8552617" lon="12.6132467"><ele>60.0</ele><time>2026-04-04T07:43:10.116Z</time></trkpt><trkpt lat="41.855155" lon="12.61304"><ele>60.0</ele><time>2026-04-04T07:43:11.116Z</time></trkpt><trkpt lat="41.8550367" lon="12.6128383"><ele>61.0</ele><time>2026-04-04T07:43:12.116Z</time></trkpt><trkpt lat="41.8549117" lon="12.6126383"><ele>62.0</ele><time>2026-04-04T07:43:13.116Z</time></trkpt><trkpt lat="41.8547883" lon="12.61244"><ele>63.0</ele><time>2026-04-04T07:43:14.116Z</time></trkpt><trkpt lat="41.8546667" lon="12.6122533"><ele>63.0</ele><time>2026-04-04T07:43:15.118Z</time></trkpt><trkpt lat="41.8545533" lon="12.6120733"><ele>63.0</ele><time>2026-04-04T07:43:16.118Z</time></trkpt><trkpt lat="41.854455" lon="12.6118933"><ele>63.0</ele><time>2026-04-04T07:43:17.119Z</time></trkpt><trkpt lat="41.8543733" lon="12.6117017"><ele>64.0</ele><time>2026-04-04T07:43:18.119Z</time></trkpt><trkpt lat="41.8543117" lon="12.611505"><ele>65.0</ele><time>2026-04-04T07:43:19.114Z</time></trkpt><trkpt lat="41.8542633" lon="12.611305"><ele>66.0</ele><time>2026-04-04T07:43:20.118Z</time></trkpt><trkpt lat="41.854235" lon="12.611105"><ele>66.66666666666667</ele><time>2026-04-04T07:43:21.118Z</time></trkpt><trkpt lat="41.8542217" lon="12.6108967"><ele>67.33333333333334</ele><time>2026-04-04T07:43:22.12Z</time></trkpt><trkpt lat="41.8542317" lon="12.610695"><ele>68.0</ele><time>2026-04-04T07:43:23.118Z</time></trkpt><trkpt lat="41.854255" lon="12.610495"><ele>69.33333333333334</ele><time>2026-04-04T07:43:24.118Z</time></trkpt><trkpt lat="41.8542983" lon="12.610295"><ele>70.66666666666667</ele><time>2026-04-04T07:43:25.119Z</time></trkpt><trkpt lat="41.8543533" lon="12.610095"><ele>72.0</ele><time>2026-04-04T07:43:26.122Z</time></trkpt><trkpt lat="41.8544217" lon="12.6099017"><ele>72.0</ele><time>2026-04-04T07:43:27.119Z</time></trkpt><trkpt lat="41.8545017" lon="12.6097217"><ele>72.0</ele><time>2026-04-04T07:43:28.116Z</time></trkpt><trkpt lat="41.854585" lon="12.6095517"><ele>72.0</ele><time>2026-04-04T07:43:29.114Z</time></trkpt><trkpt lat="41.85468" lon="12.6094067"><ele>72.0</ele><time>2026-04-04T07:43:30.117Z</time></trkpt><trkpt lat="41.85477" lon="12.6092633"><ele>72.0</ele><time>2026-04-04T07:43:31.119Z</time></trkpt><trkpt lat="41.8548483" lon="12.6091183"><ele>72.0</ele><time>2026-04-04T07:43:32.114Z</time></trkpt><trkpt lat="41.8549083" lon="12.6089667"><ele>72.0</ele><time>2026-04-04T07:43:33.119Z</time></trkpt><trkpt lat="41.8549567" lon="12.6088133"><ele>72.0</ele><time>2026-04-04T07:43:34.115Z</time></trkpt><trkpt lat="41.8549933" lon="12.6086633"><ele>72.0</ele><time>2026-04-04T07:43:35.118Z</time></trkpt><trkpt lat="41.8550133" lon="12.6085067"><ele>72.0</ele><time>2026-04-04T07:43:36.116Z</time></trkpt><trkpt lat="41.855025" lon="12.6083583"><ele>72.0</ele><time>2026-04-04T07:43:37.119Z</time></trkpt><trkpt lat="41.855025" lon="12.60822"><ele>72.0</ele><time>2026-04-04T07:43:38.115Z</time></trkpt><trkpt lat="41.8550133" lon="12.6080833"><ele>72.0</ele><time>2026-04-04T07:43:39.117Z</time></trkpt><trkpt lat="41.8550017" lon="12.6079617"><ele>72.0</ele><time>2026-04-04T07:43:40.119Z</time></trkpt><trkpt lat="41.8549933" lon="12.6078533"><ele>72.0</ele><time>2026-04-04T07:43:41.113Z</time></trkpt><trkpt lat="41.8549767" lon="12.6077617"><ele>72.0</ele><time>2026-04-04T07:43:42.114Z</time></trkpt><trkpt lat="41.8549517" lon="12.6076833"><ele>72.0</ele><time>2026-04-04T07:43:43.117Z</time></trkpt><trkpt lat="41.8548883" lon="12.6075617"><ele>72.0</ele><time>2026-04-04T07:43:45.119Z</time></trkpt><trkpt lat="41.85481" lon="12.6075017"><ele>72.0</ele><time>2026-04-04T07:43:47.115Z</time></trkpt><trkpt lat="41.8547433" lon="12.6075233"><ele>72.0</ele><time>2026-04-04T07:43:49.116Z</time></trkpt><trkpt lat="41.8546867" lon="12.6075617"><ele>72.0</ele><time>2026-04-04T07:43:51.116Z</time></trkpt><trkpt lat="41.8546267" lon="12.6076083"><ele>72.0</ele><time>2026-04-04T07:43:53.116Z</time></trkpt><trkpt lat="41.85456" lon="12.607725"><ele>72.0</ele><time>2026-04-04T07:43:55.116Z</time></trkpt><trkpt lat="41.8545283" lon="12.607805"><ele>71.5</ele><time>2026-04-04T07:43:56.114Z</time></trkpt><trkpt lat="41.8544967" lon="12.60791"><ele>71.0</ele><time>2026-04-04T07:43:57.12Z</time></trkpt><trkpt lat="41.8544667" lon="12.6080283"><ele>70.5</ele><time>2026-04-04T07:43:58.116Z</time></trkpt><trkpt lat="41.8544317" lon="12.608145"><ele>70.0</ele><time>2026-04-04T07:43:59.116Z</time></trkpt><trkpt lat="41.8543933" lon="12.6082517"><ele>69.5</ele><time>2026-04-04T07:44:00.116Z</time></trkpt><trkpt lat="41.8543533" lon="12.608345"><ele>69.0</ele><time>2026-04-04T07:44:01.115Z</time></trkpt><trkpt lat="41.85429" lon="12.6083933"><ele>69.33333333333333</ele><time>2026-04-04T07:44:02.116Z</time></trkpt><trkpt lat="41.8542217" lon="12.6084233"><ele>69.66666666666667</ele><time>2026-04-04T07:44:03.119Z</time></trkpt><trkpt lat="41.8541517" lon="12.6084333"><ele>70.0</ele><time>2026-04-04T07:44:04.119Z</time></trkpt><trkpt lat="41.854075" lon="12.6083783"><ele>70.33333333333334</ele><time>2026-04-04T07:44:05.116Z</time></trkpt><trkpt lat="41.853995" lon="12.6083233"><ele>70.66666666666667</ele><time>2026-04-04T07:44:06.118Z</time></trkpt><trkpt lat="41.85391" lon="12.608255"><ele>71.0</ele><time>2026-04-04T07:44:07.118Z</time></trkpt><trkpt lat="41.8538233" lon="12.6081783"><ele>71.0</ele><time>2026-04-04T07:44:08.117Z</time></trkpt><trkpt lat="41.85373" lon="12.60809"><ele>71.0</ele><time>2026-04-04T07:44:09.114Z</time></trkpt><trkpt lat="41.8536333" lon="12.6079983"><ele>71.0</ele><time>2026-04-04T07:44:10.114Z</time></trkpt><trkpt lat="41.8535267" lon="12.6078967"><ele>71.0</ele><time>2026-04-04T07:44:11.114Z</time></trkpt><trkpt lat="41.8534167" lon="12.6077917"><ele>71.25</ele><time>2026-04-04T07:44:12.117Z</time></trkpt><trkpt lat="41.85331" lon="12.6076883"><ele>71.5</ele><time>2026-04-04T07:44:13.116Z</time></trkpt><trkpt lat="41.853205" lon="12.6075883"><ele>71.75</ele><time>2026-04-04T07:44:14.118Z</time></trkpt><trkpt lat="41.8531" lon="12.607495"><ele>72.0</ele><time>2026-04-04T07:44:15.114Z</time></trkpt><trkpt lat="41.8529933" lon="12.607415"><ele>72.0</ele><time>2026-04-04T07:44:16.118Z</time></trkpt><trkpt lat="41.8528883" lon="12.607355"><ele>72.0</ele><time>2026-04-04T07:44:17.119Z</time></trkpt><trkpt lat="41.8527917" lon="12.6073133"><ele>72.0</ele><time>2026-04-04T07:44:18.116Z</time></trkpt><trkpt lat="41.8526867" lon="12.6072917"><ele>72.0</ele><time>2026-04-04T07:44:19.116Z</time></trkpt><trkpt lat="41.8525783" lon="12.6072683"><ele>72.0</ele><time>2026-04-04T07:44:20.114Z</time></trkpt><trkpt lat="41.8524633" lon="12.60724"><ele>71.8</ele><time>2026-04-04T07:44:21.117Z</time></trkpt><trkpt lat="41.8523533" lon="12.6072067"><ele>71.6</ele><time>2026-04-04T07:44:22.118Z</time></trkpt><trkpt lat="41.8522517" lon="12.6071767"><ele>71.39999999999999</ele><time>2026-04-04T07:44:23.111Z</time></trkpt><trkpt lat="41.8521483" lon="12.6071417"><ele>71.2</ele><time>2026-04-04T07:44:24.115Z</time></trkpt><trkpt lat="41.852055" lon="12.6071333"><ele>71.0</ele><time>2026-04-04T07:44:25.115Z</time></trkpt><trkpt lat="41.8519667" lon="12.6071533"><ele>71.0</ele><time>2026-04-04T07:44:26.109Z</time></trkpt><trkpt lat="41.8519033" lon="12.6072283"><ele>71.0</ele><time>2026-04-04T07:44:27.117Z</time></trkpt><trkpt lat="41.85184" lon="12.6073017"><ele>71.0</ele><time>2026-04-04T07:44:28.118Z</time></trkpt><trkpt lat="41.8517783" lon="12.6074083"><ele>71.0</ele><time>2026-04-04T07:44:29.115Z</time></trkpt><trkpt lat="41.8517383" lon="12.6075467"><ele>71.0</ele><time>2026-04-04T07:44:30.118Z</time></trkpt><trkpt lat="41.85169" lon="12.607685"><ele>70.8</ele><time>2026-04-04T07:44:31.118Z</time></trkpt><trkpt lat="41.85163" lon="12.6078"><ele>70.6</ele><time>2026-04-04T07:44:32.117Z</time></trkpt><trkpt lat="41.8515567" lon="12.6078917"><ele>70.4</ele><time>2026-04-04T07:44:33.114Z</time></trkpt><trkpt lat="41.85147" lon="12.6079633"><ele>70.2</ele><time>2026-04-04T07:44:34.117Z</time></trkpt><trkpt lat="41.851375" lon="12.608015"><ele>70.0</ele><time>2026-04-04T07:44:35.119Z</time></trkpt><trkpt lat="41.85127" lon="12.608045"><ele>70.75</ele><time>2026-04-04T07:44:36.121Z</time></trkpt><trkpt lat="41.851155" lon="12.6080583"><ele>71.5</ele><time>2026-04-04T07:44:37.114Z</time></trkpt><trkpt lat="41.851025" lon="12.6080617"><ele>72.25</ele><time>2026-04-04T07:44:38.117Z</time></trkpt><trkpt lat="41.8508917" lon="12.6080567"><ele>73.0</ele><time>2026-04-04T07:44:39.116Z</time></trkpt><trkpt lat="41.850755" lon="12.6080517"><ele>73.0</ele><time>2026-04-04T07:44:40.119Z</time></trkpt><trkpt lat="41.850625" lon="12.6080517"><ele>73.0</ele><time>2026-04-04T07:44:41.119Z</time></trkpt><trkpt lat="41.8505033" lon="12.608055"><ele>73.0</ele><time>2026-04-04T07:44:42.112Z</time></trkpt><trkpt lat="41.85039" lon="12.6080583"><ele>73.0</ele><time>2026-04-04T07:44:43.119Z</time></trkpt><trkpt lat="41.8502917" lon="12.6080467"><ele>73.0</ele><time>2026-04-04T07:44:44.118Z</time></trkpt><trkpt lat="41.8502017" lon="12.6080283"><ele>73.0</ele><time>2026-04-04T07:44:45.12Z</time></trkpt><trkpt lat="41.8501233" lon="12.6080067"><ele>73.0</ele><time>2026-04-04T07:44:46.117Z</time></trkpt><trkpt lat="41.8500533" lon="12.607985"><ele>73.0</ele><time>2026-04-04T07:44:47.11Z</time></trkpt><trkpt lat="41.8499917" lon="12.60794"><ele>73.0</ele><time>2026-04-04T07:44:48.113Z</time></trkpt><trkpt lat="41.8499317" lon="12.6079067"><ele>73.0</ele><time>2026-04-04T07:44:49.12Z</time></trkpt><trkpt lat="41.8499683" lon="12.6077733"><ele>72.6</ele><time>2026-04-04T07:44:51.118Z</time></trkpt><trkpt lat="41.85001" lon="12.6076933"><ele>72.19999999999999</ele><time>2026-04-04T07:44:52.115Z</time></trkpt><trkpt lat="41.8500667" lon="12.6075933"><ele>71.8</ele><time>2026-04-04T07:44:53.115Z</time></trkpt><trkpt lat="41.85014" lon="12.6074667"><ele>71.39999999999999</ele><time>2026-04-04T07:44:54.118Z</time></trkpt><trkpt lat="41.8502117" lon="12.6073383"><ele>71.0</ele><time>2026-04-04T07:44:55.117Z</time></trkpt><trkpt lat="41.8502917" lon="12.6072017"><ele>71.0</ele><time>2026-04-04T07:44:56.117Z</time></trkpt><trkpt lat="41.8503783" lon="12.6070567"><ele>71.0</ele><time>2026-04-04T07:44:57.118Z</time></trkpt><trkpt lat="41.8504617" lon="12.6069083"><ele>71.0</ele><time>2026-04-04T07:44:58.117Z</time></trkpt><trkpt lat="41.8505417" lon="12.6067433"><ele>71.0</ele><time>2026-04-04T07:44:59.118Z</time></trkpt><trkpt lat="41.8506217" lon="12.6065633"><ele>71.33333333333334</ele><time>2026-04-04T07:45:00.118Z</time></trkpt><trkpt lat="41.850695" lon="12.6063733"><ele>71.66666666666667</ele><time>2026-04-04T07:45:01.118Z</time></trkpt><trkpt lat="41.8507533" lon="12.6061767"><ele>72.0</ele><time>2026-04-04T07:45:02.117Z</time></trkpt><trkpt lat="41.8508017" lon="12.605965"><ele>72.0</ele><time>2026-04-04T07:45:03.115Z</time></trkpt><trkpt lat="41.8508333" lon="12.6057483"><ele>72.0</ele><time>2026-04-04T07:45:04.118Z</time></trkpt><trkpt lat="41.8508533" lon="12.6055233"><ele>72.0</ele><time>2026-04-04T07:45:05.117Z</time></trkpt><trkpt lat="41.8508633" lon="12.6052933"><ele>73.0</ele><time>2026-04-04T07:45:06.118Z</time></trkpt><trkpt lat="41.8508633" lon="12.6050517"><ele>74.0</ele><time>2026-04-04T07:45:07.116Z</time></trkpt><trkpt lat="41.8508667" lon="12.6048133"><ele>75.0</ele><time>2026-04-04T07:45:08.115Z</time></trkpt><trkpt lat="41.8508767" lon="12.6045767"><ele>72.66666666666667</ele><time>2026-04-04T07:45:09.114Z</time></trkpt><trkpt lat="41.8509" lon="12.604345"><ele>70.33333333333334</ele><time>2026-04-04T07:45:10.116Z</time></trkpt><trkpt lat="41.8509467" lon="12.604125"><ele>68.0</ele><time>2026-04-04T07:45:11.119Z</time></trkpt><trkpt lat="41.851005" lon="12.6039033"><ele>67.33333333333334</ele><time>2026-04-04T07:45:12.117Z</time></trkpt><trkpt lat="41.8510717" lon="12.6036767"><ele>66.66666666666667</ele><time>2026-04-04T07:45:13.11Z</time></trkpt><trkpt lat="41.851145" lon="12.6034433"><ele>66.0</ele><time>2026-04-04T07:45:14.114Z</time></trkpt><trkpt lat="41.8512283" lon="12.6032283"><ele>65.0</ele><time>2026-04-04T07:45:15.119Z</time></trkpt><trkpt lat="41.851315" lon="12.6030083"><ele>64.0</ele><time>2026-04-04T07:45:16.117Z</time></trkpt><trkpt lat="41.85139" lon="12.60278"><ele>63.0</ele><time>2026-04-04T07:45:17.118Z</time></trkpt><trkpt lat="41.851475" lon="12.602555"><ele>63.0</ele><time>2026-04-04T07:45:18.118Z</time></trkpt><trkpt lat="41.8515633" lon="12.6023267"><ele>63.0</ele><time>2026-04-04T07:45:19.118Z</time></trkpt><trkpt lat="41.851655" lon="12.6020967"><ele>63.0</ele><time>2026-04-04T07:45:20.112Z</time></trkpt><trkpt lat="41.8517533" lon="12.6018733"><ele>63.33333333333333</ele><time>2026-04-04T07:45:21.117Z</time></trkpt><trkpt lat="41.8518433" lon="12.6016517"><ele>63.666666666666664</ele><time>2026-04-04T07:45:22.117Z</time></trkpt><trkpt lat="41.8519583" lon="12.6014483"><ele>64.0</ele><time>2026-04-04T07:45:23.118Z</time></trkpt><trkpt lat="41.8520567" lon="12.6012417"><ele>65.33333333333333</ele><time>2026-04-04T07:45:24.118Z</time></trkpt><trkpt lat="41.8521583" lon="12.6010517"><ele>66.66666666666667</ele><time>2026-04-04T07:45:25.118Z</time></trkpt><trkpt lat="41.8522433" lon="12.6008683"><ele>68.0</ele><time>2026-04-04T07:45:26.118Z</time></trkpt><trkpt lat="41.852325" lon="12.6007067"><ele>68.0</ele><time>2026-04-04T07:45:27.116Z</time></trkpt><trkpt lat="41.8523833" lon="12.600545"><ele>68.0</ele><time>2026-04-04T07:45:28.12Z</time></trkpt><trkpt lat="41.8524317" lon="12.60037"><ele>68.0</ele><time>2026-04-04T07:45:29.116Z</time></trkpt><trkpt lat="41.8524683" lon="12.6001867"><ele>68.0</ele><time>2026-04-04T07:45:30.115Z</time></trkpt><trkpt lat="41.85249" lon="12.5999983"><ele>68.75</ele><time>2026-04-04T07:45:31.118Z</time></trkpt><trkpt lat="41.8525033" lon="12.5998033"><ele>69.5</ele><time>2026-04-04T07:45:32.118Z</time></trkpt><trkpt lat="41.8525167" lon="12.59961"><ele>70.25</ele><time>2026-04-04T07:45:33.115Z</time></trkpt><trkpt lat="41.852545" lon="12.5994283"><ele>71.0</ele><time>2026-04-04T07:45:34.117Z</time></trkpt><trkpt lat="41.8525917" lon="12.5992383"><ele>71.66666666666667</ele><time>2026-04-04T07:45:35.116Z</time></trkpt><trkpt lat="41.85266" lon="12.5990533"><ele>72.33333333333333</ele><time>2026-04-04T07:45:36.118Z</time></trkpt><trkpt lat="41.8527367" lon="12.5988683"><ele>73.0</ele><time>2026-04-04T07:45:37.12Z</time></trkpt><trkpt lat="41.852815" lon="12.598685"><ele>71.33333333333333</ele><time>2026-04-04T07:45:38.119Z</time></trkpt><trkpt lat="41.8528967" lon="12.5985083"><ele>69.66666666666667</ele><time>2026-04-04T07:45:39.118Z</time></trkpt><trkpt lat="41.8529717" lon="12.59833"><ele>68.0</ele><time>2026-04-04T07:45:40.118Z</time></trkpt><trkpt lat="41.853045" lon="12.5981583"><ele>68.0</ele><time>2026-04-04T07:45:41.115Z</time></trkpt><trkpt lat="41.853115" lon="12.5979833"><ele>68.0</ele><time>2026-04-04T07:45:42.116Z</time></trkpt><trkpt lat="41.8531783" lon="12.5978133"><ele>68.0</ele><time>2026-04-04T07:45:43.114Z</time></trkpt><trkpt lat="41.8532383" lon="12.59765"><ele>68.0</ele><time>2026-04-04T07:45:44.118Z</time></trkpt><trkpt lat="41.8532917" lon="12.5975117"><ele>68.25</ele><time>2026-04-04T07:45:45.119Z</time></trkpt><trkpt lat="41.8533417" lon="12.5973817"><ele>68.5</ele><time>2026-04-04T07:45:46.114Z</time></trkpt><trkpt lat="41.8533867" lon="12.5972417"><ele>68.75</ele><time>2026-04-04T07:45:47.116Z</time></trkpt><trkpt lat="41.8534317" lon="12.5971017"><ele>69.0</ele><time>2026-04-04T07:45:48.118Z</time></trkpt><trkpt lat="41.8534817" lon="12.5969617"><ele>68.4</ele><time>2026-04-04T07:45:49.119Z</time></trkpt><trkpt lat="41.85353" lon="12.5968367"><ele>67.80000000000001</ele><time>2026-04-04T07:45:50.117Z</time></trkpt><trkpt lat="41.85358" lon="12.59671"><ele>67.19999999999999</ele><time>2026-04-04T07:45:51.118Z</time></trkpt><trkpt lat="41.8536267" lon="12.596585"><ele>66.6</ele><time>2026-04-04T07:45:52.119Z</time></trkpt><trkpt lat="41.8536783" lon="12.5964667"><ele>66.0</ele><time>2026-04-04T07:45:53.117Z</time></trkpt><trkpt lat="41.8537383" lon="12.59636"><ele>66.0</ele><time>2026-04-04T07:45:54.121Z</time></trkpt><trkpt lat="41.85381" lon="12.596295"><ele>66.0</ele><time>2026-04-04T07:45:55.118Z</time></trkpt><trkpt lat="41.85388" lon="12.5962317"><ele>66.0</ele><time>2026-04-04T07:45:56.118Z</time></trkpt><trkpt lat="41.8539617" lon="12.5961817"><ele>66.0</ele><time>2026-04-04T07:45:57.115Z</time></trkpt><trkpt lat="41.8540517" lon="12.59615"><ele>66.0</ele><time>2026-04-04T07:45:58.117Z</time></trkpt><trkpt lat="41.8541517" lon="12.596155"><ele>66.0</ele><time>2026-04-04T07:45:59.118Z</time></trkpt><trkpt lat="41.8542533" lon="12.5961967"><ele>66.0</ele><time>2026-04-04T07:46:00.118Z</time></trkpt><trkpt lat="41.85434" lon="12.5962767"><ele>66.0</ele><time>2026-04-04T07:46:01.117Z</time></trkpt><trkpt lat="41.85441" lon="12.5963667"><ele>66.0</ele><time>2026-04-04T07:46:02.115Z</time></trkpt><trkpt lat="41.8544667" lon="12.59647"><ele>66.0</ele><time>2026-04-04T07:46:03.119Z</time></trkpt><trkpt lat="41.8545117" lon="12.5965933"><ele>65.0</ele><time>2026-04-04T07:46:04.117Z</time></trkpt><trkpt lat="41.8545383" lon="12.59672"><ele>63.99999999999999</ele><time>2026-04-04T07:46:05.117Z</time></trkpt><trkpt lat="41.854545" lon="12.5968417"><ele>62.99999999999999</ele><time>2026-04-04T07:46:06.118Z</time></trkpt><trkpt lat="41.8545233" lon="12.5969617"><ele>62.0</ele><time>2026-04-04T07:46:07.116Z</time></trkpt><trkpt lat="41.85448" lon="12.5970733"><ele>61.0</ele><time>2026-04-04T07:46:08.117Z</time></trkpt><trkpt lat="41.8544267" lon="12.59718"><ele>61.0</ele><time>2026-04-04T07:46:09.115Z</time></trkpt><trkpt lat="41.8543533" lon="12.5972733"><ele>60.99999999999999</ele><time>2026-04-04T07:46:10.118Z</time></trkpt><trkpt lat="41.8542667" lon="12.5973433"><ele>60.99999999999999</ele><time>2026-04-04T07:46:11.117Z</time></trkpt><trkpt lat="41.85416" lon="12.5973817"><ele>61.0</ele><time>2026-04-04T07:46:12.114Z</time></trkpt><trkpt lat="41.85405" lon="12.5973933"><ele>61.0</ele><time>2026-04-04T07:46:13.217Z</time></trkpt><trkpt lat="41.85395" lon="12.5973833"><ele>61.5</ele><time>2026-04-04T07:46:14.118Z</time></trkpt><trkpt lat="41.853835" lon="12.5973617"><ele>62.0</ele><time>2026-04-04T07:46:15.118Z</time></trkpt><trkpt lat="41.85371" lon="12.5973317"><ele>62.5</ele><time>2026-04-04T07:46:16.11Z</time></trkpt><trkpt lat="41.8535867" lon="12.5972983"><ele>63.0</ele><time>2026-04-04T07:46:17.118Z</time></trkpt><trkpt lat="41.8534567" lon="12.597265"><ele>64.5</ele><time>2026-04-04T07:46:18.116Z</time></trkpt><trkpt lat="41.8533233" lon="12.5972233"><ele>66.0</ele><time>2026-04-04T07:46:19.118Z</time></trkpt><trkpt lat="41.85318" lon="12.5971733"><ele>67.5</ele><time>2026-04-04T07:46:20.117Z</time></trkpt><trkpt lat="41.853035" lon="12.5971217"><ele>69.0</ele><time>2026-04-04T07:46:21.119Z</time></trkpt><trkpt lat="41.8528883" lon="12.5970717"><ele>69.0</ele><time>2026-04-04T07:46:22.119Z</time></trkpt><trkpt lat="41.8527317" lon="12.59702"><ele>69.0</ele><time>2026-04-04T07:46:23.117Z</time></trkpt><trkpt lat="41.8525733" lon="12.5969717"><ele>69.0</ele><time>2026-04-04T07:46:24.116Z</time></trkpt><trkpt lat="41.8524183" lon="12.5969267"><ele>68.0</ele><time>2026-04-04T07:46:25.118Z</time></trkpt><trkpt lat="41.8522533" lon="12.596885"><ele>67.0</ele><time>2026-04-04T07:46:26.112Z</time></trkpt><trkpt lat="41.85209" lon="12.5968417"><ele>66.0</ele><time>2026-04-04T07:46:27.114Z</time></trkpt><trkpt lat="41.85192" lon="12.59679"><ele>66.0</ele><time>2026-04-04T07:46:28.119Z</time></trkpt><trkpt lat="41.8517483" lon="12.596735"><ele>66.0</ele><time>2026-04-04T07:46:29.116Z</time></trkpt><trkpt lat="41.8515733" lon="12.59668"><ele>66.0</ele><time>2026-04-04T07:46:30.119Z</time></trkpt><trkpt lat="41.8514" lon="12.5966283"><ele>66.0</ele><time>2026-04-04T07:46:31.118Z</time></trkpt><trkpt lat="41.8512217" lon="12.5965817"><ele>66.0</ele><time>2026-04-04T07:46:32.117Z</time></trkpt><trkpt lat="41.851035" lon="12.59654"><ele>66.0</ele><time>2026-04-04T07:46:33.12Z</time></trkpt><trkpt lat="41.8508467" lon="12.5964917"><ele>65.66666666666667</ele><time>2026-04-04T07:46:34.119Z</time></trkpt><trkpt lat="41.8506633" lon="12.59644"><ele>65.33333333333334</ele><time>2026-04-04T07:46:35.115Z</time></trkpt><trkpt lat="41.8504833" lon="12.5963883"><ele>65.0</ele><time>2026-04-04T07:46:36.118Z</time></trkpt><trkpt lat="41.8503133" lon="12.5963333"><ele>66.66666666666667</ele><time>2026-04-04T07:46:37.117Z</time></trkpt><trkpt lat="41.8501183" lon="12.59628"><ele>68.33333333333333</ele><time>2026-04-04T07:46:38.116Z</time></trkpt><trkpt lat="41.8499233" lon="12.5962333"><ele>70.0</ele><time>2026-04-04T07:46:39.117Z</time></trkpt><trkpt lat="41.849725" lon="12.5961883"><ele>70.33333333333333</ele><time>2026-04-04T07:46:40.117Z</time></trkpt><trkpt lat="41.8495367" lon="12.5961417"><ele>70.66666666666667</ele><time>2026-04-04T07:46:41.115Z</time></trkpt><trkpt lat="41.8493517" lon="12.5960933"><ele>71.0</ele><time>2026-04-04T07:46:42.116Z</time></trkpt><trkpt lat="41.8491617" lon="12.596045"><ele>71.0</ele><time>2026-04-04T07:46:43.116Z</time></trkpt><trkpt lat="41.8489733" lon="12.5960017"><ele>71.0</ele><time>2026-04-04T07:46:44.118Z</time></trkpt><trkpt lat="41.848785" lon="12.5959583"><ele>71.0</ele><time>2026-04-04T07:46:45.117Z</time></trkpt><trkpt lat="41.8486" lon="12.5959117"><ele>70.33333333333334</ele><time>2026-04-04T07:46:46.119Z</time></trkpt><trkpt lat="41.8484167" lon="12.5958617"><ele>69.66666666666667</ele><time>2026-04-04T07:46:47.111Z</time></trkpt><trkpt lat="41.8482317" lon="12.5958183"><ele>69.0</ele><time>2026-04-04T07:46:48.115Z</time></trkpt><trkpt lat="41.8480517" lon="12.5957617"><ele>69.0</ele><time>2026-04-04T07:46:49.117Z</time></trkpt><trkpt lat="41.84787" lon="12.595695"><ele>69.0</ele><time>2026-04-04T07:46:50.114Z</time></trkpt><trkpt lat="41.8476733" lon="12.5956233"><ele>69.0</ele><time>2026-04-04T07:46:51.12Z</time></trkpt><trkpt lat="41.8474783" lon="12.5955417"><ele>70.0</ele><time>2026-04-04T07:46:52.116Z</time></trkpt><trkpt lat="41.847285" lon="12.59546"><ele>71.0</ele><time>2026-04-04T07:46:53.115Z</time></trkpt><trkpt lat="41.8470883" lon="12.5953717"><ele>72.0</ele><time>2026-04-04T07:46:54.115Z</time></trkpt><trkpt lat="41.8468933" lon="12.595275"><ele>72.33333333333333</ele><time>2026-04-04T07:46:55.118Z</time></trkpt><trkpt lat="41.846695" lon="12.5951867"><ele>72.66666666666666</ele><time>2026-04-04T07:46:56.117Z</time></trkpt><trkpt lat="41.8464967" lon="12.5950883"><ele>73.0</ele><time>2026-04-04T07:46:57.116Z</time></trkpt><trkpt lat="41.8462967" lon="12.5949883"><ele>73.0</ele><time>2026-04-04T07:46:58.118Z</time></trkpt><trkpt lat="41.8460967" lon="12.5948933"><ele>73.0</ele><time>2026-04-04T07:46:59.112Z</time></trkpt><trkpt lat="41.8458917" lon="12.5947867"><ele>73.0</ele><time>2026-04-04T07:47:00.119Z</time></trkpt><trkpt lat="41.8456883" lon="12.5946817"><ele>72.33333333333333</ele><time>2026-04-04T07:47:01.118Z</time></trkpt><trkpt lat="41.8454933" lon="12.5945767"><ele>71.66666666666667</ele><time>2026-04-04T07:47:02.116Z</time></trkpt><trkpt lat="41.84529" lon="12.5944683"><ele>71.0</ele><time>2026-04-04T07:47:03.119Z</time></trkpt><trkpt lat="41.84508" lon="12.5943567"><ele>70.0</ele><time>2026-04-04T07:47:04.119Z</time></trkpt><trkpt lat="41.844865" lon="12.5942433"><ele>69.0</ele><time>2026-04-04T07:47:05.117Z</time></trkpt><trkpt lat="41.844655" lon="12.5941283"><ele>69.0</ele><time>2026-04-04T07:47:06.118Z</time></trkpt><trkpt lat="41.8444433" lon="12.594005"><ele>69.0</ele><time>2026-04-04T07:47:07.117Z</time></trkpt><trkpt lat="41.844225" lon="12.5938783"><ele>69.5</ele><time>2026-04-04T07:47:08.115Z</time></trkpt><trkpt lat="41.8440133" lon="12.5937533"><ele>70.0</ele><time>2026-04-04T07:47:09.116Z</time></trkpt><trkpt lat="41.843805" lon="12.5936317"><ele>69.33333333333333</ele><time>2026-04-04T07:47:10.118Z</time></trkpt><trkpt lat="41.84361" lon="12.593515"><ele>68.66666666666667</ele><time>2026-04-04T07:47:11.115Z</time></trkpt><trkpt lat="41.8434117" lon="12.5933983"><ele>68.0</ele><time>2026-04-04T07:47:12.115Z</time></trkpt><trkpt lat="41.8432067" lon="12.593285"><ele>69.66666666666667</ele><time>2026-04-04T07:47:13.119Z</time></trkpt><trkpt lat="41.8430067" lon="12.59318"><ele>71.33333333333333</ele><time>2026-04-04T07:47:14.119Z</time></trkpt><trkpt lat="41.8428067" lon="12.59307"><ele>73.0</ele><time>2026-04-04T07:47:15.118Z</time></trkpt><trkpt lat="41.8425983" lon="12.5929633"><ele>73.33333333333333</ele><time>2026-04-04T07:47:16.119Z</time></trkpt><trkpt lat="41.8423967" lon="12.59286"><ele>73.66666666666667</ele><time>2026-04-04T07:47:17.117Z</time></trkpt><trkpt lat="41.84219" lon="12.59275"><ele>74.0</ele><time>2026-04-04T07:47:18.119Z</time></trkpt><trkpt lat="41.8419633" lon="12.592645"><ele>74.0</ele><time>2026-04-04T07:47:19.12Z</time></trkpt><trkpt lat="41.8417567" lon="12.592525"><ele>74.0</ele><time>2026-04-04T07:47:20.115Z</time></trkpt><trkpt lat="41.8415483" lon="12.59241"><ele>74.0</ele><time>2026-04-04T07:47:21.111Z</time></trkpt><trkpt lat="41.8413367" lon="12.5922983"><ele>74.0</ele><time>2026-04-04T07:47:22.118Z</time></trkpt><trkpt lat="41.8411133" lon="12.592195"><ele>74.5</ele><time>2026-04-04T07:47:23.114Z</time></trkpt><trkpt lat="41.8408967" lon="12.5920867"><ele>75.0</ele><time>2026-04-04T07:47:24.118Z</time></trkpt><trkpt lat="41.840685" lon="12.5919883"><ele>75.0</ele><time>2026-04-04T07:47:25.118Z</time></trkpt><trkpt lat="41.8404733" lon="12.591885"><ele>75.0</ele><time>2026-04-04T07:47:26.118Z</time></trkpt><trkpt lat="41.8402633" lon="12.5917833"><ele>75.0</ele><time>2026-04-04T07:47:27.117Z</time></trkpt><trkpt lat="41.8400567" lon="12.59168"><ele>75.0</ele><time>2026-04-04T07:47:28.118Z</time></trkpt><trkpt lat="41.8398583" lon="12.5915733"><ele>75.0</ele><time>2026-04-04T07:47:29.114Z</time></trkpt><trkpt lat="41.8396683" lon="12.5914717"><ele>75.0</ele><time>2026-04-04T07:47:30.116Z</time></trkpt><trkpt lat="41.8394783" lon="12.59137"><ele>74.66666666666667</ele><time>2026-04-04T07:47:31.114Z</time></trkpt><trkpt lat="41.8392867" lon="12.591265"><ele>74.33333333333334</ele><time>2026-04-04T07:47:32.119Z</time></trkpt><trkpt lat="41.83909" lon="12.5911483"><ele>74.0</ele><time>2026-04-04T07:47:33.117Z</time></trkpt><trkpt lat="41.8388983" lon="12.591035"><ele>73.66666666666667</ele><time>2026-04-04T07:47:34.117Z</time></trkpt><trkpt lat="41.8387017" lon="12.5909183"><ele>73.33333333333333</ele><time>2026-04-04T07:47:35.116Z</time></trkpt><trkpt lat="41.8385083" lon="12.59081"><ele>73.0</ele><time>2026-04-04T07:47:36.114Z</time></trkpt><trkpt lat="41.838315" lon="12.5906967"><ele>73.0</ele><time>2026-04-04T07:47:37.115Z</time></trkpt><trkpt lat="41.83813" lon="12.590585"><ele>73.0</ele><time>2026-04-04T07:47:38.117Z</time></trkpt><trkpt lat="41.837945" lon="12.5904783"><ele>73.0</ele><time>2026-04-04T07:47:39.122Z</time></trkpt><trkpt lat="41.8377583" lon="12.5903583"><ele>74.33333333333333</ele><time>2026-04-04T07:47:40.112Z</time></trkpt><trkpt lat="41.8375683" lon="12.5902383"><ele>75.66666666666667</ele><time>2026-04-04T07:47:41.114Z</time></trkpt><trkpt lat="41.8373767" lon="12.5901283"><ele>77.0</ele><time>2026-04-04T07:47:42.116Z</time></trkpt><trkpt lat="41.83719" lon="12.5900183"><ele>77.0</ele><time>2026-04-04T07:47:43.114Z</time></trkpt><trkpt lat="41.8370067" lon="12.5899133"><ele>77.0</ele><time>2026-04-04T07:47:44.118Z</time></trkpt><trkpt lat="41.8368183" lon="12.5898017"><ele>77.0</ele><time>2026-04-04T07:47:45.119Z</time></trkpt><trkpt lat="41.8366333" lon="12.589685"><ele>77.0</ele><time>2026-04-04T07:47:46.116Z</time></trkpt><trkpt lat="41.836445" lon="12.5895633"><ele>77.0</ele><time>2026-04-04T07:47:47.115Z</time></trkpt><trkpt lat="41.83626" lon="12.58945"><ele>77.0</ele><time>2026-04-04T07:47:48.117Z</time></trkpt><trkpt lat="41.8360767" lon="12.58934"><ele>76.0</ele><time>2026-04-04T07:47:49.117Z</time></trkpt><trkpt lat="41.835895" lon="12.589225"><ele>75.0</ele><time>2026-04-04T07:47:50.115Z</time></trkpt><trkpt lat="41.83571" lon="12.589105"><ele>74.0</ele><time>2026-04-04T07:47:51.114Z</time></trkpt><trkpt lat="41.835525" lon="12.58897"><ele>74.0</ele><time>2026-04-04T07:47:52.118Z</time></trkpt><trkpt lat="41.8353433" lon="12.58883"><ele>74.0</ele><time>2026-04-04T07:47:53.118Z</time></trkpt><trkpt lat="41.8351633" lon="12.5886767"><ele>74.0</ele><time>2026-04-04T07:47:54.117Z</time></trkpt><trkpt lat="41.83499" lon="12.5885167"><ele>73.66666666666667</ele><time>2026-04-04T07:47:55.115Z</time></trkpt><trkpt lat="41.8348217" lon="12.5883417"><ele>73.33333333333333</ele><time>2026-04-04T07:47:56.118Z</time></trkpt><trkpt lat="41.83466" lon="12.5881633"><ele>73.0</ele><time>2026-04-04T07:47:57.118Z</time></trkpt><trkpt lat="41.8345017" lon="12.5879767"><ele>72.66666666666666</ele><time>2026-04-04T07:47:58.115Z</time></trkpt><trkpt lat="41.83434" lon="12.5877883"><ele>72.33333333333333</ele><time>2026-04-04T07:47:59.114Z</time></trkpt><trkpt lat="41.8341867" lon="12.5875983"><ele>72.0</ele><time>2026-04-04T07:48:00.116Z</time></trkpt><trkpt lat="41.8340433" lon="12.5874083"><ele>71.66666666666667</ele><time>2026-04-04T07:48:01.117Z</time></trkpt><trkpt lat="41.8339083" lon="12.5872117"><ele>71.33333333333334</ele><time>2026-04-04T07:48:02.118Z</time></trkpt><trkpt lat="41.8337717" lon="12.5870067"><ele>71.0</ele><time>2026-04-04T07:48:03.118Z</time></trkpt><trkpt lat="41.8336367" lon="12.5868"><ele>71.0</ele><time>2026-04-04T07:48:04.117Z</time></trkpt><trkpt lat="41.8335067" lon="12.5865917"><ele>71.0</ele><time>2026-04-04T07:48:05.117Z</time></trkpt><trkpt lat="41.8333783" lon="12.5863783"><ele>71.0</ele><time>2026-04-04T07:48:06.118Z</time></trkpt><trkpt lat="41.8332467" lon="12.5861683"><ele>71.33333333333334</ele><time>2026-04-04T07:48:07.119Z</time></trkpt><trkpt lat="41.8331133" lon="12.585955"><ele>71.66666666666667</ele><time>2026-04-04T07:48:08.119Z</time></trkpt><trkpt lat="41.83298" lon="12.585745"><ele>72.0</ele><time>2026-04-04T07:48:09.116Z</time></trkpt><trkpt lat="41.832845" lon="12.5855367"><ele>72.33333333333333</ele><time>2026-04-04T07:48:10.118Z</time></trkpt><trkpt lat="41.8327067" lon="12.5853317"><ele>72.66666666666666</ele><time>2026-04-04T07:48:11.115Z</time></trkpt><trkpt lat="41.8325633" lon="12.5851333"><ele>73.0</ele><time>2026-04-04T07:48:12.117Z</time></trkpt><trkpt lat="41.8324217" lon="12.5849367"><ele>74.0</ele><time>2026-04-04T07:48:13.116Z</time></trkpt><trkpt lat="41.8322667" lon="12.5847517"><ele>75.0</ele><time>2026-04-04T07:48:14.117Z</time></trkpt><trkpt lat="41.832105" lon="12.58457"><ele>76.0</ele><time>2026-04-04T07:48:15.118Z</time></trkpt><trkpt lat="41.8319383" lon="12.5843917"><ele>76.33333333333333</ele><time>2026-04-04T07:48:16.117Z</time></trkpt><trkpt lat="41.8317633" lon="12.5842233"><ele>76.66666666666667</ele><time>2026-04-04T07:48:17.117Z</time></trkpt><trkpt lat="41.8315783" lon="12.5840617"><ele>77.0</ele><time>2026-04-04T07:48:18.118Z</time></trkpt><trkpt lat="41.8313883" lon="12.5839067"><ele>77.0</ele><time>2026-04-04T07:48:19.119Z</time></trkpt><trkpt lat="41.8312033" lon="12.5837533"><ele>77.0</ele><time>2026-04-04T07:48:20.117Z</time></trkpt><trkpt lat="41.831015" lon="12.5836083"><ele>77.0</ele><time>2026-04-04T07:48:21.115Z</time></trkpt><trkpt lat="41.8308283" lon="12.58348"><ele>77.66666666666667</ele><time>2026-04-04T07:48:22.117Z</time></trkpt><trkpt lat="41.83064" lon="12.583355"><ele>78.33333333333333</ele><time>2026-04-04T07:48:23.117Z</time></trkpt><trkpt lat="41.830445" lon="12.5832383"><ele>79.0</ele><time>2026-04-04T07:48:24.117Z</time></trkpt><trkpt lat="41.830255" lon="12.583125"><ele>79.0</ele><time>2026-04-04T07:48:25.114Z</time></trkpt><trkpt lat="41.830065" lon="12.5830217"><ele>79.0</ele><time>2026-04-04T07:48:26.118Z</time></trkpt><trkpt lat="41.8298783" lon="12.5829133"><ele>79.0</ele><time>2026-04-04T07:48:27.118Z</time></trkpt><trkpt lat="41.8296933" lon="12.5828083"><ele>78.66666666666666</ele><time>2026-04-04T07:48:28.118Z</time></trkpt><trkpt lat="41.829505" lon="12.5827017"><ele>78.33333333333333</ele><time>2026-04-04T07:48:29.116Z</time></trkpt><trkpt lat="41.82931" lon="12.58259"><ele>78.0</ele><time>2026-04-04T07:48:30.119Z</time></trkpt><trkpt lat="41.8291217" lon="12.5824733"><ele>78.0</ele><time>2026-04-04T07:48:31.115Z</time></trkpt><trkpt lat="41.8289267" lon="12.5823567"><ele>78.0</ele><time>2026-04-04T07:48:32.119Z</time></trkpt><trkpt lat="41.8287317" lon="12.5822383"><ele>78.0</ele><time>2026-04-04T07:48:33.119Z</time></trkpt><trkpt lat="41.8285333" lon="12.582115"><ele>77.0</ele><time>2026-04-04T07:48:34.115Z</time></trkpt><trkpt lat="41.82833" lon="12.5819967"><ele>76.0</ele><time>2026-04-04T07:48:35.116Z</time></trkpt><trkpt lat="41.828125" lon="12.5818867"><ele>75.0</ele><time>2026-04-04T07:48:36.118Z</time></trkpt><trkpt lat="41.8279167" lon="12.5817683"><ele>75.0</ele><time>2026-04-04T07:48:37.111Z</time></trkpt><trkpt lat="41.82771" lon="12.5816567"><ele>75.0</ele><time>2026-04-04T07:48:38.117Z</time></trkpt><trkpt lat="41.8274933" lon="12.5815533"><ele>77.0</ele><time>2026-04-04T07:48:39.119Z</time></trkpt><trkpt lat="41.8272717" lon="12.5814567"><ele>79.0</ele><time>2026-04-04T07:48:40.118Z</time></trkpt><trkpt lat="41.8270517" lon="12.5813667"><ele>79.0</ele><time>2026-04-04T07:48:41.117Z</time></trkpt><trkpt lat="41.8268367" lon="12.5812883"><ele>79.0</ele><time>2026-04-04T07:48:42.117Z</time></trkpt><trkpt lat="41.8266217" lon="12.581215"><ele>79.0</ele><time>2026-04-04T07:48:43.12Z</time></trkpt><trkpt lat="41.8264133" lon="12.5811533"><ele>79.0</ele><time>2026-04-04T07:48:44.118Z</time></trkpt><trkpt lat="41.8262083" lon="12.5811083"><ele>79.0</ele><time>2026-04-04T07:48:45.119Z</time></trkpt><trkpt lat="41.8260017" lon="12.5810683"><ele>79.0</ele><time>2026-04-04T07:48:46.12Z</time></trkpt><trkpt lat="41.8257933" lon="12.5810333"><ele>79.0</ele><time>2026-04-04T07:48:47.117Z</time></trkpt><trkpt lat="41.82558" lon="12.5810067"><ele>79.0</ele><time>2026-04-04T07:48:48.114Z</time></trkpt><trkpt lat="41.8253683" lon="12.5809883"><ele>79.0</ele><time>2026-04-04T07:48:49.119Z</time></trkpt><trkpt lat="41.825155" lon="12.5809717"><ele>80.0</ele><time>2026-04-04T07:48:50.117Z</time></trkpt><trkpt lat="41.8249367" lon="12.58096"><ele>81.0</ele><time>2026-04-04T07:48:51.115Z</time></trkpt><trkpt lat="41.82472" lon="12.5809433"><ele>82.0</ele><time>2026-04-04T07:48:52.119Z</time></trkpt><trkpt lat="41.8245017" lon="12.5809183"><ele>82.0</ele><time>2026-04-04T07:48:53.114Z</time></trkpt><trkpt lat="41.8242817" lon="12.580885"><ele>82.0</ele><time>2026-04-04T07:48:54.118Z</time></trkpt><trkpt lat="41.82406" lon="12.5808467"><ele>82.0</ele><time>2026-04-04T07:48:55.117Z</time></trkpt><trkpt lat="41.8238417" lon="12.5807983"><ele>82.0</ele><time>2026-04-04T07:48:56.118Z</time></trkpt><trkpt lat="41.823625" lon="12.5807483"><ele>82.0</ele><time>2026-04-04T07:48:57.116Z</time></trkpt><trkpt lat="41.8234083" lon="12.5806867"><ele>82.0</ele><time>2026-04-04T07:48:58.117Z</time></trkpt><trkpt lat="41.8231917" lon="12.5806167"><ele>82.33333333333333</ele><time>2026-04-04T07:48:59.118Z</time></trkpt><trkpt lat="41.8229783" lon="12.580535"><ele>82.66666666666667</ele><time>2026-04-04T07:49:00.116Z</time></trkpt><trkpt lat="41.822765" lon="12.58044"><ele>83.0</ele><time>2026-04-04T07:49:01.115Z</time></trkpt><trkpt lat="41.8225517" lon="12.5803417"><ele>82.0</ele><time>2026-04-04T07:49:02.118Z</time></trkpt><trkpt lat="41.822335" lon="12.5802317"><ele>81.0</ele><time>2026-04-04T07:49:03.119Z</time></trkpt><trkpt lat="41.8221183" lon="12.58011"><ele>81.0</ele><time>2026-04-04T07:49:04.118Z</time></trkpt><trkpt lat="41.8219083" lon="12.5799833"><ele>81.0</ele><time>2026-04-04T07:49:05.118Z</time></trkpt><trkpt lat="41.8216967" lon="12.5798517"><ele>82.0</ele><time>2026-04-04T07:49:06.117Z</time></trkpt><trkpt lat="41.8214867" lon="12.5797183"><ele>83.0</ele><time>2026-04-04T07:49:07.119Z</time></trkpt><trkpt lat="41.8212817" lon="12.5795833"><ele>82.5</ele><time>2026-04-04T07:49:08.116Z</time></trkpt><trkpt lat="41.8210767" lon="12.5794483"><ele>82.0</ele><time>2026-04-04T07:49:09.12Z</time></trkpt><trkpt lat="41.8208683" lon="12.57931"><ele>82.0</ele><time>2026-04-04T07:49:10.119Z</time></trkpt><trkpt lat="41.8206667" lon="12.57917"><ele>82.0</ele><time>2026-04-04T07:49:11.118Z</time></trkpt><trkpt lat="41.8204583" lon="12.5790283"><ele>82.0</ele><time>2026-04-04T07:49:12.118Z</time></trkpt><trkpt lat="41.8202567" lon="12.5788883"><ele>82.0</ele><time>2026-04-04T07:49:13.116Z</time></trkpt><trkpt lat="41.8200533" lon="12.5787533"><ele>84.0</ele><time>2026-04-04T07:49:14.117Z</time></trkpt><trkpt lat="41.819855" lon="12.5786133"><ele>86.0</ele><time>2026-04-04T07:49:15.117Z</time></trkpt><trkpt lat="41.8196533" lon="12.578475"><ele>86.0</ele><time>2026-04-04T07:49:16.117Z</time></trkpt><trkpt lat="41.8194517" lon="12.578335"><ele>86.0</ele><time>2026-04-04T07:49:17.116Z</time></trkpt><trkpt lat="41.8192517" lon="12.5781983"><ele>85.5</ele><time>2026-04-04T07:49:18.118Z</time></trkpt><trkpt lat="41.8190483" lon="12.57806"><ele>85.0</ele><time>2026-04-04T07:49:19.118Z</time></trkpt><trkpt lat="41.8188417" lon="12.5779233"><ele>86.0</ele><time>2026-04-04T07:49:20.118Z</time></trkpt><trkpt lat="41.81864" lon="12.57779"><ele>87.0</ele><time>2026-04-04T07:49:21.115Z</time></trkpt><trkpt lat="41.8184367" lon="12.57766"><ele>87.66666666666667</ele><time>2026-04-04T07:49:22.12Z</time></trkpt><trkpt lat="41.8182383" lon="12.577525"><ele>88.33333333333334</ele><time>2026-04-04T07:49:23.118Z</time></trkpt><trkpt lat="41.81804" lon="12.5773983"><ele>89.0</ele><time>2026-04-04T07:49:24.114Z</time></trkpt><trkpt lat="41.8178433" lon="12.5772683"><ele>89.0</ele><time>2026-04-04T07:49:25.118Z</time></trkpt><trkpt lat="41.8176517" lon="12.5771417"><ele>89.0</ele><time>2026-04-04T07:49:26.118Z</time></trkpt><trkpt lat="41.8174567" lon="12.5770183"><ele>89.0</ele><time>2026-04-04T07:49:27.115Z</time></trkpt><trkpt lat="41.817265" lon="12.5768933"><ele>89.0</ele><time>2026-04-04T07:49:28.12Z</time></trkpt><trkpt lat="41.8170733" lon="12.576775"><ele>89.0</ele><time>2026-04-04T07:49:29.11Z</time></trkpt><trkpt lat="41.8168767" lon="12.5766583"><ele>89.0</ele><time>2026-04-04T07:49:30.118Z</time></trkpt><trkpt lat="41.816685" lon="12.5765333"><ele>89.0</ele><time>2026-04-04T07:49:31.117Z</time></trkpt><trkpt lat="41.8164983" lon="12.57641"><ele>89.0</ele><time>2026-04-04T07:49:32.114Z</time></trkpt><trkpt lat="41.8163133" lon="12.576285"><ele>89.0</ele><time>2026-04-04T07:49:33.116Z</time></trkpt><trkpt lat="41.816125" lon="12.576155"><ele>88.33333333333334</ele><time>2026-04-04T07:49:34.119Z</time></trkpt><trkpt lat="41.8159383" lon="12.5760383"><ele>87.66666666666667</ele><time>2026-04-04T07:49:35.116Z</time></trkpt><trkpt lat="41.81575" lon="12.5759133"><ele>87.0</ele><time>2026-04-04T07:49:36.118Z</time></trkpt><trkpt lat="41.8155617" lon="12.5757883"><ele>87.0</ele><time>2026-04-04T07:49:37.119Z</time></trkpt><trkpt lat="41.815375" lon="12.5756667"><ele>87.0</ele><time>2026-04-04T07:49:38.114Z</time></trkpt><trkpt lat="41.8151933" lon="12.5755333"><ele>87.0</ele><time>2026-04-04T07:49:39.115Z</time></trkpt><trkpt lat="41.8150083" lon="12.5753933"><ele>87.0</ele><time>2026-04-04T07:49:40.117Z</time></trkpt><trkpt lat="41.8148317" lon="12.5752483"><ele>87.0</ele><time>2026-04-04T07:49:41.115Z</time></trkpt><trkpt lat="41.8146533" lon="12.575095"><ele>87.0</ele><time>2026-04-04T07:49:42.115Z</time></trkpt><trkpt lat="41.814475" lon="12.5749367"><ele>87.0</ele><time>2026-04-04T07:49:43.117Z</time></trkpt><trkpt lat="41.81429" lon="12.57477"><ele>87.0</ele><time>2026-04-04T07:49:44.118Z</time></trkpt><trkpt lat="41.8141067" lon="12.5745983"><ele>87.0</ele><time>2026-04-04T07:49:45.114Z</time></trkpt><trkpt lat="41.813925" lon="12.5744217"><ele>87.0</ele><time>2026-04-04T07:49:46.118Z</time></trkpt><trkpt lat="41.81374" lon="12.5742367"><ele>87.0</ele><time>2026-04-04T07:49:47.118Z</time></trkpt><trkpt lat="41.8135617" lon="12.574055"><ele>87.0</ele><time>2026-04-04T07:49:48.117Z</time></trkpt><trkpt lat="41.813385" lon="12.573855"><ele>87.0</ele><time>2026-04-04T07:49:49.115Z</time></trkpt><trkpt lat="41.8132167" lon="12.5736417"><ele>86.5</ele><time>2026-04-04T07:49:50.119Z</time></trkpt><trkpt lat="41.8130517" lon="12.5734283"><ele>86.0</ele><time>2026-04-04T07:49:51.119Z</time></trkpt><trkpt lat="41.81289" lon="12.573205"><ele>86.0</ele><time>2026-04-04T07:49:52.119Z</time></trkpt><trkpt lat="41.8127417" lon="12.5729667"><ele>86.0</ele><time>2026-04-04T07:49:53.114Z</time></trkpt><trkpt lat="41.812585" lon="12.5727433"><ele>84.5</ele><time>2026-04-04T07:49:54.118Z</time></trkpt><trkpt lat="41.8124367" lon="12.5725117"><ele>83.0</ele><time>2026-04-04T07:49:55.12Z</time></trkpt><trkpt lat="41.81231" lon="12.5722517"><ele>83.5</ele><time>2026-04-04T07:49:56.117Z</time></trkpt><trkpt lat="41.8121733" lon="12.57199"><ele>84.0</ele><time>2026-04-04T07:49:57.114Z</time></trkpt><trkpt lat="41.8120383" lon="12.5717283"><ele>84.0</ele><time>2026-04-04T07:49:58.117Z</time></trkpt><trkpt lat="41.8119083" lon="12.5714683"><ele>84.0</ele><time>2026-04-04T07:49:59.113Z</time></trkpt><trkpt lat="41.8117817" lon="12.5712183"><ele>84.33333333333333</ele><time>2026-04-04T07:50:00.115Z</time></trkpt><trkpt lat="41.8116617" lon="12.57097"><ele>84.66666666666666</ele><time>2026-04-04T07:50:01.118Z</time></trkpt><trkpt lat="41.811555" lon="12.5707267"><ele>85.0</ele><time>2026-04-04T07:50:02.119Z</time></trkpt><trkpt lat="41.81145" lon="12.57048"><ele>86.0</ele><time>2026-04-04T07:50:03.114Z</time></trkpt><trkpt lat="41.8113383" lon="12.5702217"><ele>87.0</ele><time>2026-04-04T07:50:04.119Z</time></trkpt><trkpt lat="41.8112283" lon="12.56998"><ele>88.0</ele><time>2026-04-04T07:50:05.117Z</time></trkpt><trkpt lat="41.81112" lon="12.5697433"><ele>87.66666666666666</ele><time>2026-04-04T07:50:06.115Z</time></trkpt><trkpt lat="41.81101" lon="12.5695083"><ele>87.33333333333333</ele><time>2026-04-04T07:50:07.118Z</time></trkpt><trkpt lat="41.8109067" lon="12.5692783"><ele>87.0</ele><time>2026-04-04T07:50:08.118Z</time></trkpt><trkpt lat="41.8108" lon="12.56906"><ele>87.0</ele><time>2026-04-04T07:50:09.115Z</time></trkpt><trkpt lat="41.81069" lon="12.5688467"><ele>87.0</ele><time>2026-04-04T07:50:10.117Z</time></trkpt><trkpt lat="41.8105783" lon="12.5686283"><ele>87.0</ele><time>2026-04-04T07:50:11.113Z</time></trkpt><trkpt lat="41.8104683" lon="12.5684133"><ele>87.66666666666667</ele><time>2026-04-04T07:50:12.117Z</time></trkpt><trkpt lat="41.8103517" lon="12.56821"><ele>88.33333333333334</ele><time>2026-04-04T07:50:13.114Z</time></trkpt><trkpt lat="41.8102333" lon="12.5680117"><ele>89.0</ele><time>2026-04-04T07:50:14.115Z</time></trkpt><trkpt lat="41.8101167" lon="12.5678067"><ele>89.66666666666667</ele><time>2026-04-04T07:50:15.115Z</time></trkpt><trkpt lat="41.8100017" lon="12.5676"><ele>90.33333333333333</ele><time>2026-04-04T07:50:16.117Z</time></trkpt><trkpt lat="41.809885" lon="12.56739"><ele>91.0</ele><time>2026-04-04T07:50:17.116Z</time></trkpt><trkpt lat="41.8108425" lon="12.5694263"><ele>88.0</ele><time>2026-04-04T07:50:35.333Z</time></trkpt><trkpt lat="41.8045333" lon="12.5581717"><ele>85.0</ele><time>2026-04-04T07:51:03.116Z</time></trkpt><trkpt lat="41.80433" lon="12.5572633"><ele>82.0</ele><time>2026-04-04T07:51:04.117Z</time></trkpt><trkpt lat="41.8042033" lon="12.556995"><ele>79.0</ele><time>2026-04-04T07:51:05.119Z</time></trkpt><trkpt lat="41.8040683" lon="12.55675"><ele>79.0</ele><time>2026-04-04T07:51:06.12Z</time></trkpt><trkpt lat="41.803935" lon="12.5564983"><ele>79.0</ele><time>2026-04-04T07:51:07.115Z</time></trkpt><trkpt lat="41.8037983" lon="12.5562483"><ele>78.5</ele><time>2026-04-04T07:51:08.107Z</time></trkpt><trkpt lat="41.8036567" lon="12.5559933"><ele>78.0</ele><time>2026-04-04T07:51:09.109Z</time></trkpt><trkpt lat="41.8035233" lon="12.55575"><ele>78.0</ele><time>2026-04-04T07:51:10.108Z</time></trkpt><trkpt lat="41.8033933" lon="12.555505"><ele>78.0</ele><time>2026-04-04T07:51:11.108Z</time></trkpt><trkpt lat="41.8032517" lon="12.555255"><ele>78.0</ele><time>2026-04-04T07:51:12.11Z</time></trkpt><trkpt lat="41.80311" lon="12.5550017"><ele>78.0</ele><time>2026-04-04T07:51:13.121Z</time></trkpt><trkpt lat="41.8029683" lon="12.5547417"><ele>78.0</ele><time>2026-04-04T07:51:14.12Z</time></trkpt><trkpt lat="41.8028217" lon="12.5544783"><ele>78.0</ele><time>2026-04-04T07:51:15.119Z</time></trkpt><trkpt lat="41.8026733" lon="12.554215"><ele>78.5</ele><time>2026-04-04T07:51:16.118Z</time></trkpt><trkpt lat="41.8025217" lon="12.55395"><ele>79.0</ele><time>2026-04-04T07:51:17.117Z</time></trkpt><trkpt lat="41.802375" lon="12.5536783"><ele>78.0</ele><time>2026-04-04T07:51:18.117Z</time></trkpt><trkpt lat="41.8022333" lon="12.5534"><ele>77.0</ele><time>2026-04-04T07:51:19.119Z</time></trkpt><trkpt lat="41.80209" lon="12.5531233"><ele>76.0</ele><time>2026-04-04T07:51:20.117Z</time></trkpt><trkpt lat="41.8019517" lon="12.5528483"><ele>75.0</ele><time>2026-04-04T07:51:21.114Z</time></trkpt><trkpt lat="41.801815" lon="12.55257"><ele>75.0</ele><time>2026-04-04T07:51:22.118Z</time></trkpt><trkpt lat="41.80168" lon="12.55229"><ele>75.0</ele><time>2026-04-04T07:51:23.117Z</time></trkpt><trkpt lat="41.8015467" lon="12.552015"><ele>73.0</ele><time>2026-04-04T07:51:24.117Z</time></trkpt><trkpt lat="41.8014233" lon="12.5517383"><ele>71.0</ele><time>2026-04-04T07:51:25.122Z</time></trkpt><trkpt lat="41.801305" lon="12.5514567"><ele>70.5</ele><time>2026-04-04T07:51:26.119Z</time></trkpt><trkpt lat="41.8011883" lon="12.5511683"><ele>70.0</ele><time>2026-04-04T07:51:27.11Z</time></trkpt><trkpt lat="41.8010783" lon="12.550885"><ele>72.5</ele><time>2026-04-04T07:51:28.118Z</time></trkpt><trkpt lat="41.80097" lon="12.5506033"><ele>75.0</ele><time>2026-04-04T07:51:29.115Z</time></trkpt><trkpt lat="41.80087" lon="12.5503133"><ele>75.0</ele><time>2026-04-04T07:51:30.12Z</time></trkpt><trkpt lat="41.8007817" lon="12.5500233"><ele>75.0</ele><time>2026-04-04T07:51:31.121Z</time></trkpt><trkpt lat="41.800695" lon="12.5497317"><ele>75.5</ele><time>2026-04-04T07:51:32.118Z</time></trkpt><trkpt lat="41.80061" lon="12.5494383"><ele>76.0</ele><time>2026-04-04T07:51:33.116Z</time></trkpt><trkpt lat="41.800525" lon="12.5491433"><ele>76.0</ele><time>2026-04-04T07:51:34.117Z</time></trkpt><trkpt lat="41.8004433" lon="12.5488433"><ele>76.0</ele><time>2026-04-04T07:51:35.117Z</time></trkpt><trkpt lat="41.80036" lon="12.5485417"><ele>76.0</ele><time>2026-04-04T07:51:36.117Z</time></trkpt><trkpt lat="41.8002783" lon="12.5482333"><ele>76.0</ele><time>2026-04-04T07:51:37.115Z</time></trkpt><trkpt lat="41.8001967" lon="12.54792"><ele>78.0</ele><time>2026-04-04T07:51:38.116Z</time></trkpt><trkpt lat="41.8001217" lon="12.5476017"><ele>80.0</ele><time>2026-04-04T07:51:39.117Z</time></trkpt><trkpt lat="41.8000433" lon="12.5472767"><ele>82.0</ele><time>2026-04-04T07:51:40.118Z</time></trkpt><trkpt lat="41.7999683" lon="12.546945"><ele>84.0</ele><time>2026-04-04T07:51:41.119Z</time></trkpt><trkpt lat="41.7998917" lon="12.54661"><ele>84.0</ele><time>2026-04-04T07:51:42.118Z</time></trkpt><trkpt lat="41.799815" lon="12.5462767"><ele>84.0</ele><time>2026-04-04T07:51:43.117Z</time></trkpt><trkpt lat="41.7997367" lon="12.5459383"><ele>84.5</ele><time>2026-04-04T07:51:44.114Z</time></trkpt><trkpt lat="41.79966" lon="12.5455983"><ele>85.0</ele><time>2026-04-04T07:51:45.119Z</time></trkpt><trkpt lat="41.799585" lon="12.5452533"><ele>85.0</ele><time>2026-04-04T07:51:46.119Z</time></trkpt><trkpt lat="41.7995117" lon="12.5449183"><ele>85.0</ele><time>2026-04-04T07:51:47.117Z</time></trkpt><trkpt lat="41.7994417" lon="12.5445867"><ele>86.0</ele><time>2026-04-04T07:51:48.116Z</time></trkpt><trkpt lat="41.7993733" lon="12.5442667"><ele>87.0</ele><time>2026-04-04T07:51:49.116Z</time></trkpt><trkpt lat="41.7993067" lon="12.5439533"><ele>87.5</ele><time>2026-04-04T07:51:50.116Z</time></trkpt><trkpt lat="41.79924" lon="12.543645"><ele>88.0</ele><time>2026-04-04T07:51:51.118Z</time></trkpt><trkpt lat="41.7991717" lon="12.5433417"><ele>88.0</ele><time>2026-04-04T07:51:52.118Z</time></trkpt><trkpt lat="41.7991033" lon="12.543045"><ele>88.0</ele><time>2026-04-04T07:51:53.118Z</time></trkpt><trkpt lat="41.7990367" lon="12.5427583"><ele>87.0</ele><time>2026-04-04T07:51:54.118Z</time></trkpt><trkpt lat="41.7989767" lon="12.5424783"><ele>86.0</ele><time>2026-04-04T07:51:55.119Z</time></trkpt><trkpt lat="41.7989117" lon="12.5422067"><ele>85.0</ele><time>2026-04-04T07:51:56.115Z</time></trkpt><trkpt lat="41.7988483" lon="12.54193"><ele>85.0</ele><time>2026-04-04T07:51:57.12Z</time></trkpt><trkpt lat="41.798785" lon="12.5416467"><ele>85.0</ele><time>2026-04-04T07:51:58.118Z</time></trkpt><trkpt lat="41.7987183" lon="12.5413633"><ele>85.0</ele><time>2026-04-04T07:51:59.116Z</time></trkpt><trkpt lat="41.7986533" lon="12.541075"><ele>85.0</ele><time>2026-04-04T07:52:00.117Z</time></trkpt><trkpt lat="41.79859" lon="12.5407867"><ele>85.0</ele><time>2026-04-04T07:52:01.117Z</time></trkpt><trkpt lat="41.7985217" lon="12.5405033"><ele>85.0</ele><time>2026-04-04T07:52:02.111Z</time></trkpt><trkpt lat="41.7984567" lon="12.540225"><ele>82.66666666666666</ele><time>2026-04-04T07:52:03.12Z</time></trkpt><trkpt lat="41.7983883" lon="12.5399467"><ele>80.33333333333333</ele><time>2026-04-04T07:52:04.119Z</time></trkpt><trkpt lat="41.79832" lon="12.53967"><ele>78.0</ele><time>2026-04-04T07:52:05.117Z</time></trkpt><trkpt lat="41.7982567" lon="12.5393867"><ele>77.5</ele><time>2026-04-04T07:52:06.117Z</time></trkpt><trkpt lat="41.7981867" lon="12.5390933"><ele>77.0</ele><time>2026-04-04T07:52:07.118Z</time></trkpt><trkpt lat="41.7981167" lon="12.5387933"><ele>75.5</ele><time>2026-04-04T07:52:08.115Z</time></trkpt><trkpt lat="41.7980467" lon="12.538485"><ele>74.0</ele><time>2026-04-04T07:52:09.118Z</time></trkpt><trkpt lat="41.797975" lon="12.5381667"><ele>73.0</ele><time>2026-04-04T07:52:10.119Z</time></trkpt><trkpt lat="41.7979017" lon="12.53784"><ele>72.0</ele><time>2026-04-04T07:52:11.116Z</time></trkpt><trkpt lat="41.797825" lon="12.53751"><ele>72.0</ele><time>2026-04-04T07:52:12.119Z</time></trkpt><trkpt lat="41.79775" lon="12.53717"><ele>72.0</ele><time>2026-04-04T07:52:13.118Z</time></trkpt><trkpt lat="41.7976767" lon="12.5368283"><ele>72.5</ele><time>2026-04-04T07:52:14.118Z</time></trkpt><trkpt lat="41.7976033" lon="12.5364867"><ele>73.0</ele><time>2026-04-04T07:52:15.119Z</time></trkpt><trkpt lat="41.7975317" lon="12.53614"><ele>73.0</ele><time>2026-04-04T07:52:16.117Z</time></trkpt><trkpt lat="41.797455" lon="12.535795"><ele>73.0</ele><time>2026-04-04T07:52:17.117Z</time></trkpt><trkpt lat="41.7973783" lon="12.5354533"><ele>72.5</ele><time>2026-04-04T07:52:18.119Z</time></trkpt><trkpt lat="41.7973017" lon="12.5351117"><ele>72.0</ele><time>2026-04-04T07:52:19.119Z</time></trkpt><trkpt lat="41.79723" lon="12.5347683"><ele>72.5</ele><time>2026-04-04T07:52:20.119Z</time></trkpt><trkpt lat="41.7971533" lon="12.5344267"><ele>73.0</ele><time>2026-04-04T07:52:21.119Z</time></trkpt><trkpt lat="41.7970767" lon="12.5340867"><ele>73.0</ele><time>2026-04-04T07:52:22.119Z</time></trkpt><trkpt lat="41.7970017" lon="12.533745"><ele>73.0</ele><time>2026-04-04T07:52:23.116Z</time></trkpt><trkpt lat="41.7969233" lon="12.5334017"><ele>72.0</ele><time>2026-04-04T07:52:24.118Z</time></trkpt><trkpt lat="41.7968483" lon="12.5330567"><ele>71.0</ele><time>2026-04-04T07:52:25.119Z</time></trkpt><trkpt lat="41.7967733" lon="12.53271"><ele>68.0</ele><time>2026-04-04T07:52:26.116Z</time></trkpt><trkpt lat="41.7966967" lon="12.532365"><ele>65.0</ele><time>2026-04-04T07:52:27.119Z</time></trkpt><trkpt lat="41.79662" lon="12.532015"><ele>64.0</ele><time>2026-04-04T07:52:28.116Z</time></trkpt><trkpt lat="41.796545" lon="12.5316633"><ele>63.0</ele><time>2026-04-04T07:52:29.118Z</time></trkpt><trkpt lat="41.7964683" lon="12.531315"><ele>63.0</ele><time>2026-04-04T07:52:30.121Z</time></trkpt><trkpt lat="41.7963933" lon="12.5309667"><ele>63.0</ele><time>2026-04-04T07:52:31.115Z</time></trkpt><trkpt lat="41.79632" lon="12.5306183"><ele>63.0</ele><time>2026-04-04T07:52:32.118Z</time></trkpt><trkpt lat="41.7962483" lon="12.53027"><ele>63.0</ele><time>2026-04-04T07:52:33.118Z</time></trkpt><trkpt lat="41.7961717" lon="12.5299233"><ele>63.0</ele><time>2026-04-04T07:52:34.119Z</time></trkpt><trkpt lat="41.7961" lon="12.5295783"><ele>63.0</ele><time>2026-04-04T07:52:35.116Z</time></trkpt><trkpt lat="41.7960267" lon="12.5292333"><ele>63.0</ele><time>2026-04-04T07:52:36.118Z</time></trkpt><trkpt lat="41.7959533" lon="12.5288933"><ele>63.0</ele><time>2026-04-04T07:52:37.116Z</time></trkpt><trkpt lat="41.7958833" lon="12.5285483"><ele>63.0</ele><time>2026-04-04T07:52:38.116Z</time></trkpt><trkpt lat="41.7958083" lon="12.528205"><ele>63.0</ele><time>2026-04-04T07:52:39.114Z</time></trkpt><trkpt lat="41.7957367" lon="12.5278583"><ele>63.5</ele><time>2026-04-04T07:52:40.118Z</time></trkpt><trkpt lat="41.795665" lon="12.5275133"><ele>64.0</ele><time>2026-04-04T07:52:41.116Z</time></trkpt><trkpt lat="41.7955917" lon="12.5271667"><ele>62.0</ele><time>2026-04-04T07:52:42.118Z</time></trkpt><trkpt lat="41.795525" lon="12.5268167"><ele>60.0</ele><time>2026-04-04T07:52:43.117Z</time></trkpt><trkpt lat="41.7954583" lon="12.5264683"><ele>60.5</ele><time>2026-04-04T07:52:44.119Z</time></trkpt><trkpt lat="41.7953933" lon="12.526115"><ele>61.0</ele><time>2026-04-04T07:52:45.12Z</time></trkpt><trkpt lat="41.7953333" lon="12.52576"><ele>61.0</ele><time>2026-04-04T07:52:46.115Z</time></trkpt><trkpt lat="41.79528" lon="12.5254033"><ele>61.0</ele><time>2026-04-04T07:52:47.115Z</time></trkpt><trkpt lat="41.795225" lon="12.5250483"><ele>62.0</ele><time>2026-04-04T07:52:48.119Z</time></trkpt><trkpt lat="41.7951817" lon="12.524685"><ele>63.0</ele><time>2026-04-04T07:52:49.119Z</time></trkpt><trkpt lat="41.7951417" lon="12.5243217"><ele>63.5</ele><time>2026-04-04T07:52:50.118Z</time></trkpt><trkpt lat="41.7951033" lon="12.5239583"><ele>64.0</ele><time>2026-04-04T07:52:51.118Z</time></trkpt><trkpt lat="41.7950667" lon="12.523595"><ele>64.0</ele><time>2026-04-04T07:52:52.116Z</time></trkpt><trkpt lat="41.7950367" lon="12.5232317"><ele>64.0</ele><time>2026-04-04T07:52:53.116Z</time></trkpt><trkpt lat="41.7950017" lon="12.522875"><ele>64.0</ele><time>2026-04-04T07:52:54.117Z</time></trkpt><trkpt lat="41.7949733" lon="12.5225183"><ele>64.0</ele><time>2026-04-04T07:52:55.118Z</time></trkpt><trkpt lat="41.794945" lon="12.5221683"><ele>64.0</ele><time>2026-04-04T07:52:56.118Z</time></trkpt><trkpt lat="41.794915" lon="12.521815"><ele>64.0</ele><time>2026-04-04T07:52:57.12Z</time></trkpt><trkpt lat="41.79488" lon="12.52146"><ele>63.0</ele><time>2026-04-04T07:52:58.116Z</time></trkpt><trkpt lat="41.794845" lon="12.5211033"><ele>62.0</ele><time>2026-04-04T07:52:59.118Z</time></trkpt><trkpt lat="41.794815" lon="12.5207417"><ele>63.0</ele><time>2026-04-04T07:53:00.116Z</time></trkpt><trkpt lat="41.7947867" lon="12.5203767"><ele>64.0</ele><time>2026-04-04T07:53:01.121Z</time></trkpt><trkpt lat="41.7947633" lon="12.52001"><ele>64.0</ele><time>2026-04-04T07:53:02.118Z</time></trkpt><trkpt lat="41.7947433" lon="12.5196417"><ele>64.0</ele><time>2026-04-04T07:53:03.117Z</time></trkpt><trkpt lat="41.7947217" lon="12.5192683"><ele>64.0</ele><time>2026-04-04T07:53:04.116Z</time></trkpt><trkpt lat="41.7946967" lon="12.5188967"><ele>64.0</ele><time>2026-04-04T07:53:05.119Z</time></trkpt><trkpt lat="41.7946683" lon="12.5185233"><ele>63.5</ele><time>2026-04-04T07:53:06.12Z</time></trkpt><trkpt lat="41.7946383" lon="12.5181533"><ele>63.0</ele><time>2026-04-04T07:53:07.119Z</time></trkpt><trkpt lat="41.7946033" lon="12.5177817"><ele>63.0</ele><time>2026-04-04T07:53:08.114Z</time></trkpt><trkpt lat="41.7945667" lon="12.5174117"><ele>63.0</ele><time>2026-04-04T07:53:09.115Z</time></trkpt><trkpt lat="41.7945333" lon="12.517045"><ele>62.0</ele><time>2026-04-04T07:53:10.117Z</time></trkpt><trkpt lat="41.7945033" lon="12.5166767"><ele>61.0</ele><time>2026-04-04T07:53:11.118Z</time></trkpt><trkpt lat="41.7944767" lon="12.51631"><ele>60.0</ele><time>2026-04-04T07:53:12.116Z</time></trkpt><trkpt lat="41.79445" lon="12.5159417"><ele>59.0</ele><time>2026-04-04T07:53:13.118Z</time></trkpt><trkpt lat="41.7944217" lon="12.5155767"><ele>60.5</ele><time>2026-04-04T07:53:14.118Z</time></trkpt><trkpt lat="41.7943867" lon="12.5152183"><ele>62.0</ele><time>2026-04-04T07:53:15.118Z</time></trkpt><trkpt lat="41.79436" lon="12.5148633"><ele>66.5</ele><time>2026-04-04T07:53:16.119Z</time></trkpt><trkpt lat="41.7943317" lon="12.5145117"><ele>71.0</ele><time>2026-04-04T07:53:17.117Z</time></trkpt><trkpt lat="41.7943017" lon="12.5141617"><ele>71.0</ele><time>2026-04-04T07:53:18.122Z</time></trkpt><trkpt lat="41.7942683" lon="12.5138117"><ele>71.0</ele><time>2026-04-04T07:53:19.118Z</time></trkpt><trkpt lat="41.7942433" lon="12.513455"><ele>71.5</ele><time>2026-04-04T07:53:20.118Z</time></trkpt><trkpt lat="41.79422" lon="12.5131033"><ele>72.0</ele><time>2026-04-04T07:53:21.117Z</time></trkpt><trkpt lat="41.7942017" lon="12.512745"><ele>72.0</ele><time>2026-04-04T07:53:22.117Z</time></trkpt><trkpt lat="41.7941833" lon="12.5123867"><ele>72.0</ele><time>2026-04-04T07:53:23.118Z</time></trkpt><trkpt lat="41.7941683" lon="12.51203"><ele>70.0</ele><time>2026-04-04T07:53:24.115Z</time></trkpt><trkpt lat="41.7941583" lon="12.5116717"><ele>68.0</ele><time>2026-04-04T07:53:25.115Z</time></trkpt><trkpt lat="41.794155" lon="12.51131"><ele>67.5</ele><time>2026-04-04T07:53:26.117Z</time></trkpt><trkpt lat="41.79416" lon="12.5109533"><ele>67.0</ele><time>2026-04-04T07:53:27.118Z</time></trkpt><trkpt lat="41.7941683" lon="12.5105917"><ele>65.5</ele><time>2026-04-04T07:53:28.113Z</time></trkpt><trkpt lat="41.794185" lon="12.5102317"><ele>64.0</ele><time>2026-04-04T07:53:29.116Z</time></trkpt><trkpt lat="41.7942017" lon="12.5098783"><ele>61.5</ele><time>2026-04-04T07:53:30.122Z</time></trkpt><trkpt lat="41.7942217" lon="12.509525"><ele>59.0</ele><time>2026-04-04T07:53:31.119Z</time></trkpt><trkpt lat="41.79425" lon="12.5091767"><ele>59.0</ele><time>2026-04-04T07:53:32.119Z</time></trkpt><trkpt lat="41.7942783" lon="12.5088183"><ele>59.0</ele><time>2026-04-04T07:53:33.118Z</time></trkpt><trkpt lat="41.79431" lon="12.5084533"><ele>57.5</ele><time>2026-04-04T07:53:34.118Z</time></trkpt><trkpt lat="41.7943483" lon="12.5080817"><ele>56.0</ele><time>2026-04-04T07:53:35.11Z</time></trkpt><trkpt lat="41.7943917" lon="12.5077017"><ele>56.0</ele><time>2026-04-04T07:53:36.12Z</time></trkpt><trkpt lat="41.7944317" lon="12.5073117"><ele>56.0</ele><time>2026-04-04T07:53:37.118Z</time></trkpt><trkpt lat="41.7944717" lon="12.5069183"><ele>54.0</ele><time>2026-04-04T07:53:38.117Z</time></trkpt><trkpt lat="41.7945117" lon="12.50652"><ele>52.0</ele><time>2026-04-04T07:53:39.12Z</time></trkpt><trkpt lat="41.7945483" lon="12.5061217"><ele>52.0</ele><time>2026-04-04T07:53:40.114Z</time></trkpt><trkpt lat="41.79459" lon="12.5057283"><ele>52.0</ele><time>2026-04-04T07:53:41.117Z</time></trkpt><trkpt lat="41.79463" lon="12.5053383"><ele>51.5</ele><time>2026-04-04T07:53:42.118Z</time></trkpt><trkpt lat="41.7946717" lon="12.5049467"><ele>51.0</ele><time>2026-04-04T07:53:43.12Z</time></trkpt><trkpt lat="41.7947183" lon="12.504555"><ele>51.0</ele><time>2026-04-04T07:53:44.116Z</time></trkpt><trkpt lat="41.794765" lon="12.5041617"><ele>51.0</ele><time>2026-04-04T07:53:45.109Z</time></trkpt><trkpt lat="41.7948167" lon="12.503765"><ele>52.5</ele><time>2026-04-04T07:53:46.12Z</time></trkpt><trkpt lat="41.7948667" lon="12.5033683"><ele>54.0</ele><time>2026-04-04T07:53:47.114Z</time></trkpt><trkpt lat="41.7949183" lon="12.50297"><ele>56.0</ele><time>2026-04-04T07:53:48.12Z</time></trkpt><trkpt lat="41.7949667" lon="12.50257"><ele>58.0</ele><time>2026-04-04T07:53:49.118Z</time></trkpt><trkpt lat="41.795015" lon="12.50217"><ele>59.0</ele><time>2026-04-04T07:53:50.112Z</time></trkpt><trkpt lat="41.7950667" lon="12.5017683"><ele>60.0</ele><time>2026-04-04T07:53:51.119Z</time></trkpt><trkpt lat="41.7951133" lon="12.50137"><ele>59.5</ele><time>2026-04-04T07:53:52.116Z</time></trkpt><trkpt lat="41.79516" lon="12.5009767"><ele>59.0</ele><time>2026-04-04T07:53:53.116Z</time></trkpt><trkpt lat="41.7952033" lon="12.5005933"><ele>58.5</ele><time>2026-04-04T07:53:54.116Z</time></trkpt><trkpt lat="41.7952433" lon="12.5002183"><ele>58.0</ele><time>2026-04-04T07:53:55.118Z</time></trkpt><trkpt lat="41.795285" lon="12.4998467"><ele>59.5</ele><time>2026-04-04T07:53:56.117Z</time></trkpt><trkpt lat="41.79533" lon="12.49948"><ele>61.0</ele><time>2026-04-04T07:53:57.118Z</time></trkpt><trkpt lat="41.795375" lon="12.4991167"><ele>61.0</ele><time>2026-04-04T07:53:58.118Z</time></trkpt><trkpt lat="41.795415" lon="12.498755"><ele>61.0</ele><time>2026-04-04T07:53:59.115Z</time></trkpt><trkpt lat="41.7954617" lon="12.4983967"><ele>60.5</ele><time>2026-04-04T07:54:00.117Z</time></trkpt><trkpt lat="41.7955" lon="12.49804"><ele>60.0</ele><time>2026-04-04T07:54:01.12Z</time></trkpt><trkpt lat="41.795545" lon="12.4976867"><ele>59.5</ele><time>2026-04-04T07:54:02.118Z</time></trkpt><trkpt lat="41.7955883" lon="12.497335"><ele>59.0</ele><time>2026-04-04T07:54:03.12Z</time></trkpt><trkpt lat="41.7956317" lon="12.4969833"><ele>61.0</ele><time>2026-04-04T07:54:04.118Z</time></trkpt><trkpt lat="41.7956783" lon="12.49663"><ele>63.0</ele><time>2026-04-04T07:54:05.118Z</time></trkpt><trkpt lat="41.795725" lon="12.4962817"><ele>60.5</ele><time>2026-04-04T07:54:06.114Z</time></trkpt><trkpt lat="41.7957683" lon="12.4959267"><ele>58.0</ele><time>2026-04-04T07:54:07.116Z</time></trkpt><trkpt lat="41.7958117" lon="12.4955767"><ele>57.5</ele><time>2026-04-04T07:54:08.121Z</time></trkpt><trkpt lat="41.7958533" lon="12.49523"><ele>57.0</ele><time>2026-04-04T07:54:09.117Z</time></trkpt><trkpt lat="41.7958967" lon="12.4948883"><ele>57.0</ele><time>2026-04-04T07:54:10.118Z</time></trkpt><trkpt lat="41.79594" lon="12.4945483"><ele>57.0</ele><time>2026-04-04T07:54:11.119Z</time></trkpt><trkpt lat="41.79598" lon="12.4942167"><ele>55.5</ele><time>2026-04-04T07:54:12.112Z</time></trkpt><trkpt lat="41.7960183" lon="12.4938917"><ele>54.0</ele><time>2026-04-04T07:54:13.117Z</time></trkpt><trkpt lat="41.796055" lon="12.4935717"><ele>53.5</ele><time>2026-04-04T07:54:14.118Z</time></trkpt><trkpt lat="41.7960917" lon="12.49325"><ele>53.0</ele><time>2026-04-04T07:54:15.118Z</time></trkpt><trkpt lat="41.7961267" lon="12.4929233"><ele>51.5</ele><time>2026-04-04T07:54:16.119Z</time></trkpt><trkpt lat="41.796165" lon="12.4925933"><ele>50.0</ele><time>2026-04-04T07:54:17.118Z</time></trkpt><trkpt lat="41.796205" lon="12.4922567"><ele>52.0</ele><time>2026-04-04T07:54:18.118Z</time></trkpt><trkpt lat="41.7962467" lon="12.4919183"><ele>54.0</ele><time>2026-04-04T07:54:19.12Z</time></trkpt><trkpt lat="41.7962883" lon="12.4915733"><ele>54.5</ele><time>2026-04-04T07:54:20.118Z</time></trkpt><trkpt lat="41.7963283" lon="12.4912233"><ele>55.0</ele><time>2026-04-04T07:54:21.118Z</time></trkpt><trkpt lat="41.7963717" lon="12.4908683"><ele>55.0</ele><time>2026-04-04T07:54:22.118Z</time></trkpt><trkpt lat="41.7964133" lon="12.4905167"><ele>55.0</ele><time>2026-04-04T07:54:23.115Z</time></trkpt><trkpt lat="41.796455" lon="12.4901667"><ele>52.0</ele><time>2026-04-04T07:54:24.117Z</time></trkpt><trkpt lat="41.7965017" lon="12.4898167"><ele>49.0</ele><time>2026-04-04T07:54:25.118Z</time></trkpt><trkpt lat="41.7965433" lon="12.489465"><ele>50.0</ele><time>2026-04-04T07:54:26.117Z</time></trkpt><trkpt lat="41.7965883" lon="12.48911"><ele>51.0</ele><time>2026-04-04T07:54:27.119Z</time></trkpt><trkpt lat="41.79663" lon="12.4887533"><ele>51.0</ele><time>2026-04-04T07:54:28.119Z</time></trkpt><trkpt lat="41.796675" lon="12.488395"><ele>51.0</ele><time>2026-04-04T07:54:29.119Z</time></trkpt><trkpt lat="41.7967133" lon="12.48803"><ele>51.0</ele><time>2026-04-04T07:54:30.118Z</time></trkpt><trkpt lat="41.796755" lon="12.4876667"><ele>51.0</ele><time>2026-04-04T07:54:31.118Z</time></trkpt><trkpt lat="41.7968017" lon="12.4873083"><ele>50.0</ele><time>2026-04-04T07:54:32.118Z</time></trkpt><trkpt lat="41.7968417" lon="12.4869467"><ele>49.0</ele><time>2026-04-04T07:54:33.12Z</time></trkpt><trkpt lat="41.7968833" lon="12.4865867"><ele>48.5</ele><time>2026-04-04T07:54:34.118Z</time></trkpt><trkpt lat="41.7969267" lon="12.4862267"><ele>48.0</ele><time>2026-04-04T07:54:35.119Z</time></trkpt><trkpt lat="41.7969717" lon="12.4858617"><ele>48.0</ele><time>2026-04-04T07:54:36.119Z</time></trkpt><trkpt lat="41.7970183" lon="12.48549"><ele>48.0</ele><time>2026-04-04T07:54:37.117Z</time></trkpt><trkpt lat="41.79706" lon="12.4851133"><ele>47.5</ele><time>2026-04-04T07:54:38.116Z</time></trkpt><trkpt lat="41.7971067" lon="12.48473"><ele>47.0</ele><time>2026-04-04T07:54:39.117Z</time></trkpt><trkpt lat="41.7971517" lon="12.4843417"><ele>46.0</ele><time>2026-04-04T07:54:40.119Z</time></trkpt><trkpt lat="41.797195" lon="12.4839567"><ele>45.0</ele><time>2026-04-04T07:54:41.116Z</time></trkpt><trkpt lat="41.7972367" lon="12.48357"><ele>45.0</ele><time>2026-04-04T07:54:42.119Z</time></trkpt><trkpt lat="41.79728" lon="12.4831833"><ele>45.0</ele><time>2026-04-04T07:54:43.117Z</time></trkpt><trkpt lat="41.7973217" lon="12.4827883"><ele>45.5</ele><time>2026-04-04T07:54:44.119Z</time></trkpt><trkpt lat="41.797365" lon="12.482405"><ele>46.0</ele><time>2026-04-04T07:54:45.116Z</time></trkpt><trkpt lat="41.797415" lon="12.4820233"><ele>46.0</ele><time>2026-04-04T07:54:46.115Z</time></trkpt><trkpt lat="41.79746" lon="12.4816367"><ele>46.0</ele><time>2026-04-04T07:54:47.115Z</time></trkpt><trkpt lat="41.7975083" lon="12.4812533"><ele>44.0</ele><time>2026-04-04T07:54:48.111Z</time></trkpt><trkpt lat="41.7975533" lon="12.4808783"><ele>42.0</ele><time>2026-04-04T07:54:49.109Z</time></trkpt><trkpt lat="41.797595" lon="12.4805217"><ele>42.5</ele><time>2026-04-04T07:54:50.108Z</time></trkpt><trkpt lat="41.7976367" lon="12.48017"><ele>43.0</ele><time>2026-04-04T07:54:51.116Z</time></trkpt><trkpt lat="41.7976783" lon="12.4798283"><ele>45.5</ele><time>2026-04-04T07:54:52.114Z</time></trkpt><trkpt lat="41.79772" lon="12.4794917"><ele>48.0</ele><time>2026-04-04T07:54:53.11Z</time></trkpt><trkpt lat="41.7977667" lon="12.4791517"><ele>48.0</ele><time>2026-04-04T07:54:54.117Z</time></trkpt><trkpt lat="41.7978167" lon="12.478805"><ele>48.0</ele><time>2026-04-04T07:54:55.111Z</time></trkpt><trkpt lat="41.7978633" lon="12.4784617"><ele>48.0</ele><time>2026-04-04T07:54:56.118Z</time></trkpt><trkpt lat="41.79791" lon="12.4781067"><ele>48.0</ele><time>2026-04-04T07:54:57.119Z</time></trkpt><trkpt lat="41.797955" lon="12.4777517"><ele>48.0</ele><time>2026-04-04T07:54:58.118Z</time></trkpt><trkpt lat="41.798" lon="12.4774"><ele>48.0</ele><time>2026-04-04T07:54:59.116Z</time></trkpt><trkpt lat="41.7980417" lon="12.4770433"><ele>48.0</ele><time>2026-04-04T07:55:00.109Z</time></trkpt><trkpt lat="41.7980817" lon="12.47669"><ele>48.0</ele><time>2026-04-04T07:55:01.117Z</time></trkpt><trkpt lat="41.7981233" lon="12.476335"><ele>50.0</ele><time>2026-04-04T07:55:02.119Z</time></trkpt><trkpt lat="41.79817" lon="12.47598"><ele>52.0</ele><time>2026-04-04T07:55:03.119Z</time></trkpt><trkpt lat="41.7982117" lon="12.4756267"><ele>51.5</ele><time>2026-04-04T07:55:04.119Z</time></trkpt><trkpt lat="41.798255" lon="12.4752767"><ele>51.0</ele><time>2026-04-04T07:55:05.119Z</time></trkpt><trkpt lat="41.798295" lon="12.4749283"><ele>50.0</ele><time>2026-04-04T07:55:06.117Z</time></trkpt><trkpt lat="41.7983367" lon="12.474585"><ele>49.0</ele><time>2026-04-04T07:55:07.119Z</time></trkpt><trkpt lat="41.798385" lon="12.474235"><ele>49.0</ele><time>2026-04-04T07:55:08.118Z</time></trkpt><trkpt lat="41.7984283" lon="12.4738833"><ele>49.0</ele><time>2026-04-04T07:55:09.118Z</time></trkpt><trkpt lat="41.79847" lon="12.4735267"><ele>50.0</ele><time>2026-04-04T07:55:10.117Z</time></trkpt><trkpt lat="41.7985117" lon="12.4731767"><ele>51.0</ele><time>2026-04-04T07:55:11.117Z</time></trkpt><trkpt lat="41.7985467" lon="12.4728217"><ele>52.0</ele><time>2026-04-04T07:55:12.114Z</time></trkpt><trkpt lat="41.7985883" lon="12.4724733"><ele>53.0</ele><time>2026-04-04T07:55:13.121Z</time></trkpt><trkpt lat="41.7986267" lon="12.4721217"><ele>53.0</ele><time>2026-04-04T07:55:14.116Z</time></trkpt><trkpt lat="41.7986667" lon="12.4717717"><ele>53.0</ele><time>2026-04-04T07:55:15.114Z</time></trkpt><trkpt lat="41.7987067" lon="12.4714283"><ele>51.0</ele><time>2026-04-04T07:55:16.113Z</time></trkpt><trkpt lat="41.7987483" lon="12.4710817"><ele>49.0</ele><time>2026-04-04T07:55:17.11Z</time></trkpt><trkpt lat="41.79879" lon="12.4707367"><ele>48.5</ele><time>2026-04-04T07:55:18.115Z</time></trkpt><trkpt lat="41.798835" lon="12.4703983"><ele>48.0</ele><time>2026-04-04T07:55:19.116Z</time></trkpt><trkpt lat="41.7988817" lon="12.47006"><ele>48.0</ele><time>2026-04-04T07:55:20.11Z</time></trkpt><trkpt lat="41.7989217" lon="12.469725"><ele>48.0</ele><time>2026-04-04T07:55:21.119Z</time></trkpt><trkpt lat="41.7989617" lon="12.469395"><ele>46.5</ele><time>2026-04-04T07:55:22.119Z</time></trkpt><trkpt lat="41.7990033" lon="12.4690683"><ele>45.0</ele><time>2026-04-04T07:55:23.117Z</time></trkpt><trkpt lat="41.7990483" lon="12.4687383"><ele>41.5</ele><time>2026-04-04T07:55:24.119Z</time></trkpt><trkpt lat="41.799095" lon="12.468405"><ele>38.0</ele><time>2026-04-04T07:55:25.118Z</time></trkpt><trkpt lat="41.7991367" lon="12.4680683"><ele>35.0</ele><time>2026-04-04T07:55:26.118Z</time></trkpt><trkpt lat="41.799175" lon="12.467725"><ele>32.0</ele><time>2026-04-04T07:55:27.119Z</time></trkpt><trkpt lat="41.7992183" lon="12.46738"><ele>30.5</ele><time>2026-04-04T07:55:28.118Z</time></trkpt><trkpt lat="41.7992617" lon="12.4670433"><ele>29.0</ele><time>2026-04-04T07:55:29.119Z</time></trkpt><trkpt lat="41.7993033" lon="12.466705"><ele>28.5</ele><time>2026-04-04T07:55:30.118Z</time></trkpt><trkpt lat="41.799345" lon="12.46638"><ele>28.0</ele><time>2026-04-04T07:55:31.118Z</time></trkpt><trkpt lat="41.799385" lon="12.46605"><ele>26.5</ele><time>2026-04-04T07:55:32.116Z</time></trkpt><trkpt lat="41.7994233" lon="12.4657133"><ele>25.0</ele><time>2026-04-04T07:55:33.114Z</time></trkpt><trkpt lat="41.7994633" lon="12.4653783"><ele>25.0</ele><time>2026-04-04T07:55:34.116Z</time></trkpt><trkpt lat="41.7995033" lon="12.4650483"><ele>25.0</ele><time>2026-04-04T07:55:35.119Z</time></trkpt><trkpt lat="41.7995433" lon="12.4647233"><ele>25.0</ele><time>2026-04-04T07:55:36.121Z</time></trkpt><trkpt lat="41.7995833" lon="12.4643883"><ele>25.0</ele><time>2026-04-04T07:55:37.117Z</time></trkpt><trkpt lat="41.7996267" lon="12.464045"><ele>25.0</ele><time>2026-04-04T07:55:38.119Z</time></trkpt><trkpt lat="41.7996717" lon="12.4637033"><ele>25.0</ele><time>2026-04-04T07:55:39.116Z</time></trkpt><trkpt lat="41.7997133" lon="12.4633683"><ele>25.0</ele><time>2026-04-04T07:55:40.118Z</time></trkpt><trkpt lat="41.799755" lon="12.463035"><ele>25.0</ele><time>2026-04-04T07:55:41.113Z</time></trkpt><trkpt lat="41.799795" lon="12.4627083"><ele>26.5</ele><time>2026-04-04T07:55:42.119Z</time></trkpt><trkpt lat="41.7998317" lon="12.462385"><ele>28.0</ele><time>2026-04-04T07:55:43.111Z</time></trkpt><trkpt lat="41.7998683" lon="12.46206"><ele>30.0</ele><time>2026-04-04T07:55:44.118Z</time></trkpt><trkpt lat="41.7999017" lon="12.46173"><ele>32.0</ele><time>2026-04-04T07:55:45.119Z</time></trkpt><trkpt lat="41.7999367" lon="12.461405"><ele>32.0</ele><time>2026-04-04T07:55:46.119Z</time></trkpt><trkpt lat="41.7999717" lon="12.4610767"><ele>32.0</ele><time>2026-04-04T07:55:47.115Z</time></trkpt><trkpt lat="41.8000133" lon="12.4607433"><ele>34.0</ele><time>2026-04-04T07:55:48.119Z</time></trkpt><trkpt lat="41.800055" lon="12.460405"><ele>36.0</ele><time>2026-04-04T07:55:49.12Z</time></trkpt><trkpt lat="41.8000967" lon="12.4600667"><ele>36.0</ele><time>2026-04-04T07:55:50.119Z</time></trkpt><trkpt lat="41.8001383" lon="12.4597283"><ele>36.0</ele><time>2026-04-04T07:55:51.119Z</time></trkpt><trkpt lat="41.8001783" lon="12.4593817"><ele>36.5</ele><time>2026-04-04T07:55:52.118Z</time></trkpt><trkpt lat="41.8002117" lon="12.459035"><ele>37.0</ele><time>2026-04-04T07:55:53.11Z</time></trkpt><trkpt lat="41.8002533" lon="12.4586917"><ele>42.0</ele><time>2026-04-04T07:55:54.121Z</time></trkpt><trkpt lat="41.8003017" lon="12.4583483"><ele>47.0</ele><time>2026-04-04T07:55:55.113Z</time></trkpt><trkpt lat="41.8003517" lon="12.458005"><ele>48.5</ele><time>2026-04-04T07:55:56.117Z</time></trkpt><trkpt lat="41.8003883" lon="12.4576533"><ele>50.0</ele><time>2026-04-04T07:55:57.115Z</time></trkpt><trkpt lat="41.8004317" lon="12.4573083"><ele>48.0</ele><time>2026-04-04T07:55:58.117Z</time></trkpt><trkpt lat="41.8004733" lon="12.4569633"><ele>46.0</ele><time>2026-04-04T07:55:59.117Z</time></trkpt><trkpt lat="41.800515" lon="12.4566167"><ele>47.0</ele><time>2026-04-04T07:56:00.118Z</time></trkpt><trkpt lat="41.800555" lon="12.4562717"><ele>48.0</ele><time>2026-04-04T07:56:01.114Z</time></trkpt><trkpt lat="41.8005933" lon="12.45593"><ele>48.0</ele><time>2026-04-04T07:56:02.121Z</time></trkpt><trkpt lat="41.80064" lon="12.455595"><ele>48.0</ele><time>2026-04-04T07:56:03.116Z</time></trkpt><trkpt lat="41.8006817" lon="12.4552667"><ele>48.5</ele><time>2026-04-04T07:56:04.116Z</time></trkpt><trkpt lat="41.80072" lon="12.45494"><ele>49.0</ele><time>2026-04-04T07:56:05.116Z</time></trkpt><trkpt lat="41.80076" lon="12.454615"><ele>49.0</ele><time>2026-04-04T07:56:06.117Z</time></trkpt><trkpt lat="41.8007967" lon="12.45429"><ele>49.0</ele><time>2026-04-04T07:56:07.117Z</time></trkpt><trkpt lat="41.8008333" lon="12.453975"><ele>48.0</ele><time>2026-04-04T07:56:08.116Z</time></trkpt><trkpt lat="41.8008683" lon="12.453665"><ele>47.0</ele><time>2026-04-04T07:56:09.117Z</time></trkpt><trkpt lat="41.8009067" lon="12.4533633"><ele>47.0</ele><time>2026-04-04T07:56:10.118Z</time></trkpt><trkpt lat="41.8009433" lon="12.4530533"><ele>47.0</ele><time>2026-04-04T07:56:11.114Z</time></trkpt><trkpt lat="41.8009783" lon="12.4527417"><ele>47.0</ele><time>2026-04-04T07:56:12.12Z</time></trkpt><trkpt lat="41.8010233" lon="12.452425"><ele>47.0</ele><time>2026-04-04T07:56:13.119Z</time></trkpt><trkpt lat="41.8010617" lon="12.452105"><ele>49.0</ele><time>2026-04-04T07:56:14.115Z</time></trkpt><trkpt lat="41.8011017" lon="12.4517833"><ele>51.0</ele><time>2026-04-04T07:56:15.112Z</time></trkpt><trkpt lat="41.8011417" lon="12.4514667"><ele>51.0</ele><time>2026-04-04T07:56:16.115Z</time></trkpt><trkpt lat="41.80118" lon="12.45115"><ele>51.0</ele><time>2026-04-04T07:56:17.116Z</time></trkpt><trkpt lat="41.80122" lon="12.4508383"><ele>51.0</ele><time>2026-04-04T07:56:18.119Z</time></trkpt><trkpt lat="41.80126" lon="12.4505283"><ele>51.0</ele><time>2026-04-04T07:56:19.118Z</time></trkpt><trkpt lat="41.8013" lon="12.4502183"><ele>51.0</ele><time>2026-04-04T07:56:20.114Z</time></trkpt><trkpt lat="41.80134" lon="12.4499033"><ele>51.0</ele><time>2026-04-04T07:56:21.118Z</time></trkpt><trkpt lat="41.8013817" lon="12.4495867"><ele>51.0</ele><time>2026-04-04T07:56:22.117Z</time></trkpt><trkpt lat="41.8014233" lon="12.4492583"><ele>51.0</ele><time>2026-04-04T07:56:23.118Z</time></trkpt><trkpt lat="41.801465" lon="12.4489317"><ele>50.0</ele><time>2026-04-04T07:56:24.118Z</time></trkpt><trkpt lat="41.801505" lon="12.4486067"><ele>49.0</ele><time>2026-04-04T07:56:25.117Z</time></trkpt><trkpt lat="41.8015433" lon="12.4482883"><ele>49.0</ele><time>2026-04-04T07:56:26.117Z</time></trkpt><trkpt lat="41.8015833" lon="12.4479667"><ele>49.0</ele><time>2026-04-04T07:56:27.117Z</time></trkpt><trkpt lat="41.8016183" lon="12.44765"><ele>48.5</ele><time>2026-04-04T07:56:28.118Z</time></trkpt><trkpt lat="41.8016633" lon="12.4473367"><ele>48.0</ele><time>2026-04-04T07:56:29.117Z</time></trkpt><trkpt lat="41.8017117" lon="12.4470233"><ele>45.5</ele><time>2026-04-04T07:56:30.116Z</time></trkpt><trkpt lat="41.8017483" lon="12.4467117"><ele>43.0</ele><time>2026-04-04T07:56:31.118Z</time></trkpt><trkpt lat="41.8017833" lon="12.4463983"><ele>43.0</ele><time>2026-04-04T07:56:32.118Z</time></trkpt><trkpt lat="41.8018283" lon="12.446085"><ele>43.0</ele><time>2026-04-04T07:56:33.118Z</time></trkpt><trkpt lat="41.80187" lon="12.4457583"><ele>43.5</ele><time>2026-04-04T07:56:34.118Z</time></trkpt><trkpt lat="41.80191" lon="12.4454367"><ele>44.0</ele><time>2026-04-04T07:56:35.116Z</time></trkpt><trkpt lat="41.8019517" lon="12.4451217"><ele>44.0</ele><time>2026-04-04T07:56:36.119Z</time></trkpt><trkpt lat="41.8019917" lon="12.4448183"><ele>44.0</ele><time>2026-04-04T07:56:37.117Z</time></trkpt><trkpt lat="41.8020233" lon="12.4445217"><ele>43.666666666666664</ele><time>2026-04-04T07:56:38.117Z</time></trkpt><trkpt lat="41.8020533" lon="12.4442383"><ele>43.333333333333336</ele><time>2026-04-04T07:56:39.117Z</time></trkpt><trkpt lat="41.8020883" lon="12.4439583"><ele>43.0</ele><time>2026-04-04T07:56:40.111Z</time></trkpt><trkpt lat="41.8021233" lon="12.44368"><ele>42.66666666666667</ele><time>2026-04-04T07:56:41.113Z</time></trkpt><trkpt lat="41.8021583" lon="12.443395"><ele>42.333333333333336</ele><time>2026-04-04T07:56:42.116Z</time></trkpt><trkpt lat="41.802195" lon="12.44311"><ele>42.0</ele><time>2026-04-04T07:56:43.117Z</time></trkpt><trkpt lat="41.8022317" lon="12.4428317"><ele>42.666666666666664</ele><time>2026-04-04T07:56:44.117Z</time></trkpt><trkpt lat="41.8022683" lon="12.4425483"><ele>43.33333333333333</ele><time>2026-04-04T07:56:45.117Z</time></trkpt><trkpt lat="41.802305" lon="12.4422583"><ele>44.0</ele><time>2026-04-04T07:56:46.116Z</time></trkpt><trkpt lat="41.802345" lon="12.4419583"><ele>45.5</ele><time>2026-04-04T07:56:47.118Z</time></trkpt><trkpt lat="41.8023817" lon="12.44165"><ele>47.0</ele><time>2026-04-04T07:56:48.119Z</time></trkpt><trkpt lat="41.8024183" lon="12.441345"><ele>47.0</ele><time>2026-04-04T07:56:49.118Z</time></trkpt><trkpt lat="41.8024517" lon="12.441045"><ele>47.0</ele><time>2026-04-04T07:56:50.115Z</time></trkpt><trkpt lat="41.80249" lon="12.4407433"><ele>46.5</ele><time>2026-04-04T07:56:51.117Z</time></trkpt><trkpt lat="41.8025317" lon="12.44043"><ele>46.0</ele><time>2026-04-04T07:56:52.221Z</time></trkpt><trkpt lat="41.802605" lon="12.439795"><ele>46.5</ele><time>2026-04-04T07:56:54.118Z</time></trkpt><trkpt lat="41.8026433" lon="12.4394733"><ele>47.0</ele><time>2026-04-04T07:56:55.118Z</time></trkpt><trkpt lat="41.8026767" lon="12.4391517"><ele>49.0</ele><time>2026-04-04T07:56:56.111Z</time></trkpt><trkpt lat="41.8027133" lon="12.4388333"><ele>51.0</ele><time>2026-04-04T07:56:57.117Z</time></trkpt><trkpt lat="41.8027533" lon="12.4385267"><ele>51.0</ele><time>2026-04-04T07:56:58.119Z</time></trkpt><trkpt lat="41.8027883" lon="12.43822"><ele>51.0</ele><time>2026-04-04T07:56:59.115Z</time></trkpt><trkpt lat="41.802825" lon="12.437915"><ele>50.0</ele><time>2026-04-04T07:57:00.117Z</time></trkpt><trkpt lat="41.8028633" lon="12.4376133"><ele>49.0</ele><time>2026-04-04T07:57:01.119Z</time></trkpt><trkpt lat="41.8028967" lon="12.4373117"><ele>49.0</ele><time>2026-04-04T07:57:02.115Z</time></trkpt><trkpt lat="41.8029333" lon="12.43701"><ele>49.0</ele><time>2026-04-04T07:57:03.119Z</time></trkpt><trkpt lat="41.8029683" lon="12.4367117"><ele>49.0</ele><time>2026-04-04T07:57:04.117Z</time></trkpt><trkpt lat="41.803" lon="12.4364167"><ele>49.0</ele><time>2026-04-04T07:57:05.113Z</time></trkpt><trkpt lat="41.8030417" lon="12.4361217"><ele>49.0</ele><time>2026-04-04T07:57:06.113Z</time></trkpt><trkpt lat="41.8030767" lon="12.4358317"><ele>48.666666666666664</ele><time>2026-04-04T07:57:07.118Z</time></trkpt><trkpt lat="41.8031183" lon="12.4355433"><ele>48.33333333333333</ele><time>2026-04-04T07:57:08.117Z</time></trkpt><trkpt lat="41.80316" lon="12.4352583"><ele>48.0</ele><time>2026-04-04T07:57:09.116Z</time></trkpt><trkpt lat="41.8032083" lon="12.4349767"><ele>47.666666666666664</ele><time>2026-04-04T07:57:10.115Z</time></trkpt><trkpt lat="41.8032617" lon="12.4346983"><ele>47.33333333333333</ele><time>2026-04-04T07:57:11.117Z</time></trkpt><trkpt lat="41.8033167" lon="12.43441"><ele>47.0</ele><time>2026-04-04T07:57:12.116Z</time></trkpt><trkpt lat="41.8033767" lon="12.4341133"><ele>47.0</ele><time>2026-04-04T07:57:13.117Z</time></trkpt><trkpt lat="41.8034433" lon="12.433815"><ele>47.0</ele><time>2026-04-04T07:57:14.113Z</time></trkpt><trkpt lat="41.8035067" lon="12.433515"><ele>47.5</ele><time>2026-04-04T07:57:15.115Z</time></trkpt><trkpt lat="41.8035817" lon="12.43321"><ele>48.0</ele><time>2026-04-04T07:57:16.116Z</time></trkpt><trkpt lat="41.8036533" lon="12.432905"><ele>48.0</ele><time>2026-04-04T07:57:17.115Z</time></trkpt><trkpt lat="41.8037367" lon="12.43261"><ele>48.0</ele><time>2026-04-04T07:57:18.118Z</time></trkpt><trkpt lat="41.8038233" lon="12.4323067"><ele>47.0</ele><time>2026-04-04T07:57:19.118Z</time></trkpt><trkpt lat="41.8039033" lon="12.431995"><ele>46.0</ele><time>2026-04-04T07:57:20.116Z</time></trkpt><trkpt lat="41.8039933" lon="12.4316933"><ele>46.0</ele><time>2026-04-04T07:57:21.117Z</time></trkpt><trkpt lat="41.8040783" lon="12.4313933"><ele>46.0</ele><time>2026-04-04T07:57:22.119Z</time></trkpt><trkpt lat="41.8041683" lon="12.4310967"><ele>46.333333333333336</ele><time>2026-04-04T07:57:23.116Z</time></trkpt><trkpt lat="41.80426" lon="12.4308167"><ele>46.666666666666664</ele><time>2026-04-04T07:57:24.12Z</time></trkpt><trkpt lat="41.8043517" lon="12.4305467"><ele>47.0</ele><time>2026-04-04T07:57:25.121Z</time></trkpt><trkpt lat="41.804445" lon="12.4302883"><ele>45.33333333333333</ele><time>2026-04-04T07:57:26.119Z</time></trkpt><trkpt lat="41.804525" lon="12.4300283"><ele>43.666666666666664</ele><time>2026-04-04T07:57:27.113Z</time></trkpt><trkpt lat="41.8046067" lon="12.42977"><ele>42.0</ele><time>2026-04-04T07:57:28.114Z</time></trkpt><trkpt lat="41.8046917" lon="12.4295167"><ele>40.666666666666664</ele><time>2026-04-04T07:57:29.117Z</time></trkpt><trkpt lat="41.8047783" lon="12.4292633"><ele>39.33333333333333</ele><time>2026-04-04T07:57:30.117Z</time></trkpt><trkpt lat="41.8048633" lon="12.4290167"><ele>38.0</ele><time>2026-04-04T07:57:31.118Z</time></trkpt><trkpt lat="41.804945" lon="12.42877"><ele>36.33333333333333</ele><time>2026-04-04T07:57:32.118Z</time></trkpt><trkpt lat="41.8050283" lon="12.42852"><ele>34.666666666666664</ele><time>2026-04-04T07:57:33.118Z</time></trkpt><trkpt lat="41.8051067" lon="12.428255"><ele>33.0</ele><time>2026-04-04T07:57:34.119Z</time></trkpt><trkpt lat="41.8051917" lon="12.4279933"><ele>33.0</ele><time>2026-04-04T07:57:35.114Z</time></trkpt><trkpt lat="41.8052767" lon="12.4277217"><ele>33.0</ele><time>2026-04-04T07:57:36.114Z</time></trkpt><trkpt lat="41.8053733" lon="12.427445"><ele>33.0</ele><time>2026-04-04T07:57:37.112Z</time></trkpt><trkpt lat="41.80547" lon="12.4271583"><ele>33.5</ele><time>2026-04-04T07:57:38.118Z</time></trkpt><trkpt lat="41.8055717" lon="12.4268633"><ele>34.0</ele><time>2026-04-04T07:57:39.117Z</time></trkpt><trkpt lat="41.8056667" lon="12.4265633"><ele>35.0</ele><time>2026-04-04T07:57:40.119Z</time></trkpt><trkpt lat="41.8057617" lon="12.4262617"><ele>36.0</ele><time>2026-04-04T07:57:41.115Z</time></trkpt><trkpt lat="41.805865" lon="12.42596"><ele>36.0</ele><time>2026-04-04T07:57:42.113Z</time></trkpt><trkpt lat="41.8059633" lon="12.4256517"><ele>36.0</ele><time>2026-04-04T07:57:43.12Z</time></trkpt><trkpt lat="41.806075" lon="12.425345"><ele>33.0</ele><time>2026-04-04T07:57:44.117Z</time></trkpt><trkpt lat="41.8061767" lon="12.42504"><ele>30.0</ele><time>2026-04-04T07:57:45.111Z</time></trkpt><trkpt lat="41.806265" lon="12.4247367"><ele>27.5</ele><time>2026-04-04T07:57:46.117Z</time></trkpt><trkpt lat="41.8063567" lon="12.4244333"><ele>25.0</ele><time>2026-04-04T07:57:47.119Z</time></trkpt><trkpt lat="41.8064567" lon="12.4241267"><ele>25.0</ele><time>2026-04-04T07:57:48.118Z</time></trkpt><trkpt lat="41.806555" lon="12.423815"><ele>25.0</ele><time>2026-04-04T07:57:49.11Z</time></trkpt><trkpt lat="41.8066567" lon="12.4235033"><ele>25.0</ele><time>2026-04-04T07:57:50.119Z</time></trkpt><trkpt lat="41.8067633" lon="12.4231817"><ele>25.0</ele><time>2026-04-04T07:57:51.119Z</time></trkpt><trkpt lat="41.8068683" lon="12.4228533"><ele>22.5</ele><time>2026-04-04T07:57:52.119Z</time></trkpt><trkpt lat="41.8069717" lon="12.4225183"><ele>20.0</ele><time>2026-04-04T07:57:53.121Z</time></trkpt><trkpt lat="41.807075" lon="12.422185"><ele>20.5</ele><time>2026-04-04T07:57:54.115Z</time></trkpt><trkpt lat="41.8071683" lon="12.4218433"><ele>21.0</ele><time>2026-04-04T07:57:55.118Z</time></trkpt><trkpt lat="41.8072617" lon="12.4214933"><ele>20.0</ele><time>2026-04-04T07:57:56.115Z</time></trkpt><trkpt lat="41.80735" lon="12.421135"><ele>19.0</ele><time>2026-04-04T07:57:57.119Z</time></trkpt><trkpt lat="41.807425" lon="12.4207667"><ele>17.0</ele><time>2026-04-04T07:57:58.117Z</time></trkpt><trkpt lat="41.8074833" lon="12.4203883"><ele>15.0</ele><time>2026-04-04T07:57:59.116Z</time></trkpt><trkpt lat="41.80754" lon="12.4200117"><ele>14.5</ele><time>2026-04-04T07:58:00.117Z</time></trkpt><trkpt lat="41.8075983" lon="12.41964"><ele>14.0</ele><time>2026-04-04T07:58:01.111Z</time></trkpt><trkpt lat="41.8076533" lon="12.4192683"><ele>10.0</ele><time>2026-04-04T07:58:02.114Z</time></trkpt><trkpt lat="41.8077033" lon="12.418905"><ele>6.0</ele><time>2026-04-04T07:58:03.115Z</time></trkpt><trkpt lat="41.8077517" lon="12.4185483"><ele>4.5</ele><time>2026-04-04T07:58:04.114Z</time></trkpt><trkpt lat="41.8078" lon="12.4182017"><ele>3.0</ele><time>2026-04-04T07:58:05.119Z</time></trkpt><trkpt lat="41.80785" lon="12.4178667"><ele>3.0</ele><time>2026-04-04T07:58:06.118Z</time></trkpt><trkpt lat="41.8078967" lon="12.4175417"><ele>3.0</ele><time>2026-04-04T07:58:07.117Z</time></trkpt><trkpt lat="41.8079467" lon="12.4172167"><ele>6.5</ele><time>2026-04-04T07:58:08.117Z</time></trkpt><trkpt lat="41.8079983" lon="12.416895"><ele>10.0</ele><time>2026-04-04T07:58:09.117Z</time></trkpt><trkpt lat="41.8080483" lon="12.41657"><ele>11.0</ele><time>2026-04-04T07:58:10.116Z</time></trkpt><trkpt lat="41.8081" lon="12.4162417"><ele>12.0</ele><time>2026-04-04T07:58:11.118Z</time></trkpt><trkpt lat="41.80815" lon="12.415905"><ele>12.0</ele><time>2026-04-04T07:58:12.118Z</time></trkpt><trkpt lat="41.8082" lon="12.4155617"><ele>12.0</ele><time>2026-04-04T07:58:13.116Z</time></trkpt><trkpt lat="41.8082483" lon="12.41522"><ele>13.5</ele><time>2026-04-04T07:58:14.117Z</time></trkpt><trkpt lat="41.8083017" lon="12.4148717"><ele>15.0</ele><time>2026-04-04T07:58:15.118Z</time></trkpt><trkpt lat="41.8083517" lon="12.4145267"><ele>15.5</ele><time>2026-04-04T07:58:16.117Z</time></trkpt><trkpt lat="41.8084017" lon="12.4141817"><ele>16.0</ele><time>2026-04-04T07:58:17.119Z</time></trkpt><trkpt lat="41.8084533" lon="12.41383"><ele>12.5</ele><time>2026-04-04T07:58:18.118Z</time></trkpt><trkpt lat="41.8085033" lon="12.413475"><ele>9.0</ele><time>2026-04-04T07:58:19.117Z</time></trkpt><trkpt lat="41.8085533" lon="12.4131167"><ele>9.5</ele><time>2026-04-04T07:58:20.119Z</time></trkpt><trkpt lat="41.8086017" lon="12.4127617"><ele>10.0</ele><time>2026-04-04T07:58:21.117Z</time></trkpt><trkpt lat="41.80865" lon="12.4124083"><ele>9.5</ele><time>2026-04-04T07:58:22.117Z</time></trkpt><trkpt lat="41.8086967" lon="12.4120667"><ele>9.0</ele><time>2026-04-04T07:58:23.116Z</time></trkpt><trkpt lat="41.808745" lon="12.4117283"><ele>9.0</ele><time>2026-04-04T07:58:24.118Z</time></trkpt><trkpt lat="41.8087967" lon="12.4113933"><ele>9.0</ele><time>2026-04-04T07:58:25.115Z</time></trkpt><trkpt lat="41.8088467" lon="12.4110617"><ele>9.0</ele><time>2026-04-04T07:58:26.114Z</time></trkpt><trkpt lat="41.8088933" lon="12.4107283"><ele>9.0</ele><time>2026-04-04T07:58:27.118Z</time></trkpt><trkpt lat="41.8089417" lon="12.4103967"><ele>9.0</ele><time>2026-04-04T07:58:28.114Z</time></trkpt><trkpt lat="41.80899" lon="12.41007"><ele>9.0</ele><time>2026-04-04T07:58:29.118Z</time></trkpt><trkpt lat="41.8090383" lon="12.409745"><ele>9.0</ele><time>2026-04-04T07:58:30.109Z</time></trkpt><trkpt lat="41.809085" lon="12.40942"><ele>9.0</ele><time>2026-04-04T07:58:31.119Z</time></trkpt><trkpt lat="41.8091367" lon="12.4090917"><ele>8.5</ele><time>2026-04-04T07:58:32.119Z</time></trkpt><trkpt lat="41.8091867" lon="12.4087633"><ele>8.0</ele><time>2026-04-04T07:58:33.118Z</time></trkpt><trkpt lat="41.80924" lon="12.408435"><ele>8.0</ele><time>2026-04-04T07:58:34.111Z</time></trkpt><trkpt lat="41.8092967" lon="12.408105"><ele>8.0</ele><time>2026-04-04T07:58:35.114Z</time></trkpt><trkpt lat="41.8093533" lon="12.40778"><ele>8.0</ele><time>2026-04-04T07:58:36.117Z</time></trkpt><trkpt lat="41.809415" lon="12.407455"><ele>8.0</ele><time>2026-04-04T07:58:37.118Z</time></trkpt><trkpt lat="41.80948" lon="12.4071267"><ele>8.0</ele><time>2026-04-04T07:58:38.118Z</time></trkpt><trkpt lat="41.8095467" lon="12.406795"><ele>8.0</ele><time>2026-04-04T07:58:39.121Z</time></trkpt><trkpt lat="41.8096133" lon="12.40646"><ele>8.5</ele><time>2026-04-04T07:58:40.112Z</time></trkpt><trkpt lat="41.8096767" lon="12.4061217"><ele>9.0</ele><time>2026-04-04T07:58:41.116Z</time></trkpt><trkpt lat="41.8097467" lon="12.405775"><ele>9.0</ele><time>2026-04-04T07:58:42.118Z</time></trkpt><trkpt lat="41.8098183" lon="12.40543"><ele>9.0</ele><time>2026-04-04T07:58:43.118Z</time></trkpt><trkpt lat="41.80989" lon="12.4050817"><ele>9.0</ele><time>2026-04-04T07:58:44.117Z</time></trkpt><trkpt lat="41.8099617" lon="12.404735"><ele>9.0</ele><time>2026-04-04T07:58:45.117Z</time></trkpt><trkpt lat="41.81004" lon="12.4043883"><ele>9.5</ele><time>2026-04-04T07:58:46.117Z</time></trkpt><trkpt lat="41.8101183" lon="12.4040467"><ele>10.0</ele><time>2026-04-04T07:58:47.115Z</time></trkpt><trkpt lat="41.8101967" lon="12.403705"><ele>10.0</ele><time>2026-04-04T07:58:48.116Z</time></trkpt><trkpt lat="41.8102767" lon="12.4033583"><ele>10.0</ele><time>2026-04-04T07:58:49.119Z</time></trkpt><trkpt lat="41.8103617" lon="12.4030083"><ele>9.0</ele><time>2026-04-04T07:58:50.116Z</time></trkpt><trkpt lat="41.8104467" lon="12.4026583"><ele>8.0</ele><time>2026-04-04T07:58:51.116Z</time></trkpt><trkpt lat="41.8105367" lon="12.402305"><ele>8.5</ele><time>2026-04-04T07:58:52.114Z</time></trkpt><trkpt lat="41.8106333" lon="12.40195"><ele>9.0</ele><time>2026-04-04T07:58:53.118Z</time></trkpt><trkpt lat="41.8107317" lon="12.4015917"><ele>9.0</ele><time>2026-04-04T07:58:54.115Z</time></trkpt><trkpt lat="41.8108317" lon="12.4012383"><ele>9.0</ele><time>2026-04-04T07:58:55.118Z</time></trkpt><trkpt lat="41.810935" lon="12.4008817"><ele>7.5</ele><time>2026-04-04T07:58:56.118Z</time></trkpt><trkpt lat="41.8110417" lon="12.40053"><ele>6.0</ele><time>2026-04-04T07:58:57.117Z</time></trkpt><trkpt lat="41.81116" lon="12.4001733"><ele>6.0</ele><time>2026-04-04T07:58:58.116Z</time></trkpt><trkpt lat="41.8112867" lon="12.3998233"><ele>6.0</ele><time>2026-04-04T07:58:59.109Z</time></trkpt><trkpt lat="41.811415" lon="12.3994733"><ele>6.5</ele><time>2026-04-04T07:59:00.118Z</time></trkpt><trkpt lat="41.8115483" lon="12.3991267"><ele>7.0</ele><time>2026-04-04T07:59:01.116Z</time></trkpt><trkpt lat="41.8116883" lon="12.3987833"><ele>7.5</ele><time>2026-04-04T07:59:02.119Z</time></trkpt><trkpt lat="41.811835" lon="12.3984483"><ele>8.0</ele><time>2026-04-04T07:59:03.118Z</time></trkpt><trkpt lat="41.8119883" lon="12.3981167"><ele>10.0</ele><time>2026-04-04T07:59:04.114Z</time></trkpt><trkpt lat="41.812145" lon="12.39779"><ele>12.0</ele><time>2026-04-04T07:59:05.118Z</time></trkpt><trkpt lat="41.8123067" lon="12.3974683"><ele>11.5</ele><time>2026-04-04T07:59:06.115Z</time></trkpt><trkpt lat="41.8124733" lon="12.3971517"><ele>11.0</ele><time>2026-04-04T07:59:07.116Z</time></trkpt><trkpt lat="41.8126467" lon="12.3968367"><ele>10.5</ele><time>2026-04-04T07:59:08.116Z</time></trkpt><trkpt lat="41.8128233" lon="12.39653"><ele>10.0</ele><time>2026-04-04T07:59:09.118Z</time></trkpt><trkpt lat="41.8130017" lon="12.396225"><ele>12.0</ele><time>2026-04-04T07:59:10.118Z</time></trkpt><trkpt lat="41.8131817" lon="12.3959317"><ele>14.0</ele><time>2026-04-04T07:59:11.11Z</time></trkpt><trkpt lat="41.81337" lon="12.3956433"><ele>12.0</ele><time>2026-04-04T07:59:12.116Z</time></trkpt><trkpt lat="41.813565" lon="12.3953617"><ele>10.0</ele><time>2026-04-04T07:59:13.118Z</time></trkpt><trkpt lat="41.8137583" lon="12.3950817"><ele>10.0</ele><time>2026-04-04T07:59:14.119Z</time></trkpt><trkpt lat="41.8139533" lon="12.3948183"><ele>10.0</ele><time>2026-04-04T07:59:15.119Z</time></trkpt><trkpt lat="41.8141467" lon="12.3945683"><ele>8.5</ele><time>2026-04-04T07:59:16.118Z</time></trkpt><trkpt lat="41.814335" lon="12.3943333"><ele>7.0</ele><time>2026-04-04T07:59:17.117Z</time></trkpt><trkpt lat="41.8145283" lon="12.3941067"><ele>7.0</ele><time>2026-04-04T07:59:18.116Z</time></trkpt><trkpt lat="41.8147217" lon="12.3938833"><ele>7.0</ele><time>2026-04-04T07:59:19.118Z</time></trkpt><trkpt lat="41.8149167" lon="12.3936683"><ele>7.5</ele><time>2026-04-04T07:59:20.118Z</time></trkpt><trkpt lat="41.815115" lon="12.3934633"><ele>8.0</ele><time>2026-04-04T07:59:21.114Z</time></trkpt><trkpt lat="41.8153183" lon="12.39326"><ele>8.0</ele><time>2026-04-04T07:59:22.115Z</time></trkpt><trkpt lat="41.8155217" lon="12.3930633"><ele>8.0</ele><time>2026-04-04T07:59:23.117Z</time></trkpt><trkpt lat="41.81573" lon="12.3928717"><ele>8.0</ele><time>2026-04-04T07:59:24.116Z</time></trkpt><trkpt lat="41.8159417" lon="12.3926783"><ele>8.0</ele><time>2026-04-04T07:59:25.114Z</time></trkpt><trkpt lat="41.8161567" lon="12.392495"><ele>7.5</ele><time>2026-04-04T07:59:26.115Z</time></trkpt><trkpt lat="41.8163667" lon="12.392315"><ele>7.0</ele><time>2026-04-04T07:59:27.118Z</time></trkpt><trkpt lat="41.8165733" lon="12.3921417"><ele>7.0</ele><time>2026-04-04T07:59:28.113Z</time></trkpt><trkpt lat="41.8167867" lon="12.3919833"><ele>7.0</ele><time>2026-04-04T07:59:29.113Z</time></trkpt><trkpt lat="41.8170017" lon="12.3918267"><ele>9.5</ele><time>2026-04-04T07:59:30.116Z</time></trkpt><trkpt lat="41.8172233" lon="12.3916817"><ele>12.0</ele><time>2026-04-04T07:59:31.116Z</time></trkpt><trkpt lat="41.8174533" lon="12.3915367"><ele>12.5</ele><time>2026-04-04T07:59:32.115Z</time></trkpt><trkpt lat="41.81769" lon="12.391395"><ele>13.0</ele><time>2026-04-04T07:59:33.121Z</time></trkpt><trkpt lat="41.8179317" lon="12.3912467"><ele>13.0</ele><time>2026-04-04T07:59:34.117Z</time></trkpt><trkpt lat="41.8181817" lon="12.391105"><ele>13.0</ele><time>2026-04-04T07:59:35.117Z</time></trkpt><trkpt lat="41.8184383" lon="12.3909683"><ele>9.5</ele><time>2026-04-04T07:59:36.113Z</time></trkpt><trkpt lat="41.8186933" lon="12.390845"><ele>6.0</ele><time>2026-04-04T07:59:37.118Z</time></trkpt><trkpt lat="41.8189583" lon="12.3907167"><ele>6.0</ele><time>2026-04-04T07:59:38.115Z</time></trkpt><trkpt lat="41.8192267" lon="12.3905867"><ele>6.0</ele><time>2026-04-04T07:59:39.117Z</time></trkpt><trkpt lat="41.8195" lon="12.390475"><ele>8.5</ele><time>2026-04-04T07:59:40.114Z</time></trkpt><trkpt lat="41.8197767" lon="12.3903583"><ele>11.0</ele><time>2026-04-04T07:59:41.108Z</time></trkpt><trkpt lat="41.820055" lon="12.3902517"><ele>11.0</ele><time>2026-04-04T07:59:42.115Z</time></trkpt><trkpt lat="41.8203367" lon="12.3901383"><ele>11.0</ele><time>2026-04-04T07:59:43.114Z</time></trkpt><trkpt lat="41.820615" lon="12.3900383"><ele>11.0</ele><time>2026-04-04T07:59:44.107Z</time></trkpt><trkpt lat="41.820885" lon="12.3899383"><ele>11.0</ele><time>2026-04-04T07:59:45.11Z</time></trkpt><trkpt lat="41.82117" lon="12.38985"><ele>10.5</ele><time>2026-04-04T07:59:46.108Z</time></trkpt><trkpt lat="41.8214433" lon="12.3897633"><ele>10.0</ele><time>2026-04-04T07:59:47.11Z</time></trkpt><trkpt lat="41.821735" lon="12.3896683"><ele>11.0</ele><time>2026-04-04T07:59:48.108Z</time></trkpt><trkpt lat="41.8220133" lon="12.3895833"><ele>12.0</ele><time>2026-04-04T07:59:49.108Z</time></trkpt><trkpt lat="41.8222917" lon="12.3895017"><ele>12.0</ele><time>2026-04-04T07:59:50.117Z</time></trkpt><trkpt lat="41.822565" lon="12.3894217"><ele>12.0</ele><time>2026-04-04T07:59:51.119Z</time></trkpt><trkpt lat="41.8228383" lon="12.3893383"><ele>16.0</ele><time>2026-04-04T07:59:52.111Z</time></trkpt><trkpt lat="41.8231117" lon="12.3892583"><ele>20.0</ele><time>2026-04-04T07:59:53.119Z</time></trkpt><trkpt lat="41.8233817" lon="12.3891733"><ele>21.0</ele><time>2026-04-04T07:59:54.117Z</time></trkpt><trkpt lat="41.8236567" lon="12.3890883"><ele>22.0</ele><time>2026-04-04T07:59:55.12Z</time></trkpt><trkpt lat="41.8239267" lon="12.3890017"><ele>22.0</ele><time>2026-04-04T07:59:56.116Z</time></trkpt><trkpt lat="41.8242017" lon="12.3889217"><ele>22.0</ele><time>2026-04-04T07:59:57.118Z</time></trkpt><trkpt lat="41.8244833" lon="12.388845"><ele>21.5</ele><time>2026-04-04T07:59:58.115Z</time></trkpt><trkpt lat="41.824765" lon="12.38876"><ele>21.0</ele><time>2026-04-04T07:59:59.114Z</time></trkpt><trkpt lat="41.825045" lon="12.3886733"><ele>23.5</ele><time>2026-04-04T08:00:00.113Z</time></trkpt><trkpt lat="41.8253233" lon="12.3885883"><ele>26.0</ele><time>2026-04-04T08:00:01.118Z</time></trkpt><trkpt lat="41.8256033" lon="12.3885"><ele>26.0</ele><time>2026-04-04T08:00:02.116Z</time></trkpt><trkpt lat="41.8258867" lon="12.3884117"><ele>26.0</ele><time>2026-04-04T08:00:03.119Z</time></trkpt><trkpt lat="41.8261683" lon="12.3883167"><ele>31.0</ele><time>2026-04-04T08:00:04.117Z</time></trkpt><trkpt lat="41.826445" lon="12.38822"><ele>36.0</ele><time>2026-04-04T08:00:05.115Z</time></trkpt><trkpt lat="41.8267217" lon="12.3881333"><ele>32.5</ele><time>2026-04-04T08:00:06.117Z</time></trkpt><trkpt lat="41.8269917" lon="12.388045"><ele>29.0</ele><time>2026-04-04T08:00:07.117Z</time></trkpt><trkpt lat="41.8272667" lon="12.38796"><ele>29.0</ele><time>2026-04-04T08:00:08.118Z</time></trkpt><trkpt lat="41.8275383" lon="12.3878733"><ele>29.0</ele><time>2026-04-04T08:00:09.112Z</time></trkpt><trkpt lat="41.8278117" lon="12.3877867"><ele>32.0</ele><time>2026-04-04T08:00:10.114Z</time></trkpt><trkpt lat="41.8280833" lon="12.3877017"><ele>35.0</ele><time>2026-04-04T08:00:11.119Z</time></trkpt><trkpt lat="41.82836" lon="12.38761"><ele>38.0</ele><time>2026-04-04T08:00:12.118Z</time></trkpt><trkpt lat="41.8286383" lon="12.38752"><ele>41.0</ele><time>2026-04-04T08:00:13.113Z</time></trkpt><trkpt lat="41.8289217" lon="12.3874333"><ele>41.0</ele><time>2026-04-04T08:00:14.118Z</time></trkpt><trkpt lat="41.8292067" lon="12.3873417"><ele>41.0</ele><time>2026-04-04T08:00:15.116Z</time></trkpt><trkpt lat="41.829495" lon="12.3872467"><ele>41.0</ele><time>2026-04-04T08:00:16.117Z</time></trkpt><trkpt lat="41.8297867" lon="12.38716"><ele>41.0</ele><time>2026-04-04T08:00:17.116Z</time></trkpt><trkpt lat="41.830085" lon="12.3870767"><ele>42.0</ele><time>2026-04-04T08:00:18.117Z</time></trkpt><trkpt lat="41.830385" lon="12.38699"><ele>43.0</ele><time>2026-04-04T08:00:19.119Z</time></trkpt><trkpt lat="41.830685" lon="12.3869083"><ele>44.0</ele><time>2026-04-04T08:00:20.117Z</time></trkpt><trkpt lat="41.830985" lon="12.3868333"><ele>45.0</ele><time>2026-04-04T08:00:21.117Z</time></trkpt><trkpt lat="41.831285" lon="12.3867517"><ele>45.0</ele><time>2026-04-04T08:00:22.117Z</time></trkpt><trkpt lat="41.83158" lon="12.386685"><ele>45.0</ele><time>2026-04-04T08:00:23.115Z</time></trkpt><trkpt lat="41.8318717" lon="12.3866117"><ele>47.0</ele><time>2026-04-04T08:00:24.118Z</time></trkpt><trkpt lat="41.832165" lon="12.3865267"><ele>49.0</ele><time>2026-04-04T08:00:25.117Z</time></trkpt><trkpt lat="41.8324633" lon="12.386445"><ele>50.0</ele><time>2026-04-04T08:00:26.118Z</time></trkpt><trkpt lat="41.8327533" lon="12.3863533"><ele>51.0</ele><time>2026-04-04T08:00:27.119Z</time></trkpt><trkpt lat="41.8330383" lon="12.3862483"><ele>50.0</ele><time>2026-04-04T08:00:28.114Z</time></trkpt><trkpt lat="41.8333267" lon="12.3861533"><ele>49.0</ele><time>2026-04-04T08:00:29.116Z</time></trkpt><trkpt lat="41.833615" lon="12.38606"><ele>49.0</ele><time>2026-04-04T08:00:30.119Z</time></trkpt><trkpt lat="41.833905" lon="12.3859783"><ele>49.0</ele><time>2026-04-04T08:00:31.116Z</time></trkpt><trkpt lat="41.8341933" lon="12.3858933"><ele>50.5</ele><time>2026-04-04T08:00:32.117Z</time></trkpt><trkpt lat="41.8344783" lon="12.3858067"><ele>52.0</ele><time>2026-04-04T08:00:33.116Z</time></trkpt><trkpt lat="41.8347533" lon="12.3857233"><ele>52.0</ele><time>2026-04-04T08:00:34.119Z</time></trkpt><trkpt lat="41.835025" lon="12.3856333"><ele>52.0</ele><time>2026-04-04T08:00:35.113Z</time></trkpt><trkpt lat="41.8352883" lon="12.3855417"><ele>48.0</ele><time>2026-04-04T08:00:36.116Z</time></trkpt><trkpt lat="41.83555" lon="12.3854583"><ele>44.0</ele><time>2026-04-04T08:00:37.113Z</time></trkpt><trkpt lat="41.835805" lon="12.3853733"><ele>44.0</ele><time>2026-04-04T08:00:38.113Z</time></trkpt><trkpt lat="41.8360583" lon="12.3852933"><ele>44.0</ele><time>2026-04-04T08:00:39.117Z</time></trkpt><trkpt lat="41.836315" lon="12.3852117"><ele>44.0</ele><time>2026-04-04T08:00:40.118Z</time></trkpt><trkpt lat="41.8365683" lon="12.38513"><ele>44.0</ele><time>2026-04-04T08:00:41.113Z</time></trkpt><trkpt lat="41.83682" lon="12.385055"><ele>45.5</ele><time>2026-04-04T08:00:42.113Z</time></trkpt><trkpt lat="41.837075" lon="12.3849783"><ele>47.0</ele><time>2026-04-04T08:00:43.116Z</time></trkpt><trkpt lat="41.8373283" lon="12.384895"><ele>47.0</ele><time>2026-04-04T08:00:44.113Z</time></trkpt><trkpt lat="41.8375833" lon="12.38481"><ele>47.0</ele><time>2026-04-04T08:00:45.117Z</time></trkpt><trkpt lat="41.8378367" lon="12.3847267"><ele>50.0</ele><time>2026-04-04T08:00:46.117Z</time></trkpt><trkpt lat="41.83809" lon="12.38464"><ele>53.0</ele><time>2026-04-04T08:00:47.11Z</time></trkpt><trkpt lat="41.8383433" lon="12.3845517"><ele>52.0</ele><time>2026-04-04T08:00:48.11Z</time></trkpt><trkpt lat="41.8385967" lon="12.38446"><ele>51.0</ele><time>2026-04-04T08:00:49.116Z</time></trkpt><trkpt lat="41.8388533" lon="12.3843633"><ele>51.0</ele><time>2026-04-04T08:00:50.118Z</time></trkpt><trkpt lat="41.83911" lon="12.38427"><ele>51.0</ele><time>2026-04-04T08:00:51.112Z</time></trkpt><trkpt lat="41.8393683" lon="12.3841783"><ele>50.5</ele><time>2026-04-04T08:00:52.118Z</time></trkpt><trkpt lat="41.8396283" lon="12.3840767"><ele>50.0</ele><time>2026-04-04T08:00:53.114Z</time></trkpt><trkpt lat="41.8398933" lon="12.3839817"><ele>52.5</ele><time>2026-04-04T08:00:54.116Z</time></trkpt><trkpt lat="41.8401633" lon="12.3839033"><ele>55.0</ele><time>2026-04-04T08:00:55.12Z</time></trkpt><trkpt lat="41.8404367" lon="12.383815"><ele>55.0</ele><time>2026-04-04T08:00:56.117Z</time></trkpt><trkpt lat="41.8407133" lon="12.3837317"><ele>55.0</ele><time>2026-04-04T08:00:57.115Z</time></trkpt><trkpt lat="41.8409917" lon="12.383635"><ele>53.5</ele><time>2026-04-04T08:00:58.113Z</time></trkpt><trkpt lat="41.8412733" lon="12.3835383"><ele>52.0</ele><time>2026-04-04T08:00:59.116Z</time></trkpt><trkpt lat="41.8415467" lon="12.383435"><ele>52.5</ele><time>2026-04-04T08:01:00.114Z</time></trkpt><trkpt lat="41.8418167" lon="12.38333"><ele>53.0</ele><time>2026-04-04T08:01:01.119Z</time></trkpt><trkpt lat="41.8420983" lon="12.38322"><ele>53.0</ele><time>2026-04-04T08:01:02.114Z</time></trkpt><trkpt lat="41.8423867" lon="12.38311"><ele>53.0</ele><time>2026-04-04T08:01:03.116Z</time></trkpt><trkpt lat="41.8426733" lon="12.382995"><ele>52.5</ele><time>2026-04-04T08:01:04.118Z</time></trkpt><trkpt lat="41.8429617" lon="12.3828767"><ele>52.0</ele><time>2026-04-04T08:01:05.116Z</time></trkpt><trkpt lat="41.84325" lon="12.3827633"><ele>53.0</ele><time>2026-04-04T08:01:06.113Z</time></trkpt><trkpt lat="41.843535" lon="12.38265"><ele>54.0</ele><time>2026-04-04T08:01:07.118Z</time></trkpt><trkpt lat="41.8438217" lon="12.3825333"><ele>54.0</ele><time>2026-04-04T08:01:08.117Z</time></trkpt><trkpt lat="41.8441067" lon="12.382415"><ele>54.0</ele><time>2026-04-04T08:01:09.12Z</time></trkpt><trkpt lat="41.8443883" lon="12.3822983"><ele>55.5</ele><time>2026-04-04T08:01:10.115Z</time></trkpt><trkpt lat="41.84467" lon="12.3821833"><ele>57.0</ele><time>2026-04-04T08:01:11.115Z</time></trkpt><trkpt lat="41.84495" lon="12.382065"><ele>57.5</ele><time>2026-04-04T08:01:12.115Z</time></trkpt><trkpt lat="41.8452317" lon="12.381945"><ele>58.0</ele><time>2026-04-04T08:01:13.115Z</time></trkpt><trkpt lat="41.8455133" lon="12.3818233"><ele>58.0</ele><time>2026-04-04T08:01:14.113Z</time></trkpt><trkpt lat="41.845795" lon="12.3817"><ele>58.0</ele><time>2026-04-04T08:01:15.117Z</time></trkpt><trkpt lat="41.8460767" lon="12.38158"><ele>58.5</ele><time>2026-04-04T08:01:16.117Z</time></trkpt><trkpt lat="41.846355" lon="12.3814567"><ele>59.0</ele><time>2026-04-04T08:01:17.113Z</time></trkpt><trkpt lat="41.84663" lon="12.3813367"><ele>57.0</ele><time>2026-04-04T08:01:18.118Z</time></trkpt><trkpt lat="41.8469033" lon="12.3812133"><ele>55.0</ele><time>2026-04-04T08:01:19.118Z</time></trkpt><trkpt lat="41.8471717" lon="12.3810967"><ele>55.0</ele><time>2026-04-04T08:01:20.115Z</time></trkpt><trkpt lat="41.8474333" lon="12.3809783"><ele>55.0</ele><time>2026-04-04T08:01:21.118Z</time></trkpt><trkpt lat="41.8476933" lon="12.3808633"><ele>55.0</ele><time>2026-04-04T08:01:22.119Z</time></trkpt><trkpt lat="41.8479483" lon="12.3807467"><ele>55.0</ele><time>2026-04-04T08:01:23.109Z</time></trkpt><trkpt lat="41.848205" lon="12.3806317"><ele>55.5</ele><time>2026-04-04T08:01:24.116Z</time></trkpt><trkpt lat="41.8484617" lon="12.3805183"><ele>56.0</ele><time>2026-04-04T08:01:25.118Z</time></trkpt><trkpt lat="41.8487167" lon="12.3804067"><ele>56.0</ele><time>2026-04-04T08:01:26.116Z</time></trkpt><trkpt lat="41.8489717" lon="12.3802883"><ele>56.0</ele><time>2026-04-04T08:01:27.12Z</time></trkpt><trkpt lat="41.8492267" lon="12.3801667"><ele>57.0</ele><time>2026-04-04T08:01:28.114Z</time></trkpt><trkpt lat="41.849485" lon="12.3800483"><ele>58.0</ele><time>2026-04-04T08:01:29.113Z</time></trkpt><trkpt lat="41.8497483" lon="12.3799283"><ele>58.0</ele><time>2026-04-04T08:01:30.116Z</time></trkpt><trkpt lat="41.8500117" lon="12.379805"><ele>58.0</ele><time>2026-04-04T08:01:31.117Z</time></trkpt><trkpt lat="41.8502767" lon="12.379685"><ele>62.0</ele><time>2026-04-04T08:01:32.116Z</time></trkpt><trkpt lat="41.8505433" lon="12.379565"><ele>66.0</ele><time>2026-04-04T08:01:33.117Z</time></trkpt><trkpt lat="41.85081" lon="12.37944"><ele>66.0</ele><time>2026-04-04T08:01:34.117Z</time></trkpt><trkpt lat="41.8510767" lon="12.379315"><ele>66.0</ele><time>2026-04-04T08:01:35.116Z</time></trkpt><trkpt lat="41.8513417" lon="12.37919"><ele>66.0</ele><time>2026-04-04T08:01:36.112Z</time></trkpt><trkpt lat="41.8516067" lon="12.3790733"><ele>66.0</ele><time>2026-04-04T08:01:37.114Z</time></trkpt><trkpt lat="41.85187" lon="12.37896"><ele>67.0</ele><time>2026-04-04T08:01:38.115Z</time></trkpt><trkpt lat="41.8521267" lon="12.3788433"><ele>68.0</ele><time>2026-04-04T08:01:39.113Z</time></trkpt><trkpt lat="41.8523867" lon="12.3787383"><ele>68.0</ele><time>2026-04-04T08:01:40.119Z</time></trkpt><trkpt lat="41.8526467" lon="12.3786333"><ele>68.0</ele><time>2026-04-04T08:01:41.115Z</time></trkpt><trkpt lat="41.8529067" lon="12.3785233"><ele>68.0</ele><time>2026-04-04T08:01:42.115Z</time></trkpt><trkpt lat="41.85317" lon="12.3784183"><ele>68.0</ele><time>2026-04-04T08:01:43.119Z</time></trkpt><trkpt lat="41.85343" lon="12.3783117"><ele>70.0</ele><time>2026-04-04T08:01:44.112Z</time></trkpt><trkpt lat="41.8536833" lon="12.3782117"><ele>72.0</ele><time>2026-04-04T08:01:45.121Z</time></trkpt><trkpt lat="41.8539283" lon="12.3781133"><ele>72.0</ele><time>2026-04-04T08:01:46.116Z</time></trkpt><trkpt lat="41.8541733" lon="12.3780217"><ele>72.0</ele><time>2026-04-04T08:01:47.114Z</time></trkpt><trkpt lat="41.85442" lon="12.377925"><ele>70.5</ele><time>2026-04-04T08:01:48.117Z</time></trkpt><trkpt lat="41.8546667" lon="12.377825"><ele>69.0</ele><time>2026-04-04T08:01:49.116Z</time></trkpt><trkpt lat="41.85492" lon="12.3777317"><ele>68.5</ele><time>2026-04-04T08:01:50.119Z</time></trkpt><trkpt lat="41.85518" lon="12.37763"><ele>68.0</ele><time>2026-04-04T08:01:51.118Z</time></trkpt><trkpt lat="41.855445" lon="12.3775317"><ele>68.0</ele><time>2026-04-04T08:01:52.117Z</time></trkpt><trkpt lat="41.8557117" lon="12.3774267"><ele>68.0</ele><time>2026-04-04T08:01:53.116Z</time></trkpt><trkpt lat="41.8559783" lon="12.3773033"><ele>68.0</ele><time>2026-04-04T08:01:54.119Z</time></trkpt><trkpt lat="41.85625" lon="12.3771817"><ele>68.0</ele><time>2026-04-04T08:01:55.117Z</time></trkpt><trkpt lat="41.8565233" lon="12.3770567"><ele>69.0</ele><time>2026-04-04T08:01:56.113Z</time></trkpt><trkpt lat="41.8567983" lon="12.3769383"><ele>70.0</ele><time>2026-04-04T08:01:57.116Z</time></trkpt><trkpt lat="41.8570733" lon="12.3768117"><ele>70.0</ele><time>2026-04-04T08:01:58.118Z</time></trkpt><trkpt lat="41.8573517" lon="12.3766967"><ele>70.0</ele><time>2026-04-04T08:01:59.118Z</time></trkpt><trkpt lat="41.8576333" lon="12.3765767"><ele>68.5</ele><time>2026-04-04T08:02:00.115Z</time></trkpt><trkpt lat="41.8579083" lon="12.3764533"><ele>67.0</ele><time>2026-04-04T08:02:01.119Z</time></trkpt><trkpt lat="41.85818" lon="12.376325"><ele>66.0</ele><time>2026-04-04T08:02:02.118Z</time></trkpt><trkpt lat="41.8584583" lon="12.376205"><ele>65.0</ele><time>2026-04-04T08:02:03.109Z</time></trkpt><trkpt lat="41.8587383" lon="12.37609"><ele>65.0</ele><time>2026-04-04T08:02:04.115Z</time></trkpt><trkpt lat="41.85902" lon="12.3759733"><ele>65.0</ele><time>2026-04-04T08:02:05.112Z</time></trkpt><trkpt lat="41.8593033" lon="12.375855"><ele>66.0</ele><time>2026-04-04T08:02:06.116Z</time></trkpt><trkpt lat="41.859585" lon="12.37573"><ele>67.0</ele><time>2026-04-04T08:02:07.11Z</time></trkpt><trkpt lat="41.859865" lon="12.3756083"><ele>66.0</ele><time>2026-04-04T08:02:08.118Z</time></trkpt><trkpt lat="41.8601433" lon="12.37549"><ele>65.0</ele><time>2026-04-04T08:02:09.114Z</time></trkpt><trkpt lat="41.8604217" lon="12.3753717"><ele>65.0</ele><time>2026-04-04T08:02:10.119Z</time></trkpt><trkpt lat="41.8606983" lon="12.375255"><ele>65.0</ele><time>2026-04-04T08:02:11.106Z</time></trkpt><trkpt lat="41.8609667" lon="12.375135"><ele>63.5</ele><time>2026-04-04T08:02:12.117Z</time></trkpt><trkpt lat="41.8612317" lon="12.3750167"><ele>62.0</ele><time>2026-04-04T08:02:13.117Z</time></trkpt><trkpt lat="41.861495" lon="12.3749033"><ele>62.0</ele><time>2026-04-04T08:02:14.119Z</time></trkpt><trkpt lat="41.861755" lon="12.3747933"><ele>62.0</ele><time>2026-04-04T08:02:15.117Z</time></trkpt><trkpt lat="41.8620167" lon="12.37468"><ele>61.5</ele><time>2026-04-04T08:02:16.116Z</time></trkpt><trkpt lat="41.86228" lon="12.37457"><ele>61.0</ele><time>2026-04-04T08:02:17.109Z</time></trkpt><trkpt lat="41.862545" lon="12.37446"><ele>60.0</ele><time>2026-04-04T08:02:18.115Z</time></trkpt><trkpt lat="41.8628083" lon="12.37435"><ele>59.0</ele><time>2026-04-04T08:02:19.117Z</time></trkpt><trkpt lat="41.86307" lon="12.3742517"><ele>59.0</ele><time>2026-04-04T08:02:20.118Z</time></trkpt><trkpt lat="41.8633317" lon="12.3741633"><ele>59.0</ele><time>2026-04-04T08:02:21.118Z</time></trkpt><trkpt lat="41.8636" lon="12.3740867"><ele>59.0</ele><time>2026-04-04T08:02:22.117Z</time></trkpt><trkpt lat="41.86387" lon="12.3740133"><ele>59.0</ele><time>2026-04-04T08:02:23.118Z</time></trkpt><trkpt lat="41.8641433" lon="12.37396"><ele>57.0</ele><time>2026-04-04T08:02:24.118Z</time></trkpt><trkpt lat="41.8644117" lon="12.3739133"><ele>55.0</ele><time>2026-04-04T08:02:25.118Z</time></trkpt><trkpt lat="41.86468" lon="12.3738733"><ele>57.5</ele><time>2026-04-04T08:02:26.118Z</time></trkpt><trkpt lat="41.8649417" lon="12.3738483"><ele>60.0</ele><time>2026-04-04T08:02:27.12Z</time></trkpt><trkpt lat="41.8652" lon="12.3738367"><ele>61.0</ele><time>2026-04-04T08:02:28.118Z</time></trkpt><trkpt lat="41.8654617" lon="12.3738317"><ele>62.0</ele><time>2026-04-04T08:02:29.117Z</time></trkpt><trkpt lat="41.86573" lon="12.3738383"><ele>60.5</ele><time>2026-04-04T08:02:30.12Z</time></trkpt><trkpt lat="41.8660017" lon="12.3738583"><ele>59.0</ele><time>2026-04-04T08:02:31.118Z</time></trkpt><trkpt lat="41.86628" lon="12.3738883"><ele>59.0</ele><time>2026-04-04T08:02:32.116Z</time></trkpt><trkpt lat="41.8665633" lon="12.3739317"><ele>59.0</ele><time>2026-04-04T08:02:33.117Z</time></trkpt><trkpt lat="41.86685" lon="12.3739867"><ele>56.0</ele><time>2026-04-04T08:02:34.119Z</time></trkpt><trkpt lat="41.8671333" lon="12.3740583"><ele>53.0</ele><time>2026-04-04T08:02:35.115Z</time></trkpt><trkpt lat="41.867415" lon="12.37414"><ele>50.0</ele><time>2026-04-04T08:02:36.117Z</time></trkpt><trkpt lat="41.867695" lon="12.37423"><ele>47.0</ele><time>2026-04-04T08:02:37.118Z</time></trkpt><trkpt lat="41.8679683" lon="12.3743317"><ele>47.0</ele><time>2026-04-04T08:02:38.119Z</time></trkpt><trkpt lat="41.8682367" lon="12.3744433"><ele>47.0</ele><time>2026-04-04T08:02:39.117Z</time></trkpt><trkpt lat="41.8684983" lon="12.3745633"><ele>47.0</ele><time>2026-04-04T08:02:40.119Z</time></trkpt><trkpt lat="41.8687533" lon="12.374695"><ele>47.0</ele><time>2026-04-04T08:02:41.111Z</time></trkpt><trkpt lat="41.8690083" lon="12.37483"><ele>47.0</ele><time>2026-04-04T08:02:42.118Z</time></trkpt><trkpt lat="41.8692617" lon="12.37497"><ele>47.0</ele><time>2026-04-04T08:02:43.119Z</time></trkpt><trkpt lat="41.86951" lon="12.3751117"><ele>44.0</ele><time>2026-04-04T08:02:44.118Z</time></trkpt><trkpt lat="41.8697533" lon="12.3752483"><ele>41.0</ele><time>2026-04-04T08:02:45.119Z</time></trkpt><trkpt lat="41.8699867" lon="12.3753867"><ele>41.5</ele><time>2026-04-04T08:02:46.12Z</time></trkpt><trkpt lat="41.8702167" lon="12.3755217"><ele>42.0</ele><time>2026-04-04T08:02:47.117Z</time></trkpt><trkpt lat="41.8704433" lon="12.3756533"><ele>42.0</ele><time>2026-04-04T08:02:48.117Z</time></trkpt><trkpt lat="41.870665" lon="12.3757817"><ele>42.0</ele><time>2026-04-04T08:02:49.12Z</time></trkpt><trkpt lat="41.8708867" lon="12.3759117"><ele>45.0</ele><time>2026-04-04T08:02:50.118Z</time></trkpt><trkpt lat="41.8711067" lon="12.3760417"><ele>48.0</ele><time>2026-04-04T08:02:51.118Z</time></trkpt><trkpt lat="41.8713317" lon="12.3761717"><ele>48.0</ele><time>2026-04-04T08:02:52.118Z</time></trkpt><trkpt lat="41.8715567" lon="12.3763017"><ele>48.0</ele><time>2026-04-04T08:02:53.117Z</time></trkpt><trkpt lat="41.8717817" lon="12.37643"><ele>44.0</ele><time>2026-04-04T08:02:54.116Z</time></trkpt><trkpt lat="41.87201" lon="12.376555"><ele>40.0</ele><time>2026-04-04T08:02:55.121Z</time></trkpt><trkpt lat="41.8722383" lon="12.3766817"><ele>40.0</ele><time>2026-04-04T08:02:56.117Z</time></trkpt><trkpt lat="41.8724633" lon="12.3768067"><ele>40.0</ele><time>2026-04-04T08:02:57.12Z</time></trkpt><trkpt lat="41.8726833" lon="12.376925"><ele>39.0</ele><time>2026-04-04T08:02:58.116Z</time></trkpt><trkpt lat="41.8729" lon="12.3770383"><ele>38.0</ele><time>2026-04-04T08:02:59.119Z</time></trkpt><trkpt lat="41.8731067" lon="12.3771533"><ele>36.33333333333333</ele><time>2026-04-04T08:03:00.118Z</time></trkpt><trkpt lat="41.8733133" lon="12.3772717"><ele>34.666666666666664</ele><time>2026-04-04T08:03:01.119Z</time></trkpt><trkpt lat="41.8735183" lon="12.3773833"><ele>33.0</ele><time>2026-04-04T08:03:02.118Z</time></trkpt><trkpt lat="41.8737217" lon="12.3774983"><ele>33.0</ele><time>2026-04-04T08:03:03.119Z</time></trkpt><trkpt lat="41.8739267" lon="12.3776017"><ele>33.0</ele><time>2026-04-04T08:03:04.115Z</time></trkpt><trkpt lat="41.874135" lon="12.377705"><ele>33.0</ele><time>2026-04-04T08:03:05.118Z</time></trkpt><trkpt lat="41.8743417" lon="12.37781"><ele>32.666666666666664</ele><time>2026-04-04T08:03:06.116Z</time></trkpt><trkpt lat="41.8745517" lon="12.3779167"><ele>32.33333333333333</ele><time>2026-04-04T08:03:07.118Z</time></trkpt><trkpt lat="41.8747617" lon="12.378025"><ele>32.0</ele><time>2026-04-04T08:03:08.117Z</time></trkpt><trkpt lat="41.8749717" lon="12.3781333"><ele>31.0</ele><time>2026-04-04T08:03:09.118Z</time></trkpt><trkpt lat="41.875175" lon="12.3782417"><ele>30.0</ele><time>2026-04-04T08:03:10.114Z</time></trkpt><trkpt lat="41.8753683" lon="12.378345"><ele>29.0</ele><time>2026-04-04T08:03:11.119Z</time></trkpt><trkpt lat="41.87556" lon="12.3784483"><ele>29.0</ele><time>2026-04-04T08:03:12.114Z</time></trkpt><trkpt lat="41.8757583" lon="12.378555"><ele>29.0</ele><time>2026-04-04T08:03:13.117Z</time></trkpt><trkpt lat="41.8759567" lon="12.3786683"><ele>29.0</ele><time>2026-04-04T08:03:14.117Z</time></trkpt><trkpt lat="41.8761517" lon="12.378785"><ele>31.333333333333332</ele><time>2026-04-04T08:03:15.118Z</time></trkpt><trkpt lat="41.8763433" lon="12.3789"><ele>33.666666666666664</ele><time>2026-04-04T08:03:16.116Z</time></trkpt><trkpt lat="41.8765367" lon="12.379015"><ele>36.0</ele><time>2026-04-04T08:03:17.115Z</time></trkpt><trkpt lat="41.8767333" lon="12.3791267"><ele>36.0</ele><time>2026-04-04T08:03:18.119Z</time></trkpt><trkpt lat="41.8769317" lon="12.3792367"><ele>36.0</ele><time>2026-04-04T08:03:19.117Z</time></trkpt><trkpt lat="41.8771267" lon="12.3793483"><ele>36.0</ele><time>2026-04-04T08:03:20.121Z</time></trkpt><trkpt lat="41.877325" lon="12.3794567"><ele>36.0</ele><time>2026-04-04T08:03:21.118Z</time></trkpt><trkpt lat="41.8775233" lon="12.379565"><ele>36.0</ele><time>2026-04-04T08:03:22.118Z</time></trkpt><trkpt lat="41.877725" lon="12.3796783"><ele>36.0</ele><time>2026-04-04T08:03:23.117Z</time></trkpt><trkpt lat="41.8779317" lon="12.3797833"><ele>37.0</ele><time>2026-04-04T08:03:24.112Z</time></trkpt><trkpt lat="41.878135" lon="12.3798817"><ele>38.0</ele><time>2026-04-04T08:03:25.121Z</time></trkpt><trkpt lat="41.8783367" lon="12.37998"><ele>39.0</ele><time>2026-04-04T08:03:26.122Z</time></trkpt><trkpt lat="41.87854" lon="12.3800717"><ele>37.0</ele><time>2026-04-04T08:03:27.113Z</time></trkpt><trkpt lat="41.8787417" lon="12.3801583"><ele>35.0</ele><time>2026-04-04T08:03:28.118Z</time></trkpt><trkpt lat="41.8789383" lon="12.3802467"><ele>33.0</ele><time>2026-04-04T08:03:29.116Z</time></trkpt><trkpt lat="41.879125" lon="12.3803183"><ele>32.666666666666664</ele><time>2026-04-04T08:03:30.118Z</time></trkpt><trkpt lat="41.8793017" lon="12.380385"><ele>32.33333333333333</ele><time>2026-04-04T08:03:31.12Z</time></trkpt><trkpt lat="41.87947" lon="12.3804433"><ele>32.0</ele><time>2026-04-04T08:03:32.118Z</time></trkpt><trkpt lat="41.87963" lon="12.3805017"><ele>33.33333333333333</ele><time>2026-04-04T08:03:33.118Z</time></trkpt><trkpt lat="41.8797833" lon="12.3805533"><ele>34.666666666666664</ele><time>2026-04-04T08:03:34.118Z</time></trkpt><trkpt lat="41.87994" lon="12.3806083"><ele>36.0</ele><time>2026-04-04T08:03:35.117Z</time></trkpt><trkpt lat="41.880085" lon="12.3806617"><ele>36.25</ele><time>2026-04-04T08:03:36.118Z</time></trkpt><trkpt lat="41.8802267" lon="12.3807133"><ele>36.5</ele><time>2026-04-04T08:03:37.116Z</time></trkpt><trkpt lat="41.8803683" lon="12.3807633"><ele>36.75</ele><time>2026-04-04T08:03:38.118Z</time></trkpt><trkpt lat="41.8805067" lon="12.3808117"><ele>37.0</ele><time>2026-04-04T08:03:39.119Z</time></trkpt><trkpt lat="41.88065" lon="12.3808517"><ele>37.0</ele><time>2026-04-04T08:03:40.118Z</time></trkpt><trkpt lat="41.880795" lon="12.38089"><ele>37.0</ele><time>2026-04-04T08:03:41.116Z</time></trkpt><trkpt lat="41.8809417" lon="12.38092"><ele>37.0</ele><time>2026-04-04T08:03:42.117Z</time></trkpt><trkpt lat="41.8811" lon="12.380945"><ele>37.0</ele><time>2026-04-04T08:03:43.119Z</time></trkpt><trkpt lat="41.8812667" lon="12.380965"><ele>37.0</ele><time>2026-04-04T08:03:44.118Z</time></trkpt><trkpt lat="41.88144" lon="12.38099"><ele>37.0</ele><time>2026-04-04T08:03:45.118Z</time></trkpt><trkpt lat="41.8816167" lon="12.3810183"><ele>37.0</ele><time>2026-04-04T08:03:46.11Z</time></trkpt><trkpt lat="41.881805" lon="12.381045"><ele>37.0</ele><time>2026-04-04T08:03:47.114Z</time></trkpt><trkpt lat="41.8819967" lon="12.3810667"><ele>37.0</ele><time>2026-04-04T08:03:48.118Z</time></trkpt><trkpt lat="41.88219" lon="12.3810833"><ele>37.0</ele><time>2026-04-04T08:03:49.123Z</time></trkpt><trkpt lat="41.8823883" lon="12.381095"><ele>37.0</ele><time>2026-04-04T08:03:50.115Z</time></trkpt><trkpt lat="41.8825867" lon="12.381105"><ele>37.0</ele><time>2026-04-04T08:03:51.115Z</time></trkpt><trkpt lat="41.8827867" lon="12.3811183"><ele>36.66666666666667</ele><time>2026-04-04T08:03:52.115Z</time></trkpt><trkpt lat="41.8829817" lon="12.3811183"><ele>36.333333333333336</ele><time>2026-04-04T08:03:53.118Z</time></trkpt><trkpt lat="41.8831683" lon="12.3811267"><ele>36.0</ele><time>2026-04-04T08:03:54.118Z</time></trkpt><trkpt lat="41.8833467" lon="12.3811333"><ele>35.333333333333336</ele><time>2026-04-04T08:03:55.118Z</time></trkpt><trkpt lat="41.8835133" lon="12.3811433"><ele>34.66666666666667</ele><time>2026-04-04T08:03:56.117Z</time></trkpt><trkpt lat="41.883675" lon="12.3811467"><ele>34.0</ele><time>2026-04-04T08:03:57.118Z</time></trkpt><trkpt lat="41.8838333" lon="12.38115"><ele>34.0</ele><time>2026-04-04T08:03:58.118Z</time></trkpt><trkpt lat="41.8839817" lon="12.3811583"><ele>34.0</ele><time>2026-04-04T08:03:59.118Z</time></trkpt><trkpt lat="41.8841233" lon="12.38117"><ele>34.0</ele><time>2026-04-04T08:04:00.116Z</time></trkpt><trkpt lat="41.88426" lon="12.38118"><ele>34.0</ele><time>2026-04-04T08:04:01.114Z</time></trkpt><trkpt lat="41.8844017" lon="12.381185"><ele>34.75</ele><time>2026-04-04T08:04:02.119Z</time></trkpt><trkpt lat="41.8845467" lon="12.3811917"><ele>35.5</ele><time>2026-04-04T08:04:03.118Z</time></trkpt><trkpt lat="41.8846883" lon="12.3812033"><ele>36.25</ele><time>2026-04-04T08:04:04.114Z</time></trkpt><trkpt lat="41.8848267" lon="12.38121"><ele>37.0</ele><time>2026-04-04T08:04:05.115Z</time></trkpt><trkpt lat="41.8849567" lon="12.3812133"><ele>37.0</ele><time>2026-04-04T08:04:06.118Z</time></trkpt><trkpt lat="41.88508" lon="12.3812217"><ele>37.0</ele><time>2026-04-04T08:04:07.119Z</time></trkpt><trkpt lat="41.8851983" lon="12.3812333"><ele>37.0</ele><time>2026-04-04T08:04:08.118Z</time></trkpt><trkpt lat="41.8853067" lon="12.3812417"><ele>37.0</ele><time>2026-04-04T08:04:09.12Z</time></trkpt><trkpt lat="41.8854067" lon="12.3812633"><ele>36.800000000000004</ele><time>2026-04-04T08:04:10.119Z</time></trkpt><trkpt lat="41.885495" lon="12.381305"><ele>36.6</ele><time>2026-04-04T08:04:11.118Z</time></trkpt><trkpt lat="41.8855717" lon="12.3813667"><ele>36.400000000000006</ele><time>2026-04-04T08:04:12.119Z</time></trkpt><trkpt lat="41.8856367" lon="12.38145"><ele>36.2</ele><time>2026-04-04T08:04:13.119Z</time></trkpt><trkpt lat="41.885675" lon="12.3815633"><ele>36.0</ele><time>2026-04-04T08:04:14.115Z</time></trkpt><trkpt lat="41.8856833" lon="12.38169"><ele>36.0</ele><time>2026-04-04T08:04:15.118Z</time></trkpt><trkpt lat="41.88567" lon="12.3818167"><ele>36.0</ele><time>2026-04-04T08:04:16.119Z</time></trkpt><trkpt lat="41.885635" lon="12.38194"><ele>36.0</ele><time>2026-04-04T08:04:17.114Z</time></trkpt><trkpt lat="41.885585" lon="12.3820533"><ele>36.0</ele><time>2026-04-04T08:04:18.118Z</time></trkpt><trkpt lat="41.88551" lon="12.3821467"><ele>36.0</ele><time>2026-04-04T08:04:19.117Z</time></trkpt><trkpt lat="41.8854267" lon="12.3822167"><ele>36.0</ele><time>2026-04-04T08:04:20.114Z</time></trkpt><trkpt lat="41.8853333" lon="12.382265"><ele>36.0</ele><time>2026-04-04T08:04:21.119Z</time></trkpt><trkpt lat="41.88523" lon="12.382295"><ele>36.0</ele><time>2026-04-04T08:04:22.119Z</time></trkpt><trkpt lat="41.8851267" lon="12.3822867"><ele>36.0</ele><time>2026-04-04T08:04:23.118Z</time></trkpt><trkpt lat="41.8850267" lon="12.382255"><ele>36.0</ele><time>2026-04-04T08:04:24.113Z</time></trkpt><trkpt lat="41.884925" lon="12.3821767"><ele>36.0</ele><time>2026-04-04T08:04:25.11Z</time></trkpt><trkpt lat="41.8848283" lon="12.3820733"><ele>36.0</ele><time>2026-04-04T08:04:26.119Z</time></trkpt><trkpt lat="41.884745" lon="12.3819467"><ele>36.0</ele><time>2026-04-04T08:04:27.109Z</time></trkpt><trkpt lat="41.8846667" lon="12.3818067"><ele>36.0</ele><time>2026-04-04T08:04:28.118Z</time></trkpt><trkpt lat="41.884585" lon="12.3816533"><ele>36.0</ele><time>2026-04-04T08:04:29.12Z</time></trkpt><trkpt lat="41.8845" lon="12.381485"><ele>36.0</ele><time>2026-04-04T08:04:30.115Z</time></trkpt><trkpt lat="41.8844033" lon="12.3813083"><ele>36.0</ele><time>2026-04-04T08:04:31.118Z</time></trkpt><trkpt lat="41.8843083" lon="12.38113"><ele>35.333333333333336</ele><time>2026-04-04T08:04:32.116Z</time></trkpt><trkpt lat="41.8842017" lon="12.38096"><ele>34.66666666666667</ele><time>2026-04-04T08:04:33.119Z</time></trkpt><trkpt lat="41.884105" lon="12.3807683"><ele>34.0</ele><time>2026-04-04T08:04:34.112Z</time></trkpt><trkpt lat="41.8839967" lon="12.3805883"><ele>36.0</ele><time>2026-04-04T08:04:35.118Z</time></trkpt><trkpt lat="41.8838983" lon="12.3804083"><ele>38.0</ele><time>2026-04-04T08:04:36.117Z</time></trkpt><trkpt lat="41.8838017" lon="12.3801483"><ele>40.0</ele><time>2026-04-04T08:04:37.118Z</time></trkpt><trkpt lat="41.8837033" lon="12.3799217"><ele>40.0</ele><time>2026-04-04T08:04:38.115Z</time></trkpt><trkpt lat="41.883605" lon="12.3797033"><ele>40.0</ele><time>2026-04-04T08:04:39.115Z</time></trkpt><trkpt lat="41.8835183" lon="12.3794883"><ele>40.0</ele><time>2026-04-04T08:04:40.119Z</time></trkpt><trkpt lat="41.88345" lon="12.3792817"><ele>39.66666666666667</ele><time>2026-04-04T08:04:41.108Z</time></trkpt><trkpt lat="41.8833933" lon="12.3790733"><ele>39.333333333333336</ele><time>2026-04-04T08:04:42.116Z</time></trkpt><trkpt lat="41.883355" lon="12.3788567"><ele>39.0</ele><time>2026-04-04T08:04:43.118Z</time></trkpt><trkpt lat="41.8833267" lon="12.3786417"><ele>38.0</ele><time>2026-04-04T08:04:44.111Z</time></trkpt><trkpt lat="41.8833083" lon="12.3784283"><ele>37.0</ele><time>2026-04-04T08:04:45.115Z</time></trkpt><trkpt lat="41.883305" lon="12.3782067"><ele>36.0</ele><time>2026-04-04T08:04:46.117Z</time></trkpt><trkpt lat="41.883315" lon="12.377995"><ele>36.0</ele><time>2026-04-04T08:04:47.111Z</time></trkpt><trkpt lat="41.8833417" lon="12.3777867"><ele>36.0</ele><time>2026-04-04T08:04:48.116Z</time></trkpt><trkpt lat="41.8833867" lon="12.377585"><ele>36.0</ele><time>2026-04-04T08:04:49.118Z</time></trkpt><trkpt lat="41.8834333" lon="12.3773867"><ele>37.0</ele><time>2026-04-04T08:04:50.119Z</time></trkpt><trkpt lat="41.883495" lon="12.3772"><ele>38.0</ele><time>2026-04-04T08:04:51.119Z</time></trkpt><trkpt lat="41.8835733" lon="12.3770233"><ele>39.0</ele><time>2026-04-04T08:04:52.117Z</time></trkpt><trkpt lat="41.8836667" lon="12.37685"><ele>39.0</ele><time>2026-04-04T08:04:53.114Z</time></trkpt><trkpt lat="41.88376" lon="12.3766917"><ele>39.0</ele><time>2026-04-04T08:04:54.118Z</time></trkpt><trkpt lat="41.8838633" lon="12.3765467"><ele>39.0</ele><time>2026-04-04T08:04:55.118Z</time></trkpt><trkpt lat="41.8839833" lon="12.37641"><ele>39.0</ele><time>2026-04-04T08:04:56.113Z</time></trkpt><trkpt lat="41.8841067" lon="12.3762767"><ele>39.0</ele><time>2026-04-04T08:04:57.116Z</time></trkpt><trkpt lat="41.8842433" lon="12.376145"><ele>39.0</ele><time>2026-04-04T08:04:58.118Z</time></trkpt><trkpt lat="41.8843867" lon="12.3760167"><ele>38.666666666666664</ele><time>2026-04-04T08:04:59.117Z</time></trkpt><trkpt lat="41.8845217" lon="12.375885"><ele>38.33333333333333</ele><time>2026-04-04T08:05:00.119Z</time></trkpt><trkpt lat="41.88466" lon="12.3757417"><ele>38.0</ele><time>2026-04-04T08:05:01.12Z</time></trkpt><trkpt lat="41.8847933" lon="12.3755783"><ele>38.0</ele><time>2026-04-04T08:05:02.117Z</time></trkpt><trkpt lat="41.88494" lon="12.3754167"><ele>38.0</ele><time>2026-04-04T08:05:03.117Z</time></trkpt><trkpt lat="41.8850867" lon="12.3752433"><ele>38.0</ele><time>2026-04-04T08:05:04.115Z</time></trkpt><trkpt lat="41.8852317" lon="12.3750633"><ele>38.0</ele><time>2026-04-04T08:05:05.115Z</time></trkpt><trkpt lat="41.8853733" lon="12.374875"><ele>38.0</ele><time>2026-04-04T08:05:06.118Z</time></trkpt><trkpt lat="41.885515" lon="12.3746817"><ele>38.0</ele><time>2026-04-04T08:05:07.117Z</time></trkpt><trkpt lat="41.8856533" lon="12.3744783"><ele>37.666666666666664</ele><time>2026-04-04T08:05:08.118Z</time></trkpt><trkpt lat="41.8857967" lon="12.37427"><ele>37.333333333333336</ele><time>2026-04-04T08:05:09.118Z</time></trkpt><trkpt lat="41.8859317" lon="12.3740717"><ele>37.0</ele><time>2026-04-04T08:05:10.115Z</time></trkpt><trkpt lat="41.886075" lon="12.3738667"><ele>38.0</ele><time>2026-04-04T08:05:11.115Z</time></trkpt><trkpt lat="41.8862167" lon="12.37366"><ele>39.0</ele><time>2026-04-04T08:05:12.117Z</time></trkpt><trkpt lat="41.8863617" lon="12.3734467"><ele>40.0</ele><time>2026-04-04T08:05:13.117Z</time></trkpt><trkpt lat="41.8865133" lon="12.3732317"><ele>41.333333333333336</ele><time>2026-04-04T08:05:14.117Z</time></trkpt><trkpt lat="41.88667" lon="12.373015"><ele>42.666666666666664</ele><time>2026-04-04T08:05:15.116Z</time></trkpt><trkpt lat="41.8868233" lon="12.3728"><ele>44.0</ele><time>2026-04-04T08:05:16.117Z</time></trkpt><trkpt lat="41.88697" lon="12.37259"><ele>44.0</ele><time>2026-04-04T08:05:17.117Z</time></trkpt><trkpt lat="41.8871217" lon="12.372385"><ele>44.0</ele><time>2026-04-04T08:05:18.114Z</time></trkpt><trkpt lat="41.8872733" lon="12.3721817"><ele>44.0</ele><time>2026-04-04T08:05:19.119Z</time></trkpt><trkpt lat="41.887415" lon="12.3719783"><ele>45.0</ele><time>2026-04-04T08:05:20.114Z</time></trkpt><trkpt lat="41.88755" lon="12.3717683"><ele>46.0</ele><time>2026-04-04T08:05:21.118Z</time></trkpt><trkpt lat="41.887665" lon="12.3715667"><ele>47.0</ele><time>2026-04-04T08:05:22.118Z</time></trkpt><trkpt lat="41.8877717" lon="12.3713517"><ele>48.0</ele><time>2026-04-04T08:05:23.116Z</time></trkpt><trkpt lat="41.88787" lon="12.3711333"><ele>49.0</ele><time>2026-04-04T08:05:24.118Z</time></trkpt><trkpt lat="41.8879517" lon="12.3709017"><ele>50.0</ele><time>2026-04-04T08:05:25.121Z</time></trkpt><trkpt lat="41.8880267" lon="12.3706567"><ele>50.66666666666667</ele><time>2026-04-04T08:05:26.115Z</time></trkpt><trkpt lat="41.8880917" lon="12.3704033"><ele>51.33333333333333</ele><time>2026-04-04T08:05:27.12Z</time></trkpt><trkpt lat="41.8881467" lon="12.37015"><ele>52.0</ele><time>2026-04-04T08:05:28.118Z</time></trkpt><trkpt lat="41.888195" lon="12.3698933"><ele>52.0</ele><time>2026-04-04T08:05:29.114Z</time></trkpt><trkpt lat="41.88823" lon="12.3696283"><ele>52.0</ele><time>2026-04-04T08:05:30.117Z</time></trkpt><trkpt lat="41.888265" lon="12.3693633"><ele>52.0</ele><time>2026-04-04T08:05:31.117Z</time></trkpt><trkpt lat="41.888285" lon="12.3691033"><ele>52.33333333333333</ele><time>2026-04-04T08:05:32.112Z</time></trkpt><trkpt lat="41.88829" lon="12.3688367"><ele>52.66666666666667</ele><time>2026-04-04T08:05:33.116Z</time></trkpt><trkpt lat="41.8882867" lon="12.3685733"><ele>53.0</ele><time>2026-04-04T08:05:34.118Z</time></trkpt><trkpt lat="41.8882667" lon="12.3683133"><ele>53.0</ele><time>2026-04-04T08:05:35.115Z</time></trkpt><trkpt lat="41.8882333" lon="12.3680617"><ele>53.0</ele><time>2026-04-04T08:05:36.118Z</time></trkpt><trkpt lat="41.8881883" lon="12.3678083"><ele>53.0</ele><time>2026-04-04T08:05:37.119Z</time></trkpt><trkpt lat="41.8881333" lon="12.3675567"><ele>53.66666666666667</ele><time>2026-04-04T08:05:38.122Z</time></trkpt><trkpt lat="41.8880683" lon="12.367315"><ele>54.33333333333333</ele><time>2026-04-04T08:05:39.118Z</time></trkpt><trkpt lat="41.8879967" lon="12.367075"><ele>55.0</ele><time>2026-04-04T08:05:40.119Z</time></trkpt><trkpt lat="41.887915" lon="12.3668367"><ele>56.33333333333333</ele><time>2026-04-04T08:05:41.114Z</time></trkpt><trkpt lat="41.8878183" lon="12.3666033"><ele>57.66666666666667</ele><time>2026-04-04T08:05:42.118Z</time></trkpt><trkpt lat="41.88771" lon="12.366375"><ele>59.0</ele><time>2026-04-04T08:05:43.117Z</time></trkpt><trkpt lat="41.8876" lon="12.366155"><ele>61.0</ele><time>2026-04-04T08:05:44.115Z</time></trkpt><trkpt lat="41.8874867" lon="12.365945"><ele>63.0</ele><time>2026-04-04T08:05:45.121Z</time></trkpt><trkpt lat="41.887375" lon="12.365735"><ele>65.0</ele><time>2026-04-04T08:05:46.116Z</time></trkpt><trkpt lat="41.8872617" lon="12.3655167"><ele>66.33333333333334</ele><time>2026-04-04T08:05:47.118Z</time></trkpt><trkpt lat="41.8871467" lon="12.3652933"><ele>67.66666666666667</ele><time>2026-04-04T08:05:48.115Z</time></trkpt><trkpt lat="41.8870233" lon="12.3650683"><ele>69.0</ele><time>2026-04-04T08:05:49.118Z</time></trkpt><trkpt lat="41.8868983" lon="12.3648317"><ele>69.0</ele><time>2026-04-04T08:05:50.12Z</time></trkpt><trkpt lat="41.8867783" lon="12.364585"><ele>69.0</ele><time>2026-04-04T08:05:51.118Z</time></trkpt><trkpt lat="41.8866667" lon="12.3643317"><ele>69.0</ele><time>2026-04-04T08:05:52.113Z</time></trkpt><trkpt lat="41.8865533" lon="12.3640767"><ele>69.33333333333333</ele><time>2026-04-04T08:05:53.116Z</time></trkpt><trkpt lat="41.8864333" lon="12.36383"><ele>69.66666666666666</ele><time>2026-04-04T08:05:54.112Z</time></trkpt><trkpt lat="41.88631" lon="12.3635867"><ele>70.0</ele><time>2026-04-04T08:05:55.119Z</time></trkpt><trkpt lat="41.8861883" lon="12.3633483"><ele>70.0</ele><time>2026-04-04T08:05:56.117Z</time></trkpt><trkpt lat="41.88607" lon="12.3631067"><ele>70.0</ele><time>2026-04-04T08:05:57.121Z</time></trkpt><trkpt lat="41.8859533" lon="12.3628733"><ele>70.0</ele><time>2026-04-04T08:05:58.114Z</time></trkpt><trkpt lat="41.88583" lon="12.362655"><ele>69.66666666666666</ele><time>2026-04-04T08:05:59.118Z</time></trkpt><trkpt lat="41.8856983" lon="12.3624517"><ele>69.33333333333333</ele><time>2026-04-04T08:06:00.119Z</time></trkpt><trkpt lat="41.8855517" lon="12.36226"><ele>69.0</ele><time>2026-04-04T08:06:01.118Z</time></trkpt><trkpt lat="41.885395" lon="12.3620767"><ele>68.66666666666667</ele><time>2026-04-04T08:06:02.117Z</time></trkpt><trkpt lat="41.8852367" lon="12.3619067"><ele>68.33333333333334</ele><time>2026-04-04T08:06:03.117Z</time></trkpt><trkpt lat="41.885075" lon="12.3617433"><ele>68.0</ele><time>2026-04-04T08:06:04.117Z</time></trkpt><trkpt lat="41.8849083" lon="12.36159"><ele>69.0</ele><time>2026-04-04T08:06:05.118Z</time></trkpt><trkpt lat="41.8847467" lon="12.36143"><ele>70.0</ele><time>2026-04-04T08:06:06.119Z</time></trkpt><trkpt lat="41.8845883" lon="12.36127"><ele>71.0</ele><time>2026-04-04T08:06:07.12Z</time></trkpt><trkpt lat="41.8844333" lon="12.36111"><ele>70.33333333333334</ele><time>2026-04-04T08:06:08.119Z</time></trkpt><trkpt lat="41.884285" lon="12.360955"><ele>69.66666666666667</ele><time>2026-04-04T08:06:09.114Z</time></trkpt><trkpt lat="41.884145" lon="12.3608"><ele>69.0</ele><time>2026-04-04T08:06:10.117Z</time></trkpt><trkpt lat="41.88401" lon="12.36064"><ele>67.66666666666667</ele><time>2026-04-04T08:06:11.118Z</time></trkpt><trkpt lat="41.8838817" lon="12.3604717"><ele>66.33333333333334</ele><time>2026-04-04T08:06:12.115Z</time></trkpt><trkpt lat="41.8837617" lon="12.3602917"><ele>65.0</ele><time>2026-04-04T08:06:13.117Z</time></trkpt><trkpt lat="41.88365" lon="12.360105"><ele>65.0</ele><time>2026-04-04T08:06:14.116Z</time></trkpt><trkpt lat="41.883545" lon="12.359905"><ele>65.0</ele><time>2026-04-04T08:06:15.12Z</time></trkpt><trkpt lat="41.883445" lon="12.3596967"><ele>65.0</ele><time>2026-04-04T08:06:16.119Z</time></trkpt><trkpt lat="41.88335" lon="12.3594767"><ele>66.66666666666667</ele><time>2026-04-04T08:06:17.116Z</time></trkpt><trkpt lat="41.88326" lon="12.3592483"><ele>68.33333333333333</ele><time>2026-04-04T08:06:18.117Z</time></trkpt><trkpt lat="41.883175" lon="12.3590233"><ele>70.0</ele><time>2026-04-04T08:06:19.118Z</time></trkpt><trkpt lat="41.8830967" lon="12.3588033"><ele>70.33333333333333</ele><time>2026-04-04T08:06:20.118Z</time></trkpt><trkpt lat="41.883025" lon="12.3585883"><ele>70.66666666666667</ele><time>2026-04-04T08:06:21.117Z</time></trkpt><trkpt lat="41.8829583" lon="12.358375"><ele>71.0</ele><time>2026-04-04T08:06:22.115Z</time></trkpt><trkpt lat="41.8828867" lon="12.3581633"><ele>70.33333333333334</ele><time>2026-04-04T08:06:23.119Z</time></trkpt><trkpt lat="41.882815" lon="12.357945"><ele>69.66666666666667</ele><time>2026-04-04T08:06:24.117Z</time></trkpt><trkpt lat="41.8827367" lon="12.3577283"><ele>69.0</ele><time>2026-04-04T08:06:25.119Z</time></trkpt><trkpt lat="41.8826617" lon="12.3575017"><ele>69.0</ele><time>2026-04-04T08:06:26.114Z</time></trkpt><trkpt lat="41.8825867" lon="12.35727"><ele>69.0</ele><time>2026-04-04T08:06:27.119Z</time></trkpt><trkpt lat="41.8825117" lon="12.3570417"><ele>69.0</ele><time>2026-04-04T08:06:28.115Z</time></trkpt><trkpt lat="41.882435" lon="12.35681"><ele>69.0</ele><time>2026-04-04T08:06:29.116Z</time></trkpt><trkpt lat="41.88236" lon="12.356575"><ele>69.0</ele><time>2026-04-04T08:06:30.117Z</time></trkpt><trkpt lat="41.8822883" lon="12.356335"><ele>69.0</ele><time>2026-04-04T08:06:31.119Z</time></trkpt><trkpt lat="41.8822217" lon="12.3560867"><ele>69.0</ele><time>2026-04-04T08:06:32.118Z</time></trkpt><trkpt lat="41.882165" lon="12.3558267"><ele>69.0</ele><time>2026-04-04T08:06:33.109Z</time></trkpt><trkpt lat="41.88212" lon="12.3555617"><ele>69.0</ele><time>2026-04-04T08:06:34.115Z</time></trkpt><trkpt lat="41.8820783" lon="12.3552967"><ele>69.0</ele><time>2026-04-04T08:06:35.114Z</time></trkpt><trkpt lat="41.8820517" lon="12.3550267"><ele>69.0</ele><time>2026-04-04T08:06:36.114Z</time></trkpt><trkpt lat="41.8820267" lon="12.3547533"><ele>69.0</ele><time>2026-04-04T08:06:37.116Z</time></trkpt><trkpt lat="41.8820067" lon="12.354475"><ele>69.66666666666667</ele><time>2026-04-04T08:06:38.119Z</time></trkpt><trkpt lat="41.8819867" lon="12.354195"><ele>70.33333333333334</ele><time>2026-04-04T08:06:39.117Z</time></trkpt><trkpt lat="41.8819683" lon="12.3539117"><ele>71.0</ele><time>2026-04-04T08:06:40.114Z</time></trkpt><trkpt lat="41.88195" lon="12.3536267"><ele>71.0</ele><time>2026-04-04T08:06:41.116Z</time></trkpt><trkpt lat="41.8819283" lon="12.3533483"><ele>71.0</ele><time>2026-04-04T08:06:42.122Z</time></trkpt><trkpt lat="41.8819083" lon="12.353065"><ele>71.0</ele><time>2026-04-04T08:06:43.117Z</time></trkpt><trkpt lat="41.8818833" lon="12.352785"><ele>70.33333333333334</ele><time>2026-04-04T08:06:44.115Z</time></trkpt><trkpt lat="41.88186" lon="12.3525083"><ele>69.66666666666667</ele><time>2026-04-04T08:06:45.12Z</time></trkpt><trkpt lat="41.88184" lon="12.35223"><ele>69.0</ele><time>2026-04-04T08:06:46.11Z</time></trkpt><trkpt lat="41.8818233" lon="12.35195"><ele>69.0</ele><time>2026-04-04T08:06:47.114Z</time></trkpt><trkpt lat="41.881805" lon="12.35167"><ele>69.0</ele><time>2026-04-04T08:06:48.116Z</time></trkpt><trkpt lat="41.88179" lon="12.3513967"><ele>69.0</ele><time>2026-04-04T08:06:49.119Z</time></trkpt><trkpt lat="41.8817783" lon="12.35113"><ele>68.0</ele><time>2026-04-04T08:06:50.118Z</time></trkpt><trkpt lat="41.8817633" lon="12.3508767"><ele>67.0</ele><time>2026-04-04T08:06:51.115Z</time></trkpt><trkpt lat="41.8817433" lon="12.350625"><ele>66.0</ele><time>2026-04-04T08:06:52.118Z</time></trkpt><trkpt lat="41.881725" lon="12.3503717"><ele>66.0</ele><time>2026-04-04T08:06:53.117Z</time></trkpt><trkpt lat="41.8817083" lon="12.35012"><ele>66.0</ele><time>2026-04-04T08:06:54.114Z</time></trkpt><trkpt lat="41.8816917" lon="12.3498717"><ele>66.0</ele><time>2026-04-04T08:06:55.118Z</time></trkpt><trkpt lat="41.88168" lon="12.349625"><ele>66.33333333333333</ele><time>2026-04-04T08:06:56.119Z</time></trkpt><trkpt lat="41.8816733" lon="12.3493817"><ele>66.66666666666666</ele><time>2026-04-04T08:06:57.12Z</time></trkpt><trkpt lat="41.88167" lon="12.3491383"><ele>67.0</ele><time>2026-04-04T08:06:58.117Z</time></trkpt><trkpt lat="41.8816733" lon="12.3488933"><ele>67.33333333333333</ele><time>2026-04-04T08:06:59.118Z</time></trkpt><trkpt lat="41.8816833" lon="12.3486433"><ele>67.66666666666667</ele><time>2026-04-04T08:07:00.116Z</time></trkpt><trkpt lat="41.8816983" lon="12.3483867"><ele>68.0</ele><time>2026-04-04T08:07:01.119Z</time></trkpt><trkpt lat="41.8817217" lon="12.3481283"><ele>67.66666666666667</ele><time>2026-04-04T08:07:02.115Z</time></trkpt><trkpt lat="41.8817533" lon="12.3478767"><ele>67.33333333333333</ele><time>2026-04-04T08:07:03.118Z</time></trkpt><trkpt lat="41.8817833" lon="12.3476317"><ele>67.0</ele><time>2026-04-04T08:07:04.118Z</time></trkpt><trkpt lat="41.8818133" lon="12.347395"><ele>68.0</ele><time>2026-04-04T08:07:05.112Z</time></trkpt><trkpt lat="41.8818467" lon="12.3471583"><ele>69.0</ele><time>2026-04-04T08:07:06.119Z</time></trkpt><trkpt lat="41.8818767" lon="12.3469183"><ele>70.0</ele><time>2026-04-04T08:07:07.109Z</time></trkpt><trkpt lat="41.88191" lon="12.34667"><ele>70.0</ele><time>2026-04-04T08:07:08.118Z</time></trkpt><trkpt lat="41.881945" lon="12.34642"><ele>70.0</ele><time>2026-04-04T08:07:09.118Z</time></trkpt><trkpt lat="41.8819867" lon="12.3461667"><ele>70.0</ele><time>2026-04-04T08:07:10.116Z</time></trkpt><trkpt lat="41.88202" lon="12.3459"><ele>70.0</ele><time>2026-04-04T08:07:11.117Z</time></trkpt><trkpt lat="41.8820517" lon="12.3456267"><ele>70.0</ele><time>2026-04-04T08:07:12.118Z</time></trkpt><trkpt lat="41.882085" lon="12.3453433"><ele>70.0</ele><time>2026-04-04T08:07:13.117Z</time></trkpt><trkpt lat="41.882125" lon="12.3450583"><ele>69.0</ele><time>2026-04-04T08:07:14.114Z</time></trkpt><trkpt lat="41.8821683" lon="12.344765"><ele>68.0</ele><time>2026-04-04T08:07:15.117Z</time></trkpt><trkpt lat="41.8822133" lon="12.34447"><ele>67.0</ele><time>2026-04-04T08:07:16.112Z</time></trkpt><trkpt lat="41.88226" lon="12.3441683"><ele>63.5</ele><time>2026-04-04T08:07:17.117Z</time></trkpt><trkpt lat="41.882305" lon="12.3438533"><ele>60.0</ele><time>2026-04-04T08:07:18.117Z</time></trkpt><trkpt lat="41.882345" lon="12.3435217"><ele>60.0</ele><time>2026-04-04T08:07:19.119Z</time></trkpt><trkpt lat="41.8823883" lon="12.34319"><ele>60.0</ele><time>2026-04-04T08:07:20.113Z</time></trkpt><trkpt lat="41.88244" lon="12.3428583"><ele>55.0</ele><time>2026-04-04T08:07:21.121Z</time></trkpt><trkpt lat="41.8824983" lon="12.3425417"><ele>50.0</ele><time>2026-04-04T08:07:22.118Z</time></trkpt><trkpt lat="41.8825517" lon="12.34223"><ele>52.5</ele><time>2026-04-04T08:07:23.116Z</time></trkpt><trkpt lat="41.8826017" lon="12.3419267"><ele>55.0</ele><time>2026-04-04T08:07:24.117Z</time></trkpt><trkpt lat="41.8826517" lon="12.3416233"><ele>51.0</ele><time>2026-04-04T08:07:25.119Z</time></trkpt><trkpt lat="41.882705" lon="12.3413233"><ele>47.0</ele><time>2026-04-04T08:07:26.117Z</time></trkpt><trkpt lat="41.8827633" lon="12.341025"><ele>47.0</ele><time>2026-04-04T08:07:27.119Z</time></trkpt><trkpt lat="41.88283" lon="12.34072"><ele>47.0</ele><time>2026-04-04T08:07:28.115Z</time></trkpt><trkpt lat="41.882905" lon="12.340415"><ele>44.0</ele><time>2026-04-04T08:07:29.118Z</time></trkpt><trkpt lat="41.8829817" lon="12.3401067"><ele>41.0</ele><time>2026-04-04T08:07:30.118Z</time></trkpt><trkpt lat="41.8830617" lon="12.3398017"><ele>38.0</ele><time>2026-04-04T08:07:31.118Z</time></trkpt><trkpt lat="41.8831483" lon="12.339495"><ele>35.0</ele><time>2026-04-04T08:07:32.119Z</time></trkpt><trkpt lat="41.8832383" lon="12.3391983"><ele>35.0</ele><time>2026-04-04T08:07:33.118Z</time></trkpt><trkpt lat="41.8833367" lon="12.3389"><ele>35.0</ele><time>2026-04-04T08:07:34.116Z</time></trkpt><trkpt lat="41.8834383" lon="12.3386033"><ele>32.5</ele><time>2026-04-04T08:07:35.117Z</time></trkpt><trkpt lat="41.88354" lon="12.3383117"><ele>30.0</ele><time>2026-04-04T08:07:36.115Z</time></trkpt><trkpt lat="41.8836383" lon="12.3380217"><ele>29.0</ele><time>2026-04-04T08:07:37.117Z</time></trkpt><trkpt lat="41.8837333" lon="12.3377417"><ele>28.0</ele><time>2026-04-04T08:07:38.116Z</time></trkpt><trkpt lat="41.8838317" lon="12.3374683"><ele>29.0</ele><time>2026-04-04T08:07:39.115Z</time></trkpt><trkpt lat="41.8839267" lon="12.3371933"><ele>30.0</ele><time>2026-04-04T08:07:40.121Z</time></trkpt><trkpt lat="41.8840183" lon="12.3369267"><ele>31.0</ele><time>2026-04-04T08:07:41.119Z</time></trkpt><trkpt lat="41.8841117" lon="12.3366567"><ele>31.0</ele><time>2026-04-04T08:07:42.118Z</time></trkpt><trkpt lat="41.8842067" lon="12.336385"><ele>31.0</ele><time>2026-04-04T08:07:43.119Z</time></trkpt><trkpt lat="41.884305" lon="12.3361117"><ele>31.0</ele><time>2026-04-04T08:07:44.117Z</time></trkpt><trkpt lat="41.8844017" lon="12.3358367"><ele>30.333333333333336</ele><time>2026-04-04T08:07:45.115Z</time></trkpt><trkpt lat="41.8844967" lon="12.3355633"><ele>29.666666666666664</ele><time>2026-04-04T08:07:46.118Z</time></trkpt><trkpt lat="41.8845867" lon="12.3352883"><ele>29.0</ele><time>2026-04-04T08:07:47.116Z</time></trkpt><trkpt lat="41.8846817" lon="12.3350083"><ele>30.5</ele><time>2026-04-04T08:07:48.118Z</time></trkpt><trkpt lat="41.884765" lon="12.3347183"><ele>32.0</ele><time>2026-04-04T08:07:49.114Z</time></trkpt><trkpt lat="41.8848533" lon="12.3344183"><ele>32.0</ele><time>2026-04-04T08:07:50.118Z</time></trkpt><trkpt lat="41.8849417" lon="12.3341183"><ele>32.0</ele><time>2026-04-04T08:07:51.119Z</time></trkpt><trkpt lat="41.88504" lon="12.3338183"><ele>37.5</ele><time>2026-04-04T08:07:52.116Z</time></trkpt><trkpt lat="41.8851333" lon="12.333515"><ele>43.0</ele><time>2026-04-04T08:07:53.117Z</time></trkpt><trkpt lat="41.8852217" lon="12.3332117"><ele>42.0</ele><time>2026-04-04T08:07:54.117Z</time></trkpt><trkpt lat="41.8853" lon="12.3329033"><ele>41.0</ele><time>2026-04-04T08:07:55.119Z</time></trkpt><trkpt lat="41.8853683" lon="12.3325983"><ele>41.0</ele><time>2026-04-04T08:07:56.118Z</time></trkpt><trkpt lat="41.8854317" lon="12.332295"><ele>41.0</ele><time>2026-04-04T08:07:57.12Z</time></trkpt><trkpt lat="41.88548" lon="12.3319933"><ele>37.0</ele><time>2026-04-04T08:07:58.114Z</time></trkpt><trkpt lat="41.8855233" lon="12.3316967"><ele>33.0</ele><time>2026-04-04T08:07:59.118Z</time></trkpt><trkpt lat="41.8855683" lon="12.3314"><ele>33.333333333333336</ele><time>2026-04-04T08:08:00.117Z</time></trkpt><trkpt lat="41.8856083" lon="12.3311067"><ele>33.66666666666667</ele><time>2026-04-04T08:08:01.118Z</time></trkpt><trkpt lat="41.885645" lon="12.3308083"><ele>34.0</ele><time>2026-04-04T08:08:02.11Z</time></trkpt><trkpt lat="41.8856767" lon="12.3305067"><ele>35.0</ele><time>2026-04-04T08:08:03.116Z</time></trkpt><trkpt lat="41.8857017" lon="12.330205"><ele>36.0</ele><time>2026-04-04T08:08:04.119Z</time></trkpt><trkpt lat="41.8857183" lon="12.3298933"><ele>36.0</ele><time>2026-04-04T08:08:05.118Z</time></trkpt><trkpt lat="41.8857267" lon="12.3295867"><ele>36.0</ele><time>2026-04-04T08:08:06.12Z</time></trkpt><trkpt lat="41.8857317" lon="12.32929"><ele>36.0</ele><time>2026-04-04T08:08:07.118Z</time></trkpt><trkpt lat="41.8857333" lon="12.3289983"><ele>35.666666666666664</ele><time>2026-04-04T08:08:08.119Z</time></trkpt><trkpt lat="41.8857283" lon="12.3287067"><ele>35.33333333333333</ele><time>2026-04-04T08:08:09.118Z</time></trkpt><trkpt lat="41.8857183" lon="12.32842"><ele>35.0</ele><time>2026-04-04T08:08:10.114Z</time></trkpt><trkpt lat="41.8857033" lon="12.3281317"><ele>36.666666666666664</ele><time>2026-04-04T08:08:11.116Z</time></trkpt><trkpt lat="41.8856917" lon="12.3278383"><ele>38.333333333333336</ele><time>2026-04-04T08:08:12.119Z</time></trkpt><trkpt lat="41.8856817" lon="12.3275467"><ele>40.0</ele><time>2026-04-04T08:08:13.118Z</time></trkpt><trkpt lat="41.8856717" lon="12.3272517"><ele>41.5</ele><time>2026-04-04T08:08:14.118Z</time></trkpt><trkpt lat="41.8856633" lon="12.32695"><ele>43.0</ele><time>2026-04-04T08:08:15.115Z</time></trkpt><trkpt lat="41.8856483" lon="12.3266417"><ele>44.0</ele><time>2026-04-04T08:08:16.118Z</time></trkpt><trkpt lat="41.8856283" lon="12.3263267"><ele>45.0</ele><time>2026-04-04T08:08:17.116Z</time></trkpt><trkpt lat="41.88561" lon="12.326005"><ele>45.0</ele><time>2026-04-04T08:08:18.112Z</time></trkpt><trkpt lat="41.885595" lon="12.3256933"><ele>45.0</ele><time>2026-04-04T08:08:19.114Z</time></trkpt><trkpt lat="41.8855817" lon="12.325385"><ele>45.0</ele><time>2026-04-04T08:08:20.12Z</time></trkpt><trkpt lat="41.8855683" lon="12.3250817"><ele>45.0</ele><time>2026-04-04T08:08:21.117Z</time></trkpt><trkpt lat="41.8855633" lon="12.3247917"><ele>45.0</ele><time>2026-04-04T08:08:22.12Z</time></trkpt><trkpt lat="41.8855583" lon="12.32452"><ele>45.666666666666664</ele><time>2026-04-04T08:08:23.115Z</time></trkpt><trkpt lat="41.8855483" lon="12.3242483"><ele>46.33333333333333</ele><time>2026-04-04T08:08:24.12Z</time></trkpt><trkpt lat="41.8855383" lon="12.3239783"><ele>47.0</ele><time>2026-04-04T08:08:25.119Z</time></trkpt><trkpt lat="41.8855267" lon="12.3237167"><ele>47.666666666666664</ele><time>2026-04-04T08:08:26.109Z</time></trkpt><trkpt lat="41.8855167" lon="12.323455"><ele>48.33333333333333</ele><time>2026-04-04T08:08:27.119Z</time></trkpt><trkpt lat="41.8855083" lon="12.3231967"><ele>49.0</ele><time>2026-04-04T08:08:28.116Z</time></trkpt><trkpt lat="41.8855017" lon="12.3229383"><ele>51.0</ele><time>2026-04-04T08:08:29.117Z</time></trkpt><trkpt lat="41.8854933" lon="12.322685"><ele>53.0</ele><time>2026-04-04T08:08:30.112Z</time></trkpt><trkpt lat="41.8854867" lon="12.32243"><ele>55.0</ele><time>2026-04-04T08:08:31.12Z</time></trkpt><trkpt lat="41.8854883" lon="12.32217"><ele>55.666666666666664</ele><time>2026-04-04T08:08:32.116Z</time></trkpt><trkpt lat="41.8854883" lon="12.3219033"><ele>56.33333333333333</ele><time>2026-04-04T08:08:33.117Z</time></trkpt><trkpt lat="41.885495" lon="12.3216267"><ele>57.0</ele><time>2026-04-04T08:08:34.116Z</time></trkpt><trkpt lat="41.8855033" lon="12.321345"><ele>57.0</ele><time>2026-04-04T08:08:35.118Z</time></trkpt><trkpt lat="41.8855183" lon="12.3210583"><ele>57.0</ele><time>2026-04-04T08:08:36.117Z</time></trkpt><trkpt lat="41.8855317" lon="12.32077"><ele>57.0</ele><time>2026-04-04T08:08:37.116Z</time></trkpt><trkpt lat="41.8855517" lon="12.32048"><ele>56.33333333333333</ele><time>2026-04-04T08:08:38.119Z</time></trkpt><trkpt lat="41.8855733" lon="12.32019"><ele>55.666666666666664</ele><time>2026-04-04T08:08:39.118Z</time></trkpt><trkpt lat="41.8856017" lon="12.31989"><ele>55.0</ele><time>2026-04-04T08:08:40.114Z</time></trkpt><trkpt lat="41.885635" lon="12.31959"><ele>54.5</ele><time>2026-04-04T08:08:41.109Z</time></trkpt><trkpt lat="41.8856733" lon="12.3192833"><ele>54.0</ele><time>2026-04-04T08:08:42.116Z</time></trkpt><trkpt lat="41.88571" lon="12.3189783"><ele>53.0</ele><time>2026-04-04T08:08:43.115Z</time></trkpt><trkpt lat="41.885755" lon="12.3186717"><ele>52.0</ele><time>2026-04-04T08:08:44.118Z</time></trkpt><trkpt lat="41.8858033" lon="12.3183583"><ele>53.0</ele><time>2026-04-04T08:08:45.119Z</time></trkpt><trkpt lat="41.8858583" lon="12.3180433"><ele>54.0</ele><time>2026-04-04T08:08:46.12Z</time></trkpt><trkpt lat="41.88592" lon="12.317725"><ele>54.0</ele><time>2026-04-04T08:08:47.116Z</time></trkpt><trkpt lat="41.88598" lon="12.3174083"><ele>54.0</ele><time>2026-04-04T08:08:48.114Z</time></trkpt><trkpt lat="41.8860417" lon="12.31709"><ele>54.0</ele><time>2026-04-04T08:08:49.116Z</time></trkpt><trkpt lat="41.8861017" lon="12.3167667"><ele>54.0</ele><time>2026-04-04T08:08:50.118Z</time></trkpt><trkpt lat="41.8861633" lon="12.3164433"><ele>56.5</ele><time>2026-04-04T08:08:51.116Z</time></trkpt><trkpt lat="41.8862233" lon="12.3161183"><ele>59.0</ele><time>2026-04-04T08:08:52.115Z</time></trkpt><trkpt lat="41.8862867" lon="12.315795"><ele>60.0</ele><time>2026-04-04T08:08:53.115Z</time></trkpt><trkpt lat="41.8863483" lon="12.3154683"><ele>61.0</ele><time>2026-04-04T08:08:54.119Z</time></trkpt><trkpt lat="41.8864083" lon="12.31514"><ele>61.0</ele><time>2026-04-04T08:08:55.117Z</time></trkpt><trkpt lat="41.88647" lon="12.3148167"><ele>61.0</ele><time>2026-04-04T08:08:56.118Z</time></trkpt><trkpt lat="41.88653" lon="12.31449"><ele>65.0</ele><time>2026-04-04T08:08:57.118Z</time></trkpt><trkpt lat="41.88659" lon="12.31416"><ele>69.0</ele><time>2026-04-04T08:08:58.114Z</time></trkpt><trkpt lat="41.8866517" lon="12.313835"><ele>70.5</ele><time>2026-04-04T08:08:59.118Z</time></trkpt><trkpt lat="41.88671" lon="12.313495"><ele>72.0</ele><time>2026-04-04T08:09:00.112Z</time></trkpt><trkpt lat="41.88677" lon="12.31316"><ele>71.5</ele><time>2026-04-04T08:09:01.118Z</time></trkpt><trkpt lat="41.88683" lon="12.3128217"><ele>71.0</ele><time>2026-04-04T08:09:02.114Z</time></trkpt><trkpt lat="41.8868883" lon="12.312485"><ele>68.0</ele><time>2026-04-04T08:09:03.118Z</time></trkpt><trkpt lat="41.8869467" lon="12.3121433"><ele>65.0</ele><time>2026-04-04T08:09:04.115Z</time></trkpt><trkpt lat="41.887005" lon="12.3118"><ele>65.0</ele><time>2026-04-04T08:09:05.116Z</time></trkpt><trkpt lat="41.8870633" lon="12.3114617"><ele>65.0</ele><time>2026-04-04T08:09:06.118Z</time></trkpt><trkpt lat="41.887125" lon="12.3111183"><ele>65.0</ele><time>2026-04-04T08:09:07.117Z</time></trkpt><trkpt lat="41.887185" lon="12.3107717"><ele>65.0</ele><time>2026-04-04T08:09:08.114Z</time></trkpt><trkpt lat="41.887245" lon="12.310425"><ele>65.0</ele><time>2026-04-04T08:09:09.118Z</time></trkpt><trkpt lat="41.88731" lon="12.310085"><ele>65.0</ele><time>2026-04-04T08:09:10.115Z</time></trkpt><trkpt lat="41.8873733" lon="12.3097417"><ele>65.0</ele><time>2026-04-04T08:09:11.113Z</time></trkpt><trkpt lat="41.887435" lon="12.3093967"><ele>65.0</ele><time>2026-04-04T08:09:12.114Z</time></trkpt><trkpt lat="41.8875" lon="12.3090533"><ele>64.5</ele><time>2026-04-04T08:09:13.115Z</time></trkpt><trkpt lat="41.8875617" lon="12.30871"><ele>64.0</ele><time>2026-04-04T08:09:14.116Z</time></trkpt><trkpt lat="41.887625" lon="12.3083617"><ele>65.0</ele><time>2026-04-04T08:09:15.116Z</time></trkpt><trkpt lat="41.88769" lon="12.3080167"><ele>66.0</ele><time>2026-04-04T08:09:16.118Z</time></trkpt><trkpt lat="41.887755" lon="12.307675"><ele>66.0</ele><time>2026-04-04T08:09:17.114Z</time></trkpt><trkpt lat="41.8878167" lon="12.30733"><ele>66.0</ele><time>2026-04-04T08:09:18.12Z</time></trkpt><trkpt lat="41.8878817" lon="12.3069917"><ele>65.5</ele><time>2026-04-04T08:09:19.118Z</time></trkpt><trkpt lat="41.8879467" lon="12.30666"><ele>65.0</ele><time>2026-04-04T08:09:20.115Z</time></trkpt><trkpt lat="41.888005" lon="12.3063417"><ele>61.0</ele><time>2026-04-04T08:09:21.115Z</time></trkpt><trkpt lat="41.888065" lon="12.3060283"><ele>57.0</ele><time>2026-04-04T08:09:22.116Z</time></trkpt><trkpt lat="41.8881317" lon="12.3057133"><ele>53.5</ele><time>2026-04-04T08:09:23.117Z</time></trkpt><trkpt lat="41.88819" lon="12.3053933"><ele>50.0</ele><time>2026-04-04T08:09:24.117Z</time></trkpt><trkpt lat="41.88825" lon="12.3050733"><ele>50.0</ele><time>2026-04-04T08:09:25.116Z</time></trkpt><trkpt lat="41.888315" lon="12.3047567"><ele>50.0</ele><time>2026-04-04T08:09:26.113Z</time></trkpt><trkpt lat="41.888385" lon="12.304435"><ele>52.0</ele><time>2026-04-04T08:09:27.116Z</time></trkpt><trkpt lat="41.8884617" lon="12.3041117"><ele>54.0</ele><time>2026-04-04T08:09:28.113Z</time></trkpt><trkpt lat="41.8885383" lon="12.303785"><ele>57.5</ele><time>2026-04-04T08:09:29.116Z</time></trkpt><trkpt lat="41.888615" lon="12.3034567"><ele>61.0</ele><time>2026-04-04T08:09:30.116Z</time></trkpt><trkpt lat="41.8887" lon="12.303135"><ele>62.0</ele><time>2026-04-04T08:09:31.115Z</time></trkpt><trkpt lat="41.8887867" lon="12.30282"><ele>63.0</ele><time>2026-04-04T08:09:32.113Z</time></trkpt><trkpt lat="41.8888783" lon="12.302525"><ele>62.5</ele><time>2026-04-04T08:09:33.118Z</time></trkpt><trkpt lat="41.8889683" lon="12.3022383"><ele>62.0</ele><time>2026-04-04T08:09:34.116Z</time></trkpt><trkpt lat="41.8890617" lon="12.3019633"><ele>62.0</ele><time>2026-04-04T08:09:35.115Z</time></trkpt><trkpt lat="41.8891567" lon="12.3016917"><ele>62.0</ele><time>2026-04-04T08:09:36.115Z</time></trkpt><trkpt lat="41.88925" lon="12.3014217"><ele>62.0</ele><time>2026-04-04T08:09:37.118Z</time></trkpt><trkpt lat="41.8893467" lon="12.3011483"><ele>58.5</ele><time>2026-04-04T08:09:38.116Z</time></trkpt><trkpt lat="41.8894533" lon="12.3008783"><ele>55.0</ele><time>2026-04-04T08:09:39.117Z</time></trkpt><trkpt lat="41.889565" lon="12.30061"><ele>49.0</ele><time>2026-04-04T08:09:40.116Z</time></trkpt><trkpt lat="41.8896733" lon="12.30034"><ele>43.0</ele><time>2026-04-04T08:09:41.117Z</time></trkpt><trkpt lat="41.8897817" lon="12.3000633"><ele>43.0</ele><time>2026-04-04T08:09:42.116Z</time></trkpt><trkpt lat="41.8899017" lon="12.2997983"><ele>43.0</ele><time>2026-04-04T08:09:43.114Z</time></trkpt><trkpt lat="41.8900267" lon="12.299545"><ele>40.5</ele><time>2026-04-04T08:09:44.116Z</time></trkpt><trkpt lat="41.8901517" lon="12.29929"><ele>38.0</ele><time>2026-04-04T08:09:45.117Z</time></trkpt><trkpt lat="41.890285" lon="12.2990417"><ele>38.5</ele><time>2026-04-04T08:09:46.116Z</time></trkpt><trkpt lat="41.8904217" lon="12.298795"><ele>39.0</ele><time>2026-04-04T08:09:47.115Z</time></trkpt><trkpt lat="41.8905617" lon="12.2985417"><ele>39.0</ele><time>2026-04-04T08:09:48.117Z</time></trkpt><trkpt lat="41.89071" lon="12.2982917"><ele>39.0</ele><time>2026-04-04T08:09:49.116Z</time></trkpt><trkpt lat="41.89086" lon="12.298035"><ele>44.5</ele><time>2026-04-04T08:09:50.114Z</time></trkpt><trkpt lat="41.891015" lon="12.29778"><ele>50.0</ele><time>2026-04-04T08:09:51.112Z</time></trkpt><trkpt lat="41.8911717" lon="12.2975183"><ele>50.0</ele><time>2026-04-04T08:09:52.117Z</time></trkpt><trkpt lat="41.8913267" lon="12.29726"><ele>50.0</ele><time>2026-04-04T08:09:53.111Z</time></trkpt><trkpt lat="41.89148" lon="12.2969983"><ele>45.0</ele><time>2026-04-04T08:09:54.115Z</time></trkpt><trkpt lat="41.8916333" lon="12.29674"><ele>40.0</ele><time>2026-04-04T08:09:55.119Z</time></trkpt><trkpt lat="41.89179" lon="12.2964817"><ele>38.5</ele><time>2026-04-04T08:09:56.117Z</time></trkpt><trkpt lat="41.891945" lon="12.296225"><ele>37.0</ele><time>2026-04-04T08:09:57.116Z</time></trkpt><trkpt lat="41.892085" lon="12.2959717"><ele>37.0</ele><time>2026-04-04T08:09:58.117Z</time></trkpt><trkpt lat="41.8922267" lon="12.2957167"><ele>37.0</ele><time>2026-04-04T08:09:59.119Z</time></trkpt><trkpt lat="41.8923633" lon="12.2954617"><ele>37.0</ele><time>2026-04-04T08:10:00.115Z</time></trkpt><trkpt lat="41.8924983" lon="12.2952083"><ele>37.0</ele><time>2026-04-04T08:10:01.119Z</time></trkpt><trkpt lat="41.8926333" lon="12.294965"><ele>38.66666666666667</ele><time>2026-04-04T08:10:02.117Z</time></trkpt><trkpt lat="41.89277" lon="12.2947283"><ele>40.333333333333336</ele><time>2026-04-04T08:10:03.112Z</time></trkpt><trkpt lat="41.8929083" lon="12.2944933"><ele>42.0</ele><time>2026-04-04T08:10:04.116Z</time></trkpt><trkpt lat="41.8930433" lon="12.2942567"><ele>42.0</ele><time>2026-04-04T08:10:05.118Z</time></trkpt><trkpt lat="41.8931783" lon="12.2940217"><ele>42.0</ele><time>2026-04-04T08:10:06.114Z</time></trkpt><trkpt lat="41.8933133" lon="12.2937817"><ele>42.0</ele><time>2026-04-04T08:10:07.115Z</time></trkpt><trkpt lat="41.8934517" lon="12.29354"><ele>45.5</ele><time>2026-04-04T08:10:08.113Z</time></trkpt><trkpt lat="41.8935983" lon="12.2932967"><ele>49.0</ele><time>2026-04-04T08:10:09.116Z</time></trkpt><trkpt lat="41.89374" lon="12.2930567"><ele>49.0</ele><time>2026-04-04T08:10:10.119Z</time></trkpt><trkpt lat="41.8938833" lon="12.2928217"><ele>49.0</ele><time>2026-04-04T08:10:11.119Z</time></trkpt><trkpt lat="41.8940267" lon="12.2925917"><ele>49.0</ele><time>2026-04-04T08:10:12.118Z</time></trkpt><trkpt lat="41.8941633" lon="12.2923533"><ele>51.0</ele><time>2026-04-04T08:10:13.117Z</time></trkpt><trkpt lat="41.8943" lon="12.29211"><ele>53.0</ele><time>2026-04-04T08:10:14.115Z</time></trkpt><trkpt lat="41.8944367" lon="12.291865"><ele>53.0</ele><time>2026-04-04T08:10:15.116Z</time></trkpt><trkpt lat="41.8945683" lon="12.2916083"><ele>53.0</ele><time>2026-04-04T08:10:16.115Z</time></trkpt><trkpt lat="41.8946967" lon="12.29134"><ele>52.5</ele><time>2026-04-04T08:10:17.116Z</time></trkpt><trkpt lat="41.8948183" lon="12.2910633"><ele>52.0</ele><time>2026-04-04T08:10:18.116Z</time></trkpt><trkpt lat="41.8949333" lon="12.2907833"><ele>52.0</ele><time>2026-04-04T08:10:19.116Z</time></trkpt><trkpt lat="41.8950467" lon="12.290495"><ele>52.0</ele><time>2026-04-04T08:10:20.116Z</time></trkpt><trkpt lat="41.8951533" lon="12.290195"><ele>52.0</ele><time>2026-04-04T08:10:21.119Z</time></trkpt><trkpt lat="41.8952517" lon="12.28989"><ele>52.0</ele><time>2026-04-04T08:10:22.117Z</time></trkpt><trkpt lat="41.8953467" lon="12.28958"><ele>52.0</ele><time>2026-04-04T08:10:23.116Z</time></trkpt><trkpt lat="41.8954383" lon="12.2892667"><ele>52.0</ele><time>2026-04-04T08:10:24.118Z</time></trkpt><trkpt lat="41.8955167" lon="12.2889517"><ele>54.5</ele><time>2026-04-04T08:10:25.117Z</time></trkpt><trkpt lat="41.8956" lon="12.28863"><ele>57.0</ele><time>2026-04-04T08:10:26.119Z</time></trkpt><trkpt lat="41.8956767" lon="12.2883083"><ele>58.0</ele><time>2026-04-04T08:10:27.116Z</time></trkpt><trkpt lat="41.8957483" lon="12.28798"><ele>59.0</ele><time>2026-04-04T08:10:28.118Z</time></trkpt><trkpt lat="41.8958167" lon="12.2876533"><ele>59.0</ele><time>2026-04-04T08:10:29.114Z</time></trkpt><trkpt lat="41.89588" lon="12.287325"><ele>59.0</ele><time>2026-04-04T08:10:30.115Z</time></trkpt><trkpt lat="41.8959383" lon="12.286995"><ele>60.5</ele><time>2026-04-04T08:10:31.117Z</time></trkpt><trkpt lat="41.896" lon="12.286665"><ele>62.0</ele><time>2026-04-04T08:10:32.117Z</time></trkpt><trkpt lat="41.89606" lon="12.2863383"><ele>62.0</ele><time>2026-04-04T08:10:33.118Z</time></trkpt><trkpt lat="41.896125" lon="12.2860067"><ele>62.0</ele><time>2026-04-04T08:10:34.115Z</time></trkpt><trkpt lat="41.8961817" lon="12.2856717"><ele>60.0</ele><time>2026-04-04T08:10:35.114Z</time></trkpt><trkpt lat="41.89624" lon="12.28534"><ele>58.0</ele><time>2026-04-04T08:10:36.116Z</time></trkpt><trkpt lat="41.8963017" lon="12.28501"><ele>57.5</ele><time>2026-04-04T08:10:37.117Z</time></trkpt><trkpt lat="41.8963617" lon="12.2846867"><ele>57.0</ele><time>2026-04-04T08:10:38.117Z</time></trkpt><trkpt lat="41.89642" lon="12.2843717"><ele>57.0</ele><time>2026-04-04T08:10:39.117Z</time></trkpt><trkpt lat="41.8964767" lon="12.2840583"><ele>57.0</ele><time>2026-04-04T08:10:40.117Z</time></trkpt><trkpt lat="41.8965383" lon="12.2837433"><ele>58.5</ele><time>2026-04-04T08:10:41.118Z</time></trkpt><trkpt lat="41.896605" lon="12.28343"><ele>60.0</ele><time>2026-04-04T08:10:42.116Z</time></trkpt><trkpt lat="41.8966683" lon="12.283115"><ele>59.5</ele><time>2026-04-04T08:10:43.118Z</time></trkpt><trkpt lat="41.8967283" lon="12.2828083"><ele>59.0</ele><time>2026-04-04T08:10:44.119Z</time></trkpt><trkpt lat="41.896785" lon="12.2825033"><ele>59.333333333333336</ele><time>2026-04-04T08:10:45.117Z</time></trkpt><trkpt lat="41.8968383" lon="12.2822083"><ele>59.66666666666667</ele><time>2026-04-04T08:10:46.115Z</time></trkpt><trkpt lat="41.8968917" lon="12.28192"><ele>60.0</ele><time>2026-04-04T08:10:47.118Z</time></trkpt><trkpt lat="41.8969467" lon="12.281635"><ele>59.66666666666667</ele><time>2026-04-04T08:10:48.114Z</time></trkpt><trkpt lat="41.8969967" lon="12.2813533"><ele>59.333333333333336</ele><time>2026-04-04T08:10:49.111Z</time></trkpt><trkpt lat="41.8970483" lon="12.2810683"><ele>59.0</ele><time>2026-04-04T08:10:50.116Z</time></trkpt><trkpt lat="41.897105" lon="12.2807783"><ele>59.0</ele><time>2026-04-04T08:10:51.116Z</time></trkpt><trkpt lat="41.8971683" lon="12.2804817"><ele>59.0</ele><time>2026-04-04T08:10:52.118Z</time></trkpt><trkpt lat="41.897235" lon="12.28018"><ele>59.0</ele><time>2026-04-04T08:10:53.115Z</time></trkpt><trkpt lat="41.8973183" lon="12.27988"><ele>59.0</ele><time>2026-04-04T08:10:54.12Z</time></trkpt><trkpt lat="41.8974083" lon="12.2795767"><ele>58.5</ele><time>2026-04-04T08:10:55.117Z</time></trkpt><trkpt lat="41.8975067" lon="12.2792717"><ele>58.0</ele><time>2026-04-04T08:10:56.114Z</time></trkpt><trkpt lat="41.897615" lon="12.278965"><ele>55.5</ele><time>2026-04-04T08:10:57.117Z</time></trkpt><trkpt lat="41.897725" lon="12.2786633"><ele>53.0</ele><time>2026-04-04T08:10:58.116Z</time></trkpt><trkpt lat="41.89784" lon="12.27837"><ele>52.0</ele><time>2026-04-04T08:10:59.116Z</time></trkpt><trkpt lat="41.89796" lon="12.2780833"><ele>51.0</ele><time>2026-04-04T08:11:00.115Z</time></trkpt><trkpt lat="41.8980883" lon="12.2778"><ele>51.0</ele><time>2026-04-04T08:11:01.116Z</time></trkpt><trkpt lat="41.898225" lon="12.2775217"><ele>51.0</ele><time>2026-04-04T08:11:02.114Z</time></trkpt><trkpt lat="41.8983633" lon="12.277245"><ele>56.0</ele><time>2026-04-04T08:11:03.118Z</time></trkpt><trkpt lat="41.8985117" lon="12.276975"><ele>61.0</ele><time>2026-04-04T08:11:04.118Z</time></trkpt><trkpt lat="41.89867" lon="12.27671"><ele>61.0</ele><time>2026-04-04T08:11:05.119Z</time></trkpt><trkpt lat="41.8988333" lon="12.27645"><ele>61.0</ele><time>2026-04-04T08:11:06.117Z</time></trkpt><trkpt lat="41.8989967" lon="12.2761917"><ele>58.5</ele><time>2026-04-04T08:11:07.119Z</time></trkpt><trkpt lat="41.89917" lon="12.27594"><ele>56.0</ele><time>2026-04-04T08:11:08.121Z</time></trkpt><trkpt lat="41.8993517" lon="12.2756933"><ele>52.5</ele><time>2026-04-04T08:11:09.115Z</time></trkpt><trkpt lat="41.8995333" lon="12.2754583"><ele>49.0</ele><time>2026-04-04T08:11:10.115Z</time></trkpt><trkpt lat="41.8997183" lon="12.27523"><ele>49.0</ele><time>2026-04-04T08:11:11.115Z</time></trkpt><trkpt lat="41.899905" lon="12.2750117"><ele>49.0</ele><time>2026-04-04T08:11:12.115Z</time></trkpt><trkpt lat="41.9000967" lon="12.2748"><ele>50.5</ele><time>2026-04-04T08:11:13.116Z</time></trkpt><trkpt lat="41.9002933" lon="12.274595"><ele>52.0</ele><time>2026-04-04T08:11:14.115Z</time></trkpt><trkpt lat="41.9004967" lon="12.2743933"><ele>52.0</ele><time>2026-04-04T08:11:15.118Z</time></trkpt><trkpt lat="41.900705" lon="12.274195"><ele>52.0</ele><time>2026-04-04T08:11:16.117Z</time></trkpt><trkpt lat="41.9009117" lon="12.2739967"><ele>51.5</ele><time>2026-04-04T08:11:17.118Z</time></trkpt><trkpt lat="41.90112" lon="12.27381"><ele>51.0</ele><time>2026-04-04T08:11:18.12Z</time></trkpt><trkpt lat="41.9013167" lon="12.2736133"><ele>51.0</ele><time>2026-04-04T08:11:19.115Z</time></trkpt><trkpt lat="41.9015117" lon="12.2734233"><ele>51.0</ele><time>2026-04-04T08:11:20.111Z</time></trkpt><trkpt lat="41.9017033" lon="12.2732367"><ele>46.5</ele><time>2026-04-04T08:11:21.118Z</time></trkpt><trkpt lat="41.9018983" lon="12.2730583"><ele>42.0</ele><time>2026-04-04T08:11:22.113Z</time></trkpt><trkpt lat="41.90209" lon="12.272885"><ele>42.0</ele><time>2026-04-04T08:11:23.117Z</time></trkpt><trkpt lat="41.9022783" lon="12.2727117"><ele>42.0</ele><time>2026-04-04T08:11:24.115Z</time></trkpt><trkpt lat="41.902455" lon="12.2725383"><ele>42.0</ele><time>2026-04-04T08:11:25.12Z</time></trkpt><trkpt lat="41.9026267" lon="12.2723717"><ele>40.666666666666664</ele><time>2026-04-04T08:11:26.115Z</time></trkpt><trkpt lat="41.9028033" lon="12.2721967"><ele>39.33333333333333</ele><time>2026-04-04T08:11:27.118Z</time></trkpt><trkpt lat="41.9029867" lon="12.2720217"><ele>38.0</ele><time>2026-04-04T08:11:28.119Z</time></trkpt><trkpt lat="41.903175" lon="12.2718483"><ele>38.0</ele><time>2026-04-04T08:11:29.117Z</time></trkpt><trkpt lat="41.903365" lon="12.2716767"><ele>38.0</ele><time>2026-04-04T08:11:30.114Z</time></trkpt><trkpt lat="41.9035483" lon="12.2715017"><ele>35.0</ele><time>2026-04-04T08:11:31.118Z</time></trkpt><trkpt lat="41.9037367" lon="12.2713283"><ele>32.0</ele><time>2026-04-04T08:11:32.119Z</time></trkpt><trkpt lat="41.9039217" lon="12.27115"><ele>32.0</ele><time>2026-04-04T08:11:33.117Z</time></trkpt><trkpt lat="41.9040983" lon="12.2709683"><ele>32.0</ele><time>2026-04-04T08:11:34.119Z</time></trkpt><trkpt lat="41.9042633" lon="12.2707783"><ele>32.0</ele><time>2026-04-04T08:11:35.116Z</time></trkpt><trkpt lat="41.9044183" lon="12.2705733"><ele>31.0</ele><time>2026-04-04T08:11:36.116Z</time></trkpt><trkpt lat="41.9045733" lon="12.27037"><ele>30.0</ele><time>2026-04-04T08:11:37.118Z</time></trkpt><trkpt lat="41.9047183" lon="12.2701567"><ele>29.0</ele><time>2026-04-04T08:11:38.11Z</time></trkpt><trkpt lat="41.9048583" lon="12.2699367"><ele>28.666666666666664</ele><time>2026-04-04T08:11:39.119Z</time></trkpt><trkpt lat="41.9049917" lon="12.269715"><ele>28.333333333333336</ele><time>2026-04-04T08:11:40.115Z</time></trkpt><trkpt lat="41.9051233" lon="12.2694917"><ele>28.0</ele><time>2026-04-04T08:11:41.119Z</time></trkpt><trkpt lat="41.9052483" lon="12.26926"><ele>27.666666666666668</ele><time>2026-04-04T08:11:42.117Z</time></trkpt><trkpt lat="41.9053567" lon="12.26902"><ele>27.333333333333336</ele><time>2026-04-04T08:11:43.112Z</time></trkpt><trkpt lat="41.9054567" lon="12.2687733"><ele>27.0</ele><time>2026-04-04T08:11:44.118Z</time></trkpt><trkpt lat="41.9055517" lon="12.268515"><ele>25.666666666666668</ele><time>2026-04-04T08:11:45.116Z</time></trkpt><trkpt lat="41.9056433" lon="12.2682483"><ele>24.333333333333336</ele><time>2026-04-04T08:11:46.115Z</time></trkpt><trkpt lat="41.9057417" lon="12.26798"><ele>23.0</ele><time>2026-04-04T08:11:47.119Z</time></trkpt><trkpt lat="41.9058367" lon="12.2677033"><ele>20.5</ele><time>2026-04-04T08:11:48.118Z</time></trkpt><trkpt lat="41.9059283" lon="12.2674233"><ele>18.0</ele><time>2026-04-04T08:11:49.119Z</time></trkpt><trkpt lat="41.9060183" lon="12.26714"><ele>16.5</ele><time>2026-04-04T08:11:50.119Z</time></trkpt><trkpt lat="41.9061133" lon="12.2668567"><ele>15.0</ele><time>2026-04-04T08:11:51.116Z</time></trkpt><trkpt lat="41.9062083" lon="12.2665667"><ele>16.0</ele><time>2026-04-04T08:11:52.112Z</time></trkpt><trkpt lat="41.906305" lon="12.2662767"><ele>17.0</ele><time>2026-04-04T08:11:53.115Z</time></trkpt><trkpt lat="41.9064083" lon="12.2659833"><ele>17.0</ele><time>2026-04-04T08:11:54.114Z</time></trkpt><trkpt lat="41.9065133" lon="12.2656917"><ele>17.0</ele><time>2026-04-04T08:11:55.119Z</time></trkpt><trkpt lat="41.9066217" lon="12.2653967"><ele>17.0</ele><time>2026-04-04T08:11:56.12Z</time></trkpt><trkpt lat="41.9067283" lon="12.2651017"><ele>17.0</ele><time>2026-04-04T08:11:57.119Z</time></trkpt><trkpt lat="41.90684" lon="12.2648083"><ele>18.5</ele><time>2026-04-04T08:11:58.118Z</time></trkpt><trkpt lat="41.90696" lon="12.2645267"><ele>20.0</ele><time>2026-04-04T08:11:59.112Z</time></trkpt><trkpt lat="41.9070817" lon="12.2642517"><ele>20.0</ele><time>2026-04-04T08:12:00.119Z</time></trkpt><trkpt lat="41.907205" lon="12.26399"><ele>20.0</ele><time>2026-04-04T08:12:01.12Z</time></trkpt><trkpt lat="41.9073333" lon="12.2637367"><ele>20.0</ele><time>2026-04-04T08:12:02.117Z</time></trkpt><trkpt lat="41.9074717" lon="12.263485"><ele>20.0</ele><time>2026-04-04T08:12:03.121Z</time></trkpt><trkpt lat="41.9076167" lon="12.2632367"><ele>20.5</ele><time>2026-04-04T08:12:04.118Z</time></trkpt><trkpt lat="41.9077717" lon="12.2629917"><ele>21.0</ele><time>2026-04-04T08:12:05.116Z</time></trkpt><trkpt lat="41.907935" lon="12.2627533"><ele>21.0</ele><time>2026-04-04T08:12:06.119Z</time></trkpt><trkpt lat="41.9081033" lon="12.2625217"><ele>21.0</ele><time>2026-04-04T08:12:07.119Z</time></trkpt><trkpt lat="41.9082733" lon="12.2622933"><ele>22.5</ele><time>2026-04-04T08:12:08.111Z</time></trkpt><trkpt lat="41.908445" lon="12.2620683"><ele>24.0</ele><time>2026-04-04T08:12:09.121Z</time></trkpt><trkpt lat="41.90862" lon="12.26185"><ele>24.0</ele><time>2026-04-04T08:12:10.121Z</time></trkpt><trkpt lat="41.9087917" lon="12.261635"><ele>24.0</ele><time>2026-04-04T08:12:11.114Z</time></trkpt><trkpt lat="41.90895" lon="12.2614133"><ele>24.666666666666664</ele><time>2026-04-04T08:12:12.117Z</time></trkpt><trkpt lat="41.909105" lon="12.2612067"><ele>25.333333333333332</ele><time>2026-04-04T08:12:13.217Z</time></trkpt><trkpt lat="41.909255" lon="12.26101"><ele>26.0</ele><time>2026-04-04T08:12:14.117Z</time></trkpt><trkpt lat="41.9094033" lon="12.2608133"><ele>29.0</ele><time>2026-04-04T08:12:15.119Z</time></trkpt><trkpt lat="41.9095417" lon="12.260615"><ele>32.0</ele><time>2026-04-04T08:12:16.115Z</time></trkpt><trkpt lat="41.9096683" lon="12.2604083"><ele>35.0</ele><time>2026-04-04T08:12:17.116Z</time></trkpt><trkpt lat="41.909785" lon="12.2601917"><ele>35.0</ele><time>2026-04-04T08:12:18.114Z</time></trkpt><trkpt lat="41.9098917" lon="12.25996"><ele>35.0</ele><time>2026-04-04T08:12:19.116Z</time></trkpt><trkpt lat="41.9099917" lon="12.2597217"><ele>35.0</ele><time>2026-04-04T08:12:20.121Z</time></trkpt><trkpt lat="41.9100733" lon="12.2594733"><ele>34.666666666666664</ele><time>2026-04-04T08:12:21.112Z</time></trkpt><trkpt lat="41.9101383" lon="12.259215"><ele>34.333333333333336</ele><time>2026-04-04T08:12:22.117Z</time></trkpt><trkpt lat="41.9101983" lon="12.2589683"><ele>34.0</ele><time>2026-04-04T08:12:23.121Z</time></trkpt><trkpt lat="41.9102367" lon="12.258715"><ele>34.0</ele><time>2026-04-04T08:12:24.12Z</time></trkpt><trkpt lat="41.9102617" lon="12.2584583"><ele>34.0</ele><time>2026-04-04T08:12:25.117Z</time></trkpt><trkpt lat="41.9102833" lon="12.2582033"><ele>34.0</ele><time>2026-04-04T08:12:26.117Z</time></trkpt><trkpt lat="41.9103083" lon="12.2579483"><ele>35.0</ele><time>2026-04-04T08:12:27.114Z</time></trkpt><trkpt lat="41.9103367" lon="12.2577017"><ele>36.0</ele><time>2026-04-04T08:12:28.115Z</time></trkpt><trkpt lat="41.9103633" lon="12.2574483"><ele>37.0</ele><time>2026-04-04T08:12:29.118Z</time></trkpt><trkpt lat="41.9103867" lon="12.257195"><ele>38.333333333333336</ele><time>2026-04-04T08:12:30.115Z</time></trkpt><trkpt lat="41.9104083" lon="12.2569367"><ele>39.666666666666664</ele><time>2026-04-04T08:12:31.111Z</time></trkpt><trkpt lat="41.9104283" lon="12.25667"><ele>41.0</ele><time>2026-04-04T08:12:32.114Z</time></trkpt><trkpt lat="41.9104483" lon="12.2564"><ele>42.666666666666664</ele><time>2026-04-04T08:12:33.119Z</time></trkpt><trkpt lat="41.910475" lon="12.256125"><ele>44.333333333333336</ele><time>2026-04-04T08:12:34.116Z</time></trkpt><trkpt lat="41.910495" lon="12.2558433"><ele>46.0</ele><time>2026-04-04T08:12:35.115Z</time></trkpt><trkpt lat="41.9105233" lon="12.2555717"><ele>49.0</ele><time>2026-04-04T08:12:36.119Z</time></trkpt><trkpt lat="41.9105517" lon="12.2553"><ele>52.0</ele><time>2026-04-04T08:12:37.117Z</time></trkpt><trkpt lat="41.9105767" lon="12.2550333"><ele>55.0</ele><time>2026-04-04T08:12:38.112Z</time></trkpt><trkpt lat="41.9106017" lon="12.254775"><ele>55.666666666666664</ele><time>2026-04-04T08:12:39.119Z</time></trkpt><trkpt lat="41.9106267" lon="12.254525"><ele>56.33333333333333</ele><time>2026-04-04T08:12:40.121Z</time></trkpt><trkpt lat="41.9106533" lon="12.25428"><ele>57.0</ele><time>2026-04-04T08:12:41.118Z</time></trkpt><trkpt lat="41.9106817" lon="12.2540317"><ele>57.66666666666667</ele><time>2026-04-04T08:12:42.119Z</time></trkpt><trkpt lat="41.9107117" lon="12.25378"><ele>58.333333333333336</ele><time>2026-04-04T08:12:43.12Z</time></trkpt><trkpt lat="41.91074" lon="12.25352"><ele>59.0</ele><time>2026-04-04T08:12:44.118Z</time></trkpt><trkpt lat="41.9107717" lon="12.253255"><ele>58.66666666666667</ele><time>2026-04-04T08:12:45.121Z</time></trkpt><trkpt lat="41.9108167" lon="12.25299"><ele>58.33333333333333</ele><time>2026-04-04T08:12:46.118Z</time></trkpt><trkpt lat="41.9108617" lon="12.25272"><ele>58.0</ele><time>2026-04-04T08:12:47.118Z</time></trkpt><trkpt lat="41.9109217" lon="12.2524483"><ele>60.33333333333333</ele><time>2026-04-04T08:12:48.115Z</time></trkpt><trkpt lat="41.9109917" lon="12.2521767"><ele>62.66666666666667</ele><time>2026-04-04T08:12:49.117Z</time></trkpt><trkpt lat="41.9110733" lon="12.2519067"><ele>65.0</ele><time>2026-04-04T08:12:50.121Z</time></trkpt><trkpt lat="41.9111617" lon="12.2516383"><ele>65.66666666666667</ele><time>2026-04-04T08:12:51.117Z</time></trkpt><trkpt lat="41.9112617" lon="12.25137"><ele>66.33333333333333</ele><time>2026-04-04T08:12:52.117Z</time></trkpt><trkpt lat="41.91137" lon="12.251105"><ele>67.0</ele><time>2026-04-04T08:12:53.119Z</time></trkpt><trkpt lat="41.9114867" lon="12.25084"><ele>66.5</ele><time>2026-04-04T08:12:54.118Z</time></trkpt><trkpt lat="41.9116083" lon="12.2505717"><ele>66.0</ele><time>2026-04-04T08:12:55.119Z</time></trkpt><trkpt lat="41.9117383" lon="12.2503033"><ele>66.5</ele><time>2026-04-04T08:12:56.117Z</time></trkpt><trkpt lat="41.9118717" lon="12.2500367"><ele>67.0</ele><time>2026-04-04T08:12:57.111Z</time></trkpt><trkpt lat="41.9120133" lon="12.2497717"><ele>67.0</ele><time>2026-04-04T08:12:58.115Z</time></trkpt><trkpt lat="41.9121633" lon="12.249505"><ele>67.0</ele><time>2026-04-04T08:12:59.114Z</time></trkpt><trkpt lat="41.912315" lon="12.2492383"><ele>67.0</ele><time>2026-04-04T08:13:00.117Z</time></trkpt><trkpt lat="41.91246" lon="12.2489617"><ele>67.0</ele><time>2026-04-04T08:13:01.118Z</time></trkpt><trkpt lat="41.9126067" lon="12.2486867"><ele>68.5</ele><time>2026-04-04T08:13:02.118Z</time></trkpt><trkpt lat="41.9127483" lon="12.24842"><ele>70.0</ele><time>2026-04-04T08:13:03.118Z</time></trkpt><trkpt lat="41.9128833" lon="12.2481667"><ele>70.66666666666666</ele><time>2026-04-04T08:13:04.119Z</time></trkpt><trkpt lat="41.9130067" lon="12.2479233"><ele>71.33333333333333</ele><time>2026-04-04T08:13:05.119Z</time></trkpt><trkpt lat="41.9131233" lon="12.2476917"><ele>72.0</ele><time>2026-04-04T08:13:06.118Z</time></trkpt><trkpt lat="41.9132367" lon="12.24747"><ele>72.66666666666667</ele><time>2026-04-04T08:13:07.118Z</time></trkpt><trkpt lat="41.9133517" lon="12.2472483"><ele>73.33333333333334</ele><time>2026-04-04T08:13:08.118Z</time></trkpt><trkpt lat="41.9134667" lon="12.24703"><ele>74.0</ele><time>2026-04-04T08:13:09.118Z</time></trkpt><trkpt lat="41.91358" lon="12.2468083"><ele>74.0</ele><time>2026-04-04T08:13:10.118Z</time></trkpt><trkpt lat="41.9137" lon="12.2465833"><ele>74.0</ele><time>2026-04-04T08:13:11.115Z</time></trkpt><trkpt lat="41.91382" lon="12.246355"><ele>74.0</ele><time>2026-04-04T08:13:12.118Z</time></trkpt><trkpt lat="41.9139433" lon="12.246115"><ele>74.0</ele><time>2026-04-04T08:13:13.12Z</time></trkpt><trkpt lat="41.91407" lon="12.2458733"><ele>74.0</ele><time>2026-04-04T08:13:14.118Z</time></trkpt><trkpt lat="41.914205" lon="12.24562"><ele>73.5</ele><time>2026-04-04T08:13:15.119Z</time></trkpt><trkpt lat="41.91434" lon="12.2453567"><ele>73.0</ele><time>2026-04-04T08:13:16.117Z</time></trkpt><trkpt lat="41.91448" lon="12.2450917"><ele>73.0</ele><time>2026-04-04T08:13:17.115Z</time></trkpt><trkpt lat="41.9146233" lon="12.244825"><ele>73.0</ele><time>2026-04-04T08:13:18.117Z</time></trkpt><trkpt lat="41.9147717" lon="12.24456"><ele>73.0</ele><time>2026-04-04T08:13:19.116Z</time></trkpt><trkpt lat="41.9149183" lon="12.2442983"><ele>73.0</ele><time>2026-04-04T08:13:20.117Z</time></trkpt><trkpt lat="41.915065" lon="12.24404"><ele>73.5</ele><time>2026-04-04T08:13:21.119Z</time></trkpt><trkpt lat="41.91521" lon="12.2437867"><ele>74.0</ele><time>2026-04-04T08:13:22.116Z</time></trkpt><trkpt lat="41.9153517" lon="12.2435383"><ele>74.0</ele><time>2026-04-04T08:13:23.118Z</time></trkpt><trkpt lat="41.91549" lon="12.24329"><ele>74.0</ele><time>2026-04-04T08:13:24.116Z</time></trkpt><trkpt lat="41.9156283" lon="12.2430467"><ele>74.0</ele><time>2026-04-04T08:13:25.117Z</time></trkpt><trkpt lat="41.9157717" lon="12.2428017"><ele>74.0</ele><time>2026-04-04T08:13:26.116Z</time></trkpt><trkpt lat="41.9159217" lon="12.242545"><ele>75.0</ele><time>2026-04-04T08:13:27.118Z</time></trkpt><trkpt lat="41.9160683" lon="12.2422933"><ele>76.0</ele><time>2026-04-04T08:13:28.115Z</time></trkpt><trkpt lat="41.91621" lon="12.2420467"><ele>76.0</ele><time>2026-04-04T08:13:29.118Z</time></trkpt><trkpt lat="41.91635" lon="12.241805"><ele>76.0</ele><time>2026-04-04T08:13:30.117Z</time></trkpt><trkpt lat="41.9164883" lon="12.24156"><ele>76.0</ele><time>2026-04-04T08:13:31.119Z</time></trkpt><trkpt lat="41.9166283" lon="12.2413117"><ele>76.0</ele><time>2026-04-04T08:13:32.116Z</time></trkpt><trkpt lat="41.9167633" lon="12.2410617"><ele>76.0</ele><time>2026-04-04T08:13:33.118Z</time></trkpt><trkpt lat="41.9168967" lon="12.2408083"><ele>76.0</ele><time>2026-04-04T08:13:34.118Z</time></trkpt><trkpt lat="41.9170217" lon="12.2405567"><ele>75.66666666666666</ele><time>2026-04-04T08:13:35.116Z</time></trkpt><trkpt lat="41.9171417" lon="12.2403017"><ele>75.33333333333333</ele><time>2026-04-04T08:13:36.115Z</time></trkpt><trkpt lat="41.917255" lon="12.2400533"><ele>75.0</ele><time>2026-04-04T08:13:37.117Z</time></trkpt><trkpt lat="41.91736" lon="12.2398117"><ele>75.0</ele><time>2026-04-04T08:13:38.118Z</time></trkpt><trkpt lat="41.917465" lon="12.2395767"><ele>75.0</ele><time>2026-04-04T08:13:39.116Z</time></trkpt><trkpt lat="41.91757" lon="12.2393367"><ele>75.0</ele><time>2026-04-04T08:13:40.114Z</time></trkpt><trkpt lat="41.917675" lon="12.2390867"><ele>76.0</ele><time>2026-04-04T08:13:41.118Z</time></trkpt><trkpt lat="41.91778" lon="12.23883"><ele>77.0</ele><time>2026-04-04T08:13:42.118Z</time></trkpt><trkpt lat="41.9178883" lon="12.23857"><ele>78.0</ele><time>2026-04-04T08:13:43.12Z</time></trkpt><trkpt lat="41.918" lon="12.2383"><ele>77.5</ele><time>2026-04-04T08:13:44.118Z</time></trkpt><trkpt lat="41.9181117" lon="12.2380233"><ele>77.0</ele><time>2026-04-04T08:13:45.118Z</time></trkpt><trkpt lat="41.9182283" lon="12.2377367"><ele>77.0</ele><time>2026-04-04T08:13:46.122Z</time></trkpt><trkpt lat="41.91834" lon="12.2374517"><ele>77.0</ele><time>2026-04-04T08:13:47.117Z</time></trkpt><trkpt lat="41.9184667" lon="12.237175"><ele>74.0</ele><time>2026-04-04T08:13:48.117Z</time></trkpt><trkpt lat="41.9185883" lon="12.236885"><ele>71.0</ele><time>2026-04-04T08:13:49.119Z</time></trkpt><trkpt lat="41.9187083" lon="12.2365967"><ele>71.0</ele><time>2026-04-04T08:13:50.117Z</time></trkpt><trkpt lat="41.9188217" lon="12.23631"><ele>71.0</ele><time>2026-04-04T08:13:51.116Z</time></trkpt><trkpt lat="41.9189283" lon="12.236025"><ele>71.0</ele><time>2026-04-04T08:13:52.117Z</time></trkpt><trkpt lat="41.919025" lon="12.2357383"><ele>71.0</ele><time>2026-04-04T08:13:53.119Z</time></trkpt><trkpt lat="41.9191033" lon="12.2354467"><ele>70.66666666666667</ele><time>2026-04-04T08:13:54.119Z</time></trkpt><trkpt lat="41.9191667" lon="12.2351583"><ele>70.33333333333333</ele><time>2026-04-04T08:13:55.119Z</time></trkpt><trkpt lat="41.9192117" lon="12.234875"><ele>70.0</ele><time>2026-04-04T08:13:56.109Z</time></trkpt><trkpt lat="41.9192383" lon="12.2345833"><ele>70.66666666666666</ele><time>2026-04-04T08:13:57.119Z</time></trkpt><trkpt lat="41.91925" lon="12.2342933"><ele>71.33333333333333</ele><time>2026-04-04T08:13:58.117Z</time></trkpt><trkpt lat="41.9192467" lon="12.234"><ele>72.0</ele><time>2026-04-04T08:13:59.117Z</time></trkpt><trkpt lat="41.9192317" lon="12.2337133"><ele>70.66666666666667</ele><time>2026-04-04T08:14:00.116Z</time></trkpt><trkpt lat="41.9191983" lon="12.233435"><ele>69.33333333333334</ele><time>2026-04-04T08:14:01.117Z</time></trkpt><trkpt lat="41.91915" lon="12.2331583"><ele>68.0</ele><time>2026-04-04T08:14:02.115Z</time></trkpt><trkpt lat="41.9190883" lon="12.23289"><ele>68.0</ele><time>2026-04-04T08:14:03.118Z</time></trkpt><trkpt lat="41.9190133" lon="12.23263"><ele>68.0</ele><time>2026-04-04T08:14:04.116Z</time></trkpt><trkpt lat="41.9189267" lon="12.2323683"><ele>68.0</ele><time>2026-04-04T08:14:05.118Z</time></trkpt><trkpt lat="41.9188167" lon="12.2321033"><ele>69.0</ele><time>2026-04-04T08:14:06.119Z</time></trkpt><trkpt lat="41.9186917" lon="12.231845"><ele>70.0</ele><time>2026-04-04T08:14:07.12Z</time></trkpt><trkpt lat="41.9185617" lon="12.2315867"><ele>70.0</ele><time>2026-04-04T08:14:08.117Z</time></trkpt><trkpt lat="41.91842" lon="12.2313233"><ele>70.0</ele><time>2026-04-04T08:14:09.118Z</time></trkpt><trkpt lat="41.91827" lon="12.23106"><ele>70.0</ele><time>2026-04-04T08:14:10.118Z</time></trkpt><trkpt lat="41.9181067" lon="12.2307983"><ele>70.0</ele><time>2026-04-04T08:14:11.117Z</time></trkpt><trkpt lat="41.9179517" lon="12.2305417"><ele>70.5</ele><time>2026-04-04T08:14:12.114Z</time></trkpt><trkpt lat="41.91781" lon="12.230295"><ele>71.0</ele><time>2026-04-04T08:14:13.115Z</time></trkpt><trkpt lat="41.9176717" lon="12.2300583"><ele>70.66666666666667</ele><time>2026-04-04T08:14:14.119Z</time></trkpt><trkpt lat="41.9175433" lon="12.229825"><ele>70.33333333333333</ele><time>2026-04-04T08:14:15.12Z</time></trkpt><trkpt lat="41.917415" lon="12.2295967"><ele>70.0</ele><time>2026-04-04T08:14:16.116Z</time></trkpt><trkpt lat="41.9172867" lon="12.2293667"><ele>70.0</ele><time>2026-04-04T08:14:17.113Z</time></trkpt><trkpt lat="41.917155" lon="12.22914"><ele>70.0</ele><time>2026-04-04T08:14:18.115Z</time></trkpt><trkpt lat="41.9170283" lon="12.2289217"><ele>70.0</ele><time>2026-04-04T08:14:19.119Z</time></trkpt><trkpt lat="41.9169017" lon="12.228705"><ele>69.0</ele><time>2026-04-04T08:14:20.118Z</time></trkpt><trkpt lat="41.916775" lon="12.228485"><ele>68.0</ele><time>2026-04-04T08:14:21.118Z</time></trkpt><trkpt lat="41.9166467" lon="12.2282583"><ele>67.0</ele><time>2026-04-04T08:14:22.117Z</time></trkpt><trkpt lat="41.916515" lon="12.228025"><ele>64.0</ele><time>2026-04-04T08:14:23.117Z</time></trkpt><trkpt lat="41.9163783" lon="12.2277867"><ele>61.0</ele><time>2026-04-04T08:14:24.114Z</time></trkpt><trkpt lat="41.9162383" lon="12.2275417"><ele>59.5</ele><time>2026-04-04T08:14:25.118Z</time></trkpt><trkpt lat="41.9160983" lon="12.2272933"><ele>58.0</ele><time>2026-04-04T08:14:26.117Z</time></trkpt><trkpt lat="41.9159583" lon="12.2270483"><ele>57.5</ele><time>2026-04-04T08:14:27.115Z</time></trkpt><trkpt lat="41.9158217" lon="12.226805"><ele>57.0</ele><time>2026-04-04T08:14:28.118Z</time></trkpt><trkpt lat="41.915685" lon="12.2265583"><ele>56.0</ele><time>2026-04-04T08:14:29.116Z</time></trkpt><trkpt lat="41.91555" lon="12.22632"><ele>55.0</ele><time>2026-04-04T08:14:30.115Z</time></trkpt><trkpt lat="41.9154183" lon="12.22609"><ele>54.0</ele><time>2026-04-04T08:14:31.117Z</time></trkpt><trkpt lat="41.9152867" lon="12.2258667"><ele>52.0</ele><time>2026-04-04T08:14:32.117Z</time></trkpt><trkpt lat="41.9151533" lon="12.2256367"><ele>50.0</ele><time>2026-04-04T08:14:33.115Z</time></trkpt><trkpt lat="41.915025" lon="12.2253967"><ele>48.0</ele><time>2026-04-04T08:14:34.119Z</time></trkpt><trkpt lat="41.9148983" lon="12.2251483"><ele>47.0</ele><time>2026-04-04T08:14:35.116Z</time></trkpt><trkpt lat="41.91477" lon="12.224895"><ele>46.0</ele><time>2026-04-04T08:14:36.112Z</time></trkpt><trkpt lat="41.9146483" lon="12.2246317"><ele>43.0</ele><time>2026-04-04T08:14:37.117Z</time></trkpt><trkpt lat="41.9145283" lon="12.22436"><ele>40.0</ele><time>2026-04-04T08:14:38.117Z</time></trkpt><trkpt lat="41.914415" lon="12.22408"><ele>39.0</ele><time>2026-04-04T08:14:39.119Z</time></trkpt><trkpt lat="41.914305" lon="12.2237933"><ele>38.0</ele><time>2026-04-04T08:14:40.116Z</time></trkpt><trkpt lat="41.9142" lon="12.223495"><ele>38.0</ele><time>2026-04-04T08:14:41.119Z</time></trkpt><trkpt lat="41.9141033" lon="12.2231867"><ele>38.0</ele><time>2026-04-04T08:14:42.116Z</time></trkpt><trkpt lat="41.9140133" lon="12.2228733"><ele>36.5</ele><time>2026-04-04T08:14:43.115Z</time></trkpt><trkpt lat="41.913935" lon="12.2225617"><ele>35.0</ele><time>2026-04-04T08:14:44.118Z</time></trkpt><trkpt lat="41.9138617" lon="12.222245"><ele>35.0</ele><time>2026-04-04T08:14:45.117Z</time></trkpt><trkpt lat="41.9137917" lon="12.22192"><ele>35.0</ele><time>2026-04-04T08:14:46.117Z</time></trkpt><trkpt lat="41.9137283" lon="12.2215917"><ele>35.0</ele><time>2026-04-04T08:14:47.111Z</time></trkpt><trkpt lat="41.9136617" lon="12.2212533"><ele>35.0</ele><time>2026-04-04T08:14:48.118Z</time></trkpt><trkpt lat="41.9135917" lon="12.2209083"><ele>34.0</ele><time>2026-04-04T08:14:49.113Z</time></trkpt><trkpt lat="41.9135267" lon="12.220565"><ele>33.0</ele><time>2026-04-04T08:14:50.109Z</time></trkpt><trkpt lat="41.91347" lon="12.22021"><ele>33.0</ele><time>2026-04-04T08:14:51.11Z</time></trkpt><trkpt lat="41.9134167" lon="12.219845"><ele>33.0</ele><time>2026-04-04T08:14:52.109Z</time></trkpt><trkpt lat="41.913365" lon="12.2194833"><ele>33.5</ele><time>2026-04-04T08:14:53.114Z</time></trkpt><trkpt lat="41.91331" lon="12.21912"><ele>34.0</ele><time>2026-04-04T08:14:54.117Z</time></trkpt><trkpt lat="41.9132433" lon="12.2187583"><ele>33.0</ele><time>2026-04-04T08:14:55.113Z</time></trkpt><trkpt lat="41.9131783" lon="12.2184067"><ele>32.0</ele><time>2026-04-04T08:14:56.116Z</time></trkpt><trkpt lat="41.9131067" lon="12.2180633"><ele>31.5</ele><time>2026-04-04T08:14:57.116Z</time></trkpt><trkpt lat="41.9130433" lon="12.21772"><ele>31.0</ele><time>2026-04-04T08:14:58.117Z</time></trkpt><trkpt lat="41.91299" lon="12.2173717"><ele>30.0</ele><time>2026-04-04T08:14:59.111Z</time></trkpt><trkpt lat="41.9129417" lon="12.21704"><ele>29.0</ele><time>2026-04-04T08:15:00.115Z</time></trkpt><trkpt lat="41.9129133" lon="12.2167217"><ele>29.0</ele><time>2026-04-04T08:15:01.116Z</time></trkpt><trkpt lat="41.912905" lon="12.2164067"><ele>29.0</ele><time>2026-04-04T08:15:02.116Z</time></trkpt><trkpt lat="41.9129033" lon="12.216095"><ele>29.0</ele><time>2026-04-04T08:15:03.116Z</time></trkpt><trkpt lat="41.9129083" lon="12.215775"><ele>29.0</ele><time>2026-04-04T08:15:04.118Z</time></trkpt><trkpt lat="41.9129283" lon="12.21545"><ele>28.5</ele><time>2026-04-04T08:15:05.11Z</time></trkpt><trkpt lat="41.912955" lon="12.2151217"><ele>28.0</ele><time>2026-04-04T08:15:06.11Z</time></trkpt><trkpt lat="41.9129967" lon="12.2147817"><ele>28.0</ele><time>2026-04-04T08:15:07.12Z</time></trkpt><trkpt lat="41.9130383" lon="12.2144367"><ele>28.0</ele><time>2026-04-04T08:15:08.112Z</time></trkpt><trkpt lat="41.91308" lon="12.2140983"><ele>28.5</ele><time>2026-04-04T08:15:09.122Z</time></trkpt><trkpt lat="41.9131167" lon="12.21377"><ele>29.0</ele><time>2026-04-04T08:15:10.12Z</time></trkpt><trkpt lat="41.9131517" lon="12.2134533"><ele>28.0</ele><time>2026-04-04T08:15:11.119Z</time></trkpt><trkpt lat="41.913185" lon="12.2131433"><ele>27.0</ele><time>2026-04-04T08:15:12.119Z</time></trkpt><trkpt lat="41.913215" lon="12.21283"><ele>27.0</ele><time>2026-04-04T08:15:13.119Z</time></trkpt><trkpt lat="41.913245" lon="12.21251"><ele>27.0</ele><time>2026-04-04T08:15:14.119Z</time></trkpt><trkpt lat="41.9132783" lon="12.2121833"><ele>27.5</ele><time>2026-04-04T08:15:15.117Z</time></trkpt><trkpt lat="41.9133133" lon="12.21185"><ele>28.0</ele><time>2026-04-04T08:15:16.118Z</time></trkpt><trkpt lat="41.91335" lon="12.21151"><ele>27.5</ele><time>2026-04-04T08:15:17.119Z</time></trkpt><trkpt lat="41.9133883" lon="12.2111633"><ele>27.0</ele><time>2026-04-04T08:15:18.114Z</time></trkpt><trkpt lat="41.91343" lon="12.2108117"><ele>27.0</ele><time>2026-04-04T08:15:19.119Z</time></trkpt><trkpt lat="41.9134767" lon="12.21046"><ele>27.0</ele><time>2026-04-04T08:15:20.114Z</time></trkpt><trkpt lat="41.9135217" lon="12.2101067"><ele>28.0</ele><time>2026-04-04T08:15:21.114Z</time></trkpt><trkpt lat="41.91357" lon="12.2097533"><ele>29.0</ele><time>2026-04-04T08:15:22.121Z</time></trkpt><trkpt lat="41.91361" lon="12.209395"><ele>29.0</ele><time>2026-04-04T08:15:23.112Z</time></trkpt><trkpt lat="41.9136533" lon="12.2090367"><ele>29.0</ele><time>2026-04-04T08:15:24.118Z</time></trkpt><trkpt lat="41.9136933" lon="12.2086683"><ele>27.5</ele><time>2026-04-04T08:15:25.119Z</time></trkpt><trkpt lat="41.9137333" lon="12.2082967"><ele>26.0</ele><time>2026-04-04T08:15:26.118Z</time></trkpt><trkpt lat="41.9137733" lon="12.2079283"><ele>25.0</ele><time>2026-04-04T08:15:27.114Z</time></trkpt><trkpt lat="41.913815" lon="12.2075583"><ele>24.0</ele><time>2026-04-04T08:15:28.119Z</time></trkpt><trkpt lat="41.91386" lon="12.2071883"><ele>24.0</ele><time>2026-04-04T08:15:29.113Z</time></trkpt><trkpt lat="41.9139" lon="12.206815"><ele>24.0</ele><time>2026-04-04T08:15:30.115Z</time></trkpt><trkpt lat="41.9139417" lon="12.206445"><ele>23.0</ele><time>2026-04-04T08:15:31.118Z</time></trkpt><trkpt lat="41.9139867" lon="12.2060817"><ele>22.0</ele><time>2026-04-04T08:15:32.117Z</time></trkpt><trkpt lat="41.9140283" lon="12.20572"><ele>22.5</ele><time>2026-04-04T08:15:33.115Z</time></trkpt><trkpt lat="41.9140733" lon="12.20536"><ele>23.0</ele><time>2026-04-04T08:15:34.119Z</time></trkpt><trkpt lat="41.9141183" lon="12.2049967"><ele>21.0</ele><time>2026-04-04T08:15:35.118Z</time></trkpt><trkpt lat="41.9141667" lon="12.2046433"><ele>19.0</ele><time>2026-04-04T08:15:36.117Z</time></trkpt><trkpt lat="41.9142233" lon="12.204305"><ele>17.0</ele><time>2026-04-04T08:15:37.116Z</time></trkpt><trkpt lat="41.9142817" lon="12.2039833"><ele>15.0</ele><time>2026-04-04T08:15:38.114Z</time></trkpt><trkpt lat="41.91434" lon="12.2036967"><ele>15.0</ele><time>2026-04-04T08:15:39.115Z</time></trkpt><trkpt lat="41.9143967" lon="12.20345"><ele>15.0</ele><time>2026-04-04T08:15:40.118Z</time></trkpt><trkpt lat="41.9144517" lon="12.2032367"><ele>15.0</ele><time>2026-04-04T08:15:41.118Z</time></trkpt><trkpt lat="41.9145" lon="12.203045"><ele>14.5</ele><time>2026-04-04T08:15:42.116Z</time></trkpt><trkpt lat="41.9145517" lon="12.2028783"><ele>14.0</ele><time>2026-04-04T08:15:43.12Z</time></trkpt><trkpt lat="41.9146033" lon="12.2027217"><ele>13.5</ele><time>2026-04-04T08:15:44.118Z</time></trkpt><trkpt lat="41.9146567" lon="12.2025617"><ele>13.0</ele><time>2026-04-04T08:15:45.119Z</time></trkpt><trkpt lat="41.91471" lon="12.2024217"><ele>12.999999999999998</ele><time>2026-04-04T08:15:46.119Z</time></trkpt><trkpt lat="41.9147617" lon="12.2022967"><ele>13.0</ele><time>2026-04-04T08:15:47.119Z</time></trkpt><trkpt lat="41.9148117" lon="12.2021983"><ele>13.0</ele><time>2026-04-04T08:15:48.114Z</time></trkpt><trkpt lat="41.9148567" lon="12.2021117"><ele>13.0</ele><time>2026-04-04T08:15:49.118Z</time></trkpt><trkpt lat="41.9149" lon="12.20203"><ele>12.999999999999998</ele><time>2026-04-04T08:15:50.12Z</time></trkpt><trkpt lat="41.91494" lon="12.20195"><ele>13.0</ele><time>2026-04-04T08:15:51.116Z</time></trkpt><trkpt lat="41.9149717" lon="12.2018667"><ele>12.999999999999998</ele><time>2026-04-04T08:15:52.12Z</time></trkpt><trkpt lat="41.9150083" lon="12.2017783"><ele>13.0</ele><time>2026-04-04T08:15:53.118Z</time></trkpt><trkpt lat="41.915055" lon="12.2016817"><ele>13.0</ele><time>2026-04-04T08:15:54.116Z</time></trkpt><trkpt lat="41.9151" lon="12.2015733"><ele>13.0</ele><time>2026-04-04T08:15:55.118Z</time></trkpt><trkpt lat="41.9151533" lon="12.20147"><ele>12.999999999999998</ele><time>2026-04-04T08:15:56.116Z</time></trkpt><trkpt lat="41.9152067" lon="12.2013717"><ele>13.0</ele><time>2026-04-04T08:15:57.12Z</time></trkpt><trkpt lat="41.915255" lon="12.20129"><ele>13.0</ele><time>2026-04-04T08:15:58.118Z</time></trkpt><trkpt lat="41.9153067" lon="12.20121"><ele>13.0</ele><time>2026-04-04T08:15:59.119Z</time></trkpt><trkpt lat="41.9153583" lon="12.2011333"><ele>13.0</ele><time>2026-04-04T08:16:00.115Z</time></trkpt><trkpt lat="41.9154067" lon="12.2010567"><ele>13.0</ele><time>2026-04-04T08:16:01.117Z</time></trkpt><trkpt lat="41.915445" lon="12.20098"><ele>13.0</ele><time>2026-04-04T08:16:02.115Z</time></trkpt><trkpt lat="41.9154867" lon="12.20091"><ele>13.0</ele><time>2026-04-04T08:16:03.12Z</time></trkpt><trkpt lat="41.9155383" lon="12.20084"><ele>13.0</ele><time>2026-04-04T08:16:04.118Z</time></trkpt><trkpt lat="41.9155817" lon="12.2007583"><ele>13.0</ele><time>2026-04-04T08:16:05.116Z</time></trkpt><trkpt lat="41.91564" lon="12.2006583"><ele>13.0</ele><time>2026-04-04T08:16:06.115Z</time></trkpt><trkpt lat="41.915705" lon="12.2005483"><ele>13.0</ele><time>2026-04-04T08:16:07.117Z</time></trkpt><trkpt lat="41.9157767" lon="12.2004383"><ele>13.0</ele><time>2026-04-04T08:16:08.118Z</time></trkpt><trkpt lat="41.9158567" lon="12.2003217"><ele>13.0</ele><time>2026-04-04T08:16:09.119Z</time></trkpt><trkpt lat="41.9159317" lon="12.2002017"><ele>13.75</ele><time>2026-04-04T08:16:10.113Z</time></trkpt><trkpt lat="41.916" lon="12.200075"><ele>14.5</ele><time>2026-04-04T08:16:11.114Z</time></trkpt><trkpt lat="41.9160817" lon="12.1999467"><ele>15.25</ele><time>2026-04-04T08:16:12.119Z</time></trkpt><trkpt lat="41.916155" lon="12.19982"><ele>16.0</ele><time>2026-04-04T08:16:13.119Z</time></trkpt><trkpt lat="41.9162333" lon="12.1996983"><ele>16.0</ele><time>2026-04-04T08:16:14.118Z</time></trkpt><trkpt lat="41.9163183" lon="12.1995667"><ele>16.0</ele><time>2026-04-04T08:16:15.118Z</time></trkpt><trkpt lat="41.9164" lon="12.1994333"><ele>16.0</ele><time>2026-04-04T08:16:16.113Z</time></trkpt><trkpt lat="41.91649" lon="12.1993033"><ele>16.0</ele><time>2026-04-04T08:16:17.114Z</time></trkpt><trkpt lat="41.9165783" lon="12.19917"><ele>16.0</ele><time>2026-04-04T08:16:18.116Z</time></trkpt><trkpt lat="41.9166717" lon="12.1990367"><ele>16.0</ele><time>2026-04-04T08:16:19.12Z</time></trkpt><trkpt lat="41.9167633" lon="12.1989017"><ele>16.0</ele><time>2026-04-04T08:16:20.117Z</time></trkpt><trkpt lat="41.916845" lon="12.1987617"><ele>16.0</ele><time>2026-04-04T08:16:21.118Z</time></trkpt><trkpt lat="41.9169333" lon="12.1986267"><ele>15.75</ele><time>2026-04-04T08:16:22.118Z</time></trkpt><trkpt lat="41.9170317" lon="12.1984883"><ele>15.5</ele><time>2026-04-04T08:16:23.117Z</time></trkpt><trkpt lat="41.917125" lon="12.1983467"><ele>15.25</ele><time>2026-04-04T08:16:24.114Z</time></trkpt><trkpt lat="41.917215" lon="12.198215"><ele>15.0</ele><time>2026-04-04T08:16:25.12Z</time></trkpt><trkpt lat="41.9172883" lon="12.198085"><ele>15.0</ele><time>2026-04-04T08:16:26.118Z</time></trkpt><trkpt lat="41.9173533" lon="12.197985"><ele>15.0</ele><time>2026-04-04T08:16:27.118Z</time></trkpt><trkpt lat="41.9174033" lon="12.1978933"><ele>15.0</ele><time>2026-04-04T08:16:28.113Z</time></trkpt><trkpt lat="41.9174433" lon="12.1978233"><ele>15.0</ele><time>2026-04-04T08:16:29.115Z</time></trkpt><trkpt lat="41.9175117" lon="12.1977083"><ele>15.0</ele><time>2026-04-04T08:16:31.118Z</time></trkpt><trkpt lat="41.9175583" lon="12.1976417"><ele>15.0</ele><time>2026-04-04T08:16:34.118Z</time></trkpt><trkpt lat="41.9176367" lon="12.1975617"><ele>15.2</ele><time>2026-04-04T08:16:41.114Z</time></trkpt><trkpt lat="41.9177317" lon="12.1974467"><ele>15.4</ele><time>2026-04-04T08:16:43.109Z</time></trkpt><trkpt lat="41.9177783" lon="12.1973733"><ele>15.600000000000001</ele><time>2026-04-04T08:16:44.114Z</time></trkpt><trkpt lat="41.9178367" lon="12.197285"><ele>15.8</ele><time>2026-04-04T08:16:45.118Z</time></trkpt><trkpt lat="41.9179033" lon="12.197185"><ele>16.0</ele><time>2026-04-04T08:16:46.117Z</time></trkpt><trkpt lat="41.9179717" lon="12.1970833"><ele>15.5</ele><time>2026-04-04T08:16:47.119Z</time></trkpt><trkpt lat="41.9180483" lon="12.1969683"><ele>15.0</ele><time>2026-04-04T08:16:48.118Z</time></trkpt><trkpt lat="41.91813" lon="12.1968383"><ele>14.5</ele><time>2026-04-04T08:16:49.118Z</time></trkpt><trkpt lat="41.9182183" lon="12.1966983"><ele>14.0</ele><time>2026-04-04T08:16:50.11Z</time></trkpt><trkpt lat="41.9183117" lon="12.1965517"><ele>13.333333333333334</ele><time>2026-04-04T08:16:51.119Z</time></trkpt><trkpt lat="41.918405" lon="12.1963933"><ele>12.666666666666668</ele><time>2026-04-04T08:16:52.116Z</time></trkpt><trkpt lat="41.918515" lon="12.1962317"><ele>12.0</ele><time>2026-04-04T08:16:53.116Z</time></trkpt><trkpt lat="41.91863" lon="12.1960583"><ele>12.0</ele><time>2026-04-04T08:16:54.117Z</time></trkpt><trkpt lat="41.91875" lon="12.1958767"><ele>12.0</ele><time>2026-04-04T08:16:55.117Z</time></trkpt><trkpt lat="41.9188667" lon="12.1956983"><ele>12.0</ele><time>2026-04-04T08:16:56.117Z</time></trkpt><trkpt lat="41.9189933" lon="12.19552"><ele>12.333333333333332</ele><time>2026-04-04T08:16:57.119Z</time></trkpt><trkpt lat="41.91912" lon="12.19533"><ele>12.666666666666666</ele><time>2026-04-04T08:16:58.113Z</time></trkpt><trkpt lat="41.9192467" lon="12.1951333"><ele>13.0</ele><time>2026-04-04T08:16:59.118Z</time></trkpt><trkpt lat="41.9193817" lon="12.194935"><ele>13.0</ele><time>2026-04-04T08:17:00.119Z</time></trkpt><trkpt lat="41.9195167" lon="12.1947383"><ele>13.0</ele><time>2026-04-04T08:17:01.115Z</time></trkpt><trkpt lat="41.9196483" lon="12.194545"><ele>13.0</ele><time>2026-04-04T08:17:02.113Z</time></trkpt><trkpt lat="41.9197817" lon="12.1943467"><ele>13.0</ele><time>2026-04-04T08:17:03.116Z</time></trkpt><trkpt lat="41.919915" lon="12.19415"><ele>13.0</ele><time>2026-04-04T08:17:04.118Z</time></trkpt><trkpt lat="41.9200467" lon="12.193945"><ele>13.0</ele><time>2026-04-04T08:17:05.117Z</time></trkpt><trkpt lat="41.9201817" lon="12.1937417"><ele>12.333333333333332</ele><time>2026-04-04T08:17:06.117Z</time></trkpt><trkpt lat="41.9203167" lon="12.1935333"><ele>11.666666666666666</ele><time>2026-04-04T08:17:07.119Z</time></trkpt><trkpt lat="41.9204533" lon="12.1933267"><ele>11.0</ele><time>2026-04-04T08:17:08.118Z</time></trkpt><trkpt lat="41.920595" lon="12.19312"><ele>11.0</ele><time>2026-04-04T08:17:09.118Z</time></trkpt><trkpt lat="41.9207367" lon="12.19291"><ele>11.0</ele><time>2026-04-04T08:17:10.117Z</time></trkpt><trkpt lat="41.920875" lon="12.1926917"><ele>11.0</ele><time>2026-04-04T08:17:11.116Z</time></trkpt><trkpt lat="41.9210183" lon="12.1924783"><ele>11.666666666666666</ele><time>2026-04-04T08:17:12.118Z</time></trkpt><trkpt lat="41.9211633" lon="12.1922617"><ele>12.333333333333332</ele><time>2026-04-04T08:17:13.111Z</time></trkpt><trkpt lat="41.9213117" lon="12.19204"><ele>13.0</ele><time>2026-04-04T08:17:14.118Z</time></trkpt><trkpt lat="41.9214533" lon="12.1918133"><ele>13.0</ele><time>2026-04-04T08:17:15.117Z</time></trkpt><trkpt lat="41.9215867" lon="12.1915917"><ele>13.0</ele><time>2026-04-04T08:17:16.116Z</time></trkpt><trkpt lat="41.9217183" lon="12.19137"><ele>13.0</ele><time>2026-04-04T08:17:17.114Z</time></trkpt><trkpt lat="41.9218517" lon="12.1911533"><ele>13.666666666666666</ele><time>2026-04-04T08:17:18.113Z</time></trkpt><trkpt lat="41.92198" lon="12.1909483"><ele>14.333333333333332</ele><time>2026-04-04T08:17:19.118Z</time></trkpt><trkpt lat="41.922095" lon="12.1907333"><ele>15.0</ele><time>2026-04-04T08:17:20.117Z</time></trkpt><trkpt lat="41.9222083" lon="12.1905233"><ele>13.333333333333334</ele><time>2026-04-04T08:17:21.116Z</time></trkpt><trkpt lat="41.9223217" lon="12.190305"><ele>11.666666666666668</ele><time>2026-04-04T08:17:22.118Z</time></trkpt><trkpt lat="41.9224317" lon="12.1901067"><ele>10.0</ele><time>2026-04-04T08:17:23.117Z</time></trkpt><trkpt lat="41.9225317" lon="12.18992"><ele>10.333333333333334</ele><time>2026-04-04T08:17:24.117Z</time></trkpt><trkpt lat="41.92263" lon="12.1897367"><ele>10.666666666666666</ele><time>2026-04-04T08:17:25.118Z</time></trkpt><trkpt lat="41.9227283" lon="12.189545"><ele>11.0</ele><time>2026-04-04T08:17:26.116Z</time></trkpt><trkpt lat="41.92283" lon="12.18936"><ele>11.0</ele><time>2026-04-04T08:17:27.119Z</time></trkpt><trkpt lat="41.9229333" lon="12.189175"><ele>11.0</ele><time>2026-04-04T08:17:28.118Z</time></trkpt><trkpt lat="41.92304" lon="12.1889817"><ele>11.0</ele><time>2026-04-04T08:17:29.117Z</time></trkpt><trkpt lat="41.9231467" lon="12.1887683"><ele>10.333333333333332</ele><time>2026-04-04T08:17:30.118Z</time></trkpt><trkpt lat="41.9232483" lon="12.188565"><ele>9.666666666666666</ele><time>2026-04-04T08:17:31.114Z</time></trkpt><trkpt lat="41.9233467" lon="12.1883883"><ele>9.0</ele><time>2026-04-04T08:17:32.12Z</time></trkpt><trkpt lat="41.92344" lon="12.1882117"><ele>10.0</ele><time>2026-04-04T08:17:33.118Z</time></trkpt><trkpt lat="41.9235283" lon="12.188035"><ele>11.0</ele><time>2026-04-04T08:17:34.115Z</time></trkpt><trkpt lat="41.9236167" lon="12.1878567"><ele>12.0</ele><time>2026-04-04T08:17:35.114Z</time></trkpt><trkpt lat="41.9237" lon="12.1876967"><ele>12.0</ele><time>2026-04-04T08:17:36.116Z</time></trkpt><trkpt lat="41.9237833" lon="12.1875383"><ele>12.0</ele><time>2026-04-04T08:17:37.118Z</time></trkpt><trkpt lat="41.9238633" lon="12.1873767"><ele>12.0</ele><time>2026-04-04T08:17:38.118Z</time></trkpt><trkpt lat="41.9239333" lon="12.1872167"><ele>12.0</ele><time>2026-04-04T08:17:39.116Z</time></trkpt><trkpt lat="41.9240083" lon="12.1870633"><ele>12.0</ele><time>2026-04-04T08:17:40.114Z</time></trkpt><trkpt lat="41.9240833" lon="12.18692"><ele>12.0</ele><time>2026-04-04T08:17:41.116Z</time></trkpt><trkpt lat="41.924155" lon="12.1867767"><ele>12.0</ele><time>2026-04-04T08:17:42.111Z</time></trkpt><trkpt lat="41.924225" lon="12.1866433"><ele>12.0</ele><time>2026-04-04T08:17:43.117Z</time></trkpt><trkpt lat="41.9242983" lon="12.1865067"><ele>12.0</ele><time>2026-04-04T08:17:44.117Z</time></trkpt><trkpt lat="41.9243667" lon="12.18637"><ele>12.0</ele><time>2026-04-04T08:17:45.12Z</time></trkpt><trkpt lat="41.92443" lon="12.186245"><ele>12.0</ele><time>2026-04-04T08:17:46.115Z</time></trkpt><trkpt lat="41.9244883" lon="12.1861217"><ele>12.0</ele><time>2026-04-04T08:17:47.115Z</time></trkpt><trkpt lat="41.9245483" lon="12.1860017"><ele>12.0</ele><time>2026-04-04T08:17:48.118Z</time></trkpt><trkpt lat="41.924605" lon="12.1858933"><ele>12.0</ele><time>2026-04-04T08:17:49.118Z</time></trkpt><trkpt lat="41.9246617" lon="12.1857883"><ele>12.0</ele><time>2026-04-04T08:17:50.117Z</time></trkpt><trkpt lat="41.9247133" lon="12.1856867"><ele>12.0</ele><time>2026-04-04T08:17:51.118Z</time></trkpt><trkpt lat="41.9247633" lon="12.1855933"><ele>12.0</ele><time>2026-04-04T08:17:52.116Z</time></trkpt><trkpt lat="41.9248117" lon="12.1854933"><ele>12.0</ele><time>2026-04-04T08:17:53.118Z</time></trkpt><trkpt lat="41.924855" lon="12.1853983"><ele>12.0</ele><time>2026-04-04T08:17:54.119Z</time></trkpt><trkpt lat="41.9248983" lon="12.1853167"><ele>12.0</ele><time>2026-04-04T08:17:55.119Z</time></trkpt><trkpt lat="41.9249417" lon="12.1852483"><ele>12.0</ele><time>2026-04-04T08:17:56.116Z</time></trkpt><trkpt lat="41.9249817" lon="12.18518"><ele>12.0</ele><time>2026-04-04T08:17:57.119Z</time></trkpt><trkpt lat="41.9250533" lon="12.1850433"><ele>12.0</ele><time>2026-04-04T08:17:59.115Z</time></trkpt><trkpt lat="41.92509" lon="12.1849733"><ele>12.6</ele><time>2026-04-04T08:18:00.117Z</time></trkpt><trkpt lat="41.9251283" lon="12.1849033"><ele>13.2</ele><time>2026-04-04T08:18:01.118Z</time></trkpt><trkpt lat="41.9252017" lon="12.1847867"><ele>13.8</ele><time>2026-04-04T08:18:03.119Z</time></trkpt><trkpt lat="41.9252683" lon="12.184665"><ele>14.4</ele><time>2026-04-04T08:18:05.117Z</time></trkpt><trkpt lat="41.9253167" lon="12.1845767"><ele>15.0</ele><time>2026-04-04T08:18:06.118Z</time></trkpt><trkpt lat="41.9253717" lon="12.1844717"><ele>15.0</ele><time>2026-04-04T08:18:07.118Z</time></trkpt><trkpt lat="41.9254417" lon="12.184355"><ele>15.0</ele><time>2026-04-04T08:18:08.116Z</time></trkpt><trkpt lat="41.9255083" lon="12.1842217"><ele>15.0</ele><time>2026-04-04T08:18:09.116Z</time></trkpt><trkpt lat="41.9255767" lon="12.1840717"><ele>15.0</ele><time>2026-04-04T08:18:10.116Z</time></trkpt><trkpt lat="41.925635" lon="12.18392"><ele>15.0</ele><time>2026-04-04T08:18:11.114Z</time></trkpt><trkpt lat="41.9257017" lon="12.18376"><ele>15.0</ele><time>2026-04-04T08:18:12.115Z</time></trkpt><trkpt lat="41.9257717" lon="12.1835933"><ele>15.0</ele><time>2026-04-04T08:18:13.115Z</time></trkpt><trkpt lat="41.9258483" lon="12.183415"><ele>15.0</ele><time>2026-04-04T08:18:14.119Z</time></trkpt><trkpt lat="41.92593" lon="12.1832283"><ele>14.666666666666668</ele><time>2026-04-04T08:18:15.116Z</time></trkpt><trkpt lat="41.9260117" lon="12.183035"><ele>14.333333333333334</ele><time>2026-04-04T08:18:16.118Z</time></trkpt><trkpt lat="41.9260917" lon="12.182845"><ele>14.0</ele><time>2026-04-04T08:18:17.114Z</time></trkpt><trkpt lat="41.9261767" lon="12.1826533"><ele>14.0</ele><time>2026-04-04T08:18:18.114Z</time></trkpt><trkpt lat="41.9262583" lon="12.182455"><ele>14.0</ele><time>2026-04-04T08:18:19.116Z</time></trkpt><trkpt lat="41.926345" lon="12.1822517"><ele>14.0</ele><time>2026-04-04T08:18:20.119Z</time></trkpt><trkpt lat="41.9264367" lon="12.1820367"><ele>13.333333333333334</ele><time>2026-04-04T08:18:21.118Z</time></trkpt><trkpt lat="41.9265283" lon="12.1818233"><ele>12.666666666666668</ele><time>2026-04-04T08:18:22.115Z</time></trkpt><trkpt lat="41.9266167" lon="12.181615"><ele>12.0</ele><time>2026-04-04T08:18:23.116Z</time></trkpt><trkpt lat="41.9267117" lon="12.1814067"><ele>12.0</ele><time>2026-04-04T08:18:24.115Z</time></trkpt><trkpt lat="41.9268033" lon="12.1812"><ele>12.0</ele><time>2026-04-04T08:18:25.119Z</time></trkpt><trkpt lat="41.926895" lon="12.1810117"><ele>12.0</ele><time>2026-04-04T08:18:26.116Z</time></trkpt><trkpt lat="41.9269867" lon="12.1808083"><ele>12.0</ele><time>2026-04-04T08:18:27.116Z</time></trkpt><trkpt lat="41.9270717" lon="12.1806167"><ele>12.0</ele><time>2026-04-04T08:18:28.115Z</time></trkpt><trkpt lat="41.927155" lon="12.1804317"><ele>12.0</ele><time>2026-04-04T08:18:29.115Z</time></trkpt><trkpt lat="41.92724" lon="12.1802433"><ele>12.0</ele><time>2026-04-04T08:18:30.118Z</time></trkpt><trkpt lat="41.9273283" lon="12.180055"><ele>12.0</ele><time>2026-04-04T08:18:31.118Z</time></trkpt><trkpt lat="41.9274233" lon="12.17988"><ele>12.0</ele><time>2026-04-04T08:18:32.111Z</time></trkpt><trkpt lat="41.92752" lon="12.1797017"><ele>12.0</ele><time>2026-04-04T08:18:33.119Z</time></trkpt><trkpt lat="41.92762" lon="12.17952"><ele>12.0</ele><time>2026-04-04T08:18:34.118Z</time></trkpt><trkpt lat="41.927725" lon="12.1793467"><ele>12.0</ele><time>2026-04-04T08:18:35.118Z</time></trkpt><trkpt lat="41.92783" lon="12.1791733"><ele>11.666666666666666</ele><time>2026-04-04T08:18:36.117Z</time></trkpt><trkpt lat="41.9279383" lon="12.1790033"><ele>11.333333333333332</ele><time>2026-04-04T08:18:37.118Z</time></trkpt><trkpt lat="41.9280567" lon="12.1788433"><ele>11.0</ele><time>2026-04-04T08:18:38.116Z</time></trkpt><trkpt lat="41.9281783" lon="12.1786817"><ele>11.0</ele><time>2026-04-04T08:18:39.114Z</time></trkpt><trkpt lat="41.9282983" lon="12.17852"><ele>11.0</ele><time>2026-04-04T08:18:40.112Z</time></trkpt><trkpt lat="41.9284217" lon="12.1783633"><ele>11.0</ele><time>2026-04-04T08:18:41.115Z</time></trkpt><trkpt lat="41.928545" lon="12.17821"><ele>10.666666666666666</ele><time>2026-04-04T08:18:42.118Z</time></trkpt><trkpt lat="41.92867" lon="12.1780617"><ele>10.333333333333334</ele><time>2026-04-04T08:18:43.121Z</time></trkpt><trkpt lat="41.9287967" lon="12.1779167"><ele>10.0</ele><time>2026-04-04T08:18:44.114Z</time></trkpt><trkpt lat="41.92892" lon="12.1777667"><ele>10.0</ele><time>2026-04-04T08:18:45.117Z</time></trkpt><trkpt lat="41.92904" lon="12.1776183"><ele>10.0</ele><time>2026-04-04T08:18:46.116Z</time></trkpt><trkpt lat="41.9291583" lon="12.1774683"><ele>10.0</ele><time>2026-04-04T08:18:47.114Z</time></trkpt><trkpt lat="41.9292783" lon="12.17732"><ele>11.333333333333334</ele><time>2026-04-04T08:18:48.116Z</time></trkpt><trkpt lat="41.9294033" lon="12.17717"><ele>12.666666666666668</ele><time>2026-04-04T08:18:49.114Z</time></trkpt><trkpt lat="41.9295317" lon="12.17702"><ele>14.0</ele><time>2026-04-04T08:18:50.115Z</time></trkpt><trkpt lat="41.9296533" lon="12.17687"><ele>14.0</ele><time>2026-04-04T08:18:51.119Z</time></trkpt><trkpt lat="41.9297683" lon="12.1767233"><ele>14.0</ele><time>2026-04-04T08:18:52.116Z</time></trkpt><trkpt lat="41.9298933" lon="12.1765767"><ele>14.0</ele><time>2026-04-04T08:18:53.111Z</time></trkpt><trkpt lat="41.9300183" lon="12.1764217"><ele>15.0</ele><time>2026-04-04T08:18:54.12Z</time></trkpt><trkpt lat="41.9301417" lon="12.17626"><ele>16.0</ele><time>2026-04-04T08:18:55.117Z</time></trkpt><trkpt lat="41.9302617" lon="12.1760933"><ele>17.0</ele><time>2026-04-04T08:18:56.115Z</time></trkpt><trkpt lat="41.9303783" lon="12.1759167"><ele>17.0</ele><time>2026-04-04T08:18:57.119Z</time></trkpt><trkpt lat="41.9304883" lon="12.1757267"><ele>17.0</ele><time>2026-04-04T08:18:58.12Z</time></trkpt><trkpt lat="41.9305933" lon="12.1755283"><ele>17.0</ele><time>2026-04-04T08:18:59.117Z</time></trkpt><trkpt lat="41.9306917" lon="12.1753283"><ele>17.0</ele><time>2026-04-04T08:19:00.117Z</time></trkpt><trkpt lat="41.9307817" lon="12.1751317"><ele>17.0</ele><time>2026-04-04T08:19:01.119Z</time></trkpt><trkpt lat="41.9308633" lon="12.17493"><ele>17.0</ele><time>2026-04-04T08:19:02.118Z</time></trkpt><trkpt lat="41.9309383" lon="12.1747217"><ele>17.0</ele><time>2026-04-04T08:19:03.118Z</time></trkpt><trkpt lat="41.93101" lon="12.1745083"><ele>17.0</ele><time>2026-04-04T08:19:04.118Z</time></trkpt><trkpt lat="41.9310783" lon="12.1742933"><ele>17.0</ele><time>2026-04-04T08:19:05.116Z</time></trkpt><trkpt lat="41.93114" lon="12.1740683"><ele>16.666666666666668</ele><time>2026-04-04T08:19:06.114Z</time></trkpt><trkpt lat="41.9311967" lon="12.17384"><ele>16.333333333333332</ele><time>2026-04-04T08:19:07.12Z</time></trkpt><trkpt lat="41.931255" lon="12.1736083"><ele>16.0</ele><time>2026-04-04T08:19:08.12Z</time></trkpt><trkpt lat="41.93132" lon="12.17337"><ele>15.0</ele><time>2026-04-04T08:19:09.117Z</time></trkpt><trkpt lat="41.9313883" lon="12.1731317"><ele>14.0</ele><time>2026-04-04T08:19:10.112Z</time></trkpt><trkpt lat="41.9314567" lon="12.1728917"><ele>13.0</ele><time>2026-04-04T08:19:11.119Z</time></trkpt><trkpt lat="41.9315283" lon="12.172645"><ele>13.0</ele><time>2026-04-04T08:19:12.116Z</time></trkpt><trkpt lat="41.9315983" lon="12.1723933"><ele>13.0</ele><time>2026-04-04T08:19:13.118Z</time></trkpt><trkpt lat="41.9316683" lon="12.172145"><ele>13.0</ele><time>2026-04-04T08:19:14.114Z</time></trkpt><trkpt lat="41.9317433" lon="12.1718983"><ele>13.666666666666666</ele><time>2026-04-04T08:19:15.117Z</time></trkpt><trkpt lat="41.931815" lon="12.1716433"><ele>14.333333333333332</ele><time>2026-04-04T08:19:16.117Z</time></trkpt><trkpt lat="41.9318867" lon="12.1713883"><ele>15.0</ele><time>2026-04-04T08:19:17.118Z</time></trkpt><trkpt lat="41.9319583" lon="12.1711383"><ele>15.0</ele><time>2026-04-04T08:19:18.115Z</time></trkpt><trkpt lat="41.9320267" lon="12.170885"><ele>15.0</ele><time>2026-04-04T08:19:19.117Z</time></trkpt><trkpt lat="41.9321" lon="12.17063"><ele>15.0</ele><time>2026-04-04T08:19:20.116Z</time></trkpt><trkpt lat="41.9321717" lon="12.1703783"><ele>14.333333333333332</ele><time>2026-04-04T08:19:21.11Z</time></trkpt><trkpt lat="41.93224" lon="12.1701283"><ele>13.666666666666666</ele><time>2026-04-04T08:19:22.118Z</time></trkpt><trkpt lat="41.9323067" lon="12.1698783"><ele>13.0</ele><time>2026-04-04T08:19:23.115Z</time></trkpt><trkpt lat="41.9323767" lon="12.1696283"><ele>12.333333333333332</ele><time>2026-04-04T08:19:24.116Z</time></trkpt><trkpt lat="41.93244" lon="12.1693867"><ele>11.666666666666666</ele><time>2026-04-04T08:19:25.119Z</time></trkpt><trkpt lat="41.9325033" lon="12.169145"><ele>11.0</ele><time>2026-04-04T08:19:26.118Z</time></trkpt><trkpt lat="41.9325683" lon="12.1689033"><ele>12.333333333333332</ele><time>2026-04-04T08:19:27.119Z</time></trkpt><trkpt lat="41.932635" lon="12.16866"><ele>13.666666666666666</ele><time>2026-04-04T08:19:28.115Z</time></trkpt><trkpt lat="41.9327033" lon="12.168425"><ele>15.0</ele><time>2026-04-04T08:19:29.118Z</time></trkpt><trkpt lat="41.932775" lon="12.16819"><ele>15.0</ele><time>2026-04-04T08:19:30.118Z</time></trkpt><trkpt lat="41.9328417" lon="12.167945"><ele>15.0</ele><time>2026-04-04T08:19:31.119Z</time></trkpt><trkpt lat="41.9329117" lon="12.1677017"><ele>15.0</ele><time>2026-04-04T08:19:32.115Z</time></trkpt><trkpt lat="41.9329767" lon="12.167455"><ele>15.333333333333332</ele><time>2026-04-04T08:19:33.119Z</time></trkpt><trkpt lat="41.93304" lon="12.1672167"><ele>15.666666666666666</ele><time>2026-04-04T08:19:34.115Z</time></trkpt><trkpt lat="41.9331033" lon="12.1669867"><ele>16.0</ele><time>2026-04-04T08:19:35.116Z</time></trkpt><trkpt lat="41.9331633" lon="12.16675"><ele>15.0</ele><time>2026-04-04T08:19:36.117Z</time></trkpt><trkpt lat="41.933225" lon="12.1665083"><ele>14.0</ele><time>2026-04-04T08:19:37.118Z</time></trkpt><trkpt lat="41.9332883" lon="12.1662683"><ele>13.0</ele><time>2026-04-04T08:19:38.114Z</time></trkpt><trkpt lat="41.933345" lon="12.1660233"><ele>13.0</ele><time>2026-04-04T08:19:39.118Z</time></trkpt><trkpt lat="41.9334" lon="12.16579"><ele>13.0</ele><time>2026-04-04T08:19:40.118Z</time></trkpt><trkpt lat="41.9334583" lon="12.1655617"><ele>13.0</ele><time>2026-04-04T08:19:41.118Z</time></trkpt><trkpt lat="41.9335167" lon="12.1653333"><ele>13.0</ele><time>2026-04-04T08:19:42.114Z</time></trkpt><trkpt lat="41.93357" lon="12.165115"><ele>13.0</ele><time>2026-04-04T08:19:43.116Z</time></trkpt><trkpt lat="41.9336233" lon="12.1649083"><ele>13.0</ele><time>2026-04-04T08:19:44.114Z</time></trkpt><trkpt lat="41.9336783" lon="12.164705"><ele>13.0</ele><time>2026-04-04T08:19:45.117Z</time></trkpt><trkpt lat="41.93373" lon="12.1644967"><ele>13.0</ele><time>2026-04-04T08:19:46.113Z</time></trkpt><trkpt lat="41.9337817" lon="12.1642883"><ele>13.0</ele><time>2026-04-04T08:19:47.116Z</time></trkpt><trkpt lat="41.9338367" lon="12.1640767"><ele>13.0</ele><time>2026-04-04T08:19:48.116Z</time></trkpt><trkpt lat="41.93389" lon="12.16387"><ele>13.0</ele><time>2026-04-04T08:19:49.117Z</time></trkpt><trkpt lat="41.93394" lon="12.1636617"><ele>13.0</ele><time>2026-04-04T08:19:50.117Z</time></trkpt><trkpt lat="41.9339933" lon="12.16345"><ele>13.0</ele><time>2026-04-04T08:19:51.114Z</time></trkpt><trkpt lat="41.934045" lon="12.1632383"><ele>13.0</ele><time>2026-04-04T08:19:52.115Z</time></trkpt><trkpt lat="41.934095" lon="12.163025"><ele>13.0</ele><time>2026-04-04T08:19:53.117Z</time></trkpt><trkpt lat="41.9341467" lon="12.1628117"><ele>12.666666666666666</ele><time>2026-04-04T08:19:54.118Z</time></trkpt><trkpt lat="41.934195" lon="12.1626067"><ele>12.333333333333332</ele><time>2026-04-04T08:19:55.116Z</time></trkpt><trkpt lat="41.9342417" lon="12.1623917"><ele>12.0</ele><time>2026-04-04T08:19:56.113Z</time></trkpt><trkpt lat="41.9342883" lon="12.1621933"><ele>12.75</ele><time>2026-04-04T08:19:57.118Z</time></trkpt><trkpt lat="41.934335" lon="12.1620033"><ele>13.5</ele><time>2026-04-04T08:19:58.119Z</time></trkpt><trkpt lat="41.9343817" lon="12.1618117"><ele>14.25</ele><time>2026-04-04T08:19:59.118Z</time></trkpt><trkpt lat="41.934425" lon="12.1616317"><ele>15.0</ele><time>2026-04-04T08:20:00.116Z</time></trkpt><trkpt lat="41.9344667" lon="12.16146"><ele>15.0</ele><time>2026-04-04T08:20:01.121Z</time></trkpt><trkpt lat="41.9345083" lon="12.1612867"><ele>15.0</ele><time>2026-04-04T08:20:02.118Z</time></trkpt><trkpt lat="41.93455" lon="12.161115"><ele>15.0</ele><time>2026-04-04T08:20:03.118Z</time></trkpt><trkpt lat="41.9345933" lon="12.1609367"><ele>15.0</ele><time>2026-04-04T08:20:04.116Z</time></trkpt><trkpt lat="41.93464" lon="12.1607533"><ele>15.0</ele><time>2026-04-04T08:20:05.113Z</time></trkpt><trkpt lat="41.9346817" lon="12.1605683"><ele>15.0</ele><time>2026-04-04T08:20:06.118Z</time></trkpt><trkpt lat="41.934725" lon="12.16039"><ele>15.0</ele><time>2026-04-04T08:20:07.12Z</time></trkpt><trkpt lat="41.9347667" lon="12.16022"><ele>15.0</ele><time>2026-04-04T08:20:08.117Z</time></trkpt><trkpt lat="41.9348067" lon="12.1600367"><ele>14.25</ele><time>2026-04-04T08:20:09.12Z</time></trkpt><trkpt lat="41.9348517" lon="12.159855"><ele>13.5</ele><time>2026-04-04T08:20:10.117Z</time></trkpt><trkpt lat="41.934895" lon="12.1596683"><ele>12.75</ele><time>2026-04-04T08:20:11.115Z</time></trkpt><trkpt lat="41.9349467" lon="12.1594783"><ele>12.0</ele><time>2026-04-04T08:20:12.117Z</time></trkpt><trkpt lat="41.9349917" lon="12.1592867"><ele>12.0</ele><time>2026-04-04T08:20:13.113Z</time></trkpt><trkpt lat="41.93504" lon="12.1590917"><ele>12.0</ele><time>2026-04-04T08:20:14.118Z</time></trkpt><trkpt lat="41.9350883" lon="12.1588933"><ele>12.0</ele><time>2026-04-04T08:20:15.118Z</time></trkpt><trkpt lat="41.9351383" lon="12.158695"><ele>13.0</ele><time>2026-04-04T08:20:16.114Z</time></trkpt><trkpt lat="41.9351883" lon="12.1584883"><ele>14.0</ele><time>2026-04-04T08:20:17.115Z</time></trkpt><trkpt lat="41.9352417" lon="12.1582817"><ele>15.0</ele><time>2026-04-04T08:20:18.115Z</time></trkpt><trkpt lat="41.9352967" lon="12.1580717"><ele>15.0</ele><time>2026-04-04T08:20:19.118Z</time></trkpt><trkpt lat="41.9353517" lon="12.1578583"><ele>15.0</ele><time>2026-04-04T08:20:20.111Z</time></trkpt><trkpt lat="41.9354067" lon="12.1576367"><ele>15.0</ele><time>2026-04-04T08:20:21.115Z</time></trkpt><trkpt lat="41.935465" lon="12.1574133"><ele>14.666666666666668</ele><time>2026-04-04T08:20:22.118Z</time></trkpt><trkpt lat="41.93552" lon="12.1571933"><ele>14.333333333333334</ele><time>2026-04-04T08:20:23.116Z</time></trkpt><trkpt lat="41.9355683" lon="12.15698"><ele>14.0</ele><time>2026-04-04T08:20:24.116Z</time></trkpt><trkpt lat="41.935615" lon="12.156765"><ele>14.0</ele><time>2026-04-04T08:20:25.114Z</time></trkpt><trkpt lat="41.9356483" lon="12.15655"><ele>14.0</ele><time>2026-04-04T08:20:26.117Z</time></trkpt><trkpt lat="41.9356767" lon="12.1563383"><ele>14.0</ele><time>2026-04-04T08:20:27.119Z</time></trkpt><trkpt lat="41.935695" lon="12.1561317"><ele>14.25</ele><time>2026-04-04T08:20:28.12Z</time></trkpt><trkpt lat="41.9356933" lon="12.1559317"><ele>14.5</ele><time>2026-04-04T08:20:29.114Z</time></trkpt><trkpt lat="41.9356883" lon="12.15574"><ele>14.75</ele><time>2026-04-04T08:20:30.116Z</time></trkpt><trkpt lat="41.935675" lon="12.1555583"><ele>15.0</ele><time>2026-04-04T08:20:31.115Z</time></trkpt><trkpt lat="41.9356533" lon="12.1553883"><ele>15.0</ele><time>2026-04-04T08:20:32.11Z</time></trkpt><trkpt lat="41.93563" lon="12.1552383"><ele>15.0</ele><time>2026-04-04T08:20:33.12Z</time></trkpt><trkpt lat="41.9356033" lon="12.1551"><ele>15.0</ele><time>2026-04-04T08:20:34.117Z</time></trkpt><trkpt lat="41.9355783" lon="12.1549783"><ele>15.0</ele><time>2026-04-04T08:20:35.115Z</time></trkpt><trkpt lat="41.9355517" lon="12.1548617"><ele>15.0</ele><time>2026-04-04T08:20:36.112Z</time></trkpt><trkpt lat="41.935525" lon="12.1547533"><ele>15.0</ele><time>2026-04-04T08:20:37.118Z</time></trkpt><trkpt lat="41.9354983" lon="12.1546467"><ele>15.0</ele><time>2026-04-04T08:20:38.123Z</time></trkpt><trkpt lat="41.9354717" lon="12.1545483"><ele>15.0</ele><time>2026-04-04T08:20:39.116Z</time></trkpt><trkpt lat="41.9354467" lon="12.1544533"><ele>15.0</ele><time>2026-04-04T08:20:40.117Z</time></trkpt><trkpt lat="41.9354267" lon="12.1543667"><ele>15.0</ele><time>2026-04-04T08:20:41.117Z</time></trkpt><trkpt lat="41.9353967" lon="12.1542433"><ele>15.0</ele><time>2026-04-04T08:20:43.116Z</time></trkpt><trkpt lat="41.9353767" lon="12.1541617"><ele>15.4</ele><time>2026-04-04T08:20:45.109Z</time></trkpt><trkpt lat="41.9353517" lon="12.154005"><ele>15.8</ele><time>2026-04-04T08:20:59.115Z</time></trkpt><trkpt lat="41.935325" lon="12.1538633"><ele>16.2</ele><time>2026-04-04T08:21:01.117Z</time></trkpt><trkpt lat="41.9353067" lon="12.153775"><ele>16.6</ele><time>2026-04-04T08:21:02.116Z</time></trkpt><trkpt lat="41.9352767" lon="12.153665"><ele>17.0</ele><time>2026-04-04T08:21:03.118Z</time></trkpt><trkpt lat="41.93524" lon="12.1535483"><ele>17.0</ele><time>2026-04-04T08:21:04.117Z</time></trkpt><trkpt lat="41.9352067" lon="12.1534233"><ele>17.0</ele><time>2026-04-04T08:21:05.113Z</time></trkpt><trkpt lat="41.935165" lon="12.1532933"><ele>17.0</ele><time>2026-04-04T08:21:06.117Z</time></trkpt><trkpt lat="41.935125" lon="12.1531467"><ele>17.0</ele><time>2026-04-04T08:21:07.115Z</time></trkpt><trkpt lat="41.9350817" lon="12.1530017"><ele>17.0</ele><time>2026-04-04T08:21:08.108Z</time></trkpt><trkpt lat="41.935035" lon="12.15285"><ele>16.0</ele><time>2026-04-04T08:21:09.117Z</time></trkpt><trkpt lat="41.9349883" lon="12.1526783"><ele>15.0</ele><time>2026-04-04T08:21:10.116Z</time></trkpt><trkpt lat="41.93494" lon="12.1524967"><ele>14.0</ele><time>2026-04-04T08:21:11.117Z</time></trkpt><trkpt lat="41.9348883" lon="12.1523083"><ele>13.0</ele><time>2026-04-04T08:21:12.107Z</time></trkpt><trkpt lat="41.9348367" lon="12.1521217"><ele>13.0</ele><time>2026-04-04T08:21:13.118Z</time></trkpt><trkpt lat="41.934785" lon="12.1519267"><ele>13.0</ele><time>2026-04-04T08:21:14.116Z</time></trkpt><trkpt lat="41.9347317" lon="12.151725"><ele>13.0</ele><time>2026-04-04T08:21:15.118Z</time></trkpt><trkpt lat="41.9346767" lon="12.1515167"><ele>13.0</ele><time>2026-04-04T08:21:16.114Z</time></trkpt><trkpt lat="41.93462" lon="12.151305"><ele>13.0</ele><time>2026-04-04T08:21:17.117Z</time></trkpt><trkpt lat="41.9345583" lon="12.15109"><ele>13.0</ele><time>2026-04-04T08:21:18.113Z</time></trkpt><trkpt lat="41.9344983" lon="12.1508717"><ele>13.333333333333332</ele><time>2026-04-04T08:21:19.115Z</time></trkpt><trkpt lat="41.9344333" lon="12.15065"><ele>13.666666666666668</ele><time>2026-04-04T08:21:20.119Z</time></trkpt><trkpt lat="41.9343667" lon="12.1504267"><ele>14.0</ele><time>2026-04-04T08:21:21.119Z</time></trkpt><trkpt lat="41.934305" lon="12.1502033"><ele>14.0</ele><time>2026-04-04T08:21:22.117Z</time></trkpt><trkpt lat="41.9342417" lon="12.149985"><ele>14.0</ele><time>2026-04-04T08:21:23.116Z</time></trkpt><trkpt lat="41.9341767" lon="12.1497683"><ele>14.0</ele><time>2026-04-04T08:21:24.114Z</time></trkpt><trkpt lat="41.9341083" lon="12.149555"><ele>13.666666666666668</ele><time>2026-04-04T08:21:25.116Z</time></trkpt><trkpt lat="41.9340383" lon="12.149345"><ele>13.333333333333332</ele><time>2026-04-04T08:21:26.118Z</time></trkpt><trkpt lat="41.9339783" lon="12.1491367"><ele>13.0</ele><time>2026-04-04T08:21:27.118Z</time></trkpt><trkpt lat="41.9339317" lon="12.14892"><ele>13.0</ele><time>2026-04-04T08:21:28.115Z</time></trkpt><trkpt lat="41.9338917" lon="12.148695"><ele>13.0</ele><time>2026-04-04T08:21:29.11Z</time></trkpt><trkpt lat="41.9338667" lon="12.1484583"><ele>13.0</ele><time>2026-04-04T08:21:30.113Z</time></trkpt><trkpt lat="41.9338583" lon="12.148215"><ele>13.666666666666666</ele><time>2026-04-04T08:21:31.119Z</time></trkpt><trkpt lat="41.9338717" lon="12.1479667"><ele>14.333333333333332</ele><time>2026-04-04T08:21:32.119Z</time></trkpt><trkpt lat="41.9339033" lon="12.14772"><ele>15.0</ele><time>2026-04-04T08:21:33.119Z</time></trkpt><trkpt lat="41.9339483" lon="12.1474767"><ele>15.0</ele><time>2026-04-04T08:21:34.119Z</time></trkpt><trkpt lat="41.9340083" lon="12.1472317"><ele>15.0</ele><time>2026-04-04T08:21:35.117Z</time></trkpt><trkpt lat="41.9340733" lon="12.1469883"><ele>15.0</ele><time>2026-04-04T08:21:36.119Z</time></trkpt><trkpt lat="41.93414" lon="12.14674"><ele>15.0</ele><time>2026-04-04T08:21:37.117Z</time></trkpt><trkpt lat="41.9342067" lon="12.1464867"><ele>15.0</ele><time>2026-04-04T08:21:38.115Z</time></trkpt><trkpt lat="41.9342733" lon="12.14624"><ele>15.0</ele><time>2026-04-04T08:21:39.122Z</time></trkpt><trkpt lat="41.9343417" lon="12.146"><ele>15.0</ele><time>2026-04-04T08:21:40.118Z</time></trkpt><trkpt lat="41.9344083" lon="12.1457517"><ele>15.0</ele><time>2026-04-04T08:21:41.117Z</time></trkpt><trkpt lat="41.934475" lon="12.1455083"><ele>15.0</ele><time>2026-04-04T08:21:42.118Z</time></trkpt><trkpt lat="41.934545" lon="12.1452667"><ele>15.0</ele><time>2026-04-04T08:21:43.118Z</time></trkpt><trkpt lat="41.9346117" lon="12.1450217"><ele>15.0</ele><time>2026-04-04T08:21:44.116Z</time></trkpt><trkpt lat="41.93468" lon="12.144775"><ele>15.0</ele><time>2026-04-04T08:21:45.117Z</time></trkpt><trkpt lat="41.93475" lon="12.14452"><ele>15.0</ele><time>2026-04-04T08:21:46.117Z</time></trkpt><trkpt lat="41.9348233" lon="12.1442667"><ele>15.0</ele><time>2026-04-04T08:21:47.116Z</time></trkpt><trkpt lat="41.9348967" lon="12.14402"><ele>15.0</ele><time>2026-04-04T08:21:48.117Z</time></trkpt><trkpt lat="41.9349667" lon="12.14378"><ele>15.333333333333332</ele><time>2026-04-04T08:21:49.118Z</time></trkpt><trkpt lat="41.9350383" lon="12.1435417"><ele>15.666666666666666</ele><time>2026-04-04T08:21:50.117Z</time></trkpt><trkpt lat="41.935105" lon="12.1433017"><ele>16.0</ele><time>2026-04-04T08:21:51.118Z</time></trkpt><trkpt lat="41.9351617" lon="12.1430517"><ele>16.0</ele><time>2026-04-04T08:21:52.116Z</time></trkpt><trkpt lat="41.9352133" lon="12.1428033"><ele>16.0</ele><time>2026-04-04T08:21:53.114Z</time></trkpt><trkpt lat="41.9352567" lon="12.1425517"><ele>16.0</ele><time>2026-04-04T08:21:54.116Z</time></trkpt><trkpt lat="41.9353017" lon="12.1422967"><ele>16.0</ele><time>2026-04-04T08:21:55.117Z</time></trkpt><trkpt lat="41.9353333" lon="12.1420417"><ele>16.0</ele><time>2026-04-04T08:21:56.117Z</time></trkpt><trkpt lat="41.9353667" lon="12.1417933"><ele>16.0</ele><time>2026-04-04T08:21:57.119Z</time></trkpt><trkpt lat="41.9353967" lon="12.141545"><ele>16.0</ele><time>2026-04-04T08:21:58.116Z</time></trkpt><trkpt lat="41.9354233" lon="12.1412933"><ele>16.0</ele><time>2026-04-04T08:21:59.115Z</time></trkpt><trkpt lat="41.9354483" lon="12.1410433"><ele>16.0</ele><time>2026-04-04T08:22:00.118Z</time></trkpt><trkpt lat="41.9354733" lon="12.1407967"><ele>15.333333333333332</ele><time>2026-04-04T08:22:01.118Z</time></trkpt><trkpt lat="41.9355" lon="12.14056"><ele>14.666666666666668</ele><time>2026-04-04T08:22:02.115Z</time></trkpt><trkpt lat="41.9355217" lon="12.140335"><ele>14.0</ele><time>2026-04-04T08:22:03.118Z</time></trkpt><trkpt lat="41.9355467" lon="12.1401183"><ele>14.0</ele><time>2026-04-04T08:22:04.12Z</time></trkpt><trkpt lat="41.93557" lon="12.1399017"><ele>14.0</ele><time>2026-04-04T08:22:05.118Z</time></trkpt><trkpt lat="41.9355883" lon="12.1396867"><ele>14.0</ele><time>2026-04-04T08:22:06.117Z</time></trkpt><trkpt lat="41.9356" lon="12.13948"><ele>14.0</ele><time>2026-04-04T08:22:07.118Z</time></trkpt><trkpt lat="41.935615" lon="12.1392717"><ele>14.0</ele><time>2026-04-04T08:22:08.119Z</time></trkpt><trkpt lat="41.935635" lon="12.13906"><ele>14.0</ele><time>2026-04-04T08:22:09.118Z</time></trkpt><trkpt lat="41.9356567" lon="12.1388417"><ele>13.333333333333334</ele><time>2026-04-04T08:22:10.116Z</time></trkpt><trkpt lat="41.93568" lon="12.138625"><ele>12.666666666666668</ele><time>2026-04-04T08:22:11.118Z</time></trkpt><trkpt lat="41.9357" lon="12.1384067"><ele>12.0</ele><time>2026-04-04T08:22:12.117Z</time></trkpt><trkpt lat="41.93572" lon="12.138185"><ele>12.0</ele><time>2026-04-04T08:22:13.121Z</time></trkpt><trkpt lat="41.9357383" lon="12.1379533"><ele>12.0</ele><time>2026-04-04T08:22:14.119Z</time></trkpt><trkpt lat="41.935755" lon="12.13772"><ele>12.0</ele><time>2026-04-04T08:22:15.12Z</time></trkpt><trkpt lat="41.9357783" lon="12.1375017"><ele>12.666666666666668</ele><time>2026-04-04T08:22:16.117Z</time></trkpt><trkpt lat="41.9358017" lon="12.1372817"><ele>13.333333333333334</ele><time>2026-04-04T08:22:17.118Z</time></trkpt><trkpt lat="41.9358267" lon="12.1370633"><ele>14.0</ele><time>2026-04-04T08:22:18.12Z</time></trkpt><trkpt lat="41.9358467" lon="12.1368367"><ele>14.0</ele><time>2026-04-04T08:22:19.115Z</time></trkpt><trkpt lat="41.9358617" lon="12.136605"><ele>14.0</ele><time>2026-04-04T08:22:20.118Z</time></trkpt><trkpt lat="41.9358733" lon="12.1363767"><ele>14.0</ele><time>2026-04-04T08:22:21.121Z</time></trkpt><trkpt lat="41.9358833" lon="12.1361583"><ele>14.0</ele><time>2026-04-04T08:22:22.118Z</time></trkpt><trkpt lat="41.935895" lon="12.1359517"><ele>14.0</ele><time>2026-04-04T08:22:23.119Z</time></trkpt><trkpt lat="41.9359" lon="12.135735"><ele>14.0</ele><time>2026-04-04T08:22:24.123Z</time></trkpt><trkpt lat="41.935905" lon="12.1355117"><ele>14.333333333333334</ele><time>2026-04-04T08:22:25.122Z</time></trkpt><trkpt lat="41.93591" lon="12.135285"><ele>14.666666666666668</ele><time>2026-04-04T08:22:26.119Z</time></trkpt><trkpt lat="41.93591" lon="12.135045"><ele>15.0</ele><time>2026-04-04T08:22:27.12Z</time></trkpt><trkpt lat="41.9359183" lon="12.1347933"><ele>16.333333333333332</ele><time>2026-04-04T08:22:28.118Z</time></trkpt><trkpt lat="41.9359383" lon="12.1345367"><ele>17.666666666666664</ele><time>2026-04-04T08:22:29.116Z</time></trkpt><trkpt lat="41.9359567" lon="12.1342717"><ele>19.0</ele><time>2026-04-04T08:22:30.117Z</time></trkpt><trkpt lat="41.93597" lon="12.133995"><ele>19.333333333333332</ele><time>2026-04-04T08:22:31.118Z</time></trkpt><trkpt lat="41.93598" lon="12.133705"><ele>19.666666666666668</ele><time>2026-04-04T08:22:32.117Z</time></trkpt><trkpt lat="41.9359883" lon="12.1334167"><ele>20.0</ele><time>2026-04-04T08:22:33.119Z</time></trkpt><trkpt lat="41.9359983" lon="12.1331417"><ele>21.0</ele><time>2026-04-04T08:22:34.121Z</time></trkpt><trkpt lat="41.9360167" lon="12.1328717"><ele>22.0</ele><time>2026-04-04T08:22:35.113Z</time></trkpt><trkpt lat="41.93603" lon="12.1326033"><ele>23.0</ele><time>2026-04-04T08:22:36.119Z</time></trkpt><trkpt lat="41.93605" lon="12.1323333"><ele>23.333333333333336</ele><time>2026-04-04T08:22:37.117Z</time></trkpt><trkpt lat="41.9360617" lon="12.1320583"><ele>23.666666666666668</ele><time>2026-04-04T08:22:38.119Z</time></trkpt><trkpt lat="41.9360667" lon="12.1317817"><ele>24.0</ele><time>2026-04-04T08:22:39.119Z</time></trkpt><trkpt lat="41.9360683" lon="12.131505"><ele>24.666666666666664</ele><time>2026-04-04T08:22:40.118Z</time></trkpt><trkpt lat="41.9360633" lon="12.1312283"><ele>25.333333333333332</ele><time>2026-04-04T08:22:41.11Z</time></trkpt><trkpt lat="41.9360617" lon="12.1309467"><ele>26.0</ele><time>2026-04-04T08:22:42.12Z</time></trkpt><trkpt lat="41.9360583" lon="12.1306633"><ele>26.0</ele><time>2026-04-04T08:22:43.118Z</time></trkpt><trkpt lat="41.93605" lon="12.1303783"><ele>26.0</ele><time>2026-04-04T08:22:44.117Z</time></trkpt><trkpt lat="41.9360433" lon="12.1300933"><ele>26.0</ele><time>2026-04-04T08:22:45.118Z</time></trkpt><trkpt lat="41.9360283" lon="12.1298033"><ele>25.666666666666664</ele><time>2026-04-04T08:22:46.118Z</time></trkpt><trkpt lat="41.93601" lon="12.1295117"><ele>25.333333333333336</ele><time>2026-04-04T08:22:47.11Z</time></trkpt><trkpt lat="41.93598" lon="12.12922"><ele>25.0</ele><time>2026-04-04T08:22:48.117Z</time></trkpt><trkpt lat="41.9359483" lon="12.1289317"><ele>24.333333333333336</ele><time>2026-04-04T08:22:49.115Z</time></trkpt><trkpt lat="41.9359183" lon="12.128645"><ele>23.666666666666668</ele><time>2026-04-04T08:22:50.116Z</time></trkpt><trkpt lat="41.9358883" lon="12.12836"><ele>23.0</ele><time>2026-04-04T08:22:51.117Z</time></trkpt><trkpt lat="41.9358633" lon="12.128075"><ele>22.666666666666668</ele><time>2026-04-04T08:22:52.115Z</time></trkpt><trkpt lat="41.9358333" lon="12.127795"><ele>22.333333333333332</ele><time>2026-04-04T08:22:53.118Z</time></trkpt><trkpt lat="41.9358033" lon="12.1275083"><ele>22.0</ele><time>2026-04-04T08:22:54.113Z</time></trkpt><trkpt lat="41.9357733" lon="12.127225"><ele>21.0</ele><time>2026-04-04T08:22:55.118Z</time></trkpt><trkpt lat="41.93574" lon="12.1269533"><ele>20.0</ele><time>2026-04-04T08:22:56.117Z</time></trkpt><trkpt lat="41.9357033" lon="12.12669"><ele>19.0</ele><time>2026-04-04T08:22:57.119Z</time></trkpt><trkpt lat="41.93566" lon="12.12643"><ele>18.333333333333332</ele><time>2026-04-04T08:22:58.116Z</time></trkpt><trkpt lat="41.9356217" lon="12.12616"><ele>17.666666666666668</ele><time>2026-04-04T08:22:59.116Z</time></trkpt><trkpt lat="41.9355883" lon="12.125885"><ele>17.0</ele><time>2026-04-04T08:23:00.119Z</time></trkpt><trkpt lat="41.935555" lon="12.1256083"><ele>15.666666666666668</ele><time>2026-04-04T08:23:01.118Z</time></trkpt><trkpt lat="41.9355233" lon="12.1253433"><ele>14.333333333333332</ele><time>2026-04-04T08:23:02.115Z</time></trkpt><trkpt lat="41.93549" lon="12.125085"><ele>13.0</ele><time>2026-04-04T08:23:03.119Z</time></trkpt><trkpt lat="41.935455" lon="12.1248283"><ele>12.666666666666666</ele><time>2026-04-04T08:23:04.118Z</time></trkpt><trkpt lat="41.9354267" lon="12.1245783"><ele>12.333333333333332</ele><time>2026-04-04T08:23:05.117Z</time></trkpt><trkpt lat="41.9354" lon="12.1243233"><ele>12.0</ele><time>2026-04-04T08:23:06.115Z</time></trkpt><trkpt lat="41.9353667" lon="12.1240633"><ele>11.666666666666666</ele><time>2026-04-04T08:23:07.116Z</time></trkpt><trkpt lat="41.93533" lon="12.1237967"><ele>11.333333333333332</ele><time>2026-04-04T08:23:08.118Z</time></trkpt><trkpt lat="41.935295" lon="12.123525"><ele>11.0</ele><time>2026-04-04T08:23:09.117Z</time></trkpt><trkpt lat="41.9352583" lon="12.1232483"><ele>11.0</ele><time>2026-04-04T08:23:10.119Z</time></trkpt><trkpt lat="41.9352283" lon="12.12296"><ele>11.0</ele><time>2026-04-04T08:23:11.114Z</time></trkpt><trkpt lat="41.9352033" lon="12.1226667"><ele>11.0</ele><time>2026-04-04T08:23:12.117Z</time></trkpt><trkpt lat="41.9351717" lon="12.1223683"><ele>10.5</ele><time>2026-04-04T08:23:13.116Z</time></trkpt><trkpt lat="41.9351383" lon="12.1220633"><ele>10.0</ele><time>2026-04-04T08:23:14.117Z</time></trkpt><trkpt lat="41.935105" lon="12.1217583"><ele>10.0</ele><time>2026-04-04T08:23:15.118Z</time></trkpt><trkpt lat="41.935065" lon="12.12145"><ele>10.0</ele><time>2026-04-04T08:23:16.118Z</time></trkpt><trkpt lat="41.9350233" lon="12.12114"><ele>10.0</ele><time>2026-04-04T08:23:17.118Z</time></trkpt><trkpt lat="41.934985" lon="12.12083"><ele>10.0</ele><time>2026-04-04T08:23:18.117Z</time></trkpt><trkpt lat="41.9349467" lon="12.1205183"><ele>9.0</ele><time>2026-04-04T08:23:19.119Z</time></trkpt><trkpt lat="41.9349083" lon="12.1202033"><ele>8.0</ele><time>2026-04-04T08:23:20.118Z</time></trkpt><trkpt lat="41.9348633" lon="12.1198883"><ele>8.0</ele><time>2026-04-04T08:23:21.117Z</time></trkpt><trkpt lat="41.9348267" lon="12.1195833"><ele>8.0</ele><time>2026-04-04T08:23:22.115Z</time></trkpt><trkpt lat="41.934795" lon="12.11929"><ele>8.666666666666666</ele><time>2026-04-04T08:23:23.114Z</time></trkpt><trkpt lat="41.934765" lon="12.1190133"><ele>9.333333333333334</ele><time>2026-04-04T08:23:24.118Z</time></trkpt><trkpt lat="41.9347333" lon="12.118755"><ele>10.0</ele><time>2026-04-04T08:23:25.119Z</time></trkpt><trkpt lat="41.9347117" lon="12.1185067"><ele>10.0</ele><time>2026-04-04T08:23:26.117Z</time></trkpt><trkpt lat="41.9347033" lon="12.118265"><ele>10.0</ele><time>2026-04-04T08:23:27.121Z</time></trkpt><trkpt lat="41.934705" lon="12.118015"><ele>10.0</ele><time>2026-04-04T08:23:28.115Z</time></trkpt><trkpt lat="41.9347217" lon="12.11775"><ele>10.0</ele><time>2026-04-04T08:23:29.114Z</time></trkpt><trkpt lat="41.9347517" lon="12.117485"><ele>10.0</ele><time>2026-04-04T08:23:30.119Z</time></trkpt><trkpt lat="41.9347967" lon="12.1172183"><ele>10.0</ele><time>2026-04-04T08:23:31.115Z</time></trkpt><trkpt lat="41.934855" lon="12.11695"><ele>10.0</ele><time>2026-04-04T08:23:32.116Z</time></trkpt><trkpt lat="41.9349217" lon="12.1166833"><ele>10.0</ele><time>2026-04-04T08:23:33.118Z</time></trkpt><trkpt lat="41.9349917" lon="12.1164117"><ele>10.0</ele><time>2026-04-04T08:23:34.115Z</time></trkpt><trkpt lat="41.9350633" lon="12.116135"><ele>9.333333333333334</ele><time>2026-04-04T08:23:35.117Z</time></trkpt><trkpt lat="41.93513" lon="12.1158517"><ele>8.666666666666666</ele><time>2026-04-04T08:23:36.117Z</time></trkpt><trkpt lat="41.9352" lon="12.1155667"><ele>8.0</ele><time>2026-04-04T08:23:37.111Z</time></trkpt><trkpt lat="41.935275" lon="12.115285"><ele>8.0</ele><time>2026-04-04T08:23:38.114Z</time></trkpt><trkpt lat="41.9353517" lon="12.1150033"><ele>8.0</ele><time>2026-04-04T08:23:39.116Z</time></trkpt><trkpt lat="41.9354333" lon="12.114715"><ele>7.5</ele><time>2026-04-04T08:23:40.117Z</time></trkpt><trkpt lat="41.9355183" lon="12.114425"><ele>7.0</ele><time>2026-04-04T08:23:41.117Z</time></trkpt><trkpt lat="41.9356" lon="12.114135"><ele>8.0</ele><time>2026-04-04T08:23:42.118Z</time></trkpt><trkpt lat="41.9356817" lon="12.113845"><ele>9.0</ele><time>2026-04-04T08:23:43.119Z</time></trkpt><trkpt lat="41.9357633" lon="12.11355"><ele>9.0</ele><time>2026-04-04T08:23:44.119Z</time></trkpt><trkpt lat="41.9358433" lon="12.1132617"><ele>9.0</ele><time>2026-04-04T08:23:45.119Z</time></trkpt><trkpt lat="41.93592" lon="12.11298"><ele>8.666666666666666</ele><time>2026-04-04T08:23:46.116Z</time></trkpt><trkpt lat="41.935995" lon="12.1127133"><ele>8.333333333333332</ele><time>2026-04-04T08:23:47.121Z</time></trkpt><trkpt lat="41.9360667" lon="12.1124583"><ele>8.0</ele><time>2026-04-04T08:23:48.118Z</time></trkpt><trkpt lat="41.9361367" lon="12.1122083"><ele>8.0</ele><time>2026-04-04T08:23:49.116Z</time></trkpt><trkpt lat="41.9362067" lon="12.11195"><ele>8.0</ele><time>2026-04-04T08:23:50.116Z</time></trkpt><trkpt lat="41.9362783" lon="12.1116917"><ele>8.0</ele><time>2026-04-04T08:23:51.114Z</time></trkpt><trkpt lat="41.93635" lon="12.1114617"><ele>8.666666666666666</ele><time>2026-04-04T08:23:52.119Z</time></trkpt><trkpt lat="41.93642" lon="12.1112267"><ele>9.333333333333334</ele><time>2026-04-04T08:23:53.119Z</time></trkpt><trkpt lat="41.9364817" lon="12.11098"><ele>10.0</ele><time>2026-04-04T08:23:54.116Z</time></trkpt><trkpt lat="41.9365517" lon="12.1107467"><ele>9.666666666666668</ele><time>2026-04-04T08:23:55.118Z</time></trkpt><trkpt lat="41.9366233" lon="12.1105133"><ele>9.333333333333334</ele><time>2026-04-04T08:23:56.118Z</time></trkpt><trkpt lat="41.9366983" lon="12.1102767"><ele>9.0</ele><time>2026-04-04T08:23:57.119Z</time></trkpt><trkpt lat="41.9367717" lon="12.1100333"><ele>9.333333333333334</ele><time>2026-04-04T08:23:58.115Z</time></trkpt><trkpt lat="41.9368433" lon="12.1097817"><ele>9.666666666666668</ele><time>2026-04-04T08:23:59.118Z</time></trkpt><trkpt lat="41.9369233" lon="12.1095233"><ele>10.0</ele><time>2026-04-04T08:24:00.115Z</time></trkpt><trkpt lat="41.9370033" lon="12.1092767"><ele>10.333333333333334</ele><time>2026-04-04T08:24:01.118Z</time></trkpt><trkpt lat="41.9370917" lon="12.10904"><ele>10.666666666666666</ele><time>2026-04-04T08:24:02.116Z</time></trkpt><trkpt lat="41.9371783" lon="12.108805"><ele>11.0</ele><time>2026-04-04T08:24:03.119Z</time></trkpt><trkpt lat="41.9372767" lon="12.1085633"><ele>11.0</ele><time>2026-04-04T08:24:04.117Z</time></trkpt><trkpt lat="41.9373767" lon="12.1083217"><ele>11.0</ele><time>2026-04-04T08:24:05.117Z</time></trkpt><trkpt lat="41.9374767" lon="12.108085"><ele>11.0</ele><time>2026-04-04T08:24:06.114Z</time></trkpt><trkpt lat="41.9375733" lon="12.1078583"><ele>11.0</ele><time>2026-04-04T08:24:07.121Z</time></trkpt><trkpt lat="41.9376717" lon="12.10763"><ele>11.0</ele><time>2026-04-04T08:24:08.116Z</time></trkpt><trkpt lat="41.9377733" lon="12.1073917"><ele>11.0</ele><time>2026-04-04T08:24:09.112Z</time></trkpt><trkpt lat="41.9378767" lon="12.1071483"><ele>10.666666666666666</ele><time>2026-04-04T08:24:10.117Z</time></trkpt><trkpt lat="41.9379817" lon="12.1068983"><ele>10.333333333333334</ele><time>2026-04-04T08:24:11.118Z</time></trkpt><trkpt lat="41.9380967" lon="12.1066533"><ele>10.0</ele><time>2026-04-04T08:24:12.116Z</time></trkpt><trkpt lat="41.9382067" lon="12.10641"><ele>10.0</ele><time>2026-04-04T08:24:13.119Z</time></trkpt><trkpt lat="41.9383083" lon="12.10617"><ele>10.0</ele><time>2026-04-04T08:24:14.117Z</time></trkpt><trkpt lat="41.9384083" lon="12.1059417"><ele>10.0</ele><time>2026-04-04T08:24:15.119Z</time></trkpt><trkpt lat="41.9385033" lon="12.1057217"><ele>10.666666666666668</ele><time>2026-04-04T08:24:16.119Z</time></trkpt><trkpt lat="41.9385933" lon="12.1055117"><ele>11.333333333333334</ele><time>2026-04-04T08:24:17.113Z</time></trkpt><trkpt lat="41.938685" lon="12.1053"><ele>12.0</ele><time>2026-04-04T08:24:18.115Z</time></trkpt><trkpt lat="41.938775" lon="12.105095"><ele>11.666666666666666</ele><time>2026-04-04T08:24:19.119Z</time></trkpt><trkpt lat="41.9388583" lon="12.1048867"><ele>11.333333333333332</ele><time>2026-04-04T08:24:20.115Z</time></trkpt><trkpt lat="41.938945" lon="12.10469"><ele>11.0</ele><time>2026-04-04T08:24:21.117Z</time></trkpt><trkpt lat="41.93903" lon="12.1045033"><ele>11.0</ele><time>2026-04-04T08:24:22.117Z</time></trkpt><trkpt lat="41.9391083" lon="12.104325"><ele>11.0</ele><time>2026-04-04T08:24:23.119Z</time></trkpt><trkpt lat="41.9391817" lon="12.10416"><ele>11.0</ele><time>2026-04-04T08:24:24.117Z</time></trkpt><trkpt lat="41.9392533" lon="12.1040017"><ele>11.0</ele><time>2026-04-04T08:24:25.119Z</time></trkpt><trkpt lat="41.9393233" lon="12.1038483"><ele>11.0</ele><time>2026-04-04T08:24:26.117Z</time></trkpt><trkpt lat="41.9393933" lon="12.1037017"><ele>11.0</ele><time>2026-04-04T08:24:27.116Z</time></trkpt><trkpt lat="41.9394633" lon="12.1035533"><ele>11.0</ele><time>2026-04-04T08:24:28.115Z</time></trkpt><trkpt lat="41.9395383" lon="12.103405"><ele>11.0</ele><time>2026-04-04T08:24:29.115Z</time></trkpt><trkpt lat="41.9396117" lon="12.103255"><ele>11.0</ele><time>2026-04-04T08:24:30.118Z</time></trkpt><trkpt lat="41.939685" lon="12.103105"><ele>11.0</ele><time>2026-04-04T08:24:31.117Z</time></trkpt><trkpt lat="41.9397617" lon="12.10296"><ele>11.0</ele><time>2026-04-04T08:24:32.117Z</time></trkpt><trkpt lat="41.9398383" lon="12.10282"><ele>11.0</ele><time>2026-04-04T08:24:33.119Z</time></trkpt><trkpt lat="41.9399183" lon="12.102685"><ele>11.0</ele><time>2026-04-04T08:24:34.117Z</time></trkpt><trkpt lat="41.9400133" lon="12.1025467"><ele>11.0</ele><time>2026-04-04T08:24:35.117Z</time></trkpt><trkpt lat="41.9401133" lon="12.102405"><ele>11.0</ele><time>2026-04-04T08:24:36.118Z</time></trkpt><trkpt lat="41.9402217" lon="12.1022633"><ele>11.0</ele><time>2026-04-04T08:24:37.115Z</time></trkpt><trkpt lat="41.9403367" lon="12.1021217"><ele>10.333333333333332</ele><time>2026-04-04T08:24:38.119Z</time></trkpt><trkpt lat="41.9404633" lon="12.1019867"><ele>9.666666666666666</ele><time>2026-04-04T08:24:39.117Z</time></trkpt><trkpt lat="41.9405967" lon="12.101855"><ele>9.0</ele><time>2026-04-04T08:24:40.118Z</time></trkpt><trkpt lat="41.9407417" lon="12.1017383"><ele>9.666666666666666</ele><time>2026-04-04T08:24:41.119Z</time></trkpt><trkpt lat="41.94089" lon="12.101635"><ele>10.333333333333332</ele><time>2026-04-04T08:24:42.118Z</time></trkpt><trkpt lat="41.94104" lon="12.1015417"><ele>11.0</ele><time>2026-04-04T08:24:43.117Z</time></trkpt><trkpt lat="41.941195" lon="12.1014683"><ele>11.0</ele><time>2026-04-04T08:24:44.114Z</time></trkpt><trkpt lat="41.94135" lon="12.1013833"><ele>11.0</ele><time>2026-04-04T08:24:45.119Z</time></trkpt><trkpt lat="41.9415133" lon="12.1013217"><ele>11.0</ele><time>2026-04-04T08:24:46.12Z</time></trkpt><trkpt lat="41.9416783" lon="12.1012717"><ele>12.666666666666666</ele><time>2026-04-04T08:24:47.115Z</time></trkpt><trkpt lat="41.9418367" lon="12.1012367"><ele>14.333333333333332</ele><time>2026-04-04T08:24:48.119Z</time></trkpt><trkpt lat="41.9419917" lon="12.1012117"><ele>16.0</ele><time>2026-04-04T08:24:49.12Z</time></trkpt><trkpt lat="41.9421483" lon="12.1011883"><ele>16.0</ele><time>2026-04-04T08:24:50.113Z</time></trkpt><trkpt lat="41.942305" lon="12.1011733"><ele>16.0</ele><time>2026-04-04T08:24:51.117Z</time></trkpt><trkpt lat="41.94246" lon="12.1011483"><ele>16.0</ele><time>2026-04-04T08:24:52.118Z</time></trkpt><trkpt lat="41.9426167" lon="12.1011267"><ele>16.333333333333332</ele><time>2026-04-04T08:24:53.119Z</time></trkpt><trkpt lat="41.9427733" lon="12.1011133"><ele>16.666666666666668</ele><time>2026-04-04T08:24:54.118Z</time></trkpt><trkpt lat="41.9429367" lon="12.1010867"><ele>17.0</ele><time>2026-04-04T08:24:55.117Z</time></trkpt><trkpt lat="41.943105" lon="12.1010633"><ele>17.0</ele><time>2026-04-04T08:24:56.116Z</time></trkpt><trkpt lat="41.94328" lon="12.1010417"><ele>17.0</ele><time>2026-04-04T08:24:57.115Z</time></trkpt><trkpt lat="41.9434533" lon="12.1010067"><ele>17.0</ele><time>2026-04-04T08:24:58.118Z</time></trkpt><trkpt lat="41.94363" lon="12.1009767"><ele>17.333333333333336</ele><time>2026-04-04T08:24:59.115Z</time></trkpt><trkpt lat="41.9438117" lon="12.1009483"><ele>17.666666666666668</ele><time>2026-04-04T08:25:00.115Z</time></trkpt><trkpt lat="41.943995" lon="12.1009233"><ele>18.0</ele><time>2026-04-04T08:25:01.118Z</time></trkpt><trkpt lat="41.9441833" lon="12.1008933"><ele>17.0</ele><time>2026-04-04T08:25:02.119Z</time></trkpt><trkpt lat="41.9443767" lon="12.100865"><ele>16.0</ele><time>2026-04-04T08:25:03.12Z</time></trkpt><trkpt lat="41.9445733" lon="12.1008367"><ele>15.0</ele><time>2026-04-04T08:25:04.118Z</time></trkpt><trkpt lat="41.9447667" lon="12.1008067"><ele>15.0</ele><time>2026-04-04T08:25:05.116Z</time></trkpt><trkpt lat="41.9449567" lon="12.1007867"><ele>15.0</ele><time>2026-04-04T08:25:06.119Z</time></trkpt><trkpt lat="41.9451467" lon="12.1007683"><ele>15.0</ele><time>2026-04-04T08:25:07.115Z</time></trkpt><trkpt lat="41.9453433" lon="12.1007417"><ele>15.0</ele><time>2026-04-04T08:25:08.111Z</time></trkpt><trkpt lat="41.9455283" lon="12.1007167"><ele>15.0</ele><time>2026-04-04T08:25:09.115Z</time></trkpt><trkpt lat="41.945715" lon="12.1006933"><ele>15.0</ele><time>2026-04-04T08:25:10.117Z</time></trkpt><trkpt lat="41.945895" lon="12.1006683"><ele>14.333333333333332</ele><time>2026-04-04T08:25:11.113Z</time></trkpt><trkpt lat="41.946085" lon="12.1006433"><ele>13.666666666666666</ele><time>2026-04-04T08:25:12.118Z</time></trkpt><trkpt lat="41.9462783" lon="12.1006167"><ele>13.0</ele><time>2026-04-04T08:25:13.116Z</time></trkpt><trkpt lat="41.946475" lon="12.1005933"><ele>13.0</ele><time>2026-04-04T08:25:14.116Z</time></trkpt><trkpt lat="41.9466683" lon="12.1005733"><ele>13.0</ele><time>2026-04-04T08:25:15.117Z</time></trkpt><trkpt lat="41.9468633" lon="12.1005533"><ele>13.0</ele><time>2026-04-04T08:25:16.112Z</time></trkpt><trkpt lat="41.9470533" lon="12.1005317"><ele>13.333333333333332</ele><time>2026-04-04T08:25:17.116Z</time></trkpt><trkpt lat="41.94724" lon="12.1004967"><ele>13.666666666666668</ele><time>2026-04-04T08:25:18.117Z</time></trkpt><trkpt lat="41.947425" lon="12.1004783"><ele>14.0</ele><time>2026-04-04T08:25:19.119Z</time></trkpt><trkpt lat="41.9476033" lon="12.1004483"><ele>15.0</ele><time>2026-04-04T08:25:20.119Z</time></trkpt><trkpt lat="41.9477783" lon="12.1004267"><ele>16.0</ele><time>2026-04-04T08:25:21.117Z</time></trkpt><trkpt lat="41.9479533" lon="12.1003967"><ele>17.0</ele><time>2026-04-04T08:25:22.118Z</time></trkpt><trkpt lat="41.9481233" lon="12.1003733"><ele>17.0</ele><time>2026-04-04T08:25:23.118Z</time></trkpt><trkpt lat="41.9483017" lon="12.1003517"><ele>17.0</ele><time>2026-04-04T08:25:24.119Z</time></trkpt><trkpt lat="41.9484833" lon="12.10033"><ele>17.0</ele><time>2026-04-04T08:25:25.118Z</time></trkpt><trkpt lat="41.9486683" lon="12.1002967"><ele>17.0</ele><time>2026-04-04T08:25:26.117Z</time></trkpt><trkpt lat="41.9488533" lon="12.1002733"><ele>17.0</ele><time>2026-04-04T08:25:27.117Z</time></trkpt><trkpt lat="41.9490333" lon="12.1002567"><ele>17.0</ele><time>2026-04-04T08:25:28.117Z</time></trkpt><trkpt lat="41.9492167" lon="12.1002317"><ele>17.0</ele><time>2026-04-04T08:25:29.116Z</time></trkpt><trkpt lat="41.9493967" lon="12.100205"><ele>17.0</ele><time>2026-04-04T08:25:30.12Z</time></trkpt><trkpt lat="41.9495783" lon="12.1001833"><ele>17.0</ele><time>2026-04-04T08:25:31.113Z</time></trkpt><trkpt lat="41.9497617" lon="12.100165"><ele>17.0</ele><time>2026-04-04T08:25:32.118Z</time></trkpt><trkpt lat="41.9499383" lon="12.10014"><ele>17.0</ele><time>2026-04-04T08:25:33.119Z</time></trkpt><trkpt lat="41.9501133" lon="12.100115"><ele>17.0</ele><time>2026-04-04T08:25:34.116Z</time></trkpt><trkpt lat="41.95029" lon="12.1000883"><ele>16.666666666666668</ele><time>2026-04-04T08:25:35.118Z</time></trkpt><trkpt lat="41.9504733" lon="12.1000633"><ele>16.333333333333332</ele><time>2026-04-04T08:25:36.119Z</time></trkpt><trkpt lat="41.95066" lon="12.1000433"><ele>16.0</ele><time>2026-04-04T08:25:37.118Z</time></trkpt><trkpt lat="41.9508467" lon="12.1000217"><ele>16.333333333333332</ele><time>2026-04-04T08:25:38.118Z</time></trkpt><trkpt lat="41.951035" lon="12.1"><ele>16.666666666666668</ele><time>2026-04-04T08:25:39.114Z</time></trkpt><trkpt lat="41.951225" lon="12.0999767"><ele>17.0</ele><time>2026-04-04T08:25:40.117Z</time></trkpt><trkpt lat="41.9514217" lon="12.0999467"><ele>17.0</ele><time>2026-04-04T08:25:41.115Z</time></trkpt><trkpt lat="41.9516167" lon="12.099925"><ele>17.0</ele><time>2026-04-04T08:25:42.116Z</time></trkpt><trkpt lat="41.951805" lon="12.0998983"><ele>17.0</ele><time>2026-04-04T08:25:43.118Z</time></trkpt><trkpt lat="41.9519917" lon="12.0998733"><ele>16.333333333333336</ele><time>2026-04-04T08:25:44.119Z</time></trkpt><trkpt lat="41.95218" lon="12.0998517"><ele>15.666666666666668</ele><time>2026-04-04T08:25:45.109Z</time></trkpt><trkpt lat="41.9523667" lon="12.0998367"><ele>15.0</ele><time>2026-04-04T08:25:46.116Z</time></trkpt><trkpt lat="41.95255" lon="12.09981"><ele>15.0</ele><time>2026-04-04T08:25:47.116Z</time></trkpt><trkpt lat="41.9527333" lon="12.099785"><ele>15.0</ele><time>2026-04-04T08:25:48.118Z</time></trkpt><trkpt lat="41.9529117" lon="12.099765"><ele>15.0</ele><time>2026-04-04T08:25:49.117Z</time></trkpt><trkpt lat="41.9530917" lon="12.099745"><ele>15.0</ele><time>2026-04-04T08:25:50.114Z</time></trkpt><trkpt lat="41.95327" lon="12.0997267"><ele>15.0</ele><time>2026-04-04T08:25:51.118Z</time></trkpt><trkpt lat="41.95345" lon="12.0997033"><ele>15.0</ele><time>2026-04-04T08:25:52.114Z</time></trkpt><trkpt lat="41.9536217" lon="12.0996817"><ele>15.666666666666668</ele><time>2026-04-04T08:25:53.118Z</time></trkpt><trkpt lat="41.9537867" lon="12.0996583"><ele>16.333333333333336</ele><time>2026-04-04T08:25:54.117Z</time></trkpt><trkpt lat="41.95394" lon="12.0996417"><ele>17.0</ele><time>2026-04-04T08:25:55.117Z</time></trkpt><trkpt lat="41.9540883" lon="12.0996233"><ele>17.75</ele><time>2026-04-04T08:25:56.118Z</time></trkpt><trkpt lat="41.9542267" lon="12.099605"><ele>18.5</ele><time>2026-04-04T08:25:57.117Z</time></trkpt><trkpt lat="41.9543733" lon="12.0995883"><ele>19.25</ele><time>2026-04-04T08:25:58.115Z</time></trkpt><trkpt lat="41.9545233" lon="12.0995717"><ele>20.0</ele><time>2026-04-04T08:25:59.118Z</time></trkpt><trkpt lat="41.9546783" lon="12.09955"><ele>20.0</ele><time>2026-04-04T08:26:00.119Z</time></trkpt><trkpt lat="41.95484" lon="12.0995283"><ele>20.0</ele><time>2026-04-04T08:26:01.118Z</time></trkpt><trkpt lat="41.955005" lon="12.0995083"><ele>20.0</ele><time>2026-04-04T08:26:02.117Z</time></trkpt><trkpt lat="41.9551767" lon="12.0994883"><ele>21.0</ele><time>2026-04-04T08:26:03.119Z</time></trkpt><trkpt lat="41.9553467" lon="12.0994683"><ele>22.0</ele><time>2026-04-04T08:26:04.111Z</time></trkpt><trkpt lat="41.9555217" lon="12.0994467"><ele>23.0</ele><time>2026-04-04T08:26:05.116Z</time></trkpt><trkpt lat="41.9556983" lon="12.0994217"><ele>24.333333333333336</ele><time>2026-04-04T08:26:06.116Z</time></trkpt><trkpt lat="41.9558733" lon="12.0993833"><ele>25.666666666666668</ele><time>2026-04-04T08:26:07.114Z</time></trkpt><trkpt lat="41.9560483" lon="12.099345"><ele>27.0</ele><time>2026-04-04T08:26:08.118Z</time></trkpt><trkpt lat="41.956225" lon="12.0993033"><ele>27.0</ele><time>2026-04-04T08:26:09.115Z</time></trkpt><trkpt lat="41.9564017" lon="12.09926"><ele>27.0</ele><time>2026-04-04T08:26:10.118Z</time></trkpt><trkpt lat="41.956575" lon="12.099205"><ele>27.0</ele><time>2026-04-04T08:26:11.116Z</time></trkpt><trkpt lat="41.956745" lon="12.0991483"><ele>26.666666666666664</ele><time>2026-04-04T08:26:12.114Z</time></trkpt><trkpt lat="41.9569067" lon="12.0990867"><ele>26.333333333333332</ele><time>2026-04-04T08:26:13.117Z</time></trkpt><trkpt lat="41.9570667" lon="12.0990183"><ele>26.0</ele><time>2026-04-04T08:26:14.117Z</time></trkpt><trkpt lat="41.9572233" lon="12.098945"><ele>26.0</ele><time>2026-04-04T08:26:15.115Z</time></trkpt><trkpt lat="41.95738" lon="12.0988633"><ele>26.0</ele><time>2026-04-04T08:26:16.118Z</time></trkpt><trkpt lat="41.9575333" lon="12.09877"><ele>26.0</ele><time>2026-04-04T08:26:17.113Z</time></trkpt><trkpt lat="41.9576867" lon="12.0986717"><ele>24.333333333333332</ele><time>2026-04-04T08:26:18.119Z</time></trkpt><trkpt lat="41.9578383" lon="12.0985733"><ele>22.666666666666664</ele><time>2026-04-04T08:26:19.118Z</time></trkpt><trkpt lat="41.9579883" lon="12.0984767"><ele>21.0</ele><time>2026-04-04T08:26:20.114Z</time></trkpt><trkpt lat="41.95813" lon="12.09837"><ele>21.0</ele><time>2026-04-04T08:26:21.119Z</time></trkpt><trkpt lat="41.958275" lon="12.0982533"><ele>21.0</ele><time>2026-04-04T08:26:22.119Z</time></trkpt><trkpt lat="41.9584133" lon="12.0981367"><ele>21.0</ele><time>2026-04-04T08:26:23.118Z</time></trkpt><trkpt lat="41.958545" lon="12.09801"><ele>18.333333333333332</ele><time>2026-04-04T08:26:24.116Z</time></trkpt><trkpt lat="41.9586683" lon="12.09788"><ele>15.666666666666666</ele><time>2026-04-04T08:26:25.118Z</time></trkpt><trkpt lat="41.95878" lon="12.0977367"><ele>13.0</ele><time>2026-04-04T08:26:26.114Z</time></trkpt><trkpt lat="41.9588883" lon="12.0975717"><ele>12.666666666666666</ele><time>2026-04-04T08:26:27.117Z</time></trkpt><trkpt lat="41.9589983" lon="12.09739"><ele>12.333333333333332</ele><time>2026-04-04T08:26:28.118Z</time></trkpt><trkpt lat="41.95911" lon="12.0971967"><ele>12.0</ele><time>2026-04-04T08:26:29.11Z</time></trkpt><trkpt lat="41.959225" lon="12.0969983"><ele>12.0</ele><time>2026-04-04T08:26:30.117Z</time></trkpt><trkpt lat="41.9593417" lon="12.0967983"><ele>12.0</ele><time>2026-04-04T08:26:31.118Z</time></trkpt><trkpt lat="41.959455" lon="12.0965917"><ele>12.0</ele><time>2026-04-04T08:26:32.112Z</time></trkpt><trkpt lat="41.95956" lon="12.0963917"><ele>13.0</ele><time>2026-04-04T08:26:33.121Z</time></trkpt><trkpt lat="41.9596717" lon="12.096195"><ele>14.0</ele><time>2026-04-04T08:26:34.12Z</time></trkpt><trkpt lat="41.95978" lon="12.0959983"><ele>15.0</ele><time>2026-04-04T08:26:35.117Z</time></trkpt><trkpt lat="41.9598817" lon="12.0958017"><ele>15.0</ele><time>2026-04-04T08:26:36.116Z</time></trkpt><trkpt lat="41.9599867" lon="12.0956"><ele>15.0</ele><time>2026-04-04T08:26:37.12Z</time></trkpt><trkpt lat="41.9600933" lon="12.095395"><ele>15.0</ele><time>2026-04-04T08:26:38.116Z</time></trkpt><trkpt lat="41.9602017" lon="12.0951917"><ele>17.666666666666668</ele><time>2026-04-04T08:26:39.12Z</time></trkpt><trkpt lat="41.9603117" lon="12.094985"><ele>20.333333333333336</ele><time>2026-04-04T08:26:40.116Z</time></trkpt><trkpt lat="41.9604283" lon="12.0947783"><ele>23.0</ele><time>2026-04-04T08:26:41.117Z</time></trkpt><trkpt lat="41.9605433" lon="12.0945733"><ele>23.666666666666668</ele><time>2026-04-04T08:26:42.116Z</time></trkpt><trkpt lat="41.9606567" lon="12.0943617"><ele>24.333333333333336</ele><time>2026-04-04T08:26:43.115Z</time></trkpt><trkpt lat="41.96077" lon="12.0941383"><ele>25.0</ele><time>2026-04-04T08:26:44.118Z</time></trkpt><trkpt lat="41.96089" lon="12.093915"><ele>25.0</ele><time>2026-04-04T08:26:45.116Z</time></trkpt><trkpt lat="41.9610167" lon="12.0936983"><ele>25.0</ele><time>2026-04-04T08:26:46.115Z</time></trkpt><trkpt lat="41.96114" lon="12.0934683"><ele>25.0</ele><time>2026-04-04T08:26:47.115Z</time></trkpt><trkpt lat="41.96127" lon="12.0932383"><ele>25.0</ele><time>2026-04-04T08:26:48.117Z</time></trkpt><trkpt lat="41.9613933" lon="12.0930067"><ele>25.0</ele><time>2026-04-04T08:26:49.118Z</time></trkpt><trkpt lat="41.961515" lon="12.0927667"><ele>25.0</ele><time>2026-04-04T08:26:50.115Z</time></trkpt><trkpt lat="41.9616417" lon="12.0925333"><ele>26.0</ele><time>2026-04-04T08:26:51.117Z</time></trkpt><trkpt lat="41.9617617" lon="12.092315"><ele>27.0</ele><time>2026-04-04T08:26:52.115Z</time></trkpt><trkpt lat="41.96187" lon="12.0921083"><ele>28.0</ele><time>2026-04-04T08:26:53.117Z</time></trkpt><trkpt lat="41.9619767" lon="12.0919117"><ele>28.0</ele><time>2026-04-04T08:26:54.118Z</time></trkpt><trkpt lat="41.96209" lon="12.091725"><ele>28.0</ele><time>2026-04-04T08:26:55.119Z</time></trkpt><trkpt lat="41.9622117" lon="12.091545"><ele>28.0</ele><time>2026-04-04T08:26:56.115Z</time></trkpt><trkpt lat="41.9623417" lon="12.0913633"><ele>27.333333333333336</ele><time>2026-04-04T08:26:57.119Z</time></trkpt><trkpt lat="41.9624817" lon="12.0911883"><ele>26.666666666666664</ele><time>2026-04-04T08:26:58.118Z</time></trkpt><trkpt lat="41.962625" lon="12.0910167"><ele>26.0</ele><time>2026-04-04T08:26:59.115Z</time></trkpt><trkpt lat="41.9627683" lon="12.090845"><ele>27.333333333333332</ele><time>2026-04-04T08:27:00.119Z</time></trkpt><trkpt lat="41.9629183" lon="12.09067"><ele>28.666666666666664</ele><time>2026-04-04T08:27:01.115Z</time></trkpt><trkpt lat="41.9630717" lon="12.0904917"><ele>30.0</ele><time>2026-04-04T08:27:02.117Z</time></trkpt><trkpt lat="41.963225" lon="12.0903117"><ele>29.666666666666664</ele><time>2026-04-04T08:27:03.117Z</time></trkpt><trkpt lat="41.9633833" lon="12.090135"><ele>29.333333333333332</ele><time>2026-04-04T08:27:04.118Z</time></trkpt><trkpt lat="41.9635467" lon="12.0899667"><ele>29.0</ele><time>2026-04-04T08:27:05.116Z</time></trkpt><trkpt lat="41.9637083" lon="12.0897983"><ele>29.0</ele><time>2026-04-04T08:27:06.117Z</time></trkpt><trkpt lat="41.963865" lon="12.08962"><ele>29.0</ele><time>2026-04-04T08:27:07.114Z</time></trkpt><trkpt lat="41.9640183" lon="12.0894483"><ele>29.0</ele><time>2026-04-04T08:27:08.117Z</time></trkpt><trkpt lat="41.96417" lon="12.0892767"><ele>29.0</ele><time>2026-04-04T08:27:09.113Z</time></trkpt><trkpt lat="41.964325" lon="12.0891033"><ele>29.0</ele><time>2026-04-04T08:27:10.116Z</time></trkpt><trkpt lat="41.964475" lon="12.088925"><ele>29.0</ele><time>2026-04-04T08:27:11.114Z</time></trkpt><trkpt lat="41.9646217" lon="12.0887633"><ele>29.0</ele><time>2026-04-04T08:27:12.117Z</time></trkpt><trkpt lat="41.9647667" lon="12.08861"><ele>29.0</ele><time>2026-04-04T08:27:13.116Z</time></trkpt><trkpt lat="41.9649083" lon="12.08845"><ele>29.0</ele><time>2026-04-04T08:27:14.111Z</time></trkpt><trkpt lat="41.965055" lon="12.088285"><ele>29.0</ele><time>2026-04-04T08:27:15.115Z</time></trkpt><trkpt lat="41.965195" lon="12.0881183"><ele>29.0</ele><time>2026-04-04T08:27:16.114Z</time></trkpt><trkpt lat="41.9653283" lon="12.087965"><ele>29.0</ele><time>2026-04-04T08:27:17.115Z</time></trkpt><trkpt lat="41.965455" lon="12.0878067"><ele>29.0</ele><time>2026-04-04T08:27:18.119Z</time></trkpt><trkpt lat="41.9655833" lon="12.0876533"><ele>29.0</ele><time>2026-04-04T08:27:19.114Z</time></trkpt><trkpt lat="41.965715" lon="12.0875033"><ele>29.0</ele><time>2026-04-04T08:27:20.116Z</time></trkpt><trkpt lat="41.9658483" lon="12.0873467"><ele>28.333333333333332</ele><time>2026-04-04T08:27:21.118Z</time></trkpt><trkpt lat="41.9659867" lon="12.0871983"><ele>27.666666666666664</ele><time>2026-04-04T08:27:22.115Z</time></trkpt><trkpt lat="41.9661117" lon="12.0870467"><ele>27.0</ele><time>2026-04-04T08:27:23.115Z</time></trkpt><trkpt lat="41.9662333" lon="12.086905"><ele>27.0</ele><time>2026-04-04T08:27:24.111Z</time></trkpt><trkpt lat="41.9663467" lon="12.0867667"><ele>27.0</ele><time>2026-04-04T08:27:25.116Z</time></trkpt><trkpt lat="41.9664583" lon="12.0866317"><ele>27.0</ele><time>2026-04-04T08:27:26.116Z</time></trkpt><trkpt lat="41.96657" lon="12.08651"><ele>27.0</ele><time>2026-04-04T08:27:27.119Z</time></trkpt><trkpt lat="41.96668" lon="12.0863867"><ele>27.25</ele><time>2026-04-04T08:27:28.116Z</time></trkpt><trkpt lat="41.96678" lon="12.08627"><ele>27.5</ele><time>2026-04-04T08:27:29.118Z</time></trkpt><trkpt lat="41.96687" lon="12.086155"><ele>27.75</ele><time>2026-04-04T08:27:30.118Z</time></trkpt><trkpt lat="41.9669583" lon="12.08605"><ele>28.0</ele><time>2026-04-04T08:27:31.12Z</time></trkpt><trkpt lat="41.9670383" lon="12.08595"><ele>28.000000000000004</ele><time>2026-04-04T08:27:32.119Z</time></trkpt><trkpt lat="41.9671067" lon="12.0858517"><ele>28.0</ele><time>2026-04-04T08:27:33.118Z</time></trkpt><trkpt lat="41.967165" lon="12.0857633"><ele>28.0</ele><time>2026-04-04T08:27:34.116Z</time></trkpt><trkpt lat="41.9672133" lon="12.0856817"><ele>28.0</ele><time>2026-04-04T08:27:35.117Z</time></trkpt><trkpt lat="41.967265" lon="12.0855983"><ele>28.000000000000004</ele><time>2026-04-04T08:27:36.117Z</time></trkpt><trkpt lat="41.9673117" lon="12.0855267"><ele>28.0</ele><time>2026-04-04T08:27:37.115Z</time></trkpt><trkpt lat="41.9673917" lon="12.0854367"><ele>28.166666666666668</ele><time>2026-04-04T08:27:39.116Z</time></trkpt><trkpt lat="41.96746" lon="12.0853783"><ele>28.333333333333336</ele><time>2026-04-04T08:27:41.113Z</time></trkpt><trkpt lat="41.9675517" lon="12.0853183"><ele>28.5</ele><time>2026-04-04T08:27:43.11Z</time></trkpt><trkpt lat="41.9676117" lon="12.0852867"><ele>28.666666666666664</ele><time>2026-04-04T08:27:44.115Z</time></trkpt><trkpt lat="41.9676733" lon="12.0852467"><ele>28.833333333333332</ele><time>2026-04-04T08:27:45.119Z</time></trkpt><trkpt lat="41.9677383" lon="12.08519"><ele>29.0</ele><time>2026-04-04T08:27:46.119Z</time></trkpt><trkpt lat="41.9678033" lon="12.0851167"><ele>29.0</ele><time>2026-04-04T08:27:47.117Z</time></trkpt><trkpt lat="41.9678633" lon="12.0850367"><ele>29.0</ele><time>2026-04-04T08:27:48.118Z</time></trkpt><trkpt lat="41.96792" lon="12.08495"><ele>29.0</ele><time>2026-04-04T08:27:49.115Z</time></trkpt><trkpt lat="41.967995" lon="12.084865"><ele>29.0</ele><time>2026-04-04T08:27:50.119Z</time></trkpt><trkpt lat="41.9680817" lon="12.0847767"><ele>29.0</ele><time>2026-04-04T08:27:51.115Z</time></trkpt><trkpt lat="41.9681767" lon="12.0846917"><ele>28.5</ele><time>2026-04-04T08:27:52.116Z</time></trkpt><trkpt lat="41.968275" lon="12.084605"><ele>28.0</ele><time>2026-04-04T08:27:53.11Z</time></trkpt><trkpt lat="41.9683667" lon="12.0845133"><ele>27.5</ele><time>2026-04-04T08:27:54.118Z</time></trkpt><trkpt lat="41.96846" lon="12.08441"><ele>27.0</ele><time>2026-04-04T08:27:55.117Z</time></trkpt><trkpt lat="41.96856" lon="12.0843067"><ele>27.0</ele><time>2026-04-04T08:27:56.117Z</time></trkpt><trkpt lat="41.96866" lon="12.08419"><ele>27.0</ele><time>2026-04-04T08:27:57.119Z</time></trkpt><trkpt lat="41.9687567" lon="12.0840717"><ele>27.0</ele><time>2026-04-04T08:27:58.117Z</time></trkpt><trkpt lat="41.9688533" lon="12.08394"><ele>27.0</ele><time>2026-04-04T08:27:59.116Z</time></trkpt><trkpt lat="41.9689533" lon="12.0837983"><ele>27.5</ele><time>2026-04-04T08:28:00.117Z</time></trkpt><trkpt lat="41.9690483" lon="12.0836483"><ele>28.0</ele><time>2026-04-04T08:28:01.117Z</time></trkpt><trkpt lat="41.9691433" lon="12.0834967"><ele>28.5</ele><time>2026-04-04T08:28:02.118Z</time></trkpt><trkpt lat="41.9692367" lon="12.0833433"><ele>29.0</ele><time>2026-04-04T08:28:03.116Z</time></trkpt><trkpt lat="41.9693233" lon="12.083185"><ele>25.666666666666664</ele><time>2026-04-04T08:28:04.115Z</time></trkpt><trkpt lat="41.9694117" lon="12.0830267"><ele>22.333333333333332</ele><time>2026-04-04T08:28:05.114Z</time></trkpt><trkpt lat="41.9695017" lon="12.082865"><ele>19.0</ele><time>2026-04-04T08:28:06.115Z</time></trkpt><trkpt lat="41.969595" lon="12.0827033"><ele>19.0</ele><time>2026-04-04T08:28:07.115Z</time></trkpt><trkpt lat="41.9696867" lon="12.08255"><ele>19.0</ele><time>2026-04-04T08:28:08.116Z</time></trkpt><trkpt lat="41.9697767" lon="12.0823967"><ele>19.0</ele><time>2026-04-04T08:28:09.118Z</time></trkpt><trkpt lat="41.96987" lon="12.0822467"><ele>19.0</ele><time>2026-04-04T08:28:10.117Z</time></trkpt><trkpt lat="41.9699633" lon="12.082095"><ele>19.25</ele><time>2026-04-04T08:28:11.111Z</time></trkpt><trkpt lat="41.9700567" lon="12.0819417"><ele>19.5</ele><time>2026-04-04T08:28:12.118Z</time></trkpt><trkpt lat="41.9701433" lon="12.0817783"><ele>19.75</ele><time>2026-04-04T08:28:13.116Z</time></trkpt><trkpt lat="41.9702217" lon="12.0816217"><ele>20.0</ele><time>2026-04-04T08:28:14.118Z</time></trkpt><trkpt lat="41.9703" lon="12.0814733"><ele>18.75</ele><time>2026-04-04T08:28:15.117Z</time></trkpt><trkpt lat="41.9703767" lon="12.081335"><ele>17.5</ele><time>2026-04-04T08:28:16.114Z</time></trkpt><trkpt lat="41.970455" lon="12.0811967"><ele>16.25</ele><time>2026-04-04T08:28:17.115Z</time></trkpt><trkpt lat="41.9705383" lon="12.0810517"><ele>15.0</ele><time>2026-04-04T08:28:18.118Z</time></trkpt><trkpt lat="41.9706233" lon="12.0809033"><ele>14.25</ele><time>2026-04-04T08:28:19.117Z</time></trkpt><trkpt lat="41.9707083" lon="12.0807533"><ele>13.5</ele><time>2026-04-04T08:28:20.115Z</time></trkpt><trkpt lat="41.9707933" lon="12.0806"><ele>12.75</ele><time>2026-04-04T08:28:21.118Z</time></trkpt><trkpt lat="41.9708767" lon="12.08045"><ele>12.0</ele><time>2026-04-04T08:28:22.118Z</time></trkpt><trkpt lat="41.9709617" lon="12.0803"><ele>12.5</ele><time>2026-04-04T08:28:23.114Z</time></trkpt><trkpt lat="41.9710467" lon="12.0801583"><ele>13.0</ele><time>2026-04-04T08:28:24.117Z</time></trkpt><trkpt lat="41.9711233" lon="12.08002"><ele>13.5</ele><time>2026-04-04T08:28:25.118Z</time></trkpt><trkpt lat="41.9711967" lon="12.079895"><ele>14.0</ele><time>2026-04-04T08:28:26.112Z</time></trkpt><trkpt lat="41.9712667" lon="12.0797833"><ele>14.000000000000002</ele><time>2026-04-04T08:28:27.117Z</time></trkpt><trkpt lat="41.971325" lon="12.0796767"><ele>14.0</ele><time>2026-04-04T08:28:28.118Z</time></trkpt><trkpt lat="41.9713783" lon="12.079585"><ele>14.0</ele><time>2026-04-04T08:28:29.116Z</time></trkpt><trkpt lat="41.9714283" lon="12.0794967"><ele>14.0</ele><time>2026-04-04T08:28:30.117Z</time></trkpt><trkpt lat="41.971475" lon="12.0794167"><ele>14.000000000000002</ele><time>2026-04-04T08:28:31.119Z</time></trkpt><trkpt lat="41.9715217" lon="12.0793417"><ele>14.0</ele><time>2026-04-04T08:28:32.116Z</time></trkpt><trkpt lat="41.9715617" lon="12.0792633"><ele>14.0</ele><time>2026-04-04T08:28:33.115Z</time></trkpt><trkpt lat="41.9716017" lon="12.0791833"><ele>14.0</ele><time>2026-04-04T08:28:34.119Z</time></trkpt><trkpt lat="41.9716433" lon="12.0791"><ele>14.0</ele><time>2026-04-04T08:28:35.113Z</time></trkpt><trkpt lat="41.97169" lon="12.079015"><ele>14.0</ele><time>2026-04-04T08:28:36.117Z</time></trkpt><trkpt lat="41.9717333" lon="12.0789383"><ele>14.0</ele><time>2026-04-04T08:28:37.117Z</time></trkpt><trkpt lat="41.9717767" lon="12.078865"><ele>14.0</ele><time>2026-04-04T08:28:38.118Z</time></trkpt><trkpt lat="41.971815" lon="12.0787967"><ele>14.0</ele><time>2026-04-04T08:28:39.118Z</time></trkpt><trkpt lat="41.9718833" lon="12.0786733"><ele>13.2</ele><time>2026-04-04T08:28:41.115Z</time></trkpt><trkpt lat="41.9719567" lon="12.0785733"><ele>12.399999999999999</ele><time>2026-04-04T08:28:43.12Z</time></trkpt><trkpt lat="41.9720133" lon="12.078505"><ele>11.6</ele><time>2026-04-04T08:28:45.115Z</time></trkpt><trkpt lat="41.972095" lon="12.0784483"><ele>10.8</ele><time>2026-04-04T08:28:47.118Z</time></trkpt><trkpt lat="41.97221" lon="12.0784283"><ele>10.0</ele><time>2026-04-04T08:28:49.118Z</time></trkpt><trkpt lat="41.9722783" lon="12.07843"><ele>10.0</ele><time>2026-04-04T08:28:50.117Z</time></trkpt><trkpt lat="41.97235" lon="12.0784217"><ele>10.0</ele><time>2026-04-04T08:28:51.119Z</time></trkpt><trkpt lat="41.972425" lon="12.0784017"><ele>10.0</ele><time>2026-04-04T08:28:52.118Z</time></trkpt><trkpt lat="41.9724967" lon="12.0783683"><ele>10.0</ele><time>2026-04-04T08:28:53.116Z</time></trkpt><trkpt lat="41.9725633" lon="12.0783233"><ele>10.0</ele><time>2026-04-04T08:28:54.118Z</time></trkpt><trkpt lat="41.9726183" lon="12.0782683"><ele>10.0</ele><time>2026-04-04T08:28:55.114Z</time></trkpt><trkpt lat="41.972665" lon="12.078195"><ele>10.0</ele><time>2026-04-04T08:28:56.118Z</time></trkpt><trkpt lat="41.9726967" lon="12.07811"><ele>10.0</ele><time>2026-04-04T08:28:57.12Z</time></trkpt><trkpt lat="41.9727183" lon="12.07802"><ele>10.0</ele><time>2026-04-04T08:28:58.117Z</time></trkpt><trkpt lat="41.972725" lon="12.0779267"><ele>10.0</ele><time>2026-04-04T08:28:59.118Z</time></trkpt><trkpt lat="41.9727233" lon="12.0778333"><ele>10.0</ele><time>2026-04-04T08:29:00.116Z</time></trkpt><trkpt lat="41.97271" lon="12.077725"><ele>10.0</ele><time>2026-04-04T08:29:01.119Z</time></trkpt><trkpt lat="41.9727017" lon="12.0776183"><ele>10.0</ele><time>2026-04-04T08:29:02.115Z</time></trkpt><trkpt lat="41.9727" lon="12.0775017"><ele>10.2</ele><time>2026-04-04T08:29:03.113Z</time></trkpt><trkpt lat="41.97272" lon="12.07738"><ele>10.4</ele><time>2026-04-04T08:29:04.117Z</time></trkpt><trkpt lat="41.97276" lon="12.0772583"><ele>10.600000000000001</ele><time>2026-04-04T08:29:05.115Z</time></trkpt><trkpt lat="41.97281" lon="12.0771283"><ele>10.8</ele><time>2026-04-04T08:29:06.117Z</time></trkpt><trkpt lat="41.9728783" lon="12.0769983"><ele>11.0</ele><time>2026-04-04T08:29:07.117Z</time></trkpt><trkpt lat="41.972955" lon="12.0768683"><ele>11.0</ele><time>2026-04-04T08:29:08.114Z</time></trkpt><trkpt lat="41.9730367" lon="12.0767267"><ele>11.0</ele><time>2026-04-04T08:29:09.117Z</time></trkpt><trkpt lat="41.9731133" lon="12.076585"><ele>11.0</ele><time>2026-04-04T08:29:10.116Z</time></trkpt><trkpt lat="41.9731933" lon="12.076435"><ele>11.0</ele><time>2026-04-04T08:29:11.113Z</time></trkpt><trkpt lat="41.9732817" lon="12.0762817"><ele>11.666666666666666</ele><time>2026-04-04T08:29:12.121Z</time></trkpt><trkpt lat="41.9733717" lon="12.07612"><ele>12.333333333333332</ele><time>2026-04-04T08:29:13.118Z</time></trkpt><trkpt lat="41.9734667" lon="12.07595"><ele>13.0</ele><time>2026-04-04T08:29:14.116Z</time></trkpt><trkpt lat="41.9735617" lon="12.0757717"><ele>14.333333333333332</ele><time>2026-04-04T08:29:15.119Z</time></trkpt><trkpt lat="41.9736617" lon="12.0755933"><ele>15.666666666666668</ele><time>2026-04-04T08:29:16.123Z</time></trkpt><trkpt lat="41.9737633" lon="12.07541"><ele>17.0</ele><time>2026-04-04T08:29:17.115Z</time></trkpt><trkpt lat="41.9738667" lon="12.0752367"><ele>17.0</ele><time>2026-04-04T08:29:18.115Z</time></trkpt><trkpt lat="41.9739633" lon="12.0750667"><ele>17.0</ele><time>2026-04-04T08:29:19.12Z</time></trkpt><trkpt lat="41.97406" lon="12.0748933"><ele>17.0</ele><time>2026-04-04T08:29:20.114Z</time></trkpt><trkpt lat="41.9741617" lon="12.0747117"><ele>19.666666666666668</ele><time>2026-04-04T08:29:21.118Z</time></trkpt><trkpt lat="41.974265" lon="12.0745267"><ele>22.333333333333336</ele><time>2026-04-04T08:29:22.117Z</time></trkpt><trkpt lat="41.9743683" lon="12.0743317"><ele>25.0</ele><time>2026-04-04T08:29:23.116Z</time></trkpt><trkpt lat="41.9744817" lon="12.0741333"><ele>25.666666666666668</ele><time>2026-04-04T08:29:24.118Z</time></trkpt><trkpt lat="41.9745967" lon="12.0739367"><ele>26.333333333333336</ele><time>2026-04-04T08:29:25.117Z</time></trkpt><trkpt lat="41.9747167" lon="12.073745"><ele>27.0</ele><time>2026-04-04T08:29:26.119Z</time></trkpt><trkpt lat="41.974835" lon="12.0735583"><ele>27.0</ele><time>2026-04-04T08:29:27.117Z</time></trkpt><trkpt lat="41.9749517" lon="12.0733667"><ele>27.0</ele><time>2026-04-04T08:29:28.114Z</time></trkpt><trkpt lat="41.9750667" lon="12.0731767"><ele>27.0</ele><time>2026-04-04T08:29:29.116Z</time></trkpt><trkpt lat="41.97518" lon="12.07298"><ele>28.333333333333336</ele><time>2026-04-04T08:29:30.112Z</time></trkpt><trkpt lat="41.9752933" lon="12.07278"><ele>29.666666666666668</ele><time>2026-04-04T08:29:31.112Z</time></trkpt><trkpt lat="41.9754033" lon="12.0725883"><ele>31.0</ele><time>2026-04-04T08:29:32.115Z</time></trkpt><trkpt lat="41.9755083" lon="12.0724033"><ele>31.333333333333336</ele><time>2026-04-04T08:29:33.121Z</time></trkpt><trkpt lat="41.9756133" lon="12.0722167"><ele>31.666666666666664</ele><time>2026-04-04T08:29:34.115Z</time></trkpt><trkpt lat="41.9757233" lon="12.0720317"><ele>32.0</ele><time>2026-04-04T08:29:35.114Z</time></trkpt><trkpt lat="41.975835" lon="12.0718483"><ele>31.666666666666664</ele><time>2026-04-04T08:29:36.118Z</time></trkpt><trkpt lat="41.9759467" lon="12.0716567"><ele>31.333333333333336</ele><time>2026-04-04T08:29:37.115Z</time></trkpt><trkpt lat="41.9760617" lon="12.0714567"><ele>31.0</ele><time>2026-04-04T08:29:38.118Z</time></trkpt><trkpt lat="41.976175" lon="12.071245"><ele>30.666666666666668</ele><time>2026-04-04T08:29:39.114Z</time></trkpt><trkpt lat="41.9762817" lon="12.0710317"><ele>30.333333333333336</ele><time>2026-04-04T08:29:40.117Z</time></trkpt><trkpt lat="41.9763833" lon="12.07082"><ele>30.0</ele><time>2026-04-04T08:29:41.115Z</time></trkpt><trkpt lat="41.9764833" lon="12.0706033"><ele>29.666666666666664</ele><time>2026-04-04T08:29:42.118Z</time></trkpt><trkpt lat="41.97658" lon="12.0703717"><ele>29.333333333333332</ele><time>2026-04-04T08:29:43.118Z</time></trkpt><trkpt lat="41.9766733" lon="12.070145"><ele>29.0</ele><time>2026-04-04T08:29:44.12Z</time></trkpt><trkpt lat="41.9767633" lon="12.0699333"><ele>28.666666666666664</ele><time>2026-04-04T08:29:45.118Z</time></trkpt><trkpt lat="41.9768467" lon="12.0697267"><ele>28.333333333333336</ele><time>2026-04-04T08:29:46.119Z</time></trkpt><trkpt lat="41.9769367" lon="12.0695217"><ele>28.0</ele><time>2026-04-04T08:29:47.117Z</time></trkpt><trkpt lat="41.9770167" lon="12.0693233"><ele>28.0</ele><time>2026-04-04T08:29:48.118Z</time></trkpt><trkpt lat="41.9771" lon="12.0691217"><ele>28.0</ele><time>2026-04-04T08:29:49.117Z</time></trkpt><trkpt lat="41.9771883" lon="12.0689167"><ele>28.0</ele><time>2026-04-04T08:29:50.116Z</time></trkpt><trkpt lat="41.9772767" lon="12.06871"><ele>27.666666666666668</ele><time>2026-04-04T08:29:51.116Z</time></trkpt><trkpt lat="41.97736" lon="12.068515"><ele>27.333333333333336</ele><time>2026-04-04T08:29:52.12Z</time></trkpt><trkpt lat="41.9774383" lon="12.06833"><ele>27.0</ele><time>2026-04-04T08:29:53.118Z</time></trkpt><trkpt lat="41.9775067" lon="12.06816"><ele>27.75</ele><time>2026-04-04T08:29:54.117Z</time></trkpt><trkpt lat="41.9775683" lon="12.0680033"><ele>28.5</ele><time>2026-04-04T08:29:55.118Z</time></trkpt><trkpt lat="41.977625" lon="12.0678633"><ele>29.25</ele><time>2026-04-04T08:29:56.117Z</time></trkpt><trkpt lat="41.97768" lon="12.0677317"><ele>30.0</ele><time>2026-04-04T08:29:57.117Z</time></trkpt><trkpt lat="41.9777267" lon="12.067615"><ele>30.0</ele><time>2026-04-04T08:29:58.119Z</time></trkpt><trkpt lat="41.97777" lon="12.0675083"><ele>30.0</ele><time>2026-04-04T08:29:59.115Z</time></trkpt><trkpt lat="41.9778067" lon="12.06741"><ele>30.0</ele><time>2026-04-04T08:30:00.113Z</time></trkpt><trkpt lat="41.9778383" lon="12.0673217"><ele>30.0</ele><time>2026-04-04T08:30:01.111Z</time></trkpt><trkpt lat="41.97787" lon="12.067235"><ele>30.0</ele><time>2026-04-04T08:30:02.117Z</time></trkpt><trkpt lat="41.9779033" lon="12.0671517"><ele>30.0</ele><time>2026-04-04T08:30:03.115Z</time></trkpt><trkpt lat="41.9779417" lon="12.0670617"><ele>29.833333333333332</ele><time>2026-04-04T08:30:04.116Z</time></trkpt><trkpt lat="41.9779767" lon="12.06697"><ele>29.666666666666664</ele><time>2026-04-04T08:30:05.115Z</time></trkpt><trkpt lat="41.9780117" lon="12.066885"><ele>29.5</ele><time>2026-04-04T08:30:06.118Z</time></trkpt><trkpt lat="41.9780417" lon="12.0668033"><ele>29.333333333333332</ele><time>2026-04-04T08:30:07.114Z</time></trkpt><trkpt lat="41.9780717" lon="12.0667183"><ele>29.166666666666664</ele><time>2026-04-04T08:30:08.117Z</time></trkpt><trkpt lat="41.9781267" lon="12.06659"><ele>29.0</ele><time>2026-04-04T08:30:10.115Z</time></trkpt><trkpt lat="41.9781633" lon="12.066515"><ele>29.0</ele><time>2026-04-04T08:30:12.117Z</time></trkpt><trkpt lat="41.9782183" lon="12.06636"><ele>29.0</ele><time>2026-04-04T08:31:15.118Z</time></trkpt><trkpt lat="41.9782633" lon="12.0662583"><ele>29.0</ele><time>2026-04-04T08:31:17.114Z</time></trkpt><trkpt lat="41.978315" lon="12.0661317"><ele>29.0</ele><time>2026-04-04T08:31:19.117Z</time></trkpt><trkpt lat="41.97835" lon="12.0660583"><ele>29.0</ele><time>2026-04-04T08:31:20.117Z</time></trkpt><trkpt lat="41.9783883" lon="12.0659683"><ele>29.0</ele><time>2026-04-04T08:31:21.117Z</time></trkpt><trkpt lat="41.9784283" lon="12.06587"><ele>29.0</ele><time>2026-04-04T08:31:22.115Z</time></trkpt><trkpt lat="41.9784733" lon="12.0657617"><ele>29.0</ele><time>2026-04-04T08:31:23.116Z</time></trkpt><trkpt lat="41.9785217" lon="12.06565"><ele>29.0</ele><time>2026-04-04T08:31:24.114Z</time></trkpt><trkpt lat="41.97857" lon="12.0655283"><ele>29.0</ele><time>2026-04-04T08:31:25.11Z</time></trkpt><trkpt lat="41.9786217" lon="12.0654017"><ele>29.4</ele><time>2026-04-04T08:31:26.117Z</time></trkpt><trkpt lat="41.978675" lon="12.0652783"><ele>29.799999999999997</ele><time>2026-04-04T08:31:27.118Z</time></trkpt><trkpt lat="41.9787283" lon="12.0651533"><ele>30.200000000000003</ele><time>2026-04-04T08:31:28.115Z</time></trkpt><trkpt lat="41.9787833" lon="12.065025"><ele>30.6</ele><time>2026-04-04T08:31:29.114Z</time></trkpt><trkpt lat="41.9788383" lon="12.0648883"><ele>31.0</ele><time>2026-04-04T08:31:30.116Z</time></trkpt><trkpt lat="41.9789" lon="12.0647467"><ele>30.0</ele><time>2026-04-04T08:31:31.119Z</time></trkpt><trkpt lat="41.9789617" lon="12.0645983"><ele>29.0</ele><time>2026-04-04T08:31:32.116Z</time></trkpt><trkpt lat="41.979025" lon="12.064445"><ele>28.0</ele><time>2026-04-04T08:31:33.117Z</time></trkpt><trkpt lat="41.97909" lon="12.06429"><ele>27.0</ele><time>2026-04-04T08:31:34.117Z</time></trkpt><trkpt lat="41.979155" lon="12.064125"><ele>26.5</ele><time>2026-04-04T08:31:35.117Z</time></trkpt><trkpt lat="41.97922" lon="12.0639583"><ele>26.0</ele><time>2026-04-04T08:31:36.116Z</time></trkpt><trkpt lat="41.979285" lon="12.06379"><ele>25.5</ele><time>2026-04-04T08:31:37.118Z</time></trkpt><trkpt lat="41.9793533" lon="12.0636117"><ele>25.0</ele><time>2026-04-04T08:31:38.115Z</time></trkpt><trkpt lat="41.979425" lon="12.06343"><ele>24.333333333333336</ele><time>2026-04-04T08:31:39.117Z</time></trkpt><trkpt lat="41.9794967" lon="12.06325"><ele>23.666666666666668</ele><time>2026-04-04T08:31:40.119Z</time></trkpt><trkpt lat="41.9795717" lon="12.0630667"><ele>23.0</ele><time>2026-04-04T08:31:41.115Z</time></trkpt><trkpt lat="41.979645" lon="12.0628767"><ele>23.0</ele><time>2026-04-04T08:31:42.116Z</time></trkpt><trkpt lat="41.9797217" lon="12.0626883"><ele>23.0</ele><time>2026-04-04T08:31:43.118Z</time></trkpt><trkpt lat="41.9797983" lon="12.0625"><ele>23.0</ele><time>2026-04-04T08:31:44.112Z</time></trkpt><trkpt lat="41.979875" lon="12.06231"><ele>23.0</ele><time>2026-04-04T08:31:45.117Z</time></trkpt><trkpt lat="41.9799517" lon="12.06212"><ele>23.0</ele><time>2026-04-04T08:31:46.119Z</time></trkpt><trkpt lat="41.98003" lon="12.061925"><ele>23.0</ele><time>2026-04-04T08:31:47.118Z</time></trkpt><trkpt lat="41.98011" lon="12.0617283"><ele>23.0</ele><time>2026-04-04T08:31:48.114Z</time></trkpt><trkpt lat="41.9801883" lon="12.06153"><ele>23.0</ele><time>2026-04-04T08:31:49.117Z</time></trkpt><trkpt lat="41.9802683" lon="12.06133"><ele>23.0</ele><time>2026-04-04T08:31:50.119Z</time></trkpt><trkpt lat="41.9803483" lon="12.0611283"><ele>23.0</ele><time>2026-04-04T08:31:51.118Z</time></trkpt><trkpt lat="41.98043" lon="12.06092"><ele>23.0</ele><time>2026-04-04T08:31:52.115Z</time></trkpt><trkpt lat="41.9805133" lon="12.060705"><ele>23.0</ele><time>2026-04-04T08:31:53.12Z</time></trkpt><trkpt lat="41.980595" lon="12.0605033"><ele>23.0</ele><time>2026-04-04T08:31:54.119Z</time></trkpt><trkpt lat="41.980675" lon="12.0603033"><ele>23.0</ele><time>2026-04-04T08:31:55.118Z</time></trkpt><trkpt lat="41.9807583" lon="12.060105"><ele>23.0</ele><time>2026-04-04T08:31:56.119Z</time></trkpt><trkpt lat="41.9808417" lon="12.05991"><ele>22.666666666666668</ele><time>2026-04-04T08:31:57.12Z</time></trkpt><trkpt lat="41.980925" lon="12.0597117"><ele>22.333333333333332</ele><time>2026-04-04T08:31:58.12Z</time></trkpt><trkpt lat="41.9810083" lon="12.059515"><ele>22.0</ele><time>2026-04-04T08:31:59.117Z</time></trkpt><trkpt lat="41.9810867" lon="12.0593133"><ele>22.0</ele><time>2026-04-04T08:32:00.115Z</time></trkpt><trkpt lat="41.98116" lon="12.0591217"><ele>22.0</ele><time>2026-04-04T08:32:01.119Z</time></trkpt><trkpt lat="41.9812317" lon="12.058935"><ele>22.0</ele><time>2026-04-04T08:32:02.119Z</time></trkpt><trkpt lat="41.9813067" lon="12.0587417"><ele>22.333333333333332</ele><time>2026-04-04T08:32:03.115Z</time></trkpt><trkpt lat="41.9813883" lon="12.0585483"><ele>22.666666666666668</ele><time>2026-04-04T08:32:04.118Z</time></trkpt><trkpt lat="41.9814717" lon="12.0583483"><ele>23.0</ele><time>2026-04-04T08:32:05.117Z</time></trkpt><trkpt lat="41.9815517" lon="12.058155"><ele>22.75</ele><time>2026-04-04T08:32:06.118Z</time></trkpt><trkpt lat="41.9816283" lon="12.0579733"><ele>22.5</ele><time>2026-04-04T08:32:07.117Z</time></trkpt><trkpt lat="41.9817" lon="12.0578033"><ele>22.25</ele><time>2026-04-04T08:32:08.118Z</time></trkpt><trkpt lat="41.9817667" lon="12.0576383"><ele>22.0</ele><time>2026-04-04T08:32:09.111Z</time></trkpt><trkpt lat="41.981835" lon="12.0574733"><ele>22.0</ele><time>2026-04-04T08:32:10.113Z</time></trkpt><trkpt lat="41.9819117" lon="12.05729"><ele>22.0</ele><time>2026-04-04T08:32:11.113Z</time></trkpt><trkpt lat="41.98199" lon="12.05711"><ele>22.0</ele><time>2026-04-04T08:32:12.12Z</time></trkpt><trkpt lat="41.9820683" lon="12.0569317"><ele>22.0</ele><time>2026-04-04T08:32:13.118Z</time></trkpt><trkpt lat="41.9821383" lon="12.05675"><ele>22.0</ele><time>2026-04-04T08:32:14.117Z</time></trkpt><trkpt lat="41.98221" lon="12.0565683"><ele>22.0</ele><time>2026-04-04T08:32:15.115Z</time></trkpt><trkpt lat="41.9822833" lon="12.0563833"><ele>22.0</ele><time>2026-04-04T08:32:16.113Z</time></trkpt><trkpt lat="41.9823567" lon="12.0562033"><ele>22.0</ele><time>2026-04-04T08:32:17.12Z</time></trkpt><trkpt lat="41.982435" lon="12.0560183"><ele>22.0</ele><time>2026-04-04T08:32:18.116Z</time></trkpt><trkpt lat="41.9825183" lon="12.0558333"><ele>20.666666666666664</ele><time>2026-04-04T08:32:19.114Z</time></trkpt><trkpt lat="41.9826033" lon="12.0556433"><ele>19.333333333333332</ele><time>2026-04-04T08:32:20.12Z</time></trkpt><trkpt lat="41.9826833" lon="12.0554483"><ele>18.0</ele><time>2026-04-04T08:32:21.117Z</time></trkpt><trkpt lat="41.9827667" lon="12.0552433"><ele>18.0</ele><time>2026-04-04T08:32:22.117Z</time></trkpt><trkpt lat="41.9828533" lon="12.0550333"><ele>18.0</ele><time>2026-04-04T08:32:23.117Z</time></trkpt><trkpt lat="41.9829417" lon="12.0548133"><ele>18.0</ele><time>2026-04-04T08:32:24.119Z</time></trkpt><trkpt lat="41.9830267" lon="12.0546"><ele>17.333333333333332</ele><time>2026-04-04T08:32:25.119Z</time></trkpt><trkpt lat="41.9831117" lon="12.0543983"><ele>16.666666666666664</ele><time>2026-04-04T08:32:26.118Z</time></trkpt><trkpt lat="41.983195" lon="12.0541917"><ele>16.0</ele><time>2026-04-04T08:32:27.119Z</time></trkpt><trkpt lat="41.9832817" lon="12.0539833"><ele>16.0</ele><time>2026-04-04T08:32:28.117Z</time></trkpt><trkpt lat="41.9833683" lon="12.0537733"><ele>16.0</ele><time>2026-04-04T08:32:29.118Z</time></trkpt><trkpt lat="41.9834583" lon="12.05356"><ele>16.0</ele><time>2026-04-04T08:32:30.117Z</time></trkpt><trkpt lat="41.9835433" lon="12.0533433"><ele>16.0</ele><time>2026-04-04T08:32:31.117Z</time></trkpt><trkpt lat="41.98363" lon="12.0531317"><ele>16.0</ele><time>2026-04-04T08:32:32.116Z</time></trkpt><trkpt lat="41.98371" lon="12.0529217"><ele>16.0</ele><time>2026-04-04T08:32:33.118Z</time></trkpt><trkpt lat="41.9837933" lon="12.0527167"><ele>16.0</ele><time>2026-04-04T08:32:34.116Z</time></trkpt><trkpt lat="41.983875" lon="12.0525117"><ele>16.0</ele><time>2026-04-04T08:32:35.115Z</time></trkpt><trkpt lat="41.983955" lon="12.05231"><ele>16.0</ele><time>2026-04-04T08:32:36.119Z</time></trkpt><trkpt lat="41.984035" lon="12.05211"><ele>16.0</ele><time>2026-04-04T08:32:37.118Z</time></trkpt><trkpt lat="41.9841167" lon="12.0519067"><ele>16.0</ele><time>2026-04-04T08:32:38.119Z</time></trkpt><trkpt lat="41.9841983" lon="12.0517017"><ele>16.0</ele><time>2026-04-04T08:32:39.115Z</time></trkpt><trkpt lat="41.9842817" lon="12.0515"><ele>16.0</ele><time>2026-04-04T08:32:40.119Z</time></trkpt><trkpt lat="41.9843667" lon="12.0512867"><ele>16.0</ele><time>2026-04-04T08:32:41.114Z</time></trkpt><trkpt lat="41.9844517" lon="12.0510783"><ele>16.0</ele><time>2026-04-04T08:32:42.114Z</time></trkpt><trkpt lat="41.9845333" lon="12.0508683"><ele>16.0</ele><time>2026-04-04T08:32:43.113Z</time></trkpt><trkpt lat="41.9846167" lon="12.0506533"><ele>16.0</ele><time>2026-04-04T08:32:44.119Z</time></trkpt><trkpt lat="41.9847033" lon="12.0504383"><ele>16.0</ele><time>2026-04-04T08:32:45.119Z</time></trkpt><trkpt lat="41.9847883" lon="12.0502333"><ele>16.0</ele><time>2026-04-04T08:32:46.119Z</time></trkpt><trkpt lat="41.9848683" lon="12.05004"><ele>16.0</ele><time>2026-04-04T08:32:47.116Z</time></trkpt><trkpt lat="41.98495" lon="12.0498383"><ele>16.0</ele><time>2026-04-04T08:32:48.119Z</time></trkpt><trkpt lat="41.9850317" lon="12.04963"><ele>15.666666666666666</ele><time>2026-04-04T08:32:49.117Z</time></trkpt><trkpt lat="41.985115" lon="12.0494233"><ele>15.333333333333332</ele><time>2026-04-04T08:32:50.117Z</time></trkpt><trkpt lat="41.9851967" lon="12.049215"><ele>15.0</ele><time>2026-04-04T08:32:51.119Z</time></trkpt><trkpt lat="41.9852833" lon="12.049005"><ele>15.0</ele><time>2026-04-04T08:32:52.116Z</time></trkpt><trkpt lat="41.9853717" lon="12.0487933"><ele>15.0</ele><time>2026-04-04T08:32:53.116Z</time></trkpt><trkpt lat="41.9854633" lon="12.0485767"><ele>15.0</ele><time>2026-04-04T08:32:54.117Z</time></trkpt><trkpt lat="41.9855533" lon="12.0483617"><ele>14.333333333333332</ele><time>2026-04-04T08:32:55.118Z</time></trkpt><trkpt lat="41.9856433" lon="12.0481383"><ele>13.666666666666666</ele><time>2026-04-04T08:32:56.121Z</time></trkpt><trkpt lat="41.9857317" lon="12.0479183"><ele>13.0</ele><time>2026-04-04T08:32:57.117Z</time></trkpt><trkpt lat="41.9858217" lon="12.0476983"><ele>12.333333333333332</ele><time>2026-04-04T08:32:58.118Z</time></trkpt><trkpt lat="41.9859117" lon="12.04748"><ele>11.666666666666666</ele><time>2026-04-04T08:32:59.119Z</time></trkpt><trkpt lat="41.9860017" lon="12.0472517"><ele>11.0</ele><time>2026-04-04T08:33:00.115Z</time></trkpt><trkpt lat="41.98609" lon="12.0470267"><ele>11.0</ele><time>2026-04-04T08:33:01.118Z</time></trkpt><trkpt lat="41.9861767" lon="12.046805"><ele>11.0</ele><time>2026-04-04T08:33:02.117Z</time></trkpt><trkpt lat="41.9862617" lon="12.0465883"><ele>11.0</ele><time>2026-04-04T08:33:03.115Z</time></trkpt><trkpt lat="41.9863483" lon="12.0463617"><ele>11.0</ele><time>2026-04-04T08:33:04.116Z</time></trkpt><trkpt lat="41.9864367" lon="12.0461367"><ele>11.0</ele><time>2026-04-04T08:33:05.115Z</time></trkpt><trkpt lat="41.986525" lon="12.0459117"><ele>11.0</ele><time>2026-04-04T08:33:06.117Z</time></trkpt><trkpt lat="41.9866167" lon="12.045695"><ele>10.333333333333332</ele><time>2026-04-04T08:33:07.114Z</time></trkpt><trkpt lat="41.9867083" lon="12.04547"><ele>9.666666666666666</ele><time>2026-04-04T08:33:08.122Z</time></trkpt><trkpt lat="41.9868017" lon="12.0452467"><ele>9.0</ele><time>2026-04-04T08:33:09.121Z</time></trkpt><trkpt lat="41.9868933" lon="12.045015"><ele>9.0</ele><time>2026-04-04T08:33:10.118Z</time></trkpt><trkpt lat="41.986985" lon="12.04479"><ele>9.0</ele><time>2026-04-04T08:33:11.119Z</time></trkpt><trkpt lat="41.9870733" lon="12.044575"><ele>9.0</ele><time>2026-04-04T08:33:12.118Z</time></trkpt><trkpt lat="41.9871567" lon="12.0443717"><ele>9.0</ele><time>2026-04-04T08:33:13.118Z</time></trkpt><trkpt lat="41.987235" lon="12.0441767"><ele>9.0</ele><time>2026-04-04T08:33:14.115Z</time></trkpt><trkpt lat="41.98731" lon="12.0439933"><ele>9.0</ele><time>2026-04-04T08:33:15.119Z</time></trkpt><trkpt lat="41.9873767" lon="12.04382"><ele>8.25</ele><time>2026-04-04T08:33:16.117Z</time></trkpt><trkpt lat="41.9874417" lon="12.0436567"><ele>7.5</ele><time>2026-04-04T08:33:17.115Z</time></trkpt><trkpt lat="41.98751" lon="12.0434983"><ele>6.75</ele><time>2026-04-04T08:33:18.118Z</time></trkpt><trkpt lat="41.9875733" lon="12.0433417"><ele>6.0</ele><time>2026-04-04T08:33:19.119Z</time></trkpt><trkpt lat="41.987635" lon="12.0431883"><ele>5.5</ele><time>2026-04-04T08:33:20.117Z</time></trkpt><trkpt lat="41.9876983" lon="12.0430317"><ele>5.0</ele><time>2026-04-04T08:33:21.118Z</time></trkpt><trkpt lat="41.987765" lon="12.042875"><ele>4.5</ele><time>2026-04-04T08:33:22.117Z</time></trkpt><trkpt lat="41.9878333" lon="12.0427133"><ele>4.0</ele><time>2026-04-04T08:33:23.117Z</time></trkpt><trkpt lat="41.9879033" lon="12.0425483"><ele>5.0</ele><time>2026-04-04T08:33:24.119Z</time></trkpt><trkpt lat="41.9879717" lon="12.0423767"><ele>6.0</ele><time>2026-04-04T08:33:25.116Z</time></trkpt><trkpt lat="41.9880417" lon="12.042205"><ele>7.0</ele><time>2026-04-04T08:33:26.118Z</time></trkpt><trkpt lat="41.9881133" lon="12.0420283"><ele>8.0</ele><time>2026-04-04T08:33:27.118Z</time></trkpt><trkpt lat="41.98818" lon="12.0418533"><ele>8.0</ele><time>2026-04-04T08:33:28.116Z</time></trkpt><trkpt lat="41.98825" lon="12.04168"><ele>8.0</ele><time>2026-04-04T08:33:29.119Z</time></trkpt><trkpt lat="41.9883217" lon="12.0415117"><ele>8.0</ele><time>2026-04-04T08:33:30.119Z</time></trkpt><trkpt lat="41.9883967" lon="12.0413317"><ele>8.0</ele><time>2026-04-04T08:33:31.119Z</time></trkpt><trkpt lat="41.9884733" lon="12.0411433"><ele>9.0</ele><time>2026-04-04T08:33:32.116Z</time></trkpt><trkpt lat="41.98855" lon="12.0409533"><ele>10.0</ele><time>2026-04-04T08:33:33.115Z</time></trkpt><trkpt lat="41.9886283" lon="12.040755"><ele>11.0</ele><time>2026-04-04T08:33:34.119Z</time></trkpt><trkpt lat="41.98871" lon="12.040555"><ele>11.333333333333332</ele><time>2026-04-04T08:33:35.118Z</time></trkpt><trkpt lat="41.9887933" lon="12.0403567"><ele>11.666666666666666</ele><time>2026-04-04T08:33:36.118Z</time></trkpt><trkpt lat="41.9888767" lon="12.0401533"><ele>12.0</ele><time>2026-04-04T08:33:37.119Z</time></trkpt><trkpt lat="41.9889583" lon="12.03995"><ele>12.0</ele><time>2026-04-04T08:33:38.119Z</time></trkpt><trkpt lat="41.989045" lon="12.0397467"><ele>12.0</ele><time>2026-04-04T08:33:39.119Z</time></trkpt><trkpt lat="41.9891317" lon="12.03954"><ele>12.0</ele><time>2026-04-04T08:33:40.118Z</time></trkpt><trkpt lat="41.989215" lon="12.03933"><ele>12.333333333333332</ele><time>2026-04-04T08:33:41.118Z</time></trkpt><trkpt lat="41.989295" lon="12.0391183"><ele>12.666666666666666</ele><time>2026-04-04T08:33:42.116Z</time></trkpt><trkpt lat="41.9893767" lon="12.0389"><ele>13.0</ele><time>2026-04-04T08:33:43.118Z</time></trkpt><trkpt lat="41.98946" lon="12.0386833"><ele>13.0</ele><time>2026-04-04T08:33:44.115Z</time></trkpt><trkpt lat="41.9895383" lon="12.0384833"><ele>13.0</ele><time>2026-04-04T08:33:45.121Z</time></trkpt><trkpt lat="41.989615" lon="12.0382917"><ele>13.0</ele><time>2026-04-04T08:33:46.117Z</time></trkpt><trkpt lat="41.9896917" lon="12.0380967"><ele>13.666666666666666</ele><time>2026-04-04T08:33:47.115Z</time></trkpt><trkpt lat="41.9897683" lon="12.0379033"><ele>14.333333333333332</ele><time>2026-04-04T08:33:48.118Z</time></trkpt><trkpt lat="41.9898483" lon="12.0377017"><ele>15.0</ele><time>2026-04-04T08:33:49.114Z</time></trkpt><trkpt lat="41.9899317" lon="12.0374983"><ele>15.0</ele><time>2026-04-04T08:33:50.117Z</time></trkpt><trkpt lat="41.99001" lon="12.0373017"><ele>15.0</ele><time>2026-04-04T08:33:51.12Z</time></trkpt><trkpt lat="41.990085" lon="12.03711"><ele>15.0</ele><time>2026-04-04T08:33:52.118Z</time></trkpt><trkpt lat="41.99016" lon="12.0369183"><ele>15.0</ele><time>2026-04-04T08:33:53.118Z</time></trkpt><trkpt lat="41.9902383" lon="12.03673"><ele>15.0</ele><time>2026-04-04T08:33:54.116Z</time></trkpt><trkpt lat="41.99032" lon="12.0365467"><ele>15.0</ele><time>2026-04-04T08:33:55.117Z</time></trkpt><trkpt lat="41.9903967" lon="12.03637"><ele>15.0</ele><time>2026-04-04T08:33:56.114Z</time></trkpt><trkpt lat="41.9904733" lon="12.0361817"><ele>15.0</ele><time>2026-04-04T08:33:57.115Z</time></trkpt><trkpt lat="41.9905483" lon="12.0359833"><ele>15.0</ele><time>2026-04-04T08:33:58.119Z</time></trkpt><trkpt lat="41.9906233" lon="12.0357783"><ele>14.333333333333332</ele><time>2026-04-04T08:33:59.118Z</time></trkpt><trkpt lat="41.9907033" lon="12.035575"><ele>13.666666666666666</ele><time>2026-04-04T08:34:00.114Z</time></trkpt><trkpt lat="41.9907917" lon="12.0353717"><ele>13.0</ele><time>2026-04-04T08:34:01.116Z</time></trkpt><trkpt lat="41.9908783" lon="12.03517"><ele>13.0</ele><time>2026-04-04T08:34:02.12Z</time></trkpt><trkpt lat="41.99096" lon="12.0349717"><ele>13.0</ele><time>2026-04-04T08:34:03.122Z</time></trkpt><trkpt lat="41.9910367" lon="12.0347683"><ele>13.0</ele><time>2026-04-04T08:34:04.118Z</time></trkpt><trkpt lat="41.99112" lon="12.0345683"><ele>13.0</ele><time>2026-04-04T08:34:05.118Z</time></trkpt><trkpt lat="41.991205" lon="12.0343633"><ele>13.0</ele><time>2026-04-04T08:34:06.115Z</time></trkpt><trkpt lat="41.9912883" lon="12.0341583"><ele>13.0</ele><time>2026-04-04T08:34:07.117Z</time></trkpt><trkpt lat="41.991375" lon="12.033955"><ele>13.333333333333332</ele><time>2026-04-04T08:34:08.118Z</time></trkpt><trkpt lat="41.9914533" lon="12.03376"><ele>13.666666666666668</ele><time>2026-04-04T08:34:09.119Z</time></trkpt><trkpt lat="41.9915233" lon="12.033575"><ele>14.0</ele><time>2026-04-04T08:34:10.116Z</time></trkpt><trkpt lat="41.9915917" lon="12.0334067"><ele>13.75</ele><time>2026-04-04T08:34:11.117Z</time></trkpt><trkpt lat="41.9916533" lon="12.0332533"><ele>13.5</ele><time>2026-04-04T08:34:12.118Z</time></trkpt><trkpt lat="41.9917117" lon="12.03311"><ele>13.25</ele><time>2026-04-04T08:34:13.118Z</time></trkpt><trkpt lat="41.9917717" lon="12.0329583"><ele>13.0</ele><time>2026-04-04T08:34:14.11Z</time></trkpt><trkpt lat="41.9918367" lon="12.0328033"><ele>13.25</ele><time>2026-04-04T08:34:15.118Z</time></trkpt><trkpt lat="41.9919017" lon="12.0326433"><ele>13.5</ele><time>2026-04-04T08:34:16.118Z</time></trkpt><trkpt lat="41.9919717" lon="12.032485"><ele>13.75</ele><time>2026-04-04T08:34:17.111Z</time></trkpt><trkpt lat="41.9920433" lon="12.0323183"><ele>14.0</ele><time>2026-04-04T08:34:18.12Z</time></trkpt><trkpt lat="41.9921167" lon="12.0321467"><ele>14.0</ele><time>2026-04-04T08:34:19.121Z</time></trkpt><trkpt lat="41.9921917" lon="12.0319683"><ele>14.0</ele><time>2026-04-04T08:34:20.118Z</time></trkpt><trkpt lat="41.992265" lon="12.03179"><ele>14.0</ele><time>2026-04-04T08:34:21.118Z</time></trkpt><trkpt lat="41.992335" lon="12.03161"><ele>14.0</ele><time>2026-04-04T08:34:22.119Z</time></trkpt><trkpt lat="41.992405" lon="12.0314333"><ele>14.0</ele><time>2026-04-04T08:34:23.118Z</time></trkpt><trkpt lat="41.99248" lon="12.031255"><ele>14.0</ele><time>2026-04-04T08:34:24.12Z</time></trkpt><trkpt lat="41.992555" lon="12.03107"><ele>14.0</ele><time>2026-04-04T08:34:25.12Z</time></trkpt><trkpt lat="41.99263" lon="12.0308783"><ele>14.0</ele><time>2026-04-04T08:34:26.115Z</time></trkpt><trkpt lat="41.9927067" lon="12.0306783"><ele>14.0</ele><time>2026-04-04T08:34:27.119Z</time></trkpt><trkpt lat="41.9927967" lon="12.0304733"><ele>14.0</ele><time>2026-04-04T08:34:28.116Z</time></trkpt><trkpt lat="41.9928817" lon="12.0302683"><ele>14.0</ele><time>2026-04-04T08:34:29.114Z</time></trkpt><trkpt lat="41.9929667" lon="12.030055"><ele>14.0</ele><time>2026-04-04T08:34:30.118Z</time></trkpt><trkpt lat="41.99305" lon="12.0298433"><ele>13.333333333333334</ele><time>2026-04-04T08:34:31.116Z</time></trkpt><trkpt lat="41.9931367" lon="12.0296267"><ele>12.666666666666668</ele><time>2026-04-04T08:34:32.118Z</time></trkpt><trkpt lat="41.9932233" lon="12.029415"><ele>12.0</ele><time>2026-04-04T08:34:33.117Z</time></trkpt><trkpt lat="41.993315" lon="12.029195"><ele>12.0</ele><time>2026-04-04T08:34:34.121Z</time></trkpt><trkpt lat="41.9934083" lon="12.028975"><ele>12.0</ele><time>2026-04-04T08:34:35.111Z</time></trkpt><trkpt lat="41.993495" lon="12.0287483"><ele>12.0</ele><time>2026-04-04T08:34:36.114Z</time></trkpt><trkpt lat="41.9935867" lon="12.028525"><ele>12.333333333333332</ele><time>2026-04-04T08:34:37.119Z</time></trkpt><trkpt lat="41.9936783" lon="12.0283017"><ele>12.666666666666666</ele><time>2026-04-04T08:34:38.121Z</time></trkpt><trkpt lat="41.9937717" lon="12.0280733"><ele>13.0</ele><time>2026-04-04T08:34:39.119Z</time></trkpt><trkpt lat="41.9938667" lon="12.0278433"><ele>13.0</ele><time>2026-04-04T08:34:40.11Z</time></trkpt><trkpt lat="41.99396" lon="12.02761"><ele>13.0</ele><time>2026-04-04T08:34:41.114Z</time></trkpt><trkpt lat="41.9940567" lon="12.0273733"><ele>13.0</ele><time>2026-04-04T08:34:42.118Z</time></trkpt><trkpt lat="41.99415" lon="12.0271333"><ele>13.0</ele><time>2026-04-04T08:34:43.12Z</time></trkpt><trkpt lat="41.9942433" lon="12.0269"><ele>13.0</ele><time>2026-04-04T08:34:44.119Z</time></trkpt><trkpt lat="41.9943383" lon="12.026675"><ele>13.0</ele><time>2026-04-04T08:34:45.118Z</time></trkpt><trkpt lat="41.9944317" lon="12.02645"><ele>13.0</ele><time>2026-04-04T08:34:46.119Z</time></trkpt><trkpt lat="41.994525" lon="12.02622"><ele>13.0</ele><time>2026-04-04T08:34:47.118Z</time></trkpt><trkpt lat="41.99462" lon="12.0259917"><ele>13.0</ele><time>2026-04-04T08:34:48.119Z</time></trkpt><trkpt lat="41.9947133" lon="12.0257617"><ele>12.0</ele><time>2026-04-04T08:34:49.119Z</time></trkpt><trkpt lat="41.9948083" lon="12.02553"><ele>11.0</ele><time>2026-04-04T08:34:50.119Z</time></trkpt><trkpt lat="41.9949033" lon="12.0252983"><ele>10.0</ele><time>2026-04-04T08:34:51.119Z</time></trkpt><trkpt lat="41.9949983" lon="12.0250617"><ele>9.666666666666668</ele><time>2026-04-04T08:34:52.115Z</time></trkpt><trkpt lat="41.9950967" lon="12.0248233"><ele>9.333333333333334</ele><time>2026-04-04T08:34:53.115Z</time></trkpt><trkpt lat="41.995195" lon="12.0245833"><ele>9.0</ele><time>2026-04-04T08:34:54.115Z</time></trkpt><trkpt lat="41.9952933" lon="12.0243433"><ele>9.0</ele><time>2026-04-04T08:34:55.118Z</time></trkpt><trkpt lat="41.9953917" lon="12.0241017"><ele>9.0</ele><time>2026-04-04T08:34:56.118Z</time></trkpt><trkpt lat="41.9954933" lon="12.0238617"><ele>9.0</ele><time>2026-04-04T08:34:57.122Z</time></trkpt><trkpt lat="41.9955933" lon="12.023625"><ele>9.0</ele><time>2026-04-04T08:34:58.115Z</time></trkpt><trkpt lat="41.9956967" lon="12.02339"><ele>9.0</ele><time>2026-04-04T08:34:59.117Z</time></trkpt><trkpt lat="41.9957983" lon="12.023155"><ele>9.0</ele><time>2026-04-04T08:35:00.118Z</time></trkpt><trkpt lat="41.9959" lon="12.022915"><ele>9.333333333333334</ele><time>2026-04-04T08:35:01.119Z</time></trkpt><trkpt lat="41.9960017" lon="12.0226767"><ele>9.666666666666668</ele><time>2026-04-04T08:35:02.115Z</time></trkpt><trkpt lat="41.9961017" lon="12.0224367"><ele>10.0</ele><time>2026-04-04T08:35:03.121Z</time></trkpt><trkpt lat="41.996205" lon="12.0221933"><ele>10.333333333333334</ele><time>2026-04-04T08:35:04.118Z</time></trkpt><trkpt lat="41.996305" lon="12.0219583"><ele>10.666666666666666</ele><time>2026-04-04T08:35:05.115Z</time></trkpt><trkpt lat="41.99641" lon="12.02171"><ele>11.0</ele><time>2026-04-04T08:35:06.113Z</time></trkpt><trkpt lat="41.9965117" lon="12.0214683"><ele>10.666666666666666</ele><time>2026-04-04T08:35:07.118Z</time></trkpt><trkpt lat="41.99661" lon="12.0212333"><ele>10.333333333333334</ele><time>2026-04-04T08:35:08.118Z</time></trkpt><trkpt lat="41.9967067" lon="12.0209933"><ele>10.0</ele><time>2026-04-04T08:35:09.117Z</time></trkpt><trkpt lat="41.9968017" lon="12.0207483"><ele>10.0</ele><time>2026-04-04T08:35:10.118Z</time></trkpt><trkpt lat="41.9969017" lon="12.02051"><ele>10.0</ele><time>2026-04-04T08:35:11.116Z</time></trkpt><trkpt lat="41.9970033" lon="12.020275"><ele>10.0</ele><time>2026-04-04T08:35:12.113Z</time></trkpt><trkpt lat="41.9971033" lon="12.020045"><ele>10.0</ele><time>2026-04-04T08:35:13.119Z</time></trkpt><trkpt lat="41.9972033" lon="12.0198167"><ele>10.0</ele><time>2026-04-04T08:35:14.119Z</time></trkpt><trkpt lat="41.997315" lon="12.0195867"><ele>10.0</ele><time>2026-04-04T08:35:15.116Z</time></trkpt><trkpt lat="41.9974267" lon="12.0193567"><ele>9.666666666666668</ele><time>2026-04-04T08:35:16.118Z</time></trkpt><trkpt lat="41.9975383" lon="12.0191317"><ele>9.333333333333334</ele><time>2026-04-04T08:35:17.116Z</time></trkpt><trkpt lat="41.997655" lon="12.0189067"><ele>9.0</ele><time>2026-04-04T08:35:18.119Z</time></trkpt><trkpt lat="41.997765" lon="12.0186883"><ele>9.0</ele><time>2026-04-04T08:35:19.115Z</time></trkpt><trkpt lat="41.997875" lon="12.018465"><ele>9.0</ele><time>2026-04-04T08:35:20.118Z</time></trkpt><trkpt lat="41.9979867" lon="12.01824"><ele>9.0</ele><time>2026-04-04T08:35:21.12Z</time></trkpt><trkpt lat="41.998105" lon="12.0180017"><ele>9.333333333333334</ele><time>2026-04-04T08:35:22.116Z</time></trkpt><trkpt lat="41.9982217" lon="12.0177583"><ele>9.666666666666668</ele><time>2026-04-04T08:35:23.118Z</time></trkpt><trkpt lat="41.99834" lon="12.01752"><ele>10.0</ele><time>2026-04-04T08:35:24.11Z</time></trkpt><trkpt lat="41.99846" lon="12.017285"><ele>10.666666666666668</ele><time>2026-04-04T08:35:25.117Z</time></trkpt><trkpt lat="41.9985817" lon="12.0170467"><ele>11.333333333333334</ele><time>2026-04-04T08:35:26.112Z</time></trkpt><trkpt lat="41.9987067" lon="12.0168017"><ele>12.0</ele><time>2026-04-04T08:35:27.118Z</time></trkpt><trkpt lat="41.9988317" lon="12.01655"><ele>12.0</ele><time>2026-04-04T08:35:28.116Z</time></trkpt><trkpt lat="41.99896" lon="12.0163017"><ele>12.0</ele><time>2026-04-04T08:35:29.116Z</time></trkpt><trkpt lat="41.999085" lon="12.0160567"><ele>12.0</ele><time>2026-04-04T08:35:30.118Z</time></trkpt><trkpt lat="41.9992033" lon="12.0158233"><ele>12.0</ele><time>2026-04-04T08:35:31.116Z</time></trkpt><trkpt lat="41.99932" lon="12.0156033"><ele>12.0</ele><time>2026-04-04T08:35:32.117Z</time></trkpt><trkpt lat="41.9994283" lon="12.0153967"><ele>12.0</ele><time>2026-04-04T08:35:33.118Z</time></trkpt><trkpt lat="41.9995267" lon="12.01519"><ele>12.0</ele><time>2026-04-04T08:35:34.12Z</time></trkpt><trkpt lat="41.9996283" lon="12.0149883"><ele>12.0</ele><time>2026-04-04T08:35:35.118Z</time></trkpt><trkpt lat="41.99973" lon="12.0147833"><ele>12.0</ele><time>2026-04-04T08:35:36.118Z</time></trkpt><trkpt lat="41.9998383" lon="12.0145717"><ele>11.666666666666666</ele><time>2026-04-04T08:35:37.119Z</time></trkpt><trkpt lat="41.9999517" lon="12.01435"><ele>11.333333333333332</ele><time>2026-04-04T08:35:38.118Z</time></trkpt><trkpt lat="42.000065" lon="12.0141267"><ele>11.0</ele><time>2026-04-04T08:35:39.12Z</time></trkpt><trkpt lat="42.000185" lon="12.0138967"><ele>11.0</ele><time>2026-04-04T08:35:40.117Z</time></trkpt><trkpt lat="42.0002983" lon="12.01366"><ele>11.0</ele><time>2026-04-04T08:35:41.116Z</time></trkpt><trkpt lat="42.0004167" lon="12.0134233"><ele>11.0</ele><time>2026-04-04T08:35:42.116Z</time></trkpt><trkpt lat="42.0005333" lon="12.0131867"><ele>10.666666666666666</ele><time>2026-04-04T08:35:43.118Z</time></trkpt><trkpt lat="42.0006517" lon="12.012955"><ele>10.333333333333334</ele><time>2026-04-04T08:35:44.115Z</time></trkpt><trkpt lat="42.0007767" lon="12.0127217"><ele>10.0</ele><time>2026-04-04T08:35:45.119Z</time></trkpt><trkpt lat="42.0009017" lon="12.0124833"><ele>10.0</ele><time>2026-04-04T08:35:46.118Z</time></trkpt><trkpt lat="42.0010233" lon="12.0122417"><ele>10.0</ele><time>2026-04-04T08:35:47.116Z</time></trkpt><trkpt lat="42.0011433" lon="12.012"><ele>10.0</ele><time>2026-04-04T08:35:48.116Z</time></trkpt><trkpt lat="42.0012617" lon="12.0117717"><ele>10.333333333333334</ele><time>2026-04-04T08:35:49.12Z</time></trkpt><trkpt lat="42.001375" lon="12.011545"><ele>10.666666666666666</ele><time>2026-04-04T08:35:50.118Z</time></trkpt><trkpt lat="42.0014933" lon="12.0113283"><ele>11.0</ele><time>2026-04-04T08:35:51.115Z</time></trkpt><trkpt lat="42.0016117" lon="12.0111167"><ele>11.0</ele><time>2026-04-04T08:35:52.115Z</time></trkpt><trkpt lat="42.001735" lon="12.01091"><ele>11.0</ele><time>2026-04-04T08:35:53.114Z</time></trkpt><trkpt lat="42.0018567" lon="12.0107083"><ele>11.0</ele><time>2026-04-04T08:35:54.115Z</time></trkpt><trkpt lat="42.0019767" lon="12.01051"><ele>11.0</ele><time>2026-04-04T08:35:55.117Z</time></trkpt><trkpt lat="42.0020933" lon="12.0103067"><ele>11.0</ele><time>2026-04-04T08:35:56.116Z</time></trkpt><trkpt lat="42.00222" lon="12.0101117"><ele>11.0</ele><time>2026-04-04T08:35:57.119Z</time></trkpt><trkpt lat="42.002345" lon="12.0099117"><ele>11.0</ele><time>2026-04-04T08:35:58.114Z</time></trkpt><trkpt lat="42.0024717" lon="12.009715"><ele>11.0</ele><time>2026-04-04T08:35:59.118Z</time></trkpt><trkpt lat="42.0026" lon="12.0095183"><ele>11.0</ele><time>2026-04-04T08:36:00.12Z</time></trkpt><trkpt lat="42.0027267" lon="12.0093167"><ele>11.0</ele><time>2026-04-04T08:36:01.119Z</time></trkpt><trkpt lat="42.0028417" lon="12.00912"><ele>11.0</ele><time>2026-04-04T08:36:02.114Z</time></trkpt><trkpt lat="42.0029433" lon="12.0089217"><ele>11.0</ele><time>2026-04-04T08:36:03.118Z</time></trkpt><trkpt lat="42.003035" lon="12.00872"><ele>11.0</ele><time>2026-04-04T08:36:04.117Z</time></trkpt><trkpt lat="42.0031183" lon="12.0085117"><ele>11.0</ele><time>2026-04-04T08:36:05.115Z</time></trkpt><trkpt lat="42.0031933" lon="12.008295"><ele>11.0</ele><time>2026-04-04T08:36:06.118Z</time></trkpt><trkpt lat="42.0032583" lon="12.008075"><ele>11.0</ele><time>2026-04-04T08:36:07.12Z</time></trkpt><trkpt lat="42.0033133" lon="12.007855"><ele>11.0</ele><time>2026-04-04T08:36:08.119Z</time></trkpt><trkpt lat="42.0033633" lon="12.007625"><ele>11.0</ele><time>2026-04-04T08:36:09.119Z</time></trkpt><trkpt lat="42.0034" lon="12.0073817"><ele>11.0</ele><time>2026-04-04T08:36:10.119Z</time></trkpt><trkpt lat="42.0034333" lon="12.0071383"><ele>11.0</ele><time>2026-04-04T08:36:11.116Z</time></trkpt><trkpt lat="42.00346" lon="12.0068917"><ele>11.0</ele><time>2026-04-04T08:36:12.116Z</time></trkpt><trkpt lat="42.0034867" lon="12.0066367"><ele>11.333333333333332</ele><time>2026-04-04T08:36:13.12Z</time></trkpt><trkpt lat="42.00352" lon="12.00638"><ele>11.666666666666666</ele><time>2026-04-04T08:36:14.118Z</time></trkpt><trkpt lat="42.0035533" lon="12.0061233"><ele>12.0</ele><time>2026-04-04T08:36:15.114Z</time></trkpt><trkpt lat="42.003585" lon="12.005865"><ele>11.666666666666666</ele><time>2026-04-04T08:36:16.118Z</time></trkpt><trkpt lat="42.0036133" lon="12.0056117"><ele>11.333333333333332</ele><time>2026-04-04T08:36:17.114Z</time></trkpt><trkpt lat="42.0036383" lon="12.00535"><ele>11.0</ele><time>2026-04-04T08:36:18.119Z</time></trkpt><trkpt lat="42.003675" lon="12.0050867"><ele>10.666666666666666</ele><time>2026-04-04T08:36:19.121Z</time></trkpt><trkpt lat="42.0037167" lon="12.0048233"><ele>10.333333333333334</ele><time>2026-04-04T08:36:20.118Z</time></trkpt><trkpt lat="42.0037617" lon="12.00456"><ele>10.0</ele><time>2026-04-04T08:36:21.12Z</time></trkpt><trkpt lat="42.0038083" lon="12.0043"><ele>9.333333333333334</ele><time>2026-04-04T08:36:22.114Z</time></trkpt><trkpt lat="42.0038617" lon="12.0040417"><ele>8.666666666666666</ele><time>2026-04-04T08:36:23.118Z</time></trkpt><trkpt lat="42.0039183" lon="12.00378"><ele>8.0</ele><time>2026-04-04T08:36:24.115Z</time></trkpt><trkpt lat="42.0039783" lon="12.0035217"><ele>7.666666666666666</ele><time>2026-04-04T08:36:25.112Z</time></trkpt><trkpt lat="42.0040467" lon="12.00327"><ele>7.333333333333334</ele><time>2026-04-04T08:36:26.116Z</time></trkpt><trkpt lat="42.004105" lon="12.0030133"><ele>7.0</ele><time>2026-04-04T08:36:27.119Z</time></trkpt><trkpt lat="42.00418" lon="12.002755"><ele>7.0</ele><time>2026-04-04T08:36:28.115Z</time></trkpt><trkpt lat="42.00426" lon="12.0024983"><ele>7.0</ele><time>2026-04-04T08:36:29.118Z</time></trkpt><trkpt lat="42.0043467" lon="12.0022467"><ele>7.0</ele><time>2026-04-04T08:36:30.114Z</time></trkpt><trkpt lat="42.004435" lon="12.0020033"><ele>7.0</ele><time>2026-04-04T08:36:31.117Z</time></trkpt><trkpt lat="42.004525" lon="12.0017583"><ele>7.0</ele><time>2026-04-04T08:36:32.118Z</time></trkpt><trkpt lat="42.0046167" lon="12.0015217"><ele>7.0</ele><time>2026-04-04T08:36:33.118Z</time></trkpt><trkpt lat="42.00471" lon="12.00128"><ele>6.666666666666667</ele><time>2026-04-04T08:36:34.116Z</time></trkpt><trkpt lat="42.004805" lon="12.0010267"><ele>6.333333333333334</ele><time>2026-04-04T08:36:35.119Z</time></trkpt><trkpt lat="42.0049033" lon="12.0007767"><ele>6.0</ele><time>2026-04-04T08:36:36.12Z</time></trkpt><trkpt lat="42.0050033" lon="12.00053"><ele>6.0</ele><time>2026-04-04T08:36:37.119Z</time></trkpt><trkpt lat="42.0051083" lon="12.0002817"><ele>6.0</ele><time>2026-04-04T08:36:38.117Z</time></trkpt><trkpt lat="42.00521" lon="12.0000367"><ele>6.0</ele><time>2026-04-04T08:36:39.111Z</time></trkpt><trkpt lat="42.0053133" lon="11.9997867"><ele>6.0</ele><time>2026-04-04T08:36:40.117Z</time></trkpt><trkpt lat="42.0054117" lon="11.9995367"><ele>6.0</ele><time>2026-04-04T08:36:41.116Z</time></trkpt><trkpt lat="42.0055117" lon="11.9992933"><ele>6.0</ele><time>2026-04-04T08:36:42.117Z</time></trkpt><trkpt lat="42.00561" lon="11.9990433"><ele>5.666666666666667</ele><time>2026-04-04T08:36:43.117Z</time></trkpt><trkpt lat="42.0057067" lon="11.99879"><ele>5.333333333333334</ele><time>2026-04-04T08:36:44.116Z</time></trkpt><trkpt lat="42.005805" lon="11.9985383"><ele>5.0</ele><time>2026-04-04T08:36:45.118Z</time></trkpt><trkpt lat="42.0059067" lon="11.99829"><ele>5.0</ele><time>2026-04-04T08:36:46.118Z</time></trkpt><trkpt lat="42.00601" lon="11.9980433"><ele>5.0</ele><time>2026-04-04T08:36:47.117Z</time></trkpt><trkpt lat="42.0061117" lon="11.9978"><ele>5.0</ele><time>2026-04-04T08:36:48.115Z</time></trkpt><trkpt lat="42.006215" lon="11.9975567"><ele>5.333333333333334</ele><time>2026-04-04T08:36:49.118Z</time></trkpt><trkpt lat="42.006315" lon="11.99731"><ele>5.666666666666667</ele><time>2026-04-04T08:36:50.118Z</time></trkpt><trkpt lat="42.0064133" lon="11.997055"><ele>6.0</ele><time>2026-04-04T08:36:51.119Z</time></trkpt><trkpt lat="42.006515" lon="11.9968017"><ele>6.0</ele><time>2026-04-04T08:36:52.119Z</time></trkpt><trkpt lat="42.006615" lon="11.99655"><ele>6.0</ele><time>2026-04-04T08:36:53.115Z</time></trkpt><trkpt lat="42.0067167" lon="11.9963"><ele>6.0</ele><time>2026-04-04T08:36:54.119Z</time></trkpt><trkpt lat="42.006815" lon="11.996055"><ele>5.666666666666667</ele><time>2026-04-04T08:36:55.118Z</time></trkpt><trkpt lat="42.0069167" lon="11.9958067"><ele>5.333333333333334</ele><time>2026-04-04T08:36:56.119Z</time></trkpt><trkpt lat="42.0070233" lon="11.9955583"><ele>5.0</ele><time>2026-04-04T08:36:57.118Z</time></trkpt><trkpt lat="42.0071283" lon="11.9953067"><ele>5.0</ele><time>2026-04-04T08:36:58.117Z</time></trkpt><trkpt lat="42.007235" lon="11.9950517"><ele>5.0</ele><time>2026-04-04T08:36:59.118Z</time></trkpt><trkpt lat="42.0073433" lon="11.99479"><ele>5.0</ele><time>2026-04-04T08:37:00.117Z</time></trkpt><trkpt lat="42.0074533" lon="11.9945333"><ele>5.666666666666667</ele><time>2026-04-04T08:37:01.116Z</time></trkpt><trkpt lat="42.0075617" lon="11.9942767"><ele>6.333333333333334</ele><time>2026-04-04T08:37:02.118Z</time></trkpt><trkpt lat="42.0076667" lon="11.9940233"><ele>7.0</ele><time>2026-04-04T08:37:03.111Z</time></trkpt><trkpt lat="42.007775" lon="11.99377"><ele>7.0</ele><time>2026-04-04T08:37:04.119Z</time></trkpt><trkpt lat="42.00788" lon="11.9935167"><ele>7.0</ele><time>2026-04-04T08:37:05.117Z</time></trkpt><trkpt lat="42.0079867" lon="11.993265"><ele>7.0</ele><time>2026-04-04T08:37:06.115Z</time></trkpt><trkpt lat="42.0080917" lon="11.993015"><ele>6.666666666666667</ele><time>2026-04-04T08:37:07.118Z</time></trkpt><trkpt lat="42.0081983" lon="11.9927567"><ele>6.333333333333334</ele><time>2026-04-04T08:37:08.119Z</time></trkpt><trkpt lat="42.0083017" lon="11.99249"><ele>6.0</ele><time>2026-04-04T08:37:09.118Z</time></trkpt><trkpt lat="42.0084117" lon="11.9922217"><ele>6.0</ele><time>2026-04-04T08:37:10.119Z</time></trkpt><trkpt lat="42.0085183" lon="11.9919517"><ele>6.0</ele><time>2026-04-04T08:37:11.114Z</time></trkpt><trkpt lat="42.008625" lon="11.9916767"><ele>5.5</ele><time>2026-04-04T08:37:12.119Z</time></trkpt><trkpt lat="42.008735" lon="11.9914017"><ele>5.0</ele><time>2026-04-04T08:37:13.115Z</time></trkpt><trkpt lat="42.008845" lon="11.9911317"><ele>5.0</ele><time>2026-04-04T08:37:14.117Z</time></trkpt><trkpt lat="42.0089567" lon="11.9908583"><ele>5.0</ele><time>2026-04-04T08:37:15.115Z</time></trkpt><trkpt lat="42.0090733" lon="11.9905767"><ele>6.0</ele><time>2026-04-04T08:37:16.11Z</time></trkpt><trkpt lat="42.009195" lon="11.99028"><ele>7.0</ele><time>2026-04-04T08:37:17.119Z</time></trkpt><trkpt lat="42.009325" lon="11.9899817"><ele>7.5</ele><time>2026-04-04T08:37:18.12Z</time></trkpt><trkpt lat="42.0094617" lon="11.9896767"><ele>8.0</ele><time>2026-04-04T08:37:19.115Z</time></trkpt><trkpt lat="42.0096017" lon="11.9893683"><ele>7.5</ele><time>2026-04-04T08:37:20.118Z</time></trkpt><trkpt lat="42.0097333" lon="11.9890667"><ele>7.0</ele><time>2026-04-04T08:37:21.117Z</time></trkpt><trkpt lat="42.009865" lon="11.9887767"><ele>7.0</ele><time>2026-04-04T08:37:22.12Z</time></trkpt><trkpt lat="42.0099967" lon="11.9884933"><ele>7.0</ele><time>2026-04-04T08:37:23.116Z</time></trkpt><trkpt lat="42.0101233" lon="11.988205"><ele>7.0</ele><time>2026-04-04T08:37:24.118Z</time></trkpt><trkpt lat="42.010255" lon="11.98792"><ele>7.0</ele><time>2026-04-04T08:37:25.118Z</time></trkpt><trkpt lat="42.0103867" lon="11.9876333"><ele>6.0</ele><time>2026-04-04T08:37:26.115Z</time></trkpt><trkpt lat="42.010525" lon="11.9873533"><ele>5.0</ele><time>2026-04-04T08:37:27.121Z</time></trkpt><trkpt lat="42.01066" lon="11.9870717"><ele>5.0</ele><time>2026-04-04T08:37:28.114Z</time></trkpt><trkpt lat="42.0108" lon="11.98679"><ele>5.0</ele><time>2026-04-04T08:37:29.118Z</time></trkpt><trkpt lat="42.0109367" lon="11.986505"><ele>6.0</ele><time>2026-04-04T08:37:30.116Z</time></trkpt><trkpt lat="42.0110683" lon="11.986215"><ele>7.0</ele><time>2026-04-04T08:37:31.118Z</time></trkpt><trkpt lat="42.0111983" lon="11.9859183"><ele>6.0</ele><time>2026-04-04T08:37:32.115Z</time></trkpt><trkpt lat="42.0113267" lon="11.9856183"><ele>5.0</ele><time>2026-04-04T08:37:33.119Z</time></trkpt><trkpt lat="42.0114483" lon="11.98531"><ele>5.0</ele><time>2026-04-04T08:37:34.116Z</time></trkpt><trkpt lat="42.01157" lon="11.985"><ele>5.0</ele><time>2026-04-04T08:37:35.119Z</time></trkpt><trkpt lat="42.0116917" lon="11.98469"><ele>5.0</ele><time>2026-04-04T08:37:36.119Z</time></trkpt><trkpt lat="42.0118133" lon="11.9843867"><ele>5.0</ele><time>2026-04-04T08:37:37.118Z</time></trkpt><trkpt lat="42.0119317" lon="11.9840917"><ele>4.5</ele><time>2026-04-04T08:37:38.118Z</time></trkpt><trkpt lat="42.0120483" lon="11.983805"><ele>4.0</ele><time>2026-04-04T08:37:39.116Z</time></trkpt><trkpt lat="42.012165" lon="11.98352"><ele>4.0</ele><time>2026-04-04T08:37:40.111Z</time></trkpt><trkpt lat="42.01228" lon="11.9832317"><ele>4.0</ele><time>2026-04-04T08:37:41.115Z</time></trkpt><trkpt lat="42.0123933" lon="11.9829467"><ele>5.0</ele><time>2026-04-04T08:37:42.119Z</time></trkpt><trkpt lat="42.0125083" lon="11.982665"><ele>6.0</ele><time>2026-04-04T08:37:43.119Z</time></trkpt><trkpt lat="42.0126267" lon="11.982385"><ele>6.5</ele><time>2026-04-04T08:37:44.116Z</time></trkpt><trkpt lat="42.012745" lon="11.9821"><ele>7.0</ele><time>2026-04-04T08:37:45.117Z</time></trkpt><trkpt lat="42.012865" lon="11.9818117"><ele>7.0</ele><time>2026-04-04T08:37:46.117Z</time></trkpt><trkpt lat="42.0129733" lon="11.9815217"><ele>7.0</ele><time>2026-04-04T08:37:47.116Z</time></trkpt><trkpt lat="42.0130867" lon="11.9812367"><ele>7.0</ele><time>2026-04-04T08:37:48.119Z</time></trkpt><trkpt lat="42.0131983" lon="11.9809567"><ele>7.0</ele><time>2026-04-04T08:37:49.117Z</time></trkpt><trkpt lat="42.0133117" lon="11.98068"><ele>7.5</ele><time>2026-04-04T08:37:50.115Z</time></trkpt><trkpt lat="42.0134283" lon="11.9804067"><ele>8.0</ele><time>2026-04-04T08:37:51.118Z</time></trkpt><trkpt lat="42.0135483" lon="11.9801283"><ele>7.5</ele><time>2026-04-04T08:37:52.116Z</time></trkpt><trkpt lat="42.0136667" lon="11.9798533"><ele>7.0</ele><time>2026-04-04T08:37:53.118Z</time></trkpt><trkpt lat="42.0137833" lon="11.9795783"><ele>7.0</ele><time>2026-04-04T08:37:54.119Z</time></trkpt><trkpt lat="42.0139033" lon="11.9792983"><ele>7.0</ele><time>2026-04-04T08:37:55.119Z</time></trkpt><trkpt lat="42.014025" lon="11.9790133"><ele>7.5</ele><time>2026-04-04T08:37:56.115Z</time></trkpt><trkpt lat="42.014145" lon="11.978725"><ele>8.0</ele><time>2026-04-04T08:37:57.114Z</time></trkpt><trkpt lat="42.0142633" lon="11.9784383"><ele>7.5</ele><time>2026-04-04T08:37:58.116Z</time></trkpt><trkpt lat="42.0143833" lon="11.978155"><ele>7.0</ele><time>2026-04-04T08:37:59.119Z</time></trkpt><trkpt lat="42.0145033" lon="11.9778717"><ele>7.0</ele><time>2026-04-04T08:38:00.117Z</time></trkpt><trkpt lat="42.0146183" lon="11.977585"><ele>7.0</ele><time>2026-04-04T08:38:01.115Z</time></trkpt><trkpt lat="42.014735" lon="11.9773033"><ele>7.0</ele><time>2026-04-04T08:38:02.117Z</time></trkpt><trkpt lat="42.0148417" lon="11.9770267"><ele>7.0</ele><time>2026-04-04T08:38:03.116Z</time></trkpt><trkpt lat="42.0149467" lon="11.97675"><ele>8.0</ele><time>2026-04-04T08:38:04.116Z</time></trkpt><trkpt lat="42.0150567" lon="11.97647"><ele>9.0</ele><time>2026-04-04T08:38:05.117Z</time></trkpt><trkpt lat="42.0151633" lon="11.9761833"><ele>9.0</ele><time>2026-04-04T08:38:06.116Z</time></trkpt><trkpt lat="42.0152617" lon="11.97589"><ele>9.0</ele><time>2026-04-04T08:38:07.114Z</time></trkpt><trkpt lat="42.01536" lon="11.9755983"><ele>9.0</ele><time>2026-04-04T08:38:08.118Z</time></trkpt><trkpt lat="42.0154667" lon="11.9753167"><ele>9.0</ele><time>2026-04-04T08:38:09.119Z</time></trkpt><trkpt lat="42.0155733" lon="11.9750367"><ele>9.5</ele><time>2026-04-04T08:38:10.117Z</time></trkpt><trkpt lat="42.0156817" lon="11.9747483"><ele>10.0</ele><time>2026-04-04T08:38:11.118Z</time></trkpt><trkpt lat="42.01578" lon="11.9744567"><ele>9.0</ele><time>2026-04-04T08:38:12.119Z</time></trkpt><trkpt lat="42.0158817" lon="11.9741683"><ele>8.0</ele><time>2026-04-04T08:38:13.109Z</time></trkpt><trkpt lat="42.01599" lon="11.9738867"><ele>8.0</ele><time>2026-04-04T08:38:14.119Z</time></trkpt><trkpt lat="42.0160983" lon="11.9736033"><ele>8.0</ele><time>2026-04-04T08:38:15.118Z</time></trkpt><trkpt lat="42.0162083" lon="11.973325"><ele>7.0</ele><time>2026-04-04T08:38:16.115Z</time></trkpt><trkpt lat="42.0163183" lon="11.9730517"><ele>6.0</ele><time>2026-04-04T08:38:17.118Z</time></trkpt><trkpt lat="42.0164267" lon="11.9727917"><ele>6.0</ele><time>2026-04-04T08:38:18.117Z</time></trkpt><trkpt lat="42.016535" lon="11.9725367"><ele>6.0</ele><time>2026-04-04T08:38:19.116Z</time></trkpt><trkpt lat="42.0166417" lon="11.9722733"><ele>6.0</ele><time>2026-04-04T08:38:20.116Z</time></trkpt><trkpt lat="42.0167517" lon="11.9720133"><ele>6.333333333333334</ele><time>2026-04-04T08:38:21.118Z</time></trkpt><trkpt lat="42.0168617" lon="11.9717583"><ele>6.666666666666667</ele><time>2026-04-04T08:38:22.118Z</time></trkpt><trkpt lat="42.0169667" lon="11.971505"><ele>7.0</ele><time>2026-04-04T08:38:23.12Z</time></trkpt><trkpt lat="42.0170633" lon="11.971265"><ele>7.0</ele><time>2026-04-04T08:38:24.118Z</time></trkpt><trkpt lat="42.017155" lon="11.97103"><ele>7.0</ele><time>2026-04-04T08:38:25.119Z</time></trkpt><trkpt lat="42.01725" lon="11.9708017"><ele>7.0</ele><time>2026-04-04T08:38:26.117Z</time></trkpt><trkpt lat="42.0173383" lon="11.97057"><ele>8.0</ele><time>2026-04-04T08:38:27.118Z</time></trkpt><trkpt lat="42.0174283" lon="11.970345"><ele>9.0</ele><time>2026-04-04T08:38:28.119Z</time></trkpt><trkpt lat="42.0175317" lon="11.970125"><ele>10.0</ele><time>2026-04-04T08:38:29.115Z</time></trkpt><trkpt lat="42.01764" lon="11.9698917"><ele>10.0</ele><time>2026-04-04T08:38:30.117Z</time></trkpt><trkpt lat="42.0177433" lon="11.9696567"><ele>10.0</ele><time>2026-04-04T08:38:31.116Z</time></trkpt><trkpt lat="42.017845" lon="11.9694217"><ele>10.0</ele><time>2026-04-04T08:38:32.117Z</time></trkpt><trkpt lat="42.01795" lon="11.9691883"><ele>9.333333333333334</ele><time>2026-04-04T08:38:33.111Z</time></trkpt><trkpt lat="42.0180567" lon="11.96896"><ele>8.666666666666666</ele><time>2026-04-04T08:38:34.112Z</time></trkpt><trkpt lat="42.0181633" lon="11.968725"><ele>8.0</ele><time>2026-04-04T08:38:35.118Z</time></trkpt><trkpt lat="42.0182683" lon="11.9684833"><ele>8.333333333333332</ele><time>2026-04-04T08:38:36.115Z</time></trkpt><trkpt lat="42.0183767" lon="11.9682433"><ele>8.666666666666666</ele><time>2026-04-04T08:38:37.119Z</time></trkpt><trkpt lat="42.0184817" lon="11.9680017"><ele>9.0</ele><time>2026-04-04T08:38:38.119Z</time></trkpt><trkpt lat="42.0185867" lon="11.9677667"><ele>9.0</ele><time>2026-04-04T08:38:39.118Z</time></trkpt><trkpt lat="42.018685" lon="11.9675317"><ele>9.0</ele><time>2026-04-04T08:38:40.115Z</time></trkpt><trkpt lat="42.0187867" lon="11.9672967"><ele>9.0</ele><time>2026-04-04T08:38:41.117Z</time></trkpt><trkpt lat="42.018885" lon="11.967065"><ele>8.333333333333334</ele><time>2026-04-04T08:38:42.116Z</time></trkpt><trkpt lat="42.0189833" lon="11.9668467"><ele>7.666666666666667</ele><time>2026-04-04T08:38:43.116Z</time></trkpt><trkpt lat="42.019075" lon="11.9666417"><ele>7.0</ele><time>2026-04-04T08:38:44.118Z</time></trkpt><trkpt lat="42.0191667" lon="11.966435"><ele>7.0</ele><time>2026-04-04T08:38:45.116Z</time></trkpt><trkpt lat="42.0192583" lon="11.96622"><ele>7.0</ele><time>2026-04-04T08:38:46.116Z</time></trkpt><trkpt lat="42.0193367" lon="11.9659983"><ele>7.0</ele><time>2026-04-04T08:38:47.115Z</time></trkpt><trkpt lat="42.0194133" lon="11.96578"><ele>7.0</ele><time>2026-04-04T08:38:48.119Z</time></trkpt><trkpt lat="42.019495" lon="11.9655683"><ele>7.0</ele><time>2026-04-04T08:38:49.119Z</time></trkpt><trkpt lat="42.0195717" lon="11.9653483"><ele>7.0</ele><time>2026-04-04T08:38:50.118Z</time></trkpt><trkpt lat="42.0196417" lon="11.9651383"><ele>6.666666666666667</ele><time>2026-04-04T08:38:51.118Z</time></trkpt><trkpt lat="42.0197117" lon="11.96493"><ele>6.333333333333334</ele><time>2026-04-04T08:38:52.118Z</time></trkpt><trkpt lat="42.0197833" lon="11.964725"><ele>6.0</ele><time>2026-04-04T08:38:53.11Z</time></trkpt><trkpt lat="42.019855" lon="11.9645233"><ele>6.0</ele><time>2026-04-04T08:38:54.11Z</time></trkpt><trkpt lat="42.0199217" lon="11.9643167"><ele>6.0</ele><time>2026-04-04T08:38:55.11Z</time></trkpt><trkpt lat="42.01999" lon="11.96412"><ele>6.0</ele><time>2026-04-04T08:38:56.11Z</time></trkpt><trkpt lat="42.0200567" lon="11.9639367"><ele>6.333333333333334</ele><time>2026-04-04T08:38:57.117Z</time></trkpt><trkpt lat="42.0201283" lon="11.963745"><ele>6.666666666666667</ele><time>2026-04-04T08:38:58.115Z</time></trkpt><trkpt lat="42.020205" lon="11.9635483"><ele>7.0</ele><time>2026-04-04T08:38:59.115Z</time></trkpt><trkpt lat="42.0202817" lon="11.963345"><ele>7.0</ele><time>2026-04-04T08:39:00.117Z</time></trkpt><trkpt lat="42.0203583" lon="11.96314"><ele>7.0</ele><time>2026-04-04T08:39:01.118Z</time></trkpt><trkpt lat="42.0204383" lon="11.9629433"><ele>7.0</ele><time>2026-04-04T08:39:02.115Z</time></trkpt><trkpt lat="42.020515" lon="11.9627583"><ele>7.0</ele><time>2026-04-04T08:39:03.117Z</time></trkpt><trkpt lat="42.0205833" lon="11.9625683"><ele>7.0</ele><time>2026-04-04T08:39:04.116Z</time></trkpt><trkpt lat="42.0206567" lon="11.962385"><ele>7.0</ele><time>2026-04-04T08:39:05.115Z</time></trkpt><trkpt lat="42.02073" lon="11.9622183"><ele>6.666666666666667</ele><time>2026-04-04T08:39:06.117Z</time></trkpt><trkpt lat="42.020795" lon="11.9620433"><ele>6.333333333333334</ele><time>2026-04-04T08:39:07.116Z</time></trkpt><trkpt lat="42.0208667" lon="11.9618517"><ele>6.0</ele><time>2026-04-04T08:39:08.117Z</time></trkpt><trkpt lat="42.0209367" lon="11.9616517"><ele>5.666666666666667</ele><time>2026-04-04T08:39:09.118Z</time></trkpt><trkpt lat="42.0210083" lon="11.9614517"><ele>5.333333333333334</ele><time>2026-04-04T08:39:10.116Z</time></trkpt><trkpt lat="42.0210883" lon="11.9612583"><ele>5.0</ele><time>2026-04-04T08:39:11.114Z</time></trkpt><trkpt lat="42.0211683" lon="11.961055"><ele>4.666666666666667</ele><time>2026-04-04T08:39:12.117Z</time></trkpt><trkpt lat="42.02125" lon="11.9608483"><ele>4.333333333333333</ele><time>2026-04-04T08:39:13.112Z</time></trkpt><trkpt lat="42.0213317" lon="11.9606367"><ele>4.0</ele><time>2026-04-04T08:39:14.118Z</time></trkpt><trkpt lat="42.0214117" lon="11.9604283"><ele>4.0</ele><time>2026-04-04T08:39:15.118Z</time></trkpt><trkpt lat="42.02149" lon="11.960235"><ele>4.0</ele><time>2026-04-04T08:39:16.117Z</time></trkpt><trkpt lat="42.0215683" lon="11.9600333"><ele>4.0</ele><time>2026-04-04T08:39:17.114Z</time></trkpt><trkpt lat="42.0216483" lon="11.9598367"><ele>5.666666666666666</ele><time>2026-04-04T08:39:18.116Z</time></trkpt><trkpt lat="42.0217267" lon="11.95965"><ele>7.333333333333333</ele><time>2026-04-04T08:39:19.117Z</time></trkpt><trkpt lat="42.0218017" lon="11.959465"><ele>9.0</ele><time>2026-04-04T08:39:20.117Z</time></trkpt><trkpt lat="42.0218767" lon="11.9592817"><ele>9.333333333333334</ele><time>2026-04-04T08:39:21.118Z</time></trkpt><trkpt lat="42.0219533" lon="11.9590883"><ele>9.666666666666668</ele><time>2026-04-04T08:39:22.113Z</time></trkpt><trkpt lat="42.02203" lon="11.958895"><ele>10.0</ele><time>2026-04-04T08:39:23.116Z</time></trkpt><trkpt lat="42.0221067" lon="11.9587067"><ele>10.0</ele><time>2026-04-04T08:39:24.116Z</time></trkpt><trkpt lat="42.0221783" lon="11.958525"><ele>10.0</ele><time>2026-04-04T08:39:25.119Z</time></trkpt><trkpt lat="42.0222517" lon="11.95835"><ele>10.0</ele><time>2026-04-04T08:39:26.116Z</time></trkpt><trkpt lat="42.0223167" lon="11.9581817"><ele>10.0</ele><time>2026-04-04T08:39:27.119Z</time></trkpt><trkpt lat="42.0223817" lon="11.9580133"><ele>10.0</ele><time>2026-04-04T08:39:28.114Z</time></trkpt><trkpt lat="42.0224517" lon="11.95784"><ele>10.0</ele><time>2026-04-04T08:39:29.117Z</time></trkpt><trkpt lat="42.02252" lon="11.957665"><ele>10.0</ele><time>2026-04-04T08:39:30.118Z</time></trkpt><trkpt lat="42.0225917" lon="11.9574867"><ele>10.0</ele><time>2026-04-04T08:39:31.117Z</time></trkpt><trkpt lat="42.0226667" lon="11.9573033"><ele>10.0</ele><time>2026-04-04T08:39:32.118Z</time></trkpt><trkpt lat="42.0227433" lon="11.9571267"><ele>10.0</ele><time>2026-04-04T08:39:33.118Z</time></trkpt><trkpt lat="42.022815" lon="11.95695"><ele>10.0</ele><time>2026-04-04T08:39:34.114Z</time></trkpt><trkpt lat="42.0228883" lon="11.9567783"><ele>10.0</ele><time>2026-04-04T08:39:35.114Z</time></trkpt><trkpt lat="42.0229517" lon="11.956605"><ele>10.0</ele><time>2026-04-04T08:39:36.118Z</time></trkpt><trkpt lat="42.0230083" lon="11.9564483"><ele>10.0</ele><time>2026-04-04T08:39:37.12Z</time></trkpt><trkpt lat="42.02306" lon="11.9563017"><ele>10.0</ele><time>2026-04-04T08:39:38.115Z</time></trkpt><trkpt lat="42.02311" lon="11.956175"><ele>10.0</ele><time>2026-04-04T08:39:39.117Z</time></trkpt><trkpt lat="42.023155" lon="11.9560567"><ele>10.0</ele><time>2026-04-04T08:39:40.116Z</time></trkpt><trkpt lat="42.0232017" lon="11.9559467"><ele>10.0</ele><time>2026-04-04T08:39:41.115Z</time></trkpt><trkpt lat="42.0232533" lon="11.9558233"><ele>10.0</ele><time>2026-04-04T08:39:42.116Z</time></trkpt><trkpt lat="42.023305" lon="11.9556867"><ele>10.0</ele><time>2026-04-04T08:39:43.115Z</time></trkpt><trkpt lat="42.0233483" lon="11.9555567"><ele>10.0</ele><time>2026-04-04T08:39:44.115Z</time></trkpt><trkpt lat="42.0233933" lon="11.9554383"><ele>9.833333333333334</ele><time>2026-04-04T08:39:45.118Z</time></trkpt><trkpt lat="42.0234367" lon="11.9553367"><ele>9.666666666666668</ele><time>2026-04-04T08:39:46.118Z</time></trkpt><trkpt lat="42.0234733" lon="11.9552383"><ele>9.5</ele><time>2026-04-04T08:39:47.114Z</time></trkpt><trkpt lat="42.0235033" lon="11.95516"><ele>9.333333333333334</ele><time>2026-04-04T08:39:48.12Z</time></trkpt><trkpt lat="42.023535" lon="11.9550167"><ele>9.166666666666666</ele><time>2026-04-04T08:39:50.115Z</time></trkpt><trkpt lat="42.0235317" lon="11.9551033"><ele>9.0</ele><time>2026-04-04T08:40:25.118Z</time></trkpt><trkpt lat="42.0234783" lon="11.9552433"><ele>9.0</ele><time>2026-04-04T08:40:27.117Z</time></trkpt><trkpt lat="42.02344" lon="11.95532"><ele>9.0</ele><time>2026-04-04T08:40:28.116Z</time></trkpt><trkpt lat="42.0233983" lon="11.9554117"><ele>9.0</ele><time>2026-04-04T08:40:29.116Z</time></trkpt><trkpt lat="42.0233533" lon="11.95552"><ele>9.0</ele><time>2026-04-04T08:40:30.116Z</time></trkpt><trkpt lat="42.023305" lon="11.9556383"><ele>9.0</ele><time>2026-04-04T08:40:31.118Z</time></trkpt><trkpt lat="42.0232533" lon="11.955755"><ele>9.0</ele><time>2026-04-04T08:40:32.114Z</time></trkpt><trkpt lat="42.023195" lon="11.955885"><ele>9.25</ele><time>2026-04-04T08:40:33.117Z</time></trkpt><trkpt lat="42.023135" lon="11.95603"><ele>9.5</ele><time>2026-04-04T08:40:34.116Z</time></trkpt><trkpt lat="42.023075" lon="11.9561867"><ele>9.75</ele><time>2026-04-04T08:40:35.117Z</time></trkpt><trkpt lat="42.0230117" lon="11.9563383"><ele>10.0</ele><time>2026-04-04T08:40:36.118Z</time></trkpt><trkpt lat="42.0229417" lon="11.9564983"><ele>10.0</ele><time>2026-04-04T08:40:37.119Z</time></trkpt><trkpt lat="42.0228683" lon="11.95667"><ele>10.0</ele><time>2026-04-04T08:40:38.116Z</time></trkpt><trkpt lat="42.0227933" lon="11.9568467"><ele>10.0</ele><time>2026-04-04T08:40:39.118Z</time></trkpt><trkpt lat="42.02272" lon="11.95703"><ele>10.0</ele><time>2026-04-04T08:40:40.116Z</time></trkpt><trkpt lat="42.0226517" lon="11.957215"><ele>10.0</ele><time>2026-04-04T08:40:41.11Z</time></trkpt><trkpt lat="42.022585" lon="11.95739"><ele>10.0</ele><time>2026-04-04T08:40:42.115Z</time></trkpt><trkpt lat="42.0225167" lon="11.9575667"><ele>10.0</ele><time>2026-04-04T08:40:43.117Z</time></trkpt><trkpt lat="42.0224483" lon="11.95774"><ele>10.0</ele><time>2026-04-04T08:40:44.118Z</time></trkpt><trkpt lat="42.022375" lon="11.9579133"><ele>10.0</ele><time>2026-04-04T08:40:45.12Z</time></trkpt><trkpt lat="42.0222983" lon="11.9580933"><ele>10.0</ele><time>2026-04-04T08:40:46.115Z</time></trkpt><trkpt lat="42.02222" lon="11.9582717"><ele>10.0</ele><time>2026-04-04T08:40:47.116Z</time></trkpt><trkpt lat="42.022145" lon="11.9584533"><ele>10.0</ele><time>2026-04-04T08:40:48.117Z</time></trkpt><trkpt lat="42.0220717" lon="11.958635"><ele>10.0</ele><time>2026-04-04T08:40:49.119Z</time></trkpt><trkpt lat="42.0220033" lon="11.95881"><ele>10.0</ele><time>2026-04-04T08:40:50.118Z</time></trkpt><trkpt lat="42.0219317" lon="11.95898"><ele>10.0</ele><time>2026-04-04T08:40:51.117Z</time></trkpt><trkpt lat="42.0218583" lon="11.9591583"><ele>10.0</ele><time>2026-04-04T08:40:52.117Z</time></trkpt><trkpt lat="42.0217833" lon="11.959335"><ele>10.0</ele><time>2026-04-04T08:40:53.116Z</time></trkpt><trkpt lat="42.0217083" lon="11.9595117"><ele>8.75</ele><time>2026-04-04T08:40:54.117Z</time></trkpt><trkpt lat="42.0216383" lon="11.95969"><ele>7.5</ele><time>2026-04-04T08:40:55.117Z</time></trkpt><trkpt lat="42.0215683" lon="11.9598717"><ele>6.25</ele><time>2026-04-04T08:40:56.119Z</time></trkpt><trkpt lat="42.0215" lon="11.960045"><ele>5.0</ele><time>2026-04-04T08:40:57.119Z</time></trkpt><trkpt lat="42.0214333" lon="11.9602167"><ele>4.75</ele><time>2026-04-04T08:40:58.113Z</time></trkpt><trkpt lat="42.0213683" lon="11.9603767"><ele>4.5</ele><time>2026-04-04T08:40:59.114Z</time></trkpt><trkpt lat="42.0213067" lon="11.9605317"><ele>4.25</ele><time>2026-04-04T08:41:00.117Z</time></trkpt><trkpt lat="42.0212433" lon="11.960685"><ele>4.0</ele><time>2026-04-04T08:41:01.118Z</time></trkpt><trkpt lat="42.0211817" lon="11.9608433"><ele>4.25</ele><time>2026-04-04T08:41:02.117Z</time></trkpt><trkpt lat="42.0211183" lon="11.961"><ele>4.5</ele><time>2026-04-04T08:41:03.119Z</time></trkpt><trkpt lat="42.0210567" lon="11.9611517"><ele>4.75</ele><time>2026-04-04T08:41:04.115Z</time></trkpt><trkpt lat="42.0209983" lon="11.961295"><ele>5.0</ele><time>2026-04-04T08:41:05.115Z</time></trkpt><trkpt lat="42.020945" lon="11.9614333"><ele>5.0</ele><time>2026-04-04T08:41:06.114Z</time></trkpt><trkpt lat="42.0208933" lon="11.9615617"><ele>5.0</ele><time>2026-04-04T08:41:07.118Z</time></trkpt><trkpt lat="42.0208467" lon="11.9616833"><ele>5.0</ele><time>2026-04-04T08:41:08.117Z</time></trkpt><trkpt lat="42.0208033" lon="11.9617867"><ele>5.0</ele><time>2026-04-04T08:41:09.118Z</time></trkpt><trkpt lat="42.0207617" lon="11.9618833"><ele>5.0</ele><time>2026-04-04T08:41:10.118Z</time></trkpt><trkpt lat="42.0207183" lon="11.9619767"><ele>5.2</ele><time>2026-04-04T08:41:11.114Z</time></trkpt><trkpt lat="42.02068" lon="11.962065"><ele>5.4</ele><time>2026-04-04T08:41:12.117Z</time></trkpt><trkpt lat="42.0206417" lon="11.9621417"><ele>5.6</ele><time>2026-04-04T08:41:13.11Z</time></trkpt><trkpt lat="42.0205767" lon="11.9622817"><ele>5.8</ele><time>2026-04-04T08:41:15.116Z</time></trkpt><trkpt lat="42.0204983" lon="11.962355"><ele>6.0</ele><time>2026-04-04T08:41:17.116Z</time></trkpt><trkpt lat="42.020395" lon="11.96233"><ele>6.0</ele><time>2026-04-04T08:41:19.116Z</time></trkpt><trkpt lat="42.020335" lon="11.962275"><ele>6.0</ele><time>2026-04-04T08:41:20.115Z</time></trkpt><trkpt lat="42.0202667" lon="11.9622133"><ele>6.0</ele><time>2026-04-04T08:41:21.119Z</time></trkpt><trkpt lat="42.0201967" lon="11.962145"><ele>6.0</ele><time>2026-04-04T08:41:22.117Z</time></trkpt><trkpt lat="42.020125" lon="11.9620717"><ele>6.0</ele><time>2026-04-04T08:41:23.116Z</time></trkpt><trkpt lat="42.0200467" lon="11.9619933"><ele>6.0</ele><time>2026-04-04T08:41:24.116Z</time></trkpt><trkpt lat="42.019965" lon="11.9619083"><ele>5.8</ele><time>2026-04-04T08:41:25.118Z</time></trkpt><trkpt lat="42.0198817" lon="11.9618233"><ele>5.6</ele><time>2026-04-04T08:41:26.115Z</time></trkpt><trkpt lat="42.0197917" lon="11.9617317"><ele>5.4</ele><time>2026-04-04T08:41:27.119Z</time></trkpt><trkpt lat="42.0197017" lon="11.9616433"><ele>5.2</ele><time>2026-04-04T08:41:28.116Z</time></trkpt><trkpt lat="42.0196167" lon="11.9615517"><ele>5.0</ele><time>2026-04-04T08:41:29.117Z</time></trkpt><trkpt lat="42.0195267" lon="11.961455"><ele>5.0</ele><time>2026-04-04T08:41:30.115Z</time></trkpt><trkpt lat="42.0194367" lon="11.961355"><ele>5.0</ele><time>2026-04-04T08:41:31.115Z</time></trkpt><trkpt lat="42.0193367" lon="11.9612567"><ele>5.0</ele><time>2026-04-04T08:41:32.114Z</time></trkpt><trkpt lat="42.0192383" lon="11.9611533"><ele>5.0</ele><time>2026-04-04T08:41:33.118Z</time></trkpt><trkpt lat="42.0191367" lon="11.96105"><ele>5.0</ele><time>2026-04-04T08:41:34.117Z</time></trkpt><trkpt lat="42.0190367" lon="11.9609433"><ele>5.0</ele><time>2026-04-04T08:41:35.116Z</time></trkpt><trkpt lat="42.0189383" lon="11.9608417"><ele>5.0</ele><time>2026-04-04T08:41:36.117Z</time></trkpt><trkpt lat="42.018835" lon="11.9607417"><ele>5.0</ele><time>2026-04-04T08:41:37.117Z</time></trkpt><trkpt lat="42.0187333" lon="11.9606417"><ele>5.0</ele><time>2026-04-04T08:41:38.117Z</time></trkpt><trkpt lat="42.0186367" lon="11.9605467"><ele>5.0</ele><time>2026-04-04T08:41:39.117Z</time></trkpt><trkpt lat="42.0185417" lon="11.9604667"><ele>5.0</ele><time>2026-04-04T08:41:40.116Z</time></trkpt><trkpt lat="42.0184517" lon="11.960375"><ele>5.0</ele><time>2026-04-04T08:41:41.115Z</time></trkpt><trkpt lat="42.0183633" lon="11.9602917"><ele>4.8</ele><time>2026-04-04T08:41:42.119Z</time></trkpt><trkpt lat="42.0182833" lon="11.9602133"><ele>4.6</ele><time>2026-04-04T08:41:43.118Z</time></trkpt><trkpt lat="42.018205" lon="11.9601333"><ele>4.4</ele><time>2026-04-04T08:41:44.116Z</time></trkpt><trkpt lat="42.0181367" lon="11.9600633"><ele>4.2</ele><time>2026-04-04T08:41:45.119Z</time></trkpt><trkpt lat="42.018085" lon="11.9600017"><ele>4.0</ele><time>2026-04-04T08:41:46.114Z</time></trkpt><trkpt lat="42.0179967" lon="11.95991"><ele>3.9999999999999996</ele><time>2026-04-04T08:41:48.115Z</time></trkpt><trkpt lat="42.0179367" lon="11.959845"><ele>4.0</ele><time>2026-04-04T08:41:50.115Z</time></trkpt><trkpt lat="42.0178767" lon="11.9597717"><ele>4.0</ele><time>2026-04-04T08:41:53.116Z</time></trkpt><trkpt lat="42.017775" lon="11.95968"><ele>4.0</ele><time>2026-04-04T08:42:09.117Z</time></trkpt><trkpt lat="42.0177183" lon="11.9596383"><ele>3.9999999999999996</ele><time>2026-04-04T08:42:12.117Z</time></trkpt><trkpt lat="42.0176367" lon="11.9595733"><ele>4.0</ele><time>2026-04-04T08:42:15.113Z</time></trkpt><trkpt lat="42.017575" lon="11.9595067"><ele>3.9999999999999996</ele><time>2026-04-04T08:42:18.114Z</time></trkpt><trkpt lat="42.0175" lon="11.9594383"><ele>4.0</ele><time>2026-04-04T08:42:21.116Z</time></trkpt><trkpt lat="42.0174467" lon="11.9593883"><ele>4.0</ele><time>2026-04-04T08:42:23.116Z</time></trkpt><trkpt lat="42.017385" lon="11.95935"><ele>4.0</ele><time>2026-04-04T08:42:27.118Z</time></trkpt><trkpt lat="42.0173267" lon="11.95939"><ele>3.9999999999999996</ele><time>2026-04-04T08:42:34.116Z</time></trkpt><trkpt lat="42.0173033" lon="11.9595"><ele>4.0</ele><time>2026-04-04T08:51:02.116Z</time></trkpt><trkpt lat="42.0173883" lon="11.9595233"><ele>3.9999999999999996</ele><time>2026-04-04T08:51:06.117Z</time></trkpt><trkpt lat="42.0174567" lon="11.95948"><ele>4.0</ele><time>2026-04-04T08:51:09.118Z</time></trkpt><trkpt lat="42.0175217" lon="11.9595083"><ele>4.0</ele><time>2026-04-04T08:51:11.114Z</time></trkpt><trkpt lat="42.0176" lon="11.9595883"><ele>4.0</ele><time>2026-04-04T08:51:13.114Z</time></trkpt><trkpt lat="42.0176967" lon="11.9596917"><ele>3.9999999999999996</ele><time>2026-04-04T08:51:15.118Z</time></trkpt><trkpt lat="42.0177483" lon="11.9597467"><ele>4.0</ele><time>2026-04-04T08:51:16.112Z</time></trkpt><trkpt lat="42.017805" lon="11.959805"><ele>3.9999999999999996</ele><time>2026-04-04T08:51:17.117Z</time></trkpt><trkpt lat="42.0178733" lon="11.959865"><ele>4.0</ele><time>2026-04-04T08:51:18.114Z</time></trkpt><trkpt lat="42.0179433" lon="11.9599267"><ele>4.0</ele><time>2026-04-04T08:51:19.114Z</time></trkpt><trkpt lat="42.0180117" lon="11.959995"><ele>4.0</ele><time>2026-04-04T08:51:20.111Z</time></trkpt><trkpt lat="42.018085" lon="11.9600717"><ele>3.9999999999999996</ele><time>2026-04-04T08:51:21.109Z</time></trkpt><trkpt lat="42.01816" lon="11.9601517"><ele>4.0</ele><time>2026-04-04T08:51:22.113Z</time></trkpt><trkpt lat="42.0182383" lon="11.96023"><ele>4.2</ele><time>2026-04-04T08:51:23.115Z</time></trkpt><trkpt lat="42.0183183" lon="11.96031"><ele>4.4</ele><time>2026-04-04T08:51:24.115Z</time></trkpt><trkpt lat="42.0183933" lon="11.960385"><ele>4.6</ele><time>2026-04-04T08:51:25.118Z</time></trkpt><trkpt lat="42.018465" lon="11.960455"><ele>4.8</ele><time>2026-04-04T08:51:26.114Z</time></trkpt><trkpt lat="42.0185383" lon="11.9605267"><ele>5.0</ele><time>2026-04-04T08:51:27.118Z</time></trkpt><trkpt lat="42.0186117" lon="11.9606017"><ele>5.0</ele><time>2026-04-04T08:51:28.114Z</time></trkpt><trkpt lat="42.0186883" lon="11.9606817"><ele>5.0</ele><time>2026-04-04T08:51:29.117Z</time></trkpt><trkpt lat="42.018775" lon="11.96076"><ele>5.0</ele><time>2026-04-04T08:51:30.119Z</time></trkpt><trkpt lat="42.01886" lon="11.9608383"><ele>5.0</ele><time>2026-04-04T08:51:31.114Z</time></trkpt><trkpt lat="42.0189433" lon="11.960915"><ele>5.0</ele><time>2026-04-04T08:51:32.115Z</time></trkpt><trkpt lat="42.0190217" lon="11.9609933"><ele>5.0</ele><time>2026-04-04T08:51:33.118Z</time></trkpt><trkpt lat="42.019105" lon="11.9610767"><ele>5.0</ele><time>2026-04-04T08:51:34.118Z</time></trkpt><trkpt lat="42.0191833" lon="11.961155"><ele>5.0</ele><time>2026-04-04T08:51:35.121Z</time></trkpt><trkpt lat="42.0192517" lon="11.96123"><ele>5.0</ele><time>2026-04-04T08:51:36.116Z</time></trkpt><trkpt lat="42.0193233" lon="11.9613033"><ele>5.0</ele><time>2026-04-04T08:51:37.117Z</time></trkpt><trkpt lat="42.0193917" lon="11.9613767"><ele>5.0</ele><time>2026-04-04T08:51:38.116Z</time></trkpt><trkpt lat="42.01947" lon="11.9614533"><ele>5.0</ele><time>2026-04-04T08:51:39.118Z</time></trkpt><trkpt lat="42.0195517" lon="11.9615367"><ele>5.0</ele><time>2026-04-04T08:51:40.114Z</time></trkpt><trkpt lat="42.0196317" lon="11.96162"><ele>5.0</ele><time>2026-04-04T08:51:41.116Z</time></trkpt><trkpt lat="42.0197117" lon="11.9617017"><ele>5.0</ele><time>2026-04-04T08:51:42.115Z</time></trkpt><trkpt lat="42.01979" lon="11.9617833"><ele>5.0</ele><time>2026-04-04T08:51:43.113Z</time></trkpt><trkpt lat="42.019865" lon="11.9618533"><ele>5.0</ele><time>2026-04-04T08:51:44.117Z</time></trkpt><trkpt lat="42.019935" lon="11.9619233"><ele>5.0</ele><time>2026-04-04T08:51:45.119Z</time></trkpt><trkpt lat="42.02" lon="11.961995"><ele>5.0</ele><time>2026-04-04T08:51:46.119Z</time></trkpt><trkpt lat="42.0200633" lon="11.962065"><ele>5.0</ele><time>2026-04-04T08:51:47.115Z</time></trkpt><trkpt lat="42.0201317" lon="11.9621383"><ele>5.0</ele><time>2026-04-04T08:51:48.119Z</time></trkpt><trkpt lat="42.0201967" lon="11.9622117"><ele>5.166666666666667</ele><time>2026-04-04T08:51:49.119Z</time></trkpt><trkpt lat="42.0202583" lon="11.9622767"><ele>5.333333333333334</ele><time>2026-04-04T08:51:50.114Z</time></trkpt><trkpt lat="42.0203083" lon="11.9623333"><ele>5.5</ele><time>2026-04-04T08:51:51.116Z</time></trkpt><trkpt lat="42.0203967" lon="11.9624217"><ele>5.666666666666667</ele><time>2026-04-04T08:51:53.114Z</time></trkpt><trkpt lat="42.020465" lon="11.9624733"><ele>5.833333333333333</ele><time>2026-04-04T08:51:56.113Z</time></trkpt><trkpt lat="42.0205417" lon="11.9624767"><ele>6.0</ele><time>2026-04-04T08:52:00.118Z</time></trkpt><trkpt lat="42.0206183" lon="11.962405"><ele>6.0</ele><time>2026-04-04T08:52:02.114Z</time></trkpt><trkpt lat="42.020685" lon="11.9622667"><ele>6.0</ele><time>2026-04-04T08:52:04.109Z</time></trkpt><trkpt lat="42.0207233" lon="11.962165"><ele>6.0</ele><time>2026-04-04T08:52:05.115Z</time></trkpt><trkpt lat="42.0207567" lon="11.96207"><ele>6.0</ele><time>2026-04-04T08:52:06.114Z</time></trkpt><trkpt lat="42.0207983" lon="11.96195"><ele>6.0</ele><time>2026-04-04T08:52:07.116Z</time></trkpt><trkpt lat="42.0208533" lon="11.9618333"><ele>5.75</ele><time>2026-04-04T08:52:08.118Z</time></trkpt><trkpt lat="42.02091" lon="11.9617017"><ele>5.5</ele><time>2026-04-04T08:52:09.119Z</time></trkpt><trkpt lat="42.0209667" lon="11.96156"><ele>5.25</ele><time>2026-04-04T08:52:10.117Z</time></trkpt><trkpt lat="42.0210217" lon="11.9614117"><ele>5.0</ele><time>2026-04-04T08:52:11.116Z</time></trkpt><trkpt lat="42.0210817" lon="11.961275"><ele>5.0</ele><time>2026-04-04T08:52:12.118Z</time></trkpt><trkpt lat="42.021145" lon="11.961125"><ele>5.0</ele><time>2026-04-04T08:52:13.115Z</time></trkpt><trkpt lat="42.0212083" lon="11.96097"><ele>5.0</ele><time>2026-04-04T08:52:14.117Z</time></trkpt><trkpt lat="42.0212767" lon="11.9608117"><ele>5.0</ele><time>2026-04-04T08:52:15.118Z</time></trkpt><trkpt lat="42.021345" lon="11.960645"><ele>5.0</ele><time>2026-04-04T08:52:16.116Z</time></trkpt><trkpt lat="42.0214133" lon="11.9604733"><ele>5.0</ele><time>2026-04-04T08:52:17.114Z</time></trkpt><trkpt lat="42.0214783" lon="11.9603083"><ele>5.0</ele><time>2026-04-04T08:52:18.116Z</time></trkpt><trkpt lat="42.021545" lon="11.9601417"><ele>5.0</ele><time>2026-04-04T08:52:19.117Z</time></trkpt><trkpt lat="42.0216117" lon="11.9599683"><ele>6.333333333333334</ele><time>2026-04-04T08:52:20.116Z</time></trkpt><trkpt lat="42.02168" lon="11.9597933"><ele>7.666666666666667</ele><time>2026-04-04T08:52:21.119Z</time></trkpt><trkpt lat="42.0217517" lon="11.9596167"><ele>9.0</ele><time>2026-04-04T08:52:22.118Z</time></trkpt><trkpt lat="42.0218233" lon="11.9594317"><ele>9.0</ele><time>2026-04-04T08:52:23.117Z</time></trkpt><trkpt lat="42.021895" lon="11.9592433"><ele>9.0</ele><time>2026-04-04T08:52:24.116Z</time></trkpt><trkpt lat="42.0219683" lon="11.9590533"><ele>9.0</ele><time>2026-04-04T08:52:25.12Z</time></trkpt><trkpt lat="42.0220467" lon="11.958865"><ele>9.333333333333334</ele><time>2026-04-04T08:52:26.117Z</time></trkpt><trkpt lat="42.0221267" lon="11.9586717"><ele>9.666666666666668</ele><time>2026-04-04T08:52:27.118Z</time></trkpt><trkpt lat="42.0222067" lon="11.958475"><ele>10.0</ele><time>2026-04-04T08:52:28.119Z</time></trkpt><trkpt lat="42.0222867" lon="11.9582767"><ele>10.0</ele><time>2026-04-04T08:52:29.114Z</time></trkpt><trkpt lat="42.0223683" lon="11.9580783"><ele>10.0</ele><time>2026-04-04T08:52:30.116Z</time></trkpt><trkpt lat="42.0224483" lon="11.9578867"><ele>10.0</ele><time>2026-04-04T08:52:31.114Z</time></trkpt><trkpt lat="42.0225283" lon="11.957695"><ele>9.666666666666668</ele><time>2026-04-04T08:52:32.116Z</time></trkpt><trkpt lat="42.022605" lon="11.9575017"><ele>9.333333333333334</ele><time>2026-04-04T08:52:33.116Z</time></trkpt><trkpt lat="42.0226783" lon="11.9573133"><ele>9.0</ele><time>2026-04-04T08:52:34.114Z</time></trkpt><trkpt lat="42.022745" lon="11.9571417"><ele>9.0</ele><time>2026-04-04T08:52:35.114Z</time></trkpt><trkpt lat="42.0228083" lon="11.9569767"><ele>9.0</ele><time>2026-04-04T08:52:36.112Z</time></trkpt><trkpt lat="42.0228733" lon="11.9568217"><ele>9.0</ele><time>2026-04-04T08:52:37.119Z</time></trkpt><trkpt lat="42.0229317" lon="11.956675"><ele>9.0</ele><time>2026-04-04T08:52:38.114Z</time></trkpt><trkpt lat="42.0229867" lon="11.956535"><ele>9.2</ele><time>2026-04-04T08:52:39.118Z</time></trkpt><trkpt lat="42.0230367" lon="11.95641"><ele>9.4</ele><time>2026-04-04T08:52:40.115Z</time></trkpt><trkpt lat="42.0230817" lon="11.9562933"><ele>9.6</ele><time>2026-04-04T08:52:41.111Z</time></trkpt><trkpt lat="42.02313" lon="11.9561867"><ele>9.8</ele><time>2026-04-04T08:52:42.116Z</time></trkpt><trkpt lat="42.0231717" lon="11.9560867"><ele>10.0</ele><time>2026-04-04T08:52:43.113Z</time></trkpt><trkpt lat="42.0232117" lon="11.956"><ele>10.0</ele><time>2026-04-04T08:52:44.106Z</time></trkpt><trkpt lat="42.0232467" lon="11.9559217"><ele>10.0</ele><time>2026-04-04T08:52:45.114Z</time></trkpt><trkpt lat="42.02328" lon="11.9558467"><ele>10.0</ele><time>2026-04-04T08:52:46.109Z</time></trkpt><trkpt lat="42.02333" lon="11.95572"><ele>10.0</ele><time>2026-04-04T08:52:48.11Z</time></trkpt><trkpt lat="42.0233767" lon="11.9556117"><ele>10.0</ele><time>2026-04-04T08:52:50.111Z</time></trkpt><trkpt lat="42.023415" lon="11.9555217"><ele>10.0</ele><time>2026-04-04T08:52:52.113Z</time></trkpt><trkpt lat="42.023445" lon="11.9554333"><ele>9.833333333333334</ele><time>2026-04-04T08:52:54.115Z</time></trkpt><trkpt lat="42.0234867" lon="11.9553217"><ele>9.666666666666668</ele><time>2026-04-04T08:52:56.114Z</time></trkpt><trkpt lat="42.0235217" lon="11.9552333"><ele>9.5</ele><time>2026-04-04T08:52:57.11Z</time></trkpt><trkpt lat="42.0235583" lon="11.9551367"><ele>9.333333333333334</ele><time>2026-04-04T08:52:58.117Z</time></trkpt><trkpt lat="42.0236" lon="11.9550383"><ele>9.166666666666666</ele><time>2026-04-04T08:52:59.115Z</time></trkpt><trkpt lat="42.02365" lon="11.954925"><ele>9.0</ele><time>2026-04-04T08:53:00.117Z</time></trkpt><trkpt lat="42.0237067" lon="11.9547917"><ele>9.0</ele><time>2026-04-04T08:53:01.116Z</time></trkpt><trkpt lat="42.0237667" lon="11.9546467"><ele>9.0</ele><time>2026-04-04T08:53:02.115Z</time></trkpt><trkpt lat="42.023825" lon="11.9545033"><ele>9.0</ele><time>2026-04-04T08:53:03.119Z</time></trkpt><trkpt lat="42.023885" lon="11.954355"><ele>9.0</ele><time>2026-04-04T08:53:04.119Z</time></trkpt><trkpt lat="42.0239483" lon="11.9542017"><ele>8.75</ele><time>2026-04-04T08:53:05.116Z</time></trkpt><trkpt lat="42.0240133" lon="11.9540417"><ele>8.5</ele><time>2026-04-04T08:53:06.119Z</time></trkpt><trkpt lat="42.0240817" lon="11.953875"><ele>8.25</ele><time>2026-04-04T08:53:07.114Z</time></trkpt><trkpt lat="42.0241517" lon="11.9537067"><ele>8.0</ele><time>2026-04-04T08:53:08.117Z</time></trkpt><trkpt lat="42.02422" lon="11.95353"><ele>7.75</ele><time>2026-04-04T08:53:09.119Z</time></trkpt><trkpt lat="42.0242867" lon="11.9533617"><ele>7.5</ele><time>2026-04-04T08:53:10.116Z</time></trkpt><trkpt lat="42.0243483" lon="11.95321"><ele>7.25</ele><time>2026-04-04T08:53:11.114Z</time></trkpt><trkpt lat="42.024405" lon="11.953065"><ele>7.0</ele><time>2026-04-04T08:53:12.116Z</time></trkpt><trkpt lat="42.02446" lon="11.952935"><ele>7.0</ele><time>2026-04-04T08:53:13.114Z</time></trkpt><trkpt lat="42.02451" lon="11.9528167"><ele>6.999999999999999</ele><time>2026-04-04T08:53:14.118Z</time></trkpt><trkpt lat="42.024555" lon="11.9527067"><ele>6.999999999999999</ele><time>2026-04-04T08:53:15.116Z</time></trkpt><trkpt lat="42.0246067" lon="11.9525833"><ele>7.0</ele><time>2026-04-04T08:53:16.114Z</time></trkpt><trkpt lat="42.0246583" lon="11.9524467"><ele>7.0</ele><time>2026-04-04T08:53:17.116Z</time></trkpt><trkpt lat="42.0247183" lon="11.9523067"><ele>7.25</ele><time>2026-04-04T08:53:18.118Z</time></trkpt><trkpt lat="42.024775" lon="11.95217"><ele>7.5</ele><time>2026-04-04T08:53:19.12Z</time></trkpt><trkpt lat="42.0248333" lon="11.9520317"><ele>7.75</ele><time>2026-04-04T08:53:20.115Z</time></trkpt><trkpt lat="42.0248917" lon="11.95188"><ele>8.0</ele><time>2026-04-04T08:53:21.119Z</time></trkpt><trkpt lat="42.0249533" lon="11.9517333"><ele>8.25</ele><time>2026-04-04T08:53:22.118Z</time></trkpt><trkpt lat="42.025015" lon="11.95158"><ele>8.5</ele><time>2026-04-04T08:53:23.118Z</time></trkpt><trkpt lat="42.0250767" lon="11.95142"><ele>8.75</ele><time>2026-04-04T08:53:24.118Z</time></trkpt><trkpt lat="42.02514" lon="11.9512533"><ele>9.0</ele><time>2026-04-04T08:53:25.112Z</time></trkpt><trkpt lat="42.0252033" lon="11.9510883"><ele>9.0</ele><time>2026-04-04T08:53:26.113Z</time></trkpt><trkpt lat="42.0252667" lon="11.9509283"><ele>9.0</ele><time>2026-04-04T08:53:27.114Z</time></trkpt><trkpt lat="42.02533" lon="11.9507617"><ele>9.0</ele><time>2026-04-04T08:53:28.119Z</time></trkpt><trkpt lat="42.025395" lon="11.9505983"><ele>9.0</ele><time>2026-04-04T08:53:29.11Z</time></trkpt><trkpt lat="42.0254633" lon="11.9504333"><ele>8.5</ele><time>2026-04-04T08:53:30.114Z</time></trkpt><trkpt lat="42.0255333" lon="11.9502667"><ele>8.0</ele><time>2026-04-04T08:53:31.115Z</time></trkpt><trkpt lat="42.0256033" lon="11.95009"><ele>7.5</ele><time>2026-04-04T08:53:32.114Z</time></trkpt><trkpt lat="42.02567" lon="11.9499033"><ele>7.0</ele><time>2026-04-04T08:53:33.113Z</time></trkpt><trkpt lat="42.0257417" lon="11.9497183"><ele>7.0</ele><time>2026-04-04T08:53:34.115Z</time></trkpt><trkpt lat="42.025815" lon="11.9495317"><ele>7.0</ele><time>2026-04-04T08:53:35.115Z</time></trkpt><trkpt lat="42.02589" lon="11.9493417"><ele>7.0</ele><time>2026-04-04T08:53:36.114Z</time></trkpt><trkpt lat="42.0259667" lon="11.94915"><ele>7.0</ele><time>2026-04-04T08:53:37.116Z</time></trkpt><trkpt lat="42.026045" lon="11.9489667"><ele>7.0</ele><time>2026-04-04T08:53:38.117Z</time></trkpt><trkpt lat="42.0261233" lon="11.9487767"><ele>7.0</ele><time>2026-04-04T08:53:39.119Z</time></trkpt><trkpt lat="42.0262017" lon="11.948585"><ele>7.0</ele><time>2026-04-04T08:53:40.113Z</time></trkpt><trkpt lat="42.02628" lon="11.9483917"><ele>7.0</ele><time>2026-04-04T08:53:41.113Z</time></trkpt><trkpt lat="42.0263583" lon="11.9481967"><ele>7.0</ele><time>2026-04-04T08:53:42.115Z</time></trkpt><trkpt lat="42.0264383" lon="11.9480033"><ele>7.0</ele><time>2026-04-04T08:53:43.118Z</time></trkpt><trkpt lat="42.0265167" lon="11.9478117"><ele>7.0</ele><time>2026-04-04T08:53:44.114Z</time></trkpt><trkpt lat="42.0265933" lon="11.9476167"><ele>7.0</ele><time>2026-04-04T08:53:45.118Z</time></trkpt><trkpt lat="42.0266717" lon="11.9474183"><ele>6.333333333333334</ele><time>2026-04-04T08:53:46.111Z</time></trkpt><trkpt lat="42.02675" lon="11.9472267"><ele>5.666666666666667</ele><time>2026-04-04T08:53:47.117Z</time></trkpt><trkpt lat="42.026825" lon="11.9470467"><ele>5.0</ele><time>2026-04-04T08:53:48.115Z</time></trkpt><trkpt lat="42.0268967" lon="11.9468617"><ele>5.5</ele><time>2026-04-04T08:53:49.118Z</time></trkpt><trkpt lat="42.02697" lon="11.9466883"><ele>6.0</ele><time>2026-04-04T08:53:50.116Z</time></trkpt><trkpt lat="42.0270467" lon="11.946515"><ele>6.5</ele><time>2026-04-04T08:53:51.119Z</time></trkpt><trkpt lat="42.0271217" lon="11.94634"><ele>7.0</ele><time>2026-04-04T08:53:52.116Z</time></trkpt><trkpt lat="42.0271967" lon="11.946165"><ele>7.0</ele><time>2026-04-04T08:53:53.114Z</time></trkpt><trkpt lat="42.0272717" lon="11.9459783"><ele>7.0</ele><time>2026-04-04T08:53:54.114Z</time></trkpt><trkpt lat="42.0273467" lon="11.94579"><ele>7.0</ele><time>2026-04-04T08:53:55.118Z</time></trkpt><trkpt lat="42.0274183" lon="11.9456067"><ele>6.75</ele><time>2026-04-04T08:53:56.111Z</time></trkpt><trkpt lat="42.0274867" lon="11.9454317"><ele>6.5</ele><time>2026-04-04T08:53:57.11Z</time></trkpt><trkpt lat="42.0275567" lon="11.9452583"><ele>6.25</ele><time>2026-04-04T08:53:58.113Z</time></trkpt><trkpt lat="42.0276233" lon="11.945095"><ele>6.0</ele><time>2026-04-04T08:53:59.114Z</time></trkpt><trkpt lat="42.0276883" lon="11.944935"><ele>6.0</ele><time>2026-04-04T08:54:00.112Z</time></trkpt><trkpt lat="42.0277517" lon="11.9447733"><ele>6.0</ele><time>2026-04-04T08:54:01.115Z</time></trkpt><trkpt lat="42.027815" lon="11.9446233"><ele>6.0</ele><time>2026-04-04T08:54:02.119Z</time></trkpt><trkpt lat="42.02788" lon="11.9444717"><ele>6.0</ele><time>2026-04-04T08:54:03.118Z</time></trkpt><trkpt lat="42.0279433" lon="11.944335"><ele>5.8</ele><time>2026-04-04T08:54:04.114Z</time></trkpt><trkpt lat="42.0280017" lon="11.9442017"><ele>5.6</ele><time>2026-04-04T08:54:05.115Z</time></trkpt><trkpt lat="42.0280633" lon="11.9440833"><ele>5.4</ele><time>2026-04-04T08:54:06.117Z</time></trkpt><trkpt lat="42.0281317" lon="11.9439933"><ele>5.2</ele><time>2026-04-04T08:54:07.116Z</time></trkpt><trkpt lat="42.0282083" lon="11.9439233"><ele>5.0</ele><time>2026-04-04T08:54:08.116Z</time></trkpt><trkpt lat="42.0282883" lon="11.9438733"><ele>4.8</ele><time>2026-04-04T08:54:09.118Z</time></trkpt><trkpt lat="42.0283767" lon="11.9438383"><ele>4.6</ele><time>2026-04-04T08:54:10.115Z</time></trkpt><trkpt lat="42.0284683" lon="11.9438333"><ele>4.4</ele><time>2026-04-04T08:54:11.118Z</time></trkpt><trkpt lat="42.0285633" lon="11.9438583"><ele>4.2</ele><time>2026-04-04T08:54:12.115Z</time></trkpt><trkpt lat="42.0286583" lon="11.9439017"><ele>4.0</ele><time>2026-04-04T08:54:13.114Z</time></trkpt><trkpt lat="42.0287583" lon="11.94396"><ele>4.0</ele><time>2026-04-04T08:54:14.114Z</time></trkpt><trkpt lat="42.0288633" lon="11.94401"><ele>4.0</ele><time>2026-04-04T08:54:15.118Z</time></trkpt><trkpt lat="42.0289733" lon="11.9440367"><ele>4.0</ele><time>2026-04-04T08:54:16.115Z</time></trkpt><trkpt lat="42.0290867" lon="11.9440467"><ele>4.0</ele><time>2026-04-04T08:54:17.115Z</time></trkpt><trkpt lat="42.0291917" lon="11.9440333"><ele>4.0</ele><time>2026-04-04T08:54:18.115Z</time></trkpt><trkpt lat="42.0292967" lon="11.9439933"><ele>4.25</ele><time>2026-04-04T08:54:19.117Z</time></trkpt><trkpt lat="42.0294" lon="11.943935"><ele>4.5</ele><time>2026-04-04T08:54:20.118Z</time></trkpt><trkpt lat="42.0294967" lon="11.943855"><ele>4.75</ele><time>2026-04-04T08:54:21.118Z</time></trkpt><trkpt lat="42.0295833" lon="11.943755"><ele>5.0</ele><time>2026-04-04T08:54:22.118Z</time></trkpt><trkpt lat="42.029655" lon="11.9436383"><ele>5.0</ele><time>2026-04-04T08:54:23.115Z</time></trkpt><trkpt lat="42.02971" lon="11.9435017"><ele>5.0</ele><time>2026-04-04T08:54:24.116Z</time></trkpt><trkpt lat="42.0297583" lon="11.9433483"><ele>5.0</ele><time>2026-04-04T08:54:25.116Z</time></trkpt><trkpt lat="42.0298017" lon="11.9431833"><ele>5.0</ele><time>2026-04-04T08:54:26.115Z</time></trkpt><trkpt lat="42.0298417" lon="11.9430017"><ele>5.0</ele><time>2026-04-04T08:54:27.119Z</time></trkpt><trkpt lat="42.0298817" lon="11.94281"><ele>5.0</ele><time>2026-04-04T08:54:28.114Z</time></trkpt><trkpt lat="42.029925" lon="11.9426083"><ele>5.0</ele><time>2026-04-04T08:54:29.121Z</time></trkpt><trkpt lat="42.0299683" lon="11.94241"><ele>5.0</ele><time>2026-04-04T08:54:30.114Z</time></trkpt><trkpt lat="42.03001" lon="11.9422133"><ele>5.0</ele><time>2026-04-04T08:54:31.112Z</time></trkpt><trkpt lat="42.0300517" lon="11.9420133"><ele>5.0</ele><time>2026-04-04T08:54:32.116Z</time></trkpt><trkpt lat="42.030095" lon="11.94181"><ele>5.0</ele><time>2026-04-04T08:54:33.118Z</time></trkpt><trkpt lat="42.03014" lon="11.9416033"><ele>5.0</ele><time>2026-04-04T08:54:34.112Z</time></trkpt><trkpt lat="42.030185" lon="11.9413933"><ele>5.0</ele><time>2026-04-04T08:54:35.114Z</time></trkpt><trkpt lat="42.0302283" lon="11.9411817"><ele>5.0</ele><time>2026-04-04T08:54:36.118Z</time></trkpt><trkpt lat="42.0302717" lon="11.9409683"><ele>5.0</ele><time>2026-04-04T08:54:37.119Z</time></trkpt><trkpt lat="42.0303167" lon="11.94076"><ele>5.0</ele><time>2026-04-04T08:54:38.119Z</time></trkpt><trkpt lat="42.0303617" lon="11.9405517"><ele>5.333333333333334</ele><time>2026-04-04T08:54:39.115Z</time></trkpt><trkpt lat="42.0304067" lon="11.9403433"><ele>5.666666666666667</ele><time>2026-04-04T08:54:40.119Z</time></trkpt><trkpt lat="42.0304533" lon="11.940135"><ele>6.0</ele><time>2026-04-04T08:54:41.114Z</time></trkpt><trkpt lat="42.030505" lon="11.9399283"><ele>6.75</ele><time>2026-04-04T08:54:42.118Z</time></trkpt><trkpt lat="42.0305617" lon="11.9397283"><ele>7.5</ele><time>2026-04-04T08:54:43.12Z</time></trkpt><trkpt lat="42.0306217" lon="11.9395467"><ele>8.25</ele><time>2026-04-04T08:54:44.117Z</time></trkpt><trkpt lat="42.0306783" lon="11.9393817"><ele>9.0</ele><time>2026-04-04T08:54:45.119Z</time></trkpt><trkpt lat="42.0307383" lon="11.9392317"><ele>9.4</ele><time>2026-04-04T08:54:46.115Z</time></trkpt><trkpt lat="42.0308017" lon="11.9391017"><ele>9.8</ele><time>2026-04-04T08:54:47.115Z</time></trkpt><trkpt lat="42.03086" lon="11.9389767"><ele>10.200000000000001</ele><time>2026-04-04T08:54:48.115Z</time></trkpt><trkpt lat="42.0309067" lon="11.9388667"><ele>10.600000000000001</ele><time>2026-04-04T08:54:49.112Z</time></trkpt><trkpt lat="42.0309533" lon="11.938755"><ele>11.0</ele><time>2026-04-04T08:54:50.115Z</time></trkpt><trkpt lat="42.0310033" lon="11.9386333"><ele>12.0</ele><time>2026-04-04T08:54:51.121Z</time></trkpt><trkpt lat="42.031055" lon="11.938515"><ele>13.0</ele><time>2026-04-04T08:54:52.114Z</time></trkpt><trkpt lat="42.031105" lon="11.9383933"><ele>14.000000000000002</ele><time>2026-04-04T08:54:53.115Z</time></trkpt><trkpt lat="42.0311533" lon="11.9382783"><ele>15.0</ele><time>2026-04-04T08:54:54.117Z</time></trkpt><trkpt lat="42.0311983" lon="11.9381667"><ele>16.0</ele><time>2026-04-04T08:54:55.118Z</time></trkpt><trkpt lat="42.0312417" lon="11.93804"><ele>15.8</ele><time>2026-04-04T08:54:56.117Z</time></trkpt><trkpt lat="42.0312817" lon="11.9379067"><ele>15.600000000000001</ele><time>2026-04-04T08:54:57.118Z</time></trkpt><trkpt lat="42.03132" lon="11.9377733"><ele>15.4</ele><time>2026-04-04T08:54:58.113Z</time></trkpt><trkpt lat="42.0313517" lon="11.93763"><ele>15.2</ele><time>2026-04-04T08:54:59.114Z</time></trkpt><trkpt lat="42.031375" lon="11.93748"><ele>15.0</ele><time>2026-04-04T08:55:00.115Z</time></trkpt><trkpt lat="42.031395" lon="11.9373267"><ele>15.0</ele><time>2026-04-04T08:55:01.114Z</time></trkpt><trkpt lat="42.0314133" lon="11.9371733"><ele>15.0</ele><time>2026-04-04T08:55:02.118Z</time></trkpt><trkpt lat="42.03143" lon="11.9370183"><ele>15.0</ele><time>2026-04-04T08:55:03.115Z</time></trkpt><trkpt lat="42.03144" lon="11.93686"><ele>15.0</ele><time>2026-04-04T08:55:04.117Z</time></trkpt><trkpt lat="42.0314483" lon="11.9366933"><ele>14.0</ele><time>2026-04-04T08:55:05.116Z</time></trkpt><trkpt lat="42.0314567" lon="11.9365283"><ele>13.0</ele><time>2026-04-04T08:55:06.117Z</time></trkpt><trkpt lat="42.031465" lon="11.93637"><ele>12.0</ele><time>2026-04-04T08:55:07.113Z</time></trkpt><trkpt lat="42.0314767" lon="11.936215"><ele>11.0</ele><time>2026-04-04T08:55:08.118Z</time></trkpt><trkpt lat="42.031485" lon="11.936075"><ele>11.0</ele><time>2026-04-04T08:55:09.114Z</time></trkpt><trkpt lat="42.0314933" lon="11.9359467"><ele>11.0</ele><time>2026-04-04T08:55:10.114Z</time></trkpt><trkpt lat="42.031505" lon="11.9358267"><ele>11.0</ele><time>2026-04-04T08:55:11.114Z</time></trkpt><trkpt lat="42.0315233" lon="11.9357333"><ele>11.0</ele><time>2026-04-04T08:55:12.115Z</time></trkpt><trkpt lat="42.03154" lon="11.9356433"><ele>11.0</ele><time>2026-04-04T08:55:13.115Z</time></trkpt><trkpt lat="42.0315683" lon="11.9355233"><ele>11.0</ele><time>2026-04-04T08:55:15.12Z</time></trkpt><trkpt lat="42.031625" lon="11.935305"><ele>10.666666666666666</ele><time>2026-04-04T08:55:55.114Z</time></trkpt><trkpt lat="42.0316517" lon="11.9352267"><ele>10.333333333333332</ele><time>2026-04-04T08:55:56.117Z</time></trkpt><trkpt lat="42.0317" lon="11.935095"><ele>10.0</ele><time>2026-04-04T08:55:58.117Z</time></trkpt><trkpt lat="42.0317267" lon="11.9350083"><ele>9.666666666666666</ele><time>2026-04-04T08:56:00.115Z</time></trkpt><trkpt lat="42.0316867" lon="11.9349383"><ele>9.333333333333334</ele><time>2026-04-04T08:56:06.114Z</time></trkpt><trkpt lat="42.031625" lon="11.93504"><ele>9.0</ele><time>2026-04-04T08:56:09.118Z</time></trkpt><trkpt lat="42.031585" lon="11.93519"><ele>8.666666666666666</ele><time>2026-04-04T08:56:11.113Z</time></trkpt><trkpt lat="42.0315517" lon="11.9352883"><ele>8.333333333333334</ele><time>2026-04-04T08:56:13.116Z</time></trkpt><trkpt lat="42.03152" lon="11.9353717"><ele>8.0</ele><time>2026-04-04T08:56:15.113Z</time></trkpt><trkpt lat="42.0314783" lon="11.935515"><ele>7.666666666666667</ele><time>2026-04-04T08:56:17.115Z</time></trkpt><trkpt lat="42.0314733" lon="11.93561"><ele>7.333333333333334</ele><time>2026-04-04T08:56:18.111Z</time></trkpt><trkpt lat="42.0314633" lon="11.93572"><ele>7.0</ele><time>2026-04-04T08:56:19.117Z</time></trkpt><trkpt lat="42.0314633" lon="11.9358483"><ele>7.8</ele><time>2026-04-04T08:56:20.115Z</time></trkpt><trkpt lat="42.0314583" lon="11.93598"><ele>8.6</ele><time>2026-04-04T08:56:21.117Z</time></trkpt><trkpt lat="42.0314483" lon="11.936115"><ele>9.4</ele><time>2026-04-04T08:56:22.119Z</time></trkpt><trkpt lat="42.03144" lon="11.93626"><ele>10.200000000000001</ele><time>2026-04-04T08:56:23.111Z</time></trkpt><trkpt lat="42.031425" lon="11.9364083"><ele>11.0</ele><time>2026-04-04T08:56:24.117Z</time></trkpt><trkpt lat="42.03141" lon="11.9365633"><ele>12.0</ele><time>2026-04-04T08:56:25.117Z</time></trkpt><trkpt lat="42.0313967" lon="11.936725"><ele>13.0</ele><time>2026-04-04T08:56:26.114Z</time></trkpt><trkpt lat="42.0313833" lon="11.93689"><ele>14.0</ele><time>2026-04-04T08:56:27.118Z</time></trkpt><trkpt lat="42.0313667" lon="11.9370567"><ele>15.0</ele><time>2026-04-04T08:56:28.116Z</time></trkpt><trkpt lat="42.0313533" lon="11.9372233"><ele>15.0</ele><time>2026-04-04T08:56:29.113Z</time></trkpt><trkpt lat="42.03133" lon="11.937385"><ele>15.0</ele><time>2026-04-04T08:56:30.116Z</time></trkpt><trkpt lat="42.0313067" lon="11.9375467"><ele>15.0</ele><time>2026-04-04T08:56:31.118Z</time></trkpt><trkpt lat="42.0312783" lon="11.93771"><ele>15.0</ele><time>2026-04-04T08:56:32.116Z</time></trkpt><trkpt lat="42.0312467" lon="11.937865"><ele>15.2</ele><time>2026-04-04T08:56:33.118Z</time></trkpt><trkpt lat="42.031215" lon="11.9380083"><ele>15.4</ele><time>2026-04-04T08:56:34.115Z</time></trkpt><trkpt lat="42.03118" lon="11.938135"><ele>15.600000000000001</ele><time>2026-04-04T08:56:35.118Z</time></trkpt><trkpt lat="42.0311467" lon="11.9382467"><ele>15.8</ele><time>2026-04-04T08:56:36.116Z</time></trkpt><trkpt lat="42.03112" lon="11.93835"><ele>16.0</ele><time>2026-04-04T08:56:37.114Z</time></trkpt><trkpt lat="42.0311017" lon="11.9384383"><ele>16.0</ele><time>2026-04-04T08:56:38.111Z</time></trkpt><trkpt lat="42.0310967" lon="11.938525"><ele>16.0</ele><time>2026-04-04T08:56:39.118Z</time></trkpt><trkpt lat="42.0311483" lon="11.9386583"><ele>16.0</ele><time>2026-04-04T08:56:41.115Z</time></trkpt><trkpt lat="42.0312583" lon="11.9387317"><ele>16.0</ele><time>2026-04-04T08:56:43.115Z</time></trkpt><trkpt lat="42.0313267" lon="11.938755"><ele>16.0</ele><time>2026-04-04T08:56:44.115Z</time></trkpt><trkpt lat="42.031415" lon="11.93878"><ele>16.0</ele><time>2026-04-04T08:56:45.118Z</time></trkpt><trkpt lat="42.031515" lon="11.938805"><ele>16.0</ele><time>2026-04-04T08:56:46.117Z</time></trkpt><trkpt lat="42.0316167" lon="11.938835"><ele>16.0</ele><time>2026-04-04T08:56:47.117Z</time></trkpt><trkpt lat="42.0317217" lon="11.9388783"><ele>16.0</ele><time>2026-04-04T08:56:48.115Z</time></trkpt><trkpt lat="42.0318383" lon="11.9389217"><ele>16.0</ele><time>2026-04-04T08:56:49.116Z</time></trkpt><trkpt lat="42.0319567" lon="11.93897"><ele>16.25</ele><time>2026-04-04T08:56:50.116Z</time></trkpt><trkpt lat="42.0320783" lon="11.93901"><ele>16.5</ele><time>2026-04-04T08:56:51.118Z</time></trkpt><trkpt lat="42.0321967" lon="11.939055"><ele>16.75</ele><time>2026-04-04T08:56:52.116Z</time></trkpt><trkpt lat="42.0323133" lon="11.9391067"><ele>17.0</ele><time>2026-04-04T08:56:53.117Z</time></trkpt><trkpt lat="42.0324333" lon="11.93915"><ele>17.25</ele><time>2026-04-04T08:56:54.116Z</time></trkpt><trkpt lat="42.0325517" lon="11.9392017"><ele>17.5</ele><time>2026-04-04T08:56:55.118Z</time></trkpt><trkpt lat="42.0326683" lon="11.9392417"><ele>17.75</ele><time>2026-04-04T08:56:56.117Z</time></trkpt><trkpt lat="42.0327867" lon="11.93927"><ele>18.0</ele><time>2026-04-04T08:56:57.118Z</time></trkpt><trkpt lat="42.032905" lon="11.939285"><ele>18.0</ele><time>2026-04-04T08:56:58.116Z</time></trkpt><trkpt lat="42.03302" lon="11.939285"><ele>18.0</ele><time>2026-04-04T08:56:59.117Z</time></trkpt><trkpt lat="42.0331367" lon="11.9392733"><ele>18.0</ele><time>2026-04-04T08:57:00.116Z</time></trkpt><trkpt lat="42.033255" lon="11.93926"><ele>18.0</ele><time>2026-04-04T08:57:01.121Z</time></trkpt><trkpt lat="42.03337" lon="11.9392433"><ele>18.0</ele><time>2026-04-04T08:57:02.117Z</time></trkpt><trkpt lat="42.0334817" lon="11.9392333"><ele>18.0</ele><time>2026-04-04T08:57:03.119Z</time></trkpt><trkpt lat="42.03359" lon="11.9392317"><ele>18.0</ele><time>2026-04-04T08:57:04.114Z</time></trkpt><trkpt lat="42.0336967" lon="11.9392317"><ele>18.0</ele><time>2026-04-04T08:57:05.117Z</time></trkpt><trkpt lat="42.0337983" lon="11.9392383"><ele>18.0</ele><time>2026-04-04T08:57:06.115Z</time></trkpt><trkpt lat="42.0338883" lon="11.93926"><ele>18.0</ele><time>2026-04-04T08:57:07.118Z</time></trkpt><trkpt lat="42.033965" lon="11.9392867"><ele>18.0</ele><time>2026-04-04T08:57:08.114Z</time></trkpt><trkpt lat="42.03403" lon="11.93931"><ele>18.0</ele><time>2026-04-04T08:57:09.117Z</time></trkpt><trkpt lat="42.0340967" lon="11.9393133"><ele>18.0</ele><time>2026-04-04T08:57:10.117Z</time></trkpt><trkpt lat="42.034165" lon="11.9392817"><ele>18.0</ele><time>2026-04-04T08:57:11.116Z</time></trkpt><trkpt lat="42.0342383" lon="11.9392267"><ele>18.0</ele><time>2026-04-04T08:57:12.119Z</time></trkpt><trkpt lat="42.03432" lon="11.939155"><ele>18.6</ele><time>2026-04-04T08:57:13.119Z</time></trkpt><trkpt lat="42.03441" lon="11.9390933"><ele>19.200000000000003</ele><time>2026-04-04T08:57:14.114Z</time></trkpt><trkpt lat="42.034505" lon="11.93904"><ele>19.8</ele><time>2026-04-04T08:57:15.12Z</time></trkpt><trkpt lat="42.03461" lon="11.9389983"><ele>20.400000000000002</ele><time>2026-04-04T08:57:16.115Z</time></trkpt><trkpt lat="42.034725" lon="11.9389733"><ele>21.0</ele><time>2026-04-04T08:57:17.114Z</time></trkpt><trkpt lat="42.0348467" lon="11.93895"><ele>21.0</ele><time>2026-04-04T08:57:18.116Z</time></trkpt><trkpt lat="42.03497" lon="11.938925"><ele>21.0</ele><time>2026-04-04T08:57:19.115Z</time></trkpt><trkpt lat="42.0350967" lon="11.9389"><ele>21.0</ele><time>2026-04-04T08:57:20.119Z</time></trkpt><trkpt lat="42.0352283" lon="11.9388733"><ele>21.0</ele><time>2026-04-04T08:57:21.118Z</time></trkpt><trkpt lat="42.03536" lon="11.9388533"><ele>21.25</ele><time>2026-04-04T08:57:22.115Z</time></trkpt><trkpt lat="42.035495" lon="11.9388483"><ele>21.5</ele><time>2026-04-04T08:57:23.116Z</time></trkpt><trkpt lat="42.0356333" lon="11.9388617"><ele>21.75</ele><time>2026-04-04T08:57:24.118Z</time></trkpt><trkpt lat="42.0357767" lon="11.9388967"><ele>22.0</ele><time>2026-04-04T08:57:25.116Z</time></trkpt><trkpt lat="42.0359217" lon="11.9389433"><ele>23.0</ele><time>2026-04-04T08:57:26.115Z</time></trkpt><trkpt lat="42.0360717" lon="11.938995"><ele>24.0</ele><time>2026-04-04T08:57:27.116Z</time></trkpt><trkpt lat="42.03621" lon="11.9390633"><ele>25.0</ele><time>2026-04-04T08:57:28.114Z</time></trkpt><trkpt lat="42.0363467" lon="11.93915"><ele>25.666666666666668</ele><time>2026-04-04T08:57:29.114Z</time></trkpt><trkpt lat="42.0364783" lon="11.9392517"><ele>26.333333333333336</ele><time>2026-04-04T08:57:30.115Z</time></trkpt><trkpt lat="42.036615" lon="11.93935"><ele>27.0</ele><time>2026-04-04T08:57:31.119Z</time></trkpt><trkpt lat="42.0367533" lon="11.9394567"><ele>27.0</ele><time>2026-04-04T08:57:32.118Z</time></trkpt><trkpt lat="42.0368883" lon="11.93957"><ele>27.0</ele><time>2026-04-04T08:57:33.117Z</time></trkpt><trkpt lat="42.0370283" lon="11.9396817"><ele>27.0</ele><time>2026-04-04T08:57:34.117Z</time></trkpt><trkpt lat="42.03717" lon="11.93979"><ele>27.0</ele><time>2026-04-04T08:57:35.116Z</time></trkpt><trkpt lat="42.0373117" lon="11.9398967"><ele>27.0</ele><time>2026-04-04T08:57:36.118Z</time></trkpt><trkpt lat="42.037445" lon="11.9399967"><ele>27.0</ele><time>2026-04-04T08:57:37.119Z</time></trkpt><trkpt lat="42.0375683" lon="11.94009"><ele>27.25</ele><time>2026-04-04T08:57:38.118Z</time></trkpt><trkpt lat="42.0376867" lon="11.9401767"><ele>27.5</ele><time>2026-04-04T08:57:39.118Z</time></trkpt><trkpt lat="42.0378017" lon="11.9402567"><ele>27.75</ele><time>2026-04-04T08:57:40.115Z</time></trkpt><trkpt lat="42.0379117" lon="11.940325"><ele>28.0</ele><time>2026-04-04T08:57:41.115Z</time></trkpt><trkpt lat="42.03802" lon="11.9403717"><ele>28.0</ele><time>2026-04-04T08:57:42.117Z</time></trkpt><trkpt lat="42.038135" lon="11.940395"><ele>28.0</ele><time>2026-04-04T08:57:43.116Z</time></trkpt><trkpt lat="42.0382533" lon="11.94039"><ele>28.0</ele><time>2026-04-04T08:57:44.116Z</time></trkpt><trkpt lat="42.0383683" lon="11.9403567"><ele>28.0</ele><time>2026-04-04T08:57:45.11Z</time></trkpt><trkpt lat="42.0384733" lon="11.9402983"><ele>28.0</ele><time>2026-04-04T08:57:46.113Z</time></trkpt><trkpt lat="42.0385783" lon="11.940205"><ele>28.0</ele><time>2026-04-04T08:57:47.113Z</time></trkpt><trkpt lat="42.0386733" lon="11.9400983"><ele>28.0</ele><time>2026-04-04T08:57:48.114Z</time></trkpt><trkpt lat="42.0387617" lon="11.939955"><ele>28.0</ele><time>2026-04-04T08:57:49.114Z</time></trkpt><trkpt lat="42.0388467" lon="11.9397917"><ele>28.0</ele><time>2026-04-04T08:57:50.114Z</time></trkpt><trkpt lat="42.03894" lon="11.93963"><ele>28.0</ele><time>2026-04-04T08:57:51.119Z</time></trkpt><trkpt lat="42.0390433" lon="11.9394883"><ele>28.0</ele><time>2026-04-04T08:57:52.117Z</time></trkpt><trkpt lat="42.03916" lon="11.9393667"><ele>28.0</ele><time>2026-04-04T08:57:53.115Z</time></trkpt><trkpt lat="42.03929" lon="11.9392617"><ele>26.333333333333336</ele><time>2026-04-04T08:57:54.115Z</time></trkpt><trkpt lat="42.0394333" lon="11.9391717"><ele>24.666666666666668</ele><time>2026-04-04T08:57:55.115Z</time></trkpt><trkpt lat="42.03958" lon="11.93909"><ele>23.0</ele><time>2026-04-04T08:57:56.119Z</time></trkpt><trkpt lat="42.0397367" lon="11.9390067"><ele>23.0</ele><time>2026-04-04T08:57:57.117Z</time></trkpt><trkpt lat="42.0398933" lon="11.938925"><ele>23.0</ele><time>2026-04-04T08:57:58.116Z</time></trkpt><trkpt lat="42.0400483" lon="11.9388417"><ele>23.0</ele><time>2026-04-04T08:57:59.116Z</time></trkpt><trkpt lat="42.0402033" lon="11.9387617"><ele>23.666666666666668</ele><time>2026-04-04T08:58:00.114Z</time></trkpt><trkpt lat="42.0403583" lon="11.9386767"><ele>24.333333333333336</ele><time>2026-04-04T08:58:01.117Z</time></trkpt><trkpt lat="42.0405133" lon="11.9385933"><ele>25.0</ele><time>2026-04-04T08:58:02.116Z</time></trkpt><trkpt lat="42.0406667" lon="11.9385133"><ele>26.333333333333336</ele><time>2026-04-04T08:58:03.114Z</time></trkpt><trkpt lat="42.0408183" lon="11.938435"><ele>27.666666666666664</ele><time>2026-04-04T08:58:04.117Z</time></trkpt><trkpt lat="42.0409733" lon="11.93835"><ele>29.0</ele><time>2026-04-04T08:58:05.116Z</time></trkpt><trkpt lat="42.04113" lon="11.938265"><ele>29.0</ele><time>2026-04-04T08:58:06.116Z</time></trkpt><trkpt lat="42.04129" lon="11.9381817"><ele>29.0</ele><time>2026-04-04T08:58:07.116Z</time></trkpt><trkpt lat="42.0414517" lon="11.9380983"><ele>29.0</ele><time>2026-04-04T08:58:08.113Z</time></trkpt><trkpt lat="42.0416133" lon="11.93801"><ele>29.666666666666664</ele><time>2026-04-04T08:58:09.118Z</time></trkpt><trkpt lat="42.0417767" lon="11.9379217"><ele>30.333333333333336</ele><time>2026-04-04T08:58:10.118Z</time></trkpt><trkpt lat="42.0419367" lon="11.9378383"><ele>31.0</ele><time>2026-04-04T08:58:11.112Z</time></trkpt><trkpt lat="42.0421017" lon="11.9377567"><ele>31.0</ele><time>2026-04-04T08:58:12.117Z</time></trkpt><trkpt lat="42.0422617" lon="11.937675"><ele>31.0</ele><time>2026-04-04T08:58:13.112Z</time></trkpt><trkpt lat="42.0424133" lon="11.9375983"><ele>31.0</ele><time>2026-04-04T08:58:14.117Z</time></trkpt><trkpt lat="42.0425567" lon="11.937525"><ele>31.333333333333336</ele><time>2026-04-04T08:58:15.118Z</time></trkpt><trkpt lat="42.0427017" lon="11.9374633"><ele>31.666666666666664</ele><time>2026-04-04T08:58:16.115Z</time></trkpt><trkpt lat="42.042855" lon="11.9374033"><ele>32.0</ele><time>2026-04-04T08:58:17.118Z</time></trkpt><trkpt lat="42.0430117" lon="11.9373483"><ele>32.0</ele><time>2026-04-04T08:58:18.115Z</time></trkpt><trkpt lat="42.0431717" lon="11.9373017"><ele>32.0</ele><time>2026-04-04T08:58:19.117Z</time></trkpt><trkpt lat="42.0433317" lon="11.937255"><ele>32.0</ele><time>2026-04-04T08:58:20.118Z</time></trkpt><trkpt lat="42.0434933" lon="11.93721"><ele>31.666666666666664</ele><time>2026-04-04T08:58:21.114Z</time></trkpt><trkpt lat="42.043655" lon="11.9371633"><ele>31.333333333333336</ele><time>2026-04-04T08:58:22.114Z</time></trkpt><trkpt lat="42.0438183" lon="11.9371117"><ele>31.0</ele><time>2026-04-04T08:58:23.115Z</time></trkpt><trkpt lat="42.0439783" lon="11.9370617"><ele>29.666666666666668</ele><time>2026-04-04T08:58:24.115Z</time></trkpt><trkpt lat="42.0441383" lon="11.937015"><ele>28.333333333333336</ele><time>2026-04-04T08:58:25.117Z</time></trkpt><trkpt lat="42.0443" lon="11.93697"><ele>27.0</ele><time>2026-04-04T08:58:26.118Z</time></trkpt><trkpt lat="42.044465" lon="11.9369167"><ele>27.0</ele><time>2026-04-04T08:58:27.117Z</time></trkpt><trkpt lat="42.0446333" lon="11.93686"><ele>27.0</ele><time>2026-04-04T08:58:28.117Z</time></trkpt><trkpt lat="42.0448067" lon="11.936805"><ele>27.0</ele><time>2026-04-04T08:58:29.114Z</time></trkpt><trkpt lat="42.0449783" lon="11.9367467"><ele>25.333333333333332</ele><time>2026-04-04T08:58:30.114Z</time></trkpt><trkpt lat="42.0451433" lon="11.9366967"><ele>23.666666666666664</ele><time>2026-04-04T08:58:31.112Z</time></trkpt><trkpt lat="42.0453083" lon="11.9366533"><ele>22.0</ele><time>2026-04-04T08:58:32.117Z</time></trkpt><trkpt lat="42.0454683" lon="11.9366083"><ele>22.0</ele><time>2026-04-04T08:58:33.116Z</time></trkpt><trkpt lat="42.0456283" lon="11.93656"><ele>22.0</ele><time>2026-04-04T08:58:34.114Z</time></trkpt><trkpt lat="42.0457833" lon="11.9365183"><ele>22.0</ele><time>2026-04-04T08:58:35.115Z</time></trkpt><trkpt lat="42.0459333" lon="11.9364717"><ele>23.0</ele><time>2026-04-04T08:58:36.117Z</time></trkpt><trkpt lat="42.0460817" lon="11.93643"><ele>24.0</ele><time>2026-04-04T08:58:37.117Z</time></trkpt><trkpt lat="42.0462233" lon="11.936395"><ele>25.0</ele><time>2026-04-04T08:58:38.114Z</time></trkpt><trkpt lat="42.0463633" lon="11.936355"><ele>26.0</ele><time>2026-04-04T08:58:39.118Z</time></trkpt><trkpt lat="42.046505" lon="11.9363117"><ele>28.0</ele><time>2026-04-04T08:58:40.118Z</time></trkpt><trkpt lat="42.0466467" lon="11.93627"><ele>30.0</ele><time>2026-04-04T08:58:41.115Z</time></trkpt><trkpt lat="42.0467883" lon="11.93623"><ele>32.0</ele><time>2026-04-04T08:58:42.116Z</time></trkpt><trkpt lat="42.0469233" lon="11.9361833"><ele>34.0</ele><time>2026-04-04T08:58:43.113Z</time></trkpt><trkpt lat="42.0470567" lon="11.9361367"><ele>34.0</ele><time>2026-04-04T08:58:44.118Z</time></trkpt><trkpt lat="42.04719" lon="11.93609"><ele>34.0</ele><time>2026-04-04T08:58:45.115Z</time></trkpt><trkpt lat="42.0473117" lon="11.9360633"><ele>34.0</ele><time>2026-04-04T08:58:46.118Z</time></trkpt><trkpt lat="42.04744" lon="11.9360317"><ele>34.0</ele><time>2026-04-04T08:58:47.114Z</time></trkpt><trkpt lat="42.0475717" lon="11.9359917"><ele>36.0</ele><time>2026-04-04T08:58:48.114Z</time></trkpt><trkpt lat="42.0477067" lon="11.93598"><ele>38.0</ele><time>2026-04-04T08:58:49.115Z</time></trkpt><trkpt lat="42.0478367" lon="11.935945"><ele>40.0</ele><time>2026-04-04T08:58:50.115Z</time></trkpt><trkpt lat="42.0479683" lon="11.93592"><ele>42.0</ele><time>2026-04-04T08:58:51.115Z</time></trkpt><trkpt lat="42.048105" lon="11.9358917"><ele>39.5</ele><time>2026-04-04T08:58:52.114Z</time></trkpt><trkpt lat="42.0482333" lon="11.9358683"><ele>37.0</ele><time>2026-04-04T08:58:53.115Z</time></trkpt><trkpt lat="42.0483617" lon="11.9358317"><ele>34.5</ele><time>2026-04-04T08:58:54.114Z</time></trkpt><trkpt lat="42.0484867" lon="11.93579"><ele>32.0</ele><time>2026-04-04T08:58:55.117Z</time></trkpt><trkpt lat="42.04861" lon="11.9357383"><ele>32.0</ele><time>2026-04-04T08:58:56.12Z</time></trkpt><trkpt lat="42.0487367" lon="11.93568"><ele>32.0</ele><time>2026-04-04T08:58:57.114Z</time></trkpt><trkpt lat="42.0488567" lon="11.93562"><ele>32.0</ele><time>2026-04-04T08:58:58.115Z</time></trkpt><trkpt lat="42.0489733" lon="11.93556"><ele>32.0</ele><time>2026-04-04T08:58:59.12Z</time></trkpt><trkpt lat="42.0490967" lon="11.9355583"><ele>34.0</ele><time>2026-04-04T08:59:00.118Z</time></trkpt><trkpt lat="42.0492233" lon="11.93555"><ele>36.0</ele><time>2026-04-04T08:59:01.116Z</time></trkpt><trkpt lat="42.0493533" lon="11.9355467"><ele>38.0</ele><time>2026-04-04T08:59:02.118Z</time></trkpt><trkpt lat="42.0494883" lon="11.9355517"><ele>40.0</ele><time>2026-04-04T08:59:03.118Z</time></trkpt><trkpt lat="42.04963" lon="11.9355333"><ele>40.0</ele><time>2026-04-04T08:59:04.114Z</time></trkpt><trkpt lat="42.04977" lon="11.935525"><ele>40.0</ele><time>2026-04-04T08:59:05.115Z</time></trkpt><trkpt lat="42.049905" lon="11.9355133"><ele>40.0</ele><time>2026-04-04T08:59:06.117Z</time></trkpt><trkpt lat="42.0500333" lon="11.9355033"><ele>40.0</ele><time>2026-04-04T08:59:07.115Z</time></trkpt><trkpt lat="42.0501633" lon="11.9354983"><ele>39.75</ele><time>2026-04-04T08:59:08.118Z</time></trkpt><trkpt lat="42.0502867" lon="11.9354967"><ele>39.5</ele><time>2026-04-04T08:59:09.119Z</time></trkpt><trkpt lat="42.0504067" lon="11.935505"><ele>39.25</ele><time>2026-04-04T08:59:10.114Z</time></trkpt><trkpt lat="42.0505217" lon="11.935505"><ele>39.0</ele><time>2026-04-04T08:59:11.116Z</time></trkpt><trkpt lat="42.0506317" lon="11.9355267"><ele>39.0</ele><time>2026-04-04T08:59:12.112Z</time></trkpt><trkpt lat="42.0507383" lon="11.9355467"><ele>39.0</ele><time>2026-04-04T08:59:13.118Z</time></trkpt><trkpt lat="42.05084" lon="11.9355567"><ele>39.0</ele><time>2026-04-04T08:59:14.117Z</time></trkpt><trkpt lat="42.0509433" lon="11.9356133"><ele>39.0</ele><time>2026-04-04T08:59:15.117Z</time></trkpt><trkpt lat="42.0510517" lon="11.9356967"><ele>39.0</ele><time>2026-04-04T08:59:16.114Z</time></trkpt><trkpt lat="42.05116" lon="11.935775"><ele>39.5</ele><time>2026-04-04T08:59:17.116Z</time></trkpt><trkpt lat="42.0512633" lon="11.9358683"><ele>40.0</ele><time>2026-04-04T08:59:18.118Z</time></trkpt><trkpt lat="42.0513667" lon="11.9359517"><ele>40.5</ele><time>2026-04-04T08:59:19.116Z</time></trkpt><trkpt lat="42.051465" lon="11.9360467"><ele>41.0</ele><time>2026-04-04T08:59:20.116Z</time></trkpt><trkpt lat="42.051555" lon="11.936155"><ele>41.25</ele><time>2026-04-04T08:59:21.117Z</time></trkpt><trkpt lat="42.05164" lon="11.9362717"><ele>41.5</ele><time>2026-04-04T08:59:22.114Z</time></trkpt><trkpt lat="42.051735" lon="11.9363817"><ele>41.75</ele><time>2026-04-04T08:59:23.114Z</time></trkpt><trkpt lat="42.051825" lon="11.9364933"><ele>42.0</ele><time>2026-04-04T08:59:24.119Z</time></trkpt><trkpt lat="42.051905" lon="11.9366167"><ele>42.0</ele><time>2026-04-04T08:59:25.119Z</time></trkpt><trkpt lat="42.0520067" lon="11.9367083"><ele>42.0</ele><time>2026-04-04T08:59:26.114Z</time></trkpt><trkpt lat="42.0521067" lon="11.936815"><ele>42.0</ele><time>2026-04-04T08:59:27.12Z</time></trkpt><trkpt lat="42.0522083" lon="11.9369167"><ele>42.0</ele><time>2026-04-04T08:59:28.115Z</time></trkpt><trkpt lat="42.05231" lon="11.937025"><ele>43.25</ele><time>2026-04-04T08:59:29.114Z</time></trkpt><trkpt lat="42.05241" lon="11.93714"><ele>44.5</ele><time>2026-04-04T08:59:30.117Z</time></trkpt><trkpt lat="42.0525083" lon="11.9372433"><ele>45.75</ele><time>2026-04-04T08:59:31.117Z</time></trkpt><trkpt lat="42.0526117" lon="11.937345"><ele>47.0</ele><time>2026-04-04T08:59:32.11Z</time></trkpt><trkpt lat="42.0527233" lon="11.9374267"><ele>47.0</ele><time>2026-04-04T08:59:33.115Z</time></trkpt><trkpt lat="42.0528367" lon="11.9375033"><ele>47.0</ele><time>2026-04-04T08:59:34.115Z</time></trkpt><trkpt lat="42.0529467" lon="11.9375767"><ele>47.0</ele><time>2026-04-04T08:59:35.114Z</time></trkpt><trkpt lat="42.0530617" lon="11.937645"><ele>47.0</ele><time>2026-04-04T08:59:36.118Z</time></trkpt><trkpt lat="42.0531833" lon="11.9377083"><ele>47.5</ele><time>2026-04-04T08:59:37.115Z</time></trkpt><trkpt lat="42.053305" lon="11.9377717"><ele>48.0</ele><time>2026-04-04T08:59:38.117Z</time></trkpt><trkpt lat="42.053415" lon="11.9378633"><ele>48.5</ele><time>2026-04-04T08:59:39.118Z</time></trkpt><trkpt lat="42.0535283" lon="11.9379367"><ele>49.0</ele><time>2026-04-04T08:59:40.116Z</time></trkpt><trkpt lat="42.0536367" lon="11.9380183"><ele>49.0</ele><time>2026-04-04T08:59:41.114Z</time></trkpt><trkpt lat="42.0537467" lon="11.9381067"><ele>49.0</ele><time>2026-04-04T08:59:42.114Z</time></trkpt><trkpt lat="42.0538533" lon="11.9381917"><ele>49.0</ele><time>2026-04-04T08:59:43.111Z</time></trkpt><trkpt lat="42.053965" lon="11.93827"><ele>49.0</ele><time>2026-04-04T08:59:44.117Z</time></trkpt><trkpt lat="42.0540883" lon="11.938345"><ele>51.75</ele><time>2026-04-04T08:59:45.119Z</time></trkpt><trkpt lat="42.05422" lon="11.9383883"><ele>54.5</ele><time>2026-04-04T08:59:46.117Z</time></trkpt><trkpt lat="42.054355" lon="11.9384383"><ele>57.25</ele><time>2026-04-04T08:59:47.114Z</time></trkpt><trkpt lat="42.0544917" lon="11.93847"><ele>60.0</ele><time>2026-04-04T08:59:48.114Z</time></trkpt><trkpt lat="42.05462" lon="11.9385067"><ele>60.0</ele><time>2026-04-04T08:59:49.114Z</time></trkpt><trkpt lat="42.05475" lon="11.9385267"><ele>60.0</ele><time>2026-04-04T08:59:50.117Z</time></trkpt><trkpt lat="42.054875" lon="11.938535"><ele>60.0</ele><time>2026-04-04T08:59:51.115Z</time></trkpt><trkpt lat="42.05499" lon="11.938555"><ele>60.0</ele><time>2026-04-04T08:59:52.117Z</time></trkpt><trkpt lat="42.0550983" lon="11.9385833"><ele>58.2</ele><time>2026-04-04T08:59:53.109Z</time></trkpt><trkpt lat="42.0551933" lon="11.93862"><ele>56.4</ele><time>2026-04-04T08:59:54.115Z</time></trkpt><trkpt lat="42.0552817" lon="11.938665"><ele>54.599999999999994</ele><time>2026-04-04T08:59:55.118Z</time></trkpt><trkpt lat="42.055355" lon="11.9387183"><ele>52.8</ele><time>2026-04-04T08:59:56.116Z</time></trkpt><trkpt lat="42.05541" lon="11.93881"><ele>51.0</ele><time>2026-04-04T08:59:57.117Z</time></trkpt><trkpt lat="42.0554633" lon="11.9389133"><ele>51.0</ele><time>2026-04-04T08:59:58.113Z</time></trkpt><trkpt lat="42.0555083" lon="11.9390467"><ele>51.0</ele><time>2026-04-04T08:59:59.116Z</time></trkpt><trkpt lat="42.0555567" lon="11.939195"><ele>51.0</ele><time>2026-04-04T09:00:00.117Z</time></trkpt><trkpt lat="42.0556117" lon="11.9393567"><ele>51.0</ele><time>2026-04-04T09:00:01.113Z</time></trkpt><trkpt lat="42.0556733" lon="11.9395217"><ele>51.75</ele><time>2026-04-04T09:00:02.117Z</time></trkpt><trkpt lat="42.0557267" lon="11.9396883"><ele>52.5</ele><time>2026-04-04T09:00:03.116Z</time></trkpt><trkpt lat="42.0557817" lon="11.939855"><ele>53.25</ele><time>2026-04-04T09:00:04.116Z</time></trkpt><trkpt lat="42.0558417" lon="11.9400133"><ele>54.0</ele><time>2026-04-04T09:00:05.115Z</time></trkpt><trkpt lat="42.0558933" lon="11.9401667"><ele>54.0</ele><time>2026-04-04T09:00:06.115Z</time></trkpt><trkpt lat="42.055935" lon="11.940315"><ele>54.0</ele><time>2026-04-04T09:00:07.114Z</time></trkpt><trkpt lat="42.055985" lon="11.9404617"><ele>54.0</ele><time>2026-04-04T09:00:08.114Z</time></trkpt><trkpt lat="42.0560417" lon="11.94061"><ele>54.0</ele><time>2026-04-04T09:00:09.113Z</time></trkpt><trkpt lat="42.0561167" lon="11.9407467"><ele>54.0</ele><time>2026-04-04T09:00:10.114Z</time></trkpt><trkpt lat="42.0562067" lon="11.940875"><ele>54.0</ele><time>2026-04-04T09:00:11.117Z</time></trkpt><trkpt lat="42.0563017" lon="11.941"><ele>54.0</ele><time>2026-04-04T09:00:12.116Z</time></trkpt><trkpt lat="42.056405" lon="11.941125"><ele>54.0</ele><time>2026-04-04T09:00:13.114Z</time></trkpt><trkpt lat="42.0565167" lon="11.9412367"><ele>52.0</ele><time>2026-04-04T09:00:14.117Z</time></trkpt><trkpt lat="42.056625" lon="11.9413467"><ele>50.0</ele><time>2026-04-04T09:00:15.118Z</time></trkpt><trkpt lat="42.0567283" lon="11.9414583"><ele>48.0</ele><time>2026-04-04T09:00:16.114Z</time></trkpt><trkpt lat="42.0568267" lon="11.9415717"><ele>46.0</ele><time>2026-04-04T09:00:17.116Z</time></trkpt><trkpt lat="42.0569267" lon="11.94168"><ele>48.5</ele><time>2026-04-04T09:00:18.117Z</time></trkpt><trkpt lat="42.057025" lon="11.94179"><ele>51.0</ele><time>2026-04-04T09:00:19.119Z</time></trkpt><trkpt lat="42.057135" lon="11.9418833"><ele>53.5</ele><time>2026-04-04T09:00:20.117Z</time></trkpt><trkpt lat="42.0572417" lon="11.94197"><ele>56.0</ele><time>2026-04-04T09:00:21.117Z</time></trkpt><trkpt lat="42.05735" lon="11.9420483"><ele>53.0</ele><time>2026-04-04T09:00:22.116Z</time></trkpt><trkpt lat="42.0574683" lon="11.9421333"><ele>50.0</ele><time>2026-04-04T09:00:23.118Z</time></trkpt><trkpt lat="42.05758" lon="11.9422067"><ele>47.0</ele><time>2026-04-04T09:00:24.116Z</time></trkpt><trkpt lat="42.0576867" lon="11.9422617"><ele>44.0</ele><time>2026-04-04T09:00:25.116Z</time></trkpt><trkpt lat="42.0577917" lon="11.9423"><ele>44.0</ele><time>2026-04-04T09:00:26.117Z</time></trkpt><trkpt lat="42.0578967" lon="11.942325"><ele>44.0</ele><time>2026-04-04T09:00:27.116Z</time></trkpt><trkpt lat="42.0579933" lon="11.9423333"><ele>44.0</ele><time>2026-04-04T09:00:28.116Z</time></trkpt><trkpt lat="42.0580767" lon="11.9423183"><ele>44.0</ele><time>2026-04-04T09:00:29.114Z</time></trkpt><trkpt lat="42.0581517" lon="11.9422967"><ele>44.0</ele><time>2026-04-04T09:00:30.115Z</time></trkpt><trkpt lat="42.0582267" lon="11.9422583"><ele>44.0</ele><time>2026-04-04T09:00:31.117Z</time></trkpt><trkpt lat="42.0583017" lon="11.9422033"><ele>43.0</ele><time>2026-04-04T09:00:32.114Z</time></trkpt><trkpt lat="42.0583717" lon="11.942135"><ele>42.0</ele><time>2026-04-04T09:00:33.117Z</time></trkpt><trkpt lat="42.05844" lon="11.942055"><ele>41.0</ele><time>2026-04-04T09:00:34.117Z</time></trkpt><trkpt lat="42.058505" lon="11.9419867"><ele>40.0</ele><time>2026-04-04T09:00:35.115Z</time></trkpt><trkpt lat="42.05858" lon="11.9419133"><ele>39.0</ele><time>2026-04-04T09:00:36.117Z</time></trkpt><trkpt lat="42.05866" lon="11.941855"><ele>38.0</ele><time>2026-04-04T09:00:37.115Z</time></trkpt><trkpt lat="42.0587433" lon="11.9418317"><ele>38.0</ele><time>2026-04-04T09:00:38.112Z</time></trkpt><trkpt lat="42.0588317" lon="11.9418317"><ele>38.0</ele><time>2026-04-04T09:00:39.117Z</time></trkpt><trkpt lat="42.0589233" lon="11.941845"><ele>38.0</ele><time>2026-04-04T09:00:40.11Z</time></trkpt><trkpt lat="42.059005" lon="11.9419"><ele>38.0</ele><time>2026-04-04T09:00:41.202Z</time></trkpt><trkpt lat="42.0590567" lon="11.9420117"><ele>38.0</ele><time>2026-04-04T09:00:42.115Z</time></trkpt><trkpt lat="42.05911" lon="11.9421417"><ele>39.5</ele><time>2026-04-04T09:00:43.118Z</time></trkpt><trkpt lat="42.0591567" lon="11.9422933"><ele>41.0</ele><time>2026-04-04T09:00:44.117Z</time></trkpt><trkpt lat="42.0592" lon="11.9424533"><ele>42.5</ele><time>2026-04-04T09:00:45.118Z</time></trkpt><trkpt lat="42.0592383" lon="11.942615"><ele>44.0</ele><time>2026-04-04T09:00:46.112Z</time></trkpt><trkpt lat="42.0592767" lon="11.942775"><ele>44.0</ele><time>2026-04-04T09:00:47.114Z</time></trkpt><trkpt lat="42.0593117" lon="11.94294"><ele>44.0</ele><time>2026-04-04T09:00:48.115Z</time></trkpt><trkpt lat="42.059345" lon="11.9431083"><ele>44.0</ele><time>2026-04-04T09:00:49.116Z</time></trkpt><trkpt lat="42.059375" lon="11.94328"><ele>44.0</ele><time>2026-04-04T09:00:50.114Z</time></trkpt><trkpt lat="42.0594033" lon="11.9434567"><ele>44.5</ele><time>2026-04-04T09:00:51.116Z</time></trkpt><trkpt lat="42.0594267" lon="11.9436317"><ele>45.0</ele><time>2026-04-04T09:00:52.118Z</time></trkpt><trkpt lat="42.0594433" lon="11.9438083"><ele>45.5</ele><time>2026-04-04T09:00:53.116Z</time></trkpt><trkpt lat="42.0594517" lon="11.9439883"><ele>46.0</ele><time>2026-04-04T09:00:54.113Z</time></trkpt><trkpt lat="42.05947" lon="11.9441617"><ele>46.5</ele><time>2026-04-04T09:00:55.117Z</time></trkpt><trkpt lat="42.0594917" lon="11.944315"><ele>47.0</ele><time>2026-04-04T09:00:56.115Z</time></trkpt><trkpt lat="42.0595133" lon="11.94446"><ele>47.5</ele><time>2026-04-04T09:00:57.118Z</time></trkpt><trkpt lat="42.0595367" lon="11.9446117"><ele>48.0</ele><time>2026-04-04T09:00:58.112Z</time></trkpt><trkpt lat="42.0595617" lon="11.9447717"><ele>48.0</ele><time>2026-04-04T09:00:59.114Z</time></trkpt><trkpt lat="42.0595867" lon="11.9449367"><ele>48.0</ele><time>2026-04-04T09:01:00.116Z</time></trkpt><trkpt lat="42.0596067" lon="11.945105"><ele>48.0</ele><time>2026-04-04T09:01:01.117Z</time></trkpt><trkpt lat="42.0596267" lon="11.9452767"><ele>48.0</ele><time>2026-04-04T09:01:02.117Z</time></trkpt><trkpt lat="42.0596467" lon="11.9454517"><ele>48.75</ele><time>2026-04-04T09:01:03.117Z</time></trkpt><trkpt lat="42.0596617" lon="11.9456217"><ele>49.5</ele><time>2026-04-04T09:01:04.116Z</time></trkpt><trkpt lat="42.0596717" lon="11.9457933"><ele>50.25</ele><time>2026-04-04T09:01:05.116Z</time></trkpt><trkpt lat="42.0596817" lon="11.9459617"><ele>51.0</ele><time>2026-04-04T09:01:06.114Z</time></trkpt><trkpt lat="42.059695" lon="11.9461267"><ele>51.25</ele><time>2026-04-04T09:01:07.114Z</time></trkpt><trkpt lat="42.05971" lon="11.9462917"><ele>51.5</ele><time>2026-04-04T09:01:08.117Z</time></trkpt><trkpt lat="42.0597317" lon="11.946445"><ele>51.75</ele><time>2026-04-04T09:01:09.122Z</time></trkpt><trkpt lat="42.0597633" lon="11.9465917"><ele>52.0</ele><time>2026-04-04T09:01:10.116Z</time></trkpt><trkpt lat="42.059805" lon="11.94673"><ele>52.25</ele><time>2026-04-04T09:01:11.115Z</time></trkpt><trkpt lat="42.0598433" lon="11.946875"><ele>52.5</ele><time>2026-04-04T09:01:12.119Z</time></trkpt><trkpt lat="42.059875" lon="11.947035"><ele>52.75</ele><time>2026-04-04T09:01:13.117Z</time></trkpt><trkpt lat="42.0598883" lon="11.9471917"><ele>53.0</ele><time>2026-04-04T09:01:14.116Z</time></trkpt><trkpt lat="42.0598767" lon="11.9473433"><ele>53.0</ele><time>2026-04-04T09:01:15.117Z</time></trkpt><trkpt lat="42.05987" lon="11.94749"><ele>53.0</ele><time>2026-04-04T09:01:16.116Z</time></trkpt><trkpt lat="42.0598617" lon="11.947625"><ele>53.0</ele><time>2026-04-04T09:01:17.116Z</time></trkpt><trkpt lat="42.0598433" lon="11.9477767"><ele>53.0</ele><time>2026-04-04T09:01:18.115Z</time></trkpt><trkpt lat="42.0598533" lon="11.94791"><ele>53.0</ele><time>2026-04-04T09:01:19.116Z</time></trkpt><trkpt lat="42.059865" lon="11.948035"><ele>52.8</ele><time>2026-04-04T09:01:20.117Z</time></trkpt><trkpt lat="42.059895" lon="11.9481683"><ele>52.599999999999994</ele><time>2026-04-04T09:01:21.115Z</time></trkpt><trkpt lat="42.0599417" lon="11.9482933"><ele>52.400000000000006</ele><time>2026-04-04T09:01:22.116Z</time></trkpt><trkpt lat="42.0600033" lon="11.9484133"><ele>52.2</ele><time>2026-04-04T09:01:23.115Z</time></trkpt><trkpt lat="42.0600617" lon="11.94853"><ele>52.0</ele><time>2026-04-04T09:01:24.116Z</time></trkpt><trkpt lat="42.0601183" lon="11.948655"><ele>53.400000000000006</ele><time>2026-04-04T09:01:25.116Z</time></trkpt><trkpt lat="42.0601733" lon="11.94878"><ele>54.800000000000004</ele><time>2026-04-04T09:01:26.116Z</time></trkpt><trkpt lat="42.0602317" lon="11.9489017"><ele>56.2</ele><time>2026-04-04T09:01:27.116Z</time></trkpt><trkpt lat="42.0603017" lon="11.9490167"><ele>57.6</ele><time>2026-04-04T09:01:28.118Z</time></trkpt><trkpt lat="42.06036" lon="11.94914"><ele>59.0</ele><time>2026-04-04T09:01:29.116Z</time></trkpt><trkpt lat="42.060405" lon="11.9492733"><ele>59.0</ele><time>2026-04-04T09:01:30.116Z</time></trkpt><trkpt lat="42.0604317" lon="11.9494167"><ele>59.00000000000001</ele><time>2026-04-04T09:01:31.114Z</time></trkpt><trkpt lat="42.0604417" lon="11.9495667"><ele>59.00000000000001</ele><time>2026-04-04T09:01:32.116Z</time></trkpt><trkpt lat="42.0604467" lon="11.949715"><ele>59.0</ele><time>2026-04-04T09:01:33.116Z</time></trkpt><trkpt lat="42.0604533" lon="11.9498617"><ele>59.0</ele><time>2026-04-04T09:01:34.117Z</time></trkpt><trkpt lat="42.0604683" lon="11.9500033"><ele>58.2</ele><time>2026-04-04T09:01:35.116Z</time></trkpt><trkpt lat="42.0604967" lon="11.9501333"><ele>57.400000000000006</ele><time>2026-04-04T09:01:36.116Z</time></trkpt><trkpt lat="42.060535" lon="11.95026"><ele>56.6</ele><time>2026-04-04T09:01:37.115Z</time></trkpt><trkpt lat="42.0606017" lon="11.9503583"><ele>55.8</ele><time>2026-04-04T09:01:38.114Z</time></trkpt><trkpt lat="42.0606733" lon="11.9504517"><ele>55.0</ele><time>2026-04-04T09:01:39.119Z</time></trkpt><trkpt lat="42.0607467" lon="11.9505317"><ele>57.6</ele><time>2026-04-04T09:01:40.114Z</time></trkpt><trkpt lat="42.0608317" lon="11.9505833"><ele>60.2</ele><time>2026-04-04T09:01:41.113Z</time></trkpt><trkpt lat="42.0609183" lon="11.9506183"><ele>62.8</ele><time>2026-04-04T09:01:42.115Z</time></trkpt><trkpt lat="42.0610133" lon="11.9506267"><ele>65.4</ele><time>2026-04-04T09:01:43.116Z</time></trkpt><trkpt lat="42.0611117" lon="11.9506167"><ele>68.0</ele><time>2026-04-04T09:01:44.118Z</time></trkpt><trkpt lat="42.06122" lon="11.9505933"><ele>68.0</ele><time>2026-04-04T09:01:45.116Z</time></trkpt><trkpt lat="42.0613367" lon="11.95056"><ele>68.0</ele><time>2026-04-04T09:01:46.115Z</time></trkpt><trkpt lat="42.0614483" lon="11.9505317"><ele>68.0</ele><time>2026-04-04T09:01:47.119Z</time></trkpt><trkpt lat="42.06156" lon="11.9505033"><ele>68.0</ele><time>2026-04-04T09:01:48.119Z</time></trkpt><trkpt lat="42.061655" lon="11.950485"><ele>68.0</ele><time>2026-04-04T09:01:49.115Z</time></trkpt><trkpt lat="42.0617583" lon="11.95048"><ele>69.0</ele><time>2026-04-04T09:01:50.118Z</time></trkpt><trkpt lat="42.061865" lon="11.9504933"><ele>70.0</ele><time>2026-04-04T09:01:51.118Z</time></trkpt><trkpt lat="42.0619667" lon="11.95054"><ele>71.0</ele><time>2026-04-04T09:01:52.113Z</time></trkpt><trkpt lat="42.0620667" lon="11.9506117"><ele>72.0</ele><time>2026-04-04T09:01:53.116Z</time></trkpt><trkpt lat="42.0621733" lon="11.9506717"><ele>73.0</ele><time>2026-04-04T09:01:54.117Z</time></trkpt><trkpt lat="42.06227" lon="11.95074"><ele>73.0</ele><time>2026-04-04T09:01:55.118Z</time></trkpt><trkpt lat="42.06237" lon="11.95079"><ele>73.0</ele><time>2026-04-04T09:01:56.118Z</time></trkpt><trkpt lat="42.0624683" lon="11.950825"><ele>73.0</ele><time>2026-04-04T09:01:57.116Z</time></trkpt><trkpt lat="42.06257" lon="11.9508317"><ele>73.0</ele><time>2026-04-04T09:01:58.117Z</time></trkpt><trkpt lat="42.0626767" lon="11.9508117"><ele>73.0</ele><time>2026-04-04T09:01:59.116Z</time></trkpt><trkpt lat="42.062775" lon="11.9507717"><ele>74.0</ele><time>2026-04-04T09:02:00.113Z</time></trkpt><trkpt lat="42.0628733" lon="11.950715"><ele>75.0</ele><time>2026-04-04T09:02:01.11Z</time></trkpt><trkpt lat="42.0629683" lon="11.9506467"><ele>76.0</ele><time>2026-04-04T09:02:02.114Z</time></trkpt><trkpt lat="42.063055" lon="11.9505783"><ele>77.0</ele><time>2026-04-04T09:02:03.117Z</time></trkpt><trkpt lat="42.063145" lon="11.9505233"><ele>78.0</ele><time>2026-04-04T09:02:04.118Z</time></trkpt><trkpt lat="42.0632417" lon="11.950495"><ele>78.0</ele><time>2026-04-04T09:02:05.115Z</time></trkpt><trkpt lat="42.0633383" lon="11.9505017"><ele>78.0</ele><time>2026-04-04T09:02:06.118Z</time></trkpt><trkpt lat="42.0634367" lon="11.9505283"><ele>78.0</ele><time>2026-04-04T09:02:07.115Z</time></trkpt><trkpt lat="42.0635483" lon="11.9505783"><ele>78.0</ele><time>2026-04-04T09:02:08.116Z</time></trkpt><trkpt lat="42.063665" lon="11.9506383"><ele>78.0</ele><time>2026-04-04T09:02:09.113Z</time></trkpt><trkpt lat="42.0637867" lon="11.950705"><ele>78.0</ele><time>2026-04-04T09:02:10.115Z</time></trkpt><trkpt lat="42.0639233" lon="11.95076"><ele>78.0</ele><time>2026-04-04T09:02:11.118Z</time></trkpt><trkpt lat="42.064065" lon="11.9508117"><ele>78.0</ele><time>2026-04-04T09:02:12.114Z</time></trkpt><trkpt lat="42.0642133" lon="11.9508517"><ele>78.0</ele><time>2026-04-04T09:02:13.114Z</time></trkpt><trkpt lat="42.06436" lon="11.9508867"><ele>75.75</ele><time>2026-04-04T09:02:14.115Z</time></trkpt><trkpt lat="42.064505" lon="11.950905"><ele>73.5</ele><time>2026-04-04T09:02:15.116Z</time></trkpt><trkpt lat="42.0646433" lon="11.95091"><ele>71.25</ele><time>2026-04-04T09:02:16.114Z</time></trkpt><trkpt lat="42.0647733" lon="11.9508983"><ele>69.0</ele><time>2026-04-04T09:02:17.114Z</time></trkpt><trkpt lat="42.0648983" lon="11.9508833"><ele>73.75</ele><time>2026-04-04T09:02:18.116Z</time></trkpt><trkpt lat="42.06502" lon="11.950865"><ele>78.5</ele><time>2026-04-04T09:02:19.12Z</time></trkpt><trkpt lat="42.0651483" lon="11.95085"><ele>83.25</ele><time>2026-04-04T09:02:20.116Z</time></trkpt><trkpt lat="42.065275" lon="11.9508433"><ele>88.0</ele><time>2026-04-04T09:02:21.119Z</time></trkpt><trkpt lat="42.0653967" lon="11.9508567"><ele>87.60000000000001</ele><time>2026-04-04T09:02:22.114Z</time></trkpt><trkpt lat="42.065515" lon="11.9508917"><ele>87.2</ele><time>2026-04-04T09:02:23.116Z</time></trkpt><trkpt lat="42.065615" lon="11.950945"><ele>86.8</ele><time>2026-04-04T09:02:24.115Z</time></trkpt><trkpt lat="42.0657017" lon="11.9510233"><ele>86.4</ele><time>2026-04-04T09:02:25.117Z</time></trkpt><trkpt lat="42.0657733" lon="11.9511383"><ele>86.0</ele><time>2026-04-04T09:02:26.115Z</time></trkpt><trkpt lat="42.0658367" lon="11.9512683"><ele>86.0</ele><time>2026-04-04T09:02:27.116Z</time></trkpt><trkpt lat="42.0659117" lon="11.9513983"><ele>86.0</ele><time>2026-04-04T09:02:28.118Z</time></trkpt><trkpt lat="42.0659933" lon="11.9515117"><ele>86.0</ele><time>2026-04-04T09:02:29.119Z</time></trkpt><trkpt lat="42.0660767" lon="11.9516017"><ele>86.0</ele><time>2026-04-04T09:02:30.114Z</time></trkpt><trkpt lat="42.0661633" lon="11.9516733"><ele>86.0</ele><time>2026-04-04T09:02:31.119Z</time></trkpt><trkpt lat="42.06626" lon="11.9517233"><ele>85.8</ele><time>2026-04-04T09:02:32.115Z</time></trkpt><trkpt lat="42.0663633" lon="11.9517583"><ele>85.6</ele><time>2026-04-04T09:02:33.117Z</time></trkpt><trkpt lat="42.0664633" lon="11.9517817"><ele>85.4</ele><time>2026-04-04T09:02:34.116Z</time></trkpt><trkpt lat="42.0665767" lon="11.9517817"><ele>85.2</ele><time>2026-04-04T09:02:35.116Z</time></trkpt><trkpt lat="42.0666883" lon="11.9517867"><ele>85.0</ele><time>2026-04-04T09:02:36.115Z</time></trkpt><trkpt lat="42.0668067" lon="11.951795"><ele>85.0</ele><time>2026-04-04T09:02:37.114Z</time></trkpt><trkpt lat="42.0669183" lon="11.951805"><ele>85.0</ele><time>2026-04-04T09:02:38.118Z</time></trkpt><trkpt lat="42.06704" lon="11.9518117"><ele>85.0</ele><time>2026-04-04T09:02:39.113Z</time></trkpt><trkpt lat="42.0671617" lon="11.9518167"><ele>85.0</ele><time>2026-04-04T09:02:40.115Z</time></trkpt><trkpt lat="42.0672867" lon="11.9518233"><ele>85.0</ele><time>2026-04-04T09:02:41.115Z</time></trkpt><trkpt lat="42.0674133" lon="11.9518283"><ele>85.0</ele><time>2026-04-04T09:02:42.117Z</time></trkpt><trkpt lat="42.0675417" lon="11.9518317"><ele>85.0</ele><time>2026-04-04T09:02:43.114Z</time></trkpt><trkpt lat="42.0676767" lon="11.9518383"><ele>85.0</ele><time>2026-04-04T09:02:44.116Z</time></trkpt><trkpt lat="42.0678067" lon="11.9518467"><ele>88.0</ele><time>2026-04-04T09:02:45.114Z</time></trkpt><trkpt lat="42.0679333" lon="11.9518617"><ele>91.0</ele><time>2026-04-04T09:02:46.113Z</time></trkpt><trkpt lat="42.06805" lon="11.951895"><ele>94.0</ele><time>2026-04-04T09:02:47.116Z</time></trkpt><trkpt lat="42.068155" lon="11.951945"><ele>97.0</ele><time>2026-04-04T09:02:48.119Z</time></trkpt><trkpt lat="42.06825" lon="11.9520117"><ele>98.19999999999999</ele><time>2026-04-04T09:02:49.115Z</time></trkpt><trkpt lat="42.06834" lon="11.9520967"><ele>99.4</ele><time>2026-04-04T09:02:50.117Z</time></trkpt><trkpt lat="42.068405" lon="11.95221"><ele>100.6</ele><time>2026-04-04T09:02:51.118Z</time></trkpt><trkpt lat="42.068465" lon="11.95233"><ele>101.80000000000001</ele><time>2026-04-04T09:02:52.118Z</time></trkpt><trkpt lat="42.0685033" lon="11.95246"><ele>103.0</ele><time>2026-04-04T09:02:53.115Z</time></trkpt><trkpt lat="42.0685317" lon="11.9525967"><ele>103.0</ele><time>2026-04-04T09:02:54.118Z</time></trkpt><trkpt lat="42.0685417" lon="11.9527417"><ele>103.0</ele><time>2026-04-04T09:02:55.117Z</time></trkpt><trkpt lat="42.0685517" lon="11.9528867"><ele>103.0</ele><time>2026-04-04T09:02:56.116Z</time></trkpt><trkpt lat="42.0685783" lon="11.953025"><ele>103.0</ele><time>2026-04-04T09:02:57.119Z</time></trkpt><trkpt lat="42.06862" lon="11.9531617"><ele>103.0</ele><time>2026-04-04T09:02:58.115Z</time></trkpt><trkpt lat="42.0686767" lon="11.9533033"><ele>99.75</ele><time>2026-04-04T09:02:59.114Z</time></trkpt><trkpt lat="42.0687483" lon="11.9534467"><ele>96.5</ele><time>2026-04-04T09:03:00.114Z</time></trkpt><trkpt lat="42.0688283" lon="11.95358"><ele>93.25</ele><time>2026-04-04T09:03:01.119Z</time></trkpt><trkpt lat="42.0689117" lon="11.9537"><ele>90.0</ele><time>2026-04-04T09:03:02.117Z</time></trkpt><trkpt lat="42.0689983" lon="11.9538"><ele>90.0</ele><time>2026-04-04T09:03:03.117Z</time></trkpt><trkpt lat="42.0690983" lon="11.9538817"><ele>90.0</ele><time>2026-04-04T09:03:04.118Z</time></trkpt><trkpt lat="42.0692083" lon="11.9539483"><ele>90.0</ele><time>2026-04-04T09:03:05.11Z</time></trkpt><trkpt lat="42.0693333" lon="11.954005"><ele>90.0</ele><time>2026-04-04T09:03:06.114Z</time></trkpt><trkpt lat="42.069465" lon="11.95406"><ele>91.5</ele><time>2026-04-04T09:03:07.117Z</time></trkpt><trkpt lat="42.0695967" lon="11.954115"><ele>93.0</ele><time>2026-04-04T09:03:08.109Z</time></trkpt><trkpt lat="42.069725" lon="11.9541733"><ele>94.5</ele><time>2026-04-04T09:03:09.115Z</time></trkpt><trkpt lat="42.069845" lon="11.9542433"><ele>96.0</ele><time>2026-04-04T09:03:10.117Z</time></trkpt><trkpt lat="42.069945" lon="11.9543267"><ele>101.0</ele><time>2026-04-04T09:03:11.108Z</time></trkpt><trkpt lat="42.0700367" lon="11.9544083"><ele>106.0</ele><time>2026-04-04T09:03:12.11Z</time></trkpt><trkpt lat="42.070115" lon="11.9545017"><ele>111.0</ele><time>2026-04-04T09:03:13.112Z</time></trkpt><trkpt lat="42.0702" lon="11.95463"><ele>116.0</ele><time>2026-04-04T09:03:14.114Z</time></trkpt><trkpt lat="42.070285" lon="11.9547567"><ele>116.0</ele><time>2026-04-04T09:03:15.108Z</time></trkpt><trkpt lat="42.07037" lon="11.9548767"><ele>116.0</ele><time>2026-04-04T09:03:16.109Z</time></trkpt><trkpt lat="42.0704583" lon="11.9550017"><ele>116.0</ele><time>2026-04-04T09:03:17.115Z</time></trkpt><trkpt lat="42.0705533" lon="11.9551233"><ele>116.0</ele><time>2026-04-04T09:03:18.108Z</time></trkpt><trkpt lat="42.070645" lon="11.95525"><ele>118.0</ele><time>2026-04-04T09:03:19.117Z</time></trkpt><trkpt lat="42.0707367" lon="11.9553833"><ele>120.0</ele><time>2026-04-04T09:03:20.115Z</time></trkpt><trkpt lat="42.0708283" lon="11.9555083"><ele>122.0</ele><time>2026-04-04T09:03:21.108Z</time></trkpt><trkpt lat="42.0709183" lon="11.9556283"><ele>124.0</ele><time>2026-04-04T09:03:22.117Z</time></trkpt><trkpt lat="42.07101" lon="11.955745"><ele>124.0</ele><time>2026-04-04T09:03:23.115Z</time></trkpt><trkpt lat="42.0711017" lon="11.955865"><ele>124.0</ele><time>2026-04-04T09:03:24.115Z</time></trkpt><trkpt lat="42.071195" lon="11.9559833"><ele>124.0</ele><time>2026-04-04T09:03:25.116Z</time></trkpt><trkpt lat="42.07129" lon="11.9560933"><ele>124.0</ele><time>2026-04-04T09:03:26.115Z</time></trkpt><trkpt lat="42.071385" lon="11.9561967"><ele>126.75</ele><time>2026-04-04T09:03:27.115Z</time></trkpt><trkpt lat="42.0714683" lon="11.9563117"><ele>129.5</ele><time>2026-04-04T09:03:28.114Z</time></trkpt><trkpt lat="42.071555" lon="11.95643"><ele>132.25</ele><time>2026-04-04T09:03:29.116Z</time></trkpt><trkpt lat="42.0716333" lon="11.9565483"><ele>135.0</ele><time>2026-04-04T09:03:30.112Z</time></trkpt><trkpt lat="42.0717067" lon="11.956655"><ele>132.2</ele><time>2026-04-04T09:03:31.118Z</time></trkpt><trkpt lat="42.0717733" lon="11.9567683"><ele>129.4</ele><time>2026-04-04T09:03:32.118Z</time></trkpt><trkpt lat="42.071825" lon="11.9568967"><ele>126.6</ele><time>2026-04-04T09:03:33.116Z</time></trkpt><trkpt lat="42.0718767" lon="11.9570317"><ele>123.8</ele><time>2026-04-04T09:03:34.117Z</time></trkpt><trkpt lat="42.07193" lon="11.9571683"><ele>121.0</ele><time>2026-04-04T09:03:35.113Z</time></trkpt><trkpt lat="42.07199" lon="11.9573117"><ele>121.0</ele><time>2026-04-04T09:03:36.115Z</time></trkpt><trkpt lat="42.0720517" lon="11.9574483"><ele>121.0</ele><time>2026-04-04T09:03:37.114Z</time></trkpt><trkpt lat="42.0721283" lon="11.9575667"><ele>121.0</ele><time>2026-04-04T09:03:38.109Z</time></trkpt><trkpt lat="42.0722217" lon="11.95768"><ele>121.0</ele><time>2026-04-04T09:03:39.119Z</time></trkpt><trkpt lat="42.0723183" lon="11.9577983"><ele>122.5</ele><time>2026-04-04T09:03:40.118Z</time></trkpt><trkpt lat="42.07242" lon="11.9579217"><ele>124.0</ele><time>2026-04-04T09:03:41.117Z</time></trkpt><trkpt lat="42.0725217" lon="11.95805"><ele>125.5</ele><time>2026-04-04T09:03:42.121Z</time></trkpt><trkpt lat="42.0726217" lon="11.9581667"><ele>127.0</ele><time>2026-04-04T09:03:43.115Z</time></trkpt><trkpt lat="42.0727217" lon="11.95828"><ele>122.75</ele><time>2026-04-04T09:03:44.117Z</time></trkpt><trkpt lat="42.0728267" lon="11.9583867"><ele>118.5</ele><time>2026-04-04T09:03:45.118Z</time></trkpt><trkpt lat="42.072925" lon="11.958505"><ele>114.25</ele><time>2026-04-04T09:03:46.111Z</time></trkpt><trkpt lat="42.0730167" lon="11.9586367"><ele>110.0</ele><time>2026-04-04T09:03:47.116Z</time></trkpt><trkpt lat="42.0731067" lon="11.9587733"><ele>110.0</ele><time>2026-04-04T09:03:48.111Z</time></trkpt><trkpt lat="42.0731983" lon="11.9589183"><ele>110.0</ele><time>2026-04-04T09:03:49.111Z</time></trkpt><trkpt lat="42.0732867" lon="11.959075"><ele>110.0</ele><time>2026-04-04T09:03:50.114Z</time></trkpt><trkpt lat="42.0733733" lon="11.9592367"><ele>110.0</ele><time>2026-04-04T09:03:51.115Z</time></trkpt><trkpt lat="42.07346" lon="11.9594017"><ele>111.25</ele><time>2026-04-04T09:03:52.115Z</time></trkpt><trkpt lat="42.073555" lon="11.95956"><ele>112.5</ele><time>2026-04-04T09:03:53.114Z</time></trkpt><trkpt lat="42.0736483" lon="11.9597117"><ele>113.75</ele><time>2026-04-04T09:03:54.118Z</time></trkpt><trkpt lat="42.0737383" lon="11.9598517"><ele>115.0</ele><time>2026-04-04T09:03:55.114Z</time></trkpt><trkpt lat="42.0738267" lon="11.9599833"><ele>112.25</ele><time>2026-04-04T09:03:56.115Z</time></trkpt><trkpt lat="42.0739183" lon="11.960115"><ele>109.5</ele><time>2026-04-04T09:03:57.116Z</time></trkpt><trkpt lat="42.0740117" lon="11.96024"><ele>106.75</ele><time>2026-04-04T09:03:58.117Z</time></trkpt><trkpt lat="42.074105" lon="11.96036"><ele>104.0</ele><time>2026-04-04T09:03:59.115Z</time></trkpt><trkpt lat="42.0741933" lon="11.960485"><ele>106.80000000000001</ele><time>2026-04-04T09:04:00.114Z</time></trkpt><trkpt lat="42.0742667" lon="11.960615"><ele>109.60000000000001</ele><time>2026-04-04T09:04:01.118Z</time></trkpt><trkpt lat="42.0743267" lon="11.96075"><ele>112.4</ele><time>2026-04-04T09:04:02.118Z</time></trkpt><trkpt lat="42.0743633" lon="11.96089"><ele>115.2</ele><time>2026-04-04T09:04:03.114Z</time></trkpt><trkpt lat="42.0743883" lon="11.9610167"><ele>118.0</ele><time>2026-04-04T09:04:04.116Z</time></trkpt><trkpt lat="42.0744233" lon="11.9611283"><ele>118.0</ele><time>2026-04-04T09:04:05.113Z</time></trkpt><trkpt lat="42.07447" lon="11.961235"><ele>118.00000000000001</ele><time>2026-04-04T09:04:06.117Z</time></trkpt><trkpt lat="42.0745283" lon="11.9613483"><ele>118.00000000000001</ele><time>2026-04-04T09:04:07.117Z</time></trkpt><trkpt lat="42.074595" lon="11.9614633"><ele>118.0</ele><time>2026-04-04T09:04:08.114Z</time></trkpt><trkpt lat="42.0746667" lon="11.9615817"><ele>118.0</ele><time>2026-04-04T09:04:09.111Z</time></trkpt><trkpt lat="42.0747467" lon="11.9617017"><ele>116.25</ele><time>2026-04-04T09:04:10.115Z</time></trkpt><trkpt lat="42.0748267" lon="11.9618233"><ele>114.5</ele><time>2026-04-04T09:04:11.117Z</time></trkpt><trkpt lat="42.074905" lon="11.9619433"><ele>112.75</ele><time>2026-04-04T09:04:12.113Z</time></trkpt><trkpt lat="42.074985" lon="11.96205"><ele>111.0</ele><time>2026-04-04T09:04:13.118Z</time></trkpt><trkpt lat="42.0750733" lon="11.9621383"><ele>115.5</ele><time>2026-04-04T09:04:14.114Z</time></trkpt><trkpt lat="42.0751817" lon="11.9621983"><ele>120.0</ele><time>2026-04-04T09:04:15.115Z</time></trkpt><trkpt lat="42.0752933" lon="11.9622483"><ele>124.5</ele><time>2026-04-04T09:04:16.113Z</time></trkpt><trkpt lat="42.0753983" lon="11.9622933"><ele>129.0</ele><time>2026-04-04T09:04:17.116Z</time></trkpt><trkpt lat="42.075495" lon="11.9623567"><ele>129.0</ele><time>2026-04-04T09:04:18.113Z</time></trkpt><trkpt lat="42.0755867" lon="11.9624383"><ele>129.0</ele><time>2026-04-04T09:04:19.112Z</time></trkpt><trkpt lat="42.0756667" lon="11.9625383"><ele>129.0</ele><time>2026-04-04T09:04:20.114Z</time></trkpt><trkpt lat="42.0757483" lon="11.96265"><ele>129.0</ele><time>2026-04-04T09:04:21.115Z</time></trkpt><trkpt lat="42.07584" lon="11.9627583"><ele>127.75</ele><time>2026-04-04T09:04:22.116Z</time></trkpt><trkpt lat="42.0759383" lon="11.96286"><ele>126.5</ele><time>2026-04-04T09:04:23.115Z</time></trkpt><trkpt lat="42.0760417" lon="11.9629517"><ele>125.25</ele><time>2026-04-04T09:04:24.107Z</time></trkpt><trkpt lat="42.0761483" lon="11.963035"><ele>124.0</ele><time>2026-04-04T09:04:25.117Z</time></trkpt><trkpt lat="42.076255" lon="11.9631183"><ele>124.0</ele><time>2026-04-04T09:04:26.112Z</time></trkpt><trkpt lat="42.0763617" lon="11.9632017"><ele>124.0</ele><time>2026-04-04T09:04:27.117Z</time></trkpt><trkpt lat="42.0764633" lon="11.9633083"><ele>124.0</ele><time>2026-04-04T09:04:28.117Z</time></trkpt><trkpt lat="42.0765583" lon="11.9634283"><ele>124.0</ele><time>2026-04-04T09:04:29.115Z</time></trkpt><trkpt lat="42.0766467" lon="11.96355"><ele>123.75</ele><time>2026-04-04T09:04:30.114Z</time></trkpt><trkpt lat="42.07674" lon="11.9636733"><ele>123.5</ele><time>2026-04-04T09:04:31.116Z</time></trkpt><trkpt lat="42.0768467" lon="11.96379"><ele>123.25</ele><time>2026-04-04T09:04:32.115Z</time></trkpt><trkpt lat="42.0769467" lon="11.96392"><ele>123.0</ele><time>2026-04-04T09:04:33.115Z</time></trkpt><trkpt lat="42.077045" lon="11.9640483"><ele>123.0</ele><time>2026-04-04T09:04:34.113Z</time></trkpt><trkpt lat="42.0771433" lon="11.9641733"><ele>123.0</ele><time>2026-04-04T09:04:35.116Z</time></trkpt><trkpt lat="42.0772417" lon="11.96429"><ele>123.0</ele><time>2026-04-04T09:04:36.115Z</time></trkpt><trkpt lat="42.077345" lon="11.9643983"><ele>123.0</ele><time>2026-04-04T09:04:37.115Z</time></trkpt><trkpt lat="42.077455" lon="11.9644983"><ele>123.25</ele><time>2026-04-04T09:04:38.118Z</time></trkpt><trkpt lat="42.0775683" lon="11.9645883"><ele>123.5</ele><time>2026-04-04T09:04:39.116Z</time></trkpt><trkpt lat="42.0776817" lon="11.9646767"><ele>123.75</ele><time>2026-04-04T09:04:40.114Z</time></trkpt><trkpt lat="42.0777967" lon="11.9647567"><ele>124.0</ele><time>2026-04-04T09:04:41.116Z</time></trkpt><trkpt lat="42.077905" lon="11.9648317"><ele>124.0</ele><time>2026-04-04T09:04:42.117Z</time></trkpt><trkpt lat="42.078015" lon="11.9649"><ele>124.0</ele><time>2026-04-04T09:04:43.116Z</time></trkpt><trkpt lat="42.0781233" lon="11.9649733"><ele>124.0</ele><time>2026-04-04T09:04:44.116Z</time></trkpt><trkpt lat="42.0782383" lon="11.9650433"><ele>124.0</ele><time>2026-04-04T09:04:45.118Z</time></trkpt><trkpt lat="42.0783483" lon="11.9651217"><ele>122.0</ele><time>2026-04-04T09:04:46.117Z</time></trkpt><trkpt lat="42.0784617" lon="11.9651983"><ele>120.0</ele><time>2026-04-04T09:04:47.118Z</time></trkpt><trkpt lat="42.0785717" lon="11.9652717"><ele>118.0</ele><time>2026-04-04T09:04:48.115Z</time></trkpt><trkpt lat="42.0786967" lon="11.965335"><ele>116.0</ele><time>2026-04-04T09:04:49.113Z</time></trkpt><trkpt lat="42.0788217" lon="11.96539"><ele>116.0</ele><time>2026-04-04T09:04:50.114Z</time></trkpt><trkpt lat="42.07895" lon="11.9654283"><ele>116.0</ele><time>2026-04-04T09:04:51.119Z</time></trkpt><trkpt lat="42.0790933" lon="11.9654267"><ele>116.0</ele><time>2026-04-04T09:04:52.114Z</time></trkpt><trkpt lat="42.0792383" lon="11.96542"><ele>116.0</ele><time>2026-04-04T09:04:53.115Z</time></trkpt><trkpt lat="42.0793767" lon="11.9654117"><ele>117.0</ele><time>2026-04-04T09:04:54.109Z</time></trkpt><trkpt lat="42.0795033" lon="11.9654"><ele>118.0</ele><time>2026-04-04T09:04:55.116Z</time></trkpt><trkpt lat="42.0796383" lon="11.965375"><ele>119.0</ele><time>2026-04-04T09:04:56.118Z</time></trkpt><trkpt lat="42.0797717" lon="11.9653583"><ele>120.0</ele><time>2026-04-04T09:04:57.115Z</time></trkpt><trkpt lat="42.0798933" lon="11.96534"><ele>119.75</ele><time>2026-04-04T09:04:58.114Z</time></trkpt><trkpt lat="42.0800117" lon="11.9653567"><ele>119.5</ele><time>2026-04-04T09:04:59.116Z</time></trkpt><trkpt lat="42.0801233" lon="11.965405"><ele>119.25</ele><time>2026-04-04T09:05:00.115Z</time></trkpt><trkpt lat="42.0802417" lon="11.96547"><ele>119.0</ele><time>2026-04-04T09:05:01.118Z</time></trkpt><trkpt lat="42.0803567" lon="11.9655517"><ele>119.0</ele><time>2026-04-04T09:05:02.118Z</time></trkpt><trkpt lat="42.0804767" lon="11.965645"><ele>119.0</ele><time>2026-04-04T09:05:03.115Z</time></trkpt><trkpt lat="42.0805933" lon="11.965735"><ele>119.0</ele><time>2026-04-04T09:05:04.116Z</time></trkpt><trkpt lat="42.0807067" lon="11.9658283"><ele>119.0</ele><time>2026-04-04T09:05:05.116Z</time></trkpt><trkpt lat="42.0808217" lon="11.9659217"><ele>119.0</ele><time>2026-04-04T09:05:06.116Z</time></trkpt><trkpt lat="42.0809383" lon="11.9660083"><ele>119.0</ele><time>2026-04-04T09:05:07.117Z</time></trkpt><trkpt lat="42.0810567" lon="11.9660917"><ele>119.0</ele><time>2026-04-04T09:05:08.115Z</time></trkpt><trkpt lat="42.0811617" lon="11.9661833"><ele>119.0</ele><time>2026-04-04T09:05:09.119Z</time></trkpt><trkpt lat="42.0812517" lon="11.9662817"><ele>119.0</ele><time>2026-04-04T09:05:10.113Z</time></trkpt><trkpt lat="42.0813217" lon="11.9663983"><ele>119.0</ele><time>2026-04-04T09:05:11.113Z</time></trkpt><trkpt lat="42.0813767" lon="11.9665217"><ele>119.0</ele><time>2026-04-04T09:05:12.116Z</time></trkpt><trkpt lat="42.0814217" lon="11.9666517"><ele>119.0</ele><time>2026-04-04T09:05:13.114Z</time></trkpt><trkpt lat="42.08147" lon="11.966775"><ele>119.0</ele><time>2026-04-04T09:05:14.116Z</time></trkpt><trkpt lat="42.081535" lon="11.9668783"><ele>120.6</ele><time>2026-04-04T09:05:15.116Z</time></trkpt><trkpt lat="42.0816033" lon="11.9669717"><ele>122.2</ele><time>2026-04-04T09:05:16.116Z</time></trkpt><trkpt lat="42.0816967" lon="11.9670583"><ele>123.79999999999998</ele><time>2026-04-04T09:05:17.115Z</time></trkpt><trkpt lat="42.0817933" lon="11.9671333"><ele>125.39999999999999</ele><time>2026-04-04T09:05:18.115Z</time></trkpt><trkpt lat="42.0818917" lon="11.9672033"><ele>127.0</ele><time>2026-04-04T09:05:19.116Z</time></trkpt><trkpt lat="42.0819833" lon="11.9672733"><ele>127.0</ele><time>2026-04-04T09:05:20.116Z</time></trkpt><trkpt lat="42.08207" lon="11.9673533"><ele>126.99999999999999</ele><time>2026-04-04T09:05:21.119Z</time></trkpt><trkpt lat="42.0821467" lon="11.9674433"><ele>126.99999999999999</ele><time>2026-04-04T09:05:22.116Z</time></trkpt><trkpt lat="42.08221" lon="11.9675483"><ele>127.0</ele><time>2026-04-04T09:05:23.116Z</time></trkpt><trkpt lat="42.082245" lon="11.9676717"><ele>127.0</ele><time>2026-04-04T09:05:24.115Z</time></trkpt><trkpt lat="42.08227" lon="11.9678017"><ele>127.39999999999999</ele><time>2026-04-04T09:05:25.115Z</time></trkpt><trkpt lat="42.08228" lon="11.96794"><ele>127.79999999999998</ele><time>2026-04-04T09:05:26.118Z</time></trkpt><trkpt lat="42.08229" lon="11.96808"><ele>128.2</ele><time>2026-04-04T09:05:27.114Z</time></trkpt><trkpt lat="42.0823083" lon="11.9682167"><ele>128.6</ele><time>2026-04-04T09:05:28.116Z</time></trkpt><trkpt lat="42.082345" lon="11.9683417"><ele>129.0</ele><time>2026-04-04T09:05:29.115Z</time></trkpt><trkpt lat="42.0823983" lon="11.9684533"><ele>132.2</ele><time>2026-04-04T09:05:30.116Z</time></trkpt><trkpt lat="42.0824667" lon="11.9685517"><ele>135.4</ele><time>2026-04-04T09:05:31.116Z</time></trkpt><trkpt lat="42.0825483" lon="11.968635"><ele>138.6</ele><time>2026-04-04T09:05:32.114Z</time></trkpt><trkpt lat="42.0826417" lon="11.9687033"><ele>141.8</ele><time>2026-04-04T09:05:33.116Z</time></trkpt><trkpt lat="42.08274" lon="11.9687417"><ele>145.0</ele><time>2026-04-04T09:05:34.115Z</time></trkpt><trkpt lat="42.0828383" lon="11.9687433"><ele>145.0</ele><time>2026-04-04T09:05:35.115Z</time></trkpt><trkpt lat="42.0829267" lon="11.96872"><ele>145.0</ele><time>2026-04-04T09:05:36.11Z</time></trkpt><trkpt lat="42.0830067" lon="11.96868"><ele>145.0</ele><time>2026-04-04T09:05:37.116Z</time></trkpt><trkpt lat="42.0830667" lon="11.9685933"><ele>145.0</ele><time>2026-04-04T09:05:38.116Z</time></trkpt><trkpt lat="42.083125" lon="11.9684917"><ele>145.0</ele><time>2026-04-04T09:05:39.117Z</time></trkpt><trkpt lat="42.0831833" lon="11.968385"><ele>146.0</ele><time>2026-04-04T09:05:40.115Z</time></trkpt><trkpt lat="42.0832383" lon="11.96828"><ele>147.0</ele><time>2026-04-04T09:05:41.116Z</time></trkpt><trkpt lat="42.0832867" lon="11.968155"><ele>148.0</ele><time>2026-04-04T09:05:42.115Z</time></trkpt><trkpt lat="42.08332" lon="11.9680133"><ele>149.0</ele><time>2026-04-04T09:05:43.114Z</time></trkpt><trkpt lat="42.0833417" lon="11.96787"><ele>150.0</ele><time>2026-04-04T09:05:44.118Z</time></trkpt><trkpt lat="42.0833417" lon="11.9677067"><ele>150.0</ele><time>2026-04-04T09:05:45.117Z</time></trkpt><trkpt lat="42.0833333" lon="11.9675333"><ele>150.0</ele><time>2026-04-04T09:05:46.117Z</time></trkpt><trkpt lat="42.0833317" lon="11.9673583"><ele>150.0</ele><time>2026-04-04T09:05:47.117Z</time></trkpt><trkpt lat="42.08334" lon="11.9671883"><ele>150.0</ele><time>2026-04-04T09:05:48.113Z</time></trkpt><trkpt lat="42.0833583" lon="11.9670183"><ele>149.8</ele><time>2026-04-04T09:05:49.116Z</time></trkpt><trkpt lat="42.0833767" lon="11.9668583"><ele>149.6</ele><time>2026-04-04T09:05:50.116Z</time></trkpt><trkpt lat="42.0833983" lon="11.9667067"><ele>149.4</ele><time>2026-04-04T09:05:51.116Z</time></trkpt><trkpt lat="42.08343" lon="11.96658"><ele>149.2</ele><time>2026-04-04T09:05:52.115Z</time></trkpt><trkpt lat="42.083475" lon="11.966465"><ele>149.0</ele><time>2026-04-04T09:05:53.116Z</time></trkpt><trkpt lat="42.0835383" lon="11.9663767"><ele>149.0</ele><time>2026-04-04T09:05:54.116Z</time></trkpt><trkpt lat="42.08361" lon="11.9663083"><ele>149.0</ele><time>2026-04-04T09:05:55.116Z</time></trkpt><trkpt lat="42.0836833" lon="11.9662567"><ele>149.0</ele><time>2026-04-04T09:05:56.117Z</time></trkpt><trkpt lat="42.0837867" lon="11.966295"><ele>149.0</ele><time>2026-04-04T09:05:57.116Z</time></trkpt><trkpt lat="42.08387" lon="11.96635"><ele>149.0</ele><time>2026-04-04T09:05:58.116Z</time></trkpt><trkpt lat="42.0839433" lon="11.9664217"><ele>149.0</ele><time>2026-04-04T09:05:59.114Z</time></trkpt><trkpt lat="42.0839917" lon="11.9665267"><ele>149.0</ele><time>2026-04-04T09:06:00.117Z</time></trkpt><trkpt lat="42.08402" lon="11.966645"><ele>149.0</ele><time>2026-04-04T09:06:01.118Z</time></trkpt><trkpt lat="42.0840317" lon="11.96677"><ele>149.0</ele><time>2026-04-04T09:06:02.117Z</time></trkpt><trkpt lat="42.0840383" lon="11.9669083"><ele>149.0</ele><time>2026-04-04T09:06:03.118Z</time></trkpt><trkpt lat="42.0840517" lon="11.9670483"><ele>148.6</ele><time>2026-04-04T09:06:04.117Z</time></trkpt><trkpt lat="42.0840767" lon="11.9671817"><ele>148.2</ele><time>2026-04-04T09:06:05.117Z</time></trkpt><trkpt lat="42.0841233" lon="11.967315"><ele>147.79999999999998</ele><time>2026-04-04T09:06:06.118Z</time></trkpt><trkpt lat="42.0841883" lon="11.9674367"><ele>147.4</ele><time>2026-04-04T09:06:07.111Z</time></trkpt><trkpt lat="42.0842633" lon="11.9675433"><ele>147.0</ele><time>2026-04-04T09:06:08.113Z</time></trkpt><trkpt lat="42.0843483" lon="11.96763"><ele>151.25</ele><time>2026-04-04T09:06:09.118Z</time></trkpt><trkpt lat="42.08445" lon="11.9677"><ele>155.5</ele><time>2026-04-04T09:06:10.118Z</time></trkpt><trkpt lat="42.0845667" lon="11.9677533"><ele>159.75</ele><time>2026-04-04T09:06:11.115Z</time></trkpt><trkpt lat="42.084695" lon="11.9677917"><ele>164.0</ele><time>2026-04-04T09:06:12.116Z</time></trkpt><trkpt lat="42.0848133" lon="11.9678317"><ele>166.75</ele><time>2026-04-04T09:06:13.114Z</time></trkpt><trkpt lat="42.0849317" lon="11.9678767"><ele>169.5</ele><time>2026-04-04T09:06:14.114Z</time></trkpt><trkpt lat="42.08505" lon="11.9679317"><ele>172.25</ele><time>2026-04-04T09:06:15.117Z</time></trkpt><trkpt lat="42.0851583" lon="11.96799"><ele>175.0</ele><time>2026-04-04T09:06:16.115Z</time></trkpt><trkpt lat="42.0852417" lon="11.9680583"><ele>175.0</ele><time>2026-04-04T09:06:17.109Z</time></trkpt><trkpt lat="42.0853083" lon="11.9681317"><ele>175.0</ele><time>2026-04-04T09:06:18.112Z</time></trkpt><trkpt lat="42.0853583" lon="11.9682117"><ele>175.0</ele><time>2026-04-04T09:06:19.118Z</time></trkpt><trkpt lat="42.0853967" lon="11.9682967"><ele>175.0</ele><time>2026-04-04T09:06:20.118Z</time></trkpt><trkpt lat="42.0854167" lon="11.9683783"><ele>175.0</ele><time>2026-04-04T09:06:21.12Z</time></trkpt><trkpt lat="42.0854017" lon="11.9684667"><ele>175.0</ele><time>2026-04-04T09:06:22.114Z</time></trkpt><trkpt lat="42.0853267" lon="11.96854"><ele>176.8</ele><time>2026-04-04T09:06:23.119Z</time></trkpt><trkpt lat="42.0852367" lon="11.9685883"><ele>178.6</ele><time>2026-04-04T09:06:24.115Z</time></trkpt><trkpt lat="42.08516" lon="11.9686367"><ele>180.39999999999998</ele><time>2026-04-04T09:06:25.118Z</time></trkpt><trkpt lat="42.0850717" lon="11.9686733"><ele>182.2</ele><time>2026-04-04T09:06:26.114Z</time></trkpt><trkpt lat="42.0849783" lon="11.9687033"><ele>184.0</ele><time>2026-04-04T09:06:27.117Z</time></trkpt><trkpt lat="42.0848833" lon="11.9687317"><ele>184.0</ele><time>2026-04-04T09:06:28.117Z</time></trkpt><trkpt lat="42.084785" lon="11.9687733"><ele>184.0</ele><time>2026-04-04T09:06:29.113Z</time></trkpt><trkpt lat="42.084675" lon="11.968835"><ele>184.0</ele><time>2026-04-04T09:06:30.114Z</time></trkpt><trkpt lat="42.08457" lon="11.9689067"><ele>184.0</ele><time>2026-04-04T09:06:31.114Z</time></trkpt><trkpt lat="42.0844583" lon="11.968975"><ele>184.0</ele><time>2026-04-04T09:06:32.115Z</time></trkpt><trkpt lat="42.0843517" lon="11.969055"><ele>184.0</ele><time>2026-04-04T09:06:33.117Z</time></trkpt><trkpt lat="42.0842517" lon="11.969135"><ele>184.0</ele><time>2026-04-04T09:06:34.117Z</time></trkpt><trkpt lat="42.08416" lon="11.9692083"><ele>184.0</ele><time>2026-04-04T09:06:35.116Z</time></trkpt><trkpt lat="42.0840733" lon="11.9693017"><ele>183.25</ele><time>2026-04-04T09:06:36.114Z</time></trkpt><trkpt lat="42.0839917" lon="11.9694183"><ele>182.5</ele><time>2026-04-04T09:06:37.117Z</time></trkpt><trkpt lat="42.0839067" lon="11.9695483"><ele>181.75</ele><time>2026-04-04T09:06:38.115Z</time></trkpt><trkpt lat="42.0838317" lon="11.969675"><ele>181.0</ele><time>2026-04-04T09:06:39.117Z</time></trkpt><trkpt lat="42.0837583" lon="11.969795"><ele>181.0</ele><time>2026-04-04T09:06:40.117Z</time></trkpt><trkpt lat="42.083695" lon="11.9699033"><ele>181.0</ele><time>2026-04-04T09:06:41.113Z</time></trkpt><trkpt lat="42.0836433" lon="11.97"><ele>181.0</ele><time>2026-04-04T09:06:42.115Z</time></trkpt><trkpt lat="42.0836033" lon="11.9700883"><ele>181.0</ele><time>2026-04-04T09:06:43.119Z</time></trkpt><trkpt lat="42.0835717" lon="11.9701867"><ele>181.0</ele><time>2026-04-04T09:06:44.117Z</time></trkpt><trkpt lat="42.0835467" lon="11.9702833"><ele>181.0</ele><time>2026-04-04T09:06:45.116Z</time></trkpt><trkpt lat="42.083545" lon="11.970385"><ele>182.0</ele><time>2026-04-04T09:06:46.114Z</time></trkpt><trkpt lat="42.0835583" lon="11.9704733"><ele>183.0</ele><time>2026-04-04T09:06:47.114Z</time></trkpt><trkpt lat="42.08358" lon="11.9705533"><ele>184.0</ele><time>2026-04-04T09:06:48.118Z</time></trkpt><trkpt lat="42.0836417" lon="11.9705767"><ele>185.0</ele><time>2026-04-04T09:06:49.114Z</time></trkpt><trkpt lat="42.0837067" lon="11.9705683"><ele>186.0</ele><time>2026-04-04T09:06:50.114Z</time></trkpt><trkpt lat="42.0837983" lon="11.9705083"><ele>187.0</ele><time>2026-04-04T09:06:51.119Z</time></trkpt><trkpt lat="42.08388" lon="11.9704483"><ele>187.0</ele><time>2026-04-04T09:06:52.117Z</time></trkpt><trkpt lat="42.0839517" lon="11.97038"><ele>187.0</ele><time>2026-04-04T09:06:53.119Z</time></trkpt><trkpt lat="42.0840217" lon="11.97026"><ele>187.0</ele><time>2026-04-04T09:06:54.113Z</time></trkpt><trkpt lat="42.084075" lon="11.97013"><ele>187.0</ele><time>2026-04-04T09:06:55.117Z</time></trkpt><trkpt lat="42.0841283" lon="11.9700067"><ele>187.0</ele><time>2026-04-04T09:06:56.118Z</time></trkpt><trkpt lat="42.08419" lon="11.9698883"><ele>189.2</ele><time>2026-04-04T09:06:57.118Z</time></trkpt><trkpt lat="42.0842533" lon="11.9697733"><ele>191.39999999999998</ele><time>2026-04-04T09:06:58.116Z</time></trkpt><trkpt lat="42.084325" lon="11.9696867"><ele>193.60000000000002</ele><time>2026-04-04T09:06:59.113Z</time></trkpt><trkpt lat="42.0844017" lon="11.969615"><ele>195.8</ele><time>2026-04-04T09:07:00.116Z</time></trkpt><trkpt lat="42.08449" lon="11.9695633"><ele>198.0</ele><time>2026-04-04T09:07:01.117Z</time></trkpt><trkpt lat="42.0845817" lon="11.96954"><ele>198.0</ele><time>2026-04-04T09:07:02.117Z</time></trkpt><trkpt lat="42.0846833" lon="11.969545"><ele>198.0</ele><time>2026-04-04T09:07:03.119Z</time></trkpt><trkpt lat="42.0847867" lon="11.969565"><ele>198.0</ele><time>2026-04-04T09:07:04.118Z</time></trkpt><trkpt lat="42.0849" lon="11.9695867"><ele>198.0</ele><time>2026-04-04T09:07:05.113Z</time></trkpt><trkpt lat="42.0850217" lon="11.96961"><ele>198.0</ele><time>2026-04-04T09:07:06.116Z</time></trkpt><trkpt lat="42.0851383" lon="11.96965"><ele>202.0</ele><time>2026-04-04T09:07:07.12Z</time></trkpt><trkpt lat="42.0852567" lon="11.9696867"><ele>206.0</ele><time>2026-04-04T09:07:08.118Z</time></trkpt><trkpt lat="42.085375" lon="11.9697233"><ele>210.0</ele><time>2026-04-04T09:07:09.119Z</time></trkpt><trkpt lat="42.0854983" lon="11.969755"><ele>214.0</ele><time>2026-04-04T09:07:10.119Z</time></trkpt><trkpt lat="42.0856283" lon="11.9697883"><ele>214.0</ele><time>2026-04-04T09:07:11.116Z</time></trkpt><trkpt lat="42.0857617" lon="11.96982"><ele>214.0</ele><time>2026-04-04T09:07:12.115Z</time></trkpt><trkpt lat="42.0858983" lon="11.9698517"><ele>214.0</ele><time>2026-04-04T09:07:13.12Z</time></trkpt><trkpt lat="42.0860417" lon="11.9698883"><ele>214.0</ele><time>2026-04-04T09:07:14.117Z</time></trkpt><trkpt lat="42.0861833" lon="11.96992"><ele>214.5</ele><time>2026-04-04T09:07:15.113Z</time></trkpt><trkpt lat="42.0863183" lon="11.96995"><ele>215.0</ele><time>2026-04-04T09:07:16.117Z</time></trkpt><trkpt lat="42.0864583" lon="11.9699583"><ele>215.5</ele><time>2026-04-04T09:07:17.113Z</time></trkpt><trkpt lat="42.0865833" lon="11.9699583"><ele>216.0</ele><time>2026-04-04T09:07:18.115Z</time></trkpt><trkpt lat="42.086705" lon="11.9699417"><ele>217.25</ele><time>2026-04-04T09:07:19.116Z</time></trkpt><trkpt lat="42.086835" lon="11.9698933"><ele>218.5</ele><time>2026-04-04T09:07:20.118Z</time></trkpt><trkpt lat="42.0869617" lon="11.9698217"><ele>219.75</ele><time>2026-04-04T09:07:21.114Z</time></trkpt><trkpt lat="42.0870817" lon="11.9697467"><ele>221.0</ele><time>2026-04-04T09:07:22.118Z</time></trkpt><trkpt lat="42.0871933" lon="11.9696767"><ele>221.0</ele><time>2026-04-04T09:07:23.118Z</time></trkpt><trkpt lat="42.0872933" lon="11.9696167"><ele>221.00000000000003</ele><time>2026-04-04T09:07:24.117Z</time></trkpt><trkpt lat="42.0873917" lon="11.9695667"><ele>221.00000000000003</ele><time>2026-04-04T09:07:25.117Z</time></trkpt><trkpt lat="42.0874867" lon="11.9695417"><ele>221.0</ele><time>2026-04-04T09:07:26.115Z</time></trkpt><trkpt lat="42.087575" lon="11.969565"><ele>221.0</ele><time>2026-04-04T09:07:27.116Z</time></trkpt><trkpt lat="42.0876517" lon="11.9696283"><ele>222.4</ele><time>2026-04-04T09:07:28.116Z</time></trkpt><trkpt lat="42.08771" lon="11.969725"><ele>223.8</ele><time>2026-04-04T09:07:29.115Z</time></trkpt><trkpt lat="42.0877483" lon="11.969845"><ele>225.20000000000002</ele><time>2026-04-04T09:07:30.117Z</time></trkpt><trkpt lat="42.08776" lon="11.9699683"><ele>226.60000000000002</ele><time>2026-04-04T09:07:31.114Z</time></trkpt><trkpt lat="42.0877533" lon="11.9701"><ele>228.0</ele><time>2026-04-04T09:07:32.119Z</time></trkpt><trkpt lat="42.08773" lon="11.970235"><ele>229.0</ele><time>2026-04-04T09:07:33.118Z</time></trkpt><trkpt lat="42.0876933" lon="11.97037"><ele>230.0</ele><time>2026-04-04T09:07:34.117Z</time></trkpt><trkpt lat="42.0876367" lon="11.9704867"><ele>231.0</ele><time>2026-04-04T09:07:35.119Z</time></trkpt><trkpt lat="42.0875617" lon="11.97059"><ele>232.0</ele><time>2026-04-04T09:07:36.117Z</time></trkpt><trkpt lat="42.0874683" lon="11.97068"><ele>233.0</ele><time>2026-04-04T09:07:37.116Z</time></trkpt><trkpt lat="42.0873633" lon="11.9707533"><ele>233.0</ele><time>2026-04-04T09:07:38.115Z</time></trkpt><trkpt lat="42.0872517" lon="11.9708217"><ele>233.0</ele><time>2026-04-04T09:07:39.119Z</time></trkpt><trkpt lat="42.0871383" lon="11.97089"><ele>233.0</ele><time>2026-04-04T09:07:40.114Z</time></trkpt><trkpt lat="42.0870283" lon="11.970955"><ele>233.0</ele><time>2026-04-04T09:07:41.115Z</time></trkpt><trkpt lat="42.0869167" lon="11.9710183"><ele>233.8</ele><time>2026-04-04T09:07:42.116Z</time></trkpt><trkpt lat="42.086805" lon="11.9710683"><ele>234.60000000000002</ele><time>2026-04-04T09:07:43.11Z</time></trkpt><trkpt lat="42.086695" lon="11.9711167"><ele>235.39999999999998</ele><time>2026-04-04T09:07:44.117Z</time></trkpt><trkpt lat="42.0865967" lon="11.9711733"><ele>236.2</ele><time>2026-04-04T09:07:45.115Z</time></trkpt><trkpt lat="42.086505" lon="11.97123"><ele>237.0</ele><time>2026-04-04T09:07:46.118Z</time></trkpt><trkpt lat="42.08642" lon="11.9712967"><ele>237.0</ele><time>2026-04-04T09:07:47.11Z</time></trkpt><trkpt lat="42.0863517" lon="11.9713667"><ele>237.0</ele><time>2026-04-04T09:07:48.118Z</time></trkpt><trkpt lat="42.086295" lon="11.9714517"><ele>237.0</ele><time>2026-04-04T09:07:49.115Z</time></trkpt><trkpt lat="42.086255" lon="11.97154"><ele>237.0</ele><time>2026-04-04T09:07:50.118Z</time></trkpt><trkpt lat="42.0862383" lon="11.9716467"><ele>237.0</ele><time>2026-04-04T09:07:51.119Z</time></trkpt><trkpt lat="42.0862333" lon="11.971765"><ele>237.0</ele><time>2026-04-04T09:07:52.116Z</time></trkpt><trkpt lat="42.0862433" lon="11.9718833"><ele>238.39999999999998</ele><time>2026-04-04T09:07:53.113Z</time></trkpt><trkpt lat="42.08627" lon="11.97199"><ele>239.79999999999998</ele><time>2026-04-04T09:07:54.117Z</time></trkpt><trkpt lat="42.08634" lon="11.97208"><ele>241.2</ele><time>2026-04-04T09:07:55.118Z</time></trkpt><trkpt lat="42.086415" lon="11.97215"><ele>242.6</ele><time>2026-04-04T09:07:56.119Z</time></trkpt><trkpt lat="42.0865" lon="11.972205"><ele>244.0</ele><time>2026-04-04T09:07:57.114Z</time></trkpt><trkpt lat="42.0866233" lon="11.9722233"><ele>244.0</ele><time>2026-04-04T09:07:58.114Z</time></trkpt><trkpt lat="42.0867767" lon="11.9721883"><ele>244.0</ele><time>2026-04-04T09:07:59.116Z</time></trkpt><trkpt lat="42.0869033" lon="11.9721833"><ele>244.0</ele><time>2026-04-04T09:08:00.118Z</time></trkpt><trkpt lat="42.0870317" lon="11.9721733"><ele>244.0</ele><time>2026-04-04T09:08:01.118Z</time></trkpt><trkpt lat="42.0871767" lon="11.9721517"><ele>244.0</ele><time>2026-04-04T09:08:02.114Z</time></trkpt><trkpt lat="42.08732" lon="11.9721333"><ele>244.0</ele><time>2026-04-04T09:08:03.119Z</time></trkpt><trkpt lat="42.087465" lon="11.9721183"><ele>244.0</ele><time>2026-04-04T09:08:04.118Z</time></trkpt><trkpt lat="42.0876083" lon="11.9721117"><ele>244.0</ele><time>2026-04-04T09:08:05.116Z</time></trkpt><trkpt lat="42.0877583" lon="11.9721083"><ele>245.0</ele><time>2026-04-04T09:08:06.115Z</time></trkpt><trkpt lat="42.08791" lon="11.972105"><ele>246.0</ele><time>2026-04-04T09:08:07.115Z</time></trkpt><trkpt lat="42.0880617" lon="11.9720983"><ele>247.0</ele><time>2026-04-04T09:08:08.115Z</time></trkpt><trkpt lat="42.088205" lon="11.9721"><ele>248.0</ele><time>2026-04-04T09:08:09.115Z</time></trkpt><trkpt lat="42.0883483" lon="11.9720983"><ele>248.0</ele><time>2026-04-04T09:08:10.116Z</time></trkpt><trkpt lat="42.08848" lon="11.9720883"><ele>248.0</ele><time>2026-04-04T09:08:11.117Z</time></trkpt><trkpt lat="42.0885967" lon="11.97207"><ele>248.0</ele><time>2026-04-04T09:08:12.118Z</time></trkpt><trkpt lat="42.0887017" lon="11.97204"><ele>248.0</ele><time>2026-04-04T09:08:13.117Z</time></trkpt><trkpt lat="42.088805" lon="11.9719917"><ele>248.0</ele><time>2026-04-04T09:08:14.116Z</time></trkpt><trkpt lat="42.0889033" lon="11.9719383"><ele>248.0</ele><time>2026-04-04T09:08:15.117Z</time></trkpt><trkpt lat="42.0890067" lon="11.9718817"><ele>248.0</ele><time>2026-04-04T09:08:16.11Z</time></trkpt><trkpt lat="42.0891083" lon="11.9718167"><ele>248.0</ele><time>2026-04-04T09:08:17.117Z</time></trkpt><trkpt lat="42.08921" lon="11.97173"><ele>251.5</ele><time>2026-04-04T09:08:18.117Z</time></trkpt><trkpt lat="42.0893067" lon="11.97163"><ele>255.0</ele><time>2026-04-04T09:08:19.116Z</time></trkpt><trkpt lat="42.0893967" lon="11.971515"><ele>258.5</ele><time>2026-04-04T09:08:20.117Z</time></trkpt><trkpt lat="42.08949" lon="11.97139"><ele>262.0</ele><time>2026-04-04T09:08:21.116Z</time></trkpt><trkpt lat="42.0895867" lon="11.971265"><ele>262.0</ele><time>2026-04-04T09:08:22.117Z</time></trkpt><trkpt lat="42.089685" lon="11.9711367"><ele>262.0</ele><time>2026-04-04T09:08:23.118Z</time></trkpt><trkpt lat="42.0897883" lon="11.9710167"><ele>262.0</ele><time>2026-04-04T09:08:24.119Z</time></trkpt><trkpt lat="42.0898867" lon="11.9709133"><ele>262.0</ele><time>2026-04-04T09:08:25.112Z</time></trkpt><trkpt lat="42.0899783" lon="11.9708183"><ele>263.6</ele><time>2026-04-04T09:08:26.114Z</time></trkpt><trkpt lat="42.09007" lon="11.97073"><ele>265.2</ele><time>2026-04-04T09:08:27.115Z</time></trkpt><trkpt lat="42.09016" lon="11.970665"><ele>266.8</ele><time>2026-04-04T09:08:28.118Z</time></trkpt><trkpt lat="42.09026" lon="11.970635"><ele>268.4</ele><time>2026-04-04T09:08:29.116Z</time></trkpt><trkpt lat="42.0903683" lon="11.97063"><ele>270.0</ele><time>2026-04-04T09:08:30.116Z</time></trkpt><trkpt lat="42.0904867" lon="11.9706483"><ele>270.0</ele><time>2026-04-04T09:08:31.114Z</time></trkpt><trkpt lat="42.0906117" lon="11.9706817"><ele>270.0</ele><time>2026-04-04T09:08:32.117Z</time></trkpt><trkpt lat="42.0907317" lon="11.9707283"><ele>270.0</ele><time>2026-04-04T09:08:33.118Z</time></trkpt><trkpt lat="42.0908367" lon="11.970795"><ele>270.0</ele><time>2026-04-04T09:08:34.111Z</time></trkpt><trkpt lat="42.09092" lon="11.9708867"><ele>270.8</ele><time>2026-04-04T09:08:35.118Z</time></trkpt><trkpt lat="42.0909867" lon="11.9709967"><ele>271.6</ele><time>2026-04-04T09:08:36.118Z</time></trkpt><trkpt lat="42.09104" lon="11.9711217"><ele>272.4</ele><time>2026-04-04T09:08:37.117Z</time></trkpt><trkpt lat="42.0910817" lon="11.971265"><ele>273.2</ele><time>2026-04-04T09:08:38.117Z</time></trkpt><trkpt lat="42.0911333" lon="11.9714067"><ele>274.0</ele><time>2026-04-04T09:08:39.118Z</time></trkpt><trkpt lat="42.0911983" lon="11.9715483"><ele>274.0</ele><time>2026-04-04T09:08:40.116Z</time></trkpt><trkpt lat="42.0912817" lon="11.971685"><ele>274.0</ele><time>2026-04-04T09:08:41.116Z</time></trkpt><trkpt lat="42.0913733" lon="11.9718183"><ele>274.0</ele><time>2026-04-04T09:08:42.118Z</time></trkpt><trkpt lat="42.091475" lon="11.9719467"><ele>274.0</ele><time>2026-04-04T09:08:43.117Z</time></trkpt><trkpt lat="42.0915783" lon="11.9720717"><ele>276.25</ele><time>2026-04-04T09:08:44.114Z</time></trkpt><trkpt lat="42.0916833" lon="11.972195"><ele>278.5</ele><time>2026-04-04T09:08:45.116Z</time></trkpt><trkpt lat="42.091785" lon="11.9723167"><ele>280.75</ele><time>2026-04-04T09:08:46.115Z</time></trkpt><trkpt lat="42.091885" lon="11.97244"><ele>283.0</ele><time>2026-04-04T09:08:47.115Z</time></trkpt><trkpt lat="42.09198" lon="11.9725617"><ele>283.5</ele><time>2026-04-04T09:08:48.119Z</time></trkpt><trkpt lat="42.0920717" lon="11.9726767"><ele>284.0</ele><time>2026-04-04T09:08:49.117Z</time></trkpt><trkpt lat="42.09216" lon="11.9727867"><ele>284.5</ele><time>2026-04-04T09:08:50.117Z</time></trkpt><trkpt lat="42.0922483" lon="11.9728933"><ele>285.0</ele><time>2026-04-04T09:08:51.115Z</time></trkpt><trkpt lat="42.09234" lon="11.9730033"><ele>286.5</ele><time>2026-04-04T09:08:52.118Z</time></trkpt><trkpt lat="42.0924317" lon="11.9731167"><ele>288.0</ele><time>2026-04-04T09:08:53.117Z</time></trkpt><trkpt lat="42.0925333" lon="11.9732283"><ele>289.5</ele><time>2026-04-04T09:08:54.115Z</time></trkpt><trkpt lat="42.0926367" lon="11.9733467"><ele>291.0</ele><time>2026-04-04T09:08:55.115Z</time></trkpt><trkpt lat="42.0927433" lon="11.9734617"><ele>292.5</ele><time>2026-04-04T09:08:56.117Z</time></trkpt><trkpt lat="42.0928483" lon="11.97357"><ele>294.0</ele><time>2026-04-04T09:08:57.117Z</time></trkpt><trkpt lat="42.0929533" lon="11.9736733"><ele>295.5</ele><time>2026-04-04T09:08:58.12Z</time></trkpt><trkpt lat="42.0930617" lon="11.9737683"><ele>297.0</ele><time>2026-04-04T09:08:59.115Z</time></trkpt><trkpt lat="42.0931767" lon="11.9738567"><ele>296.5</ele><time>2026-04-04T09:09:00.117Z</time></trkpt><trkpt lat="42.0932983" lon="11.9739433"><ele>296.0</ele><time>2026-04-04T09:09:01.116Z</time></trkpt><trkpt lat="42.0934133" lon="11.9740333"><ele>295.5</ele><time>2026-04-04T09:09:02.117Z</time></trkpt><trkpt lat="42.0935283" lon="11.97411"><ele>295.0</ele><time>2026-04-04T09:09:03.118Z</time></trkpt><trkpt lat="42.0936317" lon="11.974185"><ele>294.25</ele><time>2026-04-04T09:09:04.118Z</time></trkpt><trkpt lat="42.0937333" lon="11.97425"><ele>293.5</ele><time>2026-04-04T09:09:05.115Z</time></trkpt><trkpt lat="42.0938417" lon="11.9743033"><ele>292.75</ele><time>2026-04-04T09:09:06.118Z</time></trkpt><trkpt lat="42.0939633" lon="11.974335"><ele>292.0</ele><time>2026-04-04T09:09:07.118Z</time></trkpt><trkpt lat="42.09408" lon="11.9743533"><ele>290.75</ele><time>2026-04-04T09:09:08.116Z</time></trkpt><trkpt lat="42.0942" lon="11.97435"><ele>289.5</ele><time>2026-04-04T09:09:09.119Z</time></trkpt><trkpt lat="42.0943217" lon="11.9743267"><ele>288.25</ele><time>2026-04-04T09:09:10.114Z</time></trkpt><trkpt lat="42.0944483" lon="11.974285"><ele>287.0</ele><time>2026-04-04T09:09:11.118Z</time></trkpt><trkpt lat="42.094575" lon="11.97423"><ele>290.0</ele><time>2026-04-04T09:09:12.116Z</time></trkpt><trkpt lat="42.0947033" lon="11.974165"><ele>293.0</ele><time>2026-04-04T09:09:13.119Z</time></trkpt><trkpt lat="42.09483" lon="11.9740933"><ele>296.0</ele><time>2026-04-04T09:09:14.115Z</time></trkpt><trkpt lat="42.094955" lon="11.9740233"><ele>299.0</ele><time>2026-04-04T09:09:15.116Z</time></trkpt><trkpt lat="42.095075" lon="11.9739567"><ele>300.0</ele><time>2026-04-04T09:09:16.115Z</time></trkpt><trkpt lat="42.0951983" lon="11.973915"><ele>301.0</ele><time>2026-04-04T09:09:17.113Z</time></trkpt><trkpt lat="42.09533" lon="11.97389"><ele>302.0</ele><time>2026-04-04T09:09:18.115Z</time></trkpt><trkpt lat="42.095465" lon="11.9738883"><ele>303.0</ele><time>2026-04-04T09:09:19.116Z</time></trkpt><trkpt lat="42.0956" lon="11.9738983"><ele>303.0</ele><time>2026-04-04T09:09:20.116Z</time></trkpt><trkpt lat="42.09572" lon="11.9739367"><ele>303.0</ele><time>2026-04-04T09:09:21.117Z</time></trkpt><trkpt lat="42.09584" lon="11.97398"><ele>303.0</ele><time>2026-04-04T09:09:22.117Z</time></trkpt><trkpt lat="42.0959633" lon="11.97403"><ele>303.0</ele><time>2026-04-04T09:09:23.114Z</time></trkpt><trkpt lat="42.09609" lon="11.9740667"><ele>304.25</ele><time>2026-04-04T09:09:24.116Z</time></trkpt><trkpt lat="42.0962083" lon="11.9740983"><ele>305.5</ele><time>2026-04-04T09:09:25.115Z</time></trkpt><trkpt lat="42.0963367" lon="11.9740983"><ele>306.75</ele><time>2026-04-04T09:09:26.116Z</time></trkpt><trkpt lat="42.09647" lon="11.9740833"><ele>308.0</ele><time>2026-04-04T09:09:27.118Z</time></trkpt><trkpt lat="42.096605" lon="11.974055"><ele>309.25</ele><time>2026-04-04T09:09:28.114Z</time></trkpt><trkpt lat="42.096735" lon="11.9740233"><ele>310.5</ele><time>2026-04-04T09:09:29.115Z</time></trkpt><trkpt lat="42.0968617" lon="11.9739867"><ele>311.75</ele><time>2026-04-04T09:09:30.115Z</time></trkpt><trkpt lat="42.0969867" lon="11.9739467"><ele>313.0</ele><time>2026-04-04T09:09:31.117Z</time></trkpt><trkpt lat="42.0971117" lon="11.97391"><ele>313.0</ele><time>2026-04-04T09:09:32.118Z</time></trkpt><trkpt lat="42.0972433" lon="11.973875"><ele>313.0</ele><time>2026-04-04T09:09:33.118Z</time></trkpt><trkpt lat="42.09738" lon="11.9738383"><ele>313.0</ele><time>2026-04-04T09:09:34.117Z</time></trkpt><trkpt lat="42.0975133" lon="11.973805"><ele>313.0</ele><time>2026-04-04T09:09:35.117Z</time></trkpt><trkpt lat="42.0976533" lon="11.97376"><ele>313.0</ele><time>2026-04-04T09:09:36.115Z</time></trkpt><trkpt lat="42.0977933" lon="11.9737217"><ele>313.0</ele><time>2026-04-04T09:09:37.12Z</time></trkpt><trkpt lat="42.097935" lon="11.9736767"><ele>313.0</ele><time>2026-04-04T09:09:38.114Z</time></trkpt><trkpt lat="42.098075" lon="11.973635"><ele>313.0</ele><time>2026-04-04T09:09:39.114Z</time></trkpt><trkpt lat="42.0982133" lon="11.9735967"><ele>312.0</ele><time>2026-04-04T09:09:40.116Z</time></trkpt><trkpt lat="42.0983583" lon="11.9735567"><ele>311.0</ele><time>2026-04-04T09:09:41.113Z</time></trkpt><trkpt lat="42.0985033" lon="11.9735167"><ele>310.0</ele><time>2026-04-04T09:09:42.118Z</time></trkpt><trkpt lat="42.0986517" lon="11.9734783"><ele>309.0</ele><time>2026-04-04T09:09:43.115Z</time></trkpt><trkpt lat="42.0987967" lon="11.9734383"><ele>309.0</ele><time>2026-04-04T09:09:44.119Z</time></trkpt><trkpt lat="42.0989333" lon="11.9734033"><ele>309.0</ele><time>2026-04-04T09:09:45.117Z</time></trkpt><trkpt lat="42.09907" lon="11.973365"><ele>309.0</ele><time>2026-04-04T09:09:46.118Z</time></trkpt><trkpt lat="42.099205" lon="11.9733283"><ele>309.0</ele><time>2026-04-04T09:09:47.115Z</time></trkpt><trkpt lat="42.0993433" lon="11.973295"><ele>310.5</ele><time>2026-04-04T09:09:48.119Z</time></trkpt><trkpt lat="42.0994817" lon="11.9732567"><ele>312.0</ele><time>2026-04-04T09:09:49.114Z</time></trkpt><trkpt lat="42.0996183" lon="11.9732217"><ele>313.5</ele><time>2026-04-04T09:09:50.114Z</time></trkpt><trkpt lat="42.0997533" lon="11.973195"><ele>315.0</ele><time>2026-04-04T09:09:51.122Z</time></trkpt><trkpt lat="42.0998833" lon="11.97316"><ele>316.0</ele><time>2026-04-04T09:09:52.115Z</time></trkpt><trkpt lat="42.1000083" lon="11.9731283"><ele>317.0</ele><time>2026-04-04T09:09:53.119Z</time></trkpt><trkpt lat="42.100135" lon="11.973095"><ele>318.0</ele><time>2026-04-04T09:09:54.117Z</time></trkpt><trkpt lat="42.1002533" lon="11.97306"><ele>319.0</ele><time>2026-04-04T09:09:55.116Z</time></trkpt><trkpt lat="42.1003767" lon="11.973025"><ele>319.0</ele><time>2026-04-04T09:09:56.118Z</time></trkpt><trkpt lat="42.1005017" lon="11.9730017"><ele>319.0</ele><time>2026-04-04T09:09:57.118Z</time></trkpt><trkpt lat="42.1006367" lon="11.9729867"><ele>319.0</ele><time>2026-04-04T09:09:58.115Z</time></trkpt><trkpt lat="42.1007683" lon="11.9729967"><ele>319.0</ele><time>2026-04-04T09:09:59.117Z</time></trkpt><trkpt lat="42.1009" lon="11.9730233"><ele>320.0</ele><time>2026-04-04T09:10:00.115Z</time></trkpt><trkpt lat="42.1010333" lon="11.9730617"><ele>321.0</ele><time>2026-04-04T09:10:01.12Z</time></trkpt><trkpt lat="42.10117" lon="11.9731117"><ele>322.0</ele><time>2026-04-04T09:10:02.114Z</time></trkpt><trkpt lat="42.1013133" lon="11.9731667"><ele>323.0</ele><time>2026-04-04T09:10:03.118Z</time></trkpt><trkpt lat="42.1014517" lon="11.973235"><ele>323.0</ele><time>2026-04-04T09:10:04.118Z</time></trkpt><trkpt lat="42.1015833" lon="11.97331"><ele>323.0</ele><time>2026-04-04T09:10:05.116Z</time></trkpt><trkpt lat="42.1017133" lon="11.9733867"><ele>323.0</ele><time>2026-04-04T09:10:06.117Z</time></trkpt><trkpt lat="42.101845" lon="11.97346"><ele>323.0</ele><time>2026-04-04T09:10:07.116Z</time></trkpt><trkpt lat="42.101975" lon="11.9735333"><ele>323.0</ele><time>2026-04-04T09:10:08.118Z</time></trkpt><trkpt lat="42.1021033" lon="11.9736067"><ele>323.0</ele><time>2026-04-04T09:10:09.118Z</time></trkpt><trkpt lat="42.102225" lon="11.97368"><ele>323.0</ele><time>2026-04-04T09:10:10.119Z</time></trkpt><trkpt lat="42.10235" lon="11.973755"><ele>323.0</ele><time>2026-04-04T09:10:11.115Z</time></trkpt><trkpt lat="42.1024783" lon="11.9738317"><ele>324.5</ele><time>2026-04-04T09:10:12.115Z</time></trkpt><trkpt lat="42.1026083" lon="11.9739017"><ele>326.0</ele><time>2026-04-04T09:10:13.116Z</time></trkpt><trkpt lat="42.10273" lon="11.97397"><ele>327.5</ele><time>2026-04-04T09:10:14.115Z</time></trkpt><trkpt lat="42.1028367" lon="11.9740467"><ele>329.0</ele><time>2026-04-04T09:10:15.118Z</time></trkpt><trkpt lat="42.1029333" lon="11.97414"><ele>328.75</ele><time>2026-04-04T09:10:16.116Z</time></trkpt><trkpt lat="42.1030317" lon="11.974245"><ele>328.5</ele><time>2026-04-04T09:10:17.115Z</time></trkpt><trkpt lat="42.1031183" lon="11.97437"><ele>328.25</ele><time>2026-04-04T09:10:18.116Z</time></trkpt><trkpt lat="42.103195" lon="11.9745083"><ele>328.0</ele><time>2026-04-04T09:10:19.117Z</time></trkpt><trkpt lat="42.1032633" lon="11.9746533"><ele>329.75</ele><time>2026-04-04T09:10:20.118Z</time></trkpt><trkpt lat="42.1033317" lon="11.9747967"><ele>331.5</ele><time>2026-04-04T09:10:21.116Z</time></trkpt><trkpt lat="42.1033967" lon="11.9749367"><ele>333.25</ele><time>2026-04-04T09:10:22.114Z</time></trkpt><trkpt lat="42.1034633" lon="11.97508"><ele>335.0</ele><time>2026-04-04T09:10:23.117Z</time></trkpt><trkpt lat="42.10353" lon="11.9752283"><ele>335.0</ele><time>2026-04-04T09:10:24.12Z</time></trkpt><trkpt lat="42.1035983" lon="11.9753683"><ele>335.0</ele><time>2026-04-04T09:10:25.117Z</time></trkpt><trkpt lat="42.1036617" lon="11.9755067"><ele>335.0</ele><time>2026-04-04T09:10:26.114Z</time></trkpt><trkpt lat="42.1037333" lon="11.9756517"><ele>335.0</ele><time>2026-04-04T09:10:27.115Z</time></trkpt><trkpt lat="42.1038033" lon="11.9758017"><ele>335.0</ele><time>2026-04-04T09:10:28.118Z</time></trkpt><trkpt lat="42.1038767" lon="11.9759467"><ele>335.0</ele><time>2026-04-04T09:10:29.116Z</time></trkpt><trkpt lat="42.1039433" lon="11.9760917"><ele>335.0</ele><time>2026-04-04T09:10:30.115Z</time></trkpt><trkpt lat="42.1040083" lon="11.9762333"><ele>335.0</ele><time>2026-04-04T09:10:31.117Z</time></trkpt><trkpt lat="42.1040667" lon="11.9763783"><ele>338.0</ele><time>2026-04-04T09:10:32.119Z</time></trkpt><trkpt lat="42.104125" lon="11.9765233"><ele>341.0</ele><time>2026-04-04T09:10:33.11Z</time></trkpt><trkpt lat="42.1041833" lon="11.9766717"><ele>344.0</ele><time>2026-04-04T09:10:34.115Z</time></trkpt><trkpt lat="42.1042383" lon="11.9768233"><ele>347.0</ele><time>2026-04-04T09:10:35.115Z</time></trkpt><trkpt lat="42.1042967" lon="11.9769717"><ele>347.25</ele><time>2026-04-04T09:10:36.118Z</time></trkpt><trkpt lat="42.1043567" lon="11.9771183"><ele>347.5</ele><time>2026-04-04T09:10:37.119Z</time></trkpt><trkpt lat="42.1044167" lon="11.977265"><ele>347.75</ele><time>2026-04-04T09:10:38.116Z</time></trkpt><trkpt lat="42.1044817" lon="11.9774083"><ele>348.0</ele><time>2026-04-04T09:10:39.118Z</time></trkpt><trkpt lat="42.104555" lon="11.9775467"><ele>346.75</ele><time>2026-04-04T09:10:40.113Z</time></trkpt><trkpt lat="42.1046367" lon="11.9776767"><ele>345.5</ele><time>2026-04-04T09:10:41.116Z</time></trkpt><trkpt lat="42.1047167" lon="11.9778017"><ele>344.25</ele><time>2026-04-04T09:10:42.118Z</time></trkpt><trkpt lat="42.1047967" lon="11.97792"><ele>343.0</ele><time>2026-04-04T09:10:43.117Z</time></trkpt><trkpt lat="42.1048767" lon="11.9780433"><ele>345.25</ele><time>2026-04-04T09:10:44.117Z</time></trkpt><trkpt lat="42.1049633" lon="11.97817"><ele>347.5</ele><time>2026-04-04T09:10:45.118Z</time></trkpt><trkpt lat="42.1050483" lon="11.9782983"><ele>349.75</ele><time>2026-04-04T09:10:46.118Z</time></trkpt><trkpt lat="42.1051317" lon="11.9784333"><ele>352.0</ele><time>2026-04-04T09:10:47.116Z</time></trkpt><trkpt lat="42.105215" lon="11.97857"><ele>352.5</ele><time>2026-04-04T09:10:48.114Z</time></trkpt><trkpt lat="42.1052983" lon="11.978705"><ele>353.0</ele><time>2026-04-04T09:10:49.117Z</time></trkpt><trkpt lat="42.1053867" lon="11.978855"><ele>353.5</ele><time>2026-04-04T09:10:50.116Z</time></trkpt><trkpt lat="42.1054783" lon="11.9790033"><ele>354.0</ele><time>2026-04-04T09:10:51.118Z</time></trkpt><trkpt lat="42.1055783" lon="11.9791517"><ele>354.3333333333333</ele><time>2026-04-04T09:10:52.114Z</time></trkpt><trkpt lat="42.105675" lon="11.9793033"><ele>354.66666666666663</ele><time>2026-04-04T09:10:53.113Z</time></trkpt><trkpt lat="42.1057767" lon="11.9794633"><ele>355.0</ele><time>2026-04-04T09:10:54.115Z</time></trkpt><trkpt lat="42.1058783" lon="11.979635"><ele>355.0</ele><time>2026-04-04T09:10:55.117Z</time></trkpt><trkpt lat="42.105975" lon="11.9798067"><ele>355.0</ele><time>2026-04-04T09:10:56.118Z</time></trkpt><trkpt lat="42.1060717" lon="11.9799817"><ele>355.0</ele><time>2026-04-04T09:10:57.114Z</time></trkpt><trkpt lat="42.1061683" lon="11.9801583"><ele>352.66666666666663</ele><time>2026-04-04T09:10:58.118Z</time></trkpt><trkpt lat="42.1062583" lon="11.9803283"><ele>350.3333333333333</ele><time>2026-04-04T09:10:59.115Z</time></trkpt><trkpt lat="42.106345" lon="11.9804933"><ele>348.0</ele><time>2026-04-04T09:11:00.118Z</time></trkpt><trkpt lat="42.1064333" lon="11.9806533"><ele>348.0</ele><time>2026-04-04T09:11:01.118Z</time></trkpt><trkpt lat="42.10652" lon="11.9808067"><ele>348.0</ele><time>2026-04-04T09:11:02.118Z</time></trkpt><trkpt lat="42.1066033" lon="11.9809617"><ele>348.0</ele><time>2026-04-04T09:11:03.118Z</time></trkpt><trkpt lat="42.1066833" lon="11.9811083"><ele>348.0</ele><time>2026-04-04T09:11:04.116Z</time></trkpt><trkpt lat="42.1067583" lon="11.9812383"><ele>351.0</ele><time>2026-04-04T09:11:05.117Z</time></trkpt><trkpt lat="42.1068383" lon="11.9813517"><ele>354.0</ele><time>2026-04-04T09:11:06.116Z</time></trkpt><trkpt lat="42.10693" lon="11.9814417"><ele>357.0</ele><time>2026-04-04T09:11:07.119Z</time></trkpt><trkpt lat="42.1070283" lon="11.9815033"><ele>360.0</ele><time>2026-04-04T09:11:08.118Z</time></trkpt><trkpt lat="42.1071367" lon="11.9815467"><ele>360.0</ele><time>2026-04-04T09:11:09.119Z</time></trkpt><trkpt lat="42.107255" lon="11.9815633"><ele>360.0</ele><time>2026-04-04T09:11:10.116Z</time></trkpt><trkpt lat="42.107385" lon="11.98155"><ele>360.0</ele><time>2026-04-04T09:11:11.114Z</time></trkpt><trkpt lat="42.107515" lon="11.981515"><ele>360.0</ele><time>2026-04-04T09:11:12.116Z</time></trkpt><trkpt lat="42.1076433" lon="11.9814633"><ele>361.25</ele><time>2026-04-04T09:11:13.111Z</time></trkpt><trkpt lat="42.1077817" lon="11.98139"><ele>362.5</ele><time>2026-04-04T09:11:14.118Z</time></trkpt><trkpt lat="42.107915" lon="11.9813117"><ele>363.75</ele><time>2026-04-04T09:11:15.116Z</time></trkpt><trkpt lat="42.1080433" lon="11.981235"><ele>365.0</ele><time>2026-04-04T09:11:16.117Z</time></trkpt><trkpt lat="42.1081733" lon="11.9811683"><ele>363.25</ele><time>2026-04-04T09:11:17.116Z</time></trkpt><trkpt lat="42.1083017" lon="11.981095"><ele>361.5</ele><time>2026-04-04T09:11:18.117Z</time></trkpt><trkpt lat="42.10842" lon="11.98103"><ele>359.75</ele><time>2026-04-04T09:11:19.116Z</time></trkpt><trkpt lat="42.1085283" lon="11.98097"><ele>358.0</ele><time>2026-04-04T09:11:20.119Z</time></trkpt><trkpt lat="42.1086233" lon="11.98092"><ele>358.0</ele><time>2026-04-04T09:11:21.12Z</time></trkpt><trkpt lat="42.1087067" lon="11.9808817"><ele>358.0</ele><time>2026-04-04T09:11:22.117Z</time></trkpt><trkpt lat="42.108785" lon="11.98085"><ele>358.0</ele><time>2026-04-04T09:11:23.116Z</time></trkpt><trkpt lat="42.10886" lon="11.9808217"><ele>358.0</ele><time>2026-04-04T09:11:24.117Z</time></trkpt><trkpt lat="42.10894" lon="11.9807967"><ele>358.0</ele><time>2026-04-04T09:11:25.118Z</time></trkpt><trkpt lat="42.109035" lon="11.9807767"><ele>358.0</ele><time>2026-04-04T09:11:26.115Z</time></trkpt><trkpt lat="42.1091467" lon="11.9807883"><ele>358.75</ele><time>2026-04-04T09:11:27.117Z</time></trkpt><trkpt lat="42.1092717" lon="11.980805"><ele>359.5</ele><time>2026-04-04T09:11:28.117Z</time></trkpt><trkpt lat="42.1094" lon="11.9808317"><ele>360.25</ele><time>2026-04-04T09:11:29.111Z</time></trkpt><trkpt lat="42.1095333" lon="11.9808533"><ele>361.0</ele><time>2026-04-04T09:11:30.118Z</time></trkpt><trkpt lat="42.109675" lon="11.9808617"><ele>360.5</ele><time>2026-04-04T09:11:31.117Z</time></trkpt><trkpt lat="42.1098133" lon="11.9808617"><ele>360.0</ele><time>2026-04-04T09:11:32.119Z</time></trkpt><trkpt lat="42.1099467" lon="11.9808517"><ele>359.5</ele><time>2026-04-04T09:11:33.117Z</time></trkpt><trkpt lat="42.11008" lon="11.9808083"><ele>359.0</ele><time>2026-04-04T09:11:34.119Z</time></trkpt><trkpt lat="42.1102133" lon="11.9807383"><ele>359.0</ele><time>2026-04-04T09:11:35.114Z</time></trkpt><trkpt lat="42.110345" lon="11.98065"><ele>359.0</ele><time>2026-04-04T09:11:36.116Z</time></trkpt><trkpt lat="42.1104717" lon="11.980555"><ele>359.0</ele><time>2026-04-04T09:11:37.113Z</time></trkpt><trkpt lat="42.1105883" lon="11.9804683"><ele>359.0</ele><time>2026-04-04T09:11:38.116Z</time></trkpt><trkpt lat="42.1107033" lon="11.980385"><ele>357.4</ele><time>2026-04-04T09:11:39.119Z</time></trkpt><trkpt lat="42.1108167" lon="11.9803283"><ele>355.79999999999995</ele><time>2026-04-04T09:11:40.119Z</time></trkpt><trkpt lat="42.1109233" lon="11.980305"><ele>354.20000000000005</ele><time>2026-04-04T09:11:41.117Z</time></trkpt><trkpt lat="42.1110267" lon="11.9803167"><ele>352.6</ele><time>2026-04-04T09:11:42.118Z</time></trkpt><trkpt lat="42.1111317" lon="11.9803633"><ele>351.0</ele><time>2026-04-04T09:11:43.114Z</time></trkpt><trkpt lat="42.1112367" lon="11.98044"><ele>351.0</ele><time>2026-04-04T09:11:44.115Z</time></trkpt><trkpt lat="42.111345" lon="11.9805383"><ele>351.0</ele><time>2026-04-04T09:11:45.118Z</time></trkpt><trkpt lat="42.1114617" lon="11.9806467"><ele>351.0</ele><time>2026-04-04T09:11:46.116Z</time></trkpt><trkpt lat="42.111575" lon="11.9807567"><ele>351.0</ele><time>2026-04-04T09:11:47.117Z</time></trkpt><trkpt lat="42.111685" lon="11.980865"><ele>349.75</ele><time>2026-04-04T09:11:48.116Z</time></trkpt><trkpt lat="42.1117883" lon="11.9809617"><ele>348.5</ele><time>2026-04-04T09:11:49.118Z</time></trkpt><trkpt lat="42.11189" lon="11.9810417"><ele>347.25</ele><time>2026-04-04T09:11:50.117Z</time></trkpt><trkpt lat="42.1119933" lon="11.981095"><ele>346.0</ele><time>2026-04-04T09:11:51.118Z</time></trkpt><trkpt lat="42.1121" lon="11.981125"><ele>346.0</ele><time>2026-04-04T09:11:52.116Z</time></trkpt><trkpt lat="42.1122033" lon="11.9811317"><ele>346.0</ele><time>2026-04-04T09:11:53.113Z</time></trkpt><trkpt lat="42.1123067" lon="11.98111"><ele>346.0</ele><time>2026-04-04T09:11:54.115Z</time></trkpt><trkpt lat="42.1124117" lon="11.9810483"><ele>346.0</ele><time>2026-04-04T09:11:55.119Z</time></trkpt><trkpt lat="42.1125067" lon="11.9809683"><ele>346.0</ele><time>2026-04-04T09:11:56.114Z</time></trkpt><trkpt lat="42.1125967" lon="11.9808733"><ele>348.0</ele><time>2026-04-04T09:11:57.111Z</time></trkpt><trkpt lat="42.1126817" lon="11.9807533"><ele>350.0</ele><time>2026-04-04T09:11:58.116Z</time></trkpt><trkpt lat="42.1127583" lon="11.9806067"><ele>352.0</ele><time>2026-04-04T09:11:59.119Z</time></trkpt><trkpt lat="42.112825" lon="11.9804533"><ele>354.0</ele><time>2026-04-04T09:12:00.117Z</time></trkpt><trkpt lat="42.112885" lon="11.980295"><ele>354.0</ele><time>2026-04-04T09:12:01.118Z</time></trkpt><trkpt lat="42.11294" lon="11.9801217"><ele>354.0</ele><time>2026-04-04T09:12:02.118Z</time></trkpt><trkpt lat="42.1129783" lon="11.9799483"><ele>354.0</ele><time>2026-04-04T09:12:03.116Z</time></trkpt><trkpt lat="42.1129933" lon="11.979775"><ele>354.0</ele><time>2026-04-04T09:12:04.118Z</time></trkpt><trkpt lat="42.1130033" lon="11.979605"><ele>354.75</ele><time>2026-04-04T09:12:05.116Z</time></trkpt><trkpt lat="42.1130033" lon="11.9794467"><ele>355.5</ele><time>2026-04-04T09:12:06.116Z</time></trkpt><trkpt lat="42.11299" lon="11.9792933"><ele>356.25</ele><time>2026-04-04T09:12:07.118Z</time></trkpt><trkpt lat="42.112955" lon="11.97914"><ele>357.0</ele><time>2026-04-04T09:12:08.116Z</time></trkpt><trkpt lat="42.112905" lon="11.9789933"><ele>357.0</ele><time>2026-04-04T09:12:09.116Z</time></trkpt><trkpt lat="42.11284" lon="11.97885"><ele>357.0</ele><time>2026-04-04T09:12:10.116Z</time></trkpt><trkpt lat="42.1127667" lon="11.9787183"><ele>357.0</ele><time>2026-04-04T09:12:11.114Z</time></trkpt><trkpt lat="42.1126983" lon="11.978595"><ele>357.0</ele><time>2026-04-04T09:12:12.119Z</time></trkpt><trkpt lat="42.1126383" lon="11.9784667"><ele>355.6</ele><time>2026-04-04T09:12:13.118Z</time></trkpt><trkpt lat="42.112595" lon="11.978335"><ele>354.20000000000005</ele><time>2026-04-04T09:12:14.117Z</time></trkpt><trkpt lat="42.112585" lon="11.9782"><ele>352.8</ele><time>2026-04-04T09:12:15.117Z</time></trkpt><trkpt lat="42.112605" lon="11.978075"><ele>351.4</ele><time>2026-04-04T09:12:16.118Z</time></trkpt><trkpt lat="42.1126517" lon="11.9779467"><ele>350.0</ele><time>2026-04-04T09:12:17.116Z</time></trkpt><trkpt lat="42.112715" lon="11.97782"><ele>350.0</ele><time>2026-04-04T09:12:18.114Z</time></trkpt><trkpt lat="42.11279" lon="11.9776867"><ele>350.0</ele><time>2026-04-04T09:12:19.118Z</time></trkpt><trkpt lat="42.112865" lon="11.9775483"><ele>350.0</ele><time>2026-04-04T09:12:20.116Z</time></trkpt><trkpt lat="42.1129383" lon="11.9774"><ele>350.0</ele><time>2026-04-04T09:12:21.118Z</time></trkpt><trkpt lat="42.113005" lon="11.9772367"><ele>349.75</ele><time>2026-04-04T09:12:22.117Z</time></trkpt><trkpt lat="42.1130617" lon="11.97706"><ele>349.5</ele><time>2026-04-04T09:12:23.118Z</time></trkpt><trkpt lat="42.1131133" lon="11.9768767"><ele>349.25</ele><time>2026-04-04T09:12:24.117Z</time></trkpt><trkpt lat="42.1131583" lon="11.976695"><ele>349.0</ele><time>2026-04-04T09:12:25.118Z</time></trkpt><trkpt lat="42.1132067" lon="11.9765217"><ele>347.25</ele><time>2026-04-04T09:12:26.116Z</time></trkpt><trkpt lat="42.1132667" lon="11.9763667"><ele>345.5</ele><time>2026-04-04T09:12:27.115Z</time></trkpt><trkpt lat="42.1133433" lon="11.9762383"><ele>343.75</ele><time>2026-04-04T09:12:28.118Z</time></trkpt><trkpt lat="42.11343" lon="11.9761367"><ele>342.0</ele><time>2026-04-04T09:12:29.115Z</time></trkpt><trkpt lat="42.1135317" lon="11.976065"><ele>342.0</ele><time>2026-04-04T09:12:30.115Z</time></trkpt><trkpt lat="42.1136567" lon="11.97601"><ele>342.0</ele><time>2026-04-04T09:12:31.119Z</time></trkpt><trkpt lat="42.113795" lon="11.97597"><ele>342.0</ele><time>2026-04-04T09:12:32.118Z</time></trkpt><trkpt lat="42.1139367" lon="11.9759233"><ele>342.0</ele><time>2026-04-04T09:12:33.119Z</time></trkpt><trkpt lat="42.1140783" lon="11.9758717"><ele>343.5</ele><time>2026-04-04T09:12:34.118Z</time></trkpt><trkpt lat="42.114215" lon="11.975825"><ele>345.0</ele><time>2026-04-04T09:12:35.116Z</time></trkpt><trkpt lat="42.1143467" lon="11.975785"><ele>346.5</ele><time>2026-04-04T09:12:36.115Z</time></trkpt><trkpt lat="42.1144667" lon="11.97575"><ele>348.0</ele><time>2026-04-04T09:12:37.116Z</time></trkpt><trkpt lat="42.1145733" lon="11.9757117"><ele>348.0</ele><time>2026-04-04T09:12:38.115Z</time></trkpt><trkpt lat="42.11467" lon="11.9756433"><ele>348.0</ele><time>2026-04-04T09:12:39.119Z</time></trkpt><trkpt lat="42.11477" lon="11.9755483"><ele>348.0</ele><time>2026-04-04T09:12:40.117Z</time></trkpt><trkpt lat="42.11487" lon="11.9754333"><ele>348.0</ele><time>2026-04-04T09:12:41.109Z</time></trkpt><trkpt lat="42.11497" lon="11.97531"><ele>348.25</ele><time>2026-04-04T09:12:42.114Z</time></trkpt><trkpt lat="42.1150733" lon="11.9751783"><ele>348.5</ele><time>2026-04-04T09:12:43.117Z</time></trkpt><trkpt lat="42.1151767" lon="11.9750433"><ele>348.75</ele><time>2026-04-04T09:12:44.118Z</time></trkpt><trkpt lat="42.11528" lon="11.9748933"><ele>349.0</ele><time>2026-04-04T09:12:45.117Z</time></trkpt><trkpt lat="42.1153867" lon="11.97475"><ele>349.0</ele><time>2026-04-04T09:12:46.117Z</time></trkpt><trkpt lat="42.1154967" lon="11.9746"><ele>349.0</ele><time>2026-04-04T09:12:47.116Z</time></trkpt><trkpt lat="42.1156067" lon="11.9744533"><ele>349.0</ele><time>2026-04-04T09:12:48.115Z</time></trkpt><trkpt lat="42.1157217" lon="11.9743133"><ele>348.3333333333333</ele><time>2026-04-04T09:12:49.118Z</time></trkpt><trkpt lat="42.1158333" lon="11.9741717"><ele>347.6666666666667</ele><time>2026-04-04T09:12:50.118Z</time></trkpt><trkpt lat="42.11594" lon="11.9740233"><ele>347.0</ele><time>2026-04-04T09:12:51.116Z</time></trkpt><trkpt lat="42.116035" lon="11.9738683"><ele>347.0</ele><time>2026-04-04T09:12:52.114Z</time></trkpt><trkpt lat="42.1161217" lon="11.973705"><ele>347.0</ele><time>2026-04-04T09:12:53.114Z</time></trkpt><trkpt lat="42.116195" lon="11.9735433"><ele>347.0</ele><time>2026-04-04T09:12:54.114Z</time></trkpt><trkpt lat="42.1162617" lon="11.9733833"><ele>347.0</ele><time>2026-04-04T09:12:55.12Z</time></trkpt><trkpt lat="42.1163283" lon="11.97322"><ele>348.25</ele><time>2026-04-04T09:12:56.116Z</time></trkpt><trkpt lat="42.116405" lon="11.9730767"><ele>349.5</ele><time>2026-04-04T09:12:57.117Z</time></trkpt><trkpt lat="42.1165017" lon="11.9729517"><ele>350.75</ele><time>2026-04-04T09:12:58.117Z</time></trkpt><trkpt lat="42.1166083" lon="11.9728333"><ele>352.0</ele><time>2026-04-04T09:12:59.115Z</time></trkpt><trkpt lat="42.1167267" lon="11.97273"><ele>351.66666666666663</ele><time>2026-04-04T09:13:00.118Z</time></trkpt><trkpt lat="42.1168567" lon="11.9726317"><ele>351.3333333333333</ele><time>2026-04-04T09:13:01.11Z</time></trkpt><trkpt lat="42.116985" lon="11.97252"><ele>351.0</ele><time>2026-04-04T09:13:02.113Z</time></trkpt><trkpt lat="42.117115" lon="11.9724033"><ele>351.0</ele><time>2026-04-04T09:13:03.113Z</time></trkpt><trkpt lat="42.117245" lon="11.9722883"><ele>351.0</ele><time>2026-04-04T09:13:04.114Z</time></trkpt><trkpt lat="42.1173783" lon="11.97217"><ele>351.0</ele><time>2026-04-04T09:13:05.118Z</time></trkpt><trkpt lat="42.117515" lon="11.9720417"><ele>352.0</ele><time>2026-04-04T09:13:06.118Z</time></trkpt><trkpt lat="42.117645" lon="11.9719067"><ele>353.0</ele><time>2026-04-04T09:13:07.117Z</time></trkpt><trkpt lat="42.11777" lon="11.9717783"><ele>354.0</ele><time>2026-04-04T09:13:08.113Z</time></trkpt><trkpt lat="42.1178933" lon="11.9716667"><ele>354.0</ele><time>2026-04-04T09:13:09.116Z</time></trkpt><trkpt lat="42.11802" lon="11.9715617"><ele>354.0</ele><time>2026-04-04T09:13:10.118Z</time></trkpt><trkpt lat="42.1181483" lon="11.97148"><ele>354.0</ele><time>2026-04-04T09:13:11.116Z</time></trkpt><trkpt lat="42.1182817" lon="11.9714133"><ele>354.0</ele><time>2026-04-04T09:13:12.115Z</time></trkpt><trkpt lat="42.1184117" lon="11.9713717"><ele>350.25</ele><time>2026-04-04T09:13:13.113Z</time></trkpt><trkpt lat="42.1185333" lon="11.97134"><ele>346.5</ele><time>2026-04-04T09:13:14.118Z</time></trkpt><trkpt lat="42.1186467" lon="11.9712983"><ele>342.75</ele><time>2026-04-04T09:13:15.117Z</time></trkpt><trkpt lat="42.1187583" lon="11.97124"><ele>339.0</ele><time>2026-04-04T09:13:16.118Z</time></trkpt><trkpt lat="42.11886" lon="11.9711733"><ele>339.0</ele><time>2026-04-04T09:13:17.117Z</time></trkpt><trkpt lat="42.1189583" lon="11.9711017"><ele>339.0</ele><time>2026-04-04T09:13:18.116Z</time></trkpt><trkpt lat="42.1190483" lon="11.9710117"><ele>339.0</ele><time>2026-04-04T09:13:19.117Z</time></trkpt><trkpt lat="42.119135" lon="11.97091"><ele>339.0</ele><time>2026-04-04T09:13:20.114Z</time></trkpt><trkpt lat="42.1192167" lon="11.9707883"><ele>339.25</ele><time>2026-04-04T09:13:21.114Z</time></trkpt><trkpt lat="42.1192933" lon="11.9706367"><ele>339.5</ele><time>2026-04-04T09:13:22.116Z</time></trkpt><trkpt lat="42.1193667" lon="11.9704717"><ele>339.75</ele><time>2026-04-04T09:13:23.114Z</time></trkpt><trkpt lat="42.1194317" lon="11.9702817"><ele>340.0</ele><time>2026-04-04T09:13:24.118Z</time></trkpt><trkpt lat="42.119505" lon="11.9701067"><ele>342.66666666666663</ele><time>2026-04-04T09:13:25.116Z</time></trkpt><trkpt lat="42.11959" lon="11.9699383"><ele>345.3333333333333</ele><time>2026-04-04T09:13:26.114Z</time></trkpt><trkpt lat="42.1196833" lon="11.969775"><ele>348.0</ele><time>2026-04-04T09:13:27.116Z</time></trkpt><trkpt lat="42.119785" lon="11.9696167"><ele>348.0</ele><time>2026-04-04T09:13:28.114Z</time></trkpt><trkpt lat="42.119895" lon="11.96946"><ele>348.0</ele><time>2026-04-04T09:13:29.115Z</time></trkpt><trkpt lat="42.1200183" lon="11.9693167"><ele>348.0</ele><time>2026-04-04T09:13:30.116Z</time></trkpt><trkpt lat="42.120155" lon="11.9691833"><ele>348.6666666666667</ele><time>2026-04-04T09:13:31.116Z</time></trkpt><trkpt lat="42.120295" lon="11.9690533"><ele>349.33333333333337</ele><time>2026-04-04T09:13:32.116Z</time></trkpt><trkpt lat="42.1204217" lon="11.9689317"><ele>350.0</ele><time>2026-04-04T09:13:33.115Z</time></trkpt><trkpt lat="42.120535" lon="11.9688067"><ele>350.0</ele><time>2026-04-04T09:13:34.115Z</time></trkpt><trkpt lat="42.120625" lon="11.96869"><ele>350.0</ele><time>2026-04-04T09:13:35.115Z</time></trkpt><trkpt lat="42.12071" lon="11.96858"><ele>350.0</ele><time>2026-04-04T09:13:36.115Z</time></trkpt><trkpt lat="42.1207717" lon="11.9684733"><ele>350.0</ele><time>2026-04-04T09:13:37.118Z</time></trkpt><trkpt lat="42.1208233" lon="11.96835"><ele>350.0</ele><time>2026-04-04T09:13:38.117Z</time></trkpt><trkpt lat="42.1208417" lon="11.9682083"><ele>349.0</ele><time>2026-04-04T09:13:39.117Z</time></trkpt><trkpt lat="42.1208517" lon="11.968055"><ele>348.0</ele><time>2026-04-04T09:13:40.111Z</time></trkpt><trkpt lat="42.1208533" lon="11.967885"><ele>347.0</ele><time>2026-04-04T09:13:41.117Z</time></trkpt><trkpt lat="42.1208567" lon="11.9677117"><ele>346.0</ele><time>2026-04-04T09:13:42.117Z</time></trkpt><trkpt lat="42.120855" lon="11.9675367"><ele>346.5</ele><time>2026-04-04T09:13:43.114Z</time></trkpt><trkpt lat="42.1208433" lon="11.9673667"><ele>347.0</ele><time>2026-04-04T09:13:44.117Z</time></trkpt><trkpt lat="42.1208333" lon="11.967215"><ele>347.5</ele><time>2026-04-04T09:13:45.111Z</time></trkpt><trkpt lat="42.1207983" lon="11.9670667"><ele>348.0</ele><time>2026-04-04T09:13:46.117Z</time></trkpt><trkpt lat="42.1207467" lon="11.9669217"><ele>352.75</ele><time>2026-04-04T09:13:47.117Z</time></trkpt><trkpt lat="42.1206917" lon="11.96677"><ele>357.5</ele><time>2026-04-04T09:13:48.116Z</time></trkpt><trkpt lat="42.1206167" lon="11.9666083"><ele>362.25</ele><time>2026-04-04T09:13:49.115Z</time></trkpt><trkpt lat="42.1205383" lon="11.9664567"><ele>367.0</ele><time>2026-04-04T09:13:50.116Z</time></trkpt><trkpt lat="42.12046" lon="11.9662933"><ele>367.0</ele><time>2026-04-04T09:13:51.118Z</time></trkpt><trkpt lat="42.1203817" lon="11.966145"><ele>367.0</ele><time>2026-04-04T09:13:52.117Z</time></trkpt><trkpt lat="42.1203133" lon="11.966005"><ele>367.0</ele><time>2026-04-04T09:13:53.117Z</time></trkpt><trkpt lat="42.12026" lon="11.9658817"><ele>367.0</ele><time>2026-04-04T09:13:54.111Z</time></trkpt><trkpt lat="42.12022" lon="11.96576"><ele>364.6</ele><time>2026-04-04T09:13:55.117Z</time></trkpt><trkpt lat="42.12021" lon="11.9656233"><ele>362.20000000000005</ele><time>2026-04-04T09:13:56.118Z</time></trkpt><trkpt lat="42.120205" lon="11.96549"><ele>359.8</ele><time>2026-04-04T09:13:57.121Z</time></trkpt><trkpt lat="42.1202033" lon="11.9653633"><ele>357.4</ele><time>2026-04-04T09:13:58.119Z</time></trkpt><trkpt lat="42.1201967" lon="11.9652433"><ele>355.0</ele><time>2026-04-04T09:13:59.114Z</time></trkpt><trkpt lat="42.1201817" lon="11.96511"><ele>352.0</ele><time>2026-04-04T09:14:00.118Z</time></trkpt><trkpt lat="42.1201433" lon="11.9649783"><ele>349.0</ele><time>2026-04-04T09:14:01.117Z</time></trkpt><trkpt lat="42.12009" lon="11.96484"><ele>346.0</ele><time>2026-04-04T09:14:02.115Z</time></trkpt><trkpt lat="42.120025" lon="11.9647067"><ele>343.0</ele><time>2026-04-04T09:14:03.12Z</time></trkpt><trkpt lat="42.1199467" lon="11.9645667"><ele>344.25</ele><time>2026-04-04T09:14:04.114Z</time></trkpt><trkpt lat="42.11987" lon="11.9644233"><ele>345.5</ele><time>2026-04-04T09:14:05.118Z</time></trkpt><trkpt lat="42.119795" lon="11.9642817"><ele>346.75</ele><time>2026-04-04T09:14:06.118Z</time></trkpt><trkpt lat="42.1197333" lon="11.9641267"><ele>348.0</ele><time>2026-04-04T09:14:07.113Z</time></trkpt><trkpt lat="42.1196783" lon="11.9639717"><ele>348.0</ele><time>2026-04-04T09:14:08.114Z</time></trkpt><trkpt lat="42.1196283" lon="11.963825"><ele>348.0</ele><time>2026-04-04T09:14:09.118Z</time></trkpt><trkpt lat="42.11958" lon="11.96368"><ele>348.0</ele><time>2026-04-04T09:14:10.114Z</time></trkpt><trkpt lat="42.1195467" lon="11.9635233"><ele>348.0</ele><time>2026-04-04T09:14:11.114Z</time></trkpt><trkpt lat="42.119525" lon="11.9633583"><ele>346.25</ele><time>2026-04-04T09:14:12.116Z</time></trkpt><trkpt lat="42.119525" lon="11.9631917"><ele>344.5</ele><time>2026-04-04T09:14:13.114Z</time></trkpt><trkpt lat="42.1195367" lon="11.9630317"><ele>342.75</ele><time>2026-04-04T09:14:14.114Z</time></trkpt><trkpt lat="42.1195483" lon="11.9628883"><ele>341.0</ele><time>2026-04-04T09:14:15.119Z</time></trkpt><trkpt lat="42.1196033" lon="11.9627617"><ele>341.0</ele><time>2026-04-04T09:14:16.115Z</time></trkpt><trkpt lat="42.1196833" lon="11.962645"><ele>341.0</ele><time>2026-04-04T09:14:17.116Z</time></trkpt><trkpt lat="42.11978" lon="11.9625533"><ele>341.0</ele><time>2026-04-04T09:14:18.116Z</time></trkpt><trkpt lat="42.1198733" lon="11.9624667"><ele>341.0</ele><time>2026-04-04T09:14:19.116Z</time></trkpt><trkpt lat="42.1199517" lon="11.9623817"><ele>338.1666666666667</ele><time>2026-04-04T09:14:20.118Z</time></trkpt><trkpt lat="42.12001" lon="11.962295"><ele>335.33333333333337</ele><time>2026-04-04T09:14:21.117Z</time></trkpt><trkpt lat="42.1200567" lon="11.962195"><ele>332.5</ele><time>2026-04-04T09:14:22.118Z</time></trkpt><trkpt lat="42.1200917" lon="11.9621033"><ele>329.6666666666667</ele><time>2026-04-04T09:14:23.115Z</time></trkpt><trkpt lat="42.1201117" lon="11.9620067"><ele>326.8333333333333</ele><time>2026-04-04T09:14:24.118Z</time></trkpt><trkpt lat="42.120105" lon="11.9618883"><ele>324.0</ele><time>2026-04-04T09:14:25.116Z</time></trkpt><trkpt lat="42.1200767" lon="11.961765"><ele>324.5</ele><time>2026-04-04T09:14:26.117Z</time></trkpt><trkpt lat="42.1200483" lon="11.9616517"><ele>325.0</ele><time>2026-04-04T09:14:27.117Z</time></trkpt><trkpt lat="42.1200433" lon="11.961545"><ele>325.5</ele><time>2026-04-04T09:14:28.114Z</time></trkpt><trkpt lat="42.120045" lon="11.9614417"><ele>326.0</ele><time>2026-04-04T09:14:29.116Z</time></trkpt><trkpt lat="42.120075" lon="11.9613333"><ele>326.5</ele><time>2026-04-04T09:14:30.114Z</time></trkpt><trkpt lat="42.1201167" lon="11.961225"><ele>327.0</ele><time>2026-04-04T09:14:31.114Z</time></trkpt><trkpt lat="42.1201817" lon="11.9611283"><ele>327.0</ele><time>2026-04-04T09:14:32.115Z</time></trkpt><trkpt lat="42.1202683" lon="11.9610567"><ele>327.0</ele><time>2026-04-04T09:14:33.117Z</time></trkpt><trkpt lat="42.120355" lon="11.961005"><ele>327.0</ele><time>2026-04-04T09:14:34.114Z</time></trkpt><trkpt lat="42.1204283" lon="11.9609367"><ele>327.0</ele><time>2026-04-04T09:14:35.117Z</time></trkpt><trkpt lat="42.1204917" lon="11.9608633"><ele>327.0</ele><time>2026-04-04T09:14:36.114Z</time></trkpt><trkpt lat="42.1205533" lon="11.9607917"><ele>328.1666666666667</ele><time>2026-04-04T09:14:37.113Z</time></trkpt><trkpt lat="42.1206117" lon="11.9607217"><ele>329.3333333333333</ele><time>2026-04-04T09:14:38.117Z</time></trkpt><trkpt lat="42.120645" lon="11.9606217"><ele>330.5</ele><time>2026-04-04T09:14:39.117Z</time></trkpt><trkpt lat="42.12066" lon="11.9605333"><ele>331.66666666666663</ele><time>2026-04-04T09:14:40.114Z</time></trkpt><trkpt lat="42.1205933" lon="11.96039"><ele>332.8333333333333</ele><time>2026-04-04T09:14:41.115Z</time></trkpt><trkpt lat="42.1205583" lon="11.960275"><ele>334.0</ele><time>2026-04-04T09:14:42.115Z</time></trkpt><trkpt lat="42.120525" lon="11.9601533"><ele>334.0</ele><time>2026-04-04T09:14:43.118Z</time></trkpt><trkpt lat="42.1205067" lon="11.96004"><ele>334.0</ele><time>2026-04-04T09:14:44.118Z</time></trkpt><trkpt lat="42.1205017" lon="11.9599217"><ele>334.0</ele><time>2026-04-04T09:14:45.118Z</time></trkpt><trkpt lat="42.12054" lon="11.959795"><ele>334.0</ele><time>2026-04-04T09:14:46.113Z</time></trkpt><trkpt lat="42.1205783" lon="11.9596617"><ele>334.0</ele><time>2026-04-04T09:14:47.114Z</time></trkpt><trkpt lat="42.1206067" lon="11.95953"><ele>335.4</ele><time>2026-04-04T09:14:48.117Z</time></trkpt><trkpt lat="42.1206233" lon="11.9594017"><ele>336.79999999999995</ele><time>2026-04-04T09:14:49.114Z</time></trkpt><trkpt lat="42.1206283" lon="11.95928"><ele>338.20000000000005</ele><time>2026-04-04T09:14:50.117Z</time></trkpt><trkpt lat="42.1206167" lon="11.9591633"><ele>339.6</ele><time>2026-04-04T09:14:51.116Z</time></trkpt><trkpt lat="42.1205833" lon="11.959045"><ele>341.0</ele><time>2026-04-04T09:14:52.117Z</time></trkpt><trkpt lat="42.1205317" lon="11.9589217"><ele>341.0</ele><time>2026-04-04T09:14:53.117Z</time></trkpt><trkpt lat="42.1204783" lon="11.958805"><ele>341.0</ele><time>2026-04-04T09:14:54.115Z</time></trkpt><trkpt lat="42.1204283" lon="11.9586917"><ele>341.0</ele><time>2026-04-04T09:14:55.115Z</time></trkpt><trkpt lat="42.1203967" lon="11.958585"><ele>341.0</ele><time>2026-04-04T09:14:56.117Z</time></trkpt><trkpt lat="42.1203733" lon="11.9584617"><ele>341.0</ele><time>2026-04-04T09:14:57.118Z</time></trkpt><trkpt lat="42.1203733" lon="11.958325"><ele>339.8</ele><time>2026-04-04T09:14:58.117Z</time></trkpt><trkpt lat="42.1203833" lon="11.95818"><ele>338.6</ele><time>2026-04-04T09:14:59.114Z</time></trkpt><trkpt lat="42.120395" lon="11.9580333"><ele>337.4</ele><time>2026-04-04T09:15:00.117Z</time></trkpt><trkpt lat="42.12041" lon="11.9578817"><ele>336.2</ele><time>2026-04-04T09:15:01.119Z</time></trkpt><trkpt lat="42.120425" lon="11.9577417"><ele>335.0</ele><time>2026-04-04T09:15:02.117Z</time></trkpt><trkpt lat="42.12044" lon="11.9576117"><ele>335.0</ele><time>2026-04-04T09:15:03.118Z</time></trkpt><trkpt lat="42.120465" lon="11.9574867"><ele>335.0</ele><time>2026-04-04T09:15:04.115Z</time></trkpt><trkpt lat="42.1205117" lon="11.95736"><ele>335.0</ele><time>2026-04-04T09:15:05.117Z</time></trkpt><trkpt lat="42.1205733" lon="11.9572367"><ele>335.0</ele><time>2026-04-04T09:15:06.116Z</time></trkpt><trkpt lat="42.120645" lon="11.9571167"><ele>335.0</ele><time>2026-04-04T09:15:07.118Z</time></trkpt><trkpt lat="42.1207183" lon="11.9569967"><ele>333.25</ele><time>2026-04-04T09:15:08.118Z</time></trkpt><trkpt lat="42.1208" lon="11.9568733"><ele>331.5</ele><time>2026-04-04T09:15:09.113Z</time></trkpt><trkpt lat="42.12088" lon="11.9567517"><ele>329.75</ele><time>2026-04-04T09:15:10.116Z</time></trkpt><trkpt lat="42.12097" lon="11.9566383"><ele>328.0</ele><time>2026-04-04T09:15:11.117Z</time></trkpt><trkpt lat="42.121075" lon="11.956535"><ele>328.0</ele><time>2026-04-04T09:15:12.116Z</time></trkpt><trkpt lat="42.12119" lon="11.95645"><ele>328.0</ele><time>2026-04-04T09:15:13.116Z</time></trkpt><trkpt lat="42.1213167" lon="11.9563733"><ele>328.0</ele><time>2026-04-04T09:15:14.114Z</time></trkpt><trkpt lat="42.1214217" lon="11.9563233"><ele>328.0</ele><time>2026-04-04T09:15:15.117Z</time></trkpt><trkpt lat="42.1215233" lon="11.9563017"><ele>325.4</ele><time>2026-04-04T09:15:16.12Z</time></trkpt><trkpt lat="42.121615" lon="11.9563167"><ele>322.79999999999995</ele><time>2026-04-04T09:15:17.109Z</time></trkpt><trkpt lat="42.1217083" lon="11.9563567"><ele>320.2</ele><time>2026-04-04T09:15:18.119Z</time></trkpt><trkpt lat="42.121805" lon="11.956425"><ele>317.6</ele><time>2026-04-04T09:15:19.114Z</time></trkpt><trkpt lat="42.1219067" lon="11.956525"><ele>315.0</ele><time>2026-04-04T09:15:20.117Z</time></trkpt><trkpt lat="42.122015" lon="11.95664"><ele>313.5</ele><time>2026-04-04T09:15:21.118Z</time></trkpt><trkpt lat="42.1221267" lon="11.9567617"><ele>312.0</ele><time>2026-04-04T09:15:22.117Z</time></trkpt><trkpt lat="42.12224" lon="11.95689"><ele>310.5</ele><time>2026-04-04T09:15:23.115Z</time></trkpt><trkpt lat="42.12236" lon="11.957025"><ele>309.0</ele><time>2026-04-04T09:15:24.118Z</time></trkpt><trkpt lat="42.1225033" lon="11.95715"><ele>309.0</ele><time>2026-04-04T09:15:25.118Z</time></trkpt><trkpt lat="42.1226433" lon="11.957275"><ele>309.0</ele><time>2026-04-04T09:15:26.115Z</time></trkpt><trkpt lat="42.1227717" lon="11.9574067"><ele>309.0</ele><time>2026-04-04T09:15:27.118Z</time></trkpt><trkpt lat="42.1228833" lon="11.9575483"><ele>307.5</ele><time>2026-04-04T09:15:28.116Z</time></trkpt><trkpt lat="42.1229867" lon="11.9576867"><ele>306.0</ele><time>2026-04-04T09:15:29.114Z</time></trkpt><trkpt lat="42.12308" lon="11.9578183"><ele>304.5</ele><time>2026-04-04T09:15:30.116Z</time></trkpt><trkpt lat="42.1231683" lon="11.9579383"><ele>303.0</ele><time>2026-04-04T09:15:31.118Z</time></trkpt><trkpt lat="42.123255" lon="11.9580333"><ele>303.0</ele><time>2026-04-04T09:15:32.113Z</time></trkpt><trkpt lat="42.123335" lon="11.958115"><ele>303.0</ele><time>2026-04-04T09:15:33.114Z</time></trkpt><trkpt lat="42.12342" lon="11.958175"><ele>303.0</ele><time>2026-04-04T09:15:34.118Z</time></trkpt><trkpt lat="42.1235033" lon="11.9582167"><ele>303.0</ele><time>2026-04-04T09:15:35.116Z</time></trkpt><trkpt lat="42.1236017" lon="11.9582267"><ele>303.0</ele><time>2026-04-04T09:15:36.113Z</time></trkpt><trkpt lat="42.1237083" lon="11.9582167"><ele>303.0</ele><time>2026-04-04T09:15:37.118Z</time></trkpt><trkpt lat="42.1238267" lon="11.9581983"><ele>303.0</ele><time>2026-04-04T09:15:38.115Z</time></trkpt><trkpt lat="42.12395" lon="11.9581867"><ele>303.0</ele><time>2026-04-04T09:15:39.119Z</time></trkpt><trkpt lat="42.1240917" lon="11.958175"><ele>303.0</ele><time>2026-04-04T09:15:40.115Z</time></trkpt><trkpt lat="42.124245" lon="11.9581733"><ele>303.25</ele><time>2026-04-04T09:15:41.116Z</time></trkpt><trkpt lat="42.124385" lon="11.9581867"><ele>303.5</ele><time>2026-04-04T09:15:42.118Z</time></trkpt><trkpt lat="42.1245217" lon="11.9582067"><ele>303.75</ele><time>2026-04-04T09:15:43.11Z</time></trkpt><trkpt lat="42.1246467" lon="11.9582233"><ele>304.0</ele><time>2026-04-04T09:15:44.115Z</time></trkpt><trkpt lat="42.1247617" lon="11.958225"><ele>304.0</ele><time>2026-04-04T09:15:45.118Z</time></trkpt><trkpt lat="42.1248667" lon="11.9582117"><ele>304.0</ele><time>2026-04-04T09:15:46.118Z</time></trkpt><trkpt lat="42.124955" lon="11.9581767"><ele>304.0</ele><time>2026-04-04T09:15:47.116Z</time></trkpt><trkpt lat="42.1250333" lon="11.9581183"><ele>304.0</ele><time>2026-04-04T09:15:48.116Z</time></trkpt><trkpt lat="42.1251083" lon="11.958045"><ele>304.0</ele><time>2026-04-04T09:15:49.118Z</time></trkpt><trkpt lat="42.1251517" lon="11.95793"><ele>304.0</ele><time>2026-04-04T09:15:50.114Z</time></trkpt><trkpt lat="42.125185" lon="11.9578"><ele>304.0</ele><time>2026-04-04T09:15:51.118Z</time></trkpt><trkpt lat="42.1252033" lon="11.9576517"><ele>304.0</ele><time>2026-04-04T09:15:52.119Z</time></trkpt><trkpt lat="42.1252083" lon="11.9574933"><ele>304.0</ele><time>2026-04-04T09:15:53.114Z</time></trkpt><trkpt lat="42.125205" lon="11.9573367"><ele>304.0</ele><time>2026-04-04T09:15:54.114Z</time></trkpt><trkpt lat="42.125205" lon="11.957185"><ele>304.2</ele><time>2026-04-04T09:15:55.118Z</time></trkpt><trkpt lat="42.1252033" lon="11.9570333"><ele>304.4</ele><time>2026-04-04T09:15:56.12Z</time></trkpt><trkpt lat="42.1252117" lon="11.956885"><ele>304.6</ele><time>2026-04-04T09:15:57.118Z</time></trkpt><trkpt lat="42.1252383" lon="11.95675"><ele>304.8</ele><time>2026-04-04T09:15:58.114Z</time></trkpt><trkpt lat="42.1252933" lon="11.9566317"><ele>305.0</ele><time>2026-04-04T09:15:59.112Z</time></trkpt><trkpt lat="42.125375" lon="11.95653"><ele>305.5</ele><time>2026-04-04T09:16:00.116Z</time></trkpt><trkpt lat="42.1254767" lon="11.956445"><ele>306.0</ele><time>2026-04-04T09:16:01.116Z</time></trkpt><trkpt lat="42.1255883" lon="11.9563617"><ele>306.5</ele><time>2026-04-04T09:16:02.113Z</time></trkpt><trkpt lat="42.1257067" lon="11.95629"><ele>307.0</ele><time>2026-04-04T09:16:03.119Z</time></trkpt><trkpt lat="42.125825" lon="11.9562217"><ele>305.2</ele><time>2026-04-04T09:16:04.116Z</time></trkpt><trkpt lat="42.1259383" lon="11.9561467"><ele>303.4</ele><time>2026-04-04T09:16:05.118Z</time></trkpt><trkpt lat="42.1260383" lon="11.9560717"><ele>301.6</ele><time>2026-04-04T09:16:06.114Z</time></trkpt><trkpt lat="42.12612" lon="11.955985"><ele>299.8</ele><time>2026-04-04T09:16:07.119Z</time></trkpt><trkpt lat="42.1261833" lon="11.9558967"><ele>298.0</ele><time>2026-04-04T09:16:08.115Z</time></trkpt><trkpt lat="42.1262367" lon="11.9557967"><ele>298.0</ele><time>2026-04-04T09:16:09.118Z</time></trkpt><trkpt lat="42.1262717" lon="11.955695"><ele>298.0</ele><time>2026-04-04T09:16:10.119Z</time></trkpt><trkpt lat="42.1262883" lon="11.9555883"><ele>298.0</ele><time>2026-04-04T09:16:11.114Z</time></trkpt><trkpt lat="42.1262867" lon="11.955465"><ele>298.0</ele><time>2026-04-04T09:16:12.118Z</time></trkpt><trkpt lat="42.1262533" lon="11.9553417"><ele>298.0</ele><time>2026-04-04T09:16:13.116Z</time></trkpt><trkpt lat="42.126235" lon="11.9552333"><ele>298.0</ele><time>2026-04-04T09:16:14.117Z</time></trkpt><trkpt lat="42.12622" lon="11.95512"><ele>298.4</ele><time>2026-04-04T09:16:15.115Z</time></trkpt><trkpt lat="42.1262167" lon="11.9549933"><ele>298.8</ele><time>2026-04-04T09:16:16.114Z</time></trkpt><trkpt lat="42.1262667" lon="11.9548733"><ele>299.2</ele><time>2026-04-04T09:16:17.116Z</time></trkpt><trkpt lat="42.1263183" lon="11.95477"><ele>299.6</ele><time>2026-04-04T09:16:18.116Z</time></trkpt><trkpt lat="42.1263883" lon="11.9546817"><ele>300.0</ele><time>2026-04-04T09:16:19.118Z</time></trkpt><trkpt lat="42.126465" lon="11.9545983"><ele>300.0</ele><time>2026-04-04T09:16:20.119Z</time></trkpt><trkpt lat="42.1265583" lon="11.9545433"><ele>300.0</ele><time>2026-04-04T09:16:21.118Z</time></trkpt><trkpt lat="42.12665" lon="11.9544933"><ele>300.0</ele><time>2026-04-04T09:16:22.118Z</time></trkpt><trkpt lat="42.12674" lon="11.95446"><ele>300.0</ele><time>2026-04-04T09:16:23.113Z</time></trkpt><trkpt lat="42.1268483" lon="11.954465"><ele>300.0</ele><time>2026-04-04T09:16:24.118Z</time></trkpt><trkpt lat="42.1269567" lon="11.9544767"><ele>296.25</ele><time>2026-04-04T09:16:25.119Z</time></trkpt><trkpt lat="42.1270683" lon="11.9545067"><ele>292.5</ele><time>2026-04-04T09:16:26.114Z</time></trkpt><trkpt lat="42.12718" lon="11.9545367"><ele>288.75</ele><time>2026-04-04T09:16:27.117Z</time></trkpt><trkpt lat="42.1273033" lon="11.954545"><ele>285.0</ele><time>2026-04-04T09:16:28.117Z</time></trkpt><trkpt lat="42.127435" lon="11.9545367"><ele>281.5</ele><time>2026-04-04T09:16:29.115Z</time></trkpt><trkpt lat="42.1275683" lon="11.954505"><ele>278.0</ele><time>2026-04-04T09:16:30.117Z</time></trkpt><trkpt lat="42.1276983" lon="11.9544683"><ele>274.5</ele><time>2026-04-04T09:16:31.118Z</time></trkpt><trkpt lat="42.1278367" lon="11.9544383"><ele>271.0</ele><time>2026-04-04T09:16:32.119Z</time></trkpt><trkpt lat="42.1279783" lon="11.954425"><ele>271.0</ele><time>2026-04-04T09:16:33.12Z</time></trkpt><trkpt lat="42.12812" lon="11.9544233"><ele>271.0</ele><time>2026-04-04T09:16:34.115Z</time></trkpt><trkpt lat="42.128265" lon="11.9544333"><ele>271.0</ele><time>2026-04-04T09:16:35.116Z</time></trkpt><trkpt lat="42.1284117" lon="11.9544567"><ele>271.0</ele><time>2026-04-04T09:16:36.116Z</time></trkpt><trkpt lat="42.1285667" lon="11.95448"><ele>269.66666666666663</ele><time>2026-04-04T09:16:37.119Z</time></trkpt><trkpt lat="42.1287233" lon="11.9545083"><ele>268.3333333333333</ele><time>2026-04-04T09:16:38.117Z</time></trkpt><trkpt lat="42.1288717" lon="11.9545317"><ele>267.0</ele><time>2026-04-04T09:16:39.119Z</time></trkpt><trkpt lat="42.1290133" lon="11.9545567"><ele>266.25</ele><time>2026-04-04T09:16:40.115Z</time></trkpt><trkpt lat="42.1291483" lon="11.9545583"><ele>265.5</ele><time>2026-04-04T09:16:41.117Z</time></trkpt><trkpt lat="42.12927" lon="11.9545583"><ele>264.75</ele><time>2026-04-04T09:16:42.119Z</time></trkpt><trkpt lat="42.12938" lon="11.9545433"><ele>264.0</ele><time>2026-04-04T09:16:43.118Z</time></trkpt><trkpt lat="42.1294883" lon="11.9545033"><ele>264.0</ele><time>2026-04-04T09:16:44.118Z</time></trkpt><trkpt lat="42.1295867" lon="11.954425"><ele>264.0</ele><time>2026-04-04T09:16:45.119Z</time></trkpt><trkpt lat="42.12967" lon="11.954335"><ele>264.0</ele><time>2026-04-04T09:16:46.118Z</time></trkpt><trkpt lat="42.129725" lon="11.95423"><ele>264.0</ele><time>2026-04-04T09:16:47.119Z</time></trkpt><trkpt lat="42.1297667" lon="11.9541167"><ele>264.0</ele><time>2026-04-04T09:16:48.114Z</time></trkpt><trkpt lat="42.12979" lon="11.9539917"><ele>263.2</ele><time>2026-04-04T09:16:49.117Z</time></trkpt><trkpt lat="42.1298167" lon="11.9538833"><ele>262.4</ele><time>2026-04-04T09:16:50.116Z</time></trkpt><trkpt lat="42.12985" lon="11.95377"><ele>261.6</ele><time>2026-04-04T09:16:51.117Z</time></trkpt><trkpt lat="42.1299083" lon="11.9536617"><ele>260.8</ele><time>2026-04-04T09:16:52.118Z</time></trkpt><trkpt lat="42.1299767" lon="11.9535467"><ele>260.0</ele><time>2026-04-04T09:16:53.114Z</time></trkpt><trkpt lat="42.1300667" lon="11.953445"><ele>261.5</ele><time>2026-04-04T09:16:54.119Z</time></trkpt><trkpt lat="42.1301683" lon="11.9533367"><ele>263.0</ele><time>2026-04-04T09:16:55.118Z</time></trkpt><trkpt lat="42.1302683" lon="11.9532267"><ele>264.5</ele><time>2026-04-04T09:16:56.115Z</time></trkpt><trkpt lat="42.1303633" lon="11.9531183"><ele>266.0</ele><time>2026-04-04T09:16:57.11Z</time></trkpt><trkpt lat="42.1304517" lon="11.9530067"><ele>266.0</ele><time>2026-04-04T09:16:58.117Z</time></trkpt><trkpt lat="42.13053" lon="11.9528967"><ele>266.0</ele><time>2026-04-04T09:16:59.115Z</time></trkpt><trkpt lat="42.1305883" lon="11.952775"><ele>266.0</ele><time>2026-04-04T09:17:00.115Z</time></trkpt><trkpt lat="42.1306333" lon="11.9526283"><ele>266.0</ele><time>2026-04-04T09:17:01.121Z</time></trkpt><trkpt lat="42.1306683" lon="11.9524983"><ele>266.0</ele><time>2026-04-04T09:17:02.117Z</time></trkpt><trkpt lat="42.1306767" lon="11.9523317"><ele>265.0</ele><time>2026-04-04T09:17:03.114Z</time></trkpt><trkpt lat="42.1306733" lon="11.95216"><ele>264.0</ele><time>2026-04-04T09:17:04.114Z</time></trkpt><trkpt lat="42.130655" lon="11.9519917"><ele>263.0</ele><time>2026-04-04T09:17:05.117Z</time></trkpt><trkpt lat="42.1306233" lon="11.9518183"><ele>262.0</ele><time>2026-04-04T09:17:06.118Z</time></trkpt><trkpt lat="42.1305817" lon="11.9516483"><ele>262.0</ele><time>2026-04-04T09:17:07.118Z</time></trkpt><trkpt lat="42.1305133" lon="11.951465"><ele>262.0</ele><time>2026-04-04T09:17:08.116Z</time></trkpt><trkpt lat="42.1304817" lon="11.951295"><ele>262.0</ele><time>2026-04-04T09:17:09.117Z</time></trkpt><trkpt lat="42.1304617" lon="11.9511217"><ele>262.0</ele><time>2026-04-04T09:17:10.117Z</time></trkpt><trkpt lat="42.1304633" lon="11.9509533"><ele>260.75</ele><time>2026-04-04T09:17:11.116Z</time></trkpt><trkpt lat="42.130495" lon="11.9507867"><ele>259.5</ele><time>2026-04-04T09:17:12.115Z</time></trkpt><trkpt lat="42.1305517" lon="11.9506217"><ele>258.25</ele><time>2026-04-04T09:17:13.116Z</time></trkpt><trkpt lat="42.13063" lon="11.9504717"><ele>257.0</ele><time>2026-04-04T09:17:14.116Z</time></trkpt><trkpt lat="42.1307217" lon="11.950335"><ele>255.5</ele><time>2026-04-04T09:17:15.118Z</time></trkpt><trkpt lat="42.1308267" lon="11.9502117"><ele>254.0</ele><time>2026-04-04T09:17:16.118Z</time></trkpt><trkpt lat="42.130945" lon="11.9500883"><ele>252.5</ele><time>2026-04-04T09:17:17.116Z</time></trkpt><trkpt lat="42.13107" lon="11.9499533"><ele>251.0</ele><time>2026-04-04T09:17:18.115Z</time></trkpt><trkpt lat="42.1312" lon="11.9497983"><ele>250.66666666666669</ele><time>2026-04-04T09:17:19.118Z</time></trkpt><trkpt lat="42.131335" lon="11.9496483"><ele>250.33333333333331</ele><time>2026-04-04T09:17:20.117Z</time></trkpt><trkpt lat="42.131465" lon="11.9495033"><ele>250.0</ele><time>2026-04-04T09:17:21.117Z</time></trkpt><trkpt lat="42.1315917" lon="11.9493683"><ele>249.66666666666666</ele><time>2026-04-04T09:17:22.119Z</time></trkpt><trkpt lat="42.1317167" lon="11.9492467"><ele>249.33333333333331</ele><time>2026-04-04T09:17:23.115Z</time></trkpt><trkpt lat="42.13184" lon="11.94912"><ele>249.0</ele><time>2026-04-04T09:17:24.114Z</time></trkpt><trkpt lat="42.13196" lon="11.9489833"><ele>248.66666666666669</ele><time>2026-04-04T09:17:25.12Z</time></trkpt><trkpt lat="42.1320733" lon="11.9488367"><ele>248.33333333333334</ele><time>2026-04-04T09:17:26.113Z</time></trkpt><trkpt lat="42.132185" lon="11.948685"><ele>248.0</ele><time>2026-04-04T09:17:27.118Z</time></trkpt><trkpt lat="42.1322917" lon="11.9485283"><ele>249.33333333333334</ele><time>2026-04-04T09:17:28.115Z</time></trkpt><trkpt lat="42.132395" lon="11.9483683"><ele>250.66666666666669</ele><time>2026-04-04T09:17:29.117Z</time></trkpt><trkpt lat="42.132495" lon="11.948205"><ele>252.0</ele><time>2026-04-04T09:17:30.114Z</time></trkpt><trkpt lat="42.1325933" lon="11.9480467"><ele>252.0</ele><time>2026-04-04T09:17:31.115Z</time></trkpt><trkpt lat="42.13269" lon="11.9478917"><ele>252.0</ele><time>2026-04-04T09:17:32.118Z</time></trkpt><trkpt lat="42.1327783" lon="11.94773"><ele>252.0</ele><time>2026-04-04T09:17:33.114Z</time></trkpt><trkpt lat="42.132865" lon="11.9475817"><ele>252.0</ele><time>2026-04-04T09:17:34.117Z</time></trkpt><trkpt lat="42.13294" lon="11.947445"><ele>253.2</ele><time>2026-04-04T09:17:35.119Z</time></trkpt><trkpt lat="42.1330167" lon="11.947325"><ele>254.39999999999998</ele><time>2026-04-04T09:17:36.117Z</time></trkpt><trkpt lat="42.1331017" lon="11.947235"><ele>255.60000000000002</ele><time>2026-04-04T09:17:37.115Z</time></trkpt><trkpt lat="42.1331933" lon="11.94717"><ele>256.8</ele><time>2026-04-04T09:17:38.117Z</time></trkpt><trkpt lat="42.1332867" lon="11.9471217"><ele>258.0</ele><time>2026-04-04T09:17:39.115Z</time></trkpt><trkpt lat="42.1333883" lon="11.9470967"><ele>258.5</ele><time>2026-04-04T09:17:40.119Z</time></trkpt><trkpt lat="42.1335" lon="11.9470933"><ele>259.0</ele><time>2026-04-04T09:17:41.118Z</time></trkpt><trkpt lat="42.1336183" lon="11.947105"><ele>259.5</ele><time>2026-04-04T09:17:42.117Z</time></trkpt><trkpt lat="42.1337367" lon="11.9471317"><ele>260.0</ele><time>2026-04-04T09:17:43.118Z</time></trkpt><trkpt lat="42.13386" lon="11.9471767"><ele>260.0</ele><time>2026-04-04T09:17:44.118Z</time></trkpt><trkpt lat="42.1339867" lon="11.947235"><ele>260.0</ele><time>2026-04-04T09:17:45.118Z</time></trkpt><trkpt lat="42.1341117" lon="11.9473033"><ele>260.0</ele><time>2026-04-04T09:17:46.116Z</time></trkpt><trkpt lat="42.1342283" lon="11.9473933"><ele>260.0</ele><time>2026-04-04T09:17:47.117Z</time></trkpt><trkpt lat="42.13434" lon="11.9474967"><ele>259.5</ele><time>2026-04-04T09:17:48.119Z</time></trkpt><trkpt lat="42.1344617" lon="11.9475933"><ele>259.0</ele><time>2026-04-04T09:17:49.121Z</time></trkpt><trkpt lat="42.1345783" lon="11.9476983"><ele>258.5</ele><time>2026-04-04T09:17:50.118Z</time></trkpt><trkpt lat="42.134685" lon="11.9478183"><ele>258.0</ele><time>2026-04-04T09:17:51.114Z</time></trkpt><trkpt lat="42.13479" lon="11.947945"><ele>259.0</ele><time>2026-04-04T09:17:52.116Z</time></trkpt><trkpt lat="42.1348933" lon="11.94808"><ele>260.0</ele><time>2026-04-04T09:17:53.116Z</time></trkpt><trkpt lat="42.1349867" lon="11.9482283"><ele>261.0</ele><time>2026-04-04T09:17:54.117Z</time></trkpt><trkpt lat="42.13507" lon="11.9483783"><ele>262.0</ele><time>2026-04-04T09:17:55.116Z</time></trkpt><trkpt lat="42.13515" lon="11.948535"><ele>262.0</ele><time>2026-04-04T09:17:56.115Z</time></trkpt><trkpt lat="42.1352283" lon="11.94869"><ele>262.0</ele><time>2026-04-04T09:17:57.117Z</time></trkpt><trkpt lat="42.135315" lon="11.9488333"><ele>262.0</ele><time>2026-04-04T09:17:58.116Z</time></trkpt><trkpt lat="42.1353983" lon="11.94898"><ele>262.0</ele><time>2026-04-04T09:17:59.116Z</time></trkpt><trkpt lat="42.1354767" lon="11.9491183"><ele>259.75</ele><time>2026-04-04T09:18:00.116Z</time></trkpt><trkpt lat="42.135565" lon="11.949245"><ele>257.5</ele><time>2026-04-04T09:18:01.118Z</time></trkpt><trkpt lat="42.13565" lon="11.9493567"><ele>255.25</ele><time>2026-04-04T09:18:02.113Z</time></trkpt><trkpt lat="42.1357383" lon="11.9494467"><ele>253.0</ele><time>2026-04-04T09:18:03.118Z</time></trkpt><trkpt lat="42.1358283" lon="11.9495083"><ele>255.99999999999997</ele><time>2026-04-04T09:18:04.115Z</time></trkpt><trkpt lat="42.1359133" lon="11.94955"><ele>259.0</ele><time>2026-04-04T09:18:05.117Z</time></trkpt><trkpt lat="42.136" lon="11.9495667"><ele>262.0</ele><time>2026-04-04T09:18:06.119Z</time></trkpt><trkpt lat="42.136075" lon="11.9495683"><ele>265.0</ele><time>2026-04-04T09:18:07.118Z</time></trkpt><trkpt lat="42.136155" lon="11.94955"><ele>268.0</ele><time>2026-04-04T09:18:08.117Z</time></trkpt><trkpt lat="42.1362333" lon="11.9495167"><ele>271.0</ele><time>2026-04-04T09:18:09.116Z</time></trkpt><trkpt lat="42.1363083" lon="11.9494683"><ele>271.0</ele><time>2026-04-04T09:18:10.114Z</time></trkpt><trkpt lat="42.1363567" lon="11.94939"><ele>271.0</ele><time>2026-04-04T09:18:11.118Z</time></trkpt><trkpt lat="42.1363833" lon="11.9492717"><ele>271.0</ele><time>2026-04-04T09:18:12.115Z</time></trkpt><trkpt lat="42.136415" lon="11.949165"><ele>271.0</ele><time>2026-04-04T09:18:13.117Z</time></trkpt><trkpt lat="42.136425" lon="11.949025"><ele>271.0</ele><time>2026-04-04T09:18:14.117Z</time></trkpt><trkpt lat="42.13643" lon="11.9488883"><ele>273.6</ele><time>2026-04-04T09:18:15.114Z</time></trkpt><trkpt lat="42.1364233" lon="11.9487283"><ele>276.20000000000005</ele><time>2026-04-04T09:18:16.119Z</time></trkpt><trkpt lat="42.1364083" lon="11.94857"><ele>278.79999999999995</ele><time>2026-04-04T09:18:17.113Z</time></trkpt><trkpt lat="42.136395" lon="11.94843"><ele>281.4</ele><time>2026-04-04T09:18:18.117Z</time></trkpt><trkpt lat="42.1363783" lon="11.94829"><ele>284.0</ele><time>2026-04-04T09:18:19.116Z</time></trkpt><trkpt lat="42.1363533" lon="11.948165"><ele>286.2</ele><time>2026-04-04T09:18:20.116Z</time></trkpt><trkpt lat="42.136325" lon="11.948025"><ele>288.4</ele><time>2026-04-04T09:18:21.118Z</time></trkpt><trkpt lat="42.1362883" lon="11.9479017"><ele>290.6</ele><time>2026-04-04T09:18:22.114Z</time></trkpt><trkpt lat="42.1362633" lon="11.9477817"><ele>292.8</ele><time>2026-04-04T09:18:23.115Z</time></trkpt><trkpt lat="42.1362567" lon="11.9476567"><ele>295.0</ele><time>2026-04-04T09:18:24.114Z</time></trkpt><trkpt lat="42.13627" lon="11.9475083"><ele>295.4</ele><time>2026-04-04T09:18:25.117Z</time></trkpt><trkpt lat="42.1362967" lon="11.9473767"><ele>295.8</ele><time>2026-04-04T09:18:26.118Z</time></trkpt><trkpt lat="42.1363367" lon="11.9472467"><ele>296.2</ele><time>2026-04-04T09:18:27.118Z</time></trkpt><trkpt lat="42.1363883" lon="11.94713"><ele>296.6</ele><time>2026-04-04T09:18:28.114Z</time></trkpt><trkpt lat="42.13646" lon="11.94704"><ele>297.0</ele><time>2026-04-04T09:18:29.117Z</time></trkpt><trkpt lat="42.1365367" lon="11.94695"><ele>296.4</ele><time>2026-04-04T09:18:30.116Z</time></trkpt><trkpt lat="42.1366217" lon="11.9468717"><ele>295.79999999999995</ele><time>2026-04-04T09:18:31.117Z</time></trkpt><trkpt lat="42.1367133" lon="11.94681"><ele>295.2</ele><time>2026-04-04T09:18:32.109Z</time></trkpt><trkpt lat="42.13682" lon="11.94673"><ele>294.59999999999997</ele><time>2026-04-04T09:18:33.109Z</time></trkpt><trkpt lat="42.136925" lon="11.9466617"><ele>294.0</ele><time>2026-04-04T09:18:34.109Z</time></trkpt><trkpt lat="42.13702" lon="11.946605"><ele>297.75</ele><time>2026-04-04T09:18:35.113Z</time></trkpt><trkpt lat="42.1371517" lon="11.946585"><ele>301.5</ele><time>2026-04-04T09:18:36.117Z</time></trkpt><trkpt lat="42.13725" lon="11.9465317"><ele>305.25</ele><time>2026-04-04T09:18:37.117Z</time></trkpt><trkpt lat="42.137355" lon="11.9464983"><ele>309.0</ele><time>2026-04-04T09:18:38.115Z</time></trkpt><trkpt lat="42.13747" lon="11.9464883"><ele>309.0</ele><time>2026-04-04T09:18:39.109Z</time></trkpt><trkpt lat="42.1375933" lon="11.94648"><ele>309.0</ele><time>2026-04-04T09:18:40.115Z</time></trkpt><trkpt lat="42.13771" lon="11.946455"><ele>309.0</ele><time>2026-04-04T09:18:41.12Z</time></trkpt><trkpt lat="42.137825" lon="11.946425"><ele>309.0</ele><time>2026-04-04T09:18:42.116Z</time></trkpt><trkpt lat="42.1379367" lon="11.946395"><ele>309.0</ele><time>2026-04-04T09:18:43.116Z</time></trkpt><trkpt lat="42.1380417" lon="11.946355"><ele>309.0</ele><time>2026-04-04T09:18:44.118Z</time></trkpt><trkpt lat="42.1381517" lon="11.946295"><ele>309.0</ele><time>2026-04-04T09:18:45.114Z</time></trkpt><trkpt lat="42.1382567" lon="11.9462183"><ele>309.0</ele><time>2026-04-04T09:18:46.113Z</time></trkpt><trkpt lat="42.1383633" lon="11.946135"><ele>309.0</ele><time>2026-04-04T09:18:47.115Z</time></trkpt><trkpt lat="42.1384833" lon="11.9460483"><ele>309.0</ele><time>2026-04-04T09:18:48.119Z</time></trkpt><trkpt lat="42.1386083" lon="11.945965"><ele>309.0</ele><time>2026-04-04T09:18:49.117Z</time></trkpt><trkpt lat="42.1387183" lon="11.9458733"><ele>309.0</ele><time>2026-04-04T09:18:50.111Z</time></trkpt><trkpt lat="42.1388167" lon="11.9457917"><ele>310.2</ele><time>2026-04-04T09:18:51.11Z</time></trkpt><trkpt lat="42.1388983" lon="11.94571"><ele>311.4</ele><time>2026-04-04T09:18:52.118Z</time></trkpt><trkpt lat="42.138975" lon="11.94563"><ele>312.6</ele><time>2026-04-04T09:18:53.118Z</time></trkpt><trkpt lat="42.13903" lon="11.9455283"><ele>313.8</ele><time>2026-04-04T09:18:54.118Z</time></trkpt><trkpt lat="42.1390817" lon="11.9454067"><ele>315.0</ele><time>2026-04-04T09:18:55.118Z</time></trkpt><trkpt lat="42.1390933" lon="11.9452583"><ele>315.0</ele><time>2026-04-04T09:18:56.115Z</time></trkpt><trkpt lat="42.13911" lon="11.9451067"><ele>315.0</ele><time>2026-04-04T09:18:57.119Z</time></trkpt><trkpt lat="42.1391217" lon="11.9449483"><ele>315.0</ele><time>2026-04-04T09:18:58.114Z</time></trkpt><trkpt lat="42.1391383" lon="11.9447967"><ele>315.0</ele><time>2026-04-04T09:18:59.117Z</time></trkpt><trkpt lat="42.1391633" lon="11.9446433"><ele>318.5</ele><time>2026-04-04T09:19:00.115Z</time></trkpt><trkpt lat="42.1392083" lon="11.94449"><ele>322.0</ele><time>2026-04-04T09:19:01.114Z</time></trkpt><trkpt lat="42.1392617" lon="11.944355"><ele>325.5</ele><time>2026-04-04T09:19:02.117Z</time></trkpt><trkpt lat="42.1393317" lon="11.9442317"><ele>329.0</ele><time>2026-04-04T09:19:03.117Z</time></trkpt><trkpt lat="42.1394217" lon="11.944145"><ele>329.4</ele><time>2026-04-04T09:19:04.118Z</time></trkpt><trkpt lat="42.139515" lon="11.9440917"><ele>329.79999999999995</ele><time>2026-04-04T09:19:05.109Z</time></trkpt><trkpt lat="42.1396267" lon="11.944085"><ele>330.20000000000005</ele><time>2026-04-04T09:19:06.112Z</time></trkpt><trkpt lat="42.139735" lon="11.94408"><ele>330.6</ele><time>2026-04-04T09:19:07.115Z</time></trkpt><trkpt lat="42.13983" lon="11.9440783"><ele>331.0</ele><time>2026-04-04T09:19:08.118Z</time></trkpt><trkpt lat="42.1399167" lon="11.944065"><ele>331.0</ele><time>2026-04-04T09:19:09.115Z</time></trkpt><trkpt lat="42.1400017" lon="11.94403"><ele>331.0</ele><time>2026-04-04T09:19:10.117Z</time></trkpt><trkpt lat="42.1400817" lon="11.9439867"><ele>331.0</ele><time>2026-04-04T09:19:11.114Z</time></trkpt><trkpt lat="42.14017" lon="11.943855"><ele>331.0</ele><time>2026-04-04T09:19:13.115Z</time></trkpt><trkpt lat="42.1402133" lon="11.9437283"><ele>331.0</ele><time>2026-04-04T09:19:14.114Z</time></trkpt><trkpt lat="42.1402633" lon="11.9436067"><ele>331.0</ele><time>2026-04-04T09:19:15.119Z</time></trkpt><trkpt lat="42.1402567" lon="11.9434083"><ele>331.0</ele><time>2026-04-04T09:19:16.119Z</time></trkpt><trkpt lat="42.14026" lon="11.9432217"><ele>331.0</ele><time>2026-04-04T09:19:17.115Z</time></trkpt><trkpt lat="42.14027" lon="11.9430317"><ele>331.0</ele><time>2026-04-04T09:19:18.117Z</time></trkpt><trkpt lat="42.1402783" lon="11.942825"><ele>332.66666666666663</ele><time>2026-04-04T09:19:19.118Z</time></trkpt><trkpt lat="42.140295" lon="11.9426233"><ele>334.3333333333333</ele><time>2026-04-04T09:19:20.116Z</time></trkpt><trkpt lat="42.1403067" lon="11.9424167"><ele>336.0</ele><time>2026-04-04T09:19:21.117Z</time></trkpt><trkpt lat="42.1403233" lon="11.94221"><ele>336.0</ele><time>2026-04-04T09:19:22.116Z</time></trkpt><trkpt lat="42.1403317" lon="11.942"><ele>336.0</ele><time>2026-04-04T09:19:23.118Z</time></trkpt><trkpt lat="42.1403467" lon="11.9417833"><ele>336.0</ele><time>2026-04-04T09:19:24.115Z</time></trkpt><trkpt lat="42.14036" lon="11.9415733"><ele>335.0</ele><time>2026-04-04T09:19:25.119Z</time></trkpt><trkpt lat="42.1403683" lon="11.94137"><ele>334.0</ele><time>2026-04-04T09:19:26.118Z</time></trkpt><trkpt lat="42.1403817" lon="11.941175"><ele>333.0</ele><time>2026-04-04T09:19:27.118Z</time></trkpt><trkpt lat="42.1403883" lon="11.94097"><ele>332.0</ele><time>2026-04-04T09:19:28.113Z</time></trkpt><trkpt lat="42.1404033" lon="11.9407633"><ele>331.6666666666667</ele><time>2026-04-04T09:19:29.117Z</time></trkpt><trkpt lat="42.140425" lon="11.94056"><ele>331.3333333333333</ele><time>2026-04-04T09:19:30.119Z</time></trkpt><trkpt lat="42.1404517" lon="11.9403133"><ele>331.0</ele><time>2026-04-04T09:19:31.118Z</time></trkpt><trkpt lat="42.1404767" lon="11.9400933"><ele>331.0</ele><time>2026-04-04T09:19:32.117Z</time></trkpt><trkpt lat="42.1405233" lon="11.9398817"><ele>331.0</ele><time>2026-04-04T09:19:33.119Z</time></trkpt><trkpt lat="42.1405683" lon="11.9396483"><ele>331.0</ele><time>2026-04-04T09:19:34.113Z</time></trkpt><trkpt lat="42.1406117" lon="11.9394167"><ele>330.3333333333333</ele><time>2026-04-04T09:19:35.118Z</time></trkpt><trkpt lat="42.1406633" lon="11.9391867"><ele>329.6666666666667</ele><time>2026-04-04T09:19:36.118Z</time></trkpt><trkpt lat="42.140715" lon="11.9389633"><ele>329.0</ele><time>2026-04-04T09:19:37.117Z</time></trkpt><trkpt lat="42.14077" lon="11.938735"><ele>328.6666666666667</ele><time>2026-04-04T09:19:38.114Z</time></trkpt><trkpt lat="42.1408283" lon="11.93851"><ele>328.3333333333333</ele><time>2026-04-04T09:19:39.118Z</time></trkpt><trkpt lat="42.1408817" lon="11.93828"><ele>328.0</ele><time>2026-04-04T09:19:40.118Z</time></trkpt><trkpt lat="42.140935" lon="11.9380517"><ele>328.0</ele><time>2026-04-04T09:19:41.117Z</time></trkpt><trkpt lat="42.1409833" lon="11.9378267"><ele>328.0</ele><time>2026-04-04T09:19:42.117Z</time></trkpt><trkpt lat="42.1410367" lon="11.9376033"><ele>328.0</ele><time>2026-04-04T09:19:43.114Z</time></trkpt><trkpt lat="42.1410933" lon="11.9373783"><ele>329.3333333333333</ele><time>2026-04-04T09:19:44.116Z</time></trkpt><trkpt lat="42.1411433" lon="11.9371517"><ele>330.6666666666667</ele><time>2026-04-04T09:19:45.115Z</time></trkpt><trkpt lat="42.1411917" lon="11.9369367"><ele>332.0</ele><time>2026-04-04T09:19:46.117Z</time></trkpt><trkpt lat="42.1412467" lon="11.9367267"><ele>332.33333333333337</ele><time>2026-04-04T09:19:47.116Z</time></trkpt><trkpt lat="42.1412983" lon="11.9365183"><ele>332.6666666666667</ele><time>2026-04-04T09:19:48.117Z</time></trkpt><trkpt lat="42.1413467" lon="11.936305"><ele>333.0</ele><time>2026-04-04T09:19:49.115Z</time></trkpt><trkpt lat="42.14139" lon="11.9360817"><ele>335.0</ele><time>2026-04-04T09:19:50.118Z</time></trkpt><trkpt lat="42.141435" lon="11.9358667"><ele>337.0</ele><time>2026-04-04T09:19:51.121Z</time></trkpt><trkpt lat="42.1414667" lon="11.93564"><ele>339.0</ele><time>2026-04-04T09:19:52.117Z</time></trkpt><trkpt lat="42.1414933" lon="11.9354067"><ele>339.0</ele><time>2026-04-04T09:19:53.116Z</time></trkpt><trkpt lat="42.1415117" lon="11.93516"><ele>339.0</ele><time>2026-04-04T09:19:54.117Z</time></trkpt><trkpt lat="42.141525" lon="11.9349133"><ele>339.0</ele><time>2026-04-04T09:19:55.116Z</time></trkpt><trkpt lat="42.1415367" lon="11.9346717"><ele>337.6666666666667</ele><time>2026-04-04T09:19:56.117Z</time></trkpt><trkpt lat="42.1415517" lon="11.93444"><ele>336.33333333333337</ele><time>2026-04-04T09:19:57.118Z</time></trkpt><trkpt lat="42.1415683" lon="11.934215"><ele>335.0</ele><time>2026-04-04T09:19:58.116Z</time></trkpt><trkpt lat="42.1415883" lon="11.9339933"><ele>335.0</ele><time>2026-04-04T09:19:59.117Z</time></trkpt><trkpt lat="42.141615" lon="11.93377"><ele>335.0</ele><time>2026-04-04T09:20:00.116Z</time></trkpt><trkpt lat="42.1416383" lon="11.9335517"><ele>335.0</ele><time>2026-04-04T09:20:01.115Z</time></trkpt><trkpt lat="42.141655" lon="11.9333367"><ele>336.0</ele><time>2026-04-04T09:20:02.119Z</time></trkpt><trkpt lat="42.1416683" lon="11.9331367"><ele>337.0</ele><time>2026-04-04T09:20:03.116Z</time></trkpt><trkpt lat="42.141695" lon="11.932945"><ele>338.0</ele><time>2026-04-04T09:20:04.118Z</time></trkpt><trkpt lat="42.1417133" lon="11.9327467"><ele>339.0</ele><time>2026-04-04T09:20:05.116Z</time></trkpt><trkpt lat="42.141715" lon="11.932545"><ele>339.3333333333333</ele><time>2026-04-04T09:20:06.115Z</time></trkpt><trkpt lat="42.1416983" lon="11.9323467"><ele>339.66666666666663</ele><time>2026-04-04T09:20:07.118Z</time></trkpt><trkpt lat="42.1416633" lon="11.9321483"><ele>340.0</ele><time>2026-04-04T09:20:08.117Z</time></trkpt><trkpt lat="42.1416167" lon="11.9319517"><ele>340.0</ele><time>2026-04-04T09:20:09.117Z</time></trkpt><trkpt lat="42.14157" lon="11.93176"><ele>340.0</ele><time>2026-04-04T09:20:10.118Z</time></trkpt><trkpt lat="42.1415217" lon="11.931575"><ele>340.0</ele><time>2026-04-04T09:20:11.109Z</time></trkpt><trkpt lat="42.1414867" lon="11.9314017"><ele>340.0</ele><time>2026-04-04T09:20:12.116Z</time></trkpt><trkpt lat="42.141465" lon="11.931245"><ele>341.5</ele><time>2026-04-04T09:20:13.115Z</time></trkpt><trkpt lat="42.1414517" lon="11.9310883"><ele>343.0</ele><time>2026-04-04T09:20:14.114Z</time></trkpt><trkpt lat="42.14147" lon="11.9309417"><ele>344.5</ele><time>2026-04-04T09:20:15.118Z</time></trkpt><trkpt lat="42.1415183" lon="11.9307983"><ele>346.0</ele><time>2026-04-04T09:20:16.114Z</time></trkpt><trkpt lat="42.141575" lon="11.930655"><ele>346.0</ele><time>2026-04-04T09:20:17.114Z</time></trkpt><trkpt lat="42.14164" lon="11.9304967"><ele>346.0</ele><time>2026-04-04T09:20:18.116Z</time></trkpt><trkpt lat="42.1416983" lon="11.9303233"><ele>346.0</ele><time>2026-04-04T09:20:19.117Z</time></trkpt><trkpt lat="42.1417433" lon="11.9301517"><ele>346.0</ele><time>2026-04-04T09:20:20.118Z</time></trkpt><trkpt lat="42.1417667" lon="11.929975"><ele>348.0</ele><time>2026-04-04T09:20:21.117Z</time></trkpt><trkpt lat="42.1417783" lon="11.9297917"><ele>350.0</ele><time>2026-04-04T09:20:22.119Z</time></trkpt><trkpt lat="42.1417733" lon="11.9296133"><ele>352.0</ele><time>2026-04-04T09:20:23.115Z</time></trkpt><trkpt lat="42.1417617" lon="11.9294283"><ele>354.0</ele><time>2026-04-04T09:20:24.114Z</time></trkpt><trkpt lat="42.1417467" lon="11.92925"><ele>354.0</ele><time>2026-04-04T09:20:25.12Z</time></trkpt><trkpt lat="42.1417417" lon="11.9290667"><ele>354.0</ele><time>2026-04-04T09:20:26.116Z</time></trkpt><trkpt lat="42.1417433" lon="11.9288583"><ele>354.0</ele><time>2026-04-04T09:20:27.117Z</time></trkpt><trkpt lat="42.1417367" lon="11.9286467"><ele>354.0</ele><time>2026-04-04T09:20:28.117Z</time></trkpt><trkpt lat="42.1417283" lon="11.9284333"><ele>354.0</ele><time>2026-04-04T09:20:29.11Z</time></trkpt><trkpt lat="42.1417233" lon="11.9282083"><ele>354.0</ele><time>2026-04-04T09:20:30.117Z</time></trkpt><trkpt lat="42.1417183" lon="11.9279767"><ele>354.0</ele><time>2026-04-04T09:20:31.117Z</time></trkpt><trkpt lat="42.14171" lon="11.9277467"><ele>354.6666666666667</ele><time>2026-04-04T09:20:32.115Z</time></trkpt><trkpt lat="42.1417" lon="11.9275167"><ele>355.33333333333337</ele><time>2026-04-04T09:20:33.116Z</time></trkpt><trkpt lat="42.1416917" lon="11.9272867"><ele>356.0</ele><time>2026-04-04T09:20:34.114Z</time></trkpt><trkpt lat="42.14169" lon="11.9270583"><ele>356.0</ele><time>2026-04-04T09:20:35.115Z</time></trkpt><trkpt lat="42.1416783" lon="11.9268333"><ele>356.0</ele><time>2026-04-04T09:20:36.111Z</time></trkpt><trkpt lat="42.1416633" lon="11.9266167"><ele>356.0</ele><time>2026-04-04T09:20:37.115Z</time></trkpt><trkpt lat="42.1416583" lon="11.92642"><ele>356.0</ele><time>2026-04-04T09:20:38.113Z</time></trkpt><trkpt lat="42.1416467" lon="11.9262283"><ele>356.0</ele><time>2026-04-04T09:20:39.112Z</time></trkpt><trkpt lat="42.141645" lon="11.926055"><ele>356.0</ele><time>2026-04-04T09:20:40.114Z</time></trkpt><trkpt lat="42.1416533" lon="11.9258867"><ele>356.0</ele><time>2026-04-04T09:20:41.114Z</time></trkpt><trkpt lat="42.1416783" lon="11.9257233"><ele>356.25</ele><time>2026-04-04T09:20:42.114Z</time></trkpt><trkpt lat="42.1417283" lon="11.9255633"><ele>356.5</ele><time>2026-04-04T09:20:43.116Z</time></trkpt><trkpt lat="42.1417883" lon="11.9254"><ele>356.75</ele><time>2026-04-04T09:20:44.116Z</time></trkpt><trkpt lat="42.1418567" lon="11.9252283"><ele>357.0</ele><time>2026-04-04T09:20:45.116Z</time></trkpt><trkpt lat="42.1419333" lon="11.925055"><ele>360.25</ele><time>2026-04-04T09:20:46.117Z</time></trkpt><trkpt lat="42.1420117" lon="11.9248767"><ele>363.5</ele><time>2026-04-04T09:20:47.116Z</time></trkpt><trkpt lat="42.1420983" lon="11.9247117"><ele>366.75</ele><time>2026-04-04T09:20:48.117Z</time></trkpt><trkpt lat="42.1422017" lon="11.9245767"><ele>370.0</ele><time>2026-04-04T09:20:49.118Z</time></trkpt><trkpt lat="42.1422983" lon="11.9244417"><ele>368.5</ele><time>2026-04-04T09:20:50.114Z</time></trkpt><trkpt lat="42.1423817" lon="11.9243117"><ele>367.0</ele><time>2026-04-04T09:20:51.117Z</time></trkpt><trkpt lat="42.142455" lon="11.9241817"><ele>365.5</ele><time>2026-04-04T09:20:52.114Z</time></trkpt><trkpt lat="42.1425183" lon="11.92404"><ele>364.0</ele><time>2026-04-04T09:20:53.115Z</time></trkpt><trkpt lat="42.14256" lon="11.9238833"><ele>364.0</ele><time>2026-04-04T09:20:54.116Z</time></trkpt><trkpt lat="42.1425833" lon="11.9237217"><ele>364.0</ele><time>2026-04-04T09:20:55.117Z</time></trkpt><trkpt lat="42.1425967" lon="11.92357"><ele>364.0</ele><time>2026-04-04T09:20:56.115Z</time></trkpt><trkpt lat="42.1426117" lon="11.923435"><ele>364.0</ele><time>2026-04-04T09:20:57.117Z</time></trkpt><trkpt lat="42.1426267" lon="11.92331"><ele>364.0</ele><time>2026-04-04T09:20:58.118Z</time></trkpt><trkpt lat="42.14266" lon="11.9232"><ele>365.16666666666663</ele><time>2026-04-04T09:20:59.115Z</time></trkpt><trkpt lat="42.1427117" lon="11.923125"><ele>366.3333333333333</ele><time>2026-04-04T09:21:00.114Z</time></trkpt><trkpt lat="42.14278" lon="11.9230617"><ele>367.5</ele><time>2026-04-04T09:21:01.116Z</time></trkpt><trkpt lat="42.14285" lon="11.92302"><ele>368.6666666666667</ele><time>2026-04-04T09:21:02.115Z</time></trkpt><trkpt lat="42.1429167" lon="11.9229967"><ele>369.83333333333337</ele><time>2026-04-04T09:21:03.115Z</time></trkpt><trkpt lat="42.14299" lon="11.9230017"><ele>371.0</ele><time>2026-04-04T09:21:04.118Z</time></trkpt><trkpt lat="42.1430933" lon="11.9230233"><ele>371.0</ele><time>2026-04-04T09:21:05.114Z</time></trkpt><trkpt lat="42.1432117" lon="11.9230333"><ele>371.0</ele><time>2026-04-04T09:21:06.115Z</time></trkpt><trkpt lat="42.1433183" lon="11.9230683"><ele>371.0</ele><time>2026-04-04T09:21:07.117Z</time></trkpt><trkpt lat="42.14341" lon="11.923105"><ele>371.0</ele><time>2026-04-04T09:21:08.114Z</time></trkpt><trkpt lat="42.1434833" lon="11.9231533"><ele>371.0</ele><time>2026-04-04T09:21:09.117Z</time></trkpt><trkpt lat="42.143505" lon="11.9232717"><ele>370.0</ele><time>2026-04-04T09:21:10.116Z</time></trkpt><trkpt lat="42.1435317" lon="11.923385"><ele>369.0</ele><time>2026-04-04T09:21:11.116Z</time></trkpt><trkpt lat="42.1435517" lon="11.9235083"><ele>368.0</ele><time>2026-04-04T09:21:12.113Z</time></trkpt><trkpt lat="42.1435667" lon="11.92365"><ele>367.0</ele><time>2026-04-04T09:21:13.11Z</time></trkpt><trkpt lat="42.1435817" lon="11.9237883"><ele>366.0</ele><time>2026-04-04T09:21:14.114Z</time></trkpt><trkpt lat="42.1435883" lon="11.9239283"><ele>365.6</ele><time>2026-04-04T09:21:15.116Z</time></trkpt><trkpt lat="42.1436" lon="11.9240733"><ele>365.20000000000005</ele><time>2026-04-04T09:21:16.12Z</time></trkpt><trkpt lat="42.1436167" lon="11.9242183"><ele>364.79999999999995</ele><time>2026-04-04T09:21:17.118Z</time></trkpt><trkpt lat="42.1436283" lon="11.9243683"><ele>364.4</ele><time>2026-04-04T09:21:18.118Z</time></trkpt><trkpt lat="42.143645" lon="11.924515"><ele>364.0</ele><time>2026-04-04T09:21:19.116Z</time></trkpt><trkpt lat="42.1436683" lon="11.92466"><ele>363.79999999999995</ele><time>2026-04-04T09:21:20.116Z</time></trkpt><trkpt lat="42.1436967" lon="11.9248"><ele>363.59999999999997</ele><time>2026-04-04T09:21:21.116Z</time></trkpt><trkpt lat="42.1437267" lon="11.9249267"><ele>363.4</ele><time>2026-04-04T09:21:22.118Z</time></trkpt><trkpt lat="42.143775" lon="11.92504"><ele>363.2</ele><time>2026-04-04T09:21:23.117Z</time></trkpt><trkpt lat="42.1438333" lon="11.9251417"><ele>363.0</ele><time>2026-04-04T09:21:24.117Z</time></trkpt><trkpt lat="42.1439083" lon="11.9252267"><ele>363.0</ele><time>2026-04-04T09:21:25.118Z</time></trkpt><trkpt lat="42.1439883" lon="11.9252883"><ele>363.0</ele><time>2026-04-04T09:21:26.118Z</time></trkpt><trkpt lat="42.1440767" lon="11.9253417"><ele>363.0</ele><time>2026-04-04T09:21:27.121Z</time></trkpt><trkpt lat="42.1441717" lon="11.9253933"><ele>363.0</ele><time>2026-04-04T09:21:28.114Z</time></trkpt><trkpt lat="42.144265" lon="11.92544"><ele>363.0</ele><time>2026-04-04T09:21:29.111Z</time></trkpt><trkpt lat="42.1443483" lon="11.9254767"><ele>365.2857142857143</ele><time>2026-04-04T09:21:30.118Z</time></trkpt><trkpt lat="42.144415" lon="11.9255233"><ele>367.57142857142856</ele><time>2026-04-04T09:21:31.117Z</time></trkpt><trkpt lat="42.14447" lon="11.9255717"><ele>369.8571428571429</ele><time>2026-04-04T09:21:32.112Z</time></trkpt><trkpt lat="42.1445067" lon="11.9256417"><ele>372.1428571428571</ele><time>2026-04-04T09:21:33.115Z</time></trkpt><trkpt lat="42.1445233" lon="11.9257283"><ele>374.42857142857144</ele><time>2026-04-04T09:21:34.115Z</time></trkpt><trkpt lat="42.144535" lon="11.9258167"><ele>376.7142857142857</ele><time>2026-04-04T09:21:35.116Z</time></trkpt><trkpt lat="42.1445217" lon="11.92591"><ele>379.0</ele><time>2026-04-04T09:21:36.115Z</time></trkpt><trkpt lat="42.1444983" lon="11.9260233"><ele>380.79999999999995</ele><time>2026-04-04T09:21:37.11Z</time></trkpt><trkpt lat="42.144445" lon="11.9261417"><ele>382.59999999999997</ele><time>2026-04-04T09:21:38.115Z</time></trkpt><trkpt lat="42.14438" lon="11.9262417"><ele>384.4</ele><time>2026-04-04T09:21:39.118Z</time></trkpt><trkpt lat="42.1443" lon="11.9263333"><ele>386.2</ele><time>2026-04-04T09:21:40.116Z</time></trkpt><trkpt lat="42.1442133" lon="11.9264233"><ele>388.0</ele><time>2026-04-04T09:21:41.115Z</time></trkpt><trkpt lat="42.1441283" lon="11.926525"><ele>388.0</ele><time>2026-04-04T09:21:42.118Z</time></trkpt><trkpt lat="42.1440483" lon="11.9266417"><ele>388.0</ele><time>2026-04-04T09:21:43.117Z</time></trkpt><trkpt lat="42.1439767" lon="11.9267683"><ele>388.0</ele><time>2026-04-04T09:21:44.115Z</time></trkpt><trkpt lat="42.1439217" lon="11.9269067"><ele>388.0</ele><time>2026-04-04T09:21:45.117Z</time></trkpt><trkpt lat="42.143895" lon="11.9270383"><ele>387.4</ele><time>2026-04-04T09:21:46.118Z</time></trkpt><trkpt lat="42.1439017" lon="11.927175"><ele>386.79999999999995</ele><time>2026-04-04T09:21:47.115Z</time></trkpt><trkpt lat="42.1439317" lon="11.927315"><ele>386.2</ele><time>2026-04-04T09:21:48.116Z</time></trkpt><trkpt lat="42.1439783" lon="11.927445"><ele>385.6</ele><time>2026-04-04T09:21:49.116Z</time></trkpt><trkpt lat="42.1440367" lon="11.9275483"><ele>385.0</ele><time>2026-04-04T09:21:50.117Z</time></trkpt><trkpt lat="42.1441067" lon="11.9276267"><ele>385.00000000000006</ele><time>2026-04-04T09:21:51.118Z</time></trkpt><trkpt lat="42.1441867" lon="11.9276917"><ele>385.0</ele><time>2026-04-04T09:21:52.118Z</time></trkpt><trkpt lat="42.1442733" lon="11.9277283"><ele>385.0</ele><time>2026-04-04T09:21:53.114Z</time></trkpt><trkpt lat="42.1443583" lon="11.9277483"><ele>385.0</ele><time>2026-04-04T09:21:54.117Z</time></trkpt><trkpt lat="42.144445" lon="11.927755"><ele>385.00000000000006</ele><time>2026-04-04T09:21:55.118Z</time></trkpt><trkpt lat="42.1445317" lon="11.9277533"><ele>385.0</ele><time>2026-04-04T09:21:56.115Z</time></trkpt><trkpt lat="42.1446267" lon="11.9277417"><ele>385.0</ele><time>2026-04-04T09:21:57.115Z</time></trkpt><trkpt lat="42.1447333" lon="11.9277183"><ele>385.0</ele><time>2026-04-04T09:21:58.117Z</time></trkpt><trkpt lat="42.14484" lon="11.9276767"><ele>385.0</ele><time>2026-04-04T09:21:59.115Z</time></trkpt><trkpt lat="42.1449517" lon="11.927625"><ele>385.0</ele><time>2026-04-04T09:22:00.122Z</time></trkpt><trkpt lat="42.1450583" lon="11.9275633"><ele>389.75</ele><time>2026-04-04T09:22:01.111Z</time></trkpt><trkpt lat="42.1451617" lon="11.9274917"><ele>394.5</ele><time>2026-04-04T09:22:02.118Z</time></trkpt><trkpt lat="42.14526" lon="11.9274017"><ele>399.25</ele><time>2026-04-04T09:22:03.118Z</time></trkpt><trkpt lat="42.1453467" lon="11.9272983"><ele>404.0</ele><time>2026-04-04T09:22:04.118Z</time></trkpt><trkpt lat="42.1454217" lon="11.9272"><ele>404.0</ele><time>2026-04-04T09:22:05.116Z</time></trkpt><trkpt lat="42.1454917" lon="11.9271117"><ele>404.0</ele><time>2026-04-04T09:22:06.116Z</time></trkpt><trkpt lat="42.1455617" lon="11.9270317"><ele>404.0</ele><time>2026-04-04T09:22:07.119Z</time></trkpt><trkpt lat="42.1456283" lon="11.926965"><ele>404.0</ele><time>2026-04-04T09:22:08.117Z</time></trkpt><trkpt lat="42.1457167" lon="11.9269333"><ele>404.0</ele><time>2026-04-04T09:22:09.115Z</time></trkpt><trkpt lat="42.145805" lon="11.9269183"><ele>405.0</ele><time>2026-04-04T09:22:10.114Z</time></trkpt><trkpt lat="42.145875" lon="11.9269267"><ele>406.0</ele><time>2026-04-04T09:22:11.108Z</time></trkpt><trkpt lat="42.1459483" lon="11.9269517"><ele>407.0</ele><time>2026-04-04T09:22:12.114Z</time></trkpt><trkpt lat="42.1460533" lon="11.9270183"><ele>408.0</ele><time>2026-04-04T09:22:13.114Z</time></trkpt><trkpt lat="42.1461683" lon="11.9270883"><ele>409.0</ele><time>2026-04-04T09:22:14.118Z</time></trkpt><trkpt lat="42.1462633" lon="11.92715"><ele>409.0</ele><time>2026-04-04T09:22:15.119Z</time></trkpt><trkpt lat="42.1463417" lon="11.9272133"><ele>409.0</ele><time>2026-04-04T09:22:16.117Z</time></trkpt><trkpt lat="42.14641" lon="11.9272767"><ele>409.0</ele><time>2026-04-04T09:22:17.117Z</time></trkpt><trkpt lat="42.14649" lon="11.92735"><ele>409.0</ele><time>2026-04-04T09:22:18.115Z</time></trkpt><trkpt lat="42.1465817" lon="11.9274317"><ele>409.0</ele><time>2026-04-04T09:22:19.116Z</time></trkpt><trkpt lat="42.146655" lon="11.9275217"><ele>410.2</ele><time>2026-04-04T09:22:20.118Z</time></trkpt><trkpt lat="42.1467383" lon="11.9276133"><ele>411.4</ele><time>2026-04-04T09:22:21.117Z</time></trkpt><trkpt lat="42.1468383" lon="11.9277017"><ele>412.6</ele><time>2026-04-04T09:22:22.119Z</time></trkpt><trkpt lat="42.1469333" lon="11.927785"><ele>413.8</ele><time>2026-04-04T09:22:23.119Z</time></trkpt><trkpt lat="42.1470133" lon="11.9278667"><ele>415.0</ele><time>2026-04-04T09:22:24.117Z</time></trkpt><trkpt lat="42.1470833" lon="11.9279783"><ele>415.0</ele><time>2026-04-04T09:22:25.118Z</time></trkpt><trkpt lat="42.1471333" lon="11.9281233"><ele>415.0</ele><time>2026-04-04T09:22:26.116Z</time></trkpt><trkpt lat="42.1471717" lon="11.928295"><ele>415.0</ele><time>2026-04-04T09:22:27.119Z</time></trkpt><trkpt lat="42.1472133" lon="11.9284733"><ele>415.0</ele><time>2026-04-04T09:22:28.115Z</time></trkpt><trkpt lat="42.1472483" lon="11.9286517"><ele>414.0</ele><time>2026-04-04T09:22:29.116Z</time></trkpt><trkpt lat="42.147285" lon="11.928835"><ele>413.0</ele><time>2026-04-04T09:22:30.118Z</time></trkpt><trkpt lat="42.1473283" lon="11.9290117"><ele>412.0</ele><time>2026-04-04T09:22:31.111Z</time></trkpt><trkpt lat="42.147375" lon="11.929185"><ele>411.0</ele><time>2026-04-04T09:22:32.111Z</time></trkpt><trkpt lat="42.14744" lon="11.9293517"><ele>415.25</ele><time>2026-04-04T09:22:33.121Z</time></trkpt><trkpt lat="42.1475167" lon="11.9295083"><ele>419.5</ele><time>2026-04-04T09:22:34.119Z</time></trkpt><trkpt lat="42.1476017" lon="11.9296617"><ele>423.75</ele><time>2026-04-04T09:22:35.116Z</time></trkpt><trkpt lat="42.1476917" lon="11.9298067"><ele>428.0</ele><time>2026-04-04T09:22:36.117Z</time></trkpt><trkpt lat="42.147775" lon="11.9299567"><ele>429.0</ele><time>2026-04-04T09:22:37.119Z</time></trkpt><trkpt lat="42.147865" lon="11.9301117"><ele>430.0</ele><time>2026-04-04T09:22:38.119Z</time></trkpt><trkpt lat="42.1479533" lon="11.9302683"><ele>431.0</ele><time>2026-04-04T09:22:39.12Z</time></trkpt><trkpt lat="42.1480367" lon="11.9304"><ele>432.0</ele><time>2026-04-04T09:22:40.114Z</time></trkpt><trkpt lat="42.1481067" lon="11.9305233"><ele>432.0</ele><time>2026-04-04T09:22:41.116Z</time></trkpt><trkpt lat="42.1481533" lon="11.9306433"><ele>432.0</ele><time>2026-04-04T09:22:42.115Z</time></trkpt><trkpt lat="42.14819" lon="11.9307483"><ele>432.0</ele><time>2026-04-04T09:22:43.119Z</time></trkpt><trkpt lat="42.1482133" lon="11.9308483"><ele>432.0</ele><time>2026-04-04T09:22:44.117Z</time></trkpt><trkpt lat="42.14821" lon="11.9309417"><ele>432.0</ele><time>2026-04-04T09:22:45.119Z</time></trkpt><trkpt lat="42.1481817" lon="11.93105"><ele>432.0</ele><time>2026-04-04T09:22:46.118Z</time></trkpt><trkpt lat="42.1481383" lon="11.931185"><ele>431.75</ele><time>2026-04-04T09:22:47.113Z</time></trkpt><trkpt lat="42.1480983" lon="11.931345"><ele>431.5</ele><time>2026-04-04T09:22:48.113Z</time></trkpt><trkpt lat="42.1480767" lon="11.9315233"><ele>431.25</ele><time>2026-04-04T09:22:49.114Z</time></trkpt><trkpt lat="42.1480683" lon="11.9317183"><ele>431.0</ele><time>2026-04-04T09:22:50.117Z</time></trkpt><trkpt lat="42.1480767" lon="11.9319"><ele>429.5</ele><time>2026-04-04T09:22:51.118Z</time></trkpt><trkpt lat="42.1480983" lon="11.9320667"><ele>428.0</ele><time>2026-04-04T09:22:52.117Z</time></trkpt><trkpt lat="42.1481233" lon="11.9322183"><ele>426.5</ele><time>2026-04-04T09:22:53.116Z</time></trkpt><trkpt lat="42.1481567" lon="11.9323717"><ele>425.0</ele><time>2026-04-04T09:22:54.118Z</time></trkpt><trkpt lat="42.1482083" lon="11.932515"><ele>429.25</ele><time>2026-04-04T09:22:55.12Z</time></trkpt><trkpt lat="42.148275" lon="11.9326517"><ele>433.5</ele><time>2026-04-04T09:22:56.114Z</time></trkpt><trkpt lat="42.1483517" lon="11.93278"><ele>437.75</ele><time>2026-04-04T09:22:57.118Z</time></trkpt><trkpt lat="42.1484317" lon="11.9329183"><ele>442.0</ele><time>2026-04-04T09:22:58.121Z</time></trkpt><trkpt lat="42.1485183" lon="11.9330433"><ele>442.0</ele><time>2026-04-04T09:22:59.119Z</time></trkpt><trkpt lat="42.1486083" lon="11.933165"><ele>442.0</ele><time>2026-04-04T09:23:00.116Z</time></trkpt><trkpt lat="42.1487017" lon="11.9333067"><ele>442.0</ele><time>2026-04-04T09:23:01.117Z</time></trkpt><trkpt lat="42.1488033" lon="11.9334517"><ele>442.0</ele><time>2026-04-04T09:23:02.114Z</time></trkpt><trkpt lat="42.1489083" lon="11.9335917"><ele>440.20000000000005</ele><time>2026-04-04T09:23:03.119Z</time></trkpt><trkpt lat="42.149005" lon="11.9337183"><ele>438.40000000000003</ele><time>2026-04-04T09:23:04.118Z</time></trkpt><trkpt lat="42.1490717" lon="11.93384"><ele>436.59999999999997</ele><time>2026-04-04T09:23:05.116Z</time></trkpt><trkpt lat="42.14912" lon="11.933965"><ele>434.79999999999995</ele><time>2026-04-04T09:23:06.118Z</time></trkpt><trkpt lat="42.1491433" lon="11.9340933"><ele>433.0</ele><time>2026-04-04T09:23:07.118Z</time></trkpt><trkpt lat="42.149165" lon="11.934225"><ele>441.0</ele><time>2026-04-04T09:23:08.117Z</time></trkpt><trkpt lat="42.14919" lon="11.93437"><ele>449.0</ele><time>2026-04-04T09:23:09.12Z</time></trkpt><trkpt lat="42.1492217" lon="11.9345183"><ele>457.0</ele><time>2026-04-04T09:23:10.116Z</time></trkpt><trkpt lat="42.1492583" lon="11.934665"><ele>465.0</ele><time>2026-04-04T09:23:11.118Z</time></trkpt><trkpt lat="42.149305" lon="11.9348017"><ele>465.0</ele><time>2026-04-04T09:23:12.115Z</time></trkpt><trkpt lat="42.1493517" lon="11.9349267"><ele>465.0</ele><time>2026-04-04T09:23:13.118Z</time></trkpt><trkpt lat="42.1494017" lon="11.9350417"><ele>465.0</ele><time>2026-04-04T09:23:14.114Z</time></trkpt><trkpt lat="42.1494417" lon="11.9351467"><ele>465.0</ele><time>2026-04-04T09:23:15.118Z</time></trkpt><trkpt lat="42.1494833" lon="11.935245"><ele>465.0</ele><time>2026-04-04T09:23:16.119Z</time></trkpt><trkpt lat="42.1495167" lon="11.9353417"><ele>465.6666666666667</ele><time>2026-04-04T09:23:17.114Z</time></trkpt><trkpt lat="42.1495433" lon="11.9354367"><ele>466.33333333333337</ele><time>2026-04-04T09:23:18.115Z</time></trkpt><trkpt lat="42.1495533" lon="11.9355383"><ele>467.0</ele><time>2026-04-04T09:23:19.118Z</time></trkpt><trkpt lat="42.1495583" lon="11.9356467"><ele>467.6666666666667</ele><time>2026-04-04T09:23:20.117Z</time></trkpt><trkpt lat="42.1495817" lon="11.9357333"><ele>468.33333333333337</ele><time>2026-04-04T09:23:21.111Z</time></trkpt><trkpt lat="42.1495767" lon="11.9358817"><ele>469.0</ele><time>2026-04-04T09:23:23.116Z</time></trkpt><trkpt lat="42.1495667" lon="11.9359733"><ele>470.0</ele><time>2026-04-04T09:23:24.118Z</time></trkpt><trkpt lat="42.149545" lon="11.9360783"><ele>471.0</ele><time>2026-04-04T09:23:25.118Z</time></trkpt><trkpt lat="42.1495217" lon="11.93618"><ele>472.0</ele><time>2026-04-04T09:23:26.117Z</time></trkpt><trkpt lat="42.1494933" lon="11.9363183"><ele>473.0</ele><time>2026-04-04T09:23:27.119Z</time></trkpt><trkpt lat="42.1494867" lon="11.9364533"><ele>474.0</ele><time>2026-04-04T09:23:28.118Z</time></trkpt><trkpt lat="42.149485" lon="11.936575"><ele>474.0</ele><time>2026-04-04T09:23:29.115Z</time></trkpt><trkpt lat="42.1494833" lon="11.9366817"><ele>474.0</ele><time>2026-04-04T09:23:30.122Z</time></trkpt><trkpt lat="42.1494767" lon="11.9368133"><ele>474.0</ele><time>2026-04-04T09:23:31.119Z</time></trkpt><trkpt lat="42.14948" lon="11.9369217"><ele>474.0</ele><time>2026-04-04T09:23:32.116Z</time></trkpt><trkpt lat="42.1494817" lon="11.9370433"><ele>474.0</ele><time>2026-04-04T09:23:33.117Z</time></trkpt><trkpt lat="42.1494883" lon="11.937155"><ele>474.0</ele><time>2026-04-04T09:23:34.118Z</time></trkpt><trkpt lat="42.1495" lon="11.9372567"><ele>473.8333333333333</ele><time>2026-04-04T09:23:35.119Z</time></trkpt><trkpt lat="42.149515" lon="11.93735"><ele>473.66666666666663</ele><time>2026-04-04T09:23:36.116Z</time></trkpt><trkpt lat="42.1495217" lon="11.9374417"><ele>473.5</ele><time>2026-04-04T09:23:37.117Z</time></trkpt><trkpt lat="42.1495283" lon="11.93753"><ele>473.3333333333333</ele><time>2026-04-04T09:23:38.117Z</time></trkpt><trkpt lat="42.1495533" lon="11.93767"><ele>473.16666666666663</ele><time>2026-04-04T09:23:40.116Z</time></trkpt><trkpt lat="42.1495783" lon="11.9377583"><ele>473.0</ele><time>2026-04-04T09:23:42.115Z</time></trkpt><trkpt lat="42.149545" lon="11.937845"><ele>472.99999999999994</ele><time>2026-04-04T09:23:47.117Z</time></trkpt><trkpt lat="42.1495017" lon="11.9379083"><ele>473.0</ele><time>2026-04-04T09:23:51.116Z</time></trkpt><trkpt lat="42.1495067" lon="11.93802"><ele>473.0</ele><time>2026-04-04T09:23:54.115Z</time></trkpt><trkpt lat="42.1495567" lon="11.938165"><ele>473.0</ele><time>2026-04-04T09:24:10.107Z</time></trkpt><trkpt lat="42.1496517" lon="11.938215"><ele>472.99999999999994</ele><time>2026-04-04T09:25:14.118Z</time></trkpt><trkpt lat="42.1497217" lon="11.9382367"><ele>473.0</ele><time>2026-04-04T09:25:16.116Z</time></trkpt><trkpt lat="42.1496783" lon="11.9383017"><ele>472.99999999999994</ele><time>2026-04-04T09:25:24.12Z</time></trkpt><trkpt lat="42.149735" lon="11.9382567"><ele>473.0</ele><time>2026-04-04T09:25:37.118Z</time></trkpt><trkpt lat="42.1495983" lon="11.9383383"><ele>473.0</ele><time>2026-04-04T09:32:07.114Z</time></trkpt><trkpt lat="42.1496596" lon="11.9383147"><ele>473.0</ele><time>2026-04-04T09:32:38.167Z</time></trkpt><trkpt lat="42.1497302" lon="11.9382764"><ele>472.99999999999994</ele><time>2026-04-04T09:34:11.238Z</time></trkpt><trkpt lat="42.1498078" lon="11.9383318"><ele>473.0</ele><time>2026-04-04T09:34:13.214Z</time></trkpt><trkpt lat="42.1498756" lon="11.9384017"><ele>473.3333333333333</ele><time>2026-04-04T09:34:16.23Z</time></trkpt><trkpt lat="42.1499478" lon="11.9384263"><ele>473.66666666666663</ele><time>2026-04-04T09:34:17.166Z</time></trkpt><trkpt lat="42.1500142" lon="11.9384978"><ele>474.0</ele><time>2026-04-04T09:34:19.142Z</time></trkpt><trkpt lat="42.1500862" lon="11.9385563"><ele>474.33333333333337</ele><time>2026-04-04T09:34:22.159Z</time></trkpt><trkpt lat="42.1501481" lon="11.9386757"><ele>474.6666666666667</ele><time>2026-04-04T09:34:28.19Z</time></trkpt><trkpt lat="42.1501979" lon="11.9387618"><ele>475.0</ele><time>2026-04-04T09:34:29.113Z</time></trkpt><trkpt lat="42.1502419" lon="11.9388231"><ele>475.0</ele><time>2026-04-04T09:34:30.118Z</time></trkpt><trkpt lat="42.1503174" lon="11.9389194"><ele>475.0</ele><time>2026-04-04T09:34:32.116Z</time></trkpt><trkpt lat="42.1503917" lon="11.9389899"><ele>475.0</ele><time>2026-04-04T09:34:34.107Z</time></trkpt><trkpt lat="42.1504793" lon="11.9390614"><ele>475.0</ele><time>2026-04-04T09:34:36.116Z</time></trkpt><trkpt lat="42.1505739" lon="11.9391306"><ele>475.0</ele><time>2026-04-04T09:34:38.119Z</time></trkpt><trkpt lat="42.1506861" lon="11.9391953"><ele>472.8571428571429</ele><time>2026-04-04T09:34:40.118Z</time></trkpt><trkpt lat="42.1507487" lon="11.939239"><ele>470.7142857142858</ele><time>2026-04-04T09:34:41.117Z</time></trkpt><trkpt lat="42.150809" lon="11.9392906"><ele>468.57142857142856</ele><time>2026-04-04T09:34:42.117Z</time></trkpt><trkpt lat="42.1508694" lon="11.9393431"><ele>466.42857142857144</ele><time>2026-04-04T09:34:43.111Z</time></trkpt><trkpt lat="42.1509287" lon="11.9393943"><ele>464.2857142857143</ele><time>2026-04-04T09:34:44.117Z</time></trkpt><trkpt lat="42.1509902" lon="11.939446"><ele>462.1428571428571</ele><time>2026-04-04T09:34:45.118Z</time></trkpt><trkpt lat="42.151052" lon="11.9395004"><ele>459.99999999999994</ele><time>2026-04-04T09:34:46.114Z</time></trkpt><trkpt lat="42.1511136" lon="11.9395542"><ele>460.00000000000006</ele><time>2026-04-04T09:34:47.117Z</time></trkpt><trkpt lat="42.1511736" lon="11.939605"><ele>460.0</ele><time>2026-04-04T09:34:48.116Z</time></trkpt><trkpt lat="42.1512281" lon="11.9396561"><ele>460.0</ele><time>2026-04-04T09:34:49.115Z</time></trkpt><trkpt lat="42.1513159" lon="11.9397473"><ele>460.0</ele><time>2026-04-04T09:34:51.119Z</time></trkpt><trkpt lat="42.1513632" lon="11.9398103"><ele>460.00000000000006</ele><time>2026-04-04T09:34:53.117Z</time></trkpt><trkpt lat="42.1514237" lon="11.9398622"><ele>460.0</ele><time>2026-04-04T09:34:57.113Z</time></trkpt><trkpt lat="42.1514875" lon="11.9398786"><ele>460.6666666666667</ele><time>2026-04-04T09:35:06.113Z</time></trkpt><trkpt lat="42.1515651" lon="11.9398814"><ele>461.33333333333337</ele><time>2026-04-04T09:35:13.111Z</time></trkpt><trkpt lat="42.1515839" lon="11.9399743"><ele>462.0</ele><time>2026-04-04T09:35:15.113Z</time></trkpt><trkpt lat="42.1516018" lon="11.9400589"><ele>462.66666666666663</ele><time>2026-04-04T09:35:17.109Z</time></trkpt><trkpt lat="42.1516785" lon="11.9400656"><ele>463.3333333333333</ele><time>2026-04-04T09:35:20.114Z</time></trkpt><trkpt lat="42.151775" lon="11.9400817"><ele>464.0</ele><time>2026-04-04T09:35:22.116Z</time></trkpt><trkpt lat="42.1518817" lon="11.9400567"><ele>463.99999999999994</ele><time>2026-04-04T09:35:24.115Z</time></trkpt><trkpt lat="42.1519717" lon="11.940065"><ele>464.0</ele><time>2026-04-04T09:35:27.117Z</time></trkpt><trkpt lat="42.1520733" lon="11.9400417"><ele>464.0</ele><time>2026-04-04T09:35:29.117Z</time></trkpt><trkpt lat="42.1521467" lon="11.9400633"><ele>464.0</ele><time>2026-04-04T09:35:32.116Z</time></trkpt><trkpt lat="42.1522083" lon="11.9400183"><ele>463.99999999999994</ele><time>2026-04-04T09:35:37.118Z</time></trkpt><trkpt lat="42.1522817" lon="11.9399867"><ele>464.0</ele><time>2026-04-04T09:35:41.115Z</time></trkpt><trkpt lat="42.15231" lon="11.9398617"><ele>466.8333333333333</ele><time>2026-04-04T09:35:45.113Z</time></trkpt><trkpt lat="42.1522883" lon="11.9397483"><ele>469.66666666666663</ele><time>2026-04-04T09:35:47.115Z</time></trkpt><trkpt lat="42.1522633" lon="11.9396667"><ele>472.5</ele><time>2026-04-04T09:35:49.11Z</time></trkpt><trkpt lat="42.15224" lon="11.9395733"><ele>475.33333333333337</ele><time>2026-04-04T09:35:52.116Z</time></trkpt><trkpt lat="42.1522767" lon="11.9394933"><ele>478.1666666666667</ele><time>2026-04-04T09:35:59.112Z</time></trkpt><trkpt lat="42.1523317" lon="11.939375"><ele>481.0</ele><time>2026-04-04T09:36:14.115Z</time></trkpt><trkpt lat="42.1524467" lon="11.9393867"><ele>482.8</ele><time>2026-04-04T09:36:26.117Z</time></trkpt><trkpt lat="42.152495" lon="11.939445"><ele>484.6</ele><time>2026-04-04T09:36:28.118Z</time></trkpt><trkpt lat="42.1525717" lon="11.93948"><ele>486.4</ele><time>2026-04-04T09:36:31.116Z</time></trkpt><trkpt lat="42.1526567" lon="11.9394583"><ele>488.2</ele><time>2026-04-04T09:36:33.117Z</time></trkpt><trkpt lat="42.15276" lon="11.9393967"><ele>490.0</ele><time>2026-04-04T09:36:35.108Z</time></trkpt><trkpt lat="42.1528717" lon="11.9392883"><ele>491.0</ele><time>2026-04-04T09:36:37.112Z</time></trkpt><trkpt lat="42.1529883" lon="11.93917"><ele>492.0</ele><time>2026-04-04T09:36:39.111Z</time></trkpt><trkpt lat="42.1530483" lon="11.9391033"><ele>493.0</ele><time>2026-04-04T09:36:40.109Z</time></trkpt><trkpt lat="42.1531167" lon="11.9390367"><ele>494.0</ele><time>2026-04-04T09:36:41.113Z</time></trkpt><trkpt lat="42.1531817" lon="11.9389767"><ele>495.0</ele><time>2026-04-04T09:36:42.111Z</time></trkpt><trkpt lat="42.15325" lon="11.93891"><ele>491.0</ele><time>2026-04-04T09:36:43.111Z</time></trkpt><trkpt lat="42.1533267" lon="11.9388517"><ele>487.0</ele><time>2026-04-04T09:36:44.111Z</time></trkpt><trkpt lat="42.1534417" lon="11.938785"><ele>483.0</ele><time>2026-04-04T09:36:46.109Z</time></trkpt><trkpt lat="42.1535567" lon="11.93875"><ele>479.0</ele><time>2026-04-04T09:36:48.112Z</time></trkpt><trkpt lat="42.1536217" lon="11.9387267"><ele>475.0</ele><time>2026-04-04T09:36:49.112Z</time></trkpt><trkpt lat="42.1537383" lon="11.938675"><ele>475.0</ele><time>2026-04-04T09:36:51.113Z</time></trkpt><trkpt lat="42.1538417" lon="11.9386467"><ele>475.0</ele><time>2026-04-04T09:36:53.113Z</time></trkpt><trkpt lat="42.1539417" lon="11.9386283"><ele>475.0</ele><time>2026-04-04T09:36:55.117Z</time></trkpt><trkpt lat="42.15401" lon="11.9386283"><ele>475.0</ele><time>2026-04-04T09:36:57.119Z</time></trkpt><trkpt lat="42.15411" lon="11.9386183"><ele>475.0</ele><time>2026-04-04T09:37:00.116Z</time></trkpt><trkpt lat="42.1542133" lon="11.9386167"><ele>472.0</ele><time>2026-04-04T09:37:02.119Z</time></trkpt><trkpt lat="42.15431" lon="11.93859"><ele>469.0</ele><time>2026-04-04T09:37:04.116Z</time></trkpt><trkpt lat="42.1543917" lon="11.938545"><ele>466.0</ele><time>2026-04-04T09:37:06.117Z</time></trkpt><trkpt lat="42.15449" lon="11.9384817"><ele>463.0</ele><time>2026-04-04T09:37:08.115Z</time></trkpt><trkpt lat="42.1545833" lon="11.938435"><ele>460.0</ele><time>2026-04-04T09:37:10.118Z</time></trkpt><trkpt lat="42.1546583" lon="11.93841"><ele>460.00000000000006</ele><time>2026-04-04T09:37:12.116Z</time></trkpt><trkpt lat="42.1547233" lon="11.938395"><ele>460.0</ele><time>2026-04-04T09:37:14.115Z</time></trkpt><trkpt lat="42.1547983" lon="11.938375"><ele>460.0</ele><time>2026-04-04T09:37:16.115Z</time></trkpt><trkpt lat="42.1548867" lon="11.9383633"><ele>460.0</ele><time>2026-04-04T09:37:19.118Z</time></trkpt><trkpt lat="42.1549517" lon="11.9383533"><ele>460.00000000000006</ele><time>2026-04-04T09:37:22.116Z</time></trkpt><trkpt lat="42.1550317" lon="11.9383567"><ele>460.0</ele><time>2026-04-04T09:37:25.113Z</time></trkpt><trkpt lat="42.1551133" lon="11.9383833"><ele>462.0</ele><time>2026-04-04T09:37:27.111Z</time></trkpt><trkpt lat="42.1552" lon="11.93838"><ele>464.0</ele><time>2026-04-04T09:37:29.116Z</time></trkpt><trkpt lat="42.1552667" lon="11.9383667"><ele>466.0</ele><time>2026-04-04T09:37:31.118Z</time></trkpt><trkpt lat="42.1553533" lon="11.9383117"><ele>468.0</ele><time>2026-04-04T09:37:33.116Z</time></trkpt><trkpt lat="42.1554467" lon="11.9381733"><ele>470.0</ele><time>2026-04-04T09:37:35.116Z</time></trkpt><trkpt lat="42.1554983" lon="11.93808"><ele>470.0</ele><time>2026-04-04T09:37:36.113Z</time></trkpt><trkpt lat="42.15555" lon="11.9379717"><ele>470.0</ele><time>2026-04-04T09:37:37.116Z</time></trkpt><trkpt lat="42.1556" lon="11.937865"><ele>470.0</ele><time>2026-04-04T09:37:38.116Z</time></trkpt><trkpt lat="42.1556533" lon="11.9377517"><ele>470.0</ele><time>2026-04-04T09:37:39.116Z</time></trkpt><trkpt lat="42.1557017" lon="11.937645"><ele>470.0</ele><time>2026-04-04T09:37:40.117Z</time></trkpt><trkpt lat="42.15575" lon="11.9375467"><ele>470.16666666666663</ele><time>2026-04-04T09:37:41.114Z</time></trkpt><trkpt lat="42.1557983" lon="11.9374767"><ele>470.3333333333333</ele><time>2026-04-04T09:37:42.114Z</time></trkpt><trkpt lat="42.1558767" lon="11.9374117"><ele>470.5</ele><time>2026-04-04T09:37:44.116Z</time></trkpt><trkpt lat="42.15596" lon="11.9374467"><ele>470.66666666666663</ele><time>2026-04-04T09:37:46.117Z</time></trkpt><trkpt lat="42.15603" lon="11.9375183"><ele>470.8333333333333</ele><time>2026-04-04T09:37:47.116Z</time></trkpt><trkpt lat="42.15609" lon="11.93761"><ele>471.0</ele><time>2026-04-04T09:37:48.115Z</time></trkpt><trkpt lat="42.1561567" lon="11.9377117"><ele>471.0</ele><time>2026-04-04T09:37:49.113Z</time></trkpt><trkpt lat="42.15622" lon="11.93782"><ele>471.0</ele><time>2026-04-04T09:37:50.115Z</time></trkpt><trkpt lat="42.156275" lon="11.937925"><ele>471.0</ele><time>2026-04-04T09:37:51.115Z</time></trkpt><trkpt lat="42.1563333" lon="11.938015"><ele>471.0</ele><time>2026-04-04T09:37:52.115Z</time></trkpt><trkpt lat="42.1563833" lon="11.9380933"><ele>471.0</ele><time>2026-04-04T09:37:53.116Z</time></trkpt><trkpt lat="42.15643" lon="11.9381583"><ele>471.0</ele><time>2026-04-04T09:37:54.114Z</time></trkpt><trkpt lat="42.1564883" lon="11.9382583"><ele>472.25</ele><time>2026-04-04T09:37:56.118Z</time></trkpt><trkpt lat="42.156605" lon="11.9383567"><ele>473.5</ele><time>2026-04-04T09:38:42.113Z</time></trkpt><trkpt lat="42.15668" lon="11.938505"><ele>474.75</ele><time>2026-04-04T09:38:44.115Z</time></trkpt><trkpt lat="42.15673" lon="11.9385983"><ele>476.0</ele><time>2026-04-04T09:38:45.114Z</time></trkpt><trkpt lat="42.1568033" lon="11.9387117"><ele>476.0</ele><time>2026-04-04T09:38:46.116Z</time></trkpt><trkpt lat="42.1568867" lon="11.9388383"><ele>476.0</ele><time>2026-04-04T09:38:47.118Z</time></trkpt><trkpt lat="42.1569617" lon="11.9389533"><ele>476.0</ele><time>2026-04-04T09:38:48.113Z</time></trkpt><trkpt lat="42.1570367" lon="11.9390633"><ele>476.0</ele><time>2026-04-04T09:38:49.112Z</time></trkpt><trkpt lat="42.15711" lon="11.9391833"><ele>480.25</ele><time>2026-04-04T09:38:50.115Z</time></trkpt><trkpt lat="42.1571933" lon="11.9392867"><ele>484.5</ele><time>2026-04-04T09:38:51.116Z</time></trkpt><trkpt lat="42.157285" lon="11.9393783"><ele>488.75</ele><time>2026-04-04T09:38:52.115Z</time></trkpt><trkpt lat="42.15736" lon="11.9394967"><ele>493.0</ele><time>2026-04-04T09:38:53.115Z</time></trkpt><trkpt lat="42.15744" lon="11.939615"><ele>486.25</ele><time>2026-04-04T09:38:54.116Z</time></trkpt><trkpt lat="42.1575133" lon="11.9397383"><ele>479.5</ele><time>2026-04-04T09:38:55.115Z</time></trkpt><trkpt lat="42.1575933" lon="11.9398767"><ele>472.75</ele><time>2026-04-04T09:38:56.112Z</time></trkpt><trkpt lat="42.1576667" lon="11.9399983"><ele>466.0</ele><time>2026-04-04T09:38:57.115Z</time></trkpt><trkpt lat="42.15774" lon="11.9401283"><ele>466.0</ele><time>2026-04-04T09:38:58.117Z</time></trkpt><trkpt lat="42.1578233" lon="11.9402417"><ele>466.0</ele><time>2026-04-04T09:38:59.115Z</time></trkpt><trkpt lat="42.1579033" lon="11.9403617"><ele>466.0</ele><time>2026-04-04T09:39:00.112Z</time></trkpt><trkpt lat="42.1579833" lon="11.9404817"><ele>466.0</ele><time>2026-04-04T09:39:01.115Z</time></trkpt><trkpt lat="42.1580683" lon="11.9406017"><ele>466.0</ele><time>2026-04-04T09:39:02.114Z</time></trkpt><trkpt lat="42.1581533" lon="11.9407117"><ele>466.0</ele><time>2026-04-04T09:39:03.118Z</time></trkpt><trkpt lat="42.158245" lon="11.9408167"><ele>466.0</ele><time>2026-04-04T09:39:04.114Z</time></trkpt><trkpt lat="42.158325" lon="11.9409133"><ele>466.0</ele><time>2026-04-04T09:39:05.116Z</time></trkpt><trkpt lat="42.1584067" lon="11.9410083"><ele>456.4</ele><time>2026-04-04T09:39:06.115Z</time></trkpt><trkpt lat="42.1585" lon="11.9410983"><ele>446.8</ele><time>2026-04-04T09:39:07.118Z</time></trkpt><trkpt lat="42.1585933" lon="11.941175"><ele>437.2</ele><time>2026-04-04T09:39:08.117Z</time></trkpt><trkpt lat="42.1586883" lon="11.9412383"><ele>427.59999999999997</ele><time>2026-04-04T09:39:09.116Z</time></trkpt><trkpt lat="42.1587783" lon="11.94131"><ele>418.0</ele><time>2026-04-04T09:39:10.117Z</time></trkpt><trkpt lat="42.1588633" lon="11.9414"><ele>418.00000000000006</ele><time>2026-04-04T09:39:11.112Z</time></trkpt><trkpt lat="42.1589333" lon="11.941505"><ele>418.0</ele><time>2026-04-04T09:39:12.115Z</time></trkpt><trkpt lat="42.15899" lon="11.9416"><ele>418.0</ele><time>2026-04-04T09:39:13.116Z</time></trkpt><trkpt lat="42.1590433" lon="11.9416717"><ele>418.0</ele><time>2026-04-04T09:39:14.115Z</time></trkpt><trkpt lat="42.1591267" lon="11.94175"><ele>418.00000000000006</ele><time>2026-04-04T09:39:16.112Z</time></trkpt><trkpt lat="42.1592033" lon="11.9417417"><ele>418.0</ele><time>2026-04-04T09:39:18.116Z</time></trkpt><trkpt lat="42.1592683" lon="11.9416783"><ele>416.4</ele><time>2026-04-04T09:39:20.114Z</time></trkpt><trkpt lat="42.1593167" lon="11.9415633"><ele>414.79999999999995</ele><time>2026-04-04T09:39:22.116Z</time></trkpt><trkpt lat="42.1593617" lon="11.9414417"><ele>413.2</ele><time>2026-04-04T09:39:24.119Z</time></trkpt><trkpt lat="42.1594183" lon="11.9413183"><ele>411.6</ele><time>2026-04-04T09:39:26.114Z</time></trkpt><trkpt lat="42.159485" lon="11.9412483"><ele>410.0</ele><time>2026-04-04T09:39:28.116Z</time></trkpt><trkpt lat="42.1595733" lon="11.941245"><ele>410.0</ele><time>2026-04-04T09:39:30.118Z</time></trkpt><trkpt lat="42.1596333" lon="11.9412817"><ele>410.0</ele><time>2026-04-04T09:39:31.116Z</time></trkpt><trkpt lat="42.1596867" lon="11.9413283"><ele>410.0</ele><time>2026-04-04T09:39:32.115Z</time></trkpt><trkpt lat="42.1597383" lon="11.9413783"><ele>410.0</ele><time>2026-04-04T09:39:33.119Z</time></trkpt><trkpt lat="42.159825" lon="11.9414633"><ele>410.0</ele><time>2026-04-04T09:39:35.117Z</time></trkpt><trkpt lat="42.1598783" lon="11.9415183"><ele>410.0</ele><time>2026-04-04T09:39:37.114Z</time></trkpt><trkpt lat="42.1599517" lon="11.9415283"><ele>410.0</ele><time>2026-04-04T09:39:42.118Z</time></trkpt><trkpt lat="42.1600333" lon="11.9414317"><ele>407.2</ele><time>2026-04-04T09:39:44.114Z</time></trkpt><trkpt lat="42.16011" lon="11.94128"><ele>404.4</ele><time>2026-04-04T09:39:46.114Z</time></trkpt><trkpt lat="42.160145" lon="11.9411967"><ele>401.6</ele><time>2026-04-04T09:39:47.118Z</time></trkpt><trkpt lat="42.1601817" lon="11.941095"><ele>398.8</ele><time>2026-04-04T09:39:48.118Z</time></trkpt><trkpt lat="42.1602133" lon="11.9409833"><ele>396.0</ele><time>2026-04-04T09:39:49.116Z</time></trkpt><trkpt lat="42.1602367" lon="11.9408717"><ele>395.5</ele><time>2026-04-04T09:39:50.115Z</time></trkpt><trkpt lat="42.160265" lon="11.9407617"><ele>395.0</ele><time>2026-04-04T09:39:51.117Z</time></trkpt><trkpt lat="42.1602983" lon="11.9406567"><ele>394.5</ele><time>2026-04-04T09:39:52.116Z</time></trkpt><trkpt lat="42.1603333" lon="11.9405533"><ele>394.0</ele><time>2026-04-04T09:39:53.117Z</time></trkpt><trkpt lat="42.1603683" lon="11.94045"><ele>393.5</ele><time>2026-04-04T09:39:54.116Z</time></trkpt><trkpt lat="42.16041" lon="11.940355"><ele>393.0</ele><time>2026-04-04T09:39:55.116Z</time></trkpt><trkpt lat="42.16046" lon="11.94027"><ele>393.0</ele><time>2026-04-04T09:39:56.116Z</time></trkpt><trkpt lat="42.1605183" lon="11.94019"><ele>393.0</ele><time>2026-04-04T09:39:57.12Z</time></trkpt><trkpt lat="42.16058" lon="11.9401133"><ele>393.0</ele><time>2026-04-04T09:39:58.116Z</time></trkpt><trkpt lat="42.1606583" lon="11.9400483"><ele>393.0</ele><time>2026-04-04T09:39:59.114Z</time></trkpt><trkpt lat="42.1607667" lon="11.9400167"><ele>393.0</ele><time>2026-04-04T09:40:00.119Z</time></trkpt><trkpt lat="42.1608767" lon="11.93999"><ele>390.79999999999995</ele><time>2026-04-04T09:40:01.118Z</time></trkpt><trkpt lat="42.1609867" lon="11.93997"><ele>388.6</ele><time>2026-04-04T09:40:02.115Z</time></trkpt><trkpt lat="42.1610933" lon="11.9399583"><ele>386.4</ele><time>2026-04-04T09:40:03.117Z</time></trkpt><trkpt lat="42.1611917" lon="11.939945"><ele>384.20000000000005</ele><time>2026-04-04T09:40:04.116Z</time></trkpt><trkpt lat="42.161275" lon="11.9399367"><ele>382.0</ele><time>2026-04-04T09:40:05.114Z</time></trkpt><trkpt lat="42.1613567" lon="11.9399267"><ele>382.0</ele><time>2026-04-04T09:40:06.119Z</time></trkpt><trkpt lat="42.1614383" lon="11.9399333"><ele>382.0</ele><time>2026-04-04T09:40:07.117Z</time></trkpt><trkpt lat="42.1615" lon="11.939965"><ele>382.0</ele><time>2026-04-04T09:40:08.116Z</time></trkpt><trkpt lat="42.161555" lon="11.9400117"><ele>382.0</ele><time>2026-04-04T09:40:09.12Z</time></trkpt><trkpt lat="42.1616067" lon="11.9400883"><ele>382.0</ele><time>2026-04-04T09:40:10.114Z</time></trkpt><trkpt lat="42.1616533" lon="11.94018"><ele>382.0</ele><time>2026-04-04T09:40:11.115Z</time></trkpt><trkpt lat="42.1617117" lon="11.94029"><ele>384.75</ele><time>2026-04-04T09:40:12.118Z</time></trkpt><trkpt lat="42.1617667" lon="11.9404283"><ele>387.5</ele><time>2026-04-04T09:40:13.115Z</time></trkpt><trkpt lat="42.1618367" lon="11.9405567"><ele>390.25</ele><time>2026-04-04T09:40:14.115Z</time></trkpt><trkpt lat="42.16191" lon="11.94069"><ele>393.0</ele><time>2026-04-04T09:40:15.113Z</time></trkpt><trkpt lat="42.1619767" lon="11.940835"><ele>392.0</ele><time>2026-04-04T09:40:16.114Z</time></trkpt><trkpt lat="42.1620467" lon="11.9409767"><ele>391.0</ele><time>2026-04-04T09:40:17.116Z</time></trkpt><trkpt lat="42.1620983" lon="11.941135"><ele>390.0</ele><time>2026-04-04T09:40:18.113Z</time></trkpt><trkpt lat="42.1621483" lon="11.9412817"><ele>389.0</ele><time>2026-04-04T09:40:19.118Z</time></trkpt><trkpt lat="42.1622033" lon="11.941425"><ele>389.0</ele><time>2026-04-04T09:40:20.115Z</time></trkpt><trkpt lat="42.162255" lon="11.9415667"><ele>389.0</ele><time>2026-04-04T09:40:21.118Z</time></trkpt><trkpt lat="42.1622917" lon="11.9417133"><ele>389.0</ele><time>2026-04-04T09:40:22.114Z</time></trkpt><trkpt lat="42.1623183" lon="11.9418617"><ele>389.0</ele><time>2026-04-04T09:40:23.115Z</time></trkpt><trkpt lat="42.1623383" lon="11.942"><ele>389.0</ele><time>2026-04-04T09:40:24.116Z</time></trkpt><trkpt lat="42.16235" lon="11.94214"><ele>385.79999999999995</ele><time>2026-04-04T09:40:25.107Z</time></trkpt><trkpt lat="42.1623567" lon="11.94228"><ele>382.59999999999997</ele><time>2026-04-04T09:40:26.118Z</time></trkpt><trkpt lat="42.1623417" lon="11.9424233"><ele>379.4</ele><time>2026-04-04T09:40:27.12Z</time></trkpt><trkpt lat="42.1623067" lon="11.9425683"><ele>376.2</ele><time>2026-04-04T09:40:28.118Z</time></trkpt><trkpt lat="42.1622483" lon="11.9427117"><ele>373.0</ele><time>2026-04-04T09:40:29.116Z</time></trkpt><trkpt lat="42.1621783" lon="11.9428533"><ele>368.75</ele><time>2026-04-04T09:40:30.114Z</time></trkpt><trkpt lat="42.162095" lon="11.9429883"><ele>364.5</ele><time>2026-04-04T09:40:31.116Z</time></trkpt><trkpt lat="42.1620083" lon="11.943115"><ele>360.25</ele><time>2026-04-04T09:40:32.117Z</time></trkpt><trkpt lat="42.1619217" lon="11.943235"><ele>356.0</ele><time>2026-04-04T09:40:33.113Z</time></trkpt><trkpt lat="42.1618333" lon="11.94335"><ele>353.5</ele><time>2026-04-04T09:40:34.117Z</time></trkpt><trkpt lat="42.1617433" lon="11.94345"><ele>351.0</ele><time>2026-04-04T09:40:35.109Z</time></trkpt><trkpt lat="42.1616467" lon="11.9435333"><ele>348.5</ele><time>2026-04-04T09:40:36.117Z</time></trkpt><trkpt lat="42.1615367" lon="11.943605"><ele>346.0</ele><time>2026-04-04T09:40:37.121Z</time></trkpt><trkpt lat="42.1614233" lon="11.9436667"><ele>346.0</ele><time>2026-04-04T09:40:38.115Z</time></trkpt><trkpt lat="42.1613017" lon="11.9437117"><ele>346.0</ele><time>2026-04-04T09:40:39.116Z</time></trkpt><trkpt lat="42.1611783" lon="11.9437433"><ele>346.0</ele><time>2026-04-04T09:40:40.115Z</time></trkpt><trkpt lat="42.1610533" lon="11.9437583"><ele>346.0</ele><time>2026-04-04T09:40:41.114Z</time></trkpt><trkpt lat="42.1609367" lon="11.9437633"><ele>346.0</ele><time>2026-04-04T09:40:42.116Z</time></trkpt><trkpt lat="42.1608233" lon="11.943765"><ele>346.0</ele><time>2026-04-04T09:40:43.116Z</time></trkpt><trkpt lat="42.1607133" lon="11.9437683"><ele>346.0</ele><time>2026-04-04T09:40:44.115Z</time></trkpt><trkpt lat="42.1606083" lon="11.9437867"><ele>346.0</ele><time>2026-04-04T09:40:45.117Z</time></trkpt><trkpt lat="42.1605033" lon="11.9438367"><ele>346.0</ele><time>2026-04-04T09:40:46.115Z</time></trkpt><trkpt lat="42.1603983" lon="11.94391"><ele>347.75</ele><time>2026-04-04T09:40:47.119Z</time></trkpt><trkpt lat="42.1602967" lon="11.9439967"><ele>349.5</ele><time>2026-04-04T09:40:48.118Z</time></trkpt><trkpt lat="42.160195" lon="11.9440967"><ele>351.25</ele><time>2026-04-04T09:40:49.118Z</time></trkpt><trkpt lat="42.16009" lon="11.9442067"><ele>353.0</ele><time>2026-04-04T09:40:50.118Z</time></trkpt><trkpt lat="42.1599817" lon="11.9443167"><ele>352.0</ele><time>2026-04-04T09:40:51.119Z</time></trkpt><trkpt lat="42.1598717" lon="11.9444383"><ele>351.0</ele><time>2026-04-04T09:40:52.116Z</time></trkpt><trkpt lat="42.1597617" lon="11.9445717"><ele>350.0</ele><time>2026-04-04T09:40:53.115Z</time></trkpt><trkpt lat="42.1596533" lon="11.9447067"><ele>349.0</ele><time>2026-04-04T09:40:54.117Z</time></trkpt><trkpt lat="42.1595483" lon="11.9448417"><ele>349.0</ele><time>2026-04-04T09:40:55.116Z</time></trkpt><trkpt lat="42.1594483" lon="11.9449833"><ele>349.0</ele><time>2026-04-04T09:40:56.114Z</time></trkpt><trkpt lat="42.159355" lon="11.9451283"><ele>349.0</ele><time>2026-04-04T09:40:57.118Z</time></trkpt><trkpt lat="42.1592633" lon="11.94526"><ele>349.0</ele><time>2026-04-04T09:40:58.116Z</time></trkpt><trkpt lat="42.159175" lon="11.9453883"><ele>348.5</ele><time>2026-04-04T09:40:59.115Z</time></trkpt><trkpt lat="42.159095" lon="11.9455233"><ele>348.0</ele><time>2026-04-04T09:41:00.116Z</time></trkpt><trkpt lat="42.1590183" lon="11.9456633"><ele>347.5</ele><time>2026-04-04T09:41:01.118Z</time></trkpt><trkpt lat="42.1589467" lon="11.94581"><ele>347.0</ele><time>2026-04-04T09:41:02.115Z</time></trkpt><trkpt lat="42.158885" lon="11.9459533"><ele>344.5</ele><time>2026-04-04T09:41:03.118Z</time></trkpt><trkpt lat="42.1588383" lon="11.946095"><ele>342.0</ele><time>2026-04-04T09:41:04.118Z</time></trkpt><trkpt lat="42.1588033" lon="11.9462417"><ele>339.5</ele><time>2026-04-04T09:41:05.116Z</time></trkpt><trkpt lat="42.1587833" lon="11.9463883"><ele>337.0</ele><time>2026-04-04T09:41:06.118Z</time></trkpt><trkpt lat="42.1587783" lon="11.9465517"><ele>334.25</ele><time>2026-04-04T09:41:07.118Z</time></trkpt><trkpt lat="42.158785" lon="11.94673"><ele>331.5</ele><time>2026-04-04T09:41:08.12Z</time></trkpt><trkpt lat="42.158805" lon="11.9469167"><ele>328.75</ele><time>2026-04-04T09:41:09.114Z</time></trkpt><trkpt lat="42.15882" lon="11.9471017"><ele>326.0</ele><time>2026-04-04T09:41:10.109Z</time></trkpt><trkpt lat="42.1588367" lon="11.94729"><ele>326.0</ele><time>2026-04-04T09:41:11.117Z</time></trkpt><trkpt lat="42.158855" lon="11.9474733"><ele>326.0</ele><time>2026-04-04T09:41:12.116Z</time></trkpt><trkpt lat="42.1588717" lon="11.9476533"><ele>326.0</ele><time>2026-04-04T09:41:13.118Z</time></trkpt><trkpt lat="42.158895" lon="11.9478283"><ele>326.0</ele><time>2026-04-04T09:41:14.107Z</time></trkpt><trkpt lat="42.1589183" lon="11.9480067"><ele>323.75</ele><time>2026-04-04T09:41:15.118Z</time></trkpt><trkpt lat="42.1589383" lon="11.9481883"><ele>321.5</ele><time>2026-04-04T09:41:16.116Z</time></trkpt><trkpt lat="42.1589533" lon="11.9483683"><ele>319.25</ele><time>2026-04-04T09:41:17.116Z</time></trkpt><trkpt lat="42.1589667" lon="11.94855"><ele>317.0</ele><time>2026-04-04T09:41:18.118Z</time></trkpt><trkpt lat="42.1589733" lon="11.94873"><ele>314.25</ele><time>2026-04-04T09:41:19.121Z</time></trkpt><trkpt lat="42.15897" lon="11.9489067"><ele>311.5</ele><time>2026-04-04T09:41:20.111Z</time></trkpt><trkpt lat="42.1589533" lon="11.9490783"><ele>308.75</ele><time>2026-04-04T09:41:21.12Z</time></trkpt><trkpt lat="42.1589217" lon="11.94924"><ele>306.0</ele><time>2026-04-04T09:41:22.116Z</time></trkpt><trkpt lat="42.1588783" lon="11.9493917"><ele>304.75</ele><time>2026-04-04T09:41:23.116Z</time></trkpt><trkpt lat="42.1588267" lon="11.94954"><ele>303.5</ele><time>2026-04-04T09:41:24.12Z</time></trkpt><trkpt lat="42.15876" lon="11.9496833"><ele>302.25</ele><time>2026-04-04T09:41:25.115Z</time></trkpt><trkpt lat="42.158685" lon="11.949825"><ele>301.0</ele><time>2026-04-04T09:41:26.117Z</time></trkpt><trkpt lat="42.1586017" lon="11.94996"><ele>299.5</ele><time>2026-04-04T09:41:27.118Z</time></trkpt><trkpt lat="42.1585117" lon="11.9500883"><ele>298.0</ele><time>2026-04-04T09:41:28.116Z</time></trkpt><trkpt lat="42.1584233" lon="11.9502133"><ele>296.5</ele><time>2026-04-04T09:41:29.114Z</time></trkpt><trkpt lat="42.1583433" lon="11.9503383"><ele>295.0</ele><time>2026-04-04T09:41:30.118Z</time></trkpt><trkpt lat="42.1582767" lon="11.9504667"><ele>295.0</ele><time>2026-04-04T09:41:31.118Z</time></trkpt><trkpt lat="42.15823" lon="11.9506067"><ele>295.0</ele><time>2026-04-04T09:41:32.113Z</time></trkpt><trkpt lat="42.1582" lon="11.9507583"><ele>295.0</ele><time>2026-04-04T09:41:33.118Z</time></trkpt><trkpt lat="42.1581833" lon="11.950925"><ele>295.0</ele><time>2026-04-04T09:41:34.118Z</time></trkpt><trkpt lat="42.1581683" lon="11.9511067"><ele>292.3333333333333</ele><time>2026-04-04T09:41:35.11Z</time></trkpt><trkpt lat="42.158155" lon="11.9513067"><ele>289.6666666666667</ele><time>2026-04-04T09:41:36.115Z</time></trkpt><trkpt lat="42.15814" lon="11.9515117"><ele>287.0</ele><time>2026-04-04T09:41:37.116Z</time></trkpt><trkpt lat="42.15812" lon="11.9517217"><ele>285.6666666666667</ele><time>2026-04-04T09:41:38.116Z</time></trkpt><trkpt lat="42.1580983" lon="11.951935"><ele>284.3333333333333</ele><time>2026-04-04T09:41:39.119Z</time></trkpt><trkpt lat="42.15807" lon="11.9521567"><ele>283.0</ele><time>2026-04-04T09:41:40.116Z</time></trkpt><trkpt lat="42.15803" lon="11.9523833"><ele>283.0</ele><time>2026-04-04T09:41:41.115Z</time></trkpt><trkpt lat="42.1579867" lon="11.9526033"><ele>283.0</ele><time>2026-04-04T09:41:42.115Z</time></trkpt><trkpt lat="42.1579433" lon="11.9528067"><ele>283.0</ele><time>2026-04-04T09:41:43.117Z</time></trkpt><trkpt lat="42.1579017" lon="11.9530017"><ele>283.0</ele><time>2026-04-04T09:41:44.118Z</time></trkpt><trkpt lat="42.1578567" lon="11.9531983"><ele>283.0</ele><time>2026-04-04T09:41:45.118Z</time></trkpt><trkpt lat="42.1578117" lon="11.9533917"><ele>283.0</ele><time>2026-04-04T09:41:46.115Z</time></trkpt><trkpt lat="42.1577667" lon="11.9535933"><ele>284.25</ele><time>2026-04-04T09:41:47.117Z</time></trkpt><trkpt lat="42.1577183" lon="11.9537867"><ele>285.5</ele><time>2026-04-04T09:41:48.113Z</time></trkpt><trkpt lat="42.15768" lon="11.9539683"><ele>286.75</ele><time>2026-04-04T09:41:49.116Z</time></trkpt><trkpt lat="42.1576517" lon="11.95415"><ele>288.0</ele><time>2026-04-04T09:41:50.116Z</time></trkpt><trkpt lat="42.1576333" lon="11.9543217"><ele>288.25</ele><time>2026-04-04T09:41:51.109Z</time></trkpt><trkpt lat="42.1576367" lon="11.9544983"><ele>288.5</ele><time>2026-04-04T09:41:52.115Z</time></trkpt><trkpt lat="42.1576517" lon="11.9546967"><ele>288.75</ele><time>2026-04-04T09:41:53.118Z</time></trkpt><trkpt lat="42.157675" lon="11.9549167"><ele>289.0</ele><time>2026-04-04T09:41:54.116Z</time></trkpt><trkpt lat="42.15771" lon="11.955145"><ele>289.0</ele><time>2026-04-04T09:41:55.111Z</time></trkpt><trkpt lat="42.1577433" lon="11.95537"><ele>289.0</ele><time>2026-04-04T09:41:56.116Z</time></trkpt><trkpt lat="42.15778" lon="11.9555883"><ele>289.0</ele><time>2026-04-04T09:41:57.116Z</time></trkpt><trkpt lat="42.1578133" lon="11.9557967"><ele>287.25</ele><time>2026-04-04T09:41:58.118Z</time></trkpt><trkpt lat="42.1578433" lon="11.955995"><ele>285.5</ele><time>2026-04-04T09:41:59.117Z</time></trkpt><trkpt lat="42.1578667" lon="11.9561917"><ele>283.75</ele><time>2026-04-04T09:42:00.119Z</time></trkpt><trkpt lat="42.157875" lon="11.95639"><ele>282.0</ele><time>2026-04-04T09:42:01.116Z</time></trkpt><trkpt lat="42.1578733" lon="11.9565917"><ele>277.6666666666667</ele><time>2026-04-04T09:42:02.114Z</time></trkpt><trkpt lat="42.1578567" lon="11.9567983"><ele>273.33333333333337</ele><time>2026-04-04T09:42:03.111Z</time></trkpt><trkpt lat="42.15783" lon="11.9570067"><ele>269.0</ele><time>2026-04-04T09:42:04.114Z</time></trkpt><trkpt lat="42.1577817" lon="11.9572167"><ele>269.0</ele><time>2026-04-04T09:42:05.114Z</time></trkpt><trkpt lat="42.1577233" lon="11.9574317"><ele>269.0</ele><time>2026-04-04T09:42:06.116Z</time></trkpt><trkpt lat="42.1576633" lon="11.95765"><ele>269.0</ele><time>2026-04-04T09:42:07.114Z</time></trkpt><trkpt lat="42.1576033" lon="11.9578683"><ele>266.6666666666667</ele><time>2026-04-04T09:42:08.114Z</time></trkpt><trkpt lat="42.1575483" lon="11.9580933"><ele>264.3333333333333</ele><time>2026-04-04T09:42:09.117Z</time></trkpt><trkpt lat="42.15749" lon="11.9583017"><ele>262.0</ele><time>2026-04-04T09:42:10.117Z</time></trkpt><trkpt lat="42.1574333" lon="11.9585117"><ele>259.3333333333333</ele><time>2026-04-04T09:42:11.118Z</time></trkpt><trkpt lat="42.157375" lon="11.9587267"><ele>256.6666666666667</ele><time>2026-04-04T09:42:12.112Z</time></trkpt><trkpt lat="42.1573167" lon="11.9589417"><ele>254.0</ele><time>2026-04-04T09:42:13.111Z</time></trkpt><trkpt lat="42.15726" lon="11.959155"><ele>252.0</ele><time>2026-04-04T09:42:14.117Z</time></trkpt><trkpt lat="42.157205" lon="11.9593617"><ele>250.0</ele><time>2026-04-04T09:42:15.115Z</time></trkpt><trkpt lat="42.1571517" lon="11.9595683"><ele>248.0</ele><time>2026-04-04T09:42:16.114Z</time></trkpt><trkpt lat="42.1570983" lon="11.9597667"><ele>248.0</ele><time>2026-04-04T09:42:17.114Z</time></trkpt><trkpt lat="42.1570467" lon="11.959965"><ele>248.0</ele><time>2026-04-04T09:42:18.116Z</time></trkpt><trkpt lat="42.1569933" lon="11.9601683"><ele>248.0</ele><time>2026-04-04T09:42:19.115Z</time></trkpt><trkpt lat="42.1569433" lon="11.9603667"><ele>247.33333333333334</ele><time>2026-04-04T09:42:20.117Z</time></trkpt><trkpt lat="42.156895" lon="11.960565"><ele>246.66666666666669</ele><time>2026-04-04T09:42:21.116Z</time></trkpt><trkpt lat="42.1568467" lon="11.960765"><ele>246.0</ele><time>2026-04-04T09:42:22.112Z</time></trkpt><trkpt lat="42.1567933" lon="11.9609633"><ele>245.33333333333331</ele><time>2026-04-04T09:42:23.111Z</time></trkpt><trkpt lat="42.1567383" lon="11.9611583"><ele>244.66666666666666</ele><time>2026-04-04T09:42:24.115Z</time></trkpt><trkpt lat="42.1566817" lon="11.9613483"><ele>244.0</ele><time>2026-04-04T09:42:25.116Z</time></trkpt><trkpt lat="42.1566133" lon="11.9615383"><ele>241.33333333333331</ele><time>2026-04-04T09:42:26.114Z</time></trkpt><trkpt lat="42.15653" lon="11.9617217"><ele>238.66666666666669</ele><time>2026-04-04T09:42:27.118Z</time></trkpt><trkpt lat="42.1564333" lon="11.9619017"><ele>236.0</ele><time>2026-04-04T09:42:28.116Z</time></trkpt><trkpt lat="42.1563217" lon="11.9620617"><ele>236.0</ele><time>2026-04-04T09:42:29.114Z</time></trkpt><trkpt lat="42.1562033" lon="11.9622117"><ele>236.0</ele><time>2026-04-04T09:42:30.113Z</time></trkpt><trkpt lat="42.1560833" lon="11.9623617"><ele>236.0</ele><time>2026-04-04T09:42:31.116Z</time></trkpt><trkpt lat="42.1559633" lon="11.9625117"><ele>236.0</ele><time>2026-04-04T09:42:32.116Z</time></trkpt><trkpt lat="42.1558467" lon="11.9626567"><ele>236.0</ele><time>2026-04-04T09:42:33.11Z</time></trkpt><trkpt lat="42.155735" lon="11.9628083"><ele>236.0</ele><time>2026-04-04T09:42:34.117Z</time></trkpt><trkpt lat="42.1556217" lon="11.96296"><ele>233.66666666666669</ele><time>2026-04-04T09:42:35.117Z</time></trkpt><trkpt lat="42.155505" lon="11.9631167"><ele>231.33333333333331</ele><time>2026-04-04T09:42:36.116Z</time></trkpt><trkpt lat="42.155385" lon="11.963275"><ele>229.0</ele><time>2026-04-04T09:42:37.119Z</time></trkpt><trkpt lat="42.155265" lon="11.9634367"><ele>226.66666666666666</ele><time>2026-04-04T09:42:38.118Z</time></trkpt><trkpt lat="42.1551417" lon="11.9636017"><ele>224.33333333333331</ele><time>2026-04-04T09:42:39.119Z</time></trkpt><trkpt lat="42.1550183" lon="11.963765"><ele>222.0</ele><time>2026-04-04T09:42:40.117Z</time></trkpt><trkpt lat="42.1548983" lon="11.9639217"><ele>222.33333333333331</ele><time>2026-04-04T09:42:41.116Z</time></trkpt><trkpt lat="42.1547817" lon="11.964075"><ele>222.66666666666666</ele><time>2026-04-04T09:42:42.117Z</time></trkpt><trkpt lat="42.1546667" lon="11.96424"><ele>223.0</ele><time>2026-04-04T09:42:43.115Z</time></trkpt><trkpt lat="42.1545567" lon="11.9644067"><ele>222.0</ele><time>2026-04-04T09:42:44.111Z</time></trkpt><trkpt lat="42.1544517" lon="11.964585"><ele>221.0</ele><time>2026-04-04T09:42:45.114Z</time></trkpt><trkpt lat="42.1543483" lon="11.96476"><ele>220.0</ele><time>2026-04-04T09:42:46.116Z</time></trkpt><trkpt lat="42.1542533" lon="11.9649367"><ele>219.33333333333331</ele><time>2026-04-04T09:42:47.115Z</time></trkpt><trkpt lat="42.15417" lon="11.9651117"><ele>218.66666666666669</ele><time>2026-04-04T09:42:48.112Z</time></trkpt><trkpt lat="42.15409" lon="11.9652883"><ele>218.0</ele><time>2026-04-04T09:42:49.115Z</time></trkpt><trkpt lat="42.1540233" lon="11.9654667"><ele>218.0</ele><time>2026-04-04T09:42:50.114Z</time></trkpt><trkpt lat="42.1539583" lon="11.9656433"><ele>218.0</ele><time>2026-04-04T09:42:51.109Z</time></trkpt><trkpt lat="42.1538933" lon="11.9658167"><ele>218.0</ele><time>2026-04-04T09:42:52.116Z</time></trkpt><trkpt lat="42.1538233" lon="11.96598"><ele>218.0</ele><time>2026-04-04T09:42:53.11Z</time></trkpt><trkpt lat="42.153745" lon="11.9661383"><ele>216.0</ele><time>2026-04-04T09:42:54.115Z</time></trkpt><trkpt lat="42.1536517" lon="11.966285"><ele>214.0</ele><time>2026-04-04T09:42:55.12Z</time></trkpt><trkpt lat="42.153545" lon="11.966425"><ele>212.0</ele><time>2026-04-04T09:42:56.117Z</time></trkpt><trkpt lat="42.1534283" lon="11.966555"><ele>210.0</ele><time>2026-04-04T09:42:57.115Z</time></trkpt><trkpt lat="42.1533" lon="11.96668"><ele>207.66666666666669</ele><time>2026-04-04T09:42:58.117Z</time></trkpt><trkpt lat="42.1531667" lon="11.9667967"><ele>205.33333333333334</ele><time>2026-04-04T09:42:59.117Z</time></trkpt><trkpt lat="42.1530317" lon="11.96691"><ele>203.0</ele><time>2026-04-04T09:43:00.114Z</time></trkpt><trkpt lat="42.1528883" lon="11.96703"><ele>203.0</ele><time>2026-04-04T09:43:01.116Z</time></trkpt><trkpt lat="42.15274" lon="11.9671483"><ele>203.0</ele><time>2026-04-04T09:43:02.114Z</time></trkpt><trkpt lat="42.1525867" lon="11.96727"><ele>203.0</ele><time>2026-04-04T09:43:03.115Z</time></trkpt><trkpt lat="42.1524367" lon="11.96739"><ele>200.33333333333334</ele><time>2026-04-04T09:43:04.116Z</time></trkpt><trkpt lat="42.15229" lon="11.967505"><ele>197.66666666666669</ele><time>2026-04-04T09:43:05.117Z</time></trkpt><trkpt lat="42.1521467" lon="11.9676217"><ele>195.0</ele><time>2026-04-04T09:43:06.118Z</time></trkpt><trkpt lat="42.1520067" lon="11.9677333"><ele>195.0</ele><time>2026-04-04T09:43:07.119Z</time></trkpt><trkpt lat="42.151865" lon="11.96784"><ele>195.0</ele><time>2026-04-04T09:43:08.117Z</time></trkpt><trkpt lat="42.151725" lon="11.96795"><ele>195.0</ele><time>2026-04-04T09:43:09.117Z</time></trkpt><trkpt lat="42.1515867" lon="11.9680583"><ele>192.66666666666666</ele><time>2026-04-04T09:43:10.115Z</time></trkpt><trkpt lat="42.15145" lon="11.9681683"><ele>190.33333333333331</ele><time>2026-04-04T09:43:11.115Z</time></trkpt><trkpt lat="42.1513183" lon="11.9682783"><ele>188.0</ele><time>2026-04-04T09:43:12.117Z</time></trkpt><trkpt lat="42.1511833" lon="11.96839"><ele>188.0</ele><time>2026-04-04T09:43:13.116Z</time></trkpt><trkpt lat="42.15105" lon="11.968495"><ele>188.0</ele><time>2026-04-04T09:43:14.116Z</time></trkpt><trkpt lat="42.1509133" lon="11.9685983"><ele>188.0</ele><time>2026-04-04T09:43:15.118Z</time></trkpt><trkpt lat="42.1507767" lon="11.968705"><ele>183.33333333333331</ele><time>2026-04-04T09:43:16.118Z</time></trkpt><trkpt lat="42.1506417" lon="11.9688117"><ele>178.66666666666666</ele><time>2026-04-04T09:43:17.114Z</time></trkpt><trkpt lat="42.1505083" lon="11.9689167"><ele>174.0</ele><time>2026-04-04T09:43:18.115Z</time></trkpt><trkpt lat="42.150375" lon="11.9690267"><ele>174.0</ele><time>2026-04-04T09:43:19.117Z</time></trkpt><trkpt lat="42.150245" lon="11.96913"><ele>174.0</ele><time>2026-04-04T09:43:20.115Z</time></trkpt><trkpt lat="42.1501183" lon="11.96924"><ele>174.0</ele><time>2026-04-04T09:43:21.119Z</time></trkpt><trkpt lat="42.1500033" lon="11.9693517"><ele>174.0</ele><time>2026-04-04T09:43:22.112Z</time></trkpt><trkpt lat="42.149895" lon="11.9694767"><ele>171.33333333333334</ele><time>2026-04-04T09:43:23.117Z</time></trkpt><trkpt lat="42.1497883" lon="11.9696183"><ele>168.66666666666669</ele><time>2026-04-04T09:43:24.114Z</time></trkpt><trkpt lat="42.1496833" lon="11.96977"><ele>166.0</ele><time>2026-04-04T09:43:25.116Z</time></trkpt><trkpt lat="42.1495833" lon="11.9699383"><ele>167.0</ele><time>2026-04-04T09:43:26.118Z</time></trkpt><trkpt lat="42.1494833" lon="11.9701117"><ele>168.0</ele><time>2026-04-04T09:43:27.119Z</time></trkpt><trkpt lat="42.1493833" lon="11.970285"><ele>169.0</ele><time>2026-04-04T09:43:28.116Z</time></trkpt><trkpt lat="42.1492783" lon="11.9704583"><ele>169.0</ele><time>2026-04-04T09:43:29.117Z</time></trkpt><trkpt lat="42.1491733" lon="11.9706333"><ele>169.0</ele><time>2026-04-04T09:43:30.115Z</time></trkpt><trkpt lat="42.149065" lon="11.9708083"><ele>169.0</ele><time>2026-04-04T09:43:31.115Z</time></trkpt><trkpt lat="42.148955" lon="11.9709867"><ele>165.33333333333334</ele><time>2026-04-04T09:43:32.118Z</time></trkpt><trkpt lat="42.148845" lon="11.9711667"><ele>161.66666666666666</ele><time>2026-04-04T09:43:33.116Z</time></trkpt><trkpt lat="42.1487333" lon="11.9713483"><ele>158.0</ele><time>2026-04-04T09:43:34.114Z</time></trkpt><trkpt lat="42.1486283" lon="11.9715233"><ele>158.0</ele><time>2026-04-04T09:43:35.116Z</time></trkpt><trkpt lat="42.148525" lon="11.9716933"><ele>158.0</ele><time>2026-04-04T09:43:36.118Z</time></trkpt><trkpt lat="42.14842" lon="11.971865"><ele>158.0</ele><time>2026-04-04T09:43:37.111Z</time></trkpt><trkpt lat="42.1483167" lon="11.9720417"><ele>158.0</ele><time>2026-04-04T09:43:38.113Z</time></trkpt><trkpt lat="42.1482117" lon="11.9722083"><ele>158.0</ele><time>2026-04-04T09:43:39.115Z</time></trkpt><trkpt lat="42.1481083" lon="11.97238"><ele>158.0</ele><time>2026-04-04T09:43:40.118Z</time></trkpt><trkpt lat="42.1480033" lon="11.9725517"><ele>155.33333333333331</ele><time>2026-04-04T09:43:41.115Z</time></trkpt><trkpt lat="42.1479" lon="11.9727183"><ele>152.66666666666666</ele><time>2026-04-04T09:43:42.115Z</time></trkpt><trkpt lat="42.147795" lon="11.972885"><ele>150.0</ele><time>2026-04-04T09:43:43.119Z</time></trkpt><trkpt lat="42.1476883" lon="11.9730533"><ele>150.0</ele><time>2026-04-04T09:43:44.116Z</time></trkpt><trkpt lat="42.1475833" lon="11.9732267"><ele>150.0</ele><time>2026-04-04T09:43:45.119Z</time></trkpt><trkpt lat="42.1474783" lon="11.973395"><ele>150.0</ele><time>2026-04-04T09:43:46.115Z</time></trkpt><trkpt lat="42.1473783" lon="11.973555"><ele>148.75</ele><time>2026-04-04T09:43:47.116Z</time></trkpt><trkpt lat="42.1472917" lon="11.973715"><ele>147.5</ele><time>2026-04-04T09:43:48.114Z</time></trkpt><trkpt lat="42.147205" lon="11.9738783"><ele>146.25</ele><time>2026-04-04T09:43:49.116Z</time></trkpt><trkpt lat="42.1471217" lon="11.9740333"><ele>145.0</ele><time>2026-04-04T09:43:50.115Z</time></trkpt><trkpt lat="42.1470433" lon="11.974185"><ele>145.25</ele><time>2026-04-04T09:43:51.116Z</time></trkpt><trkpt lat="42.1469733" lon="11.9743367"><ele>145.5</ele><time>2026-04-04T09:43:52.114Z</time></trkpt><trkpt lat="42.1469067" lon="11.9744883"><ele>145.75</ele><time>2026-04-04T09:43:53.111Z</time></trkpt><trkpt lat="42.1468467" lon="11.9746433"><ele>146.0</ele><time>2026-04-04T09:43:54.111Z</time></trkpt><trkpt lat="42.14679" lon="11.9748"><ele>146.0</ele><time>2026-04-04T09:43:55.113Z</time></trkpt><trkpt lat="42.146735" lon="11.9749633"><ele>146.0</ele><time>2026-04-04T09:43:56.114Z</time></trkpt><trkpt lat="42.146685" lon="11.9751283"><ele>146.0</ele><time>2026-04-04T09:43:57.115Z</time></trkpt><trkpt lat="42.1466333" lon="11.9753017"><ele>146.0</ele><time>2026-04-04T09:43:58.117Z</time></trkpt><trkpt lat="42.1465867" lon="11.9754717"><ele>145.75</ele><time>2026-04-04T09:43:59.112Z</time></trkpt><trkpt lat="42.146545" lon="11.975635"><ele>145.5</ele><time>2026-04-04T09:44:00.116Z</time></trkpt><trkpt lat="42.1465083" lon="11.9757967"><ele>145.25</ele><time>2026-04-04T09:44:01.115Z</time></trkpt><trkpt lat="42.1464767" lon="11.9759567"><ele>145.0</ele><time>2026-04-04T09:44:02.116Z</time></trkpt><trkpt lat="42.14645" lon="11.9761233"><ele>144.25</ele><time>2026-04-04T09:44:03.113Z</time></trkpt><trkpt lat="42.146425" lon="11.9762983"><ele>143.5</ele><time>2026-04-04T09:44:04.116Z</time></trkpt><trkpt lat="42.1463933" lon="11.9764817"><ele>142.75</ele><time>2026-04-04T09:44:05.115Z</time></trkpt><trkpt lat="42.1463617" lon="11.9766683"><ele>142.0</ele><time>2026-04-04T09:44:06.115Z</time></trkpt><trkpt lat="42.1463267" lon="11.97686"><ele>141.5</ele><time>2026-04-04T09:44:07.116Z</time></trkpt><trkpt lat="42.1462867" lon="11.97706"><ele>141.0</ele><time>2026-04-04T09:44:08.114Z</time></trkpt><trkpt lat="42.1462517" lon="11.9772517"><ele>140.5</ele><time>2026-04-04T09:44:09.117Z</time></trkpt><trkpt lat="42.146215" lon="11.977445"><ele>140.0</ele><time>2026-04-04T09:44:10.117Z</time></trkpt><trkpt lat="42.1461783" lon="11.97764"><ele>139.33333333333331</ele><time>2026-04-04T09:44:11.117Z</time></trkpt><trkpt lat="42.14614" lon="11.977835"><ele>138.66666666666666</ele><time>2026-04-04T09:44:12.115Z</time></trkpt><trkpt lat="42.1461017" lon="11.97803"><ele>138.0</ele><time>2026-04-04T09:44:13.119Z</time></trkpt><trkpt lat="42.1460617" lon="11.9782283"><ele>138.0</ele><time>2026-04-04T09:44:14.118Z</time></trkpt><trkpt lat="42.1460233" lon="11.9784217"><ele>138.0</ele><time>2026-04-04T09:44:15.119Z</time></trkpt><trkpt lat="42.1459817" lon="11.978615"><ele>138.0</ele><time>2026-04-04T09:44:16.115Z</time></trkpt><trkpt lat="42.1459383" lon="11.9788033"><ele>138.0</ele><time>2026-04-04T09:44:17.114Z</time></trkpt><trkpt lat="42.1458933" lon="11.97898"><ele>138.0</ele><time>2026-04-04T09:44:18.118Z</time></trkpt><trkpt lat="42.1458483" lon="11.979155"><ele>138.0</ele><time>2026-04-04T09:44:19.117Z</time></trkpt><trkpt lat="42.1458017" lon="11.9793317"><ele>138.0</ele><time>2026-04-04T09:44:20.115Z</time></trkpt><trkpt lat="42.1457517" lon="11.9794967"><ele>138.0</ele><time>2026-04-04T09:44:21.115Z</time></trkpt><trkpt lat="42.1457017" lon="11.97966"><ele>137.5</ele><time>2026-04-04T09:44:22.117Z</time></trkpt><trkpt lat="42.1456517" lon="11.9798217"><ele>137.0</ele><time>2026-04-04T09:44:23.114Z</time></trkpt><trkpt lat="42.1455983" lon="11.979985"><ele>136.5</ele><time>2026-04-04T09:44:24.114Z</time></trkpt><trkpt lat="42.1455417" lon="11.9801617"><ele>136.0</ele><time>2026-04-04T09:44:25.114Z</time></trkpt><trkpt lat="42.1454817" lon="11.9803383"><ele>135.75</ele><time>2026-04-04T09:44:26.117Z</time></trkpt><trkpt lat="42.14542" lon="11.9805233"><ele>135.5</ele><time>2026-04-04T09:44:27.114Z</time></trkpt><trkpt lat="42.1453567" lon="11.9807067"><ele>135.25</ele><time>2026-04-04T09:44:28.116Z</time></trkpt><trkpt lat="42.1452933" lon="11.9808867"><ele>135.0</ele><time>2026-04-04T09:44:29.113Z</time></trkpt><trkpt lat="42.1452317" lon="11.9810583"><ele>135.0</ele><time>2026-04-04T09:44:30.118Z</time></trkpt><trkpt lat="42.1451733" lon="11.9812233"><ele>135.0</ele><time>2026-04-04T09:44:31.119Z</time></trkpt><trkpt lat="42.1451183" lon="11.9813767"><ele>135.0</ele><time>2026-04-04T09:44:32.119Z</time></trkpt><trkpt lat="42.145065" lon="11.9815267"><ele>135.0</ele><time>2026-04-04T09:44:33.118Z</time></trkpt><trkpt lat="42.1450133" lon="11.9816733"><ele>135.0</ele><time>2026-04-04T09:44:34.116Z</time></trkpt><trkpt lat="42.1449683" lon="11.9818133"><ele>135.0</ele><time>2026-04-04T09:44:35.11Z</time></trkpt><trkpt lat="42.1449333" lon="11.98196"><ele>135.0</ele><time>2026-04-04T09:44:36.118Z</time></trkpt><trkpt lat="42.14491" lon="11.9821083"><ele>135.0</ele><time>2026-04-04T09:44:37.117Z</time></trkpt><trkpt lat="42.1449017" lon="11.9822617"><ele>135.0</ele><time>2026-04-04T09:44:38.118Z</time></trkpt><trkpt lat="42.1449033" lon="11.982425"><ele>135.0</ele><time>2026-04-04T09:44:39.118Z</time></trkpt><trkpt lat="42.1449183" lon="11.9825967"><ele>135.0</ele><time>2026-04-04T09:44:40.12Z</time></trkpt><trkpt lat="42.14494" lon="11.9827833"><ele>135.0</ele><time>2026-04-04T09:44:41.111Z</time></trkpt><trkpt lat="42.1449667" lon="11.98298"><ele>134.5</ele><time>2026-04-04T09:44:42.117Z</time></trkpt><trkpt lat="42.14499" lon="11.9831767"><ele>134.0</ele><time>2026-04-04T09:44:43.12Z</time></trkpt><trkpt lat="42.145015" lon="11.983365"><ele>133.5</ele><time>2026-04-04T09:44:44.116Z</time></trkpt><trkpt lat="42.145045" lon="11.9835367"><ele>133.0</ele><time>2026-04-04T09:44:45.118Z</time></trkpt><trkpt lat="42.14509" lon="11.9837"><ele>132.5</ele><time>2026-04-04T09:44:46.114Z</time></trkpt><trkpt lat="42.1451517" lon="11.9838583"><ele>132.0</ele><time>2026-04-04T09:44:47.115Z</time></trkpt><trkpt lat="42.14523" lon="11.98401"><ele>131.5</ele><time>2026-04-04T09:44:48.115Z</time></trkpt><trkpt lat="42.1453183" lon="11.984155"><ele>131.0</ele><time>2026-04-04T09:44:49.119Z</time></trkpt><trkpt lat="42.1454183" lon="11.9842983"><ele>131.0</ele><time>2026-04-04T09:44:50.11Z</time></trkpt><trkpt lat="42.1455267" lon="11.9844383"><ele>131.0</ele><time>2026-04-04T09:44:51.12Z</time></trkpt><trkpt lat="42.1456333" lon="11.984575"><ele>131.0</ele><time>2026-04-04T09:44:52.116Z</time></trkpt><trkpt lat="42.1457383" lon="11.98471"><ele>131.0</ele><time>2026-04-04T09:44:53.116Z</time></trkpt><trkpt lat="42.1458417" lon="11.9848383"><ele>131.0</ele><time>2026-04-04T09:44:54.113Z</time></trkpt><trkpt lat="42.1459433" lon="11.9849483"><ele>131.0</ele><time>2026-04-04T09:44:55.113Z</time></trkpt><trkpt lat="42.1460383" lon="11.9850467"><ele>131.0</ele><time>2026-04-04T09:44:56.117Z</time></trkpt><trkpt lat="42.1461317" lon="11.985135"><ele>131.0</ele><time>2026-04-04T09:44:57.117Z</time></trkpt><trkpt lat="42.1462217" lon="11.98521"><ele>131.0</ele><time>2026-04-04T09:44:58.116Z</time></trkpt><trkpt lat="42.1463133" lon="11.9852817"><ele>131.0</ele><time>2026-04-04T09:44:59.114Z</time></trkpt><trkpt lat="42.1464017" lon="11.9853567"><ele>131.0</ele><time>2026-04-04T09:45:00.114Z</time></trkpt><trkpt lat="42.1464917" lon="11.9854367"><ele>131.0</ele><time>2026-04-04T09:45:01.114Z</time></trkpt><trkpt lat="42.14656" lon="11.9855317"><ele>131.0</ele><time>2026-04-04T09:45:02.118Z</time></trkpt><trkpt lat="42.1466117" lon="11.98564"><ele>132.4</ele><time>2026-04-04T09:45:03.114Z</time></trkpt><trkpt lat="42.146645" lon="11.9857683"><ele>133.8</ele><time>2026-04-04T09:45:04.109Z</time></trkpt><trkpt lat="42.1466667" lon="11.985905"><ele>135.20000000000002</ele><time>2026-04-04T09:45:05.113Z</time></trkpt><trkpt lat="42.1466833" lon="11.9860367"><ele>136.6</ele><time>2026-04-04T09:45:06.116Z</time></trkpt><trkpt lat="42.1467" lon="11.9861717"><ele>138.0</ele><time>2026-04-04T09:45:07.115Z</time></trkpt><trkpt lat="42.1467233" lon="11.9863033"><ele>138.0</ele><time>2026-04-04T09:45:08.11Z</time></trkpt><trkpt lat="42.1467617" lon="11.9864267"><ele>138.0</ele><time>2026-04-04T09:45:09.117Z</time></trkpt><trkpt lat="42.1468233" lon="11.98655"><ele>138.0</ele><time>2026-04-04T09:45:10.116Z</time></trkpt><trkpt lat="42.1469017" lon="11.98667"><ele>138.0</ele><time>2026-04-04T09:45:11.115Z</time></trkpt><trkpt lat="42.1469967" lon="11.9867817"><ele>137.25</ele><time>2026-04-04T09:45:12.113Z</time></trkpt><trkpt lat="42.147095" lon="11.9868933"><ele>136.5</ele><time>2026-04-04T09:45:13.114Z</time></trkpt><trkpt lat="42.1472" lon="11.987005"><ele>135.75</ele><time>2026-04-04T09:45:14.114Z</time></trkpt><trkpt lat="42.1472967" lon="11.98713"><ele>135.0</ele><time>2026-04-04T09:45:15.114Z</time></trkpt><trkpt lat="42.1473683" lon="11.9872767"><ele>133.33333333333334</ele><time>2026-04-04T09:45:16.114Z</time></trkpt><trkpt lat="42.1474467" lon="11.98742"><ele>131.66666666666669</ele><time>2026-04-04T09:45:17.217Z</time></trkpt><trkpt lat="42.1475883" lon="11.9877367"><ele>130.0</ele><time>2026-04-04T09:45:19.114Z</time></trkpt><trkpt lat="42.1476583" lon="11.9879083"><ele>130.0</ele><time>2026-04-04T09:45:20.115Z</time></trkpt><trkpt lat="42.1477317" lon="11.988085"><ele>130.0</ele><time>2026-04-04T09:45:21.114Z</time></trkpt><trkpt lat="42.1478083" lon="11.98826"><ele>130.0</ele><time>2026-04-04T09:45:22.113Z</time></trkpt><trkpt lat="42.147885" lon="11.9884317"><ele>130.0</ele><time>2026-04-04T09:45:23.114Z</time></trkpt><trkpt lat="42.1479633" lon="11.9885883"><ele>130.0</ele><time>2026-04-04T09:45:24.113Z</time></trkpt><trkpt lat="42.1480383" lon="11.9887433"><ele>130.0</ele><time>2026-04-04T09:45:25.116Z</time></trkpt><trkpt lat="42.1481167" lon="11.9888917"><ele>130.0</ele><time>2026-04-04T09:45:26.113Z</time></trkpt><trkpt lat="42.1481967" lon="11.98903"><ele>130.0</ele><time>2026-04-04T09:45:27.112Z</time></trkpt><trkpt lat="42.14829" lon="11.9891567"><ele>128.5</ele><time>2026-04-04T09:45:28.112Z</time></trkpt><trkpt lat="42.148395" lon="11.9892717"><ele>127.0</ele><time>2026-04-04T09:45:29.119Z</time></trkpt><trkpt lat="42.14851" lon="11.9893933"><ele>125.5</ele><time>2026-04-04T09:45:30.117Z</time></trkpt><trkpt lat="42.14864" lon="11.9895067"><ele>124.0</ele><time>2026-04-04T09:45:31.116Z</time></trkpt><trkpt lat="42.1487717" lon="11.9896233"><ele>124.0</ele><time>2026-04-04T09:45:32.115Z</time></trkpt><trkpt lat="42.1489" lon="11.98974"><ele>124.0</ele><time>2026-04-04T09:45:33.112Z</time></trkpt><trkpt lat="42.1490233" lon="11.98985"><ele>124.0</ele><time>2026-04-04T09:45:34.116Z</time></trkpt><trkpt lat="42.149145" lon="11.98996"><ele>124.0</ele><time>2026-04-04T09:45:35.115Z</time></trkpt><trkpt lat="42.149265" lon="11.99007"><ele>124.0</ele><time>2026-04-04T09:45:36.114Z</time></trkpt><trkpt lat="42.1493833" lon="11.9901783"><ele>124.0</ele><time>2026-04-04T09:45:37.117Z</time></trkpt><trkpt lat="42.149495" lon="11.9902733"><ele>124.0</ele><time>2026-04-04T09:45:38.114Z</time></trkpt><trkpt lat="42.1495983" lon="11.9903667"><ele>124.0</ele><time>2026-04-04T09:45:39.118Z</time></trkpt><trkpt lat="42.1496867" lon="11.9904683"><ele>124.0</ele><time>2026-04-04T09:45:40.116Z</time></trkpt><trkpt lat="42.14975" lon="11.9905883"><ele>124.0</ele><time>2026-04-04T09:45:41.117Z</time></trkpt><trkpt lat="42.1497917" lon="11.9907233"><ele>124.0</ele><time>2026-04-04T09:45:42.114Z</time></trkpt><trkpt lat="42.149815" lon="11.9908683"><ele>124.0</ele><time>2026-04-04T09:45:43.114Z</time></trkpt><trkpt lat="42.1498283" lon="11.9910217"><ele>124.0</ele><time>2026-04-04T09:45:44.115Z</time></trkpt><trkpt lat="42.1498317" lon="11.9911867"><ele>124.0</ele><time>2026-04-04T09:45:45.117Z</time></trkpt><trkpt lat="42.1498133" lon="11.9913567"><ele>124.0</ele><time>2026-04-04T09:45:46.117Z</time></trkpt><trkpt lat="42.1497833" lon="11.9915383"><ele>124.0</ele><time>2026-04-04T09:45:47.115Z</time></trkpt><trkpt lat="42.149755" lon="11.991735"><ele>124.0</ele><time>2026-04-04T09:45:48.117Z</time></trkpt><trkpt lat="42.1497233" lon="11.9919317"><ele>124.33333333333334</ele><time>2026-04-04T09:45:49.118Z</time></trkpt><trkpt lat="42.149685" lon="11.992135"><ele>124.66666666666666</ele><time>2026-04-04T09:45:50.119Z</time></trkpt><trkpt lat="42.149645" lon="11.9923367"><ele>125.0</ele><time>2026-04-04T09:45:51.119Z</time></trkpt><trkpt lat="42.1496067" lon="11.9925383"><ele>125.33333333333333</ele><time>2026-04-04T09:45:52.116Z</time></trkpt><trkpt lat="42.14957" lon="11.9927383"><ele>125.66666666666666</ele><time>2026-04-04T09:45:53.116Z</time></trkpt><trkpt lat="42.149525" lon="11.9929333"><ele>126.0</ele><time>2026-04-04T09:45:54.114Z</time></trkpt><trkpt lat="42.1494783" lon="11.9931217"><ele>126.0</ele><time>2026-04-04T09:45:55.117Z</time></trkpt><trkpt lat="42.1494217" lon="11.993305"><ele>126.0</ele><time>2026-04-04T09:45:56.117Z</time></trkpt><trkpt lat="42.1493567" lon="11.9934917"><ele>126.0</ele><time>2026-04-04T09:45:57.116Z</time></trkpt><trkpt lat="42.1492883" lon="11.9936683"><ele>126.0</ele><time>2026-04-04T09:45:58.119Z</time></trkpt><trkpt lat="42.14923" lon="11.9938367"><ele>126.0</ele><time>2026-04-04T09:45:59.116Z</time></trkpt><trkpt lat="42.149185" lon="11.99399"><ele>126.0</ele><time>2026-04-04T09:46:00.113Z</time></trkpt><trkpt lat="42.149145" lon="11.9941217"><ele>126.0</ele><time>2026-04-04T09:46:01.115Z</time></trkpt><trkpt lat="42.14912" lon="11.9942517"><ele>126.0</ele><time>2026-04-04T09:46:02.118Z</time></trkpt><trkpt lat="42.1491" lon="11.9943817"><ele>126.0</ele><time>2026-04-04T09:46:03.108Z</time></trkpt><trkpt lat="42.1490967" lon="11.994515"><ele>125.4</ele><time>2026-04-04T09:46:04.118Z</time></trkpt><trkpt lat="42.1491033" lon="11.99464"><ele>124.8</ele><time>2026-04-04T09:46:05.114Z</time></trkpt><trkpt lat="42.149135" lon="11.9947567"><ele>124.20000000000002</ele><time>2026-04-04T09:46:06.114Z</time></trkpt><trkpt lat="42.149185" lon="11.9948683"><ele>123.60000000000001</ele><time>2026-04-04T09:46:07.114Z</time></trkpt><trkpt lat="42.1492583" lon="11.9949767"><ele>123.0</ele><time>2026-04-04T09:46:08.116Z</time></trkpt><trkpt lat="42.149345" lon="11.9950917"><ele>121.75</ele><time>2026-04-04T09:46:09.12Z</time></trkpt><trkpt lat="42.14944" lon="11.9952183"><ele>120.5</ele><time>2026-04-04T09:46:10.118Z</time></trkpt><trkpt lat="42.14953" lon="11.9953567"><ele>119.25</ele><time>2026-04-04T09:46:11.109Z</time></trkpt><trkpt lat="42.1496167" lon="11.9955033"><ele>118.0</ele><time>2026-04-04T09:46:12.113Z</time></trkpt><trkpt lat="42.14969" lon="11.9956767"><ele>118.75</ele><time>2026-04-04T09:46:13.114Z</time></trkpt><trkpt lat="42.1497467" lon="11.9958533"><ele>119.5</ele><time>2026-04-04T09:46:14.108Z</time></trkpt><trkpt lat="42.1498033" lon="11.9960417"><ele>120.25</ele><time>2026-04-04T09:46:15.118Z</time></trkpt><trkpt lat="42.14986" lon="11.99623"><ele>121.0</ele><time>2026-04-04T09:46:16.119Z</time></trkpt><trkpt lat="42.1499183" lon="11.9964267"><ele>121.0</ele><time>2026-04-04T09:46:17.116Z</time></trkpt><trkpt lat="42.1499783" lon="11.9966267"><ele>121.0</ele><time>2026-04-04T09:46:18.115Z</time></trkpt><trkpt lat="42.1500433" lon="11.99683"><ele>121.0</ele><time>2026-04-04T09:46:19.114Z</time></trkpt><trkpt lat="42.1501033" lon="11.9970367"><ele>121.33333333333334</ele><time>2026-04-04T09:46:20.115Z</time></trkpt><trkpt lat="42.1501567" lon="11.9972367"><ele>121.66666666666666</ele><time>2026-04-04T09:46:21.118Z</time></trkpt><trkpt lat="42.15021" lon="11.9974267"><ele>122.0</ele><time>2026-04-04T09:46:22.118Z</time></trkpt><trkpt lat="42.1502617" lon="11.997615"><ele>122.33333333333333</ele><time>2026-04-04T09:46:23.115Z</time></trkpt><trkpt lat="42.1503133" lon="11.9978167"><ele>122.66666666666666</ele><time>2026-04-04T09:46:24.116Z</time></trkpt><trkpt lat="42.1503567" lon="11.998015"><ele>123.0</ele><time>2026-04-04T09:46:25.116Z</time></trkpt><trkpt lat="42.1503867" lon="11.9982167"><ele>122.0</ele><time>2026-04-04T09:46:26.115Z</time></trkpt><trkpt lat="42.15041" lon="11.9984233"><ele>121.0</ele><time>2026-04-04T09:46:27.116Z</time></trkpt><trkpt lat="42.1504317" lon="11.998625"><ele>120.0</ele><time>2026-04-04T09:46:28.115Z</time></trkpt><trkpt lat="42.1504567" lon="11.9988183"><ele>120.0</ele><time>2026-04-04T09:46:29.111Z</time></trkpt><trkpt lat="42.1504883" lon="11.99901"><ele>120.0</ele><time>2026-04-04T09:46:30.112Z</time></trkpt><trkpt lat="42.1505183" lon="11.999205"><ele>120.0</ele><time>2026-04-04T09:46:31.116Z</time></trkpt><trkpt lat="42.1505533" lon="11.9993917"><ele>120.0</ele><time>2026-04-04T09:46:32.115Z</time></trkpt><trkpt lat="42.1505933" lon="11.9995833"><ele>120.0</ele><time>2026-04-04T09:46:33.116Z</time></trkpt><trkpt lat="42.1506417" lon="11.9997733"><ele>120.0</ele><time>2026-04-04T09:46:34.113Z</time></trkpt><trkpt lat="42.1507017" lon="11.9999583"><ele>120.0</ele><time>2026-04-04T09:46:35.117Z</time></trkpt><trkpt lat="42.15077" lon="12.0001367"><ele>120.0</ele><time>2026-04-04T09:46:36.116Z</time></trkpt><trkpt lat="42.150845" lon="12.000315"><ele>120.33333333333334</ele><time>2026-04-04T09:46:37.116Z</time></trkpt><trkpt lat="42.15093" lon="12.000495"><ele>120.66666666666667</ele><time>2026-04-04T09:46:38.117Z</time></trkpt><trkpt lat="42.151015" lon="12.00067"><ele>121.0</ele><time>2026-04-04T09:46:39.115Z</time></trkpt><trkpt lat="42.1511033" lon="12.0008433"><ele>119.75</ele><time>2026-04-04T09:46:40.116Z</time></trkpt><trkpt lat="42.151185" lon="12.0010067"><ele>118.5</ele><time>2026-04-04T09:46:41.115Z</time></trkpt><trkpt lat="42.1512583" lon="12.001175"><ele>117.25</ele><time>2026-04-04T09:46:42.114Z</time></trkpt><trkpt lat="42.1513367" lon="12.001345"><ele>116.0</ele><time>2026-04-04T09:46:43.117Z</time></trkpt><trkpt lat="42.151415" lon="12.0015167"><ele>116.25</ele><time>2026-04-04T09:46:44.116Z</time></trkpt><trkpt lat="42.1514783" lon="12.0016933"><ele>116.5</ele><time>2026-04-04T09:46:45.115Z</time></trkpt><trkpt lat="42.1515233" lon="12.0018783"><ele>116.75</ele><time>2026-04-04T09:46:46.114Z</time></trkpt><trkpt lat="42.15156" lon="12.0020717"><ele>117.0</ele><time>2026-04-04T09:46:47.115Z</time></trkpt><trkpt lat="42.1515883" lon="12.0022667"><ele>117.5</ele><time>2026-04-04T09:46:48.118Z</time></trkpt><trkpt lat="42.1516183" lon="12.002455"><ele>118.0</ele><time>2026-04-04T09:46:49.11Z</time></trkpt><trkpt lat="42.1516533" lon="12.00265"><ele>118.5</ele><time>2026-04-04T09:46:50.118Z</time></trkpt><trkpt lat="42.1516967" lon="12.0028517"><ele>119.0</ele><time>2026-04-04T09:46:51.116Z</time></trkpt><trkpt lat="42.1517417" lon="12.0030533"><ele>119.0</ele><time>2026-04-04T09:46:52.118Z</time></trkpt><trkpt lat="42.1517933" lon="12.0032567"><ele>119.0</ele><time>2026-04-04T09:46:53.117Z</time></trkpt><trkpt lat="42.1518483" lon="12.0034567"><ele>119.0</ele><time>2026-04-04T09:46:54.118Z</time></trkpt><trkpt lat="42.1519" lon="12.003655"><ele>118.0</ele><time>2026-04-04T09:46:55.12Z</time></trkpt><trkpt lat="42.15195" lon="12.0038533"><ele>117.0</ele><time>2026-04-04T09:46:56.114Z</time></trkpt><trkpt lat="42.1519967" lon="12.0040483"><ele>116.0</ele><time>2026-04-04T09:46:57.118Z</time></trkpt><trkpt lat="42.1520367" lon="12.004245"><ele>116.0</ele><time>2026-04-04T09:46:58.115Z</time></trkpt><trkpt lat="42.1520733" lon="12.0044433"><ele>116.0</ele><time>2026-04-04T09:46:59.114Z</time></trkpt><trkpt lat="42.1520933" lon="12.0046483"><ele>116.0</ele><time>2026-04-04T09:47:00.116Z</time></trkpt><trkpt lat="42.1520917" lon="12.0048467"><ele>116.5</ele><time>2026-04-04T09:47:01.114Z</time></trkpt><trkpt lat="42.1520717" lon="12.0050267"><ele>117.0</ele><time>2026-04-04T09:47:02.116Z</time></trkpt><trkpt lat="42.1520417" lon="12.005205"><ele>117.5</ele><time>2026-04-04T09:47:03.119Z</time></trkpt><trkpt lat="42.152015" lon="12.0053833"><ele>118.0</ele><time>2026-04-04T09:47:04.116Z</time></trkpt><trkpt lat="42.152005" lon="12.0055567"><ele>118.0</ele><time>2026-04-04T09:47:05.118Z</time></trkpt><trkpt lat="42.15201" lon="12.0057233"><ele>118.0</ele><time>2026-04-04T09:47:06.118Z</time></trkpt><trkpt lat="42.1520383" lon="12.0059017"><ele>118.0</ele><time>2026-04-04T09:47:07.116Z</time></trkpt><trkpt lat="42.15208" lon="12.00608"><ele>118.0</ele><time>2026-04-04T09:47:08.118Z</time></trkpt><trkpt lat="42.152135" lon="12.0062583"><ele>117.75</ele><time>2026-04-04T09:47:09.115Z</time></trkpt><trkpt lat="42.1521883" lon="12.006435"><ele>117.5</ele><time>2026-04-04T09:47:10.112Z</time></trkpt><trkpt lat="42.152235" lon="12.0066167"><ele>117.25</ele><time>2026-04-04T09:47:11.115Z</time></trkpt><trkpt lat="42.1522817" lon="12.0068"><ele>117.0</ele><time>2026-04-04T09:47:12.115Z</time></trkpt><trkpt lat="42.1523367" lon="12.0069867"><ele>117.5</ele><time>2026-04-04T09:47:13.116Z</time></trkpt><trkpt lat="42.1524033" lon="12.0071617"><ele>118.0</ele><time>2026-04-04T09:47:14.118Z</time></trkpt><trkpt lat="42.1524717" lon="12.0073333"><ele>118.5</ele><time>2026-04-04T09:47:15.118Z</time></trkpt><trkpt lat="42.152545" lon="12.007495"><ele>119.0</ele><time>2026-04-04T09:47:16.115Z</time></trkpt><trkpt lat="42.15262" lon="12.007645"><ele>118.0</ele><time>2026-04-04T09:47:17.114Z</time></trkpt><trkpt lat="42.1526783" lon="12.00779"><ele>117.0</ele><time>2026-04-04T09:47:18.117Z</time></trkpt><trkpt lat="42.1527183" lon="12.0079367"><ele>116.0</ele><time>2026-04-04T09:47:19.118Z</time></trkpt><trkpt lat="42.1527367" lon="12.008095"><ele>115.0</ele><time>2026-04-04T09:47:20.122Z</time></trkpt><trkpt lat="42.1527417" lon="12.0082517"><ele>114.75</ele><time>2026-04-04T09:47:21.116Z</time></trkpt><trkpt lat="42.152725" lon="12.0084183"><ele>114.5</ele><time>2026-04-04T09:47:22.115Z</time></trkpt><trkpt lat="42.1527" lon="12.0086017"><ele>114.25</ele><time>2026-04-04T09:47:23.117Z</time></trkpt><trkpt lat="42.152665" lon="12.008795"><ele>114.0</ele><time>2026-04-04T09:47:24.12Z</time></trkpt><trkpt lat="42.1526283" lon="12.00899"><ele>115.0</ele><time>2026-04-04T09:47:25.117Z</time></trkpt><trkpt lat="42.1525917" lon="12.0091917"><ele>116.0</ele><time>2026-04-04T09:47:26.121Z</time></trkpt><trkpt lat="42.1525533" lon="12.0093983"><ele>117.0</ele><time>2026-04-04T09:47:27.118Z</time></trkpt><trkpt lat="42.152515" lon="12.00961"><ele>117.0</ele><time>2026-04-04T09:47:28.115Z</time></trkpt><trkpt lat="42.1524717" lon="12.0098267"><ele>117.0</ele><time>2026-04-04T09:47:29.117Z</time></trkpt><trkpt lat="42.1524267" lon="12.01005"><ele>117.0</ele><time>2026-04-04T09:47:30.113Z</time></trkpt><trkpt lat="42.1523783" lon="12.010275"><ele>121.33333333333334</ele><time>2026-04-04T09:47:31.114Z</time></trkpt><trkpt lat="42.1523333" lon="12.0105"><ele>125.66666666666667</ele><time>2026-04-04T09:47:32.118Z</time></trkpt><trkpt lat="42.152295" lon="12.010715"><ele>130.0</ele><time>2026-04-04T09:47:33.12Z</time></trkpt><trkpt lat="42.152255" lon="12.0109183"><ele>130.0</ele><time>2026-04-04T09:47:34.111Z</time></trkpt><trkpt lat="42.1522083" lon="12.011115"><ele>130.0</ele><time>2026-04-04T09:47:35.116Z</time></trkpt><trkpt lat="42.1521583" lon="12.011285"><ele>130.0</ele><time>2026-04-04T09:47:36.115Z</time></trkpt><trkpt lat="42.1521067" lon="12.0114383"><ele>130.0</ele><time>2026-04-04T09:47:37.117Z</time></trkpt><trkpt lat="42.1520383" lon="12.011575"><ele>127.75</ele><time>2026-04-04T09:47:38.115Z</time></trkpt><trkpt lat="42.1519633" lon="12.0117117"><ele>125.5</ele><time>2026-04-04T09:47:39.118Z</time></trkpt><trkpt lat="42.1518733" lon="12.0118483"><ele>123.25</ele><time>2026-04-04T09:47:40.115Z</time></trkpt><trkpt lat="42.1517783" lon="12.0119817"><ele>121.0</ele><time>2026-04-04T09:47:41.116Z</time></trkpt><trkpt lat="42.1516783" lon="12.0121133"><ele>121.0</ele><time>2026-04-04T09:47:42.115Z</time></trkpt><trkpt lat="42.1515767" lon="12.012255"><ele>121.0</ele><time>2026-04-04T09:47:43.117Z</time></trkpt><trkpt lat="42.1514717" lon="12.012395"><ele>121.0</ele><time>2026-04-04T09:47:44.115Z</time></trkpt><trkpt lat="42.151365" lon="12.01254"><ele>121.0</ele><time>2026-04-04T09:47:45.117Z</time></trkpt><trkpt lat="42.151265" lon="12.0126667"><ele>123.0</ele><time>2026-04-04T09:47:46.114Z</time></trkpt><trkpt lat="42.1511683" lon="12.0127817"><ele>125.0</ele><time>2026-04-04T09:47:47.114Z</time></trkpt><trkpt lat="42.1510633" lon="12.01288"><ele>127.0</ele><time>2026-04-04T09:47:48.118Z</time></trkpt><trkpt lat="42.1509517" lon="12.01296"><ele>129.0</ele><time>2026-04-04T09:47:49.116Z</time></trkpt><trkpt lat="42.150825" lon="12.01302"><ele>130.0</ele><time>2026-04-04T09:47:50.119Z</time></trkpt><trkpt lat="42.1506967" lon="12.0130433"><ele>131.0</ele><time>2026-04-04T09:47:51.117Z</time></trkpt><trkpt lat="42.1505633" lon="12.0130417"><ele>132.0</ele><time>2026-04-04T09:47:52.115Z</time></trkpt><trkpt lat="42.1504267" lon="12.0130167"><ele>133.0</ele><time>2026-04-04T09:47:53.114Z</time></trkpt><trkpt lat="42.1502967" lon="12.0129783"><ele>133.0</ele><time>2026-04-04T09:47:54.116Z</time></trkpt><trkpt lat="42.150175" lon="12.01293"><ele>133.0</ele><time>2026-04-04T09:47:55.118Z</time></trkpt><trkpt lat="42.15005" lon="12.0128733"><ele>133.0</ele><time>2026-04-04T09:47:56.116Z</time></trkpt><trkpt lat="42.14994" lon="12.0128117"><ele>133.0</ele><time>2026-04-04T09:47:57.117Z</time></trkpt><trkpt lat="42.149825" lon="12.012745"><ele>131.5</ele><time>2026-04-04T09:47:58.114Z</time></trkpt><trkpt lat="42.149705" lon="12.0127017"><ele>130.0</ele><time>2026-04-04T09:47:59.115Z</time></trkpt><trkpt lat="42.1495733" lon="12.0126783"><ele>128.5</ele><time>2026-04-04T09:48:00.118Z</time></trkpt><trkpt lat="42.1494383" lon="12.012675"><ele>127.0</ele><time>2026-04-04T09:48:01.118Z</time></trkpt><trkpt lat="42.149305" lon="12.0126917"><ele>127.0</ele><time>2026-04-04T09:48:02.115Z</time></trkpt><trkpt lat="42.1491667" lon="12.0127417"><ele>127.0</ele><time>2026-04-04T09:48:03.118Z</time></trkpt><trkpt lat="42.149025" lon="12.0127967"><ele>127.0</ele><time>2026-04-04T09:48:04.118Z</time></trkpt><trkpt lat="42.1488767" lon="12.0128567"><ele>127.0</ele><time>2026-04-04T09:48:05.116Z</time></trkpt><trkpt lat="42.1487333" lon="12.01293"><ele>126.33333333333334</ele><time>2026-04-04T09:48:06.118Z</time></trkpt><trkpt lat="42.14858" lon="12.0130117"><ele>125.66666666666666</ele><time>2026-04-04T09:48:07.117Z</time></trkpt><trkpt lat="42.14843" lon="12.0130967"><ele>125.0</ele><time>2026-04-04T09:48:08.116Z</time></trkpt><trkpt lat="42.1482817" lon="12.01318"><ele>124.0</ele><time>2026-04-04T09:48:09.118Z</time></trkpt><trkpt lat="42.1481367" lon="12.013255"><ele>123.0</ele><time>2026-04-04T09:48:10.115Z</time></trkpt><trkpt lat="42.1479967" lon="12.0133233"><ele>122.0</ele><time>2026-04-04T09:48:11.116Z</time></trkpt><trkpt lat="42.1478617" lon="12.013385"><ele>121.0</ele><time>2026-04-04T09:48:12.114Z</time></trkpt><trkpt lat="42.147725" lon="12.01344"><ele>121.0</ele><time>2026-04-04T09:48:13.117Z</time></trkpt><trkpt lat="42.1475967" lon="12.0134933"><ele>121.0</ele><time>2026-04-04T09:48:14.115Z</time></trkpt><trkpt lat="42.1474733" lon="12.01354"><ele>121.0</ele><time>2026-04-04T09:48:15.119Z</time></trkpt><trkpt lat="42.1473567" lon="12.01359"><ele>121.0</ele><time>2026-04-04T09:48:16.114Z</time></trkpt><trkpt lat="42.14724" lon="12.0136483"><ele>122.5</ele><time>2026-04-04T09:48:17.113Z</time></trkpt><trkpt lat="42.14712" lon="12.0137"><ele>124.0</ele><time>2026-04-04T09:48:18.117Z</time></trkpt><trkpt lat="42.1470033" lon="12.0137633"><ele>125.5</ele><time>2026-04-04T09:48:19.117Z</time></trkpt><trkpt lat="42.1468867" lon="12.0138367"><ele>127.0</ele><time>2026-04-04T09:48:20.118Z</time></trkpt><trkpt lat="42.14677" lon="12.0139233"><ele>127.0</ele><time>2026-04-04T09:48:21.118Z</time></trkpt><trkpt lat="42.1466517" lon="12.0140183"><ele>127.0</ele><time>2026-04-04T09:48:22.119Z</time></trkpt><trkpt lat="42.1465317" lon="12.0141217"><ele>127.0</ele><time>2026-04-04T09:48:23.113Z</time></trkpt><trkpt lat="42.146415" lon="12.01424"><ele>127.0</ele><time>2026-04-04T09:48:24.119Z</time></trkpt><trkpt lat="42.1462933" lon="12.0143717"><ele>124.66666666666667</ele><time>2026-04-04T09:48:25.115Z</time></trkpt><trkpt lat="42.1461717" lon="12.0145083"><ele>122.33333333333334</ele><time>2026-04-04T09:48:26.116Z</time></trkpt><trkpt lat="42.1460517" lon="12.01466"><ele>120.0</ele><time>2026-04-04T09:48:27.117Z</time></trkpt><trkpt lat="42.145935" lon="12.0148217"><ele>119.0</ele><time>2026-04-04T09:48:28.117Z</time></trkpt><trkpt lat="42.145815" lon="12.0149917"><ele>118.0</ele><time>2026-04-04T09:48:29.118Z</time></trkpt><trkpt lat="42.1457017" lon="12.0151583"><ele>117.0</ele><time>2026-04-04T09:48:30.115Z</time></trkpt><trkpt lat="42.1455883" lon="12.0153167"><ele>122.33333333333334</ele><time>2026-04-04T09:48:31.119Z</time></trkpt><trkpt lat="42.1454617" lon="12.01547"><ele>127.66666666666667</ele><time>2026-04-04T09:48:32.115Z</time></trkpt><trkpt lat="42.1453183" lon="12.0156117"><ele>133.0</ele><time>2026-04-04T09:48:33.115Z</time></trkpt><trkpt lat="42.1451683" lon="12.01573"><ele>130.66666666666669</ele><time>2026-04-04T09:48:34.115Z</time></trkpt><trkpt lat="42.1450167" lon="12.0158433"><ele>128.33333333333334</ele><time>2026-04-04T09:48:35.117Z</time></trkpt><trkpt lat="42.1448617" lon="12.015945"><ele>126.0</ele><time>2026-04-04T09:48:36.116Z</time></trkpt><trkpt lat="42.1447017" lon="12.016045"><ele>126.0</ele><time>2026-04-04T09:48:37.114Z</time></trkpt><trkpt lat="42.1445417" lon="12.01615"><ele>126.0</ele><time>2026-04-04T09:48:38.116Z</time></trkpt><trkpt lat="42.1443783" lon="12.0162517"><ele>126.0</ele><time>2026-04-04T09:48:39.118Z</time></trkpt><trkpt lat="42.1442183" lon="12.0163517"><ele>126.0</ele><time>2026-04-04T09:48:40.117Z</time></trkpt><trkpt lat="42.1440583" lon="12.01645"><ele>126.0</ele><time>2026-04-04T09:48:41.117Z</time></trkpt><trkpt lat="42.143905" lon="12.0165417"><ele>126.0</ele><time>2026-04-04T09:48:42.119Z</time></trkpt><trkpt lat="42.143755" lon="12.0166367"><ele>124.0</ele><time>2026-04-04T09:48:43.117Z</time></trkpt><trkpt lat="42.1436133" lon="12.01673"><ele>122.0</ele><time>2026-04-04T09:48:44.116Z</time></trkpt><trkpt lat="42.143475" lon="12.0168133"><ele>120.0</ele><time>2026-04-04T09:48:45.118Z</time></trkpt><trkpt lat="42.1433317" lon="12.0169"><ele>121.66666666666666</ele><time>2026-04-04T09:48:46.116Z</time></trkpt><trkpt lat="42.143185" lon="12.0169833"><ele>123.33333333333333</ele><time>2026-04-04T09:48:47.118Z</time></trkpt><trkpt lat="42.1430467" lon="12.017055"><ele>125.0</ele><time>2026-04-04T09:48:48.116Z</time></trkpt><trkpt lat="42.1429083" lon="12.017115"><ele>125.0</ele><time>2026-04-04T09:48:49.114Z</time></trkpt><trkpt lat="42.1427767" lon="12.017165"><ele>125.0</ele><time>2026-04-04T09:48:50.118Z</time></trkpt><trkpt lat="42.14265" lon="12.0172083"><ele>125.0</ele><time>2026-04-04T09:48:51.118Z</time></trkpt><trkpt lat="42.1425317" lon="12.0172467"><ele>125.0</ele><time>2026-04-04T09:48:52.115Z</time></trkpt><trkpt lat="42.1424233" lon="12.017285"><ele>124.5</ele><time>2026-04-04T09:48:53.116Z</time></trkpt><trkpt lat="42.142315" lon="12.0173333"><ele>124.0</ele><time>2026-04-04T09:48:54.114Z</time></trkpt><trkpt lat="42.1422083" lon="12.017405"><ele>123.5</ele><time>2026-04-04T09:48:55.118Z</time></trkpt><trkpt lat="42.1421167" lon="12.0175083"><ele>123.0</ele><time>2026-04-04T09:48:56.117Z</time></trkpt><trkpt lat="42.1420417" lon="12.0176333"><ele>121.25</ele><time>2026-04-04T09:48:57.108Z</time></trkpt><trkpt lat="42.1419783" lon="12.01777"><ele>119.5</ele><time>2026-04-04T09:48:58.112Z</time></trkpt><trkpt lat="42.1419367" lon="12.0179383"><ele>117.75</ele><time>2026-04-04T09:48:59.117Z</time></trkpt><trkpt lat="42.1418967" lon="12.018115"><ele>116.0</ele><time>2026-04-04T09:49:00.114Z</time></trkpt><trkpt lat="42.14186" lon="12.0182983"><ele>116.33333333333333</ele><time>2026-04-04T09:49:01.115Z</time></trkpt><trkpt lat="42.1418217" lon="12.0184967"><ele>116.66666666666666</ele><time>2026-04-04T09:49:02.114Z</time></trkpt><trkpt lat="42.1417817" lon="12.018705"><ele>117.0</ele><time>2026-04-04T09:49:03.118Z</time></trkpt><trkpt lat="42.1417417" lon="12.0189117"><ele>117.0</ele><time>2026-04-04T09:49:04.116Z</time></trkpt><trkpt lat="42.1417" lon="12.019125"><ele>117.0</ele><time>2026-04-04T09:49:05.114Z</time></trkpt><trkpt lat="42.141655" lon="12.0193317"><ele>117.0</ele><time>2026-04-04T09:49:06.119Z</time></trkpt><trkpt lat="42.14161" lon="12.01953"><ele>118.0</ele><time>2026-04-04T09:49:07.11Z</time></trkpt><trkpt lat="42.1415667" lon="12.0197117"><ele>119.0</ele><time>2026-04-04T09:49:08.114Z</time></trkpt><trkpt lat="42.1415067" lon="12.0198883"><ele>120.0</ele><time>2026-04-04T09:49:09.116Z</time></trkpt><trkpt lat="42.1414417" lon="12.0200417"><ele>121.0</ele><time>2026-04-04T09:49:10.114Z</time></trkpt><trkpt lat="42.14136" lon="12.020175"><ele>123.75</ele><time>2026-04-04T09:49:11.116Z</time></trkpt><trkpt lat="42.1412567" lon="12.02029"><ele>126.5</ele><time>2026-04-04T09:49:12.115Z</time></trkpt><trkpt lat="42.1411417" lon="12.0203933"><ele>129.25</ele><time>2026-04-04T09:49:13.118Z</time></trkpt><trkpt lat="42.141015" lon="12.0204867"><ele>132.0</ele><time>2026-04-04T09:49:14.115Z</time></trkpt><trkpt lat="42.1408817" lon="12.0205533"><ele>132.0</ele><time>2026-04-04T09:49:15.117Z</time></trkpt><trkpt lat="42.14074" lon="12.0206083"><ele>132.0</ele><time>2026-04-04T09:49:16.117Z</time></trkpt><trkpt lat="42.1405917" lon="12.0206483"><ele>132.0</ele><time>2026-04-04T09:49:17.115Z</time></trkpt><trkpt lat="42.140445" lon="12.0206667"><ele>132.0</ele><time>2026-04-04T09:49:18.118Z</time></trkpt><trkpt lat="42.1402983" lon="12.0206767"><ele>133.75</ele><time>2026-04-04T09:49:19.118Z</time></trkpt><trkpt lat="42.14016" lon="12.0206867"><ele>135.5</ele><time>2026-04-04T09:49:20.118Z</time></trkpt><trkpt lat="42.1400233" lon="12.0206967"><ele>137.25</ele><time>2026-04-04T09:49:21.119Z</time></trkpt><trkpt lat="42.1398867" lon="12.02072"><ele>139.0</ele><time>2026-04-04T09:49:22.115Z</time></trkpt><trkpt lat="42.13975" lon="12.0207667"><ele>136.0</ele><time>2026-04-04T09:49:23.111Z</time></trkpt><trkpt lat="42.1396117" lon="12.0208417"><ele>133.0</ele><time>2026-04-04T09:49:24.117Z</time></trkpt><trkpt lat="42.13947" lon="12.0209333"><ele>130.0</ele><time>2026-04-04T09:49:25.115Z</time></trkpt><trkpt lat="42.13933" lon="12.0210283"><ele>130.0</ele><time>2026-04-04T09:49:26.115Z</time></trkpt><trkpt lat="42.1391967" lon="12.0211267"><ele>130.0</ele><time>2026-04-04T09:49:27.118Z</time></trkpt><trkpt lat="42.1390717" lon="12.0212217"><ele>130.0</ele><time>2026-04-04T09:49:28.116Z</time></trkpt><trkpt lat="42.1389633" lon="12.0213233"><ele>130.0</ele><time>2026-04-04T09:49:29.119Z</time></trkpt><trkpt lat="42.138875" lon="12.0214333"><ele>129.0</ele><time>2026-04-04T09:49:30.114Z</time></trkpt><trkpt lat="42.1388" lon="12.0215567"><ele>128.0</ele><time>2026-04-04T09:49:31.114Z</time></trkpt><trkpt lat="42.1387417" lon="12.0216983"><ele>127.0</ele><time>2026-04-04T09:49:32.117Z</time></trkpt><trkpt lat="42.1387" lon="12.0218617"><ele>126.0</ele><time>2026-04-04T09:49:33.116Z</time></trkpt><trkpt lat="42.1386667" lon="12.0220383"><ele>126.0</ele><time>2026-04-04T09:49:34.117Z</time></trkpt><trkpt lat="42.1386333" lon="12.0222267"><ele>126.0</ele><time>2026-04-04T09:49:35.116Z</time></trkpt><trkpt lat="42.1386017" lon="12.0224283"><ele>126.0</ele><time>2026-04-04T09:49:36.11Z</time></trkpt><trkpt lat="42.1385683" lon="12.0226267"><ele>126.0</ele><time>2026-04-04T09:49:37.114Z</time></trkpt><trkpt lat="42.1385367" lon="12.0228217"><ele>125.25</ele><time>2026-04-04T09:49:38.115Z</time></trkpt><trkpt lat="42.1385083" lon="12.0230083"><ele>124.5</ele><time>2026-04-04T09:49:39.115Z</time></trkpt><trkpt lat="42.1384917" lon="12.0231733"><ele>123.75</ele><time>2026-04-04T09:49:40.114Z</time></trkpt><trkpt lat="42.1384867" lon="12.0233367"><ele>123.0</ele><time>2026-04-04T09:49:41.114Z</time></trkpt><trkpt lat="42.1384967" lon="12.0235067"><ele>123.0</ele><time>2026-04-04T09:49:42.117Z</time></trkpt><trkpt lat="42.1385267" lon="12.0236767"><ele>123.0</ele><time>2026-04-04T09:49:43.118Z</time></trkpt><trkpt lat="42.13858" lon="12.0238583"><ele>123.0</ele><time>2026-04-04T09:49:44.11Z</time></trkpt><trkpt lat="42.1386483" lon="12.024045"><ele>123.0</ele><time>2026-04-04T09:49:45.122Z</time></trkpt><trkpt lat="42.1387117" lon="12.0242283"><ele>123.66666666666666</ele><time>2026-04-04T09:49:46.114Z</time></trkpt><trkpt lat="42.13878" lon="12.024415"><ele>124.33333333333333</ele><time>2026-04-04T09:49:47.116Z</time></trkpt><trkpt lat="42.1388533" lon="12.02461"><ele>125.0</ele><time>2026-04-04T09:49:48.118Z</time></trkpt><trkpt lat="42.1389333" lon="12.0248"><ele>124.0</ele><time>2026-04-04T09:49:49.115Z</time></trkpt><trkpt lat="42.1390167" lon="12.0249933"><ele>123.0</ele><time>2026-04-04T09:49:50.118Z</time></trkpt><trkpt lat="42.1391083" lon="12.0251883"><ele>122.0</ele><time>2026-04-04T09:49:51.114Z</time></trkpt><trkpt lat="42.1392017" lon="12.025385"><ele>122.0</ele><time>2026-04-04T09:49:52.117Z</time></trkpt><trkpt lat="42.1392983" lon="12.025585"><ele>122.0</ele><time>2026-04-04T09:49:53.115Z</time></trkpt><trkpt lat="42.1393883" lon="12.0257933"><ele>122.0</ele><time>2026-04-04T09:49:54.117Z</time></trkpt><trkpt lat="42.1394783" lon="12.0260067"><ele>122.33333333333333</ele><time>2026-04-04T09:49:55.116Z</time></trkpt><trkpt lat="42.1395617" lon="12.0262217"><ele>122.66666666666666</ele><time>2026-04-04T09:49:56.118Z</time></trkpt><trkpt lat="42.1396433" lon="12.02643"><ele>123.0</ele><time>2026-04-04T09:49:57.108Z</time></trkpt><trkpt lat="42.1397267" lon="12.0266283"><ele>122.66666666666666</ele><time>2026-04-04T09:49:58.116Z</time></trkpt><trkpt lat="42.1398133" lon="12.0268233"><ele>122.33333333333333</ele><time>2026-04-04T09:49:59.116Z</time></trkpt><trkpt lat="42.1398883" lon="12.0270067"><ele>122.0</ele><time>2026-04-04T09:50:00.119Z</time></trkpt><trkpt lat="42.1399517" lon="12.0271917"><ele>122.0</ele><time>2026-04-04T09:50:01.114Z</time></trkpt><trkpt lat="42.1399967" lon="12.0273767"><ele>122.0</ele><time>2026-04-04T09:50:02.111Z</time></trkpt><trkpt lat="42.1400183" lon="12.0275667"><ele>122.0</ele><time>2026-04-04T09:50:03.115Z</time></trkpt><trkpt lat="42.1400233" lon="12.02776"><ele>122.0</ele><time>2026-04-04T09:50:04.117Z</time></trkpt><trkpt lat="42.1400183" lon="12.0279667"><ele>123.33333333333333</ele><time>2026-04-04T09:50:05.118Z</time></trkpt><trkpt lat="42.1400033" lon="12.0281767"><ele>124.66666666666666</ele><time>2026-04-04T09:50:06.113Z</time></trkpt><trkpt lat="42.1399933" lon="12.0283883"><ele>126.0</ele><time>2026-04-04T09:50:07.115Z</time></trkpt><trkpt lat="42.1399833" lon="12.0286017"><ele>126.0</ele><time>2026-04-04T09:50:08.116Z</time></trkpt><trkpt lat="42.1399717" lon="12.0288217"><ele>126.0</ele><time>2026-04-04T09:50:09.116Z</time></trkpt><trkpt lat="42.1399533" lon="12.0290433"><ele>126.0</ele><time>2026-04-04T09:50:10.117Z</time></trkpt><trkpt lat="42.1399333" lon="12.0292583"><ele>126.0</ele><time>2026-04-04T09:50:11.113Z</time></trkpt><trkpt lat="42.1399083" lon="12.02947"><ele>126.0</ele><time>2026-04-04T09:50:12.115Z</time></trkpt><trkpt lat="42.13987" lon="12.0296817"><ele>126.0</ele><time>2026-04-04T09:50:13.117Z</time></trkpt><trkpt lat="42.1398183" lon="12.0298933"><ele>131.0</ele><time>2026-04-04T09:50:14.116Z</time></trkpt><trkpt lat="42.1397583" lon="12.0301083"><ele>136.0</ele><time>2026-04-04T09:50:15.117Z</time></trkpt><trkpt lat="42.1396933" lon="12.030325"><ele>141.0</ele><time>2026-04-04T09:50:16.118Z</time></trkpt><trkpt lat="42.1396283" lon="12.0305383"><ele>141.0</ele><time>2026-04-04T09:50:17.116Z</time></trkpt><trkpt lat="42.13956" lon="12.030745"><ele>141.0</ele><time>2026-04-04T09:50:18.118Z</time></trkpt><trkpt lat="42.139495" lon="12.0309467"><ele>141.0</ele><time>2026-04-04T09:50:19.114Z</time></trkpt><trkpt lat="42.1394183" lon="12.03114"><ele>139.0</ele><time>2026-04-04T09:50:20.118Z</time></trkpt><trkpt lat="42.13933" lon="12.03133"><ele>137.0</ele><time>2026-04-04T09:50:21.114Z</time></trkpt><trkpt lat="42.1392267" lon="12.0315167"><ele>135.0</ele><time>2026-04-04T09:50:22.112Z</time></trkpt><trkpt lat="42.139115" lon="12.0317"><ele>136.33333333333334</ele><time>2026-04-04T09:50:23.117Z</time></trkpt><trkpt lat="42.138995" lon="12.0318833"><ele>137.66666666666669</ele><time>2026-04-04T09:50:24.106Z</time></trkpt><trkpt lat="42.1388717" lon="12.032075"><ele>139.0</ele><time>2026-04-04T09:50:25.119Z</time></trkpt><trkpt lat="42.13875" lon="12.032265"><ele>139.0</ele><time>2026-04-04T09:50:26.106Z</time></trkpt><trkpt lat="42.1386367" lon="12.0324433"><ele>139.0</ele><time>2026-04-04T09:50:27.116Z</time></trkpt><trkpt lat="42.13853" lon="12.0326133"><ele>139.0</ele><time>2026-04-04T09:50:28.116Z</time></trkpt><trkpt lat="42.1384283" lon="12.0327733"><ele>140.33333333333334</ele><time>2026-04-04T09:50:29.116Z</time></trkpt><trkpt lat="42.1383317" lon="12.032925"><ele>141.66666666666666</ele><time>2026-04-04T09:50:30.114Z</time></trkpt><trkpt lat="42.13823" lon="12.0330733"><ele>143.0</ele><time>2026-04-04T09:50:31.111Z</time></trkpt><trkpt lat="42.1381217" lon="12.0332167"><ele>139.66666666666666</ele><time>2026-04-04T09:50:32.115Z</time></trkpt><trkpt lat="42.1379917" lon="12.033345"><ele>136.33333333333334</ele><time>2026-04-04T09:50:33.117Z</time></trkpt><trkpt lat="42.1378567" lon="12.0334583"><ele>133.0</ele><time>2026-04-04T09:50:34.119Z</time></trkpt><trkpt lat="42.1377083" lon="12.033555"><ele>133.0</ele><time>2026-04-04T09:50:35.118Z</time></trkpt><trkpt lat="42.137555" lon="12.0336333"><ele>133.0</ele><time>2026-04-04T09:50:36.117Z</time></trkpt><trkpt lat="42.1374017" lon="12.0336967"><ele>133.0</ele><time>2026-04-04T09:50:37.119Z</time></trkpt><trkpt lat="42.1372517" lon="12.0337467"><ele>134.75</ele><time>2026-04-04T09:50:38.119Z</time></trkpt><trkpt lat="42.1371133" lon="12.0337883"><ele>136.5</ele><time>2026-04-04T09:50:39.118Z</time></trkpt><trkpt lat="42.1369733" lon="12.033815"><ele>138.25</ele><time>2026-04-04T09:50:40.117Z</time></trkpt><trkpt lat="42.1368267" lon="12.03381"><ele>140.0</ele><time>2026-04-04T09:50:41.115Z</time></trkpt><trkpt lat="42.13667" lon="12.0337867"><ele>139.33333333333331</ele><time>2026-04-04T09:50:42.116Z</time></trkpt><trkpt lat="42.1365117" lon="12.033755"><ele>138.66666666666666</ele><time>2026-04-04T09:50:43.117Z</time></trkpt><trkpt lat="42.1363633" lon="12.0337083"><ele>138.0</ele><time>2026-04-04T09:50:44.118Z</time></trkpt><trkpt lat="42.136215" lon="12.03364"><ele>138.0</ele><time>2026-04-04T09:50:45.119Z</time></trkpt><trkpt lat="42.1360667" lon="12.0335517"><ele>138.0</ele><time>2026-04-04T09:50:46.114Z</time></trkpt><trkpt lat="42.13592" lon="12.0334617"><ele>138.0</ele><time>2026-04-04T09:50:47.115Z</time></trkpt><trkpt lat="42.1357817" lon="12.033375"><ele>141.25</ele><time>2026-04-04T09:50:48.118Z</time></trkpt><trkpt lat="42.135645" lon="12.0333"><ele>144.5</ele><time>2026-04-04T09:50:49.116Z</time></trkpt><trkpt lat="42.13551" lon="12.0332567"><ele>147.75</ele><time>2026-04-04T09:50:50.112Z</time></trkpt><trkpt lat="42.13537" lon="12.03325"><ele>151.0</ele><time>2026-04-04T09:50:51.119Z</time></trkpt><trkpt lat="42.13523" lon="12.033265"><ele>151.0</ele><time>2026-04-04T09:50:52.12Z</time></trkpt><trkpt lat="42.1350967" lon="12.033285"><ele>151.0</ele><time>2026-04-04T09:50:53.111Z</time></trkpt><trkpt lat="42.13497" lon="12.0332967"><ele>151.0</ele><time>2026-04-04T09:50:54.119Z</time></trkpt><trkpt lat="42.1348417" lon="12.0332783"><ele>151.0</ele><time>2026-04-04T09:50:55.114Z</time></trkpt><trkpt lat="42.1347167" lon="12.0332333"><ele>149.75</ele><time>2026-04-04T09:50:56.114Z</time></trkpt><trkpt lat="42.1346" lon="12.0331483"><ele>148.5</ele><time>2026-04-04T09:50:57.116Z</time></trkpt><trkpt lat="42.1344783" lon="12.0330667"><ele>147.25</ele><time>2026-04-04T09:50:58.115Z</time></trkpt><trkpt lat="42.134345" lon="12.0330017"><ele>146.0</ele><time>2026-04-04T09:50:59.117Z</time></trkpt><trkpt lat="42.1342" lon="12.0329417"><ele>145.33333333333331</ele><time>2026-04-04T09:51:00.114Z</time></trkpt><trkpt lat="42.134045" lon="12.0329067"><ele>144.66666666666666</ele><time>2026-04-04T09:51:01.118Z</time></trkpt><trkpt lat="42.1338817" lon="12.032875"><ele>144.0</ele><time>2026-04-04T09:51:02.112Z</time></trkpt><trkpt lat="42.1337217" lon="12.0328417"><ele>144.0</ele><time>2026-04-04T09:51:03.118Z</time></trkpt><trkpt lat="42.1335617" lon="12.0328"><ele>144.0</ele><time>2026-04-04T09:51:04.117Z</time></trkpt><trkpt lat="42.1334167" lon="12.0327433"><ele>144.0</ele><time>2026-04-04T09:51:05.109Z</time></trkpt><trkpt lat="42.1332767" lon="12.032665"><ele>143.66666666666666</ele><time>2026-04-04T09:51:06.117Z</time></trkpt><trkpt lat="42.1331383" lon="12.0325633"><ele>143.33333333333331</ele><time>2026-04-04T09:51:07.115Z</time></trkpt><trkpt lat="42.13301" lon="12.03244"><ele>143.0</ele><time>2026-04-04T09:51:08.116Z</time></trkpt><trkpt lat="42.1328917" lon="12.0322983"><ele>144.66666666666666</ele><time>2026-04-04T09:51:09.119Z</time></trkpt><trkpt lat="42.1327733" lon="12.032145"><ele>146.33333333333334</ele><time>2026-04-04T09:51:10.116Z</time></trkpt><trkpt lat="42.13266" lon="12.0319867"><ele>148.0</ele><time>2026-04-04T09:51:11.114Z</time></trkpt><trkpt lat="42.1325467" lon="12.0318367"><ele>148.0</ele><time>2026-04-04T09:51:12.11Z</time></trkpt><trkpt lat="42.1324417" lon="12.031685"><ele>148.0</ele><time>2026-04-04T09:51:13.116Z</time></trkpt><trkpt lat="42.1323433" lon="12.0315517"><ele>148.0</ele><time>2026-04-04T09:51:14.115Z</time></trkpt><trkpt lat="42.1322467" lon="12.0314383"><ele>148.0</ele><time>2026-04-04T09:51:15.118Z</time></trkpt><trkpt lat="42.132155" lon="12.03134"><ele>151.5</ele><time>2026-04-04T09:51:16.119Z</time></trkpt><trkpt lat="42.1320533" lon="12.031275"><ele>155.0</ele><time>2026-04-04T09:51:17.117Z</time></trkpt><trkpt lat="42.13194" lon="12.0312417"><ele>158.5</ele><time>2026-04-04T09:51:18.109Z</time></trkpt><trkpt lat="42.13182" lon="12.0312383"><ele>162.0</ele><time>2026-04-04T09:51:19.12Z</time></trkpt><trkpt lat="42.1317083" lon="12.03127"><ele>162.0</ele><time>2026-04-04T09:51:20.118Z</time></trkpt><trkpt lat="42.131605" lon="12.0313283"><ele>162.0</ele><time>2026-04-04T09:51:21.117Z</time></trkpt><trkpt lat="42.1315067" lon="12.0314167"><ele>162.0</ele><time>2026-04-04T09:51:22.115Z</time></trkpt><trkpt lat="42.131425" lon="12.03154"><ele>162.0</ele><time>2026-04-04T09:51:23.11Z</time></trkpt><trkpt lat="42.13135" lon="12.03168"><ele>163.25</ele><time>2026-04-04T09:51:24.118Z</time></trkpt><trkpt lat="42.13128" lon="12.0318283"><ele>164.5</ele><time>2026-04-04T09:51:25.118Z</time></trkpt><trkpt lat="42.1312033" lon="12.03197"><ele>165.75</ele><time>2026-04-04T09:51:26.115Z</time></trkpt><trkpt lat="42.1311183" lon="12.032095"><ele>167.0</ele><time>2026-04-04T09:51:27.116Z</time></trkpt><trkpt lat="42.1310217" lon="12.0321933"><ele>167.0</ele><time>2026-04-04T09:51:28.114Z</time></trkpt><trkpt lat="42.130915" lon="12.032265"><ele>167.0</ele><time>2026-04-04T09:51:29.11Z</time></trkpt><trkpt lat="42.1307967" lon="12.03231"><ele>167.0</ele><time>2026-04-04T09:51:30.118Z</time></trkpt><trkpt lat="42.13068" lon="12.0323283"><ele>167.0</ele><time>2026-04-04T09:51:31.11Z</time></trkpt><trkpt lat="42.1305483" lon="12.032325"><ele>169.0</ele><time>2026-04-04T09:51:32.115Z</time></trkpt><trkpt lat="42.1304083" lon="12.032305"><ele>171.0</ele><time>2026-04-04T09:51:33.116Z</time></trkpt><trkpt lat="42.13027" lon="12.032285"><ele>173.0</ele><time>2026-04-04T09:51:34.117Z</time></trkpt><trkpt lat="42.1301267" lon="12.03227"><ele>175.0</ele><time>2026-04-04T09:51:35.115Z</time></trkpt><trkpt lat="42.12998" lon="12.0322533"><ele>176.5</ele><time>2026-04-04T09:51:36.116Z</time></trkpt><trkpt lat="42.1298367" lon="12.032245"><ele>178.0</ele><time>2026-04-04T09:51:37.114Z</time></trkpt><trkpt lat="42.12971" lon="12.0322367"><ele>179.5</ele><time>2026-04-04T09:51:38.117Z</time></trkpt><trkpt lat="42.1295983" lon="12.03224"><ele>181.0</ele><time>2026-04-04T09:51:39.113Z</time></trkpt><trkpt lat="42.1295067" lon="12.0322633"><ele>181.0</ele><time>2026-04-04T09:51:40.115Z</time></trkpt><trkpt lat="42.1294133" lon="12.0323183"><ele>181.0</ele><time>2026-04-04T09:51:41.113Z</time></trkpt><trkpt lat="42.1293183" lon="12.03239"><ele>181.0</ele><time>2026-04-04T09:51:42.116Z</time></trkpt><trkpt lat="42.1292283" lon="12.0324817"><ele>181.0</ele><time>2026-04-04T09:51:43.116Z</time></trkpt><trkpt lat="42.1291467" lon="12.0325867"><ele>181.0</ele><time>2026-04-04T09:51:44.119Z</time></trkpt><trkpt lat="42.1290733" lon="12.0326983"><ele>184.75</ele><time>2026-04-04T09:51:45.115Z</time></trkpt><trkpt lat="42.1289883" lon="12.032815"><ele>188.5</ele><time>2026-04-04T09:51:46.116Z</time></trkpt><trkpt lat="42.1289033" lon="12.0329317"><ele>192.25</ele><time>2026-04-04T09:51:47.115Z</time></trkpt><trkpt lat="42.1288333" lon="12.0330633"><ele>196.0</ele><time>2026-04-04T09:51:48.118Z</time></trkpt><trkpt lat="42.1287733" lon="12.0332"><ele>195.5</ele><time>2026-04-04T09:51:49.116Z</time></trkpt><trkpt lat="42.12873" lon="12.0333517"><ele>195.0</ele><time>2026-04-04T09:51:50.117Z</time></trkpt><trkpt lat="42.1286867" lon="12.0334983"><ele>194.5</ele><time>2026-04-04T09:51:51.118Z</time></trkpt><trkpt lat="42.1286333" lon="12.033635"><ele>194.0</ele><time>2026-04-04T09:51:52.118Z</time></trkpt><trkpt lat="42.12857" lon="12.0337467"><ele>194.0</ele><time>2026-04-04T09:51:53.114Z</time></trkpt><trkpt lat="42.128485" lon="12.0338333"><ele>194.0</ele><time>2026-04-04T09:51:54.118Z</time></trkpt><trkpt lat="42.12838" lon="12.0339017"><ele>194.0</ele><time>2026-04-04T09:51:55.119Z</time></trkpt><trkpt lat="42.1282633" lon="12.033955"><ele>194.0</ele><time>2026-04-04T09:51:56.114Z</time></trkpt><trkpt lat="42.1281333" lon="12.033995"><ele>194.75</ele><time>2026-04-04T09:51:57.119Z</time></trkpt><trkpt lat="42.1280133" lon="12.0340417"><ele>195.5</ele><time>2026-04-04T09:51:58.118Z</time></trkpt><trkpt lat="42.12788" lon="12.0340817"><ele>196.25</ele><time>2026-04-04T09:51:59.115Z</time></trkpt><trkpt lat="42.1277367" lon="12.034125"><ele>197.0</ele><time>2026-04-04T09:52:00.12Z</time></trkpt><trkpt lat="42.1275883" lon="12.03418"><ele>197.0</ele><time>2026-04-04T09:52:01.117Z</time></trkpt><trkpt lat="42.12744" lon="12.03424"><ele>197.0</ele><time>2026-04-04T09:52:02.119Z</time></trkpt><trkpt lat="42.12729" lon="12.0342917"><ele>197.0</ele><time>2026-04-04T09:52:03.117Z</time></trkpt><trkpt lat="42.1271433" lon="12.03435"><ele>198.33333333333334</ele><time>2026-04-04T09:52:04.113Z</time></trkpt><trkpt lat="42.1269983" lon="12.0344"><ele>199.66666666666669</ele><time>2026-04-04T09:52:05.119Z</time></trkpt><trkpt lat="42.12684" lon="12.0344633"><ele>201.0</ele><time>2026-04-04T09:52:06.114Z</time></trkpt><trkpt lat="42.1266767" lon="12.034515"><ele>202.66666666666669</ele><time>2026-04-04T09:52:07.118Z</time></trkpt><trkpt lat="42.126515" lon="12.03456"><ele>204.33333333333334</ele><time>2026-04-04T09:52:08.114Z</time></trkpt><trkpt lat="42.12635" lon="12.0346067"><ele>206.0</ele><time>2026-04-04T09:52:09.114Z</time></trkpt><trkpt lat="42.1261683" lon="12.03467"><ele>206.0</ele><time>2026-04-04T09:52:10.116Z</time></trkpt><trkpt lat="42.1259983" lon="12.0347367"><ele>206.0</ele><time>2026-04-04T09:52:11.115Z</time></trkpt><trkpt lat="42.1258383" lon="12.0347883"><ele>206.0</ele><time>2026-04-04T09:52:12.114Z</time></trkpt><trkpt lat="42.1256867" lon="12.0348467"><ele>206.25</ele><time>2026-04-04T09:52:13.114Z</time></trkpt><trkpt lat="42.125545" lon="12.0349"><ele>206.5</ele><time>2026-04-04T09:52:14.117Z</time></trkpt><trkpt lat="42.125405" lon="12.03495"><ele>206.75</ele><time>2026-04-04T09:52:15.12Z</time></trkpt><trkpt lat="42.125265" lon="12.0350133"><ele>207.0</ele><time>2026-04-04T09:52:16.118Z</time></trkpt><trkpt lat="42.1251433" lon="12.0351033"><ele>207.5</ele><time>2026-04-04T09:52:17.118Z</time></trkpt><trkpt lat="42.125035" lon="12.0352233"><ele>208.0</ele><time>2026-04-04T09:52:18.115Z</time></trkpt><trkpt lat="42.1249267" lon="12.0353667"><ele>208.5</ele><time>2026-04-04T09:52:19.116Z</time></trkpt><trkpt lat="42.12483" lon="12.035525"><ele>209.0</ele><time>2026-04-04T09:52:20.114Z</time></trkpt><trkpt lat="42.1247433" lon="12.0356867"><ele>211.0</ele><time>2026-04-04T09:52:21.117Z</time></trkpt><trkpt lat="42.1246583" lon="12.035855"><ele>213.0</ele><time>2026-04-04T09:52:22.117Z</time></trkpt><trkpt lat="42.1245883" lon="12.0360333"><ele>215.0</ele><time>2026-04-04T09:52:23.118Z</time></trkpt><trkpt lat="42.124525" lon="12.0362283"><ele>215.0</ele><time>2026-04-04T09:52:24.118Z</time></trkpt><trkpt lat="42.12447" lon="12.0364383"><ele>215.0</ele><time>2026-04-04T09:52:25.111Z</time></trkpt><trkpt lat="42.1244167" lon="12.0366583"><ele>215.0</ele><time>2026-04-04T09:52:26.118Z</time></trkpt><trkpt lat="42.1243667" lon="12.0368833"><ele>213.66666666666669</ele><time>2026-04-04T09:52:27.117Z</time></trkpt><trkpt lat="42.12432" lon="12.0371167"><ele>212.33333333333331</ele><time>2026-04-04T09:52:28.114Z</time></trkpt><trkpt lat="42.12427" lon="12.0373567"><ele>211.0</ele><time>2026-04-04T09:52:29.117Z</time></trkpt><trkpt lat="42.1242217" lon="12.0376083"><ele>210.66666666666666</ele><time>2026-04-04T09:52:30.12Z</time></trkpt><trkpt lat="42.124175" lon="12.0378633"><ele>210.33333333333331</ele><time>2026-04-04T09:52:31.114Z</time></trkpt><trkpt lat="42.1241283" lon="12.0381283"><ele>210.0</ele><time>2026-04-04T09:52:32.114Z</time></trkpt><trkpt lat="42.1240833" lon="12.0383817"><ele>209.33333333333331</ele><time>2026-04-04T09:52:33.119Z</time></trkpt><trkpt lat="42.124035" lon="12.0386417"><ele>208.66666666666666</ele><time>2026-04-04T09:52:34.116Z</time></trkpt><trkpt lat="42.123985" lon="12.038905"><ele>208.0</ele><time>2026-04-04T09:52:35.113Z</time></trkpt><trkpt lat="42.1239367" lon="12.03917"><ele>208.0</ele><time>2026-04-04T09:52:36.117Z</time></trkpt><trkpt lat="42.1238867" lon="12.0394383"><ele>208.0</ele><time>2026-04-04T09:52:37.116Z</time></trkpt><trkpt lat="42.1238333" lon="12.0397017"><ele>208.0</ele><time>2026-04-04T09:52:38.116Z</time></trkpt><trkpt lat="42.1237817" lon="12.0399667"><ele>208.66666666666666</ele><time>2026-04-04T09:52:39.111Z</time></trkpt><trkpt lat="42.1237333" lon="12.0402283"><ele>209.33333333333331</ele><time>2026-04-04T09:52:40.119Z</time></trkpt><trkpt lat="42.12368" lon="12.040495"><ele>210.0</ele><time>2026-04-04T09:52:41.116Z</time></trkpt><trkpt lat="42.1236283" lon="12.040765"><ele>211.33333333333331</ele><time>2026-04-04T09:52:42.117Z</time></trkpt><trkpt lat="42.12358" lon="12.0410367"><ele>212.66666666666666</ele><time>2026-04-04T09:52:43.116Z</time></trkpt><trkpt lat="42.1235317" lon="12.0413083"><ele>214.0</ele><time>2026-04-04T09:52:44.117Z</time></trkpt><trkpt lat="42.1234817" lon="12.0415817"><ele>214.66666666666666</ele><time>2026-04-04T09:52:45.116Z</time></trkpt><trkpt lat="42.1234333" lon="12.0418467"><ele>215.33333333333331</ele><time>2026-04-04T09:52:46.117Z</time></trkpt><trkpt lat="42.12338" lon="12.04212"><ele>216.0</ele><time>2026-04-04T09:52:47.117Z</time></trkpt><trkpt lat="42.1233267" lon="12.04238"><ele>217.0</ele><time>2026-04-04T09:52:48.117Z</time></trkpt><trkpt lat="42.1232817" lon="12.0426233"><ele>218.0</ele><time>2026-04-04T09:52:49.119Z</time></trkpt><trkpt lat="42.12324" lon="12.042845"><ele>219.0</ele><time>2026-04-04T09:52:50.116Z</time></trkpt><trkpt lat="42.123195" lon="12.0430317"><ele>219.75</ele><time>2026-04-04T09:52:51.119Z</time></trkpt><trkpt lat="42.1231317" lon="12.043185"><ele>220.5</ele><time>2026-04-04T09:52:52.118Z</time></trkpt><trkpt lat="42.123045" lon="12.04331"><ele>221.25</ele><time>2026-04-04T09:52:53.115Z</time></trkpt><trkpt lat="42.122955" lon="12.04341"><ele>222.0</ele><time>2026-04-04T09:52:54.118Z</time></trkpt><trkpt lat="42.1228383" lon="12.0434817"><ele>222.0</ele><time>2026-04-04T09:52:55.119Z</time></trkpt><trkpt lat="42.1227133" lon="12.0435217"><ele>222.0</ele><time>2026-04-04T09:52:56.117Z</time></trkpt><trkpt lat="42.1225767" lon="12.0435383"><ele>222.0</ele><time>2026-04-04T09:52:57.117Z</time></trkpt><trkpt lat="42.1224267" lon="12.04354"><ele>222.0</ele><time>2026-04-04T09:52:58.115Z</time></trkpt><trkpt lat="42.122265" lon="12.0435433"><ele>222.0</ele><time>2026-04-04T09:52:59.117Z</time></trkpt><trkpt lat="42.1220983" lon="12.0435617"><ele>222.0</ele><time>2026-04-04T09:53:00.117Z</time></trkpt><trkpt lat="42.1219333" lon="12.0436083"><ele>222.0</ele><time>2026-04-04T09:53:01.112Z</time></trkpt><trkpt lat="42.12178" lon="12.0436767"><ele>222.0</ele><time>2026-04-04T09:53:02.113Z</time></trkpt><trkpt lat="42.1216417" lon="12.0437617"><ele>222.0</ele><time>2026-04-04T09:53:03.115Z</time></trkpt><trkpt lat="42.1215183" lon="12.0438683"><ele>222.0</ele><time>2026-04-04T09:53:04.115Z</time></trkpt><trkpt lat="42.1214083" lon="12.0439967"><ele>222.0</ele><time>2026-04-04T09:53:05.117Z</time></trkpt><trkpt lat="42.1213233" lon="12.0441267"><ele>222.0</ele><time>2026-04-04T09:53:06.116Z</time></trkpt><trkpt lat="42.1212633" lon="12.0442517"><ele>222.0</ele><time>2026-04-04T09:53:07.115Z</time></trkpt><trkpt lat="42.1212283" lon="12.0443917"><ele>222.0</ele><time>2026-04-04T09:53:08.119Z</time></trkpt><trkpt lat="42.1212167" lon="12.0445467"><ele>222.0</ele><time>2026-04-04T09:53:09.117Z</time></trkpt><trkpt lat="42.121225" lon="12.044715"><ele>222.0</ele><time>2026-04-04T09:53:10.118Z</time></trkpt><trkpt lat="42.1212517" lon="12.044895"><ele>222.0</ele><time>2026-04-04T09:53:11.115Z</time></trkpt><trkpt lat="42.1212867" lon="12.045085"><ele>222.0</ele><time>2026-04-04T09:53:12.115Z</time></trkpt><trkpt lat="42.1213267" lon="12.04528"><ele>222.0</ele><time>2026-04-04T09:53:13.108Z</time></trkpt><trkpt lat="42.1213717" lon="12.045485"><ele>221.0</ele><time>2026-04-04T09:53:14.113Z</time></trkpt><trkpt lat="42.1214183" lon="12.045705"><ele>220.0</ele><time>2026-04-04T09:53:15.117Z</time></trkpt><trkpt lat="42.1214617" lon="12.045935"><ele>219.0</ele><time>2026-04-04T09:53:16.118Z</time></trkpt><trkpt lat="42.1215067" lon="12.0461683"><ele>219.0</ele><time>2026-04-04T09:53:17.118Z</time></trkpt><trkpt lat="42.1215533" lon="12.0464067"><ele>219.0</ele><time>2026-04-04T09:53:18.117Z</time></trkpt><trkpt lat="42.1216017" lon="12.0466467"><ele>219.0</ele><time>2026-04-04T09:53:19.119Z</time></trkpt><trkpt lat="42.12165" lon="12.046885"><ele>219.0</ele><time>2026-04-04T09:53:20.116Z</time></trkpt><trkpt lat="42.1217" lon="12.047125"><ele>219.0</ele><time>2026-04-04T09:53:21.118Z</time></trkpt><trkpt lat="42.12175" lon="12.0473667"><ele>219.0</ele><time>2026-04-04T09:53:22.116Z</time></trkpt><trkpt lat="42.1218" lon="12.0476083"><ele>219.33333333333331</ele><time>2026-04-04T09:53:23.114Z</time></trkpt><trkpt lat="42.12185" lon="12.0478533"><ele>219.66666666666666</ele><time>2026-04-04T09:53:24.117Z</time></trkpt><trkpt lat="42.1218967" lon="12.0480933"><ele>220.0</ele><time>2026-04-04T09:53:25.119Z</time></trkpt><trkpt lat="42.1219367" lon="12.0483283"><ele>220.75</ele><time>2026-04-04T09:53:26.117Z</time></trkpt><trkpt lat="42.12197" lon="12.04855"><ele>221.5</ele><time>2026-04-04T09:53:27.117Z</time></trkpt><trkpt lat="42.1219883" lon="12.0487483"><ele>222.25</ele><time>2026-04-04T09:53:28.116Z</time></trkpt><trkpt lat="42.1219933" lon="12.0489233"><ele>223.0</ele><time>2026-04-04T09:53:29.115Z</time></trkpt><trkpt lat="42.1219833" lon="12.0490733"><ele>224.75</ele><time>2026-04-04T09:53:30.116Z</time></trkpt><trkpt lat="42.1219417" lon="12.04922"><ele>226.5</ele><time>2026-04-04T09:53:31.117Z</time></trkpt><trkpt lat="42.1218767" lon="12.0493467"><ele>228.25</ele><time>2026-04-04T09:53:32.116Z</time></trkpt><trkpt lat="42.1217867" lon="12.049455"><ele>230.0</ele><time>2026-04-04T09:53:33.116Z</time></trkpt><trkpt lat="42.1216867" lon="12.0495467"><ele>230.0</ele><time>2026-04-04T09:53:34.116Z</time></trkpt><trkpt lat="42.1215833" lon="12.0496467"><ele>230.0</ele><time>2026-04-04T09:53:35.115Z</time></trkpt><trkpt lat="42.1214867" lon="12.0497667"><ele>230.0</ele><time>2026-04-04T09:53:36.117Z</time></trkpt><trkpt lat="42.1214" lon="12.0498983"><ele>230.0</ele><time>2026-04-04T09:53:37.117Z</time></trkpt><trkpt lat="42.1213267" lon="12.050045"><ele>230.25</ele><time>2026-04-04T09:53:38.116Z</time></trkpt><trkpt lat="42.1212733" lon="12.0502083"><ele>230.5</ele><time>2026-04-04T09:53:39.113Z</time></trkpt><trkpt lat="42.1212417" lon="12.0503867"><ele>230.75</ele><time>2026-04-04T09:53:40.115Z</time></trkpt><trkpt lat="42.1212233" lon="12.0505617"><ele>231.0</ele><time>2026-04-04T09:53:41.115Z</time></trkpt><trkpt lat="42.1212117" lon="12.050725"><ele>233.0</ele><time>2026-04-04T09:53:42.116Z</time></trkpt><trkpt lat="42.1211867" lon="12.0508783"><ele>235.0</ele><time>2026-04-04T09:53:43.115Z</time></trkpt><trkpt lat="42.121135" lon="12.0510217"><ele>237.0</ele><time>2026-04-04T09:53:44.114Z</time></trkpt><trkpt lat="42.1210533" lon="12.0511467"><ele>239.0</ele><time>2026-04-04T09:53:45.117Z</time></trkpt><trkpt lat="42.1209533" lon="12.0512517"><ele>239.0</ele><time>2026-04-04T09:53:46.116Z</time></trkpt><trkpt lat="42.1208333" lon="12.0513467"><ele>239.0</ele><time>2026-04-04T09:53:47.119Z</time></trkpt><trkpt lat="42.1207067" lon="12.051445"><ele>239.0</ele><time>2026-04-04T09:53:48.118Z</time></trkpt><trkpt lat="42.1205817" lon="12.0515517"><ele>239.0</ele><time>2026-04-04T09:53:49.12Z</time></trkpt><trkpt lat="42.1204583" lon="12.05167"><ele>239.66666666666669</ele><time>2026-04-04T09:53:50.116Z</time></trkpt><trkpt lat="42.1203333" lon="12.0518083"><ele>240.33333333333331</ele><time>2026-04-04T09:53:51.116Z</time></trkpt><trkpt lat="42.12021" lon="12.0519533"><ele>241.0</ele><time>2026-04-04T09:53:52.119Z</time></trkpt><trkpt lat="42.1200833" lon="12.05209"><ele>241.0</ele><time>2026-04-04T09:53:53.115Z</time></trkpt><trkpt lat="42.1199467" lon="12.0522117"><ele>241.0</ele><time>2026-04-04T09:53:54.118Z</time></trkpt><trkpt lat="42.1198033" lon="12.05232"><ele>241.0</ele><time>2026-04-04T09:53:55.116Z</time></trkpt><trkpt lat="42.1196567" lon="12.0524233"><ele>244.66666666666666</ele><time>2026-04-04T09:53:56.116Z</time></trkpt><trkpt lat="42.1195083" lon="12.0525283"><ele>248.33333333333331</ele><time>2026-04-04T09:53:57.117Z</time></trkpt><trkpt lat="42.11937" lon="12.052625"><ele>252.0</ele><time>2026-04-04T09:53:58.117Z</time></trkpt><trkpt lat="42.1192383" lon="12.0527133"><ele>252.0</ele><time>2026-04-04T09:53:59.114Z</time></trkpt><trkpt lat="42.1191133" lon="12.0527967"><ele>252.0</ele><time>2026-04-04T09:54:00.116Z</time></trkpt><trkpt lat="42.1190033" lon="12.052875"><ele>252.0</ele><time>2026-04-04T09:54:01.116Z</time></trkpt><trkpt lat="42.11891" lon="12.05296"><ele>252.0</ele><time>2026-04-04T09:54:02.115Z</time></trkpt><trkpt lat="42.1188417" lon="12.0530683"><ele>252.8</ele><time>2026-04-04T09:54:03.116Z</time></trkpt><trkpt lat="42.1187883" lon="12.0531883"><ele>253.6</ele><time>2026-04-04T09:54:04.117Z</time></trkpt><trkpt lat="42.1187583" lon="12.0533217"><ele>254.40000000000003</ele><time>2026-04-04T09:54:05.111Z</time></trkpt><trkpt lat="42.1187567" lon="12.0534667"><ele>255.20000000000002</ele><time>2026-04-04T09:54:06.118Z</time></trkpt><trkpt lat="42.11877" lon="12.0536217"><ele>256.0</ele><time>2026-04-04T09:54:07.116Z</time></trkpt><trkpt lat="42.118795" lon="12.0537767"><ele>256.0</ele><time>2026-04-04T09:54:08.118Z</time></trkpt><trkpt lat="42.1188433" lon="12.0539433"><ele>256.0</ele><time>2026-04-04T09:54:09.114Z</time></trkpt><trkpt lat="42.1189033" lon="12.054115"><ele>256.0</ele><time>2026-04-04T09:54:10.119Z</time></trkpt><trkpt lat="42.1189617" lon="12.0542917"><ele>256.0</ele><time>2026-04-04T09:54:11.116Z</time></trkpt><trkpt lat="42.1190183" lon="12.05447"><ele>257.66666666666663</ele><time>2026-04-04T09:54:12.117Z</time></trkpt><trkpt lat="42.119075" lon="12.0546583"><ele>259.3333333333333</ele><time>2026-04-04T09:54:13.117Z</time></trkpt><trkpt lat="42.1191217" lon="12.0548567"><ele>261.0</ele><time>2026-04-04T09:54:14.115Z</time></trkpt><trkpt lat="42.1191717" lon="12.0550583"><ele>261.0</ele><time>2026-04-04T09:54:15.117Z</time></trkpt><trkpt lat="42.1192233" lon="12.0552467"><ele>261.0</ele><time>2026-04-04T09:54:16.113Z</time></trkpt><trkpt lat="42.1192717" lon="12.0554233"><ele>261.0</ele><time>2026-04-04T09:54:17.117Z</time></trkpt><trkpt lat="42.1193283" lon="12.0555983"><ele>261.0</ele><time>2026-04-04T09:54:18.115Z</time></trkpt><trkpt lat="42.1194033" lon="12.0557767"><ele>259.3333333333333</ele><time>2026-04-04T09:54:19.114Z</time></trkpt><trkpt lat="42.119495" lon="12.0559467"><ele>257.66666666666663</ele><time>2026-04-04T09:54:20.116Z</time></trkpt><trkpt lat="42.1195967" lon="12.0561117"><ele>256.0</ele><time>2026-04-04T09:54:21.114Z</time></trkpt><trkpt lat="42.1197117" lon="12.0562733"><ele>256.0</ele><time>2026-04-04T09:54:22.114Z</time></trkpt><trkpt lat="42.119825" lon="12.0564383"><ele>256.0</ele><time>2026-04-04T09:54:23.114Z</time></trkpt><trkpt lat="42.1199467" lon="12.056595"><ele>256.0</ele><time>2026-04-04T09:54:24.116Z</time></trkpt><trkpt lat="42.1200667" lon="12.056755"><ele>259.3333333333333</ele><time>2026-04-04T09:54:25.116Z</time></trkpt><trkpt lat="42.1201867" lon="12.0569183"><ele>262.6666666666667</ele><time>2026-04-04T09:54:26.117Z</time></trkpt><trkpt lat="42.120305" lon="12.05708"><ele>266.0</ele><time>2026-04-04T09:54:27.116Z</time></trkpt><trkpt lat="42.12042" lon="12.057245"><ele>266.0</ele><time>2026-04-04T09:54:28.116Z</time></trkpt><trkpt lat="42.1205317" lon="12.0574117"><ele>266.0</ele><time>2026-04-04T09:54:29.116Z</time></trkpt><trkpt lat="42.1206367" lon="12.0575967"><ele>266.0</ele><time>2026-04-04T09:54:30.112Z</time></trkpt><trkpt lat="42.1207267" lon="12.0578017"><ele>266.6666666666667</ele><time>2026-04-04T09:54:31.116Z</time></trkpt><trkpt lat="42.1208083" lon="12.05801"><ele>267.3333333333333</ele><time>2026-04-04T09:54:32.114Z</time></trkpt><trkpt lat="42.1208933" lon="12.05822"><ele>268.0</ele><time>2026-04-04T09:54:33.118Z</time></trkpt><trkpt lat="42.1209717" lon="12.05842"><ele>268.0</ele><time>2026-04-04T09:54:34.117Z</time></trkpt><trkpt lat="42.1210417" lon="12.058605"><ele>268.0</ele><time>2026-04-04T09:54:35.108Z</time></trkpt><trkpt lat="42.1211083" lon="12.05877"><ele>268.0</ele><time>2026-04-04T09:54:36.114Z</time></trkpt><trkpt lat="42.1211817" lon="12.0589117"><ele>268.0</ele><time>2026-04-04T09:54:37.115Z</time></trkpt><trkpt lat="42.1212467" lon="12.059035"><ele>267.25</ele><time>2026-04-04T09:54:38.114Z</time></trkpt><trkpt lat="42.1213117" lon="12.05915"><ele>266.5</ele><time>2026-04-04T09:54:39.108Z</time></trkpt><trkpt lat="42.1213983" lon="12.059245"><ele>265.75</ele><time>2026-04-04T09:54:40.115Z</time></trkpt><trkpt lat="42.1215" lon="12.0593233"><ele>265.0</ele><time>2026-04-04T09:54:41.117Z</time></trkpt><trkpt lat="42.121615" lon="12.0593783"><ele>267.5</ele><time>2026-04-04T09:54:42.117Z</time></trkpt><trkpt lat="42.1217467" lon="12.059415"><ele>270.0</ele><time>2026-04-04T09:54:43.119Z</time></trkpt><trkpt lat="42.1218883" lon="12.059445"><ele>272.5</ele><time>2026-04-04T09:54:44.117Z</time></trkpt><trkpt lat="42.122035" lon="12.0594667"><ele>275.0</ele><time>2026-04-04T09:54:45.117Z</time></trkpt><trkpt lat="42.1221867" lon="12.0594833"><ele>275.0</ele><time>2026-04-04T09:54:46.116Z</time></trkpt><trkpt lat="42.1223467" lon="12.0595017"><ele>275.0</ele><time>2026-04-04T09:54:47.115Z</time></trkpt><trkpt lat="42.1224933" lon="12.05953"><ele>275.0</ele><time>2026-04-04T09:54:48.116Z</time></trkpt><trkpt lat="42.122645" lon="12.0595617"><ele>276.0</ele><time>2026-04-04T09:54:49.118Z</time></trkpt><trkpt lat="42.1227983" lon="12.0595917"><ele>277.0</ele><time>2026-04-04T09:54:50.116Z</time></trkpt><trkpt lat="42.12295" lon="12.0596233"><ele>278.0</ele><time>2026-04-04T09:54:51.116Z</time></trkpt><trkpt lat="42.123095" lon="12.059655"><ele>278.33333333333337</ele><time>2026-04-04T09:54:52.12Z</time></trkpt><trkpt lat="42.12325" lon="12.05968"><ele>278.6666666666667</ele><time>2026-04-04T09:54:53.124Z</time></trkpt><trkpt lat="42.123405" lon="12.059685"><ele>279.0</ele><time>2026-04-04T09:54:54.117Z</time></trkpt><trkpt lat="42.123555" lon="12.0596817"><ele>279.0</ele><time>2026-04-04T09:54:55.119Z</time></trkpt><trkpt lat="42.1237083" lon="12.0596767"><ele>279.0</ele><time>2026-04-04T09:54:56.12Z</time></trkpt><trkpt lat="42.12385" lon="12.05967"><ele>279.0</ele><time>2026-04-04T09:54:57.118Z</time></trkpt><trkpt lat="42.1239883" lon="12.0596717"><ele>279.0</ele><time>2026-04-04T09:54:58.116Z</time></trkpt><trkpt lat="42.1241217" lon="12.0596783"><ele>278.0</ele><time>2026-04-04T09:54:59.116Z</time></trkpt><trkpt lat="42.1242467" lon="12.0596983"><ele>277.0</ele><time>2026-04-04T09:55:00.115Z</time></trkpt><trkpt lat="42.1243667" lon="12.059725"><ele>276.0</ele><time>2026-04-04T09:55:01.116Z</time></trkpt><trkpt lat="42.1244817" lon="12.0597783"><ele>275.0</ele><time>2026-04-04T09:55:02.113Z</time></trkpt><trkpt lat="42.1245817" lon="12.059855"><ele>272.8</ele><time>2026-04-04T09:55:03.117Z</time></trkpt><trkpt lat="42.124665" lon="12.0599633"><ele>270.6</ele><time>2026-04-04T09:55:04.116Z</time></trkpt><trkpt lat="42.1247283" lon="12.0600817"><ele>268.4</ele><time>2026-04-04T09:55:05.117Z</time></trkpt><trkpt lat="42.1247733" lon="12.060205"><ele>266.2</ele><time>2026-04-04T09:55:06.115Z</time></trkpt><trkpt lat="42.1247933" lon="12.0603433"><ele>264.0</ele><time>2026-04-04T09:55:07.119Z</time></trkpt><trkpt lat="42.1247967" lon="12.06049"><ele>264.0</ele><time>2026-04-04T09:55:08.114Z</time></trkpt><trkpt lat="42.1247767" lon="12.0606467"><ele>264.0</ele><time>2026-04-04T09:55:09.116Z</time></trkpt><trkpt lat="42.1247367" lon="12.060795"><ele>264.0</ele><time>2026-04-04T09:55:10.118Z</time></trkpt><trkpt lat="42.12468" lon="12.0609433"><ele>264.0</ele><time>2026-04-04T09:55:11.118Z</time></trkpt><trkpt lat="42.1246083" lon="12.0610933"><ele>264.0</ele><time>2026-04-04T09:55:12.118Z</time></trkpt><trkpt lat="42.1245283" lon="12.061235"><ele>264.0</ele><time>2026-04-04T09:55:13.114Z</time></trkpt><trkpt lat="42.1244383" lon="12.061375"><ele>264.0</ele><time>2026-04-04T09:55:14.113Z</time></trkpt><trkpt lat="42.1243433" lon="12.0615167"><ele>264.0</ele><time>2026-04-04T09:55:15.118Z</time></trkpt><trkpt lat="42.124235" lon="12.0616433"><ele>263.0</ele><time>2026-04-04T09:55:16.118Z</time></trkpt><trkpt lat="42.124125" lon="12.0617783"><ele>262.0</ele><time>2026-04-04T09:55:17.119Z</time></trkpt><trkpt lat="42.12402" lon="12.06193"><ele>261.0</ele><time>2026-04-04T09:55:18.116Z</time></trkpt><trkpt lat="42.123915" lon="12.0620867"><ele>261.0</ele><time>2026-04-04T09:55:19.114Z</time></trkpt><trkpt lat="42.1238167" lon="12.062255"><ele>261.0</ele><time>2026-04-04T09:55:20.116Z</time></trkpt><trkpt lat="42.1237133" lon="12.06243"><ele>261.0</ele><time>2026-04-04T09:55:21.11Z</time></trkpt><trkpt lat="42.1236117" lon="12.0626217"><ele>264.3333333333333</ele><time>2026-04-04T09:55:22.117Z</time></trkpt><trkpt lat="42.123515" lon="12.0628067"><ele>267.66666666666663</ele><time>2026-04-04T09:55:23.119Z</time></trkpt><trkpt lat="42.123445" lon="12.0630267"><ele>271.0</ele><time>2026-04-04T09:55:24.118Z</time></trkpt><trkpt lat="42.1233633" lon="12.063225"><ele>271.66666666666663</ele><time>2026-04-04T09:55:25.119Z</time></trkpt><trkpt lat="42.1232617" lon="12.0634083"><ele>272.3333333333333</ele><time>2026-04-04T09:55:26.112Z</time></trkpt><trkpt lat="42.1231633" lon="12.063585"><ele>273.0</ele><time>2026-04-04T09:55:27.118Z</time></trkpt><trkpt lat="42.1230667" lon="12.0637617"><ele>273.0</ele><time>2026-04-04T09:55:28.117Z</time></trkpt><trkpt lat="42.12299" lon="12.06394"><ele>273.0</ele><time>2026-04-04T09:55:29.116Z</time></trkpt><trkpt lat="42.1229117" lon="12.064095"><ele>273.0</ele><time>2026-04-04T09:55:30.115Z</time></trkpt><trkpt lat="42.1228317" lon="12.06424"><ele>273.0</ele><time>2026-04-04T09:55:31.116Z</time></trkpt><trkpt lat="42.1227633" lon="12.06439"><ele>275.0</ele><time>2026-04-04T09:55:32.116Z</time></trkpt><trkpt lat="42.122715" lon="12.0645317"><ele>277.0</ele><time>2026-04-04T09:55:33.113Z</time></trkpt><trkpt lat="42.122685" lon="12.064675"><ele>279.0</ele><time>2026-04-04T09:55:34.117Z</time></trkpt><trkpt lat="42.1226767" lon="12.064825"><ele>281.0</ele><time>2026-04-04T09:55:35.114Z</time></trkpt><trkpt lat="42.1226883" lon="12.06499"><ele>282.0</ele><time>2026-04-04T09:55:36.118Z</time></trkpt><trkpt lat="42.1227283" lon="12.0651617"><ele>283.0</ele><time>2026-04-04T09:55:37.115Z</time></trkpt><trkpt lat="42.1227783" lon="12.06535"><ele>284.0</ele><time>2026-04-04T09:55:38.115Z</time></trkpt><trkpt lat="42.1228383" lon="12.0655417"><ele>285.0</ele><time>2026-04-04T09:55:39.114Z</time></trkpt><trkpt lat="42.122895" lon="12.065745"><ele>283.3333333333333</ele><time>2026-04-04T09:55:40.113Z</time></trkpt><trkpt lat="42.1229433" lon="12.06596"><ele>281.66666666666663</ele><time>2026-04-04T09:55:41.114Z</time></trkpt><trkpt lat="42.1229817" lon="12.0661883"><ele>280.0</ele><time>2026-04-04T09:55:42.116Z</time></trkpt><trkpt lat="42.1230283" lon="12.0664133"><ele>277.66666666666663</ele><time>2026-04-04T09:55:43.115Z</time></trkpt><trkpt lat="42.1230783" lon="12.0666417"><ele>275.3333333333333</ele><time>2026-04-04T09:55:44.117Z</time></trkpt><trkpt lat="42.12313" lon="12.0668733"><ele>273.0</ele><time>2026-04-04T09:55:45.116Z</time></trkpt><trkpt lat="42.1231933" lon="12.0670967"><ele>274.3333333333333</ele><time>2026-04-04T09:55:46.116Z</time></trkpt><trkpt lat="42.12326" lon="12.06732"><ele>275.66666666666663</ele><time>2026-04-04T09:55:47.113Z</time></trkpt><trkpt lat="42.1233333" lon="12.06754"><ele>277.0</ele><time>2026-04-04T09:55:48.112Z</time></trkpt><trkpt lat="42.1234117" lon="12.0677483"><ele>277.0</ele><time>2026-04-04T09:55:49.117Z</time></trkpt><trkpt lat="42.1234917" lon="12.06795"><ele>277.0</ele><time>2026-04-04T09:55:50.114Z</time></trkpt><trkpt lat="42.1235717" lon="12.068155"><ele>277.0</ele><time>2026-04-04T09:55:51.115Z</time></trkpt><trkpt lat="42.12365" lon="12.068345"><ele>275.75</ele><time>2026-04-04T09:55:52.114Z</time></trkpt><trkpt lat="42.123735" lon="12.0685133"><ele>274.5</ele><time>2026-04-04T09:55:53.116Z</time></trkpt><trkpt lat="42.1238233" lon="12.06866"><ele>273.25</ele><time>2026-04-04T09:55:54.117Z</time></trkpt><trkpt lat="42.1239117" lon="12.06879"><ele>272.0</ele><time>2026-04-04T09:55:55.116Z</time></trkpt><trkpt lat="42.124" lon="12.068905"><ele>272.75</ele><time>2026-04-04T09:55:56.116Z</time></trkpt><trkpt lat="42.1240967" lon="12.0690117"><ele>273.5</ele><time>2026-04-04T09:55:57.117Z</time></trkpt><trkpt lat="42.124205" lon="12.0691033"><ele>274.25</ele><time>2026-04-04T09:55:58.117Z</time></trkpt><trkpt lat="42.124325" lon="12.0691817"><ele>275.0</ele><time>2026-04-04T09:55:59.116Z</time></trkpt><trkpt lat="42.1244533" lon="12.0692583"><ele>276.0</ele><time>2026-04-04T09:56:00.117Z</time></trkpt><trkpt lat="42.12459" lon="12.0693283"><ele>277.0</ele><time>2026-04-04T09:56:01.116Z</time></trkpt><trkpt lat="42.1247233" lon="12.0694"><ele>278.0</ele><time>2026-04-04T09:56:02.115Z</time></trkpt><trkpt lat="42.1248483" lon="12.06947"><ele>279.0</ele><time>2026-04-04T09:56:03.116Z</time></trkpt><trkpt lat="42.1249733" lon="12.0695367"><ele>279.4</ele><time>2026-04-04T09:56:04.114Z</time></trkpt><trkpt lat="42.125075" lon="12.0696133"><ele>279.79999999999995</ele><time>2026-04-04T09:56:05.117Z</time></trkpt><trkpt lat="42.12516" lon="12.0697033"><ele>280.20000000000005</ele><time>2026-04-04T09:56:06.117Z</time></trkpt><trkpt lat="42.1252333" lon="12.0698167"><ele>280.6</ele><time>2026-04-04T09:56:07.118Z</time></trkpt><trkpt lat="42.12528" lon="12.0699533"><ele>281.0</ele><time>2026-04-04T09:56:08.121Z</time></trkpt><trkpt lat="42.1253033" lon="12.0701067"><ele>281.0</ele><time>2026-04-04T09:56:09.118Z</time></trkpt><trkpt lat="42.1253067" lon="12.0702883"><ele>281.0</ele><time>2026-04-04T09:56:10.116Z</time></trkpt><trkpt lat="42.1253067" lon="12.0704883"><ele>281.0</ele><time>2026-04-04T09:56:11.117Z</time></trkpt><trkpt lat="42.1252983" lon="12.0706983"><ele>281.0</ele><time>2026-04-04T09:56:12.115Z</time></trkpt><trkpt lat="42.125275" lon="12.070915"><ele>278.6666666666667</ele><time>2026-04-04T09:56:13.119Z</time></trkpt><trkpt lat="42.1252533" lon="12.07113"><ele>276.3333333333333</ele><time>2026-04-04T09:56:14.117Z</time></trkpt><trkpt lat="42.1252383" lon="12.0713367"><ele>274.0</ele><time>2026-04-04T09:56:15.117Z</time></trkpt><trkpt lat="42.1252333" lon="12.0715333"><ele>273.75</ele><time>2026-04-04T09:56:16.119Z</time></trkpt><trkpt lat="42.1252383" lon="12.0717117"><ele>273.5</ele><time>2026-04-04T09:56:17.114Z</time></trkpt><trkpt lat="42.1252583" lon="12.0718683"><ele>273.25</ele><time>2026-04-04T09:56:18.117Z</time></trkpt><trkpt lat="42.1253" lon="12.0720217"><ele>273.0</ele><time>2026-04-04T09:56:19.117Z</time></trkpt><trkpt lat="42.12536" lon="12.0721583"><ele>273.0</ele><time>2026-04-04T09:56:20.116Z</time></trkpt><trkpt lat="42.1254367" lon="12.0722883"><ele>273.0</ele><time>2026-04-04T09:56:21.114Z</time></trkpt><trkpt lat="42.125525" lon="12.0724117"><ele>273.0</ele><time>2026-04-04T09:56:22.111Z</time></trkpt><trkpt lat="42.1256233" lon="12.07254"><ele>273.0</ele><time>2026-04-04T09:56:23.114Z</time></trkpt><trkpt lat="42.1257333" lon="12.0726633"><ele>274.25</ele><time>2026-04-04T09:56:24.118Z</time></trkpt><trkpt lat="42.1258417" lon="12.0727917"><ele>275.5</ele><time>2026-04-04T09:56:25.116Z</time></trkpt><trkpt lat="42.1259567" lon="12.0729167"><ele>276.75</ele><time>2026-04-04T09:56:26.111Z</time></trkpt><trkpt lat="42.1260583" lon="12.07304"><ele>278.0</ele><time>2026-04-04T09:56:27.116Z</time></trkpt><trkpt lat="42.1261533" lon="12.073165"><ele>278.75</ele><time>2026-04-04T09:56:28.117Z</time></trkpt><trkpt lat="42.1262433" lon="12.0733017"><ele>279.5</ele><time>2026-04-04T09:56:29.117Z</time></trkpt><trkpt lat="42.1263283" lon="12.0734567"><ele>280.25</ele><time>2026-04-04T09:56:30.115Z</time></trkpt><trkpt lat="42.1264033" lon="12.073635"><ele>281.0</ele><time>2026-04-04T09:56:31.119Z</time></trkpt><trkpt lat="42.12648" lon="12.07383"><ele>281.0</ele><time>2026-04-04T09:56:32.115Z</time></trkpt><trkpt lat="42.1265567" lon="12.07402"><ele>281.0</ele><time>2026-04-04T09:56:33.118Z</time></trkpt><trkpt lat="42.1266267" lon="12.0742133"><ele>281.0</ele><time>2026-04-04T09:56:34.112Z</time></trkpt><trkpt lat="42.126695" lon="12.0744133"><ele>281.33333333333337</ele><time>2026-04-04T09:56:35.117Z</time></trkpt><trkpt lat="42.1267667" lon="12.074615"><ele>281.6666666666667</ele><time>2026-04-04T09:56:36.112Z</time></trkpt><trkpt lat="42.1268483" lon="12.0748217"><ele>282.0</ele><time>2026-04-04T09:56:37.118Z</time></trkpt><trkpt lat="42.1269267" lon="12.0750267"><ele>282.6666666666667</ele><time>2026-04-04T09:56:38.117Z</time></trkpt><trkpt lat="42.1270083" lon="12.075245"><ele>283.33333333333337</ele><time>2026-04-04T09:56:39.115Z</time></trkpt><trkpt lat="42.1270883" lon="12.0754633"><ele>284.0</ele><time>2026-04-04T09:56:40.113Z</time></trkpt><trkpt lat="42.1271667" lon="12.0756867"><ele>284.33333333333337</ele><time>2026-04-04T09:56:41.115Z</time></trkpt><trkpt lat="42.1272483" lon="12.0759167"><ele>284.6666666666667</ele><time>2026-04-04T09:56:42.11Z</time></trkpt><trkpt lat="42.1273283" lon="12.0761467"><ele>285.0</ele><time>2026-04-04T09:56:43.115Z</time></trkpt><trkpt lat="42.1274067" lon="12.076375"><ele>285.3333333333333</ele><time>2026-04-04T09:56:44.117Z</time></trkpt><trkpt lat="42.1274867" lon="12.0765967"><ele>285.66666666666663</ele><time>2026-04-04T09:56:45.119Z</time></trkpt><trkpt lat="42.127555" lon="12.0768167"><ele>286.0</ele><time>2026-04-04T09:56:46.112Z</time></trkpt><trkpt lat="42.127625" lon="12.0770317"><ele>286.0</ele><time>2026-04-04T09:56:47.113Z</time></trkpt><trkpt lat="42.1276933" lon="12.0772383"><ele>286.0</ele><time>2026-04-04T09:56:48.115Z</time></trkpt><trkpt lat="42.1277667" lon="12.0774483"><ele>286.0</ele><time>2026-04-04T09:56:49.118Z</time></trkpt><trkpt lat="42.1278467" lon="12.0776583"><ele>286.0</ele><time>2026-04-04T09:56:50.117Z</time></trkpt><trkpt lat="42.1279183" lon="12.0778633"><ele>286.0</ele><time>2026-04-04T09:56:51.118Z</time></trkpt><trkpt lat="42.1279933" lon="12.0780617"><ele>286.0</ele><time>2026-04-04T09:56:52.115Z</time></trkpt><trkpt lat="42.1280583" lon="12.0782517"><ele>283.66666666666663</ele><time>2026-04-04T09:56:53.116Z</time></trkpt><trkpt lat="42.12812" lon="12.0784417"><ele>281.3333333333333</ele><time>2026-04-04T09:56:54.116Z</time></trkpt><trkpt lat="42.1281683" lon="12.078645"><ele>279.0</ele><time>2026-04-04T09:56:55.115Z</time></trkpt><trkpt lat="42.1282033" lon="12.07885"><ele>280.0</ele><time>2026-04-04T09:56:56.115Z</time></trkpt><trkpt lat="42.1282317" lon="12.0790583"><ele>281.0</ele><time>2026-04-04T09:56:57.116Z</time></trkpt><trkpt lat="42.128245" lon="12.0792833"><ele>282.0</ele><time>2026-04-04T09:56:58.114Z</time></trkpt><trkpt lat="42.128255" lon="12.07951"><ele>282.0</ele><time>2026-04-04T09:56:59.116Z</time></trkpt><trkpt lat="42.1282583" lon="12.079735"><ele>282.0</ele><time>2026-04-04T09:57:00.118Z</time></trkpt><trkpt lat="42.1282383" lon="12.079975"><ele>282.0</ele><time>2026-04-04T09:57:01.118Z</time></trkpt><trkpt lat="42.1282083" lon="12.0802167"><ele>282.0</ele><time>2026-04-04T09:57:02.114Z</time></trkpt><trkpt lat="42.1281733" lon="12.0804517"><ele>282.0</ele><time>2026-04-04T09:57:03.118Z</time></trkpt><trkpt lat="42.1281167" lon="12.080675"><ele>282.0</ele><time>2026-04-04T09:57:04.118Z</time></trkpt><trkpt lat="42.128045" lon="12.0809067"><ele>283.0</ele><time>2026-04-04T09:57:05.113Z</time></trkpt><trkpt lat="42.1279667" lon="12.0811283"><ele>284.0</ele><time>2026-04-04T09:57:06.117Z</time></trkpt><trkpt lat="42.1278867" lon="12.081345"><ele>285.0</ele><time>2026-04-04T09:57:07.116Z</time></trkpt><trkpt lat="42.1278083" lon="12.081555"><ele>286.6666666666667</ele><time>2026-04-04T09:57:08.116Z</time></trkpt><trkpt lat="42.1277283" lon="12.0817617"><ele>288.33333333333337</ele><time>2026-04-04T09:57:09.118Z</time></trkpt><trkpt lat="42.127645" lon="12.081965"><ele>290.0</ele><time>2026-04-04T09:57:10.116Z</time></trkpt><trkpt lat="42.1275683" lon="12.08217"><ele>290.0</ele><time>2026-04-04T09:57:11.117Z</time></trkpt><trkpt lat="42.1275017" lon="12.0823733"><ele>290.0</ele><time>2026-04-04T09:57:12.119Z</time></trkpt><trkpt lat="42.1274417" lon="12.082575"><ele>290.0</ele><time>2026-04-04T09:57:13.12Z</time></trkpt><trkpt lat="42.127385" lon="12.08278"><ele>292.0</ele><time>2026-04-04T09:57:14.114Z</time></trkpt><trkpt lat="42.1273283" lon="12.0829867"><ele>294.0</ele><time>2026-04-04T09:57:15.119Z</time></trkpt><trkpt lat="42.1272733" lon="12.083185"><ele>296.0</ele><time>2026-04-04T09:57:16.117Z</time></trkpt><trkpt lat="42.127225" lon="12.0833783"><ele>296.6666666666667</ele><time>2026-04-04T09:57:17.119Z</time></trkpt><trkpt lat="42.1271817" lon="12.083575"><ele>297.3333333333333</ele><time>2026-04-04T09:57:18.119Z</time></trkpt><trkpt lat="42.1271367" lon="12.0837717"><ele>298.0</ele><time>2026-04-04T09:57:19.111Z</time></trkpt><trkpt lat="42.1270883" lon="12.0839617"><ele>298.5</ele><time>2026-04-04T09:57:20.117Z</time></trkpt><trkpt lat="42.127045" lon="12.0841383"><ele>299.0</ele><time>2026-04-04T09:57:21.114Z</time></trkpt><trkpt lat="42.127005" lon="12.0843083"><ele>299.5</ele><time>2026-04-04T09:57:22.116Z</time></trkpt><trkpt lat="42.1269667" lon="12.0844733"><ele>300.0</ele><time>2026-04-04T09:57:23.117Z</time></trkpt><trkpt lat="42.126925" lon="12.0846333"><ele>300.0</ele><time>2026-04-04T09:57:24.116Z</time></trkpt><trkpt lat="42.126895" lon="12.0847783"><ele>300.0</ele><time>2026-04-04T09:57:25.117Z</time></trkpt><trkpt lat="42.1268667" lon="12.08491"><ele>300.0</ele><time>2026-04-04T09:57:26.113Z</time></trkpt><trkpt lat="42.1268417" lon="12.0850283"><ele>300.0</ele><time>2026-04-04T09:57:27.116Z</time></trkpt><trkpt lat="42.126815" lon="12.0851417"><ele>300.0</ele><time>2026-04-04T09:57:28.115Z</time></trkpt><trkpt lat="42.1267883" lon="12.0852567"><ele>300.4</ele><time>2026-04-04T09:57:29.11Z</time></trkpt><trkpt lat="42.126755" lon="12.08538"><ele>300.8</ele><time>2026-04-04T09:57:30.114Z</time></trkpt><trkpt lat="42.1267283" lon="12.0855033"><ele>301.2</ele><time>2026-04-04T09:57:31.116Z</time></trkpt><trkpt lat="42.1267033" lon="12.08561"><ele>301.6</ele><time>2026-04-04T09:57:32.117Z</time></trkpt><trkpt lat="42.1266717" lon="12.08572"><ele>302.0</ele><time>2026-04-04T09:57:33.117Z</time></trkpt><trkpt lat="42.1266417" lon="12.0858317"><ele>302.4</ele><time>2026-04-04T09:57:34.111Z</time></trkpt><trkpt lat="42.1266117" lon="12.0859533"><ele>302.79999999999995</ele><time>2026-04-04T09:57:35.113Z</time></trkpt><trkpt lat="42.1265767" lon="12.08607"><ele>303.2</ele><time>2026-04-04T09:57:36.116Z</time></trkpt><trkpt lat="42.1265417" lon="12.086205"><ele>303.59999999999997</ele><time>2026-04-04T09:57:37.115Z</time></trkpt><trkpt lat="42.1265083" lon="12.0863417"><ele>304.0</ele><time>2026-04-04T09:57:38.114Z</time></trkpt><trkpt lat="42.126475" lon="12.086495"><ele>304.75</ele><time>2026-04-04T09:57:39.117Z</time></trkpt><trkpt lat="42.1264417" lon="12.0866617"><ele>305.5</ele><time>2026-04-04T09:57:40.115Z</time></trkpt><trkpt lat="42.126415" lon="12.0868333"><ele>306.25</ele><time>2026-04-04T09:57:41.116Z</time></trkpt><trkpt lat="42.1263983" lon="12.087005"><ele>307.0</ele><time>2026-04-04T09:57:42.113Z</time></trkpt><trkpt lat="42.1263817" lon="12.0871783"><ele>307.0</ele><time>2026-04-04T09:57:43.116Z</time></trkpt><trkpt lat="42.1263683" lon="12.087355"><ele>307.0</ele><time>2026-04-04T09:57:44.115Z</time></trkpt><trkpt lat="42.12636" lon="12.0875367"><ele>307.0</ele><time>2026-04-04T09:57:45.117Z</time></trkpt><trkpt lat="42.1263517" lon="12.0877133"><ele>307.0</ele><time>2026-04-04T09:57:46.114Z</time></trkpt><trkpt lat="42.126345" lon="12.0878967"><ele>307.0</ele><time>2026-04-04T09:57:47.115Z</time></trkpt><trkpt lat="42.1263433" lon="12.08808"><ele>307.0</ele><time>2026-04-04T09:57:48.115Z</time></trkpt><trkpt lat="42.1263417" lon="12.0882683"><ele>307.0</ele><time>2026-04-04T09:57:49.115Z</time></trkpt><trkpt lat="42.1263383" lon="12.0884617"><ele>307.0</ele><time>2026-04-04T09:57:50.115Z</time></trkpt><trkpt lat="42.12634" lon="12.08866"><ele>307.5</ele><time>2026-04-04T09:57:51.114Z</time></trkpt><trkpt lat="42.1263367" lon="12.0888567"><ele>308.0</ele><time>2026-04-04T09:57:52.118Z</time></trkpt><trkpt lat="42.1263333" lon="12.0890517"><ele>308.5</ele><time>2026-04-04T09:57:53.114Z</time></trkpt><trkpt lat="42.12633" lon="12.089245"><ele>309.0</ele><time>2026-04-04T09:57:54.116Z</time></trkpt><trkpt lat="42.1263283" lon="12.0894333"><ele>309.0</ele><time>2026-04-04T09:57:55.117Z</time></trkpt><trkpt lat="42.1263233" lon="12.0896217"><ele>309.0</ele><time>2026-04-04T09:57:56.117Z</time></trkpt><trkpt lat="42.1263217" lon="12.0898067"><ele>309.0</ele><time>2026-04-04T09:57:57.116Z</time></trkpt><trkpt lat="42.1263183" lon="12.089995"><ele>309.0</ele><time>2026-04-04T09:57:58.117Z</time></trkpt><trkpt lat="42.1263183" lon="12.090185"><ele>309.0</ele><time>2026-04-04T09:57:59.118Z</time></trkpt><trkpt lat="42.1263167" lon="12.0903767"><ele>309.0</ele><time>2026-04-04T09:58:00.116Z</time></trkpt><trkpt lat="42.1263133" lon="12.0905667"><ele>309.0</ele><time>2026-04-04T09:58:01.117Z</time></trkpt><trkpt lat="42.1263083" lon="12.090755"><ele>309.0</ele><time>2026-04-04T09:58:02.115Z</time></trkpt><trkpt lat="42.1263017" lon="12.0909383"><ele>309.0</ele><time>2026-04-04T09:58:03.118Z</time></trkpt><trkpt lat="42.1262967" lon="12.091115"><ele>309.0</ele><time>2026-04-04T09:58:04.118Z</time></trkpt><trkpt lat="42.1262933" lon="12.0912917"><ele>309.0</ele><time>2026-04-04T09:58:05.113Z</time></trkpt><trkpt lat="42.1262833" lon="12.0914733"><ele>309.0</ele><time>2026-04-04T09:58:06.118Z</time></trkpt><trkpt lat="42.1262833" lon="12.0916567"><ele>309.0</ele><time>2026-04-04T09:58:07.118Z</time></trkpt><trkpt lat="42.1262917" lon="12.0918517"><ele>309.0</ele><time>2026-04-04T09:58:08.115Z</time></trkpt><trkpt lat="42.12631" lon="12.0920517"><ele>309.0</ele><time>2026-04-04T09:58:09.116Z</time></trkpt><trkpt lat="42.1263367" lon="12.09225"><ele>309.0</ele><time>2026-04-04T09:58:10.114Z</time></trkpt><trkpt lat="42.1263633" lon="12.0924433"><ele>309.25</ele><time>2026-04-04T09:58:11.113Z</time></trkpt><trkpt lat="42.1263883" lon="12.092635"><ele>309.5</ele><time>2026-04-04T09:58:12.113Z</time></trkpt><trkpt lat="42.126415" lon="12.0928183"><ele>309.75</ele><time>2026-04-04T09:58:13.113Z</time></trkpt><trkpt lat="42.1264383" lon="12.0930117"><ele>310.0</ele><time>2026-04-04T09:58:14.114Z</time></trkpt><trkpt lat="42.1264583" lon="12.0931967"><ele>311.25</ele><time>2026-04-04T09:58:15.116Z</time></trkpt><trkpt lat="42.1264783" lon="12.0933717"><ele>312.5</ele><time>2026-04-04T09:58:16.117Z</time></trkpt><trkpt lat="42.1264983" lon="12.0935467"><ele>313.75</ele><time>2026-04-04T09:58:17.113Z</time></trkpt><trkpt lat="42.1265167" lon="12.093725"><ele>315.0</ele><time>2026-04-04T09:58:18.116Z</time></trkpt><trkpt lat="42.126535" lon="12.09391"><ele>315.25</ele><time>2026-04-04T09:58:19.114Z</time></trkpt><trkpt lat="42.12656" lon="12.0940983"><ele>315.5</ele><time>2026-04-04T09:58:20.115Z</time></trkpt><trkpt lat="42.126585" lon="12.0942867"><ele>315.75</ele><time>2026-04-04T09:58:21.117Z</time></trkpt><trkpt lat="42.1266133" lon="12.0944767"><ele>316.0</ele><time>2026-04-04T09:58:22.115Z</time></trkpt><trkpt lat="42.126635" lon="12.09467"><ele>316.0</ele><time>2026-04-04T09:58:23.117Z</time></trkpt><trkpt lat="42.1266633" lon="12.094865"><ele>316.0</ele><time>2026-04-04T09:58:24.115Z</time></trkpt><trkpt lat="42.1266983" lon="12.09506"><ele>316.0</ele><time>2026-04-04T09:58:25.117Z</time></trkpt><trkpt lat="42.1267317" lon="12.09526"><ele>316.0</ele><time>2026-04-04T09:58:26.115Z</time></trkpt><trkpt lat="42.126755" lon="12.09546"><ele>316.5</ele><time>2026-04-04T09:58:27.117Z</time></trkpt><trkpt lat="42.1267783" lon="12.09566"><ele>317.0</ele><time>2026-04-04T09:58:28.117Z</time></trkpt><trkpt lat="42.126795" lon="12.09586"><ele>317.5</ele><time>2026-04-04T09:58:29.116Z</time></trkpt><trkpt lat="42.126805" lon="12.09605"><ele>318.0</ele><time>2026-04-04T09:58:30.114Z</time></trkpt><trkpt lat="42.126815" lon="12.0962267"><ele>319.0</ele><time>2026-04-04T09:58:31.119Z</time></trkpt><trkpt lat="42.1268233" lon="12.0964067"><ele>320.0</ele><time>2026-04-04T09:58:32.114Z</time></trkpt><trkpt lat="42.1268267" lon="12.0965883"><ele>321.0</ele><time>2026-04-04T09:58:33.117Z</time></trkpt><trkpt lat="42.1268267" lon="12.0967617"><ele>322.0</ele><time>2026-04-04T09:58:34.117Z</time></trkpt><trkpt lat="42.1268283" lon="12.0969333"><ele>322.5</ele><time>2026-04-04T09:58:35.117Z</time></trkpt><trkpt lat="42.1268317" lon="12.09711"><ele>323.0</ele><time>2026-04-04T09:58:36.117Z</time></trkpt><trkpt lat="42.1268383" lon="12.097295"><ele>323.5</ele><time>2026-04-04T09:58:37.116Z</time></trkpt><trkpt lat="42.1268383" lon="12.097485"><ele>324.0</ele><time>2026-04-04T09:58:38.115Z</time></trkpt><trkpt lat="42.1268517" lon="12.0976733"><ele>324.75</ele><time>2026-04-04T09:58:39.117Z</time></trkpt><trkpt lat="42.12687" lon="12.0978583"><ele>325.5</ele><time>2026-04-04T09:58:40.116Z</time></trkpt><trkpt lat="42.1268967" lon="12.0980567"><ele>326.25</ele><time>2026-04-04T09:58:41.119Z</time></trkpt><trkpt lat="42.1269317" lon="12.0982417"><ele>327.0</ele><time>2026-04-04T09:58:42.113Z</time></trkpt><trkpt lat="42.1269667" lon="12.0984233"><ele>327.0</ele><time>2026-04-04T09:58:43.116Z</time></trkpt><trkpt lat="42.1270117" lon="12.0986083"><ele>327.0</ele><time>2026-04-04T09:58:44.116Z</time></trkpt><trkpt lat="42.127055" lon="12.098795"><ele>327.0</ele><time>2026-04-04T09:58:45.118Z</time></trkpt><trkpt lat="42.1270967" lon="12.098985"><ele>327.0</ele><time>2026-04-04T09:58:46.112Z</time></trkpt><trkpt lat="42.127135" lon="12.09917"><ele>326.75</ele><time>2026-04-04T09:58:47.117Z</time></trkpt><trkpt lat="42.12717" lon="12.099355"><ele>326.5</ele><time>2026-04-04T09:58:48.119Z</time></trkpt><trkpt lat="42.12721" lon="12.0995417"><ele>326.25</ele><time>2026-04-04T09:58:49.117Z</time></trkpt><trkpt lat="42.1272617" lon="12.0997183"><ele>326.0</ele><time>2026-04-04T09:58:50.118Z</time></trkpt><trkpt lat="42.1273117" lon="12.09989"><ele>326.25</ele><time>2026-04-04T09:58:51.117Z</time></trkpt><trkpt lat="42.127365" lon="12.1000567"><ele>326.5</ele><time>2026-04-04T09:58:52.116Z</time></trkpt><trkpt lat="42.1274283" lon="12.1002117"><ele>326.75</ele><time>2026-04-04T09:58:53.117Z</time></trkpt><trkpt lat="42.127495" lon="12.1003717"><ele>327.0</ele><time>2026-04-04T09:58:54.122Z</time></trkpt><trkpt lat="42.1275583" lon="12.1005333"><ele>327.0</ele><time>2026-04-04T09:58:55.117Z</time></trkpt><trkpt lat="42.12762" lon="12.10069"><ele>327.0</ele><time>2026-04-04T09:58:56.113Z</time></trkpt><trkpt lat="42.127685" lon="12.1008533"><ele>327.0</ele><time>2026-04-04T09:58:57.117Z</time></trkpt><trkpt lat="42.12775" lon="12.1010167"><ele>327.0</ele><time>2026-04-04T09:58:58.11Z</time></trkpt><trkpt lat="42.1278167" lon="12.101175"><ele>327.0</ele><time>2026-04-04T09:58:59.11Z</time></trkpt><trkpt lat="42.12789" lon="12.101325"><ele>327.0</ele><time>2026-04-04T09:59:00.115Z</time></trkpt><trkpt lat="42.1279617" lon="12.10147"><ele>327.0</ele><time>2026-04-04T09:59:01.116Z</time></trkpt><trkpt lat="42.1280383" lon="12.1016233"><ele>327.0</ele><time>2026-04-04T09:59:02.114Z</time></trkpt><trkpt lat="42.1281117" lon="12.101775"><ele>327.25</ele><time>2026-04-04T09:59:03.118Z</time></trkpt><trkpt lat="42.1281817" lon="12.10193"><ele>327.5</ele><time>2026-04-04T09:59:04.115Z</time></trkpt><trkpt lat="42.128245" lon="12.10208"><ele>327.75</ele><time>2026-04-04T09:59:05.116Z</time></trkpt><trkpt lat="42.1282983" lon="12.1022283"><ele>328.0</ele><time>2026-04-04T09:59:06.115Z</time></trkpt><trkpt lat="42.1283533" lon="12.1023667"><ele>328.75</ele><time>2026-04-04T09:59:07.113Z</time></trkpt><trkpt lat="42.1284133" lon="12.1025083"><ele>329.5</ele><time>2026-04-04T09:59:08.117Z</time></trkpt><trkpt lat="42.12847" lon="12.1026433"><ele>330.25</ele><time>2026-04-04T09:59:09.115Z</time></trkpt><trkpt lat="42.12853" lon="12.1027783"><ele>331.0</ele><time>2026-04-04T09:59:10.116Z</time></trkpt><trkpt lat="42.1285883" lon="12.1029233"><ele>331.0</ele><time>2026-04-04T09:59:11.115Z</time></trkpt><trkpt lat="42.1286417" lon="12.1030767"><ele>331.0</ele><time>2026-04-04T09:59:12.117Z</time></trkpt><trkpt lat="42.1287" lon="12.10323"><ele>331.0</ele><time>2026-04-04T09:59:13.117Z</time></trkpt><trkpt lat="42.128765" lon="12.1033817"><ele>331.0</ele><time>2026-04-04T09:59:14.114Z</time></trkpt><trkpt lat="42.128835" lon="12.1035383"><ele>330.75</ele><time>2026-04-04T09:59:15.116Z</time></trkpt><trkpt lat="42.1289033" lon="12.1036833"><ele>330.5</ele><time>2026-04-04T09:59:16.114Z</time></trkpt><trkpt lat="42.12898" lon="12.1038283"><ele>330.25</ele><time>2026-04-04T09:59:17.114Z</time></trkpt><trkpt lat="42.1290467" lon="12.103965"><ele>330.0</ele><time>2026-04-04T09:59:18.115Z</time></trkpt><trkpt lat="42.1291167" lon="12.1041017"><ele>331.5</ele><time>2026-04-04T09:59:19.117Z</time></trkpt><trkpt lat="42.1291917" lon="12.104235"><ele>333.0</ele><time>2026-04-04T09:59:20.118Z</time></trkpt><trkpt lat="42.1292667" lon="12.1043683"><ele>334.5</ele><time>2026-04-04T09:59:21.115Z</time></trkpt><trkpt lat="42.1293433" lon="12.1045067"><ele>336.0</ele><time>2026-04-04T09:59:22.116Z</time></trkpt><trkpt lat="42.1294133" lon="12.1046483"><ele>336.0</ele><time>2026-04-04T09:59:23.113Z</time></trkpt><trkpt lat="42.129475" lon="12.104775"><ele>336.0</ele><time>2026-04-04T09:59:24.116Z</time></trkpt><trkpt lat="42.1295367" lon="12.1048967"><ele>336.0</ele><time>2026-04-04T09:59:25.117Z</time></trkpt><trkpt lat="42.1295983" lon="12.1050083"><ele>336.0</ele><time>2026-04-04T09:59:26.114Z</time></trkpt><trkpt lat="42.1296483" lon="12.10513"><ele>336.0</ele><time>2026-04-04T09:59:27.117Z</time></trkpt><trkpt lat="42.1296783" lon="12.1052467"><ele>336.4</ele><time>2026-04-04T09:59:28.114Z</time></trkpt><trkpt lat="42.1296967" lon="12.1053633"><ele>336.8</ele><time>2026-04-04T09:59:29.114Z</time></trkpt><trkpt lat="42.12969" lon="12.1054833"><ele>337.2</ele><time>2026-04-04T09:59:30.114Z</time></trkpt><trkpt lat="42.129655" lon="12.1056067"><ele>337.59999999999997</ele><time>2026-04-04T09:59:31.115Z</time></trkpt><trkpt lat="42.129605" lon="12.1057367"><ele>338.0</ele><time>2026-04-04T09:59:32.114Z</time></trkpt><trkpt lat="42.129545" lon="12.1058733"><ele>339.0</ele><time>2026-04-04T09:59:33.118Z</time></trkpt><trkpt lat="42.1294783" lon="12.1060067"><ele>340.0</ele><time>2026-04-04T09:59:34.118Z</time></trkpt><trkpt lat="42.1294133" lon="12.10613"><ele>341.0</ele><time>2026-04-04T09:59:35.115Z</time></trkpt><trkpt lat="42.1293433" lon="12.1062517"><ele>342.0</ele><time>2026-04-04T09:59:36.114Z</time></trkpt><trkpt lat="42.129275" lon="12.1063633"><ele>342.0</ele><time>2026-04-04T09:59:37.11Z</time></trkpt><trkpt lat="42.129205" lon="12.10647"><ele>342.0</ele><time>2026-04-04T09:59:38.116Z</time></trkpt><trkpt lat="42.1291283" lon="12.1065833"><ele>342.0</ele><time>2026-04-04T09:59:39.117Z</time></trkpt><trkpt lat="42.1290517" lon="12.1066967"><ele>342.0</ele><time>2026-04-04T09:59:40.116Z</time></trkpt><trkpt lat="42.12897" lon="12.10681"><ele>341.5</ele><time>2026-04-04T09:59:41.114Z</time></trkpt><trkpt lat="42.128885" lon="12.1069283"><ele>341.0</ele><time>2026-04-04T09:59:42.117Z</time></trkpt><trkpt lat="42.1288017" lon="12.10705"><ele>340.5</ele><time>2026-04-04T09:59:43.117Z</time></trkpt><trkpt lat="42.1287233" lon="12.107185"><ele>340.0</ele><time>2026-04-04T09:59:44.114Z</time></trkpt><trkpt lat="42.1286517" lon="12.1073267"><ele>341.0</ele><time>2026-04-04T09:59:45.115Z</time></trkpt><trkpt lat="42.12859" lon="12.1074733"><ele>342.0</ele><time>2026-04-04T09:59:46.115Z</time></trkpt><trkpt lat="42.128535" lon="12.1076217"><ele>343.0</ele><time>2026-04-04T09:59:47.114Z</time></trkpt><trkpt lat="42.1284917" lon="12.107775"><ele>344.0</ele><time>2026-04-04T09:59:48.117Z</time></trkpt><trkpt lat="42.1284667" lon="12.1079333"><ele>344.0</ele><time>2026-04-04T09:59:49.12Z</time></trkpt><trkpt lat="42.1284533" lon="12.108095"><ele>344.0</ele><time>2026-04-04T09:59:50.115Z</time></trkpt><trkpt lat="42.1284567" lon="12.1082483"><ele>344.0</ele><time>2026-04-04T09:59:51.114Z</time></trkpt><trkpt lat="42.1284883" lon="12.1083917"><ele>344.0</ele><time>2026-04-04T09:59:52.117Z</time></trkpt><trkpt lat="42.12854" lon="12.10852"><ele>345.25</ele><time>2026-04-04T09:59:53.117Z</time></trkpt><trkpt lat="42.1286133" lon="12.10864"><ele>346.5</ele><time>2026-04-04T09:59:54.114Z</time></trkpt><trkpt lat="42.1287017" lon="12.1087617"><ele>347.75</ele><time>2026-04-04T09:59:55.118Z</time></trkpt><trkpt lat="42.1288017" lon="12.10889"><ele>349.0</ele><time>2026-04-04T09:59:56.113Z</time></trkpt><trkpt lat="42.1289017" lon="12.10901"><ele>349.0</ele><time>2026-04-04T09:59:57.117Z</time></trkpt><trkpt lat="42.12899" lon="12.10912"><ele>349.0</ele><time>2026-04-04T09:59:58.114Z</time></trkpt><trkpt lat="42.12908" lon="12.1092233"><ele>349.0</ele><time>2026-04-04T09:59:59.116Z</time></trkpt><trkpt lat="42.1291717" lon="12.10933"><ele>349.0</ele><time>2026-04-04T10:00:00.115Z</time></trkpt><trkpt lat="42.1292633" lon="12.1094417"><ele>349.0</ele><time>2026-04-04T10:00:01.114Z</time></trkpt><trkpt lat="42.1293583" lon="12.1095467"><ele>349.0</ele><time>2026-04-04T10:00:02.116Z</time></trkpt><trkpt lat="42.1294583" lon="12.1096467"><ele>349.0</ele><time>2026-04-04T10:00:03.118Z</time></trkpt><trkpt lat="42.1295617" lon="12.109745"><ele>349.0</ele><time>2026-04-04T10:00:04.118Z</time></trkpt><trkpt lat="42.1296717" lon="12.1098383"><ele>349.25</ele><time>2026-04-04T10:00:05.118Z</time></trkpt><trkpt lat="42.1297717" lon="12.1099283"><ele>349.5</ele><time>2026-04-04T10:00:06.113Z</time></trkpt><trkpt lat="42.1298683" lon="12.110025"><ele>349.75</ele><time>2026-04-04T10:00:07.11Z</time></trkpt><trkpt lat="42.129965" lon="12.110115"><ele>350.0</ele><time>2026-04-04T10:00:08.113Z</time></trkpt><trkpt lat="42.130045" lon="12.11021"><ele>350.0</ele><time>2026-04-04T10:00:09.118Z</time></trkpt><trkpt lat="42.1301433" lon="12.1102967"><ele>350.0</ele><time>2026-04-04T10:00:10.116Z</time></trkpt><trkpt lat="42.1302417" lon="12.110385"><ele>350.0</ele><time>2026-04-04T10:00:11.116Z</time></trkpt><trkpt lat="42.13033" lon="12.1104833"><ele>350.0</ele><time>2026-04-04T10:00:12.116Z</time></trkpt><trkpt lat="42.13039" lon="12.1106133"><ele>348.5</ele><time>2026-04-04T10:00:13.119Z</time></trkpt><trkpt lat="42.13044" lon="12.1107617"><ele>347.0</ele><time>2026-04-04T10:00:14.114Z</time></trkpt><trkpt lat="42.130485" lon="12.1109233"><ele>345.5</ele><time>2026-04-04T10:00:15.118Z</time></trkpt><trkpt lat="42.13054" lon="12.1110883"><ele>344.0</ele><time>2026-04-04T10:00:16.114Z</time></trkpt><trkpt lat="42.130585" lon="12.1112533"><ele>344.0</ele><time>2026-04-04T10:00:17.113Z</time></trkpt><trkpt lat="42.1306217" lon="12.11142"><ele>344.0</ele><time>2026-04-04T10:00:18.115Z</time></trkpt><trkpt lat="42.1306517" lon="12.1115867"><ele>344.0</ele><time>2026-04-04T10:00:19.116Z</time></trkpt><trkpt lat="42.1306683" lon="12.1117533"><ele>344.0</ele><time>2026-04-04T10:00:20.118Z</time></trkpt><trkpt lat="42.13067" lon="12.111915"><ele>344.75</ele><time>2026-04-04T10:00:21.117Z</time></trkpt><trkpt lat="42.1306567" lon="12.1120767"><ele>345.5</ele><time>2026-04-04T10:00:22.114Z</time></trkpt><trkpt lat="42.130625" lon="12.1122283"><ele>346.25</ele><time>2026-04-04T10:00:23.118Z</time></trkpt><trkpt lat="42.1305767" lon="12.1123733"><ele>347.0</ele><time>2026-04-04T10:00:24.114Z</time></trkpt><trkpt lat="42.130515" lon="12.1125033"><ele>348.6</ele><time>2026-04-04T10:00:25.118Z</time></trkpt><trkpt lat="42.13044" lon="12.1126317"><ele>350.20000000000005</ele><time>2026-04-04T10:00:26.115Z</time></trkpt><trkpt lat="42.1303583" lon="12.1127483"><ele>351.8</ele><time>2026-04-04T10:00:27.112Z</time></trkpt><trkpt lat="42.1302867" lon="12.1128467"><ele>353.4</ele><time>2026-04-04T10:00:28.115Z</time></trkpt><trkpt lat="42.130225" lon="12.1129433"><ele>355.0</ele><time>2026-04-04T10:00:29.114Z</time></trkpt><trkpt lat="42.1301733" lon="12.11304"><ele>355.0</ele><time>2026-04-04T10:00:30.118Z</time></trkpt><trkpt lat="42.1301433" lon="12.11315"><ele>355.0</ele><time>2026-04-04T10:00:31.114Z</time></trkpt><trkpt lat="42.1301383" lon="12.113265"><ele>355.0</ele><time>2026-04-04T10:00:32.114Z</time></trkpt><trkpt lat="42.1301567" lon="12.11338"><ele>355.0</ele><time>2026-04-04T10:00:33.118Z</time></trkpt><trkpt lat="42.1301933" lon="12.113495"><ele>355.0</ele><time>2026-04-04T10:00:34.116Z</time></trkpt><trkpt lat="42.1302467" lon="12.11361"><ele>356.4</ele><time>2026-04-04T10:00:35.115Z</time></trkpt><trkpt lat="42.1303017" lon="12.113725"><ele>357.8</ele><time>2026-04-04T10:00:36.117Z</time></trkpt><trkpt lat="42.13035" lon="12.1138317"><ele>359.20000000000005</ele><time>2026-04-04T10:00:37.115Z</time></trkpt><trkpt lat="42.1304083" lon="12.1139267"><ele>360.6</ele><time>2026-04-04T10:00:38.115Z</time></trkpt><trkpt lat="42.130465" lon="12.114025"><ele>362.0</ele><time>2026-04-04T10:00:39.116Z</time></trkpt><trkpt lat="42.1305183" lon="12.1141117"><ele>362.5</ele><time>2026-04-04T10:00:40.116Z</time></trkpt><trkpt lat="42.130565" lon="12.114195"><ele>363.0</ele><time>2026-04-04T10:00:41.115Z</time></trkpt><trkpt lat="42.130605" lon="12.1142867"><ele>363.5</ele><time>2026-04-04T10:00:42.118Z</time></trkpt><trkpt lat="42.1306483" lon="12.1143767"><ele>364.0</ele><time>2026-04-04T10:00:43.116Z</time></trkpt><trkpt lat="42.13069" lon="12.1144717"><ele>364.5</ele><time>2026-04-04T10:00:44.116Z</time></trkpt><trkpt lat="42.13074" lon="12.1145667"><ele>365.0</ele><time>2026-04-04T10:00:45.117Z</time></trkpt><trkpt lat="42.1308" lon="12.1146683"><ele>366.25</ele><time>2026-04-04T10:00:46.117Z</time></trkpt><trkpt lat="42.1308633" lon="12.1147867"><ele>367.5</ele><time>2026-04-04T10:00:47.117Z</time></trkpt><trkpt lat="42.130925" lon="12.1149167"><ele>368.75</ele><time>2026-04-04T10:00:48.117Z</time></trkpt><trkpt lat="42.130985" lon="12.115045"><ele>370.0</ele><time>2026-04-04T10:00:49.118Z</time></trkpt><trkpt lat="42.1310417" lon="12.1151817"><ele>370.0</ele><time>2026-04-04T10:00:50.118Z</time></trkpt><trkpt lat="42.1310967" lon="12.1153117"><ele>370.0</ele><time>2026-04-04T10:00:51.118Z</time></trkpt><trkpt lat="42.1311517" lon="12.1154283"><ele>370.0</ele><time>2026-04-04T10:00:52.115Z</time></trkpt><trkpt lat="42.1312083" lon="12.1155467"><ele>370.0</ele><time>2026-04-04T10:00:53.116Z</time></trkpt><trkpt lat="42.1312667" lon="12.1156483"><ele>370.0</ele><time>2026-04-04T10:00:54.12Z</time></trkpt><trkpt lat="42.131335" lon="12.1157467"><ele>370.6</ele><time>2026-04-04T10:00:55.118Z</time></trkpt><trkpt lat="42.13142" lon="12.115835"><ele>371.2</ele><time>2026-04-04T10:00:56.117Z</time></trkpt><trkpt lat="42.1315067" lon="12.11592"><ele>371.79999999999995</ele><time>2026-04-04T10:00:57.111Z</time></trkpt><trkpt lat="42.1316" lon="12.116"><ele>372.4</ele><time>2026-04-04T10:00:58.112Z</time></trkpt><trkpt lat="42.1316867" lon="12.1160717"><ele>373.0</ele><time>2026-04-04T10:00:59.116Z</time></trkpt><trkpt lat="42.13178" lon="12.1161333"><ele>373.0</ele><time>2026-04-04T10:01:00.117Z</time></trkpt><trkpt lat="42.1318717" lon="12.116195"><ele>373.0</ele><time>2026-04-04T10:01:01.119Z</time></trkpt><trkpt lat="42.131965" lon="12.11625"><ele>373.0</ele><time>2026-04-04T10:01:02.117Z</time></trkpt><trkpt lat="42.1320567" lon="12.116305"><ele>373.0</ele><time>2026-04-04T10:01:03.118Z</time></trkpt><trkpt lat="42.1321333" lon="12.1163717"><ele>373.0</ele><time>2026-04-04T10:01:04.117Z</time></trkpt><trkpt lat="42.1321933" lon="12.116455"><ele>373.0</ele><time>2026-04-04T10:01:05.115Z</time></trkpt><trkpt lat="42.1322433" lon="12.1165517"><ele>373.0</ele><time>2026-04-04T10:01:06.118Z</time></trkpt><trkpt lat="42.13228" lon="12.116675"><ele>373.0</ele><time>2026-04-04T10:01:07.114Z</time></trkpt><trkpt lat="42.1323067" lon="12.11681"><ele>373.0</ele><time>2026-04-04T10:01:08.109Z</time></trkpt><trkpt lat="42.13232" lon="12.116955"><ele>373.0</ele><time>2026-04-04T10:01:09.12Z</time></trkpt><trkpt lat="42.1323267" lon="12.117105"><ele>370.0</ele><time>2026-04-04T10:01:10.118Z</time></trkpt><trkpt lat="42.1323233" lon="12.1172667"><ele>367.0</ele><time>2026-04-04T10:01:11.11Z</time></trkpt><trkpt lat="42.1323067" lon="12.117435"><ele>364.0</ele><time>2026-04-04T10:01:12.117Z</time></trkpt><trkpt lat="42.132275" lon="12.1176"><ele>361.0</ele><time>2026-04-04T10:01:13.12Z</time></trkpt><trkpt lat="42.1322367" lon="12.117765"><ele>361.0</ele><time>2026-04-04T10:01:14.115Z</time></trkpt><trkpt lat="42.1321967" lon="12.1179333"><ele>361.0</ele><time>2026-04-04T10:01:15.114Z</time></trkpt><trkpt lat="42.1321517" lon="12.1181033"><ele>361.0</ele><time>2026-04-04T10:01:16.114Z</time></trkpt><trkpt lat="42.1321083" lon="12.1182767"><ele>361.0</ele><time>2026-04-04T10:01:17.117Z</time></trkpt><trkpt lat="42.1320667" lon="12.1184367"><ele>362.5</ele><time>2026-04-04T10:01:18.118Z</time></trkpt><trkpt lat="42.1320233" lon="12.1185917"><ele>364.0</ele><time>2026-04-04T10:01:19.118Z</time></trkpt><trkpt lat="42.1319767" lon="12.118745"><ele>365.5</ele><time>2026-04-04T10:01:20.117Z</time></trkpt><trkpt lat="42.131935" lon="12.1188933"><ele>367.0</ele><time>2026-04-04T10:01:21.12Z</time></trkpt><trkpt lat="42.131895" lon="12.1190417"><ele>368.20000000000005</ele><time>2026-04-04T10:01:22.117Z</time></trkpt><trkpt lat="42.1318617" lon="12.1191833"><ele>369.4</ele><time>2026-04-04T10:01:23.119Z</time></trkpt><trkpt lat="42.13183" lon="12.1193117"><ele>370.6</ele><time>2026-04-04T10:01:24.113Z</time></trkpt><trkpt lat="42.1318017" lon="12.11944"><ele>371.79999999999995</ele><time>2026-04-04T10:01:25.121Z</time></trkpt><trkpt lat="42.13178" lon="12.1195783"><ele>373.0</ele><time>2026-04-04T10:01:26.119Z</time></trkpt><trkpt lat="42.13176" lon="12.1197183"><ele>373.0</ele><time>2026-04-04T10:01:27.116Z</time></trkpt><trkpt lat="42.13174" lon="12.1198633"><ele>373.0</ele><time>2026-04-04T10:01:28.115Z</time></trkpt><trkpt lat="42.131725" lon="12.1200133"><ele>373.0</ele><time>2026-04-04T10:01:29.114Z</time></trkpt><trkpt lat="42.131715" lon="12.1201517"><ele>373.0</ele><time>2026-04-04T10:01:30.118Z</time></trkpt><trkpt lat="42.1317017" lon="12.120285"><ele>373.0</ele><time>2026-04-04T10:01:31.119Z</time></trkpt><trkpt lat="42.1316917" lon="12.12041"><ele>373.0</ele><time>2026-04-04T10:01:32.115Z</time></trkpt><trkpt lat="42.1316833" lon="12.120535"><ele>373.0</ele><time>2026-04-04T10:01:33.119Z</time></trkpt><trkpt lat="42.131675" lon="12.1206517"><ele>373.0</ele><time>2026-04-04T10:01:34.117Z</time></trkpt><trkpt lat="42.1316683" lon="12.1207517"><ele>373.0</ele><time>2026-04-04T10:01:35.117Z</time></trkpt><trkpt lat="42.1316617" lon="12.12084"><ele>373.0</ele><time>2026-04-04T10:01:36.117Z</time></trkpt><trkpt lat="42.1316517" lon="12.1209883"><ele>373.0</ele><time>2026-04-04T10:01:38.12Z</time></trkpt><trkpt lat="42.13159" lon="12.12107"><ele>371.2</ele><time>2026-04-04T10:01:40.112Z</time></trkpt><trkpt lat="42.1314933" lon="12.1210783"><ele>369.4</ele><time>2026-04-04T10:01:42.117Z</time></trkpt><trkpt lat="42.1314217" lon="12.12107"><ele>367.59999999999997</ele><time>2026-04-04T10:01:43.114Z</time></trkpt><trkpt lat="42.1313367" lon="12.121065"><ele>365.79999999999995</ele><time>2026-04-04T10:01:44.118Z</time></trkpt><trkpt lat="42.1312317" lon="12.1210583"><ele>364.0</ele><time>2026-04-04T10:01:45.11Z</time></trkpt><trkpt lat="42.1311217" lon="12.121055"><ele>364.0</ele><time>2026-04-04T10:01:46.115Z</time></trkpt><trkpt lat="42.131" lon="12.1210483"><ele>364.0</ele><time>2026-04-04T10:01:47.114Z</time></trkpt><trkpt lat="42.1308667" lon="12.1210417"><ele>364.0</ele><time>2026-04-04T10:01:48.118Z</time></trkpt><trkpt lat="42.1307333" lon="12.12104"><ele>364.0</ele><time>2026-04-04T10:01:49.117Z</time></trkpt><trkpt lat="42.130605" lon="12.1210433"><ele>362.75</ele><time>2026-04-04T10:01:50.119Z</time></trkpt><trkpt lat="42.1304783" lon="12.1210483"><ele>361.5</ele><time>2026-04-04T10:01:51.12Z</time></trkpt><trkpt lat="42.130355" lon="12.12105"><ele>360.25</ele><time>2026-04-04T10:01:52.112Z</time></trkpt><trkpt lat="42.1302333" lon="12.1210583"><ele>359.0</ele><time>2026-04-04T10:01:53.119Z</time></trkpt><trkpt lat="42.1301183" lon="12.12106"><ele>359.0</ele><time>2026-04-04T10:01:54.116Z</time></trkpt><trkpt lat="42.1300083" lon="12.1210533"><ele>359.0</ele><time>2026-04-04T10:01:55.118Z</time></trkpt><trkpt lat="42.1298983" lon="12.1210517"><ele>359.0</ele><time>2026-04-04T10:01:56.118Z</time></trkpt><trkpt lat="42.1297917" lon="12.1210517"><ele>359.0</ele><time>2026-04-04T10:01:57.114Z</time></trkpt><trkpt lat="42.1296917" lon="12.1210483"><ele>359.0</ele><time>2026-04-04T10:01:58.114Z</time></trkpt><trkpt lat="42.12958" lon="12.1210517"><ele>358.75</ele><time>2026-04-04T10:01:59.115Z</time></trkpt><trkpt lat="42.1294617" lon="12.1210617"><ele>358.5</ele><time>2026-04-04T10:02:00.116Z</time></trkpt><trkpt lat="42.1293367" lon="12.1210883"><ele>358.25</ele><time>2026-04-04T10:02:01.114Z</time></trkpt><trkpt lat="42.1292183" lon="12.12112"><ele>358.0</ele><time>2026-04-04T10:02:02.114Z</time></trkpt><trkpt lat="42.1291" lon="12.121145"><ele>356.5</ele><time>2026-04-04T10:02:03.119Z</time></trkpt><trkpt lat="42.12898" lon="12.121165"><ele>355.0</ele><time>2026-04-04T10:02:04.118Z</time></trkpt><trkpt lat="42.1288583" lon="12.1211817"><ele>353.5</ele><time>2026-04-04T10:02:05.118Z</time></trkpt><trkpt lat="42.1287317" lon="12.1211933"><ele>352.0</ele><time>2026-04-04T10:02:06.115Z</time></trkpt><trkpt lat="42.1285917" lon="12.1211883"><ele>352.0</ele><time>2026-04-04T10:02:07.118Z</time></trkpt><trkpt lat="42.1284483" lon="12.1211783"><ele>352.0</ele><time>2026-04-04T10:02:08.12Z</time></trkpt><trkpt lat="42.128315" lon="12.12117"><ele>352.0</ele><time>2026-04-04T10:02:09.119Z</time></trkpt><trkpt lat="42.1281883" lon="12.1211617"><ele>352.0</ele><time>2026-04-04T10:02:10.117Z</time></trkpt><trkpt lat="42.1280617" lon="12.1211483"><ele>350.5</ele><time>2026-04-04T10:02:11.114Z</time></trkpt><trkpt lat="42.1279317" lon="12.1211433"><ele>349.0</ele><time>2026-04-04T10:02:12.117Z</time></trkpt><trkpt lat="42.1278033" lon="12.12116"><ele>347.5</ele><time>2026-04-04T10:02:13.116Z</time></trkpt><trkpt lat="42.12769" lon="12.1211933"><ele>346.0</ele><time>2026-04-04T10:02:14.119Z</time></trkpt><trkpt lat="42.1275767" lon="12.12125"><ele>346.0</ele><time>2026-04-04T10:02:15.115Z</time></trkpt><trkpt lat="42.1274567" lon="12.1213267"><ele>346.0</ele><time>2026-04-04T10:02:16.117Z</time></trkpt><trkpt lat="42.127335" lon="12.1214133"><ele>346.0</ele><time>2026-04-04T10:02:17.114Z</time></trkpt><trkpt lat="42.1272217" lon="12.1214967"><ele>346.0</ele><time>2026-04-04T10:02:18.119Z</time></trkpt><trkpt lat="42.12712" lon="12.1215683"><ele>345.8333333333333</ele><time>2026-04-04T10:02:19.117Z</time></trkpt><trkpt lat="42.1270333" lon="12.1216417"><ele>345.66666666666663</ele><time>2026-04-04T10:02:20.117Z</time></trkpt><trkpt lat="42.1269567" lon="12.12171"><ele>345.5</ele><time>2026-04-04T10:02:21.117Z</time></trkpt><trkpt lat="42.1268883" lon="12.1217517"><ele>345.3333333333333</ele><time>2026-04-04T10:02:22.114Z</time></trkpt><trkpt lat="42.1268233" lon="12.1217783"><ele>345.1666666666667</ele><time>2026-04-04T10:02:23.114Z</time></trkpt><trkpt lat="42.1267183" lon="12.1218233"><ele>345.0</ele><time>2026-04-04T10:02:25.114Z</time></trkpt><trkpt lat="42.1266233" lon="12.12187"><ele>346.1666666666667</ele><time>2026-04-04T10:02:27.116Z</time></trkpt><trkpt lat="42.1265567" lon="12.1218883"><ele>347.3333333333333</ele><time>2026-04-04T10:02:28.118Z</time></trkpt><trkpt lat="42.126485" lon="12.1219117"><ele>348.5</ele><time>2026-04-04T10:02:29.115Z</time></trkpt><trkpt lat="42.126405" lon="12.121945"><ele>349.66666666666663</ele><time>2026-04-04T10:02:30.119Z</time></trkpt><trkpt lat="42.1263217" lon="12.1219783"><ele>350.8333333333333</ele><time>2026-04-04T10:02:31.118Z</time></trkpt><trkpt lat="42.1262267" lon="12.122015"><ele>352.0</ele><time>2026-04-04T10:02:32.119Z</time></trkpt><trkpt lat="42.126125" lon="12.122045"><ele>352.0</ele><time>2026-04-04T10:02:33.118Z</time></trkpt><trkpt lat="42.1260217" lon="12.1220817"><ele>352.0</ele><time>2026-04-04T10:02:34.116Z</time></trkpt><trkpt lat="42.12591" lon="12.1221217"><ele>352.0</ele><time>2026-04-04T10:02:35.11Z</time></trkpt><trkpt lat="42.1258017" lon="12.122165"><ele>352.0</ele><time>2026-04-04T10:02:36.118Z</time></trkpt><trkpt lat="42.1256967" lon="12.1222083"><ele>352.0</ele><time>2026-04-04T10:02:37.12Z</time></trkpt><trkpt lat="42.1255967" lon="12.12225"><ele>352.0</ele><time>2026-04-04T10:02:38.115Z</time></trkpt><trkpt lat="42.1254983" lon="12.1223017"><ele>352.0</ele><time>2026-04-04T10:02:39.118Z</time></trkpt><trkpt lat="42.125405" lon="12.1223617"><ele>352.0</ele><time>2026-04-04T10:02:40.118Z</time></trkpt><trkpt lat="42.1253183" lon="12.122435"><ele>352.0</ele><time>2026-04-04T10:02:41.117Z</time></trkpt><trkpt lat="42.125235" lon="12.1224983"><ele>352.0</ele><time>2026-04-04T10:02:42.117Z</time></trkpt><trkpt lat="42.1251467" lon="12.1225617"><ele>352.0</ele><time>2026-04-04T10:02:43.115Z</time></trkpt><trkpt lat="42.125055" lon="12.1226333"><ele>352.0</ele><time>2026-04-04T10:02:44.116Z</time></trkpt><trkpt lat="42.1249633" lon="12.1227167"><ele>352.0</ele><time>2026-04-04T10:02:45.118Z</time></trkpt><trkpt lat="42.1248733" lon="12.1227967"><ele>352.0</ele><time>2026-04-04T10:02:46.113Z</time></trkpt><trkpt lat="42.1247917" lon="12.1228633"><ele>352.0</ele><time>2026-04-04T10:02:47.114Z</time></trkpt><trkpt lat="42.12472" lon="12.122915"><ele>353.6</ele><time>2026-04-04T10:02:48.112Z</time></trkpt><trkpt lat="42.1246183" lon="12.1229733"><ele>355.20000000000005</ele><time>2026-04-04T10:02:50.115Z</time></trkpt><trkpt lat="42.1245317" lon="12.1229867"><ele>356.8</ele><time>2026-04-04T10:02:52.118Z</time></trkpt><trkpt lat="42.124395" lon="12.1229567"><ele>358.4</ele><time>2026-04-04T10:02:54.119Z</time></trkpt><trkpt lat="42.1243017" lon="12.1229333"><ele>360.0</ele><time>2026-04-04T10:02:55.117Z</time></trkpt><trkpt lat="42.12421" lon="12.1229167"><ele>360.0</ele><time>2026-04-04T10:02:56.116Z</time></trkpt><trkpt lat="42.124115" lon="12.1229017"><ele>360.0</ele><time>2026-04-04T10:02:57.118Z</time></trkpt><trkpt lat="42.124005" lon="12.1228833"><ele>360.0</ele><time>2026-04-04T10:02:58.117Z</time></trkpt><trkpt lat="42.1238867" lon="12.1228783"><ele>360.0</ele><time>2026-04-04T10:02:59.115Z</time></trkpt><trkpt lat="42.1237717" lon="12.1228817"><ele>360.0</ele><time>2026-04-04T10:03:00.118Z</time></trkpt><trkpt lat="42.1236567" lon="12.122885"><ele>361.6</ele><time>2026-04-04T10:03:01.117Z</time></trkpt><trkpt lat="42.12355" lon="12.122895"><ele>363.2</ele><time>2026-04-04T10:03:02.118Z</time></trkpt><trkpt lat="42.1234467" lon="12.122915"><ele>364.79999999999995</ele><time>2026-04-04T10:03:03.112Z</time></trkpt><trkpt lat="42.1233417" lon="12.12295"><ele>366.4</ele><time>2026-04-04T10:03:04.117Z</time></trkpt><trkpt lat="42.1232367" lon="12.122985"><ele>368.0</ele><time>2026-04-04T10:03:05.119Z</time></trkpt><trkpt lat="42.1231333" lon="12.1230333"><ele>368.5</ele><time>2026-04-04T10:03:06.115Z</time></trkpt><trkpt lat="42.12303" lon="12.1230983"><ele>369.0</ele><time>2026-04-04T10:03:07.118Z</time></trkpt><trkpt lat="42.122925" lon="12.12317"><ele>369.5</ele><time>2026-04-04T10:03:08.116Z</time></trkpt><trkpt lat="42.1228233" lon="12.1232567"><ele>370.0</ele><time>2026-04-04T10:03:09.118Z</time></trkpt><trkpt lat="42.122725" lon="12.1233567"><ele>370.0</ele><time>2026-04-04T10:03:10.117Z</time></trkpt><trkpt lat="42.1226283" lon="12.12347"><ele>370.0</ele><time>2026-04-04T10:03:11.116Z</time></trkpt><trkpt lat="42.1225267" lon="12.123605"><ele>370.0</ele><time>2026-04-04T10:03:12.115Z</time></trkpt><trkpt lat="42.1224183" lon="12.123745"><ele>370.0</ele><time>2026-04-04T10:03:13.117Z</time></trkpt><trkpt lat="42.1223033" lon="12.12387"><ele>369.3333333333333</ele><time>2026-04-04T10:03:14.117Z</time></trkpt><trkpt lat="42.1221917" lon="12.12401"><ele>368.6666666666667</ele><time>2026-04-04T10:03:15.118Z</time></trkpt><trkpt lat="42.12208" lon="12.1241633"><ele>368.0</ele><time>2026-04-04T10:03:16.108Z</time></trkpt><trkpt lat="42.1219667" lon="12.12433"><ele>368.0</ele><time>2026-04-04T10:03:17.118Z</time></trkpt><trkpt lat="42.1218533" lon="12.1244867"><ele>368.0</ele><time>2026-04-04T10:03:18.119Z</time></trkpt><trkpt lat="42.1217483" lon="12.1246417"><ele>368.0</ele><time>2026-04-04T10:03:19.118Z</time></trkpt><trkpt lat="42.1216417" lon="12.1247967"><ele>366.6666666666667</ele><time>2026-04-04T10:03:20.118Z</time></trkpt><trkpt lat="42.12153" lon="12.1249483"><ele>365.3333333333333</ele><time>2026-04-04T10:03:21.119Z</time></trkpt><trkpt lat="42.1214183" lon="12.1250783"><ele>364.0</ele><time>2026-04-04T10:03:22.116Z</time></trkpt><trkpt lat="42.121315" lon="12.12523"><ele>364.0</ele><time>2026-04-04T10:03:23.118Z</time></trkpt><trkpt lat="42.1212133" lon="12.1253667"><ele>364.0</ele><time>2026-04-04T10:03:24.117Z</time></trkpt><trkpt lat="42.1211133" lon="12.12549"><ele>364.0</ele><time>2026-04-04T10:03:25.117Z</time></trkpt><trkpt lat="42.1210383" lon="12.1255733"><ele>364.0</ele><time>2026-04-04T10:03:26.118Z</time></trkpt><trkpt lat="42.1209683" lon="12.1256317"><ele>364.0</ele><time>2026-04-04T10:03:27.117Z</time></trkpt><trkpt lat="42.1209" lon="12.1256833"><ele>364.0</ele><time>2026-04-04T10:03:28.117Z</time></trkpt><trkpt lat="42.1208267" lon="12.1257367"><ele>364.0</ele><time>2026-04-04T10:03:29.115Z</time></trkpt><trkpt lat="42.1207383" lon="12.1257817"><ele>364.0</ele><time>2026-04-04T10:03:30.114Z</time></trkpt><trkpt lat="42.120635" lon="12.1258183"><ele>364.0</ele><time>2026-04-04T10:03:31.114Z</time></trkpt><trkpt lat="42.1205167" lon="12.1258583"><ele>361.5</ele><time>2026-04-04T10:03:32.118Z</time></trkpt><trkpt lat="42.1203933" lon="12.12589"><ele>359.0</ele><time>2026-04-04T10:03:33.111Z</time></trkpt><trkpt lat="42.12027" lon="12.1259083"><ele>356.5</ele><time>2026-04-04T10:03:34.117Z</time></trkpt><trkpt lat="42.120155" lon="12.125915"><ele>354.0</ele><time>2026-04-04T10:03:35.113Z</time></trkpt><trkpt lat="42.1200467" lon="12.1259117"><ele>354.0</ele><time>2026-04-04T10:03:36.113Z</time></trkpt><trkpt lat="42.1199433" lon="12.1259"><ele>354.0</ele><time>2026-04-04T10:03:37.116Z</time></trkpt><trkpt lat="42.1198383" lon="12.125885"><ele>354.0</ele><time>2026-04-04T10:03:38.117Z</time></trkpt><trkpt lat="42.1197283" lon="12.1258633"><ele>354.0</ele><time>2026-04-04T10:03:39.116Z</time></trkpt><trkpt lat="42.119615" lon="12.125835"><ele>354.0</ele><time>2026-04-04T10:03:40.115Z</time></trkpt><trkpt lat="42.1195033" lon="12.1258083"><ele>353.75</ele><time>2026-04-04T10:03:41.114Z</time></trkpt><trkpt lat="42.11938" lon="12.1257817"><ele>353.5</ele><time>2026-04-04T10:03:42.109Z</time></trkpt><trkpt lat="42.1192467" lon="12.1257483"><ele>353.25</ele><time>2026-04-04T10:03:43.113Z</time></trkpt><trkpt lat="42.11911" lon="12.1257167"><ele>353.0</ele><time>2026-04-04T10:03:44.116Z</time></trkpt><trkpt lat="42.1189817" lon="12.1256733"><ele>353.0</ele><time>2026-04-04T10:03:45.116Z</time></trkpt><trkpt lat="42.1188533" lon="12.125635"><ele>353.0</ele><time>2026-04-04T10:03:46.117Z</time></trkpt><trkpt lat="42.1187267" lon="12.12559"><ele>353.0</ele><time>2026-04-04T10:03:47.116Z</time></trkpt><trkpt lat="42.1186" lon="12.1255533"><ele>353.0</ele><time>2026-04-04T10:03:48.119Z</time></trkpt><trkpt lat="42.118475" lon="12.12552"><ele>353.0</ele><time>2026-04-04T10:03:49.119Z</time></trkpt><trkpt lat="42.11835" lon="12.125485"><ele>353.0</ele><time>2026-04-04T10:03:50.117Z</time></trkpt><trkpt lat="42.1182217" lon="12.1254567"><ele>353.0</ele><time>2026-04-04T10:03:51.117Z</time></trkpt><trkpt lat="42.1181" lon="12.12543"><ele>353.0</ele><time>2026-04-04T10:03:52.109Z</time></trkpt><trkpt lat="42.1179917" lon="12.1253983"><ele>352.0</ele><time>2026-04-04T10:03:53.109Z</time></trkpt><trkpt lat="42.1178883" lon="12.1253667"><ele>351.0</ele><time>2026-04-04T10:03:54.115Z</time></trkpt><trkpt lat="42.1177867" lon="12.1253383"><ele>350.0</ele><time>2026-04-04T10:03:55.116Z</time></trkpt><trkpt lat="42.1176883" lon="12.1253083"><ele>349.0</ele><time>2026-04-04T10:03:56.114Z</time></trkpt><trkpt lat="42.1175833" lon="12.125275"><ele>348.0</ele><time>2026-04-04T10:03:57.12Z</time></trkpt><trkpt lat="42.1174783" lon="12.1252467"><ele>346.0</ele><time>2026-04-04T10:03:58.11Z</time></trkpt><trkpt lat="42.1173783" lon="12.1252183"><ele>344.0</ele><time>2026-04-04T10:03:59.116Z</time></trkpt><trkpt lat="42.1172817" lon="12.1251933"><ele>342.0</ele><time>2026-04-04T10:04:00.117Z</time></trkpt><trkpt lat="42.1171783" lon="12.1251683"><ele>340.0</ele><time>2026-04-04T10:04:01.114Z</time></trkpt><trkpt lat="42.117075" lon="12.1251383"><ele>338.0</ele><time>2026-04-04T10:04:02.118Z</time></trkpt><trkpt lat="42.1169667" lon="12.1251133"><ele>338.0</ele><time>2026-04-04T10:04:03.119Z</time></trkpt><trkpt lat="42.11686" lon="12.1250867"><ele>338.0</ele><time>2026-04-04T10:04:04.117Z</time></trkpt><trkpt lat="42.1167517" lon="12.12506"><ele>338.0</ele><time>2026-04-04T10:04:05.118Z</time></trkpt><trkpt lat="42.1166317" lon="12.1250283"><ele>338.0</ele><time>2026-04-04T10:04:06.114Z</time></trkpt><trkpt lat="42.1165017" lon="12.1249933"><ele>337.0</ele><time>2026-04-04T10:04:07.116Z</time></trkpt><trkpt lat="42.1163617" lon="12.1249567"><ele>336.0</ele><time>2026-04-04T10:04:08.114Z</time></trkpt><trkpt lat="42.1162133" lon="12.1249183"><ele>335.0</ele><time>2026-04-04T10:04:09.118Z</time></trkpt><trkpt lat="42.1160667" lon="12.1248717"><ele>334.0</ele><time>2026-04-04T10:04:10.117Z</time></trkpt><trkpt lat="42.11592" lon="12.12483"><ele>333.5</ele><time>2026-04-04T10:04:11.118Z</time></trkpt><trkpt lat="42.1157817" lon="12.1247933"><ele>333.0</ele><time>2026-04-04T10:04:12.114Z</time></trkpt><trkpt lat="42.1156467" lon="12.12476"><ele>332.5</ele><time>2026-04-04T10:04:13.118Z</time></trkpt><trkpt lat="42.1155183" lon="12.1247233"><ele>332.0</ele><time>2026-04-04T10:04:14.116Z</time></trkpt><trkpt lat="42.115395" lon="12.1246833"><ele>331.5</ele><time>2026-04-04T10:04:15.118Z</time></trkpt><trkpt lat="42.11527" lon="12.1246417"><ele>331.0</ele><time>2026-04-04T10:04:16.115Z</time></trkpt><trkpt lat="42.1151533" lon="12.1245983"><ele>330.5</ele><time>2026-04-04T10:04:17.116Z</time></trkpt><trkpt lat="42.115035" lon="12.12456"><ele>330.0</ele><time>2026-04-04T10:04:18.115Z</time></trkpt><trkpt lat="42.11491" lon="12.1245267"><ele>330.75</ele><time>2026-04-04T10:04:19.116Z</time></trkpt><trkpt lat="42.114795" lon="12.1244933"><ele>331.5</ele><time>2026-04-04T10:04:20.121Z</time></trkpt><trkpt lat="42.1146733" lon="12.1244667"><ele>332.25</ele><time>2026-04-04T10:04:21.113Z</time></trkpt><trkpt lat="42.1145483" lon="12.124445"><ele>333.0</ele><time>2026-04-04T10:04:22.118Z</time></trkpt><trkpt lat="42.1144233" lon="12.1244367"><ele>333.0</ele><time>2026-04-04T10:04:23.118Z</time></trkpt><trkpt lat="42.11429" lon="12.12444"><ele>333.0</ele><time>2026-04-04T10:04:24.114Z</time></trkpt><trkpt lat="42.1141583" lon="12.124455"><ele>333.0</ele><time>2026-04-04T10:04:25.112Z</time></trkpt><trkpt lat="42.1140267" lon="12.1244817"><ele>333.0</ele><time>2026-04-04T10:04:26.115Z</time></trkpt><trkpt lat="42.1138933" lon="12.12452"><ele>332.75</ele><time>2026-04-04T10:04:27.118Z</time></trkpt><trkpt lat="42.1137567" lon="12.124565"><ele>332.5</ele><time>2026-04-04T10:04:28.114Z</time></trkpt><trkpt lat="42.1136183" lon="12.12463"><ele>332.25</ele><time>2026-04-04T10:04:29.118Z</time></trkpt><trkpt lat="42.113475" lon="12.12471"><ele>332.0</ele><time>2026-04-04T10:04:30.115Z</time></trkpt><trkpt lat="42.1133333" lon="12.12481"><ele>336.0</ele><time>2026-04-04T10:04:31.115Z</time></trkpt><trkpt lat="42.113195" lon="12.1249217"><ele>340.0</ele><time>2026-04-04T10:04:32.114Z</time></trkpt><trkpt lat="42.1130617" lon="12.1250383"><ele>344.0</ele><time>2026-04-04T10:04:33.117Z</time></trkpt><trkpt lat="42.112925" lon="12.12516"><ele>344.0</ele><time>2026-04-04T10:04:34.119Z</time></trkpt><trkpt lat="42.1127867" lon="12.1252867"><ele>344.0</ele><time>2026-04-04T10:04:35.116Z</time></trkpt><trkpt lat="42.1126517" lon="12.1254117"><ele>344.0</ele><time>2026-04-04T10:04:36.114Z</time></trkpt><trkpt lat="42.112515" lon="12.125545"><ele>347.6666666666667</ele><time>2026-04-04T10:04:37.118Z</time></trkpt><trkpt lat="42.1123733" lon="12.1256817"><ele>351.3333333333333</ele><time>2026-04-04T10:04:38.117Z</time></trkpt><trkpt lat="42.1122333" lon="12.125815"><ele>355.0</ele><time>2026-04-04T10:04:39.119Z</time></trkpt><trkpt lat="42.1121017" lon="12.1259367"><ele>355.0</ele><time>2026-04-04T10:04:40.117Z</time></trkpt><trkpt lat="42.1119667" lon="12.1260617"><ele>355.0</ele><time>2026-04-04T10:04:41.118Z</time></trkpt><trkpt lat="42.11183" lon="12.126195"><ele>355.0</ele><time>2026-04-04T10:04:42.116Z</time></trkpt><trkpt lat="42.1116883" lon="12.1263233"><ele>356.3333333333333</ele><time>2026-04-04T10:04:43.118Z</time></trkpt><trkpt lat="42.1115483" lon="12.1264533"><ele>357.6666666666667</ele><time>2026-04-04T10:04:44.115Z</time></trkpt><trkpt lat="42.111405" lon="12.1265783"><ele>359.0</ele><time>2026-04-04T10:04:45.116Z</time></trkpt><trkpt lat="42.11127" lon="12.1267067"><ele>354.6666666666667</ele><time>2026-04-04T10:04:46.114Z</time></trkpt><trkpt lat="42.111135" lon="12.1268283"><ele>350.3333333333333</ele><time>2026-04-04T10:04:47.117Z</time></trkpt><trkpt lat="42.1109883" lon="12.12695"><ele>346.0</ele><time>2026-04-04T10:04:48.117Z</time></trkpt><trkpt lat="42.1108383" lon="12.1270767"><ele>346.0</ele><time>2026-04-04T10:04:49.117Z</time></trkpt><trkpt lat="42.1107017" lon="12.1272033"><ele>346.0</ele><time>2026-04-04T10:04:50.114Z</time></trkpt><trkpt lat="42.110575" lon="12.1273167"><ele>346.0</ele><time>2026-04-04T10:04:51.119Z</time></trkpt><trkpt lat="42.110455" lon="12.1274217"><ele>346.66666666666663</ele><time>2026-04-04T10:04:52.119Z</time></trkpt><trkpt lat="42.1103367" lon="12.12754"><ele>347.3333333333333</ele><time>2026-04-04T10:04:53.115Z</time></trkpt><trkpt lat="42.110215" lon="12.1276717"><ele>348.0</ele><time>2026-04-04T10:04:54.117Z</time></trkpt><trkpt lat="42.110095" lon="12.1278033"><ele>348.0</ele><time>2026-04-04T10:04:55.115Z</time></trkpt><trkpt lat="42.1099783" lon="12.1279517"><ele>348.0</ele><time>2026-04-04T10:04:56.116Z</time></trkpt><trkpt lat="42.1098783" lon="12.1281067"><ele>348.0</ele><time>2026-04-04T10:04:57.116Z</time></trkpt><trkpt lat="42.1097883" lon="12.1282567"><ele>349.25</ele><time>2026-04-04T10:04:58.114Z</time></trkpt><trkpt lat="42.1096967" lon="12.1284083"><ele>350.5</ele><time>2026-04-04T10:04:59.118Z</time></trkpt><trkpt lat="42.10961" lon="12.1285633"><ele>351.75</ele><time>2026-04-04T10:05:00.121Z</time></trkpt><trkpt lat="42.1095317" lon="12.1287233"><ele>353.0</ele><time>2026-04-04T10:05:01.118Z</time></trkpt><trkpt lat="42.1094567" lon="12.1288867"><ele>353.5</ele><time>2026-04-04T10:05:02.116Z</time></trkpt><trkpt lat="42.10939" lon="12.1290667"><ele>354.0</ele><time>2026-04-04T10:05:03.117Z</time></trkpt><trkpt lat="42.10933" lon="12.1292467"><ele>354.5</ele><time>2026-04-04T10:05:04.118Z</time></trkpt><trkpt lat="42.1092717" lon="12.129425"><ele>355.0</ele><time>2026-04-04T10:05:05.116Z</time></trkpt><trkpt lat="42.1092183" lon="12.1296017"><ele>355.0</ele><time>2026-04-04T10:05:06.121Z</time></trkpt><trkpt lat="42.109175" lon="12.1297833"><ele>355.0</ele><time>2026-04-04T10:05:07.121Z</time></trkpt><trkpt lat="42.1091367" lon="12.1299717"><ele>355.0</ele><time>2026-04-04T10:05:08.116Z</time></trkpt><trkpt lat="42.109095" lon="12.1301733"><ele>355.0</ele><time>2026-04-04T10:05:09.119Z</time></trkpt><trkpt lat="42.1090633" lon="12.13038"><ele>353.3333333333333</ele><time>2026-04-04T10:05:10.115Z</time></trkpt><trkpt lat="42.10904" lon="12.1305833"><ele>351.6666666666667</ele><time>2026-04-04T10:05:11.116Z</time></trkpt><trkpt lat="42.10902" lon="12.1307833"><ele>350.0</ele><time>2026-04-04T10:05:12.119Z</time></trkpt><trkpt lat="42.1090033" lon="12.1309867"><ele>350.0</ele><time>2026-04-04T10:05:13.116Z</time></trkpt><trkpt lat="42.1089917" lon="12.1311933"><ele>350.0</ele><time>2026-04-04T10:05:14.118Z</time></trkpt><trkpt lat="42.1089867" lon="12.1313933"><ele>350.0</ele><time>2026-04-04T10:05:15.118Z</time></trkpt><trkpt lat="42.1089883" lon="12.13159"><ele>350.0</ele><time>2026-04-04T10:05:16.118Z</time></trkpt><trkpt lat="42.1089883" lon="12.1317883"><ele>351.33333333333337</ele><time>2026-04-04T10:05:17.114Z</time></trkpt><trkpt lat="42.108985" lon="12.1319883"><ele>352.6666666666667</ele><time>2026-04-04T10:05:18.113Z</time></trkpt><trkpt lat="42.108975" lon="12.132195"><ele>354.0</ele><time>2026-04-04T10:05:19.115Z</time></trkpt><trkpt lat="42.108955" lon="12.1323983"><ele>355.0</ele><time>2026-04-04T10:05:20.108Z</time></trkpt><trkpt lat="42.1089233" lon="12.1325933"><ele>356.0</ele><time>2026-04-04T10:05:21.117Z</time></trkpt><trkpt lat="42.108885" lon="12.132775"><ele>357.0</ele><time>2026-04-04T10:05:22.117Z</time></trkpt><trkpt lat="42.1088433" lon="12.1329617"><ele>358.0</ele><time>2026-04-04T10:05:23.107Z</time></trkpt><trkpt lat="42.1088017" lon="12.1331433"><ele>355.75</ele><time>2026-04-04T10:05:24.107Z</time></trkpt><trkpt lat="42.1087583" lon="12.1333333"><ele>353.5</ele><time>2026-04-04T10:05:25.113Z</time></trkpt><trkpt lat="42.1087083" lon="12.1335167"><ele>351.25</ele><time>2026-04-04T10:05:26.114Z</time></trkpt><trkpt lat="42.10865" lon="12.1336867"><ele>349.0</ele><time>2026-04-04T10:05:27.114Z</time></trkpt><trkpt lat="42.1085933" lon="12.133865"><ele>349.0</ele><time>2026-04-04T10:05:28.116Z</time></trkpt><trkpt lat="42.1085383" lon="12.1340517"><ele>349.0</ele><time>2026-04-04T10:05:29.116Z</time></trkpt><trkpt lat="42.1084767" lon="12.1342383"><ele>349.0</ele><time>2026-04-04T10:05:30.118Z</time></trkpt><trkpt lat="42.1084167" lon="12.134425"><ele>347.3333333333333</ele><time>2026-04-04T10:05:31.116Z</time></trkpt><trkpt lat="42.1083683" lon="12.13463"><ele>345.6666666666667</ele><time>2026-04-04T10:05:32.114Z</time></trkpt><trkpt lat="42.1083367" lon="12.1348317"><ele>344.0</ele><time>2026-04-04T10:05:33.114Z</time></trkpt><trkpt lat="42.10831" lon="12.1350433"><ele>344.0</ele><time>2026-04-04T10:05:34.12Z</time></trkpt><trkpt lat="42.1082933" lon="12.1352617"><ele>344.0</ele><time>2026-04-04T10:05:35.115Z</time></trkpt><trkpt lat="42.10828" lon="12.1354667"><ele>344.0</ele><time>2026-04-04T10:05:36.117Z</time></trkpt><trkpt lat="42.1082617" lon="12.135665"><ele>344.5</ele><time>2026-04-04T10:05:37.119Z</time></trkpt><trkpt lat="42.1082433" lon="12.1358683"><ele>345.0</ele><time>2026-04-04T10:05:38.119Z</time></trkpt><trkpt lat="42.1082333" lon="12.1360617"><ele>345.5</ele><time>2026-04-04T10:05:39.109Z</time></trkpt><trkpt lat="42.1082233" lon="12.136265"><ele>346.0</ele><time>2026-04-04T10:05:40.115Z</time></trkpt><trkpt lat="42.1082117" lon="12.1364733"><ele>348.3333333333333</ele><time>2026-04-04T10:05:41.109Z</time></trkpt><trkpt lat="42.108205" lon="12.1366867"><ele>350.6666666666667</ele><time>2026-04-04T10:05:42.119Z</time></trkpt><trkpt lat="42.1082" lon="12.1368983"><ele>353.0</ele><time>2026-04-04T10:05:43.118Z</time></trkpt><trkpt lat="42.1081883" lon="12.1371"><ele>353.0</ele><time>2026-04-04T10:05:44.117Z</time></trkpt><trkpt lat="42.1081717" lon="12.1373033"><ele>353.0</ele><time>2026-04-04T10:05:45.118Z</time></trkpt><trkpt lat="42.108145" lon="12.137505"><ele>353.0</ele><time>2026-04-04T10:05:46.118Z</time></trkpt><trkpt lat="42.1081067" lon="12.13771"><ele>354.33333333333337</ele><time>2026-04-04T10:05:47.116Z</time></trkpt><trkpt lat="42.1080583" lon="12.1379083"><ele>355.6666666666667</ele><time>2026-04-04T10:05:48.12Z</time></trkpt><trkpt lat="42.1080083" lon="12.13811"><ele>357.0</ele><time>2026-04-04T10:05:49.117Z</time></trkpt><trkpt lat="42.107955" lon="12.1382983"><ele>357.0</ele><time>2026-04-04T10:05:50.117Z</time></trkpt><trkpt lat="42.1079033" lon="12.1384833"><ele>357.0</ele><time>2026-04-04T10:05:51.118Z</time></trkpt><trkpt lat="42.1078533" lon="12.1386683"><ele>357.0</ele><time>2026-04-04T10:05:52.114Z</time></trkpt><trkpt lat="42.107805" lon="12.1388533"><ele>357.0</ele><time>2026-04-04T10:05:53.117Z</time></trkpt><trkpt lat="42.1077567" lon="12.13904"><ele>356.75</ele><time>2026-04-04T10:05:54.118Z</time></trkpt><trkpt lat="42.1077133" lon="12.139225"><ele>356.5</ele><time>2026-04-04T10:05:55.115Z</time></trkpt><trkpt lat="42.10768" lon="12.1394117"><ele>356.25</ele><time>2026-04-04T10:05:56.118Z</time></trkpt><trkpt lat="42.10766" lon="12.1396067"><ele>356.0</ele><time>2026-04-04T10:05:57.116Z</time></trkpt><trkpt lat="42.1076533" lon="12.1398017"><ele>355.0</ele><time>2026-04-04T10:05:58.118Z</time></trkpt><trkpt lat="42.10766" lon="12.140005"><ele>354.0</ele><time>2026-04-04T10:05:59.118Z</time></trkpt><trkpt lat="42.1076717" lon="12.1402067"><ele>353.0</ele><time>2026-04-04T10:06:00.118Z</time></trkpt><trkpt lat="42.1076867" lon="12.140415"><ele>353.0</ele><time>2026-04-04T10:06:01.11Z</time></trkpt><trkpt lat="42.1077067" lon="12.1406233"><ele>353.0</ele><time>2026-04-04T10:06:02.119Z</time></trkpt><trkpt lat="42.1077317" lon="12.14083"><ele>353.0</ele><time>2026-04-04T10:06:03.116Z</time></trkpt><trkpt lat="42.107775" lon="12.1410283"><ele>352.33333333333337</ele><time>2026-04-04T10:06:04.119Z</time></trkpt><trkpt lat="42.1078133" lon="12.14123"><ele>351.6666666666667</ele><time>2026-04-04T10:06:05.117Z</time></trkpt><trkpt lat="42.107845" lon="12.1414333"><ele>351.0</ele><time>2026-04-04T10:06:06.117Z</time></trkpt><trkpt lat="42.1078717" lon="12.1416433"><ele>351.0</ele><time>2026-04-04T10:06:07.119Z</time></trkpt><trkpt lat="42.1078917" lon="12.1418633"><ele>351.0</ele><time>2026-04-04T10:06:08.12Z</time></trkpt><trkpt lat="42.1079067" lon="12.1420917"><ele>351.0</ele><time>2026-04-04T10:06:09.12Z</time></trkpt><trkpt lat="42.1079183" lon="12.1423233"><ele>350.3333333333333</ele><time>2026-04-04T10:06:10.118Z</time></trkpt><trkpt lat="42.10793" lon="12.142555"><ele>349.66666666666663</ele><time>2026-04-04T10:06:11.118Z</time></trkpt><trkpt lat="42.107945" lon="12.1427867"><ele>349.0</ele><time>2026-04-04T10:06:12.121Z</time></trkpt><trkpt lat="42.1079517" lon="12.14301"><ele>347.0</ele><time>2026-04-04T10:06:13.119Z</time></trkpt><trkpt lat="42.1079633" lon="12.14322"><ele>345.0</ele><time>2026-04-04T10:06:14.122Z</time></trkpt><trkpt lat="42.107955" lon="12.1434383"><ele>343.0</ele><time>2026-04-04T10:06:15.12Z</time></trkpt><trkpt lat="42.1079317" lon="12.143665"><ele>343.0</ele><time>2026-04-04T10:06:16.12Z</time></trkpt><trkpt lat="42.1078933" lon="12.143885"><ele>343.0</ele><time>2026-04-04T10:06:17.116Z</time></trkpt><trkpt lat="42.1078483" lon="12.1441033"><ele>343.0</ele><time>2026-04-04T10:06:18.112Z</time></trkpt><trkpt lat="42.1078" lon="12.1443117"><ele>342.66666666666663</ele><time>2026-04-04T10:06:19.114Z</time></trkpt><trkpt lat="42.10774" lon="12.1445183"><ele>342.3333333333333</ele><time>2026-04-04T10:06:20.109Z</time></trkpt><trkpt lat="42.1076867" lon="12.14472"><ele>342.0</ele><time>2026-04-04T10:06:21.119Z</time></trkpt><trkpt lat="42.107635" lon="12.1449317"><ele>342.0</ele><time>2026-04-04T10:06:22.118Z</time></trkpt><trkpt lat="42.1075917" lon="12.145145"><ele>342.0</ele><time>2026-04-04T10:06:23.115Z</time></trkpt><trkpt lat="42.1075533" lon="12.1453633"><ele>342.0</ele><time>2026-04-04T10:06:24.118Z</time></trkpt><trkpt lat="42.1075233" lon="12.1455883"><ele>340.3333333333333</ele><time>2026-04-04T10:06:25.114Z</time></trkpt><trkpt lat="42.107505" lon="12.1458183"><ele>338.66666666666663</ele><time>2026-04-04T10:06:26.116Z</time></trkpt><trkpt lat="42.107485" lon="12.146055"><ele>337.0</ele><time>2026-04-04T10:06:27.118Z</time></trkpt><trkpt lat="42.1074633" lon="12.1462883"><ele>337.0</ele><time>2026-04-04T10:06:28.114Z</time></trkpt><trkpt lat="42.1074367" lon="12.1465217"><ele>337.0</ele><time>2026-04-04T10:06:29.118Z</time></trkpt><trkpt lat="42.10741" lon="12.1467467"><ele>337.0</ele><time>2026-04-04T10:06:30.115Z</time></trkpt><trkpt lat="42.107385" lon="12.1469733"><ele>334.0</ele><time>2026-04-04T10:06:31.119Z</time></trkpt><trkpt lat="42.1073567" lon="12.14721"><ele>331.0</ele><time>2026-04-04T10:06:32.115Z</time></trkpt><trkpt lat="42.107325" lon="12.14746"><ele>328.0</ele><time>2026-04-04T10:06:33.117Z</time></trkpt><trkpt lat="42.1072983" lon="12.1477017"><ele>327.3333333333333</ele><time>2026-04-04T10:06:34.118Z</time></trkpt><trkpt lat="42.10726" lon="12.1479383"><ele>326.6666666666667</ele><time>2026-04-04T10:06:35.118Z</time></trkpt><trkpt lat="42.1072017" lon="12.1481817"><ele>326.0</ele><time>2026-04-04T10:06:36.116Z</time></trkpt><trkpt lat="42.107125" lon="12.148425"><ele>325.0</ele><time>2026-04-04T10:06:37.117Z</time></trkpt><trkpt lat="42.10705" lon="12.148655"><ele>324.0</ele><time>2026-04-04T10:06:38.116Z</time></trkpt><trkpt lat="42.106975" lon="12.1488767"><ele>323.0</ele><time>2026-04-04T10:06:39.117Z</time></trkpt><trkpt lat="42.106905" lon="12.1491017"><ele>323.0</ele><time>2026-04-04T10:06:40.116Z</time></trkpt><trkpt lat="42.1068317" lon="12.1493267"><ele>323.0</ele><time>2026-04-04T10:06:41.117Z</time></trkpt><trkpt lat="42.1067567" lon="12.1495467"><ele>323.0</ele><time>2026-04-04T10:06:42.118Z</time></trkpt><trkpt lat="42.1066833" lon="12.1497583"><ele>322.33333333333337</ele><time>2026-04-04T10:06:43.117Z</time></trkpt><trkpt lat="42.1066167" lon="12.1499617"><ele>321.6666666666667</ele><time>2026-04-04T10:06:44.118Z</time></trkpt><trkpt lat="42.1065467" lon="12.1501517"><ele>321.0</ele><time>2026-04-04T10:06:45.119Z</time></trkpt><trkpt lat="42.1064833" lon="12.15033"><ele>320.75</ele><time>2026-04-04T10:06:46.116Z</time></trkpt><trkpt lat="42.106415" lon="12.1504867"><ele>320.5</ele><time>2026-04-04T10:06:47.117Z</time></trkpt><trkpt lat="42.1063333" lon="12.15064"><ele>320.25</ele><time>2026-04-04T10:06:48.118Z</time></trkpt><trkpt lat="42.1062367" lon="12.15078"><ele>320.0</ele><time>2026-04-04T10:06:49.116Z</time></trkpt><trkpt lat="42.106125" lon="12.1509017"><ele>318.75</ele><time>2026-04-04T10:06:50.116Z</time></trkpt><trkpt lat="42.1060067" lon="12.1509983"><ele>317.5</ele><time>2026-04-04T10:06:51.119Z</time></trkpt><trkpt lat="42.1058817" lon="12.151085"><ele>316.25</ele><time>2026-04-04T10:06:52.116Z</time></trkpt><trkpt lat="42.105755" lon="12.1511683"><ele>315.0</ele><time>2026-04-04T10:06:53.118Z</time></trkpt><trkpt lat="42.105635" lon="12.151255"><ele>314.5</ele><time>2026-04-04T10:06:54.118Z</time></trkpt><trkpt lat="42.1055233" lon="12.15137"><ele>314.0</ele><time>2026-04-04T10:06:55.116Z</time></trkpt><trkpt lat="42.1054167" lon="12.1515117"><ele>313.5</ele><time>2026-04-04T10:06:56.117Z</time></trkpt><trkpt lat="42.1053183" lon="12.1516683"><ele>313.0</ele><time>2026-04-04T10:06:57.121Z</time></trkpt><trkpt lat="42.105235" lon="12.1518283"><ele>312.5</ele><time>2026-04-04T10:06:58.115Z</time></trkpt><trkpt lat="42.1051667" lon="12.1519867"><ele>312.0</ele><time>2026-04-04T10:06:59.116Z</time></trkpt><trkpt lat="42.1050983" lon="12.1521517"><ele>311.5</ele><time>2026-04-04T10:07:00.119Z</time></trkpt><trkpt lat="42.1050333" lon="12.15233"><ele>311.0</ele><time>2026-04-04T10:07:01.117Z</time></trkpt><trkpt lat="42.1049783" lon="12.1525067"><ele>310.75</ele><time>2026-04-04T10:07:02.116Z</time></trkpt><trkpt lat="42.10493" lon="12.1526867"><ele>310.5</ele><time>2026-04-04T10:07:03.112Z</time></trkpt><trkpt lat="42.1048767" lon="12.1528667"><ele>310.25</ele><time>2026-04-04T10:07:04.116Z</time></trkpt><trkpt lat="42.1048317" lon="12.1530483"><ele>310.0</ele><time>2026-04-04T10:07:05.114Z</time></trkpt><trkpt lat="42.1047917" lon="12.15321"><ele>308.25</ele><time>2026-04-04T10:07:06.114Z</time></trkpt><trkpt lat="42.1047483" lon="12.1533633"><ele>306.5</ele><time>2026-04-04T10:07:07.113Z</time></trkpt><trkpt lat="42.10471" lon="12.1535067"><ele>304.75</ele><time>2026-04-04T10:07:08.116Z</time></trkpt><trkpt lat="42.1046733" lon="12.15366"><ele>303.0</ele><time>2026-04-04T10:07:09.117Z</time></trkpt><trkpt lat="42.1046367" lon="12.1538083"><ele>303.0</ele><time>2026-04-04T10:07:10.116Z</time></trkpt><trkpt lat="42.1045883" lon="12.1539617"><ele>303.0</ele><time>2026-04-04T10:07:11.118Z</time></trkpt><trkpt lat="42.104535" lon="12.154115"><ele>303.0</ele><time>2026-04-04T10:07:12.117Z</time></trkpt><trkpt lat="42.1044817" lon="12.1542783"><ele>303.0</ele><time>2026-04-04T10:07:13.117Z</time></trkpt><trkpt lat="42.1044367" lon="12.1544567"><ele>302.25</ele><time>2026-04-04T10:07:14.118Z</time></trkpt><trkpt lat="42.104395" lon="12.15464"><ele>301.5</ele><time>2026-04-04T10:07:15.119Z</time></trkpt><trkpt lat="42.1043517" lon="12.154825"><ele>300.75</ele><time>2026-04-04T10:07:16.115Z</time></trkpt><trkpt lat="42.1043067" lon="12.1550017"><ele>300.0</ele><time>2026-04-04T10:07:17.112Z</time></trkpt><trkpt lat="42.104255" lon="12.1551933"><ele>300.0</ele><time>2026-04-04T10:07:18.117Z</time></trkpt><trkpt lat="42.1042017" lon="12.155395"><ele>300.0</ele><time>2026-04-04T10:07:19.118Z</time></trkpt><trkpt lat="42.104165" lon="12.1555933"><ele>300.0</ele><time>2026-04-04T10:07:20.12Z</time></trkpt><trkpt lat="42.10414" lon="12.1558"><ele>299.3333333333333</ele><time>2026-04-04T10:07:21.115Z</time></trkpt><trkpt lat="42.1041267" lon="12.15602"><ele>298.66666666666663</ele><time>2026-04-04T10:07:22.116Z</time></trkpt><trkpt lat="42.1041217" lon="12.1562517"><ele>298.0</ele><time>2026-04-04T10:07:23.107Z</time></trkpt><trkpt lat="42.1041233" lon="12.15648"><ele>297.3333333333333</ele><time>2026-04-04T10:07:24.116Z</time></trkpt><trkpt lat="42.104125" lon="12.156715"><ele>296.6666666666667</ele><time>2026-04-04T10:07:25.112Z</time></trkpt><trkpt lat="42.1041283" lon="12.1569533"><ele>296.0</ele><time>2026-04-04T10:07:26.11Z</time></trkpt><trkpt lat="42.1041367" lon="12.1571917"><ele>296.0</ele><time>2026-04-04T10:07:27.118Z</time></trkpt><trkpt lat="42.10414" lon="12.1574217"><ele>296.0</ele><time>2026-04-04T10:07:28.111Z</time></trkpt><trkpt lat="42.1041433" lon="12.1576567"><ele>296.0</ele><time>2026-04-04T10:07:29.116Z</time></trkpt><trkpt lat="42.1041533" lon="12.1579017"><ele>296.0</ele><time>2026-04-04T10:07:30.114Z</time></trkpt><trkpt lat="42.104165" lon="12.1581433"><ele>296.0</ele><time>2026-04-04T10:07:31.117Z</time></trkpt><trkpt lat="42.104175" lon="12.1583817"><ele>296.0</ele><time>2026-04-04T10:07:32.114Z</time></trkpt><trkpt lat="42.1041833" lon="12.1586217"><ele>296.6666666666667</ele><time>2026-04-04T10:07:33.119Z</time></trkpt><trkpt lat="42.10419" lon="12.1588567"><ele>297.3333333333333</ele><time>2026-04-04T10:07:34.11Z</time></trkpt><trkpt lat="42.1041933" lon="12.159095"><ele>298.0</ele><time>2026-04-04T10:07:35.114Z</time></trkpt><trkpt lat="42.1041983" lon="12.1593333"><ele>299.0</ele><time>2026-04-04T10:07:36.118Z</time></trkpt><trkpt lat="42.104205" lon="12.1595767"><ele>300.0</ele><time>2026-04-04T10:07:37.116Z</time></trkpt><trkpt lat="42.1042017" lon="12.15981"><ele>301.0</ele><time>2026-04-04T10:07:38.116Z</time></trkpt><trkpt lat="42.1041967" lon="12.16005"><ele>301.0</ele><time>2026-04-04T10:07:39.115Z</time></trkpt><trkpt lat="42.104195" lon="12.1602817"><ele>301.0</ele><time>2026-04-04T10:07:40.115Z</time></trkpt><trkpt lat="42.1041967" lon="12.1604967"><ele>301.0</ele><time>2026-04-04T10:07:41.116Z</time></trkpt><trkpt lat="42.1041983" lon="12.160715"><ele>301.0</ele><time>2026-04-04T10:07:42.114Z</time></trkpt><trkpt lat="42.1042033" lon="12.1609317"><ele>301.0</ele><time>2026-04-04T10:07:43.115Z</time></trkpt><trkpt lat="42.104205" lon="12.161135"><ele>301.0</ele><time>2026-04-04T10:07:44.115Z</time></trkpt><trkpt lat="42.1042067" lon="12.16133"><ele>301.0</ele><time>2026-04-04T10:07:45.115Z</time></trkpt><trkpt lat="42.1042067" lon="12.1615117"><ele>301.0</ele><time>2026-04-04T10:07:46.115Z</time></trkpt><trkpt lat="42.104215" lon="12.1616933"><ele>301.0</ele><time>2026-04-04T10:07:47.114Z</time></trkpt><trkpt lat="42.10422" lon="12.1618733"><ele>301.0</ele><time>2026-04-04T10:07:48.115Z</time></trkpt><trkpt lat="42.1042167" lon="12.162045"><ele>301.0</ele><time>2026-04-04T10:07:49.117Z</time></trkpt><trkpt lat="42.1042033" lon="12.1622117"><ele>301.0</ele><time>2026-04-04T10:07:50.116Z</time></trkpt><trkpt lat="42.1041767" lon="12.162365"><ele>301.0</ele><time>2026-04-04T10:07:51.115Z</time></trkpt><trkpt lat="42.1041183" lon="12.1624883"><ele>301.0</ele><time>2026-04-04T10:07:52.117Z</time></trkpt><trkpt lat="42.1040383" lon="12.1626083"><ele>301.75</ele><time>2026-04-04T10:07:53.113Z</time></trkpt><trkpt lat="42.1039383" lon="12.16272"><ele>302.5</ele><time>2026-04-04T10:07:54.114Z</time></trkpt><trkpt lat="42.1038283" lon="12.1628317"><ele>303.25</ele><time>2026-04-04T10:07:55.116Z</time></trkpt><trkpt lat="42.103715" lon="12.162945"><ele>304.0</ele><time>2026-04-04T10:07:56.112Z</time></trkpt><trkpt lat="42.1036017" lon="12.1630667"><ele>304.0</ele><time>2026-04-04T10:07:57.115Z</time></trkpt><trkpt lat="42.1034817" lon="12.1631933"><ele>304.0</ele><time>2026-04-04T10:07:58.115Z</time></trkpt><trkpt lat="42.10336" lon="12.16332"><ele>304.0</ele><time>2026-04-04T10:07:59.114Z</time></trkpt><trkpt lat="42.1032317" lon="12.1634483"><ele>304.0</ele><time>2026-04-04T10:08:00.116Z</time></trkpt><trkpt lat="42.103105" lon="12.16358"><ele>304.0</ele><time>2026-04-04T10:08:01.112Z</time></trkpt><trkpt lat="42.10299" lon="12.1637033"><ele>304.0</ele><time>2026-04-04T10:08:02.118Z</time></trkpt><trkpt lat="42.1028717" lon="12.1638183"><ele>304.0</ele><time>2026-04-04T10:08:03.117Z</time></trkpt><trkpt lat="42.1027517" lon="12.1639333"><ele>304.0</ele><time>2026-04-04T10:08:04.114Z</time></trkpt><trkpt lat="42.10264" lon="12.1640533"><ele>304.0</ele><time>2026-04-04T10:08:05.116Z</time></trkpt><trkpt lat="42.1025317" lon="12.164155"><ele>304.0</ele><time>2026-04-04T10:08:06.116Z</time></trkpt><trkpt lat="42.10243" lon="12.1642483"><ele>304.75</ele><time>2026-04-04T10:08:07.117Z</time></trkpt><trkpt lat="42.10233" lon="12.164345"><ele>305.5</ele><time>2026-04-04T10:08:08.117Z</time></trkpt><trkpt lat="42.1022183" lon="12.1644517"><ele>306.25</ele><time>2026-04-04T10:08:09.111Z</time></trkpt><trkpt lat="42.10211" lon="12.1645717"><ele>307.0</ele><time>2026-04-04T10:08:10.117Z</time></trkpt><trkpt lat="42.10199" lon="12.16469"><ele>307.0</ele><time>2026-04-04T10:08:11.116Z</time></trkpt><trkpt lat="42.1018633" lon="12.1648133"><ele>307.0</ele><time>2026-04-04T10:08:12.113Z</time></trkpt><trkpt lat="42.1017383" lon="12.1649367"><ele>307.0</ele><time>2026-04-04T10:08:13.113Z</time></trkpt><trkpt lat="42.1016083" lon="12.1650683"><ele>309.0</ele><time>2026-04-04T10:08:14.114Z</time></trkpt><trkpt lat="42.1014817" lon="12.1652017"><ele>311.0</ele><time>2026-04-04T10:08:15.118Z</time></trkpt><trkpt lat="42.1013583" lon="12.1653267"><ele>313.0</ele><time>2026-04-04T10:08:16.115Z</time></trkpt><trkpt lat="42.1012333" lon="12.1654517"><ele>313.0</ele><time>2026-04-04T10:08:17.116Z</time></trkpt><trkpt lat="42.1011117" lon="12.1655767"><ele>313.0</ele><time>2026-04-04T10:08:18.114Z</time></trkpt><trkpt lat="42.101" lon="12.1656917"><ele>313.0</ele><time>2026-04-04T10:08:19.116Z</time></trkpt><trkpt lat="42.100895" lon="12.1658"><ele>313.0</ele><time>2026-04-04T10:08:20.117Z</time></trkpt><trkpt lat="42.1008017" lon="12.1658983"><ele>313.8</ele><time>2026-04-04T10:08:21.116Z</time></trkpt><trkpt lat="42.1007117" lon="12.1659917"><ele>314.6</ele><time>2026-04-04T10:08:22.116Z</time></trkpt><trkpt lat="42.1006217" lon="12.166075"><ele>315.4</ele><time>2026-04-04T10:08:23.115Z</time></trkpt><trkpt lat="42.1005433" lon="12.1661583"><ele>316.2</ele><time>2026-04-04T10:08:24.117Z</time></trkpt><trkpt lat="42.1004717" lon="12.1662317"><ele>317.0</ele><time>2026-04-04T10:08:25.116Z</time></trkpt><trkpt lat="42.10041" lon="12.166305"><ele>317.0</ele><time>2026-04-04T10:08:26.118Z</time></trkpt><trkpt lat="42.100355" lon="12.16638"><ele>317.0</ele><time>2026-04-04T10:08:27.114Z</time></trkpt><trkpt lat="42.1003033" lon="12.1664383"><ele>317.0</ele><time>2026-04-04T10:08:28.116Z</time></trkpt><trkpt lat="42.1002017" lon="12.1665483"><ele>317.0</ele><time>2026-04-04T10:08:30.118Z</time></trkpt><trkpt lat="42.100145" lon="12.1666067"><ele>317.0</ele><time>2026-04-04T10:08:31.116Z</time></trkpt><trkpt lat="42.1000967" lon="12.1666617"><ele>317.0</ele><time>2026-04-04T10:08:32.116Z</time></trkpt><trkpt lat="42.1000467" lon="12.1667133"><ele>316.6</ele><time>2026-04-04T10:08:33.114Z</time></trkpt><trkpt lat="42.0999567" lon="12.1667967"><ele>316.2</ele><time>2026-04-04T10:08:35.117Z</time></trkpt><trkpt lat="42.0999" lon="12.1668417"><ele>315.8</ele><time>2026-04-04T10:08:37.115Z</time></trkpt><trkpt lat="42.09981" lon="12.1669117"><ele>315.4</ele><time>2026-04-04T10:08:42.11Z</time></trkpt><trkpt lat="42.0997517" lon="12.166965"><ele>315.0</ele><time>2026-04-04T10:08:44.115Z</time></trkpt><trkpt lat="42.0996767" lon="12.1670617"><ele>315.6666666666667</ele><time>2026-04-04T10:08:46.116Z</time></trkpt><trkpt lat="42.099595" lon="12.1671433"><ele>316.3333333333333</ele><time>2026-04-04T10:08:48.11Z</time></trkpt><trkpt lat="42.09952" lon="12.167215"><ele>317.0</ele><time>2026-04-04T10:08:50.116Z</time></trkpt><trkpt lat="42.0994517" lon="12.16729"><ele>317.66666666666663</ele><time>2026-04-04T10:08:52.117Z</time></trkpt><trkpt lat="42.0993883" lon="12.1673567"><ele>318.3333333333333</ele><time>2026-04-04T10:08:54.117Z</time></trkpt><trkpt lat="42.0993267" lon="12.1674083"><ele>319.0</ele><time>2026-04-04T10:08:56.118Z</time></trkpt><trkpt lat="42.099255" lon="12.1674667"><ele>319.0</ele><time>2026-04-04T10:08:58.119Z</time></trkpt><trkpt lat="42.09918" lon="12.1675317"><ele>319.0</ele><time>2026-04-04T10:09:00.115Z</time></trkpt><trkpt lat="42.0990983" lon="12.1676183"><ele>319.0</ele><time>2026-04-04T10:09:02.116Z</time></trkpt><trkpt lat="42.0990083" lon="12.1677067"><ele>319.0</ele><time>2026-04-04T10:09:04.117Z</time></trkpt><trkpt lat="42.0989" lon="12.167805"><ele>319.0</ele><time>2026-04-04T10:09:06.119Z</time></trkpt><trkpt lat="42.0988417" lon="12.167865"><ele>319.0</ele><time>2026-04-04T10:09:07.117Z</time></trkpt><trkpt lat="42.0987767" lon="12.1679383"><ele>319.0</ele><time>2026-04-04T10:09:08.114Z</time></trkpt><trkpt lat="42.0987083" lon="12.1680267"><ele>319.0</ele><time>2026-04-04T10:09:09.119Z</time></trkpt><trkpt lat="42.0986383" lon="12.1681133"><ele>319.0</ele><time>2026-04-04T10:09:10.115Z</time></trkpt><trkpt lat="42.0985583" lon="12.16821"><ele>319.0</ele><time>2026-04-04T10:09:11.116Z</time></trkpt><trkpt lat="42.098465" lon="12.1683117"><ele>319.0</ele><time>2026-04-04T10:09:12.114Z</time></trkpt><trkpt lat="42.0983717" lon="12.168405"><ele>319.0</ele><time>2026-04-04T10:09:13.115Z</time></trkpt><trkpt lat="42.0982733" lon="12.1684983"><ele>319.0</ele><time>2026-04-04T10:09:14.114Z</time></trkpt><trkpt lat="42.0981733" lon="12.1685933"><ele>319.0</ele><time>2026-04-04T10:09:15.114Z</time></trkpt><trkpt lat="42.0980717" lon="12.1686983"><ele>319.25</ele><time>2026-04-04T10:09:16.116Z</time></trkpt><trkpt lat="42.0979633" lon="12.168805"><ele>319.5</ele><time>2026-04-04T10:09:17.116Z</time></trkpt><trkpt lat="42.0978667" lon="12.1689117"><ele>319.75</ele><time>2026-04-04T10:09:18.115Z</time></trkpt><trkpt lat="42.097775" lon="12.1690133"><ele>320.0</ele><time>2026-04-04T10:09:19.115Z</time></trkpt><trkpt lat="42.0976933" lon="12.1691067"><ele>320.0</ele><time>2026-04-04T10:09:20.116Z</time></trkpt><trkpt lat="42.0976133" lon="12.1691967"><ele>320.0</ele><time>2026-04-04T10:09:21.116Z</time></trkpt><trkpt lat="42.0975317" lon="12.1692867"><ele>320.0</ele><time>2026-04-04T10:09:22.117Z</time></trkpt><trkpt lat="42.09745" lon="12.1693733"><ele>320.0</ele><time>2026-04-04T10:09:23.115Z</time></trkpt><trkpt lat="42.0973683" lon="12.1694533"><ele>320.0</ele><time>2026-04-04T10:09:24.115Z</time></trkpt><trkpt lat="42.0972883" lon="12.1695333"><ele>319.0</ele><time>2026-04-04T10:09:25.116Z</time></trkpt><trkpt lat="42.0972" lon="12.1696117"><ele>318.0</ele><time>2026-04-04T10:09:26.117Z</time></trkpt><trkpt lat="42.0971117" lon="12.1697017"><ele>317.0</ele><time>2026-04-04T10:09:27.118Z</time></trkpt><trkpt lat="42.0970217" lon="12.1697933"><ele>316.0</ele><time>2026-04-04T10:09:28.114Z</time></trkpt><trkpt lat="42.096925" lon="12.16989"><ele>314.5</ele><time>2026-04-04T10:09:29.115Z</time></trkpt><trkpt lat="42.0968217" lon="12.1699917"><ele>313.0</ele><time>2026-04-04T10:09:30.118Z</time></trkpt><trkpt lat="42.0967217" lon="12.17011"><ele>311.5</ele><time>2026-04-04T10:09:31.118Z</time></trkpt><trkpt lat="42.096625" lon="12.170245"><ele>310.0</ele><time>2026-04-04T10:09:32.118Z</time></trkpt><trkpt lat="42.0965367" lon="12.1703817"><ele>310.0</ele><time>2026-04-04T10:09:33.117Z</time></trkpt><trkpt lat="42.09645" lon="12.1705183"><ele>310.0</ele><time>2026-04-04T10:09:34.114Z</time></trkpt><trkpt lat="42.0963617" lon="12.1706533"><ele>310.0</ele><time>2026-04-04T10:09:35.117Z</time></trkpt><trkpt lat="42.0962733" lon="12.1707783"><ele>310.0</ele><time>2026-04-04T10:09:36.114Z</time></trkpt><trkpt lat="42.0961817" lon="12.1709033"><ele>310.0</ele><time>2026-04-04T10:09:37.118Z</time></trkpt><trkpt lat="42.0960967" lon="12.17103"><ele>310.0</ele><time>2026-04-04T10:09:38.112Z</time></trkpt><trkpt lat="42.096015" lon="12.171155"><ele>310.0</ele><time>2026-04-04T10:09:39.118Z</time></trkpt><trkpt lat="42.0959367" lon="12.17128"><ele>310.0</ele><time>2026-04-04T10:09:40.118Z</time></trkpt><trkpt lat="42.0958617" lon="12.1714"><ele>310.0</ele><time>2026-04-04T10:09:41.118Z</time></trkpt><trkpt lat="42.0957883" lon="12.1715233"><ele>310.0</ele><time>2026-04-04T10:09:42.116Z</time></trkpt><trkpt lat="42.0957133" lon="12.171645"><ele>310.0</ele><time>2026-04-04T10:09:43.118Z</time></trkpt><trkpt lat="42.09565" lon="12.171775"><ele>310.0</ele><time>2026-04-04T10:09:44.117Z</time></trkpt><trkpt lat="42.0955967" lon="12.1719233"><ele>311.5</ele><time>2026-04-04T10:09:45.111Z</time></trkpt><trkpt lat="42.09554" lon="12.1720783"><ele>313.0</ele><time>2026-04-04T10:09:46.119Z</time></trkpt><trkpt lat="42.0954817" lon="12.172235"><ele>314.5</ele><time>2026-04-04T10:09:47.117Z</time></trkpt><trkpt lat="42.0954233" lon="12.172395"><ele>316.0</ele><time>2026-04-04T10:09:48.118Z</time></trkpt><trkpt lat="42.0953667" lon="12.1725433"><ele>316.25</ele><time>2026-04-04T10:09:49.118Z</time></trkpt><trkpt lat="42.0953133" lon="12.1727"><ele>316.5</ele><time>2026-04-04T10:09:50.118Z</time></trkpt><trkpt lat="42.0952633" lon="12.1728583"><ele>316.75</ele><time>2026-04-04T10:09:51.118Z</time></trkpt><trkpt lat="42.0952083" lon="12.1730267"><ele>317.0</ele><time>2026-04-04T10:09:52.116Z</time></trkpt><trkpt lat="42.09515" lon="12.1732067"><ele>317.0</ele><time>2026-04-04T10:09:53.118Z</time></trkpt><trkpt lat="42.0950917" lon="12.17339"><ele>317.0</ele><time>2026-04-04T10:09:54.114Z</time></trkpt><trkpt lat="42.095025" lon="12.1735717"><ele>317.0</ele><time>2026-04-04T10:09:55.116Z</time></trkpt><trkpt lat="42.0949567" lon="12.1737567"><ele>316.33333333333337</ele><time>2026-04-04T10:09:56.117Z</time></trkpt><trkpt lat="42.0948883" lon="12.1739483"><ele>315.6666666666667</ele><time>2026-04-04T10:09:57.121Z</time></trkpt><trkpt lat="42.0948183" lon="12.1741433"><ele>315.0</ele><time>2026-04-04T10:09:58.116Z</time></trkpt><trkpt lat="42.09475" lon="12.1743367"><ele>312.3333333333333</ele><time>2026-04-04T10:09:59.115Z</time></trkpt><trkpt lat="42.0946867" lon="12.1745267"><ele>309.66666666666663</ele><time>2026-04-04T10:10:00.114Z</time></trkpt><trkpt lat="42.09463" lon="12.1747133"><ele>307.0</ele><time>2026-04-04T10:10:01.118Z</time></trkpt><trkpt lat="42.0945583" lon="12.1748967"><ele>306.66666666666663</ele><time>2026-04-04T10:10:02.119Z</time></trkpt><trkpt lat="42.094485" lon="12.1750783"><ele>306.3333333333333</ele><time>2026-04-04T10:10:03.12Z</time></trkpt><trkpt lat="42.09441" lon="12.1752517"><ele>306.0</ele><time>2026-04-04T10:10:04.116Z</time></trkpt><trkpt lat="42.0943267" lon="12.1754233"><ele>306.0</ele><time>2026-04-04T10:10:05.113Z</time></trkpt><trkpt lat="42.0942383" lon="12.1755883"><ele>306.0</ele><time>2026-04-04T10:10:06.115Z</time></trkpt><trkpt lat="42.0941467" lon="12.175755"><ele>306.0</ele><time>2026-04-04T10:10:07.114Z</time></trkpt><trkpt lat="42.0940483" lon="12.1759333"><ele>304.0</ele><time>2026-04-04T10:10:08.117Z</time></trkpt><trkpt lat="42.0939433" lon="12.17611"><ele>302.0</ele><time>2026-04-04T10:10:09.119Z</time></trkpt><trkpt lat="42.09384" lon="12.1762867"><ele>300.0</ele><time>2026-04-04T10:10:10.115Z</time></trkpt><trkpt lat="42.093735" lon="12.1764533"><ele>299.3333333333333</ele><time>2026-04-04T10:10:11.118Z</time></trkpt><trkpt lat="42.09363" lon="12.176625"><ele>298.66666666666663</ele><time>2026-04-04T10:10:12.118Z</time></trkpt><trkpt lat="42.09353" lon="12.176795"><ele>298.0</ele><time>2026-04-04T10:10:13.114Z</time></trkpt><trkpt lat="42.0934317" lon="12.1769617"><ele>298.0</ele><time>2026-04-04T10:10:14.116Z</time></trkpt><trkpt lat="42.09333" lon="12.1771267"><ele>298.0</ele><time>2026-04-04T10:10:15.118Z</time></trkpt><trkpt lat="42.09323" lon="12.177285"><ele>298.0</ele><time>2026-04-04T10:10:16.119Z</time></trkpt><trkpt lat="42.0931233" lon="12.1774433"><ele>293.66666666666663</ele><time>2026-04-04T10:10:17.109Z</time></trkpt><trkpt lat="42.0930233" lon="12.17761"><ele>289.3333333333333</ele><time>2026-04-04T10:10:18.112Z</time></trkpt><trkpt lat="42.0929167" lon="12.1777717"><ele>285.0</ele><time>2026-04-04T10:10:19.116Z</time></trkpt><trkpt lat="42.0928133" lon="12.1779317"><ele>285.0</ele><time>2026-04-04T10:10:20.116Z</time></trkpt><trkpt lat="42.0927133" lon="12.17809"><ele>285.0</ele><time>2026-04-04T10:10:21.121Z</time></trkpt><trkpt lat="42.0926167" lon="12.1782433"><ele>285.0</ele><time>2026-04-04T10:10:22.114Z</time></trkpt><trkpt lat="42.0925183" lon="12.17841"><ele>281.0</ele><time>2026-04-04T10:10:23.115Z</time></trkpt><trkpt lat="42.09242" lon="12.1785733"><ele>277.0</ele><time>2026-04-04T10:10:24.115Z</time></trkpt><trkpt lat="42.0923233" lon="12.17873"><ele>273.0</ele><time>2026-04-04T10:10:25.115Z</time></trkpt><trkpt lat="42.092225" lon="12.1788917"><ele>273.0</ele><time>2026-04-04T10:10:26.117Z</time></trkpt><trkpt lat="42.0921233" lon="12.17905"><ele>273.0</ele><time>2026-04-04T10:10:27.12Z</time></trkpt><trkpt lat="42.0920233" lon="12.1792167"><ele>273.0</ele><time>2026-04-04T10:10:28.116Z</time></trkpt><trkpt lat="42.091925" lon="12.1793817"><ele>273.0</ele><time>2026-04-04T10:10:29.116Z</time></trkpt><trkpt lat="42.0918333" lon="12.1795483"><ele>273.0</ele><time>2026-04-04T10:10:30.115Z</time></trkpt><trkpt lat="42.0917383" lon="12.1797033"><ele>273.0</ele><time>2026-04-04T10:10:31.118Z</time></trkpt><trkpt lat="42.0916433" lon="12.1798583"><ele>270.75</ele><time>2026-04-04T10:10:32.116Z</time></trkpt><trkpt lat="42.0915483" lon="12.180005"><ele>268.5</ele><time>2026-04-04T10:10:33.117Z</time></trkpt><trkpt lat="42.0914533" lon="12.180145"><ele>266.25</ele><time>2026-04-04T10:10:34.113Z</time></trkpt><trkpt lat="42.0913467" lon="12.18026"><ele>264.0</ele><time>2026-04-04T10:10:35.113Z</time></trkpt><trkpt lat="42.0912417" lon="12.1803733"><ele>264.0</ele><time>2026-04-04T10:10:36.114Z</time></trkpt><trkpt lat="42.091125" lon="12.1804733"><ele>264.0</ele><time>2026-04-04T10:10:37.11Z</time></trkpt><trkpt lat="42.0910067" lon="12.18056"><ele>264.0</ele><time>2026-04-04T10:10:38.113Z</time></trkpt><trkpt lat="42.0908883" lon="12.1806317"><ele>264.0</ele><time>2026-04-04T10:10:39.115Z</time></trkpt><trkpt lat="42.0907667" lon="12.1807017"><ele>262.5</ele><time>2026-04-04T10:10:40.113Z</time></trkpt><trkpt lat="42.090655" lon="12.1807783"><ele>261.0</ele><time>2026-04-04T10:10:41.116Z</time></trkpt><trkpt lat="42.0905567" lon="12.1808667"><ele>259.5</ele><time>2026-04-04T10:10:42.119Z</time></trkpt><trkpt lat="42.0904667" lon="12.180965"><ele>258.0</ele><time>2026-04-04T10:10:43.118Z</time></trkpt><trkpt lat="42.0903883" lon="12.181085"><ele>258.0</ele><time>2026-04-04T10:10:44.114Z</time></trkpt><trkpt lat="42.0903133" lon="12.18122"><ele>258.0</ele><time>2026-04-04T10:10:45.116Z</time></trkpt><trkpt lat="42.090245" lon="12.181365"><ele>258.0</ele><time>2026-04-04T10:10:46.117Z</time></trkpt><trkpt lat="42.090185" lon="12.1815133"><ele>258.0</ele><time>2026-04-04T10:10:47.114Z</time></trkpt><trkpt lat="42.0901267" lon="12.18166"><ele>257.75</ele><time>2026-04-04T10:10:48.116Z</time></trkpt><trkpt lat="42.09007" lon="12.18181"><ele>257.5</ele><time>2026-04-04T10:10:49.115Z</time></trkpt><trkpt lat="42.0900167" lon="12.181965"><ele>257.25</ele><time>2026-04-04T10:10:50.112Z</time></trkpt><trkpt lat="42.08996" lon="12.1821133"><ele>257.0</ele><time>2026-04-04T10:10:51.117Z</time></trkpt><trkpt lat="42.08989" lon="12.182255"><ele>254.75</ele><time>2026-04-04T10:10:52.117Z</time></trkpt><trkpt lat="42.0898117" lon="12.1823867"><ele>252.5</ele><time>2026-04-04T10:10:53.118Z</time></trkpt><trkpt lat="42.0897283" lon="12.1825067"><ele>250.25</ele><time>2026-04-04T10:10:54.118Z</time></trkpt><trkpt lat="42.0896383" lon="12.1826183"><ele>248.0</ele><time>2026-04-04T10:10:55.119Z</time></trkpt><trkpt lat="42.0895367" lon="12.1827133"><ele>248.0</ele><time>2026-04-04T10:10:56.119Z</time></trkpt><trkpt lat="42.089435" lon="12.1827967"><ele>248.0</ele><time>2026-04-04T10:10:57.117Z</time></trkpt><trkpt lat="42.0893333" lon="12.1828733"><ele>248.0</ele><time>2026-04-04T10:10:58.114Z</time></trkpt><trkpt lat="42.089235" lon="12.1829517"><ele>248.0</ele><time>2026-04-04T10:10:59.114Z</time></trkpt><trkpt lat="42.089135" lon="12.1830317"><ele>247.5</ele><time>2026-04-04T10:11:00.119Z</time></trkpt><trkpt lat="42.089035" lon="12.18311"><ele>247.0</ele><time>2026-04-04T10:11:01.115Z</time></trkpt><trkpt lat="42.0889317" lon="12.1831933"><ele>246.5</ele><time>2026-04-04T10:11:02.115Z</time></trkpt><trkpt lat="42.088825" lon="12.1832767"><ele>246.0</ele><time>2026-04-04T10:11:03.115Z</time></trkpt><trkpt lat="42.0887183" lon="12.1833617"><ele>245.8</ele><time>2026-04-04T10:11:04.118Z</time></trkpt><trkpt lat="42.088615" lon="12.183445"><ele>245.60000000000002</ele><time>2026-04-04T10:11:05.118Z</time></trkpt><trkpt lat="42.0885217" lon="12.183525"><ele>245.4</ele><time>2026-04-04T10:11:06.118Z</time></trkpt><trkpt lat="42.0884417" lon="12.183595"><ele>245.2</ele><time>2026-04-04T10:11:07.119Z</time></trkpt><trkpt lat="42.088385" lon="12.1836483"><ele>245.0</ele><time>2026-04-04T10:11:08.113Z</time></trkpt><trkpt lat="42.088305" lon="12.1837167"><ele>244.8</ele><time>2026-04-04T10:11:10.118Z</time></trkpt><trkpt lat="42.088235" lon="12.1837717"><ele>244.6</ele><time>2026-04-04T10:11:12.114Z</time></trkpt><trkpt lat="42.0881617" lon="12.1838083"><ele>244.39999999999998</ele><time>2026-04-04T10:11:14.113Z</time></trkpt><trkpt lat="42.0880767" lon="12.1838567"><ele>244.2</ele><time>2026-04-04T10:11:16.118Z</time></trkpt><trkpt lat="42.08798" lon="12.1839267"><ele>244.0</ele><time>2026-04-04T10:11:18.116Z</time></trkpt><trkpt lat="42.08789" lon="12.1840317"><ele>243.49999999999997</ele><time>2026-04-04T10:11:20.117Z</time></trkpt><trkpt lat="42.0877933" lon="12.18414"><ele>243.0</ele><time>2026-04-04T10:11:22.118Z</time></trkpt><trkpt lat="42.0877433" lon="12.1841917"><ele>242.5</ele><time>2026-04-04T10:11:23.112Z</time></trkpt><trkpt lat="42.0876983" lon="12.1842533"><ele>242.0</ele><time>2026-04-04T10:11:24.115Z</time></trkpt><trkpt lat="42.08766" lon="12.1843217"><ele>241.49999999999997</ele><time>2026-04-04T10:11:25.118Z</time></trkpt><trkpt lat="42.087615" lon="12.1843967"><ele>241.0</ele><time>2026-04-04T10:11:26.117Z</time></trkpt><trkpt lat="42.0875767" lon="12.1844683"><ele>241.0</ele><time>2026-04-04T10:11:27.119Z</time></trkpt><trkpt lat="42.08751" lon="12.1845817"><ele>241.00000000000003</ele><time>2026-04-04T10:11:29.113Z</time></trkpt><trkpt lat="42.087405" lon="12.1846883"><ele>241.00000000000003</ele><time>2026-04-04T10:11:31.116Z</time></trkpt><trkpt lat="42.0873383" lon="12.18476"><ele>241.0</ele><time>2026-04-04T10:11:32.118Z</time></trkpt><trkpt lat="42.08727" lon="12.18484"><ele>241.0</ele><time>2026-04-04T10:11:33.116Z</time></trkpt><trkpt lat="42.08721" lon="12.184905"><ele>241.20000000000002</ele><time>2026-04-04T10:11:34.115Z</time></trkpt><trkpt lat="42.0871367" lon="12.1849817"><ele>241.40000000000003</ele><time>2026-04-04T10:11:35.109Z</time></trkpt><trkpt lat="42.08706" lon="12.1850733"><ele>241.6</ele><time>2026-04-04T10:11:36.114Z</time></trkpt><trkpt lat="42.08699" lon="12.1851633"><ele>241.8</ele><time>2026-04-04T10:11:37.115Z</time></trkpt><trkpt lat="42.086925" lon="12.1852533"><ele>242.0</ele><time>2026-04-04T10:11:38.114Z</time></trkpt><trkpt lat="42.0868567" lon="12.1853533"><ele>242.0</ele><time>2026-04-04T10:11:39.116Z</time></trkpt><trkpt lat="42.086785" lon="12.1854617"><ele>242.0</ele><time>2026-04-04T10:11:40.115Z</time></trkpt><trkpt lat="42.0867017" lon="12.1855833"><ele>242.0</ele><time>2026-04-04T10:11:41.115Z</time></trkpt><trkpt lat="42.0866217" lon="12.185705"><ele>242.0</ele><time>2026-04-04T10:11:42.118Z</time></trkpt><trkpt lat="42.0865383" lon="12.18583"><ele>242.5</ele><time>2026-04-04T10:11:43.115Z</time></trkpt><trkpt lat="42.0864483" lon="12.18597"><ele>243.0</ele><time>2026-04-04T10:11:44.115Z</time></trkpt><trkpt lat="42.08636" lon="12.1861233"><ele>243.5</ele><time>2026-04-04T10:11:45.117Z</time></trkpt><trkpt lat="42.08627" lon="12.186285"><ele>244.0</ele><time>2026-04-04T10:11:46.115Z</time></trkpt><trkpt lat="42.0861883" lon="12.186455"><ele>244.0</ele><time>2026-04-04T10:11:47.117Z</time></trkpt><trkpt lat="42.0861183" lon="12.186635"><ele>244.0</ele><time>2026-04-04T10:11:48.117Z</time></trkpt><trkpt lat="42.0860533" lon="12.1868167"><ele>244.0</ele><time>2026-04-04T10:11:49.118Z</time></trkpt><trkpt lat="42.0859967" lon="12.1870017"><ele>244.0</ele><time>2026-04-04T10:11:50.114Z</time></trkpt><trkpt lat="42.0859417" lon="12.187195"><ele>244.0</ele><time>2026-04-04T10:11:51.118Z</time></trkpt><trkpt lat="42.0858933" lon="12.18739"><ele>244.0</ele><time>2026-04-04T10:11:52.115Z</time></trkpt><trkpt lat="42.085845" lon="12.187585"><ele>244.0</ele><time>2026-04-04T10:11:53.114Z</time></trkpt><trkpt lat="42.0857933" lon="12.1877867"><ele>245.0</ele><time>2026-04-04T10:11:54.114Z</time></trkpt><trkpt lat="42.0857417" lon="12.188"><ele>246.0</ele><time>2026-04-04T10:11:55.116Z</time></trkpt><trkpt lat="42.0856883" lon="12.188225"><ele>247.0</ele><time>2026-04-04T10:11:56.117Z</time></trkpt><trkpt lat="42.08563" lon="12.18845"><ele>247.0</ele><time>2026-04-04T10:11:57.115Z</time></trkpt><trkpt lat="42.0855667" lon="12.18868"><ele>247.0</ele><time>2026-04-04T10:11:58.116Z</time></trkpt><trkpt lat="42.0855017" lon="12.1889017"><ele>247.0</ele><time>2026-04-04T10:11:59.116Z</time></trkpt><trkpt lat="42.0854317" lon="12.1891283"><ele>245.66666666666666</ele><time>2026-04-04T10:12:00.116Z</time></trkpt><trkpt lat="42.0853617" lon="12.18935"><ele>244.33333333333331</ele><time>2026-04-04T10:12:01.116Z</time></trkpt><trkpt lat="42.085295" lon="12.1895683"><ele>243.0</ele><time>2026-04-04T10:12:02.114Z</time></trkpt><trkpt lat="42.0852283" lon="12.1897867"><ele>242.0</ele><time>2026-04-04T10:12:03.119Z</time></trkpt><trkpt lat="42.0851567" lon="12.1900067"><ele>241.0</ele><time>2026-04-04T10:12:04.115Z</time></trkpt><trkpt lat="42.0850817" lon="12.19023"><ele>240.0</ele><time>2026-04-04T10:12:05.117Z</time></trkpt><trkpt lat="42.0850017" lon="12.1904483"><ele>241.0</ele><time>2026-04-04T10:12:06.119Z</time></trkpt><trkpt lat="42.0849267" lon="12.1906633"><ele>242.0</ele><time>2026-04-04T10:12:07.12Z</time></trkpt><trkpt lat="42.0848517" lon="12.1908683"><ele>243.0</ele><time>2026-04-04T10:12:08.119Z</time></trkpt><trkpt lat="42.084775" lon="12.1910717"><ele>243.0</ele><time>2026-04-04T10:12:09.115Z</time></trkpt><trkpt lat="42.084705" lon="12.1912817"><ele>243.0</ele><time>2026-04-04T10:12:10.119Z</time></trkpt><trkpt lat="42.0846433" lon="12.19151"><ele>243.0</ele><time>2026-04-04T10:12:11.116Z</time></trkpt><trkpt lat="42.0845933" lon="12.1917583"><ele>241.33333333333331</ele><time>2026-04-04T10:12:12.117Z</time></trkpt><trkpt lat="42.0845483" lon="12.19202"><ele>239.66666666666666</ele><time>2026-04-04T10:12:13.118Z</time></trkpt><trkpt lat="42.0845133" lon="12.1922817"><ele>238.0</ele><time>2026-04-04T10:12:14.118Z</time></trkpt><trkpt lat="42.0844783" lon="12.1925483"><ele>238.0</ele><time>2026-04-04T10:12:15.117Z</time></trkpt><trkpt lat="42.084435" lon="12.1928133"><ele>238.0</ele><time>2026-04-04T10:12:16.117Z</time></trkpt><trkpt lat="42.0843817" lon="12.1930767"><ele>238.0</ele><time>2026-04-04T10:12:17.118Z</time></trkpt><trkpt lat="42.0843183" lon="12.193345"><ele>238.0</ele><time>2026-04-04T10:12:18.117Z</time></trkpt><trkpt lat="42.084255" lon="12.19361"><ele>238.0</ele><time>2026-04-04T10:12:19.116Z</time></trkpt><trkpt lat="42.0841917" lon="12.1938717"><ele>238.0</ele><time>2026-04-04T10:12:20.114Z</time></trkpt><trkpt lat="42.0841317" lon="12.1941267"><ele>238.33333333333331</ele><time>2026-04-04T10:12:21.114Z</time></trkpt><trkpt lat="42.0840683" lon="12.1943783"><ele>238.66666666666669</ele><time>2026-04-04T10:12:22.118Z</time></trkpt><trkpt lat="42.084005" lon="12.194635"><ele>239.0</ele><time>2026-04-04T10:12:23.114Z</time></trkpt><trkpt lat="42.0839467" lon="12.1948883"><ele>239.0</ele><time>2026-04-04T10:12:24.109Z</time></trkpt><trkpt lat="42.0838883" lon="12.195145"><ele>239.0</ele><time>2026-04-04T10:12:25.109Z</time></trkpt><trkpt lat="42.0838283" lon="12.1953983"><ele>239.0</ele><time>2026-04-04T10:12:26.115Z</time></trkpt><trkpt lat="42.08377" lon="12.1956533"><ele>239.66666666666669</ele><time>2026-04-04T10:12:27.115Z</time></trkpt><trkpt lat="42.08371" lon="12.1959017"><ele>240.33333333333331</ele><time>2026-04-04T10:12:28.115Z</time></trkpt><trkpt lat="42.083655" lon="12.1961383"><ele>241.0</ele><time>2026-04-04T10:12:29.119Z</time></trkpt><trkpt lat="42.0835967" lon="12.19638"><ele>242.33333333333331</ele><time>2026-04-04T10:12:30.119Z</time></trkpt><trkpt lat="42.0835333" lon="12.1966167"><ele>243.66666666666669</ele><time>2026-04-04T10:12:31.118Z</time></trkpt><trkpt lat="42.0834583" lon="12.1968517"><ele>245.0</ele><time>2026-04-04T10:12:32.115Z</time></trkpt><trkpt lat="42.0833767" lon="12.1970733"><ele>245.0</ele><time>2026-04-04T10:12:33.118Z</time></trkpt><trkpt lat="42.0832883" lon="12.197275"><ele>245.0</ele><time>2026-04-04T10:12:34.117Z</time></trkpt><trkpt lat="42.0831833" lon="12.19748"><ele>245.0</ele><time>2026-04-04T10:12:35.115Z</time></trkpt><trkpt lat="42.08307" lon="12.1976817"><ele>245.0</ele><time>2026-04-04T10:12:36.117Z</time></trkpt><trkpt lat="42.082945" lon="12.1978767"><ele>245.0</ele><time>2026-04-04T10:12:37.118Z</time></trkpt><trkpt lat="42.082815" lon="12.19807"><ele>245.0</ele><time>2026-04-04T10:12:38.114Z</time></trkpt><trkpt lat="42.082695" lon="12.1982483"><ele>245.33333333333334</ele><time>2026-04-04T10:12:39.118Z</time></trkpt><trkpt lat="42.0825733" lon="12.1984283"><ele>245.66666666666669</ele><time>2026-04-04T10:12:40.117Z</time></trkpt><trkpt lat="42.082445" lon="12.1986"><ele>246.0</ele><time>2026-04-04T10:12:41.116Z</time></trkpt><trkpt lat="42.0823133" lon="12.1987517"><ele>246.66666666666669</ele><time>2026-04-04T10:12:42.118Z</time></trkpt><trkpt lat="42.0821833" lon="12.198905"><ele>247.33333333333334</ele><time>2026-04-04T10:12:43.118Z</time></trkpt><trkpt lat="42.082055" lon="12.1990583"><ele>248.0</ele><time>2026-04-04T10:12:44.114Z</time></trkpt><trkpt lat="42.0819217" lon="12.1992117"><ele>248.33333333333334</ele><time>2026-04-04T10:12:45.112Z</time></trkpt><trkpt lat="42.0817867" lon="12.1993883"><ele>248.66666666666669</ele><time>2026-04-04T10:12:46.115Z</time></trkpt><trkpt lat="42.08166" lon="12.1995767"><ele>249.0</ele><time>2026-04-04T10:12:47.115Z</time></trkpt><trkpt lat="42.081535" lon="12.1997733"><ele>248.66666666666669</ele><time>2026-04-04T10:12:48.116Z</time></trkpt><trkpt lat="42.08141" lon="12.1999817"><ele>248.33333333333334</ele><time>2026-04-04T10:12:49.116Z</time></trkpt><trkpt lat="42.0812833" lon="12.2001933"><ele>248.0</ele><time>2026-04-04T10:12:50.118Z</time></trkpt><trkpt lat="42.0811583" lon="12.20041"><ele>248.0</ele><time>2026-04-04T10:12:51.12Z</time></trkpt><trkpt lat="42.08104" lon="12.20063"><ele>248.0</ele><time>2026-04-04T10:12:52.114Z</time></trkpt><trkpt lat="42.08092" lon="12.2008467"><ele>248.0</ele><time>2026-04-04T10:12:53.117Z</time></trkpt><trkpt lat="42.0808" lon="12.2010633"><ele>248.0</ele><time>2026-04-04T10:12:54.118Z</time></trkpt><trkpt lat="42.0806817" lon="12.2012783"><ele>248.0</ele><time>2026-04-04T10:12:55.115Z</time></trkpt><trkpt lat="42.0805667" lon="12.2014933"><ele>248.0</ele><time>2026-04-04T10:12:56.119Z</time></trkpt><trkpt lat="42.0804483" lon="12.2017017"><ele>248.0</ele><time>2026-04-04T10:12:57.119Z</time></trkpt><trkpt lat="42.0803317" lon="12.201925"><ele>248.0</ele><time>2026-04-04T10:12:58.117Z</time></trkpt><trkpt lat="42.0802183" lon="12.2021617"><ele>248.0</ele><time>2026-04-04T10:12:59.113Z</time></trkpt><trkpt lat="42.0801117" lon="12.2024"><ele>248.0</ele><time>2026-04-04T10:13:00.114Z</time></trkpt><trkpt lat="42.0800033" lon="12.2026467"><ele>248.0</ele><time>2026-04-04T10:13:01.114Z</time></trkpt><trkpt lat="42.0799067" lon="12.2028983"><ele>248.0</ele><time>2026-04-04T10:13:02.11Z</time></trkpt><trkpt lat="42.0798133" lon="12.203155"><ele>247.66666666666669</ele><time>2026-04-04T10:13:03.118Z</time></trkpt><trkpt lat="42.0797217" lon="12.20342"><ele>247.33333333333331</ele><time>2026-04-04T10:13:04.117Z</time></trkpt><trkpt lat="42.0796333" lon="12.2036667"><ele>247.0</ele><time>2026-04-04T10:13:05.118Z</time></trkpt><trkpt lat="42.079555" lon="12.2038817"><ele>247.0</ele><time>2026-04-04T10:13:06.117Z</time></trkpt><trkpt lat="42.0794767" lon="12.2040783"><ele>247.0</ele><time>2026-04-04T10:13:07.117Z</time></trkpt><trkpt lat="42.0794" lon="12.204275"><ele>247.0</ele><time>2026-04-04T10:13:08.117Z</time></trkpt><trkpt lat="42.0793217" lon="12.2044733"><ele>247.0</ele><time>2026-04-04T10:13:09.116Z</time></trkpt><trkpt lat="42.0792383" lon="12.2046783"><ele>247.0</ele><time>2026-04-04T10:13:10.117Z</time></trkpt><trkpt lat="42.07915" lon="12.20488"><ele>247.0</ele><time>2026-04-04T10:13:11.114Z</time></trkpt><trkpt lat="42.0790533" lon="12.205085"><ele>247.0</ele><time>2026-04-04T10:13:12.116Z</time></trkpt><trkpt lat="42.078955" lon="12.205295"><ele>247.0</ele><time>2026-04-04T10:13:13.116Z</time></trkpt><trkpt lat="42.078855" lon="12.2055"><ele>247.0</ele><time>2026-04-04T10:13:14.115Z</time></trkpt><trkpt lat="42.0787483" lon="12.20569"><ele>247.0</ele><time>2026-04-04T10:13:15.112Z</time></trkpt><trkpt lat="42.0786383" lon="12.2058633"><ele>247.0</ele><time>2026-04-04T10:13:16.112Z</time></trkpt><trkpt lat="42.07853" lon="12.2060217"><ele>247.0</ele><time>2026-04-04T10:13:17.116Z</time></trkpt><trkpt lat="42.0784267" lon="12.2061717"><ele>247.0</ele><time>2026-04-04T10:13:18.116Z</time></trkpt><trkpt lat="42.078325" lon="12.2063217"><ele>247.0</ele><time>2026-04-04T10:13:19.117Z</time></trkpt><trkpt lat="42.07822" lon="12.2064817"><ele>247.0</ele><time>2026-04-04T10:13:20.114Z</time></trkpt><trkpt lat="42.0781183" lon="12.2066567"><ele>247.33333333333331</ele><time>2026-04-04T10:13:21.12Z</time></trkpt><trkpt lat="42.07802" lon="12.206845"><ele>247.66666666666669</ele><time>2026-04-04T10:13:22.116Z</time></trkpt><trkpt lat="42.07793" lon="12.2070367"><ele>248.0</ele><time>2026-04-04T10:13:23.117Z</time></trkpt><trkpt lat="42.077845" lon="12.2072483"><ele>248.33333333333334</ele><time>2026-04-04T10:13:24.115Z</time></trkpt><trkpt lat="42.0777583" lon="12.20747"><ele>248.66666666666669</ele><time>2026-04-04T10:13:25.116Z</time></trkpt><trkpt lat="42.0776733" lon="12.207695"><ele>249.0</ele><time>2026-04-04T10:13:26.117Z</time></trkpt><trkpt lat="42.077595" lon="12.2079267"><ele>249.0</ele><time>2026-04-04T10:13:27.119Z</time></trkpt><trkpt lat="42.0775217" lon="12.208155"><ele>249.0</ele><time>2026-04-04T10:13:28.114Z</time></trkpt><trkpt lat="42.07745" lon="12.2083733"><ele>249.0</ele><time>2026-04-04T10:13:29.118Z</time></trkpt><trkpt lat="42.07738" lon="12.208585"><ele>249.0</ele><time>2026-04-04T10:13:30.117Z</time></trkpt><trkpt lat="42.077305" lon="12.2087983"><ele>249.0</ele><time>2026-04-04T10:13:31.113Z</time></trkpt><trkpt lat="42.0772333" lon="12.2090133"><ele>249.0</ele><time>2026-04-04T10:13:32.121Z</time></trkpt><trkpt lat="42.0771617" lon="12.2092283"><ele>249.0</ele><time>2026-04-04T10:13:33.117Z</time></trkpt><trkpt lat="42.0770917" lon="12.2094317"><ele>249.0</ele><time>2026-04-04T10:13:34.115Z</time></trkpt><trkpt lat="42.077025" lon="12.20964"><ele>249.0</ele><time>2026-04-04T10:13:35.115Z</time></trkpt><trkpt lat="42.0769567" lon="12.2098483"><ele>249.33333333333331</ele><time>2026-04-04T10:13:36.113Z</time></trkpt><trkpt lat="42.0768867" lon="12.21004"><ele>249.66666666666666</ele><time>2026-04-04T10:13:37.115Z</time></trkpt><trkpt lat="42.0768167" lon="12.21023"><ele>250.0</ele><time>2026-04-04T10:13:38.113Z</time></trkpt><trkpt lat="42.07675" lon="12.2104217"><ele>250.0</ele><time>2026-04-04T10:13:39.118Z</time></trkpt><trkpt lat="42.0766833" lon="12.21061"><ele>250.0</ele><time>2026-04-04T10:13:40.114Z</time></trkpt><trkpt lat="42.0766183" lon="12.210795"><ele>250.0</ele><time>2026-04-04T10:13:41.112Z</time></trkpt><trkpt lat="42.0765483" lon="12.2109867"><ele>249.66666666666666</ele><time>2026-04-04T10:13:42.114Z</time></trkpt><trkpt lat="42.076465" lon="12.211175"><ele>249.33333333333331</ele><time>2026-04-04T10:13:43.113Z</time></trkpt><trkpt lat="42.0763833" lon="12.2113517"><ele>249.0</ele><time>2026-04-04T10:13:44.118Z</time></trkpt><trkpt lat="42.0763" lon="12.2115217"><ele>248.33333333333331</ele><time>2026-04-04T10:13:45.116Z</time></trkpt><trkpt lat="42.0762083" lon="12.2116883"><ele>247.66666666666666</ele><time>2026-04-04T10:13:46.115Z</time></trkpt><trkpt lat="42.0761133" lon="12.2118533"><ele>247.0</ele><time>2026-04-04T10:13:47.113Z</time></trkpt><trkpt lat="42.076015" lon="12.212015"><ele>247.0</ele><time>2026-04-04T10:13:48.111Z</time></trkpt><trkpt lat="42.07592" lon="12.2121767"><ele>247.0</ele><time>2026-04-04T10:13:49.118Z</time></trkpt><trkpt lat="42.0758217" lon="12.2123467"><ele>247.0</ele><time>2026-04-04T10:13:50.117Z</time></trkpt><trkpt lat="42.0757167" lon="12.21252"><ele>247.0</ele><time>2026-04-04T10:13:51.12Z</time></trkpt><trkpt lat="42.07561" lon="12.2126917"><ele>247.0</ele><time>2026-04-04T10:13:52.115Z</time></trkpt><trkpt lat="42.0755033" lon="12.2128683"><ele>247.0</ele><time>2026-04-04T10:13:53.115Z</time></trkpt><trkpt lat="42.07539" lon="12.2130533"><ele>246.66666666666666</ele><time>2026-04-04T10:13:54.114Z</time></trkpt><trkpt lat="42.075275" lon="12.21324"><ele>246.33333333333331</ele><time>2026-04-04T10:13:55.113Z</time></trkpt><trkpt lat="42.0751583" lon="12.2134233"><ele>246.0</ele><time>2026-04-04T10:13:56.116Z</time></trkpt><trkpt lat="42.07503" lon="12.2136133"><ele>245.66666666666669</ele><time>2026-04-04T10:13:57.114Z</time></trkpt><trkpt lat="42.0748917" lon="12.2137967"><ele>245.33333333333334</ele><time>2026-04-04T10:13:58.113Z</time></trkpt><trkpt lat="42.0747433" lon="12.2139767"><ele>245.0</ele><time>2026-04-04T10:13:59.115Z</time></trkpt><trkpt lat="42.074595" lon="12.214145"><ele>245.0</ele><time>2026-04-04T10:14:00.115Z</time></trkpt><trkpt lat="42.0744533" lon="12.2143033"><ele>245.0</ele><time>2026-04-04T10:14:01.117Z</time></trkpt><trkpt lat="42.0743167" lon="12.214455"><ele>245.0</ele><time>2026-04-04T10:14:02.116Z</time></trkpt><trkpt lat="42.07419" lon="12.2146067"><ele>245.0</ele><time>2026-04-04T10:14:03.117Z</time></trkpt><trkpt lat="42.0740633" lon="12.21475"><ele>245.0</ele><time>2026-04-04T10:14:04.117Z</time></trkpt><trkpt lat="42.07394" lon="12.2148817"><ele>245.0</ele><time>2026-04-04T10:14:05.115Z</time></trkpt><trkpt lat="42.07382" lon="12.2150067"><ele>245.0</ele><time>2026-04-04T10:14:06.117Z</time></trkpt><trkpt lat="42.073695" lon="12.21513"><ele>245.0</ele><time>2026-04-04T10:14:07.114Z</time></trkpt><trkpt lat="42.0735717" lon="12.21526"><ele>245.0</ele><time>2026-04-04T10:14:08.114Z</time></trkpt><trkpt lat="42.0734517" lon="12.2153883"><ele>245.0</ele><time>2026-04-04T10:14:09.111Z</time></trkpt><trkpt lat="42.0733333" lon="12.2155167"><ele>245.0</ele><time>2026-04-04T10:14:10.119Z</time></trkpt><trkpt lat="42.0732133" lon="12.215645"><ele>245.0</ele><time>2026-04-04T10:14:11.11Z</time></trkpt><trkpt lat="42.0730917" lon="12.2157733"><ele>245.0</ele><time>2026-04-04T10:14:12.116Z</time></trkpt><trkpt lat="42.07297" lon="12.2159017"><ele>245.0</ele><time>2026-04-04T10:14:13.111Z</time></trkpt><trkpt lat="42.072845" lon="12.2160367"><ele>245.0</ele><time>2026-04-04T10:14:14.114Z</time></trkpt><trkpt lat="42.0727167" lon="12.2161717"><ele>245.0</ele><time>2026-04-04T10:14:15.114Z</time></trkpt><trkpt lat="42.072585" lon="12.2163083"><ele>245.0</ele><time>2026-04-04T10:14:16.114Z</time></trkpt><trkpt lat="42.0724567" lon="12.216445"><ele>245.0</ele><time>2026-04-04T10:14:17.116Z</time></trkpt><trkpt lat="42.072325" lon="12.216585"><ele>244.66666666666669</ele><time>2026-04-04T10:14:18.115Z</time></trkpt><trkpt lat="42.0721883" lon="12.2167267"><ele>244.33333333333331</ele><time>2026-04-04T10:14:19.118Z</time></trkpt><trkpt lat="42.0720433" lon="12.21687"><ele>244.0</ele><time>2026-04-04T10:14:20.113Z</time></trkpt><trkpt lat="42.0719" lon="12.2170167"><ele>244.0</ele><time>2026-04-04T10:14:21.106Z</time></trkpt><trkpt lat="42.07177" lon="12.217175"><ele>244.0</ele><time>2026-04-04T10:14:22.115Z</time></trkpt><trkpt lat="42.071645" lon="12.2173483"><ele>244.0</ele><time>2026-04-04T10:14:23.114Z</time></trkpt><trkpt lat="42.0715183" lon="12.2175217"><ele>244.33333333333331</ele><time>2026-04-04T10:14:24.111Z</time></trkpt><trkpt lat="42.0713983" lon="12.217695"><ele>244.66666666666669</ele><time>2026-04-04T10:14:25.114Z</time></trkpt><trkpt lat="42.0712833" lon="12.2178733"><ele>245.0</ele><time>2026-04-04T10:14:26.115Z</time></trkpt><trkpt lat="42.0711717" lon="12.21806"><ele>245.33333333333334</ele><time>2026-04-04T10:14:27.118Z</time></trkpt><trkpt lat="42.0710617" lon="12.2182583"><ele>245.66666666666669</ele><time>2026-04-04T10:14:28.114Z</time></trkpt><trkpt lat="42.0709567" lon="12.2184617"><ele>246.0</ele><time>2026-04-04T10:14:29.112Z</time></trkpt><trkpt lat="42.070855" lon="12.2186683"><ele>247.66666666666669</ele><time>2026-04-04T10:14:30.117Z</time></trkpt><trkpt lat="42.0707517" lon="12.2188717"><ele>249.33333333333334</ele><time>2026-04-04T10:14:31.113Z</time></trkpt><trkpt lat="42.0706483" lon="12.2190617"><ele>251.0</ele><time>2026-04-04T10:14:32.117Z</time></trkpt><trkpt lat="42.07055" lon="12.219255"><ele>251.0</ele><time>2026-04-04T10:14:33.113Z</time></trkpt><trkpt lat="42.0704517" lon="12.21946"><ele>251.0</ele><time>2026-04-04T10:14:34.113Z</time></trkpt><trkpt lat="42.0703533" lon="12.2196717"><ele>251.0</ele><time>2026-04-04T10:14:35.114Z</time></trkpt><trkpt lat="42.0702517" lon="12.2198733"><ele>251.33333333333334</ele><time>2026-04-04T10:14:36.114Z</time></trkpt><trkpt lat="42.0701467" lon="12.22006"><ele>251.66666666666669</ele><time>2026-04-04T10:14:37.115Z</time></trkpt><trkpt lat="42.07004" lon="12.2202483"><ele>252.0</ele><time>2026-04-04T10:14:38.112Z</time></trkpt><trkpt lat="42.0699283" lon="12.22043"><ele>253.66666666666669</ele><time>2026-04-04T10:14:39.117Z</time></trkpt><trkpt lat="42.0698117" lon="12.2206033"><ele>255.33333333333334</ele><time>2026-04-04T10:14:40.116Z</time></trkpt><trkpt lat="42.069695" lon="12.2207617"><ele>257.0</ele><time>2026-04-04T10:14:41.116Z</time></trkpt><trkpt lat="42.0695733" lon="12.220915"><ele>257.0</ele><time>2026-04-04T10:14:42.116Z</time></trkpt><trkpt lat="42.069445" lon="12.22106"><ele>257.0</ele><time>2026-04-04T10:14:43.117Z</time></trkpt><trkpt lat="42.069305" lon="12.221185"><ele>257.0</ele><time>2026-04-04T10:14:44.118Z</time></trkpt><trkpt lat="42.0691583" lon="12.2212883"><ele>256.33333333333337</ele><time>2026-04-04T10:14:45.117Z</time></trkpt><trkpt lat="42.0690067" lon="12.22138"><ele>255.66666666666669</ele><time>2026-04-04T10:14:46.118Z</time></trkpt><trkpt lat="42.0688617" lon="12.2214617"><ele>255.0</ele><time>2026-04-04T10:14:47.114Z</time></trkpt><trkpt lat="42.06872" lon="12.221535"><ele>253.5</ele><time>2026-04-04T10:14:48.117Z</time></trkpt><trkpt lat="42.06858" lon="12.2216067"><ele>252.0</ele><time>2026-04-04T10:14:49.114Z</time></trkpt><trkpt lat="42.0684433" lon="12.221675"><ele>250.5</ele><time>2026-04-04T10:14:50.115Z</time></trkpt><trkpt lat="42.0683017" lon="12.2217483"><ele>249.0</ele><time>2026-04-04T10:14:51.117Z</time></trkpt><trkpt lat="42.068155" lon="12.22182"><ele>248.0</ele><time>2026-04-04T10:14:52.115Z</time></trkpt><trkpt lat="42.0680067" lon="12.2218883"><ele>247.0</ele><time>2026-04-04T10:14:53.118Z</time></trkpt><trkpt lat="42.06785" lon="12.2219567"><ele>246.0</ele><time>2026-04-04T10:14:54.116Z</time></trkpt><trkpt lat="42.067685" lon="12.2220183"><ele>246.0</ele><time>2026-04-04T10:14:55.117Z</time></trkpt><trkpt lat="42.0675167" lon="12.2220783"><ele>246.0</ele><time>2026-04-04T10:14:56.113Z</time></trkpt><trkpt lat="42.0673417" lon="12.22214"><ele>246.0</ele><time>2026-04-04T10:14:57.111Z</time></trkpt><trkpt lat="42.0671733" lon="12.2221967"><ele>246.0</ele><time>2026-04-04T10:14:58.115Z</time></trkpt><trkpt lat="42.0670067" lon="12.2222533"><ele>246.0</ele><time>2026-04-04T10:14:59.114Z</time></trkpt><trkpt lat="42.0668367" lon="12.222315"><ele>246.0</ele><time>2026-04-04T10:15:00.113Z</time></trkpt><trkpt lat="42.0666717" lon="12.2223917"><ele>244.66666666666669</ele><time>2026-04-04T10:15:01.117Z</time></trkpt><trkpt lat="42.0665167" lon="12.2224767"><ele>243.33333333333334</ele><time>2026-04-04T10:15:02.114Z</time></trkpt><trkpt lat="42.066365" lon="12.2225783"><ele>242.0</ele><time>2026-04-04T10:15:03.119Z</time></trkpt><trkpt lat="42.0662117" lon="12.2226917"><ele>242.0</ele><time>2026-04-04T10:15:04.115Z</time></trkpt><trkpt lat="42.0660667" lon="12.22281"><ele>242.0</ele><time>2026-04-04T10:15:05.109Z</time></trkpt><trkpt lat="42.065925" lon="12.2229333"><ele>242.0</ele><time>2026-04-04T10:15:06.117Z</time></trkpt><trkpt lat="42.06579" lon="12.2230383"><ele>242.66666666666669</ele><time>2026-04-04T10:15:07.114Z</time></trkpt><trkpt lat="42.065665" lon="12.22315"><ele>243.33333333333331</ele><time>2026-04-04T10:15:08.117Z</time></trkpt><trkpt lat="42.0655333" lon="12.223255"><ele>244.0</ele><time>2026-04-04T10:15:09.118Z</time></trkpt><trkpt lat="42.0654033" lon="12.22336"><ele>244.0</ele><time>2026-04-04T10:15:10.111Z</time></trkpt><trkpt lat="42.0652817" lon="12.223465"><ele>244.0</ele><time>2026-04-04T10:15:11.112Z</time></trkpt><trkpt lat="42.0651667" lon="12.2235733"><ele>244.0</ele><time>2026-04-04T10:15:12.115Z</time></trkpt><trkpt lat="42.0650483" lon="12.223685"><ele>244.0</ele><time>2026-04-04T10:15:13.115Z</time></trkpt><trkpt lat="42.064925" lon="12.2238083"><ele>245.66666666666666</ele><time>2026-04-04T10:15:14.113Z</time></trkpt><trkpt lat="42.0648083" lon="12.2239467"><ele>247.33333333333331</ele><time>2026-04-04T10:15:15.117Z</time></trkpt><trkpt lat="42.0646933" lon="12.224095"><ele>249.0</ele><time>2026-04-04T10:15:16.115Z</time></trkpt><trkpt lat="42.0645967" lon="12.224245"><ele>250.0</ele><time>2026-04-04T10:15:17.115Z</time></trkpt><trkpt lat="42.0645133" lon="12.2243983"><ele>251.0</ele><time>2026-04-04T10:15:18.114Z</time></trkpt><trkpt lat="42.0644383" lon="12.2245633"><ele>252.0</ele><time>2026-04-04T10:15:19.117Z</time></trkpt><trkpt lat="42.064375" lon="12.224735"><ele>253.0</ele><time>2026-04-04T10:15:20.115Z</time></trkpt><trkpt lat="42.0643133" lon="12.224915"><ele>253.0</ele><time>2026-04-04T10:15:21.117Z</time></trkpt><trkpt lat="42.0642633" lon="12.22509"><ele>253.0</ele><time>2026-04-04T10:15:22.114Z</time></trkpt><trkpt lat="42.0642183" lon="12.2252567"><ele>253.0</ele><time>2026-04-04T10:15:23.112Z</time></trkpt><trkpt lat="42.0641817" lon="12.2254167"><ele>253.0</ele><time>2026-04-04T10:15:24.108Z</time></trkpt><trkpt lat="42.06415" lon="12.225575"><ele>252.25</ele><time>2026-04-04T10:15:25.113Z</time></trkpt><trkpt lat="42.0641183" lon="12.2257333"><ele>251.5</ele><time>2026-04-04T10:15:26.114Z</time></trkpt><trkpt lat="42.0640883" lon="12.2258967"><ele>250.75</ele><time>2026-04-04T10:15:27.118Z</time></trkpt><trkpt lat="42.0640533" lon="12.226065"><ele>250.0</ele><time>2026-04-04T10:15:28.117Z</time></trkpt><trkpt lat="42.0640167" lon="12.2262383"><ele>250.0</ele><time>2026-04-04T10:15:29.114Z</time></trkpt><trkpt lat="42.0639717" lon="12.2264167"><ele>250.0</ele><time>2026-04-04T10:15:30.109Z</time></trkpt><trkpt lat="42.0639183" lon="12.226595"><ele>250.0</ele><time>2026-04-04T10:15:31.117Z</time></trkpt><trkpt lat="42.0638567" lon="12.2267683"><ele>250.0</ele><time>2026-04-04T10:15:32.114Z</time></trkpt><trkpt lat="42.0637883" lon="12.22694"><ele>249.0</ele><time>2026-04-04T10:15:33.114Z</time></trkpt><trkpt lat="42.063715" lon="12.2271117"><ele>248.0</ele><time>2026-04-04T10:15:34.11Z</time></trkpt><trkpt lat="42.06364" lon="12.2272867"><ele>247.0</ele><time>2026-04-04T10:15:35.116Z</time></trkpt><trkpt lat="42.0635617" lon="12.227455"><ele>246.0</ele><time>2026-04-04T10:15:36.116Z</time></trkpt><trkpt lat="42.0634933" lon="12.2276233"><ele>245.33333333333331</ele><time>2026-04-04T10:15:37.114Z</time></trkpt><trkpt lat="42.0634267" lon="12.227805"><ele>244.66666666666666</ele><time>2026-04-04T10:15:38.117Z</time></trkpt><trkpt lat="42.0633667" lon="12.2279917"><ele>244.0</ele><time>2026-04-04T10:15:39.118Z</time></trkpt><trkpt lat="42.06331" lon="12.2281833"><ele>245.0</ele><time>2026-04-04T10:15:40.114Z</time></trkpt><trkpt lat="42.06325" lon="12.2283783"><ele>246.0</ele><time>2026-04-04T10:15:41.114Z</time></trkpt><trkpt lat="42.0631983" lon="12.2285717"><ele>247.0</ele><time>2026-04-04T10:15:42.118Z</time></trkpt><trkpt lat="42.0631517" lon="12.2287483"><ele>248.0</ele><time>2026-04-04T10:15:43.118Z</time></trkpt><trkpt lat="42.0631117" lon="12.2289233"><ele>247.5</ele><time>2026-04-04T10:15:44.114Z</time></trkpt><trkpt lat="42.0630783" lon="12.229105"><ele>247.0</ele><time>2026-04-04T10:15:45.114Z</time></trkpt><trkpt lat="42.0630433" lon="12.2292833"><ele>246.5</ele><time>2026-04-04T10:15:46.114Z</time></trkpt><trkpt lat="42.0630133" lon="12.2294533"><ele>246.0</ele><time>2026-04-04T10:15:47.115Z</time></trkpt><trkpt lat="42.0629883" lon="12.229615"><ele>246.0</ele><time>2026-04-04T10:15:48.115Z</time></trkpt><trkpt lat="42.0629683" lon="12.2297783"><ele>246.0</ele><time>2026-04-04T10:15:49.116Z</time></trkpt><trkpt lat="42.0629417" lon="12.2299467"><ele>246.0</ele><time>2026-04-04T10:15:50.115Z</time></trkpt><trkpt lat="42.062905" lon="12.2301083"><ele>246.0</ele><time>2026-04-04T10:15:51.114Z</time></trkpt><trkpt lat="42.06285" lon="12.23027"><ele>245.5</ele><time>2026-04-04T10:15:52.115Z</time></trkpt><trkpt lat="42.0627817" lon="12.2304333"><ele>245.0</ele><time>2026-04-04T10:15:53.115Z</time></trkpt><trkpt lat="42.0626983" lon="12.2305933"><ele>244.5</ele><time>2026-04-04T10:15:54.114Z</time></trkpt><trkpt lat="42.06261" lon="12.23075"><ele>244.0</ele><time>2026-04-04T10:15:55.119Z</time></trkpt><trkpt lat="42.0625283" lon="12.230905"><ele>243.75</ele><time>2026-04-04T10:15:56.116Z</time></trkpt><trkpt lat="42.0624467" lon="12.231055"><ele>243.5</ele><time>2026-04-04T10:15:57.119Z</time></trkpt><trkpt lat="42.0623567" lon="12.2312017"><ele>243.25</ele><time>2026-04-04T10:15:58.111Z</time></trkpt><trkpt lat="42.0622617" lon="12.2313467"><ele>243.0</ele><time>2026-04-04T10:15:59.116Z</time></trkpt><trkpt lat="42.0621583" lon="12.231485"><ele>241.5</ele><time>2026-04-04T10:16:00.116Z</time></trkpt><trkpt lat="42.062045" lon="12.2316167"><ele>240.0</ele><time>2026-04-04T10:16:01.114Z</time></trkpt><trkpt lat="42.061935" lon="12.2317483"><ele>238.5</ele><time>2026-04-04T10:16:02.114Z</time></trkpt><trkpt lat="42.0618267" lon="12.2318717"><ele>237.0</ele><time>2026-04-04T10:16:03.116Z</time></trkpt><trkpt lat="42.0617233" lon="12.2319917"><ele>237.0</ele><time>2026-04-04T10:16:04.116Z</time></trkpt><trkpt lat="42.06162" lon="12.2320933"><ele>237.0</ele><time>2026-04-04T10:16:05.115Z</time></trkpt><trkpt lat="42.0615117" lon="12.2322033"><ele>237.0</ele><time>2026-04-04T10:16:06.116Z</time></trkpt><trkpt lat="42.0613933" lon="12.2322967"><ele>237.0</ele><time>2026-04-04T10:16:07.113Z</time></trkpt><trkpt lat="42.0612717" lon="12.2323867"><ele>236.75</ele><time>2026-04-04T10:16:08.115Z</time></trkpt><trkpt lat="42.061145" lon="12.2324767"><ele>236.5</ele><time>2026-04-04T10:16:09.12Z</time></trkpt><trkpt lat="42.06101" lon="12.2325683"><ele>236.25</ele><time>2026-04-04T10:16:10.11Z</time></trkpt><trkpt lat="42.06088" lon="12.2326483"><ele>236.0</ele><time>2026-04-04T10:16:11.109Z</time></trkpt><trkpt lat="42.0607617" lon="12.2327467"><ele>236.0</ele><time>2026-04-04T10:16:12.115Z</time></trkpt><trkpt lat="42.0606433" lon="12.2328617"><ele>236.0</ele><time>2026-04-04T10:16:13.115Z</time></trkpt><trkpt lat="42.0605333" lon="12.2329833"><ele>236.0</ele><time>2026-04-04T10:16:14.112Z</time></trkpt><trkpt lat="42.0604283" lon="12.2331067"><ele>236.0</ele><time>2026-04-04T10:16:15.119Z</time></trkpt><trkpt lat="42.0603183" lon="12.2332317"><ele>235.5</ele><time>2026-04-04T10:16:16.111Z</time></trkpt><trkpt lat="42.060205" lon="12.2333717"><ele>235.0</ele><time>2026-04-04T10:16:17.117Z</time></trkpt><trkpt lat="42.060085" lon="12.2335017"><ele>234.5</ele><time>2026-04-04T10:16:18.114Z</time></trkpt><trkpt lat="42.0599733" lon="12.2336133"><ele>234.0</ele><time>2026-04-04T10:16:19.117Z</time></trkpt><trkpt lat="42.0598633" lon="12.23372"><ele>233.75</ele><time>2026-04-04T10:16:20.118Z</time></trkpt><trkpt lat="42.0597517" lon="12.23383"><ele>233.5</ele><time>2026-04-04T10:16:21.115Z</time></trkpt><trkpt lat="42.0596417" lon="12.2339367"><ele>233.25</ele><time>2026-04-04T10:16:22.113Z</time></trkpt><trkpt lat="42.0595317" lon="12.234045"><ele>233.0</ele><time>2026-04-04T10:16:23.117Z</time></trkpt><trkpt lat="42.0594317" lon="12.2341417"><ele>232.75</ele><time>2026-04-04T10:16:24.118Z</time></trkpt><trkpt lat="42.0593267" lon="12.23424"><ele>232.5</ele><time>2026-04-04T10:16:25.114Z</time></trkpt><trkpt lat="42.05922" lon="12.2343367"><ele>232.25</ele><time>2026-04-04T10:16:26.117Z</time></trkpt><trkpt lat="42.0591083" lon="12.234435"><ele>232.0</ele><time>2026-04-04T10:16:27.114Z</time></trkpt><trkpt lat="42.0589917" lon="12.234535"><ele>232.0</ele><time>2026-04-04T10:16:28.119Z</time></trkpt><trkpt lat="42.0588733" lon="12.2346367"><ele>232.0</ele><time>2026-04-04T10:16:29.121Z</time></trkpt><trkpt lat="42.0587567" lon="12.2347483"><ele>232.0</ele><time>2026-04-04T10:16:30.115Z</time></trkpt><trkpt lat="42.0586283" lon="12.2348683"><ele>232.0</ele><time>2026-04-04T10:16:31.113Z</time></trkpt><trkpt lat="42.0584983" lon="12.2349817"><ele>231.33333333333331</ele><time>2026-04-04T10:16:32.11Z</time></trkpt><trkpt lat="42.0583733" lon="12.2350867"><ele>230.66666666666669</ele><time>2026-04-04T10:16:33.118Z</time></trkpt><trkpt lat="42.0582483" lon="12.2351967"><ele>230.0</ele><time>2026-04-04T10:16:34.12Z</time></trkpt><trkpt lat="42.058115" lon="12.2353133"><ele>230.0</ele><time>2026-04-04T10:16:35.118Z</time></trkpt><trkpt lat="42.0579833" lon="12.2354317"><ele>230.0</ele><time>2026-04-04T10:16:36.117Z</time></trkpt><trkpt lat="42.0578517" lon="12.2355567"><ele>230.0</ele><time>2026-04-04T10:16:37.116Z</time></trkpt><trkpt lat="42.0577233" lon="12.2356833"><ele>229.33333333333334</ele><time>2026-04-04T10:16:38.116Z</time></trkpt><trkpt lat="42.0575983" lon="12.2358167"><ele>228.66666666666669</ele><time>2026-04-04T10:16:39.116Z</time></trkpt><trkpt lat="42.057475" lon="12.23597"><ele>228.0</ele><time>2026-04-04T10:16:40.119Z</time></trkpt><trkpt lat="42.0573583" lon="12.2361217"><ele>227.66666666666669</ele><time>2026-04-04T10:16:41.113Z</time></trkpt><trkpt lat="42.05723" lon="12.236265"><ele>227.33333333333334</ele><time>2026-04-04T10:16:42.114Z</time></trkpt><trkpt lat="42.0570983" lon="12.2364033"><ele>227.0</ele><time>2026-04-04T10:16:43.117Z</time></trkpt><trkpt lat="42.0569683" lon="12.2365333"><ele>226.33333333333334</ele><time>2026-04-04T10:16:44.112Z</time></trkpt><trkpt lat="42.056835" lon="12.236665"><ele>225.66666666666669</ele><time>2026-04-04T10:16:45.11Z</time></trkpt><trkpt lat="42.0567033" lon="12.2367917"><ele>225.0</ele><time>2026-04-04T10:16:46.114Z</time></trkpt><trkpt lat="42.0565717" lon="12.2369233"><ele>224.0</ele><time>2026-04-04T10:16:47.115Z</time></trkpt><trkpt lat="42.0564333" lon="12.2370483"><ele>223.0</ele><time>2026-04-04T10:16:48.115Z</time></trkpt><trkpt lat="42.0562933" lon="12.2371817"><ele>222.0</ele><time>2026-04-04T10:16:49.118Z</time></trkpt><trkpt lat="42.05616" lon="12.2373117"><ele>222.0</ele><time>2026-04-04T10:16:50.115Z</time></trkpt><trkpt lat="42.05603" lon="12.2374333"><ele>222.0</ele><time>2026-04-04T10:16:51.12Z</time></trkpt><trkpt lat="42.0559017" lon="12.2375567"><ele>222.0</ele><time>2026-04-04T10:16:52.11Z</time></trkpt><trkpt lat="42.0557717" lon="12.2376783"><ele>221.33333333333331</ele><time>2026-04-04T10:16:53.115Z</time></trkpt><trkpt lat="42.0556383" lon="12.2378067"><ele>220.66666666666666</ele><time>2026-04-04T10:16:54.119Z</time></trkpt><trkpt lat="42.0554967" lon="12.2379417"><ele>220.0</ele><time>2026-04-04T10:16:55.118Z</time></trkpt><trkpt lat="42.055365" lon="12.2380783"><ele>220.66666666666666</ele><time>2026-04-04T10:16:56.12Z</time></trkpt><trkpt lat="42.0552333" lon="12.2382067"><ele>221.33333333333331</ele><time>2026-04-04T10:16:57.11Z</time></trkpt><trkpt lat="42.0551" lon="12.2383367"><ele>222.0</ele><time>2026-04-04T10:16:58.114Z</time></trkpt><trkpt lat="42.05497" lon="12.23848"><ele>220.66666666666669</ele><time>2026-04-04T10:16:59.115Z</time></trkpt><trkpt lat="42.05484" lon="12.238625"><ele>219.33333333333334</ele><time>2026-04-04T10:17:00.115Z</time></trkpt><trkpt lat="42.0547083" lon="12.2387633"><ele>218.0</ele><time>2026-04-04T10:17:01.117Z</time></trkpt><trkpt lat="42.054575" lon="12.2389017"><ele>218.66666666666669</ele><time>2026-04-04T10:17:02.116Z</time></trkpt><trkpt lat="42.0544417" lon="12.23905"><ele>219.33333333333331</ele><time>2026-04-04T10:17:03.118Z</time></trkpt><trkpt lat="42.0543067" lon="12.239205"><ele>220.0</ele><time>2026-04-04T10:17:04.115Z</time></trkpt><trkpt lat="42.0541783" lon="12.239355"><ele>218.66666666666666</ele><time>2026-04-04T10:17:05.115Z</time></trkpt><trkpt lat="42.0540583" lon="12.239495"><ele>217.33333333333331</ele><time>2026-04-04T10:17:06.116Z</time></trkpt><trkpt lat="42.0539367" lon="12.2396383"><ele>216.0</ele><time>2026-04-04T10:17:07.117Z</time></trkpt><trkpt lat="42.0538233" lon="12.2397833"><ele>217.66666666666669</ele><time>2026-04-04T10:17:08.117Z</time></trkpt><trkpt lat="42.0537167" lon="12.2399283"><ele>219.33333333333334</ele><time>2026-04-04T10:17:09.118Z</time></trkpt><trkpt lat="42.0536167" lon="12.24009"><ele>221.0</ele><time>2026-04-04T10:17:10.116Z</time></trkpt><trkpt lat="42.0535167" lon="12.24026"><ele>221.0</ele><time>2026-04-04T10:17:11.116Z</time></trkpt><trkpt lat="42.0534233" lon="12.24043"><ele>221.0</ele><time>2026-04-04T10:17:12.117Z</time></trkpt><trkpt lat="42.0533317" lon="12.2406"><ele>221.0</ele><time>2026-04-04T10:17:13.12Z</time></trkpt><trkpt lat="42.0532383" lon="12.2407767"><ele>222.0</ele><time>2026-04-04T10:17:14.118Z</time></trkpt><trkpt lat="42.0531517" lon="12.240945"><ele>223.0</ele><time>2026-04-04T10:17:15.121Z</time></trkpt><trkpt lat="42.0530683" lon="12.24111"><ele>224.0</ele><time>2026-04-04T10:17:16.115Z</time></trkpt><trkpt lat="42.052985" lon="12.2412867"><ele>223.33333333333334</ele><time>2026-04-04T10:17:17.115Z</time></trkpt><trkpt lat="42.052905" lon="12.2414683"><ele>222.66666666666669</ele><time>2026-04-04T10:17:18.115Z</time></trkpt><trkpt lat="42.05283" lon="12.2416417"><ele>222.0</ele><time>2026-04-04T10:17:19.117Z</time></trkpt><trkpt lat="42.052755" lon="12.2418183"><ele>222.0</ele><time>2026-04-04T10:17:20.117Z</time></trkpt><trkpt lat="42.0526783" lon="12.2420083"><ele>222.0</ele><time>2026-04-04T10:17:21.121Z</time></trkpt><trkpt lat="42.052605" lon="12.2422083"><ele>222.0</ele><time>2026-04-04T10:17:22.115Z</time></trkpt><trkpt lat="42.0525317" lon="12.2424017"><ele>220.33333333333331</ele><time>2026-04-04T10:17:23.118Z</time></trkpt><trkpt lat="42.0524533" lon="12.2425867"><ele>218.66666666666666</ele><time>2026-04-04T10:17:24.118Z</time></trkpt><trkpt lat="42.0523667" lon="12.242765"><ele>217.0</ele><time>2026-04-04T10:17:25.117Z</time></trkpt><trkpt lat="42.0522767" lon="12.24293"><ele>217.0</ele><time>2026-04-04T10:17:26.115Z</time></trkpt><trkpt lat="42.05218" lon="12.2430767"><ele>217.0</ele><time>2026-04-04T10:17:27.12Z</time></trkpt><trkpt lat="42.0520833" lon="12.2432167"><ele>217.0</ele><time>2026-04-04T10:17:28.115Z</time></trkpt><trkpt lat="42.0519883" lon="12.2433583"><ele>217.0</ele><time>2026-04-04T10:17:29.116Z</time></trkpt><trkpt lat="42.0518933" lon="12.2434933"><ele>217.25</ele><time>2026-04-04T10:17:30.11Z</time></trkpt><trkpt lat="42.0518" lon="12.2436117"><ele>217.5</ele><time>2026-04-04T10:17:31.117Z</time></trkpt><trkpt lat="42.0517133" lon="12.243735"><ele>217.75</ele><time>2026-04-04T10:17:32.114Z</time></trkpt><trkpt lat="42.0516333" lon="12.2438583"><ele>218.0</ele><time>2026-04-04T10:17:33.118Z</time></trkpt><trkpt lat="42.0515583" lon="12.243975"><ele>218.0</ele><time>2026-04-04T10:17:34.116Z</time></trkpt><trkpt lat="42.0514767" lon="12.2441033"><ele>218.0</ele><time>2026-04-04T10:17:35.117Z</time></trkpt><trkpt lat="42.0513933" lon="12.2442417"><ele>218.0</ele><time>2026-04-04T10:17:36.117Z</time></trkpt><trkpt lat="42.05131" lon="12.2443867"><ele>218.0</ele><time>2026-04-04T10:17:37.113Z</time></trkpt><trkpt lat="42.0512317" lon="12.244525"><ele>218.0</ele><time>2026-04-04T10:17:38.115Z</time></trkpt><trkpt lat="42.0511617" lon="12.244665"><ele>218.0</ele><time>2026-04-04T10:17:39.114Z</time></trkpt><trkpt lat="42.0510933" lon="12.2448117"><ele>218.0</ele><time>2026-04-04T10:17:40.117Z</time></trkpt><trkpt lat="42.05102" lon="12.2449617"><ele>218.0</ele><time>2026-04-04T10:17:41.115Z</time></trkpt><trkpt lat="42.0509433" lon="12.2451233"><ele>218.0</ele><time>2026-04-04T10:17:42.116Z</time></trkpt><trkpt lat="42.0508683" lon="12.2452817"><ele>218.0</ele><time>2026-04-04T10:17:43.119Z</time></trkpt><trkpt lat="42.0508" lon="12.2454383"><ele>218.0</ele><time>2026-04-04T10:17:44.118Z</time></trkpt><trkpt lat="42.050735" lon="12.2456017"><ele>218.0</ele><time>2026-04-04T10:17:45.117Z</time></trkpt><trkpt lat="42.0506717" lon="12.2457683"><ele>217.33333333333334</ele><time>2026-04-04T10:17:46.116Z</time></trkpt><trkpt lat="42.0506033" lon="12.245945"><ele>216.66666666666669</ele><time>2026-04-04T10:17:47.115Z</time></trkpt><trkpt lat="42.0505267" lon="12.2461417"><ele>216.0</ele><time>2026-04-04T10:17:48.115Z</time></trkpt><trkpt lat="42.0504517" lon="12.2463433"><ele>216.0</ele><time>2026-04-04T10:17:49.115Z</time></trkpt><trkpt lat="42.05038" lon="12.2465433"><ele>216.0</ele><time>2026-04-04T10:17:50.115Z</time></trkpt><trkpt lat="42.05031" lon="12.2467417"><ele>216.0</ele><time>2026-04-04T10:17:51.118Z</time></trkpt><trkpt lat="42.05025" lon="12.24693"><ele>216.0</ele><time>2026-04-04T10:17:52.116Z</time></trkpt><trkpt lat="42.05019" lon="12.247115"><ele>216.0</ele><time>2026-04-04T10:17:53.118Z</time></trkpt><trkpt lat="42.0501317" lon="12.2473017"><ele>216.0</ele><time>2026-04-04T10:17:54.122Z</time></trkpt><trkpt lat="42.050065" lon="12.2474867"><ele>216.0</ele><time>2026-04-04T10:17:55.117Z</time></trkpt><trkpt lat="42.0500067" lon="12.2476733"><ele>216.0</ele><time>2026-04-04T10:17:56.117Z</time></trkpt><trkpt lat="42.049945" lon="12.2478633"><ele>216.0</ele><time>2026-04-04T10:17:57.117Z</time></trkpt><trkpt lat="42.04988" lon="12.2480467"><ele>216.0</ele><time>2026-04-04T10:17:58.116Z</time></trkpt><trkpt lat="42.0498167" lon="12.24823"><ele>216.0</ele><time>2026-04-04T10:17:59.116Z</time></trkpt><trkpt lat="42.049755" lon="12.2484083"><ele>216.0</ele><time>2026-04-04T10:18:00.113Z</time></trkpt><trkpt lat="42.0496917" lon="12.2485883"><ele>216.0</ele><time>2026-04-04T10:18:01.114Z</time></trkpt><trkpt lat="42.0496333" lon="12.248765"><ele>216.0</ele><time>2026-04-04T10:18:02.118Z</time></trkpt><trkpt lat="42.0495817" lon="12.2489317"><ele>216.0</ele><time>2026-04-04T10:18:03.116Z</time></trkpt><trkpt lat="42.0495317" lon="12.2490967"><ele>216.0</ele><time>2026-04-04T10:18:04.118Z</time></trkpt><trkpt lat="42.0494917" lon="12.2492717"><ele>216.0</ele><time>2026-04-04T10:18:05.115Z</time></trkpt><trkpt lat="42.0494667" lon="12.24947"><ele>215.25</ele><time>2026-04-04T10:18:06.115Z</time></trkpt><trkpt lat="42.0494617" lon="12.2496683"><ele>214.5</ele><time>2026-04-04T10:18:07.115Z</time></trkpt><trkpt lat="42.0494667" lon="12.249865"><ele>213.75</ele><time>2026-04-04T10:18:08.114Z</time></trkpt><trkpt lat="42.0494767" lon="12.2500717"><ele>213.0</ele><time>2026-04-04T10:18:09.118Z</time></trkpt><trkpt lat="42.0494767" lon="12.250275"><ele>212.5</ele><time>2026-04-04T10:18:10.116Z</time></trkpt><trkpt lat="42.049465" lon="12.2504683"><ele>212.0</ele><time>2026-04-04T10:18:11.11Z</time></trkpt><trkpt lat="42.04944" lon="12.250655"><ele>211.5</ele><time>2026-04-04T10:18:12.117Z</time></trkpt><trkpt lat="42.0494133" lon="12.2508467"><ele>211.0</ele><time>2026-04-04T10:18:13.116Z</time></trkpt><trkpt lat="42.0493767" lon="12.251025"><ele>210.25</ele><time>2026-04-04T10:18:14.113Z</time></trkpt><trkpt lat="42.0493267" lon="12.2512"><ele>209.5</ele><time>2026-04-04T10:18:15.117Z</time></trkpt><trkpt lat="42.049265" lon="12.25136"><ele>208.75</ele><time>2026-04-04T10:18:16.115Z</time></trkpt><trkpt lat="42.0491867" lon="12.2515017"><ele>208.0</ele><time>2026-04-04T10:18:17.119Z</time></trkpt><trkpt lat="42.0491033" lon="12.2516317"><ele>207.0</ele><time>2026-04-04T10:18:18.118Z</time></trkpt><trkpt lat="42.04901" lon="12.251755"><ele>206.0</ele><time>2026-04-04T10:18:19.114Z</time></trkpt><trkpt lat="42.0489067" lon="12.2518783"><ele>205.0</ele><time>2026-04-04T10:18:20.116Z</time></trkpt><trkpt lat="42.048805" lon="12.2519917"><ele>204.0</ele><time>2026-04-04T10:18:21.115Z</time></trkpt><trkpt lat="42.048705" lon="12.2521"><ele>204.0</ele><time>2026-04-04T10:18:22.118Z</time></trkpt><trkpt lat="42.0486017" lon="12.2522017"><ele>204.0</ele><time>2026-04-04T10:18:23.11Z</time></trkpt><trkpt lat="42.0485083" lon="12.2522917"><ele>204.0</ele><time>2026-04-04T10:18:24.115Z</time></trkpt><trkpt lat="42.0484233" lon="12.252375"><ele>204.0</ele><time>2026-04-04T10:18:25.118Z</time></trkpt><trkpt lat="42.0483283" lon="12.252465"><ele>203.25</ele><time>2026-04-04T10:18:26.114Z</time></trkpt><trkpt lat="42.048215" lon="12.2525667"><ele>202.5</ele><time>2026-04-04T10:18:27.119Z</time></trkpt><trkpt lat="42.048095" lon="12.2526817"><ele>201.75</ele><time>2026-04-04T10:18:28.111Z</time></trkpt><trkpt lat="42.04797" lon="12.252815"><ele>201.0</ele><time>2026-04-04T10:18:29.116Z</time></trkpt><trkpt lat="42.0478417" lon="12.2529667"><ele>201.0</ele><time>2026-04-04T10:18:30.117Z</time></trkpt><trkpt lat="42.047715" lon="12.2531217"><ele>201.0</ele><time>2026-04-04T10:18:31.116Z</time></trkpt><trkpt lat="42.0475817" lon="12.2532783"><ele>201.0</ele><time>2026-04-04T10:18:32.116Z</time></trkpt><trkpt lat="42.0474417" lon="12.253445"><ele>200.33333333333331</ele><time>2026-04-04T10:18:33.119Z</time></trkpt><trkpt lat="42.0472933" lon="12.25362"><ele>199.66666666666666</ele><time>2026-04-04T10:18:34.116Z</time></trkpt><trkpt lat="42.0471467" lon="12.2538"><ele>199.0</ele><time>2026-04-04T10:18:35.114Z</time></trkpt><trkpt lat="42.0469917" lon="12.2539883"><ele>199.0</ele><time>2026-04-04T10:18:36.115Z</time></trkpt><trkpt lat="42.0468317" lon="12.2541767"><ele>199.0</ele><time>2026-04-04T10:18:37.111Z</time></trkpt><trkpt lat="42.046665" lon="12.2543617"><ele>199.0</ele><time>2026-04-04T10:18:38.118Z</time></trkpt><trkpt lat="42.0464967" lon="12.2545433"><ele>199.33333333333331</ele><time>2026-04-04T10:18:39.118Z</time></trkpt><trkpt lat="42.046325" lon="12.2547167"><ele>199.66666666666669</ele><time>2026-04-04T10:18:40.114Z</time></trkpt><trkpt lat="42.0461517" lon="12.2548817"><ele>200.0</ele><time>2026-04-04T10:18:41.119Z</time></trkpt><trkpt lat="42.0459917" lon="12.2550333"><ele>200.0</ele><time>2026-04-04T10:18:42.118Z</time></trkpt><trkpt lat="42.0458367" lon="12.2551767"><ele>200.0</ele><time>2026-04-04T10:18:43.118Z</time></trkpt><trkpt lat="42.045695" lon="12.25532"><ele>200.0</ele><time>2026-04-04T10:18:44.114Z</time></trkpt><trkpt lat="42.0455533" lon="12.25546"><ele>199.66666666666669</ele><time>2026-04-04T10:18:45.118Z</time></trkpt><trkpt lat="42.04541" lon="12.2556067"><ele>199.33333333333331</ele><time>2026-04-04T10:18:46.113Z</time></trkpt><trkpt lat="42.0452683" lon="12.2557667"><ele>199.0</ele><time>2026-04-04T10:18:47.115Z</time></trkpt><trkpt lat="42.0451317" lon="12.25593"><ele>199.0</ele><time>2026-04-04T10:18:48.118Z</time></trkpt><trkpt lat="42.0449983" lon="12.2560833"><ele>199.0</ele><time>2026-04-04T10:18:49.11Z</time></trkpt><trkpt lat="42.04487" lon="12.2562383"><ele>199.0</ele><time>2026-04-04T10:18:50.116Z</time></trkpt><trkpt lat="42.0447417" lon="12.2563933"><ele>198.66666666666666</ele><time>2026-04-04T10:18:51.117Z</time></trkpt><trkpt lat="42.0446167" lon="12.2565417"><ele>198.33333333333331</ele><time>2026-04-04T10:18:52.119Z</time></trkpt><trkpt lat="42.0444883" lon="12.256695"><ele>198.0</ele><time>2026-04-04T10:18:53.117Z</time></trkpt><trkpt lat="42.044355" lon="12.2568567"><ele>198.0</ele><time>2026-04-04T10:18:54.117Z</time></trkpt><trkpt lat="42.0442233" lon="12.25701"><ele>198.0</ele><time>2026-04-04T10:18:55.116Z</time></trkpt><trkpt lat="42.0441" lon="12.25715"><ele>198.0</ele><time>2026-04-04T10:18:56.117Z</time></trkpt><trkpt lat="42.0439733" lon="12.2572967"><ele>197.66666666666669</ele><time>2026-04-04T10:18:57.117Z</time></trkpt><trkpt lat="42.0438417" lon="12.25744"><ele>197.33333333333334</ele><time>2026-04-04T10:18:58.119Z</time></trkpt><trkpt lat="42.0437117" lon="12.257585"><ele>197.0</ele><time>2026-04-04T10:18:59.116Z</time></trkpt><trkpt lat="42.0435833" lon="12.2577267"><ele>197.0</ele><time>2026-04-04T10:19:00.114Z</time></trkpt><trkpt lat="42.0434567" lon="12.2578633"><ele>197.0</ele><time>2026-04-04T10:19:01.118Z</time></trkpt><trkpt lat="42.0433267" lon="12.2579983"><ele>197.0</ele><time>2026-04-04T10:19:02.116Z</time></trkpt><trkpt lat="42.043205" lon="12.2581183"><ele>197.0</ele><time>2026-04-04T10:19:03.113Z</time></trkpt><trkpt lat="42.0430883" lon="12.2582383"><ele>197.0</ele><time>2026-04-04T10:19:04.117Z</time></trkpt><trkpt lat="42.042975" lon="12.2583567"><ele>197.0</ele><time>2026-04-04T10:19:05.116Z</time></trkpt><trkpt lat="42.0428633" lon="12.258475"><ele>197.0</ele><time>2026-04-04T10:19:06.116Z</time></trkpt><trkpt lat="42.0427633" lon="12.25858"><ele>197.0</ele><time>2026-04-04T10:19:07.113Z</time></trkpt><trkpt lat="42.0426733" lon="12.2586767"><ele>197.0</ele><time>2026-04-04T10:19:08.114Z</time></trkpt><trkpt lat="42.0425983" lon="12.2587733"><ele>197.0</ele><time>2026-04-04T10:19:09.11Z</time></trkpt><trkpt lat="42.0425217" lon="12.25886"><ele>197.0</ele><time>2026-04-04T10:19:10.113Z</time></trkpt><trkpt lat="42.0424517" lon="12.2589417"><ele>197.0</ele><time>2026-04-04T10:19:11.115Z</time></trkpt><trkpt lat="42.0423833" lon="12.2590167"><ele>196.33333333333334</ele><time>2026-04-04T10:19:12.118Z</time></trkpt><trkpt lat="42.0423183" lon="12.2590867"><ele>195.66666666666669</ele><time>2026-04-04T10:19:13.118Z</time></trkpt><trkpt lat="42.0422467" lon="12.2591417"><ele>195.0</ele><time>2026-04-04T10:19:14.113Z</time></trkpt><trkpt lat="42.0421717" lon="12.2591667"><ele>194.33333333333331</ele><time>2026-04-04T10:19:15.119Z</time></trkpt><trkpt lat="42.0421017" lon="12.2591867"><ele>193.66666666666666</ele><time>2026-04-04T10:19:16.114Z</time></trkpt><trkpt lat="42.04203" lon="12.25922"><ele>193.0</ele><time>2026-04-04T10:19:17.115Z</time></trkpt><trkpt lat="42.041975" lon="12.2592733"><ele>192.99999999999997</ele><time>2026-04-04T10:19:18.112Z</time></trkpt><trkpt lat="42.0419433" lon="12.2593517"><ele>193.0</ele><time>2026-04-04T10:19:19.111Z</time></trkpt><trkpt lat="42.04193" lon="12.259445"><ele>193.0</ele><time>2026-04-04T10:19:20.114Z</time></trkpt><trkpt lat="42.0419117" lon="12.2595483"><ele>193.0</ele><time>2026-04-04T10:19:21.117Z</time></trkpt><trkpt lat="42.04188" lon="12.2596483"><ele>192.99999999999997</ele><time>2026-04-04T10:19:22.112Z</time></trkpt><trkpt lat="42.041825" lon="12.2597433"><ele>193.0</ele><time>2026-04-04T10:19:23.116Z</time></trkpt><trkpt lat="42.0417467" lon="12.2598433"><ele>192.5</ele><time>2026-04-04T10:19:24.109Z</time></trkpt><trkpt lat="42.0416533" lon="12.2599583"><ele>192.0</ele><time>2026-04-04T10:19:25.117Z</time></trkpt><trkpt lat="42.0415567" lon="12.26008"><ele>191.5</ele><time>2026-04-04T10:19:26.117Z</time></trkpt><trkpt lat="42.0414533" lon="12.2602"><ele>191.0</ele><time>2026-04-04T10:19:27.118Z</time></trkpt><trkpt lat="42.0413467" lon="12.2603217"><ele>190.66666666666666</ele><time>2026-04-04T10:19:28.118Z</time></trkpt><trkpt lat="42.0412283" lon="12.2604617"><ele>190.33333333333334</ele><time>2026-04-04T10:19:29.117Z</time></trkpt><trkpt lat="42.0411083" lon="12.2606033"><ele>190.0</ele><time>2026-04-04T10:19:30.114Z</time></trkpt><trkpt lat="42.040985" lon="12.2607517"><ele>189.0</ele><time>2026-04-04T10:19:31.114Z</time></trkpt><trkpt lat="42.04087" lon="12.2608883"><ele>188.0</ele><time>2026-04-04T10:19:32.116Z</time></trkpt><trkpt lat="42.0407533" lon="12.2610283"><ele>187.0</ele><time>2026-04-04T10:19:33.119Z</time></trkpt><trkpt lat="42.0406367" lon="12.2611617"><ele>185.66666666666669</ele><time>2026-04-04T10:19:34.117Z</time></trkpt><trkpt lat="42.040525" lon="12.2612933"><ele>184.33333333333334</ele><time>2026-04-04T10:19:35.117Z</time></trkpt><trkpt lat="42.04041" lon="12.26143"><ele>183.0</ele><time>2026-04-04T10:19:36.116Z</time></trkpt><trkpt lat="42.0402967" lon="12.261575"><ele>183.0</ele><time>2026-04-04T10:19:37.114Z</time></trkpt><trkpt lat="42.0401783" lon="12.2617167"><ele>183.0</ele><time>2026-04-04T10:19:38.112Z</time></trkpt><trkpt lat="42.0400633" lon="12.2618583"><ele>183.0</ele><time>2026-04-04T10:19:39.118Z</time></trkpt><trkpt lat="42.0399517" lon="12.2619917"><ele>182.33333333333334</ele><time>2026-04-04T10:19:40.116Z</time></trkpt><trkpt lat="42.03984" lon="12.26213"><ele>181.66666666666669</ele><time>2026-04-04T10:19:41.118Z</time></trkpt><trkpt lat="42.039725" lon="12.2622733"><ele>181.0</ele><time>2026-04-04T10:19:42.115Z</time></trkpt><trkpt lat="42.0396033" lon="12.26242"><ele>181.0</ele><time>2026-04-04T10:19:43.118Z</time></trkpt><trkpt lat="42.039475" lon="12.2625767"><ele>181.0</ele><time>2026-04-04T10:19:44.116Z</time></trkpt><trkpt lat="42.0393483" lon="12.26273"><ele>181.0</ele><time>2026-04-04T10:19:45.119Z</time></trkpt><trkpt lat="42.0392283" lon="12.2628683"><ele>179.66666666666669</ele><time>2026-04-04T10:19:46.114Z</time></trkpt><trkpt lat="42.0391117" lon="12.26301"><ele>178.33333333333334</ele><time>2026-04-04T10:19:47.117Z</time></trkpt><trkpt lat="42.0389917" lon="12.2631533"><ele>177.0</ele><time>2026-04-04T10:19:48.118Z</time></trkpt><trkpt lat="42.0388733" lon="12.263295"><ele>176.66666666666666</ele><time>2026-04-04T10:19:49.115Z</time></trkpt><trkpt lat="42.038755" lon="12.263435"><ele>176.33333333333331</ele><time>2026-04-04T10:19:50.117Z</time></trkpt><trkpt lat="42.038635" lon="12.2635783"><ele>176.0</ele><time>2026-04-04T10:19:51.115Z</time></trkpt><trkpt lat="42.0385167" lon="12.26373"><ele>176.0</ele><time>2026-04-04T10:19:52.114Z</time></trkpt><trkpt lat="42.0383983" lon="12.2638883"><ele>176.0</ele><time>2026-04-04T10:19:53.114Z</time></trkpt><trkpt lat="42.0382767" lon="12.2640567"><ele>176.0</ele><time>2026-04-04T10:19:54.117Z</time></trkpt><trkpt lat="42.0381617" lon="12.264235"><ele>176.33333333333331</ele><time>2026-04-04T10:19:55.117Z</time></trkpt><trkpt lat="42.0380533" lon="12.264425"><ele>176.66666666666666</ele><time>2026-04-04T10:19:56.115Z</time></trkpt><trkpt lat="42.0379533" lon="12.2646183"><ele>177.0</ele><time>2026-04-04T10:19:57.118Z</time></trkpt><trkpt lat="42.0378617" lon="12.2648117"><ele>178.0</ele><time>2026-04-04T10:19:58.115Z</time></trkpt><trkpt lat="42.03778" lon="12.2650017"><ele>179.0</ele><time>2026-04-04T10:19:59.119Z</time></trkpt><trkpt lat="42.0377" lon="12.2651983"><ele>180.0</ele><time>2026-04-04T10:20:00.118Z</time></trkpt><trkpt lat="42.0376233" lon="12.265395"><ele>180.0</ele><time>2026-04-04T10:20:01.119Z</time></trkpt><trkpt lat="42.03755" lon="12.26559"><ele>180.0</ele><time>2026-04-04T10:20:02.111Z</time></trkpt><trkpt lat="42.0374817" lon="12.265785"><ele>180.0</ele><time>2026-04-04T10:20:03.116Z</time></trkpt><trkpt lat="42.0374167" lon="12.2659767"><ele>180.0</ele><time>2026-04-04T10:20:04.115Z</time></trkpt><trkpt lat="42.0373533" lon="12.2661667"><ele>180.0</ele><time>2026-04-04T10:20:05.116Z</time></trkpt><trkpt lat="42.0372833" lon="12.2663633"><ele>180.0</ele><time>2026-04-04T10:20:06.116Z</time></trkpt><trkpt lat="42.0372083" lon="12.2665683"><ele>180.0</ele><time>2026-04-04T10:20:07.118Z</time></trkpt><trkpt lat="42.03713" lon="12.2667717"><ele>180.0</ele><time>2026-04-04T10:20:08.115Z</time></trkpt><trkpt lat="42.037055" lon="12.2669667"><ele>180.0</ele><time>2026-04-04T10:20:09.116Z</time></trkpt><trkpt lat="42.03698" lon="12.26717"><ele>179.0</ele><time>2026-04-04T10:20:10.114Z</time></trkpt><trkpt lat="42.036905" lon="12.267375"><ele>178.0</ele><time>2026-04-04T10:20:11.116Z</time></trkpt><trkpt lat="42.03683" lon="12.2675767"><ele>177.0</ele><time>2026-04-04T10:20:12.118Z</time></trkpt><trkpt lat="42.0367567" lon="12.26777"><ele>177.0</ele><time>2026-04-04T10:20:13.115Z</time></trkpt><trkpt lat="42.0366867" lon="12.2679583"><ele>177.0</ele><time>2026-04-04T10:20:14.114Z</time></trkpt><trkpt lat="42.0366217" lon="12.26815"><ele>177.0</ele><time>2026-04-04T10:20:15.12Z</time></trkpt><trkpt lat="42.0365483" lon="12.2683517"><ele>175.33333333333334</ele><time>2026-04-04T10:20:16.116Z</time></trkpt><trkpt lat="42.0364767" lon="12.26854"><ele>173.66666666666669</ele><time>2026-04-04T10:20:17.114Z</time></trkpt><trkpt lat="42.0364067" lon="12.2687283"><ele>172.0</ele><time>2026-04-04T10:20:18.117Z</time></trkpt><trkpt lat="42.0363317" lon="12.2689217"><ele>171.0</ele><time>2026-04-04T10:20:19.115Z</time></trkpt><trkpt lat="42.0362617" lon="12.2691333"><ele>170.0</ele><time>2026-04-04T10:20:20.115Z</time></trkpt><trkpt lat="42.0362" lon="12.2693567"><ele>169.0</ele><time>2026-04-04T10:20:21.117Z</time></trkpt><trkpt lat="42.036145" lon="12.2695933"><ele>170.0</ele><time>2026-04-04T10:20:22.117Z</time></trkpt><trkpt lat="42.0361" lon="12.2698283"><ele>171.0</ele><time>2026-04-04T10:20:23.118Z</time></trkpt><trkpt lat="42.0360683" lon="12.2700483"><ele>172.0</ele><time>2026-04-04T10:20:24.116Z</time></trkpt><trkpt lat="42.0360367" lon="12.27027"><ele>172.0</ele><time>2026-04-04T10:20:25.114Z</time></trkpt><trkpt lat="42.036005" lon="12.2704833"><ele>172.0</ele><time>2026-04-04T10:20:26.121Z</time></trkpt><trkpt lat="42.0359767" lon="12.2706967"><ele>172.0</ele><time>2026-04-04T10:20:27.117Z</time></trkpt><trkpt lat="42.0359517" lon="12.27092"><ele>172.33333333333334</ele><time>2026-04-04T10:20:28.116Z</time></trkpt><trkpt lat="42.0359267" lon="12.271135"><ele>172.66666666666666</ele><time>2026-04-04T10:20:29.115Z</time></trkpt><trkpt lat="42.0358883" lon="12.2713367"><ele>173.0</ele><time>2026-04-04T10:20:30.112Z</time></trkpt><trkpt lat="42.035835" lon="12.2715433"><ele>172.33333333333331</ele><time>2026-04-04T10:20:31.116Z</time></trkpt><trkpt lat="42.0357717" lon="12.2717517"><ele>171.66666666666666</ele><time>2026-04-04T10:20:32.118Z</time></trkpt><trkpt lat="42.0357083" lon="12.271965"><ele>171.0</ele><time>2026-04-04T10:20:33.117Z</time></trkpt><trkpt lat="42.0356333" lon="12.272195"><ele>169.66666666666666</ele><time>2026-04-04T10:20:34.115Z</time></trkpt><trkpt lat="42.0355483" lon="12.2724567"><ele>168.33333333333331</ele><time>2026-04-04T10:20:35.117Z</time></trkpt><trkpt lat="42.03545" lon="12.2727183"><ele>167.0</ele><time>2026-04-04T10:20:36.114Z</time></trkpt><trkpt lat="42.0353467" lon="12.2729933"><ele>165.5</ele><time>2026-04-04T10:20:37.113Z</time></trkpt><trkpt lat="42.0352367" lon="12.2732783"><ele>164.0</ele><time>2026-04-04T10:20:38.116Z</time></trkpt><trkpt lat="42.0351333" lon="12.2735567"><ele>164.0</ele><time>2026-04-04T10:20:39.118Z</time></trkpt><trkpt lat="42.0350317" lon="12.27385"><ele>164.0</ele><time>2026-04-04T10:20:40.116Z</time></trkpt><trkpt lat="42.0349383" lon="12.2741367"><ele>163.33333333333331</ele><time>2026-04-04T10:20:41.117Z</time></trkpt><trkpt lat="42.0348517" lon="12.2744067"><ele>162.66666666666666</ele><time>2026-04-04T10:20:42.117Z</time></trkpt><trkpt lat="42.03477" lon="12.2746683"><ele>162.0</ele><time>2026-04-04T10:20:43.11Z</time></trkpt><trkpt lat="42.0346883" lon="12.274925"><ele>162.0</ele><time>2026-04-04T10:20:44.117Z</time></trkpt><trkpt lat="42.0346117" lon="12.275165"><ele>162.0</ele><time>2026-04-04T10:20:45.118Z</time></trkpt><trkpt lat="42.0345383" lon="12.2754083"><ele>162.0</ele><time>2026-04-04T10:20:46.118Z</time></trkpt><trkpt lat="42.03447" lon="12.275665"><ele>163.33333333333334</ele><time>2026-04-04T10:20:47.113Z</time></trkpt><trkpt lat="42.0343983" lon="12.2759117"><ele>164.66666666666669</ele><time>2026-04-04T10:20:48.117Z</time></trkpt><trkpt lat="42.0343317" lon="12.2761683"><ele>166.0</ele><time>2026-04-04T10:20:49.118Z</time></trkpt><trkpt lat="42.0342583" lon="12.2764283"><ele>166.0</ele><time>2026-04-04T10:20:50.117Z</time></trkpt><trkpt lat="42.0341833" lon="12.2766817"><ele>166.0</ele><time>2026-04-04T10:20:51.118Z</time></trkpt><trkpt lat="42.0341067" lon="12.2769383"><ele>166.0</ele><time>2026-04-04T10:20:52.118Z</time></trkpt><trkpt lat="42.0340333" lon="12.2771983"><ele>164.0</ele><time>2026-04-04T10:20:53.118Z</time></trkpt><trkpt lat="42.0339667" lon="12.27747"><ele>162.0</ele><time>2026-04-04T10:20:54.114Z</time></trkpt><trkpt lat="42.0338967" lon="12.2777467"><ele>160.0</ele><time>2026-04-04T10:20:55.119Z</time></trkpt><trkpt lat="42.0338267" lon="12.2780233"><ele>160.33333333333334</ele><time>2026-04-04T10:20:56.116Z</time></trkpt><trkpt lat="42.0337517" lon="12.278295"><ele>160.66666666666666</ele><time>2026-04-04T10:20:57.112Z</time></trkpt><trkpt lat="42.0336767" lon="12.278555"><ele>161.0</ele><time>2026-04-04T10:20:58.116Z</time></trkpt><trkpt lat="42.033605" lon="12.27882"><ele>161.33333333333331</ele><time>2026-04-04T10:20:59.119Z</time></trkpt><trkpt lat="42.033535" lon="12.2790883"><ele>161.66666666666666</ele><time>2026-04-04T10:21:00.114Z</time></trkpt><trkpt lat="42.03346" lon="12.2793583"><ele>162.0</ele><time>2026-04-04T10:21:01.116Z</time></trkpt><trkpt lat="42.033385" lon="12.2796183"><ele>163.0</ele><time>2026-04-04T10:21:02.115Z</time></trkpt><trkpt lat="42.0333133" lon="12.2798717"><ele>164.0</ele><time>2026-04-04T10:21:03.117Z</time></trkpt><trkpt lat="42.033245" lon="12.2801167"><ele>165.0</ele><time>2026-04-04T10:21:04.117Z</time></trkpt><trkpt lat="42.0331767" lon="12.2803583"><ele>165.33333333333334</ele><time>2026-04-04T10:21:05.113Z</time></trkpt><trkpt lat="42.0331083" lon="12.2805883"><ele>165.66666666666669</ele><time>2026-04-04T10:21:06.116Z</time></trkpt><trkpt lat="42.0330417" lon="12.2808067"><ele>166.0</ele><time>2026-04-04T10:21:07.114Z</time></trkpt><trkpt lat="42.0329767" lon="12.28103"><ele>166.0</ele><time>2026-04-04T10:21:08.118Z</time></trkpt><trkpt lat="42.0329217" lon="12.2812717"><ele>166.0</ele><time>2026-04-04T10:21:09.117Z</time></trkpt><trkpt lat="42.0328683" lon="12.2815267"><ele>166.0</ele><time>2026-04-04T10:21:10.118Z</time></trkpt><trkpt lat="42.0328217" lon="12.2817933"><ele>166.0</ele><time>2026-04-04T10:21:11.111Z</time></trkpt><trkpt lat="42.0327783" lon="12.2820683"><ele>166.0</ele><time>2026-04-04T10:21:12.113Z</time></trkpt><trkpt lat="42.032735" lon="12.28235"><ele>166.0</ele><time>2026-04-04T10:21:13.117Z</time></trkpt><trkpt lat="42.0326983" lon="12.2826333"><ele>166.0</ele><time>2026-04-04T10:21:14.113Z</time></trkpt><trkpt lat="42.0326633" lon="12.28292"><ele>166.0</ele><time>2026-04-04T10:21:15.116Z</time></trkpt><trkpt lat="42.03263" lon="12.2832067"><ele>166.0</ele><time>2026-04-04T10:21:16.117Z</time></trkpt><trkpt lat="42.0326" lon="12.2834783"><ele>165.0</ele><time>2026-04-04T10:21:17.117Z</time></trkpt><trkpt lat="42.03257" lon="12.28374"><ele>164.0</ele><time>2026-04-04T10:21:18.115Z</time></trkpt><trkpt lat="42.0325417" lon="12.2840083"><ele>163.0</ele><time>2026-04-04T10:21:19.116Z</time></trkpt><trkpt lat="42.0325117" lon="12.2842767"><ele>162.33333333333334</ele><time>2026-04-04T10:21:20.113Z</time></trkpt><trkpt lat="42.03248" lon="12.2845467"><ele>161.66666666666666</ele><time>2026-04-04T10:21:21.117Z</time></trkpt><trkpt lat="42.0324467" lon="12.2848117"><ele>161.0</ele><time>2026-04-04T10:21:22.114Z</time></trkpt><trkpt lat="42.0324067" lon="12.2850767"><ele>158.66666666666666</ele><time>2026-04-04T10:21:23.115Z</time></trkpt><trkpt lat="42.0323633" lon="12.285335"><ele>156.33333333333334</ele><time>2026-04-04T10:21:24.112Z</time></trkpt><trkpt lat="42.0323183" lon="12.2855933"><ele>154.0</ele><time>2026-04-04T10:21:25.115Z</time></trkpt><trkpt lat="42.0322717" lon="12.2858567"><ele>153.33333333333334</ele><time>2026-04-04T10:21:26.119Z</time></trkpt><trkpt lat="42.032235" lon="12.2861117"><ele>152.66666666666666</ele><time>2026-04-04T10:21:27.117Z</time></trkpt><trkpt lat="42.0321933" lon="12.2863667"><ele>152.0</ele><time>2026-04-04T10:21:28.117Z</time></trkpt><trkpt lat="42.0321483" lon="12.2866217"><ele>151.66666666666666</ele><time>2026-04-04T10:21:29.115Z</time></trkpt><trkpt lat="42.032105" lon="12.2868817"><ele>151.33333333333334</ele><time>2026-04-04T10:21:30.116Z</time></trkpt><trkpt lat="42.0320617" lon="12.287135"><ele>151.0</ele><time>2026-04-04T10:21:31.114Z</time></trkpt><trkpt lat="42.03202" lon="12.287375"><ele>150.33333333333334</ele><time>2026-04-04T10:21:32.118Z</time></trkpt><trkpt lat="42.03198" lon="12.2876117"><ele>149.66666666666666</ele><time>2026-04-04T10:21:33.118Z</time></trkpt><trkpt lat="42.03194" lon="12.28785"><ele>149.0</ele><time>2026-04-04T10:21:34.115Z</time></trkpt><trkpt lat="42.0319" lon="12.2880833"><ele>149.66666666666666</ele><time>2026-04-04T10:21:35.119Z</time></trkpt><trkpt lat="42.0318533" lon="12.2883317"><ele>150.33333333333334</ele><time>2026-04-04T10:21:36.118Z</time></trkpt><trkpt lat="42.03181" lon="12.288585"><ele>151.0</ele><time>2026-04-04T10:21:37.119Z</time></trkpt><trkpt lat="42.0317683" lon="12.2888417"><ele>151.0</ele><time>2026-04-04T10:21:38.117Z</time></trkpt><trkpt lat="42.03173" lon="12.2891033"><ele>151.0</ele><time>2026-04-04T10:21:39.118Z</time></trkpt><trkpt lat="42.0316867" lon="12.2893733"><ele>151.0</ele><time>2026-04-04T10:21:40.109Z</time></trkpt><trkpt lat="42.0316433" lon="12.289635"><ele>151.33333333333334</ele><time>2026-04-04T10:21:41.116Z</time></trkpt><trkpt lat="42.0316017" lon="12.2898967"><ele>151.66666666666666</ele><time>2026-04-04T10:21:42.12Z</time></trkpt><trkpt lat="42.0315583" lon="12.29016"><ele>152.0</ele><time>2026-04-04T10:21:43.119Z</time></trkpt><trkpt lat="42.031515" lon="12.290425"><ele>151.66666666666666</ele><time>2026-04-04T10:21:44.116Z</time></trkpt><trkpt lat="42.031475" lon="12.2906933"><ele>151.33333333333334</ele><time>2026-04-04T10:21:45.117Z</time></trkpt><trkpt lat="42.0314333" lon="12.29097"><ele>151.0</ele><time>2026-04-04T10:21:46.118Z</time></trkpt><trkpt lat="42.03139" lon="12.29125"><ele>150.66666666666669</ele><time>2026-04-04T10:21:47.114Z</time></trkpt><trkpt lat="42.0313483" lon="12.2915167"><ele>150.33333333333334</ele><time>2026-04-04T10:21:48.116Z</time></trkpt><trkpt lat="42.031305" lon="12.2917817"><ele>150.0</ele><time>2026-04-04T10:21:49.115Z</time></trkpt><trkpt lat="42.0312667" lon="12.29205"><ele>149.66666666666666</ele><time>2026-04-04T10:21:50.115Z</time></trkpt><trkpt lat="42.031225" lon="12.2923133"><ele>149.33333333333331</ele><time>2026-04-04T10:21:51.115Z</time></trkpt><trkpt lat="42.0311817" lon="12.29257"><ele>149.0</ele><time>2026-04-04T10:21:52.114Z</time></trkpt><trkpt lat="42.0311467" lon="12.292815"><ele>149.0</ele><time>2026-04-04T10:21:53.118Z</time></trkpt><trkpt lat="42.03111" lon="12.2930633"><ele>149.0</ele><time>2026-04-04T10:21:54.116Z</time></trkpt><trkpt lat="42.0310767" lon="12.2933133"><ele>149.0</ele><time>2026-04-04T10:21:55.118Z</time></trkpt><trkpt lat="42.03105" lon="12.29357"><ele>149.0</ele><time>2026-04-04T10:21:56.119Z</time></trkpt><trkpt lat="42.0310333" lon="12.2938367"><ele>149.0</ele><time>2026-04-04T10:21:57.118Z</time></trkpt><trkpt lat="42.0310333" lon="12.2941117"><ele>149.0</ele><time>2026-04-04T10:21:58.118Z</time></trkpt><trkpt lat="42.03104" lon="12.2944017"><ele>148.0</ele><time>2026-04-04T10:21:59.115Z</time></trkpt><trkpt lat="42.03105" lon="12.2947"><ele>147.0</ele><time>2026-04-04T10:22:00.118Z</time></trkpt><trkpt lat="42.0310617" lon="12.2949883"><ele>146.0</ele><time>2026-04-04T10:22:01.116Z</time></trkpt><trkpt lat="42.031075" lon="12.2952667"><ele>145.33333333333331</ele><time>2026-04-04T10:22:02.116Z</time></trkpt><trkpt lat="42.0310883" lon="12.2955483"><ele>144.66666666666666</ele><time>2026-04-04T10:22:03.116Z</time></trkpt><trkpt lat="42.0311017" lon="12.29583"><ele>144.0</ele><time>2026-04-04T10:22:04.113Z</time></trkpt><trkpt lat="42.03111" lon="12.2961117"><ele>143.66666666666666</ele><time>2026-04-04T10:22:05.111Z</time></trkpt><trkpt lat="42.03112" lon="12.2963783"><ele>143.33333333333331</ele><time>2026-04-04T10:22:06.116Z</time></trkpt><trkpt lat="42.0311317" lon="12.2966467"><ele>143.0</ele><time>2026-04-04T10:22:07.118Z</time></trkpt><trkpt lat="42.03114" lon="12.2969233"><ele>142.66666666666666</ele><time>2026-04-04T10:22:08.116Z</time></trkpt><trkpt lat="42.03115" lon="12.2971917"><ele>142.33333333333334</ele><time>2026-04-04T10:22:09.115Z</time></trkpt><trkpt lat="42.0311617" lon="12.2974583"><ele>142.0</ele><time>2026-04-04T10:22:10.118Z</time></trkpt><trkpt lat="42.031175" lon="12.297715"><ele>141.66666666666669</ele><time>2026-04-04T10:22:11.118Z</time></trkpt><trkpt lat="42.031185" lon="12.29796"><ele>141.33333333333334</ele><time>2026-04-04T10:22:12.118Z</time></trkpt><trkpt lat="42.0311917" lon="12.298205"><ele>141.0</ele><time>2026-04-04T10:22:13.117Z</time></trkpt><trkpt lat="42.0312" lon="12.2984467"><ele>140.33333333333334</ele><time>2026-04-04T10:22:14.116Z</time></trkpt><trkpt lat="42.0312083" lon="12.2986833"><ele>139.66666666666669</ele><time>2026-04-04T10:22:15.114Z</time></trkpt><trkpt lat="42.0312133" lon="12.298915"><ele>139.0</ele><time>2026-04-04T10:22:16.114Z</time></trkpt><trkpt lat="42.031225" lon="12.2991417"><ele>137.33333333333334</ele><time>2026-04-04T10:22:17.114Z</time></trkpt><trkpt lat="42.0312433" lon="12.299365"><ele>135.66666666666666</ele><time>2026-04-04T10:22:18.117Z</time></trkpt><trkpt lat="42.0312783" lon="12.2995983"><ele>134.0</ele><time>2026-04-04T10:22:19.116Z</time></trkpt><trkpt lat="42.0313317" lon="12.2998383"><ele>132.66666666666666</ele><time>2026-04-04T10:22:20.114Z</time></trkpt><trkpt lat="42.0314017" lon="12.3000667"><ele>131.33333333333334</ele><time>2026-04-04T10:22:21.12Z</time></trkpt><trkpt lat="42.031485" lon="12.3002833"><ele>130.0</ele><time>2026-04-04T10:22:22.116Z</time></trkpt><trkpt lat="42.0315817" lon="12.300505"><ele>129.0</ele><time>2026-04-04T10:22:23.115Z</time></trkpt><trkpt lat="42.0316867" lon="12.30073"><ele>128.0</ele><time>2026-04-04T10:22:24.116Z</time></trkpt><trkpt lat="42.0317967" lon="12.3009683"><ele>127.0</ele><time>2026-04-04T10:22:25.117Z</time></trkpt><trkpt lat="42.0319117" lon="12.3012133"><ele>126.66666666666667</ele><time>2026-04-04T10:22:26.115Z</time></trkpt><trkpt lat="42.032025" lon="12.30146"><ele>126.33333333333334</ele><time>2026-04-04T10:22:27.116Z</time></trkpt><trkpt lat="42.0321367" lon="12.3016983"><ele>126.0</ele><time>2026-04-04T10:22:28.118Z</time></trkpt><trkpt lat="42.0322483" lon="12.301925"><ele>126.0</ele><time>2026-04-04T10:22:29.119Z</time></trkpt><trkpt lat="42.0323633" lon="12.30215"><ele>126.0</ele><time>2026-04-04T10:22:30.118Z</time></trkpt><trkpt lat="42.032485" lon="12.30237"><ele>126.0</ele><time>2026-04-04T10:22:31.121Z</time></trkpt><trkpt lat="42.0326117" lon="12.3025733"><ele>127.33333333333334</ele><time>2026-04-04T10:22:32.118Z</time></trkpt><trkpt lat="42.0327383" lon="12.3027633"><ele>128.66666666666669</ele><time>2026-04-04T10:22:33.118Z</time></trkpt><trkpt lat="42.032865" lon="12.302945"><ele>130.0</ele><time>2026-04-04T10:22:34.116Z</time></trkpt><trkpt lat="42.0329883" lon="12.3031133"><ele>130.0</ele><time>2026-04-04T10:22:35.118Z</time></trkpt><trkpt lat="42.0331" lon="12.3032617"><ele>130.0</ele><time>2026-04-04T10:22:36.116Z</time></trkpt><trkpt lat="42.0332017" lon="12.303395"><ele>130.0</ele><time>2026-04-04T10:22:37.116Z</time></trkpt><trkpt lat="42.0332933" lon="12.303515"><ele>130.0</ele><time>2026-04-04T10:22:38.115Z</time></trkpt><trkpt lat="42.0333733" lon="12.3036333"><ele>130.0</ele><time>2026-04-04T10:22:39.116Z</time></trkpt><trkpt lat="42.0334467" lon="12.30375"><ele>130.0</ele><time>2026-04-04T10:22:40.115Z</time></trkpt><trkpt lat="42.0335217" lon="12.3038717"><ele>130.0</ele><time>2026-04-04T10:22:41.115Z</time></trkpt><trkpt lat="42.0336033" lon="12.304005"><ele>130.0</ele><time>2026-04-04T10:22:42.117Z</time></trkpt><trkpt lat="42.0336983" lon="12.3041467"><ele>131.0</ele><time>2026-04-04T10:22:43.116Z</time></trkpt><trkpt lat="42.0337867" lon="12.3042917"><ele>132.0</ele><time>2026-04-04T10:22:44.117Z</time></trkpt><trkpt lat="42.0338683" lon="12.3044317"><ele>133.0</ele><time>2026-04-04T10:22:45.114Z</time></trkpt><trkpt lat="42.0339467" lon="12.3045733"><ele>134.0</ele><time>2026-04-04T10:22:46.114Z</time></trkpt><trkpt lat="42.0340233" lon="12.3047183"><ele>134.75</ele><time>2026-04-04T10:22:47.116Z</time></trkpt><trkpt lat="42.0340933" lon="12.30487"><ele>135.5</ele><time>2026-04-04T10:22:48.118Z</time></trkpt><trkpt lat="42.034165" lon="12.30502"><ele>136.25</ele><time>2026-04-04T10:22:49.118Z</time></trkpt><trkpt lat="42.0342333" lon="12.3051633"><ele>137.0</ele><time>2026-04-04T10:22:50.116Z</time></trkpt><trkpt lat="42.0342983" lon="12.3053"><ele>137.0</ele><time>2026-04-04T10:22:51.116Z</time></trkpt><trkpt lat="42.03436" lon="12.30544"><ele>137.0</ele><time>2026-04-04T10:22:52.113Z</time></trkpt><trkpt lat="42.0344267" lon="12.3055917"><ele>137.0</ele><time>2026-04-04T10:22:53.117Z</time></trkpt><trkpt lat="42.0345" lon="12.30575"><ele>137.0</ele><time>2026-04-04T10:22:54.117Z</time></trkpt><trkpt lat="42.03457" lon="12.3059033"><ele>137.25</ele><time>2026-04-04T10:22:55.109Z</time></trkpt><trkpt lat="42.034655" lon="12.30605"><ele>137.5</ele><time>2026-04-04T10:22:56.11Z</time></trkpt><trkpt lat="42.0347367" lon="12.3062017"><ele>137.75</ele><time>2026-04-04T10:22:57.116Z</time></trkpt><trkpt lat="42.0348017" lon="12.306355"><ele>138.0</ele><time>2026-04-04T10:22:58.121Z</time></trkpt><trkpt lat="42.034895" lon="12.306515"><ele>138.66666666666666</ele><time>2026-04-04T10:22:59.114Z</time></trkpt><trkpt lat="42.0349883" lon="12.3066867"><ele>139.33333333333331</ele><time>2026-04-04T10:23:00.119Z</time></trkpt><trkpt lat="42.0350833" lon="12.3068583"><ele>140.0</ele><time>2026-04-04T10:23:01.118Z</time></trkpt><trkpt lat="42.0351683" lon="12.3070217"><ele>140.0</ele><time>2026-04-04T10:23:02.114Z</time></trkpt><trkpt lat="42.0352633" lon="12.3072017"><ele>140.0</ele><time>2026-04-04T10:23:03.115Z</time></trkpt><trkpt lat="42.0353517" lon="12.3073933"><ele>140.0</ele><time>2026-04-04T10:23:04.114Z</time></trkpt><trkpt lat="42.035435" lon="12.30758"><ele>139.33333333333331</ele><time>2026-04-04T10:23:05.109Z</time></trkpt><trkpt lat="42.0355117" lon="12.3077633"><ele>138.66666666666666</ele><time>2026-04-04T10:23:06.12Z</time></trkpt><trkpt lat="42.0355933" lon="12.3079567"><ele>138.0</ele><time>2026-04-04T10:23:07.115Z</time></trkpt><trkpt lat="42.03567" lon="12.3081433"><ele>137.0</ele><time>2026-04-04T10:23:08.114Z</time></trkpt><trkpt lat="42.03574" lon="12.3083183"><ele>136.0</ele><time>2026-04-04T10:23:09.118Z</time></trkpt><trkpt lat="42.0358133" lon="12.3085"><ele>135.0</ele><time>2026-04-04T10:23:10.111Z</time></trkpt><trkpt lat="42.03589" lon="12.3086833"><ele>134.75</ele><time>2026-04-04T10:23:11.119Z</time></trkpt><trkpt lat="42.035955" lon="12.3088683"><ele>134.5</ele><time>2026-04-04T10:23:12.115Z</time></trkpt><trkpt lat="42.036015" lon="12.3090517"><ele>134.25</ele><time>2026-04-04T10:23:13.121Z</time></trkpt><trkpt lat="42.03608" lon="12.309225"><ele>134.0</ele><time>2026-04-04T10:23:14.115Z</time></trkpt><trkpt lat="42.036145" lon="12.3094067"><ele>134.0</ele><time>2026-04-04T10:23:15.118Z</time></trkpt><trkpt lat="42.03621" lon="12.3096"><ele>134.0</ele><time>2026-04-04T10:23:16.119Z</time></trkpt><trkpt lat="42.0362817" lon="12.3097983"><ele>134.0</ele><time>2026-04-04T10:23:17.115Z</time></trkpt><trkpt lat="42.0363467" lon="12.3099883"><ele>133.25</ele><time>2026-04-04T10:23:18.118Z</time></trkpt><trkpt lat="42.0364017" lon="12.3101733"><ele>132.5</ele><time>2026-04-04T10:23:19.117Z</time></trkpt><trkpt lat="42.0364417" lon="12.3103433"><ele>131.75</ele><time>2026-04-04T10:23:20.112Z</time></trkpt><trkpt lat="42.036475" lon="12.3105067"><ele>131.0</ele><time>2026-04-04T10:23:21.119Z</time></trkpt><trkpt lat="42.0364917" lon="12.3106617"><ele>130.6</ele><time>2026-04-04T10:23:22.116Z</time></trkpt><trkpt lat="42.0364933" lon="12.3108033"><ele>130.2</ele><time>2026-04-04T10:23:23.117Z</time></trkpt><trkpt lat="42.0364867" lon="12.3109417"><ele>129.8</ele><time>2026-04-04T10:23:24.117Z</time></trkpt><trkpt lat="42.0364767" lon="12.3110733"><ele>129.4</ele><time>2026-04-04T10:23:25.12Z</time></trkpt><trkpt lat="42.0364683" lon="12.3112083"><ele>129.0</ele><time>2026-04-04T10:23:26.115Z</time></trkpt><trkpt lat="42.0364567" lon="12.3113533"><ele>129.5</ele><time>2026-04-04T10:23:27.116Z</time></trkpt><trkpt lat="42.036445" lon="12.3115067"><ele>130.0</ele><time>2026-04-04T10:23:28.112Z</time></trkpt><trkpt lat="42.0364367" lon="12.3116617"><ele>130.5</ele><time>2026-04-04T10:23:29.116Z</time></trkpt><trkpt lat="42.0364317" lon="12.311825"><ele>131.0</ele><time>2026-04-04T10:23:30.119Z</time></trkpt><trkpt lat="42.0364233" lon="12.3119933"><ele>131.0</ele><time>2026-04-04T10:23:31.113Z</time></trkpt><trkpt lat="42.03641" lon="12.3121733"><ele>131.0</ele><time>2026-04-04T10:23:32.115Z</time></trkpt><trkpt lat="42.0364" lon="12.3123633"><ele>131.0</ele><time>2026-04-04T10:23:33.12Z</time></trkpt><trkpt lat="42.0363883" lon="12.31256"><ele>131.0</ele><time>2026-04-04T10:23:34.115Z</time></trkpt><trkpt lat="42.03637" lon="12.3127483"><ele>131.75</ele><time>2026-04-04T10:23:35.113Z</time></trkpt><trkpt lat="42.0363567" lon="12.3129267"><ele>132.5</ele><time>2026-04-04T10:23:36.114Z</time></trkpt><trkpt lat="42.0363433" lon="12.3131083"><ele>133.25</ele><time>2026-04-04T10:23:37.118Z</time></trkpt><trkpt lat="42.0363317" lon="12.3132967"><ele>134.0</ele><time>2026-04-04T10:23:38.116Z</time></trkpt><trkpt lat="42.0363283" lon="12.31348"><ele>135.25</ele><time>2026-04-04T10:23:39.117Z</time></trkpt><trkpt lat="42.0363383" lon="12.3136717"><ele>136.5</ele><time>2026-04-04T10:23:40.113Z</time></trkpt><trkpt lat="42.036355" lon="12.31386"><ele>137.75</ele><time>2026-04-04T10:23:41.117Z</time></trkpt><trkpt lat="42.0363733" lon="12.3140367"><ele>139.0</ele><time>2026-04-04T10:23:42.113Z</time></trkpt><trkpt lat="42.0363883" lon="12.3142"><ele>139.25</ele><time>2026-04-04T10:23:43.117Z</time></trkpt><trkpt lat="42.0364" lon="12.314365"><ele>139.5</ele><time>2026-04-04T10:23:44.118Z</time></trkpt><trkpt lat="42.0364133" lon="12.3145233"><ele>139.75</ele><time>2026-04-04T10:23:45.119Z</time></trkpt><trkpt lat="42.036425" lon="12.3146867"><ele>140.0</ele><time>2026-04-04T10:23:46.116Z</time></trkpt><trkpt lat="42.03644" lon="12.3148267"><ele>140.16666666666666</ele><time>2026-04-04T10:23:47.114Z</time></trkpt><trkpt lat="42.0364517" lon="12.3149333"><ele>140.33333333333331</ele><time>2026-04-04T10:23:48.114Z</time></trkpt><trkpt lat="42.0364717" lon="12.3150783"><ele>140.5</ele><time>2026-04-04T10:23:50.116Z</time></trkpt><trkpt lat="42.0364883" lon="12.3151667"><ele>140.66666666666666</ele><time>2026-04-04T10:23:51.114Z</time></trkpt><trkpt lat="42.036505" lon="12.3152717"><ele>140.83333333333334</ele><time>2026-04-04T10:23:52.116Z</time></trkpt><trkpt lat="42.0365233" lon="12.3153917"><ele>141.0</ele><time>2026-04-04T10:23:53.118Z</time></trkpt><trkpt lat="42.0365367" lon="12.31553"><ele>141.5</ele><time>2026-04-04T10:23:54.115Z</time></trkpt><trkpt lat="42.0365517" lon="12.3156833"><ele>142.0</ele><time>2026-04-04T10:23:55.119Z</time></trkpt><trkpt lat="42.03657" lon="12.3158483"><ele>142.5</ele><time>2026-04-04T10:23:56.117Z</time></trkpt><trkpt lat="42.0365883" lon="12.3160383"><ele>143.0</ele><time>2026-04-04T10:23:57.117Z</time></trkpt><trkpt lat="42.03661" lon="12.3162417"><ele>143.66666666666666</ele><time>2026-04-04T10:23:58.115Z</time></trkpt><trkpt lat="42.0366283" lon="12.3164367"><ele>144.33333333333334</ele><time>2026-04-04T10:23:59.115Z</time></trkpt><trkpt lat="42.03665" lon="12.3166333"><ele>145.0</ele><time>2026-04-04T10:24:00.117Z</time></trkpt><trkpt lat="42.03667" lon="12.3168417"><ele>145.0</ele><time>2026-04-04T10:24:01.115Z</time></trkpt><trkpt lat="42.0366883" lon="12.3170583"><ele>145.0</ele><time>2026-04-04T10:24:02.12Z</time></trkpt><trkpt lat="42.0367133" lon="12.3172733"><ele>145.0</ele><time>2026-04-04T10:24:03.114Z</time></trkpt><trkpt lat="42.0367483" lon="12.31749"><ele>145.0</ele><time>2026-04-04T10:24:04.117Z</time></trkpt><trkpt lat="42.0367883" lon="12.3177167"><ele>145.0</ele><time>2026-04-04T10:24:05.114Z</time></trkpt><trkpt lat="42.03683" lon="12.3179433"><ele>145.0</ele><time>2026-04-04T10:24:06.116Z</time></trkpt><trkpt lat="42.036875" lon="12.318165"><ele>145.0</ele><time>2026-04-04T10:24:07.119Z</time></trkpt><trkpt lat="42.03692" lon="12.3183883"><ele>145.0</ele><time>2026-04-04T10:24:08.116Z</time></trkpt><trkpt lat="42.03696" lon="12.318615"><ele>145.0</ele><time>2026-04-04T10:24:09.116Z</time></trkpt><trkpt lat="42.0370017" lon="12.3188483"><ele>143.66666666666669</ele><time>2026-04-04T10:24:10.118Z</time></trkpt><trkpt lat="42.0370433" lon="12.31909"><ele>142.33333333333334</ele><time>2026-04-04T10:24:11.115Z</time></trkpt><trkpt lat="42.0370867" lon="12.319335"><ele>141.0</ele><time>2026-04-04T10:24:12.118Z</time></trkpt><trkpt lat="42.0371317" lon="12.3195867"><ele>139.33333333333334</ele><time>2026-04-04T10:24:13.116Z</time></trkpt><trkpt lat="42.037175" lon="12.31985"><ele>137.66666666666669</ele><time>2026-04-04T10:24:14.113Z</time></trkpt><trkpt lat="42.0372133" lon="12.320115"><ele>136.0</ele><time>2026-04-04T10:24:15.118Z</time></trkpt><trkpt lat="42.0372583" lon="12.320365"><ele>135.33333333333334</ele><time>2026-04-04T10:24:16.116Z</time></trkpt><trkpt lat="42.037305" lon="12.3206083"><ele>134.66666666666666</ele><time>2026-04-04T10:24:17.116Z</time></trkpt><trkpt lat="42.0373533" lon="12.3208367"><ele>134.0</ele><time>2026-04-04T10:24:18.115Z</time></trkpt><trkpt lat="42.0374" lon="12.3210633"><ele>134.0</ele><time>2026-04-04T10:24:19.115Z</time></trkpt><trkpt lat="42.037445" lon="12.3212867"><ele>134.0</ele><time>2026-04-04T10:24:20.119Z</time></trkpt><trkpt lat="42.037495" lon="12.32151"><ele>134.0</ele><time>2026-04-04T10:24:21.12Z</time></trkpt><trkpt lat="42.037535" lon="12.321745"><ele>134.0</ele><time>2026-04-04T10:24:22.118Z</time></trkpt><trkpt lat="42.037565" lon="12.3219817"><ele>134.0</ele><time>2026-04-04T10:24:23.113Z</time></trkpt><trkpt lat="42.0375767" lon="12.32221"><ele>134.0</ele><time>2026-04-04T10:24:24.115Z</time></trkpt><trkpt lat="42.037565" lon="12.3224567"><ele>134.33333333333331</ele><time>2026-04-04T10:24:25.114Z</time></trkpt><trkpt lat="42.0375433" lon="12.32271"><ele>134.66666666666666</ele><time>2026-04-04T10:24:26.116Z</time></trkpt><trkpt lat="42.0375167" lon="12.3229717"><ele>135.0</ele><time>2026-04-04T10:24:27.117Z</time></trkpt><trkpt lat="42.0374867" lon="12.32323"><ele>134.0</ele><time>2026-04-04T10:24:28.118Z</time></trkpt><trkpt lat="42.0374533" lon="12.3234733"><ele>133.0</ele><time>2026-04-04T10:24:29.114Z</time></trkpt><trkpt lat="42.0374233" lon="12.323705"><ele>132.0</ele><time>2026-04-04T10:24:30.116Z</time></trkpt><trkpt lat="42.0373933" lon="12.3239317"><ele>132.0</ele><time>2026-04-04T10:24:31.113Z</time></trkpt><trkpt lat="42.037355" lon="12.3241617"><ele>132.0</ele><time>2026-04-04T10:24:32.115Z</time></trkpt><trkpt lat="42.0373183" lon="12.3243967"><ele>132.0</ele><time>2026-04-04T10:24:33.115Z</time></trkpt><trkpt lat="42.0372717" lon="12.3246433"><ele>133.33333333333334</ele><time>2026-04-04T10:24:34.113Z</time></trkpt><trkpt lat="42.037215" lon="12.324895"><ele>134.66666666666669</ele><time>2026-04-04T10:24:35.114Z</time></trkpt><trkpt lat="42.037155" lon="12.3251383"><ele>136.0</ele><time>2026-04-04T10:24:36.117Z</time></trkpt><trkpt lat="42.03709" lon="12.3253767"><ele>137.0</ele><time>2026-04-04T10:24:37.115Z</time></trkpt><trkpt lat="42.037025" lon="12.32561"><ele>138.0</ele><time>2026-04-04T10:24:38.116Z</time></trkpt><trkpt lat="42.036965" lon="12.3258433"><ele>139.0</ele><time>2026-04-04T10:24:39.118Z</time></trkpt><trkpt lat="42.0369" lon="12.3260783"><ele>139.0</ele><time>2026-04-04T10:24:40.113Z</time></trkpt><trkpt lat="42.036835" lon="12.3263133"><ele>139.0</ele><time>2026-04-04T10:24:41.109Z</time></trkpt><trkpt lat="42.0367733" lon="12.32655"><ele>139.0</ele><time>2026-04-04T10:24:42.112Z</time></trkpt><trkpt lat="42.0367217" lon="12.32678"><ele>139.0</ele><time>2026-04-04T10:24:43.119Z</time></trkpt><trkpt lat="42.0366783" lon="12.3269967"><ele>139.0</ele><time>2026-04-04T10:24:44.115Z</time></trkpt><trkpt lat="42.0366433" lon="12.32719"><ele>139.0</ele><time>2026-04-04T10:24:45.109Z</time></trkpt><trkpt lat="42.0366183" lon="12.3273817"><ele>138.75</ele><time>2026-04-04T10:24:46.119Z</time></trkpt><trkpt lat="42.03661" lon="12.3275717"><ele>138.5</ele><time>2026-04-04T10:24:47.11Z</time></trkpt><trkpt lat="42.0366233" lon="12.327765"><ele>138.25</ele><time>2026-04-04T10:24:48.115Z</time></trkpt><trkpt lat="42.03666" lon="12.3279533"><ele>138.0</ele><time>2026-04-04T10:24:49.116Z</time></trkpt><trkpt lat="42.036715" lon="12.3281533"><ele>137.0</ele><time>2026-04-04T10:24:50.117Z</time></trkpt><trkpt lat="42.0367783" lon="12.328365"><ele>136.0</ele><time>2026-04-04T10:24:51.117Z</time></trkpt><trkpt lat="42.0368483" lon="12.32858"><ele>135.0</ele><time>2026-04-04T10:24:52.115Z</time></trkpt><trkpt lat="42.0369183" lon="12.3287833"><ele>134.66666666666666</ele><time>2026-04-04T10:24:53.115Z</time></trkpt><trkpt lat="42.0369883" lon="12.3289783"><ele>134.33333333333331</ele><time>2026-04-04T10:24:54.117Z</time></trkpt><trkpt lat="42.0370633" lon="12.3291717"><ele>134.0</ele><time>2026-04-04T10:24:55.117Z</time></trkpt><trkpt lat="42.0371367" lon="12.32936"><ele>134.0</ele><time>2026-04-04T10:24:56.114Z</time></trkpt><trkpt lat="42.0371967" lon="12.329545"><ele>134.0</ele><time>2026-04-04T10:24:57.113Z</time></trkpt><trkpt lat="42.0372483" lon="12.3297433"><ele>134.0</ele><time>2026-04-04T10:24:58.117Z</time></trkpt><trkpt lat="42.0372883" lon="12.3299483"><ele>133.66666666666666</ele><time>2026-04-04T10:24:59.117Z</time></trkpt><trkpt lat="42.03731" lon="12.3301633"><ele>133.33333333333334</ele><time>2026-04-04T10:25:00.115Z</time></trkpt><trkpt lat="42.0373083" lon="12.3303867"><ele>133.0</ele><time>2026-04-04T10:25:01.118Z</time></trkpt><trkpt lat="42.0372917" lon="12.3306183"><ele>132.33333333333334</ele><time>2026-04-04T10:25:02.114Z</time></trkpt><trkpt lat="42.03726" lon="12.3308467"><ele>131.66666666666666</ele><time>2026-04-04T10:25:03.117Z</time></trkpt><trkpt lat="42.03721" lon="12.3310683"><ele>131.0</ele><time>2026-04-04T10:25:04.114Z</time></trkpt><trkpt lat="42.0371417" lon="12.3312733"><ele>129.33333333333331</ele><time>2026-04-04T10:25:05.116Z</time></trkpt><trkpt lat="42.0370567" lon="12.331475"><ele>127.66666666666666</ele><time>2026-04-04T10:25:06.116Z</time></trkpt><trkpt lat="42.03696" lon="12.33167"><ele>126.0</ele><time>2026-04-04T10:25:07.115Z</time></trkpt><trkpt lat="42.0368617" lon="12.331865"><ele>126.0</ele><time>2026-04-04T10:25:08.111Z</time></trkpt><trkpt lat="42.0367617" lon="12.3320633"><ele>126.0</ele><time>2026-04-04T10:25:09.117Z</time></trkpt><trkpt lat="42.0366517" lon="12.3322567"><ele>126.0</ele><time>2026-04-04T10:25:10.114Z</time></trkpt><trkpt lat="42.03653" lon="12.3324533"><ele>124.33333333333334</ele><time>2026-04-04T10:25:11.113Z</time></trkpt><trkpt lat="42.036395" lon="12.332645"><ele>122.66666666666667</ele><time>2026-04-04T10:25:12.115Z</time></trkpt><trkpt lat="42.0362533" lon="12.33283"><ele>121.0</ele><time>2026-04-04T10:25:13.112Z</time></trkpt><trkpt lat="42.0361167" lon="12.3330083"><ele>120.0</ele><time>2026-04-04T10:25:14.116Z</time></trkpt><trkpt lat="42.0359883" lon="12.333165"><ele>119.0</ele><time>2026-04-04T10:25:15.115Z</time></trkpt><trkpt lat="42.0358567" lon="12.3333217"><ele>118.0</ele><time>2026-04-04T10:25:16.116Z</time></trkpt><trkpt lat="42.035735" lon="12.3334767"><ele>118.0</ele><time>2026-04-04T10:25:17.115Z</time></trkpt><trkpt lat="42.0356267" lon="12.3336167"><ele>118.0</ele><time>2026-04-04T10:25:18.117Z</time></trkpt><trkpt lat="42.03553" lon="12.3337517"><ele>118.0</ele><time>2026-04-04T10:25:19.114Z</time></trkpt><trkpt lat="42.0354533" lon="12.3338917"><ele>118.0</ele><time>2026-04-04T10:25:20.115Z</time></trkpt><trkpt lat="42.0353967" lon="12.334045"><ele>118.5</ele><time>2026-04-04T10:25:21.118Z</time></trkpt><trkpt lat="42.035355" lon="12.334215"><ele>119.0</ele><time>2026-04-04T10:25:22.114Z</time></trkpt><trkpt lat="42.035325" lon="12.3344"><ele>119.5</ele><time>2026-04-04T10:25:23.115Z</time></trkpt><trkpt lat="42.0353183" lon="12.33461"><ele>120.0</ele><time>2026-04-04T10:25:24.114Z</time></trkpt><trkpt lat="42.035325" lon="12.3348367"><ele>121.33333333333334</ele><time>2026-04-04T10:25:25.114Z</time></trkpt><trkpt lat="42.0353317" lon="12.33506"><ele>122.66666666666667</ele><time>2026-04-04T10:25:26.117Z</time></trkpt><trkpt lat="42.03534" lon="12.3352867"><ele>124.0</ele><time>2026-04-04T10:25:27.115Z</time></trkpt><trkpt lat="42.03535" lon="12.3355217"><ele>126.0</ele><time>2026-04-04T10:25:28.115Z</time></trkpt><trkpt lat="42.0353683" lon="12.3357667"><ele>128.0</ele><time>2026-04-04T10:25:29.114Z</time></trkpt><trkpt lat="42.0353883" lon="12.3360117"><ele>130.0</ele><time>2026-04-04T10:25:30.117Z</time></trkpt><trkpt lat="42.0354083" lon="12.33626"><ele>130.66666666666669</ele><time>2026-04-04T10:25:31.118Z</time></trkpt><trkpt lat="42.0354383" lon="12.3364983"><ele>131.33333333333334</ele><time>2026-04-04T10:25:32.115Z</time></trkpt><trkpt lat="42.035455" lon="12.3367367"><ele>132.0</ele><time>2026-04-04T10:25:33.116Z</time></trkpt><trkpt lat="42.0354583" lon="12.336965"><ele>132.0</ele><time>2026-04-04T10:25:34.116Z</time></trkpt><trkpt lat="42.0354667" lon="12.3371817"><ele>132.0</ele><time>2026-04-04T10:25:35.114Z</time></trkpt><trkpt lat="42.03547" lon="12.33738"><ele>132.0</ele><time>2026-04-04T10:25:36.118Z</time></trkpt><trkpt lat="42.0354633" lon="12.33756"><ele>132.0</ele><time>2026-04-04T10:25:37.114Z</time></trkpt><trkpt lat="42.0354383" lon="12.3377283"><ele>130.75</ele><time>2026-04-04T10:25:38.116Z</time></trkpt><trkpt lat="42.035385" lon="12.3378883"><ele>129.5</ele><time>2026-04-04T10:25:39.118Z</time></trkpt><trkpt lat="42.0353033" lon="12.33804"><ele>128.25</ele><time>2026-04-04T10:25:40.115Z</time></trkpt><trkpt lat="42.0351967" lon="12.3381633"><ele>127.0</ele><time>2026-04-04T10:25:41.115Z</time></trkpt><trkpt lat="42.0350767" lon="12.3382633"><ele>126.0</ele><time>2026-04-04T10:25:42.115Z</time></trkpt><trkpt lat="42.0349517" lon="12.3383533"><ele>125.0</ele><time>2026-04-04T10:25:43.119Z</time></trkpt><trkpt lat="42.034815" lon="12.3384467"><ele>124.0</ele><time>2026-04-04T10:25:44.115Z</time></trkpt><trkpt lat="42.0346717" lon="12.3385533"><ele>124.0</ele><time>2026-04-04T10:25:45.117Z</time></trkpt><trkpt lat="42.0345233" lon="12.3386633"><ele>124.0</ele><time>2026-04-04T10:25:46.113Z</time></trkpt><trkpt lat="42.03437" lon="12.3387617"><ele>124.0</ele><time>2026-04-04T10:25:47.114Z</time></trkpt><trkpt lat="42.034205" lon="12.3388633"><ele>125.33333333333334</ele><time>2026-04-04T10:25:48.117Z</time></trkpt><trkpt lat="42.0340433" lon="12.33897"><ele>126.66666666666666</ele><time>2026-04-04T10:25:49.119Z</time></trkpt><trkpt lat="42.0338883" lon="12.3390883"><ele>128.0</ele><time>2026-04-04T10:25:50.117Z</time></trkpt><trkpt lat="42.0337567" lon="12.3392233"><ele>128.0</ele><time>2026-04-04T10:25:51.115Z</time></trkpt><trkpt lat="42.0336217" lon="12.33937"><ele>128.0</ele><time>2026-04-04T10:25:52.117Z</time></trkpt><trkpt lat="42.03349" lon="12.3395383"><ele>128.0</ele><time>2026-04-04T10:25:53.114Z</time></trkpt><trkpt lat="42.033365" lon="12.3397317"><ele>127.66666666666666</ele><time>2026-04-04T10:25:54.114Z</time></trkpt><trkpt lat="42.03325" lon="12.339935"><ele>127.33333333333334</ele><time>2026-04-04T10:25:55.116Z</time></trkpt><trkpt lat="42.0331383" lon="12.3401383"><ele>127.0</ele><time>2026-04-04T10:25:56.117Z</time></trkpt><trkpt lat="42.0330333" lon="12.3403283"><ele>127.0</ele><time>2026-04-04T10:25:57.117Z</time></trkpt><trkpt lat="42.0329333" lon="12.3405117"><ele>127.0</ele><time>2026-04-04T10:25:58.115Z</time></trkpt><trkpt lat="42.03284" lon="12.3406817"><ele>127.0</ele><time>2026-04-04T10:25:59.115Z</time></trkpt><trkpt lat="42.0327367" lon="12.3408333"><ele>126.66666666666667</ele><time>2026-04-04T10:26:00.114Z</time></trkpt><trkpt lat="42.03261" lon="12.3409833"><ele>126.33333333333334</ele><time>2026-04-04T10:26:01.113Z</time></trkpt><trkpt lat="42.03247" lon="12.34112"><ele>126.0</ele><time>2026-04-04T10:26:02.112Z</time></trkpt><trkpt lat="42.0323167" lon="12.341245"><ele>126.0</ele><time>2026-04-04T10:26:03.115Z</time></trkpt><trkpt lat="42.0321567" lon="12.341365"><ele>126.0</ele><time>2026-04-04T10:26:04.113Z</time></trkpt><trkpt lat="42.0319867" lon="12.3414733"><ele>126.0</ele><time>2026-04-04T10:26:05.115Z</time></trkpt><trkpt lat="42.0318067" lon="12.3415683"><ele>126.66666666666666</ele><time>2026-04-04T10:26:06.115Z</time></trkpt><trkpt lat="42.03162" lon="12.34165"><ele>127.33333333333333</ele><time>2026-04-04T10:26:07.116Z</time></trkpt><trkpt lat="42.0314383" lon="12.3417217"><ele>128.0</ele><time>2026-04-04T10:26:08.115Z</time></trkpt><trkpt lat="42.031265" lon="12.3417933"><ele>128.0</ele><time>2026-04-04T10:26:09.114Z</time></trkpt><trkpt lat="42.0311" lon="12.3418783"><ele>128.0</ele><time>2026-04-04T10:26:10.117Z</time></trkpt><trkpt lat="42.030935" lon="12.341985"><ele>128.0</ele><time>2026-04-04T10:26:11.114Z</time></trkpt><trkpt lat="42.0307717" lon="12.342105"><ele>129.0</ele><time>2026-04-04T10:26:12.115Z</time></trkpt><trkpt lat="42.03061" lon="12.3422367"><ele>130.0</ele><time>2026-04-04T10:26:13.114Z</time></trkpt><trkpt lat="42.0304633" lon="12.342365"><ele>131.0</ele><time>2026-04-04T10:26:14.114Z</time></trkpt><trkpt lat="42.0303117" lon="12.3425017"><ele>131.0</ele><time>2026-04-04T10:26:15.117Z</time></trkpt><trkpt lat="42.0301533" lon="12.3426217"><ele>131.0</ele><time>2026-04-04T10:26:16.117Z</time></trkpt><trkpt lat="42.0299867" lon="12.342725"><ele>131.0</ele><time>2026-04-04T10:26:17.114Z</time></trkpt><trkpt lat="42.0298133" lon="12.3428067"><ele>132.0</ele><time>2026-04-04T10:26:18.114Z</time></trkpt><trkpt lat="42.029635" lon="12.342865"><ele>133.0</ele><time>2026-04-04T10:26:19.114Z</time></trkpt><trkpt lat="42.0294517" lon="12.342905"><ele>134.0</ele><time>2026-04-04T10:26:20.116Z</time></trkpt><trkpt lat="42.0292617" lon="12.3429183"><ele>135.33333333333331</ele><time>2026-04-04T10:26:21.117Z</time></trkpt><trkpt lat="42.0290767" lon="12.3429067"><ele>136.66666666666666</ele><time>2026-04-04T10:26:22.114Z</time></trkpt><trkpt lat="42.0288917" lon="12.34288"><ele>138.0</ele><time>2026-04-04T10:26:23.115Z</time></trkpt><trkpt lat="42.0287117" lon="12.3428467"><ele>138.0</ele><time>2026-04-04T10:26:24.116Z</time></trkpt><trkpt lat="42.028535" lon="12.3428217"><ele>138.0</ele><time>2026-04-04T10:26:25.115Z</time></trkpt><trkpt lat="42.028375" lon="12.3428"><ele>138.0</ele><time>2026-04-04T10:26:26.117Z</time></trkpt><trkpt lat="42.0282067" lon="12.3427917"><ele>137.0</ele><time>2026-04-04T10:26:27.118Z</time></trkpt><trkpt lat="42.02803" lon="12.3427983"><ele>136.0</ele><time>2026-04-04T10:26:28.113Z</time></trkpt><trkpt lat="42.0278517" lon="12.342825"><ele>135.0</ele><time>2026-04-04T10:26:29.114Z</time></trkpt><trkpt lat="42.0276633" lon="12.3428617"><ele>134.33333333333334</ele><time>2026-04-04T10:26:30.116Z</time></trkpt><trkpt lat="42.0274717" lon="12.342905"><ele>133.66666666666669</ele><time>2026-04-04T10:26:31.115Z</time></trkpt><trkpt lat="42.0272733" lon="12.3429617"><ele>133.0</ele><time>2026-04-04T10:26:32.112Z</time></trkpt><trkpt lat="42.027075" lon="12.3430233"><ele>135.0</ele><time>2026-04-04T10:26:33.117Z</time></trkpt><trkpt lat="42.0268733" lon="12.3430917"><ele>137.0</ele><time>2026-04-04T10:26:34.11Z</time></trkpt><trkpt lat="42.0266717" lon="12.3431633"><ele>139.0</ele><time>2026-04-04T10:26:35.114Z</time></trkpt><trkpt lat="42.026475" lon="12.3432283"><ele>139.33333333333334</ele><time>2026-04-04T10:26:36.117Z</time></trkpt><trkpt lat="42.02628" lon="12.3433"><ele>139.66666666666666</ele><time>2026-04-04T10:26:37.118Z</time></trkpt><trkpt lat="42.02609" lon="12.3433683"><ele>140.0</ele><time>2026-04-04T10:26:38.115Z</time></trkpt><trkpt lat="42.0259033" lon="12.34343"><ele>139.66666666666666</ele><time>2026-04-04T10:26:39.113Z</time></trkpt><trkpt lat="42.025715" lon="12.3434967"><ele>139.33333333333334</ele><time>2026-04-04T10:26:40.114Z</time></trkpt><trkpt lat="42.025545" lon="12.34356"><ele>139.0</ele><time>2026-04-04T10:26:41.113Z</time></trkpt><trkpt lat="42.0253833" lon="12.34362"><ele>139.0</ele><time>2026-04-04T10:26:42.115Z</time></trkpt><trkpt lat="42.02522" lon="12.34368"><ele>139.0</ele><time>2026-04-04T10:26:43.12Z</time></trkpt><trkpt lat="42.025045" lon="12.343755"><ele>139.0</ele><time>2026-04-04T10:26:44.113Z</time></trkpt><trkpt lat="42.02486" lon="12.3438433"><ele>140.33333333333334</ele><time>2026-04-04T10:26:45.113Z</time></trkpt><trkpt lat="42.0246767" lon="12.3439217"><ele>141.66666666666666</ele><time>2026-04-04T10:26:46.114Z</time></trkpt><trkpt lat="42.0245067" lon="12.34399"><ele>143.0</ele><time>2026-04-04T10:26:47.117Z</time></trkpt><trkpt lat="42.024345" lon="12.3440583"><ele>143.0</ele><time>2026-04-04T10:26:48.114Z</time></trkpt><trkpt lat="42.02418" lon="12.3441367"><ele>143.0</ele><time>2026-04-04T10:26:49.117Z</time></trkpt><trkpt lat="42.02402" lon="12.3442067"><ele>143.0</ele><time>2026-04-04T10:26:50.117Z</time></trkpt><trkpt lat="42.0238767" lon="12.34428"><ele>142.66666666666666</ele><time>2026-04-04T10:26:51.115Z</time></trkpt><trkpt lat="42.0237383" lon="12.344355"><ele>142.33333333333334</ele><time>2026-04-04T10:26:52.107Z</time></trkpt><trkpt lat="42.0236017" lon="12.3444367"><ele>142.0</ele><time>2026-04-04T10:26:53.114Z</time></trkpt><trkpt lat="42.0234683" lon="12.3445317"><ele>142.0</ele><time>2026-04-04T10:26:54.114Z</time></trkpt><trkpt lat="42.023345" lon="12.3446583"><ele>142.0</ele><time>2026-04-04T10:26:55.114Z</time></trkpt><trkpt lat="42.0232267" lon="12.344815"><ele>142.0</ele><time>2026-04-04T10:26:56.11Z</time></trkpt><trkpt lat="42.0231133" lon="12.3449883"><ele>140.66666666666669</ele><time>2026-04-04T10:26:57.116Z</time></trkpt><trkpt lat="42.0230067" lon="12.3451683"><ele>139.33333333333334</ele><time>2026-04-04T10:26:58.117Z</time></trkpt><trkpt lat="42.0228983" lon="12.34536"><ele>138.0</ele><time>2026-04-04T10:26:59.115Z</time></trkpt><trkpt lat="42.02279" lon="12.3455617"><ele>137.66666666666666</ele><time>2026-04-04T10:27:00.113Z</time></trkpt><trkpt lat="42.0226867" lon="12.345775"><ele>137.33333333333331</ele><time>2026-04-04T10:27:01.119Z</time></trkpt><trkpt lat="42.0225867" lon="12.3459967"><ele>137.0</ele><time>2026-04-04T10:27:02.11Z</time></trkpt><trkpt lat="42.0224833" lon="12.34622"><ele>136.33333333333331</ele><time>2026-04-04T10:27:03.118Z</time></trkpt><trkpt lat="42.022385" lon="12.3464417"><ele>135.66666666666666</ele><time>2026-04-04T10:27:04.115Z</time></trkpt><trkpt lat="42.0222817" lon="12.34667"><ele>135.0</ele><time>2026-04-04T10:27:05.116Z</time></trkpt><trkpt lat="42.0221733" lon="12.346895"><ele>135.0</ele><time>2026-04-04T10:27:06.115Z</time></trkpt><trkpt lat="42.02207" lon="12.34711"><ele>135.0</ele><time>2026-04-04T10:27:07.119Z</time></trkpt><trkpt lat="42.021975" lon="12.3473183"><ele>135.0</ele><time>2026-04-04T10:27:08.117Z</time></trkpt><trkpt lat="42.021885" lon="12.3475367"><ele>134.33333333333334</ele><time>2026-04-04T10:27:09.118Z</time></trkpt><trkpt lat="42.0217933" lon="12.34775"><ele>133.66666666666669</ele><time>2026-04-04T10:27:10.117Z</time></trkpt><trkpt lat="42.0217083" lon="12.3479717"><ele>133.0</ele><time>2026-04-04T10:27:11.112Z</time></trkpt><trkpt lat="42.021625" lon="12.3481933"><ele>133.0</ele><time>2026-04-04T10:27:12.115Z</time></trkpt><trkpt lat="42.0215483" lon="12.3484067"><ele>133.0</ele><time>2026-04-04T10:27:13.114Z</time></trkpt><trkpt lat="42.0214717" lon="12.34862"><ele>133.0</ele><time>2026-04-04T10:27:14.114Z</time></trkpt><trkpt lat="42.02138" lon="12.34883"><ele>132.0</ele><time>2026-04-04T10:27:15.118Z</time></trkpt><trkpt lat="42.0212717" lon="12.3490367"><ele>131.0</ele><time>2026-04-04T10:27:16.115Z</time></trkpt><trkpt lat="42.02115" lon="12.3492383"><ele>130.0</ele><time>2026-04-04T10:27:17.117Z</time></trkpt><trkpt lat="42.021015" lon="12.3494333"><ele>130.0</ele><time>2026-04-04T10:27:18.116Z</time></trkpt><trkpt lat="42.0208717" lon="12.3496133"><ele>130.0</ele><time>2026-04-04T10:27:19.111Z</time></trkpt><trkpt lat="42.02072" lon="12.349775"><ele>130.0</ele><time>2026-04-04T10:27:20.117Z</time></trkpt><trkpt lat="42.0205717" lon="12.3499167"><ele>130.0</ele><time>2026-04-04T10:27:21.11Z</time></trkpt><trkpt lat="42.0204117" lon="12.3500417"><ele>130.0</ele><time>2026-04-04T10:27:22.113Z</time></trkpt><trkpt lat="42.0202467" lon="12.350145"><ele>130.0</ele><time>2026-04-04T10:27:23.112Z</time></trkpt><trkpt lat="42.02008" lon="12.3502383"><ele>129.66666666666669</ele><time>2026-04-04T10:27:24.114Z</time></trkpt><trkpt lat="42.0199117" lon="12.3503167"><ele>129.33333333333334</ele><time>2026-04-04T10:27:25.117Z</time></trkpt><trkpt lat="42.01975" lon="12.350385"><ele>129.0</ele><time>2026-04-04T10:27:26.112Z</time></trkpt><trkpt lat="42.0195983" lon="12.35045"><ele>129.0</ele><time>2026-04-04T10:27:27.115Z</time></trkpt><trkpt lat="42.0194433" lon="12.350525"><ele>129.0</ele><time>2026-04-04T10:27:28.115Z</time></trkpt><trkpt lat="42.01929" lon="12.3506033"><ele>129.0</ele><time>2026-04-04T10:27:29.115Z</time></trkpt><trkpt lat="42.0191467" lon="12.350695"><ele>128.66666666666666</ele><time>2026-04-04T10:27:30.112Z</time></trkpt><trkpt lat="42.0190167" lon="12.3508117"><ele>128.33333333333331</ele><time>2026-04-04T10:27:31.114Z</time></trkpt><trkpt lat="42.0189" lon="12.3509533"><ele>128.0</ele><time>2026-04-04T10:27:32.119Z</time></trkpt><trkpt lat="42.0187983" lon="12.3511117"><ele>128.0</ele><time>2026-04-04T10:27:33.117Z</time></trkpt><trkpt lat="42.0187067" lon="12.3512883"><ele>128.0</ele><time>2026-04-04T10:27:34.12Z</time></trkpt><trkpt lat="42.0186217" lon="12.351465"><ele>128.0</ele><time>2026-04-04T10:27:35.116Z</time></trkpt><trkpt lat="42.0185417" lon="12.3516567"><ele>129.0</ele><time>2026-04-04T10:27:36.118Z</time></trkpt><trkpt lat="42.0184767" lon="12.3518633"><ele>130.0</ele><time>2026-04-04T10:27:37.117Z</time></trkpt><trkpt lat="42.01842" lon="12.352075"><ele>131.0</ele><time>2026-04-04T10:27:38.116Z</time></trkpt><trkpt lat="42.0183683" lon="12.352295"><ele>130.66666666666666</ele><time>2026-04-04T10:27:39.117Z</time></trkpt><trkpt lat="42.01833" lon="12.3525233"><ele>130.33333333333334</ele><time>2026-04-04T10:27:40.115Z</time></trkpt><trkpt lat="42.0182983" lon="12.3527467"><ele>130.0</ele><time>2026-04-04T10:27:41.115Z</time></trkpt><trkpt lat="42.0182717" lon="12.3529617"><ele>132.0</ele><time>2026-04-04T10:27:42.112Z</time></trkpt><trkpt lat="42.0182567" lon="12.3531783"><ele>134.0</ele><time>2026-04-04T10:27:43.107Z</time></trkpt><trkpt lat="42.0182483" lon="12.353385"><ele>136.0</ele><time>2026-04-04T10:27:44.115Z</time></trkpt><trkpt lat="42.01823" lon="12.3536017"><ele>136.0</ele><time>2026-04-04T10:27:45.11Z</time></trkpt><trkpt lat="42.018205" lon="12.35381"><ele>136.0</ele><time>2026-04-04T10:27:46.117Z</time></trkpt><trkpt lat="42.0181733" lon="12.3540083"><ele>136.0</ele><time>2026-04-04T10:27:47.119Z</time></trkpt><trkpt lat="42.01812" lon="12.3542083"><ele>136.0</ele><time>2026-04-04T10:27:48.117Z</time></trkpt><trkpt lat="42.0180617" lon="12.3544117"><ele>136.0</ele><time>2026-04-04T10:27:49.117Z</time></trkpt><trkpt lat="42.01799" lon="12.35462"><ele>136.0</ele><time>2026-04-04T10:27:50.117Z</time></trkpt><trkpt lat="42.0179133" lon="12.3548267"><ele>135.33333333333334</ele><time>2026-04-04T10:27:51.117Z</time></trkpt><trkpt lat="42.0178367" lon="12.3550367"><ele>134.66666666666666</ele><time>2026-04-04T10:27:52.113Z</time></trkpt><trkpt lat="42.017765" lon="12.3552617"><ele>134.0</ele><time>2026-04-04T10:27:53.115Z</time></trkpt><trkpt lat="42.0177017" lon="12.3554883"><ele>135.0</ele><time>2026-04-04T10:27:54.121Z</time></trkpt><trkpt lat="42.0176517" lon="12.3557183"><ele>136.0</ele><time>2026-04-04T10:27:55.116Z</time></trkpt><trkpt lat="42.0176133" lon="12.3559517"><ele>137.0</ele><time>2026-04-04T10:27:56.117Z</time></trkpt><trkpt lat="42.0175917" lon="12.3561867"><ele>138.33333333333331</ele><time>2026-04-04T10:27:57.117Z</time></trkpt><trkpt lat="42.0175867" lon="12.3564183"><ele>139.66666666666666</ele><time>2026-04-04T10:27:58.115Z</time></trkpt><trkpt lat="42.0175983" lon="12.3566467"><ele>141.0</ele><time>2026-04-04T10:27:59.114Z</time></trkpt><trkpt lat="42.01762" lon="12.3568617"><ele>141.0</ele><time>2026-04-04T10:28:00.114Z</time></trkpt><trkpt lat="42.0176517" lon="12.3570683"><ele>141.0</ele><time>2026-04-04T10:28:01.113Z</time></trkpt><trkpt lat="42.0176967" lon="12.3572617"><ele>141.0</ele><time>2026-04-04T10:28:02.111Z</time></trkpt><trkpt lat="42.0177417" lon="12.357455"><ele>141.33333333333334</ele><time>2026-04-04T10:28:03.117Z</time></trkpt><trkpt lat="42.0177833" lon="12.3576483"><ele>141.66666666666669</ele><time>2026-04-04T10:28:04.117Z</time></trkpt><trkpt lat="42.0178117" lon="12.3578483"><ele>142.0</ele><time>2026-04-04T10:28:05.114Z</time></trkpt><trkpt lat="42.0178183" lon="12.3580533"><ele>142.66666666666669</ele><time>2026-04-04T10:28:06.113Z</time></trkpt><trkpt lat="42.017805" lon="12.3582483"><ele>143.33333333333334</ele><time>2026-04-04T10:28:07.112Z</time></trkpt><trkpt lat="42.0177733" lon="12.3584517"><ele>144.0</ele><time>2026-04-04T10:28:08.115Z</time></trkpt><trkpt lat="42.0177283" lon="12.3586533"><ele>144.0</ele><time>2026-04-04T10:28:09.118Z</time></trkpt><trkpt lat="42.0176683" lon="12.3588517"><ele>144.0</ele><time>2026-04-04T10:28:10.114Z</time></trkpt><trkpt lat="42.0176" lon="12.3590533"><ele>144.0</ele><time>2026-04-04T10:28:11.113Z</time></trkpt><trkpt lat="42.017525" lon="12.3592533"><ele>146.0</ele><time>2026-04-04T10:28:12.113Z</time></trkpt><trkpt lat="42.017445" lon="12.3594617"><ele>148.0</ele><time>2026-04-04T10:28:13.118Z</time></trkpt><trkpt lat="42.0173617" lon="12.359675"><ele>150.0</ele><time>2026-04-04T10:28:14.113Z</time></trkpt><trkpt lat="42.0172783" lon="12.3598833"><ele>150.0</ele><time>2026-04-04T10:28:15.118Z</time></trkpt><trkpt lat="42.0171967" lon="12.3600883"><ele>150.0</ele><time>2026-04-04T10:28:16.116Z</time></trkpt><trkpt lat="42.0170983" lon="12.3602817"><ele>150.0</ele><time>2026-04-04T10:28:17.116Z</time></trkpt><trkpt lat="42.0169833" lon="12.36048"><ele>149.0</ele><time>2026-04-04T10:28:18.116Z</time></trkpt><trkpt lat="42.01685" lon="12.3606683"><ele>148.0</ele><time>2026-04-04T10:28:19.117Z</time></trkpt><trkpt lat="42.0167" lon="12.3608383"><ele>147.0</ele><time>2026-04-04T10:28:20.119Z</time></trkpt><trkpt lat="42.016545" lon="12.3610017"><ele>146.66666666666666</ele><time>2026-04-04T10:28:21.12Z</time></trkpt><trkpt lat="42.01639" lon="12.3611533"><ele>146.33333333333331</ele><time>2026-04-04T10:28:22.115Z</time></trkpt><trkpt lat="42.016235" lon="12.361295"><ele>146.0</ele><time>2026-04-04T10:28:23.117Z</time></trkpt><trkpt lat="42.0160767" lon="12.3614317"><ele>144.33333333333331</ele><time>2026-04-04T10:28:24.113Z</time></trkpt><trkpt lat="42.0159133" lon="12.36157"><ele>142.66666666666666</ele><time>2026-04-04T10:28:25.115Z</time></trkpt><trkpt lat="42.0157483" lon="12.3617033"><ele>141.0</ele><time>2026-04-04T10:28:26.115Z</time></trkpt><trkpt lat="42.015585" lon="12.361845"><ele>140.66666666666666</ele><time>2026-04-04T10:28:27.119Z</time></trkpt><trkpt lat="42.0154317" lon="12.3619967"><ele>140.33333333333331</ele><time>2026-04-04T10:28:28.119Z</time></trkpt><trkpt lat="42.0152833" lon="12.3621533"><ele>140.0</ele><time>2026-04-04T10:28:29.111Z</time></trkpt><trkpt lat="42.0151367" lon="12.3623233"><ele>140.0</ele><time>2026-04-04T10:28:30.114Z</time></trkpt><trkpt lat="42.0149983" lon="12.3625117"><ele>140.0</ele><time>2026-04-04T10:28:31.115Z</time></trkpt><trkpt lat="42.01486" lon="12.3627183"><ele>140.0</ele><time>2026-04-04T10:28:32.115Z</time></trkpt><trkpt lat="42.0147267" lon="12.362925"><ele>140.66666666666666</ele><time>2026-04-04T10:28:33.118Z</time></trkpt><trkpt lat="42.0146033" lon="12.3631233"><ele>141.33333333333334</ele><time>2026-04-04T10:28:34.115Z</time></trkpt><trkpt lat="42.0144733" lon="12.3633183"><ele>142.0</ele><time>2026-04-04T10:28:35.116Z</time></trkpt><trkpt lat="42.0143383" lon="12.363515"><ele>142.0</ele><time>2026-04-04T10:28:36.116Z</time></trkpt><trkpt lat="42.014195" lon="12.3637017"><ele>142.0</ele><time>2026-04-04T10:28:37.114Z</time></trkpt><trkpt lat="42.0140333" lon="12.36388"><ele>142.0</ele><time>2026-04-04T10:28:38.111Z</time></trkpt><trkpt lat="42.01386" lon="12.3640483"><ele>143.33333333333334</ele><time>2026-04-04T10:28:39.117Z</time></trkpt><trkpt lat="42.013685" lon="12.3642067"><ele>144.66666666666666</ele><time>2026-04-04T10:28:40.118Z</time></trkpt><trkpt lat="42.01352" lon="12.3643567"><ele>146.0</ele><time>2026-04-04T10:28:41.11Z</time></trkpt><trkpt lat="42.0133583" lon="12.3645183"><ele>147.0</ele><time>2026-04-04T10:28:42.114Z</time></trkpt><trkpt lat="42.0132033" lon="12.3646833"><ele>148.0</ele><time>2026-04-04T10:28:43.117Z</time></trkpt><trkpt lat="42.013055" lon="12.364855"><ele>149.0</ele><time>2026-04-04T10:28:44.115Z</time></trkpt><trkpt lat="42.0129117" lon="12.3650283"><ele>149.0</ele><time>2026-04-04T10:28:45.121Z</time></trkpt><trkpt lat="42.0127783" lon="12.3651917"><ele>149.0</ele><time>2026-04-04T10:28:46.114Z</time></trkpt><trkpt lat="42.0126417" lon="12.365355"><ele>149.0</ele><time>2026-04-04T10:28:47.115Z</time></trkpt><trkpt lat="42.01251" lon="12.3655183"><ele>151.66666666666666</ele><time>2026-04-04T10:28:48.115Z</time></trkpt><trkpt lat="42.01237" lon="12.3656833"><ele>154.33333333333334</ele><time>2026-04-04T10:28:49.118Z</time></trkpt><trkpt lat="42.0122183" lon="12.3658417"><ele>157.0</ele><time>2026-04-04T10:28:50.118Z</time></trkpt><trkpt lat="42.012065" lon="12.3659967"><ele>157.0</ele><time>2026-04-04T10:28:51.115Z</time></trkpt><trkpt lat="42.0119217" lon="12.3661367"><ele>157.0</ele><time>2026-04-04T10:28:52.115Z</time></trkpt><trkpt lat="42.0117883" lon="12.3662617"><ele>157.0</ele><time>2026-04-04T10:28:53.106Z</time></trkpt><trkpt lat="42.011665" lon="12.3663783"><ele>156.0</ele><time>2026-04-04T10:28:54.119Z</time></trkpt><trkpt lat="42.011555" lon="12.3664867"><ele>155.0</ele><time>2026-04-04T10:28:55.117Z</time></trkpt><trkpt lat="42.01145" lon="12.366585"><ele>154.0</ele><time>2026-04-04T10:28:56.115Z</time></trkpt><trkpt lat="42.01135" lon="12.3666733"><ele>153.0</ele><time>2026-04-04T10:28:57.118Z</time></trkpt><trkpt lat="42.0112583" lon="12.3667467"><ele>153.0</ele><time>2026-04-04T10:28:58.113Z</time></trkpt><trkpt lat="42.0111733" lon="12.3668017"><ele>153.0</ele><time>2026-04-04T10:28:59.116Z</time></trkpt><trkpt lat="42.011095" lon="12.3668267"><ele>153.0</ele><time>2026-04-04T10:29:00.111Z</time></trkpt><trkpt lat="42.01102" lon="12.3668167"><ele>153.0</ele><time>2026-04-04T10:29:01.108Z</time></trkpt><trkpt lat="42.0109483" lon="12.3667783"><ele>153.0</ele><time>2026-04-04T10:29:02.112Z</time></trkpt><trkpt lat="42.0108817" lon="12.3667467"><ele>153.0</ele><time>2026-04-04T10:29:03.116Z</time></trkpt><trkpt lat="42.0108133" lon="12.36673"><ele>152.33333333333334</ele><time>2026-04-04T10:29:04.115Z</time></trkpt><trkpt lat="42.01074" lon="12.3667417"><ele>151.66666666666666</ele><time>2026-04-04T10:29:05.116Z</time></trkpt><trkpt lat="42.0106767" lon="12.3667767"><ele>151.0</ele><time>2026-04-04T10:29:06.117Z</time></trkpt><trkpt lat="42.0106367" lon="12.366845"><ele>150.33333333333331</ele><time>2026-04-04T10:29:07.118Z</time></trkpt><trkpt lat="42.0106133" lon="12.3669317"><ele>149.66666666666666</ele><time>2026-04-04T10:29:08.115Z</time></trkpt><trkpt lat="42.0106033" lon="12.3670417"><ele>149.0</ele><time>2026-04-04T10:29:09.115Z</time></trkpt><trkpt lat="42.01059" lon="12.367165"><ele>149.5</ele><time>2026-04-04T10:29:10.111Z</time></trkpt><trkpt lat="42.01056" lon="12.3672917"><ele>150.0</ele><time>2026-04-04T10:29:11.117Z</time></trkpt><trkpt lat="42.01051" lon="12.3674217"><ele>150.5</ele><time>2026-04-04T10:29:12.115Z</time></trkpt><trkpt lat="42.0104367" lon="12.3675417"><ele>151.0</ele><time>2026-04-04T10:29:13.113Z</time></trkpt><trkpt lat="42.0103433" lon="12.3676567"><ele>151.0</ele><time>2026-04-04T10:29:14.116Z</time></trkpt><trkpt lat="42.010245" lon="12.3677717"><ele>151.0</ele><time>2026-04-04T10:29:15.119Z</time></trkpt><trkpt lat="42.0101467" lon="12.3678917"><ele>151.0</ele><time>2026-04-04T10:29:16.117Z</time></trkpt><trkpt lat="42.010045" lon="12.3680167"><ele>151.0</ele><time>2026-04-04T10:29:17.116Z</time></trkpt><trkpt lat="42.0099483" lon="12.36815"><ele>152.33333333333334</ele><time>2026-04-04T10:29:18.116Z</time></trkpt><trkpt lat="42.0098517" lon="12.3682983"><ele>153.66666666666666</ele><time>2026-04-04T10:29:19.114Z</time></trkpt><trkpt lat="42.0097533" lon="12.36846"><ele>155.0</ele><time>2026-04-04T10:29:20.118Z</time></trkpt><trkpt lat="42.009655" lon="12.3686283"><ele>155.0</ele><time>2026-04-04T10:29:21.118Z</time></trkpt><trkpt lat="42.009565" lon="12.3688067"><ele>155.0</ele><time>2026-04-04T10:29:22.116Z</time></trkpt><trkpt lat="42.0094767" lon="12.3689933"><ele>155.0</ele><time>2026-04-04T10:29:23.117Z</time></trkpt><trkpt lat="42.0093917" lon="12.3691917"><ele>156.33333333333331</ele><time>2026-04-04T10:29:24.119Z</time></trkpt><trkpt lat="42.0093117" lon="12.3693917"><ele>157.66666666666666</ele><time>2026-04-04T10:29:25.118Z</time></trkpt><trkpt lat="42.0092417" lon="12.369595"><ele>159.0</ele><time>2026-04-04T10:29:26.116Z</time></trkpt><trkpt lat="42.0091767" lon="12.3698117"><ele>160.33333333333334</ele><time>2026-04-04T10:29:27.112Z</time></trkpt><trkpt lat="42.00912" lon="12.370035"><ele>161.66666666666669</ele><time>2026-04-04T10:29:28.116Z</time></trkpt><trkpt lat="42.0090667" lon="12.3702667"><ele>163.0</ele><time>2026-04-04T10:29:29.109Z</time></trkpt><trkpt lat="42.0090217" lon="12.3705067"><ele>162.33333333333334</ele><time>2026-04-04T10:29:30.115Z</time></trkpt><trkpt lat="42.0089867" lon="12.3707567"><ele>161.66666666666666</ele><time>2026-04-04T10:29:31.115Z</time></trkpt><trkpt lat="42.00896" lon="12.3710083"><ele>161.0</ele><time>2026-04-04T10:29:32.118Z</time></trkpt><trkpt lat="42.0089417" lon="12.3712617"><ele>160.0</ele><time>2026-04-04T10:29:33.117Z</time></trkpt><trkpt lat="42.008925" lon="12.3715217"><ele>159.0</ele><time>2026-04-04T10:29:34.115Z</time></trkpt><trkpt lat="42.0089183" lon="12.3717917"><ele>158.0</ele><time>2026-04-04T10:29:35.114Z</time></trkpt><trkpt lat="42.008915" lon="12.3720583"><ele>155.33333333333331</ele><time>2026-04-04T10:29:36.114Z</time></trkpt><trkpt lat="42.0089133" lon="12.3723217"><ele>152.66666666666666</ele><time>2026-04-04T10:29:37.114Z</time></trkpt><trkpt lat="42.0089133" lon="12.372575"><ele>150.0</ele><time>2026-04-04T10:29:38.116Z</time></trkpt><trkpt lat="42.0089183" lon="12.3728267"><ele>150.33333333333334</ele><time>2026-04-04T10:29:39.119Z</time></trkpt><trkpt lat="42.0089183" lon="12.3730683"><ele>150.66666666666669</ele><time>2026-04-04T10:29:40.115Z</time></trkpt><trkpt lat="42.0089167" lon="12.3733067"><ele>151.0</ele><time>2026-04-04T10:29:41.116Z</time></trkpt><trkpt lat="42.008915" lon="12.3735483"><ele>151.0</ele><time>2026-04-04T10:29:42.114Z</time></trkpt><trkpt lat="42.0089017" lon="12.3737983"><ele>151.0</ele><time>2026-04-04T10:29:43.109Z</time></trkpt><trkpt lat="42.00888" lon="12.3740617"><ele>151.0</ele><time>2026-04-04T10:29:44.115Z</time></trkpt><trkpt lat="42.0088483" lon="12.37433"><ele>151.0</ele><time>2026-04-04T10:29:45.116Z</time></trkpt><trkpt lat="42.00881" lon="12.3745833"><ele>151.0</ele><time>2026-04-04T10:29:46.115Z</time></trkpt><trkpt lat="42.0087683" lon="12.37483"><ele>151.0</ele><time>2026-04-04T10:29:47.118Z</time></trkpt><trkpt lat="42.0087317" lon="12.3750683"><ele>149.0</ele><time>2026-04-04T10:29:48.116Z</time></trkpt><trkpt lat="42.0087017" lon="12.3752967"><ele>147.0</ele><time>2026-04-04T10:29:49.114Z</time></trkpt><trkpt lat="42.0086717" lon="12.37552"><ele>145.0</ele><time>2026-04-04T10:29:50.115Z</time></trkpt><trkpt lat="42.00864" lon="12.3757383"><ele>145.0</ele><time>2026-04-04T10:29:51.115Z</time></trkpt><trkpt lat="42.0086117" lon="12.3759483"><ele>145.0</ele><time>2026-04-04T10:29:52.115Z</time></trkpt><trkpt lat="42.0085883" lon="12.3761517"><ele>145.0</ele><time>2026-04-04T10:29:53.116Z</time></trkpt><trkpt lat="42.0085617" lon="12.3763467"><ele>146.25</ele><time>2026-04-04T10:29:54.114Z</time></trkpt><trkpt lat="42.0085317" lon="12.3765317"><ele>147.5</ele><time>2026-04-04T10:29:55.116Z</time></trkpt><trkpt lat="42.0084967" lon="12.376705"><ele>148.75</ele><time>2026-04-04T10:29:56.118Z</time></trkpt><trkpt lat="42.00845" lon="12.3768767"><ele>150.0</ele><time>2026-04-04T10:29:57.117Z</time></trkpt><trkpt lat="42.00839" lon="12.377035"><ele>150.75</ele><time>2026-04-04T10:29:58.117Z</time></trkpt><trkpt lat="42.00832" lon="12.37718"><ele>151.5</ele><time>2026-04-04T10:29:59.116Z</time></trkpt><trkpt lat="42.008245" lon="12.3773217"><ele>152.25</ele><time>2026-04-04T10:30:00.115Z</time></trkpt><trkpt lat="42.0081617" lon="12.3774333"><ele>153.0</ele><time>2026-04-04T10:30:01.114Z</time></trkpt><trkpt lat="42.008075" lon="12.3775267"><ele>153.75</ele><time>2026-04-04T10:30:02.114Z</time></trkpt><trkpt lat="42.0079783" lon="12.3776083"><ele>154.5</ele><time>2026-04-04T10:30:03.115Z</time></trkpt><trkpt lat="42.007875" lon="12.3776967"><ele>155.25</ele><time>2026-04-04T10:30:04.117Z</time></trkpt><trkpt lat="42.0077633" lon="12.377785"><ele>156.0</ele><time>2026-04-04T10:30:05.116Z</time></trkpt><trkpt lat="42.0076483" lon="12.37787"><ele>156.0</ele><time>2026-04-04T10:30:06.116Z</time></trkpt><trkpt lat="42.0075283" lon="12.3779483"><ele>156.0</ele><time>2026-04-04T10:30:07.115Z</time></trkpt><trkpt lat="42.007415" lon="12.3780233"><ele>156.0</ele><time>2026-04-04T10:30:08.114Z</time></trkpt><trkpt lat="42.0072983" lon="12.3780917"><ele>156.0</ele><time>2026-04-04T10:30:09.117Z</time></trkpt><trkpt lat="42.0071833" lon="12.3781667"><ele>156.5</ele><time>2026-04-04T10:30:10.116Z</time></trkpt><trkpt lat="42.0070683" lon="12.3782383"><ele>157.0</ele><time>2026-04-04T10:30:11.116Z</time></trkpt><trkpt lat="42.00695" lon="12.378305"><ele>157.5</ele><time>2026-04-04T10:30:12.112Z</time></trkpt><trkpt lat="42.0068267" lon="12.3783683"><ele>158.0</ele><time>2026-04-04T10:30:13.114Z</time></trkpt><trkpt lat="42.0067" lon="12.3784367"><ele>158.25</ele><time>2026-04-04T10:30:14.113Z</time></trkpt><trkpt lat="42.0065667" lon="12.378505"><ele>158.5</ele><time>2026-04-04T10:30:15.12Z</time></trkpt><trkpt lat="42.0064333" lon="12.37857"><ele>158.75</ele><time>2026-04-04T10:30:16.116Z</time></trkpt><trkpt lat="42.0063033" lon="12.3786317"><ele>159.0</ele><time>2026-04-04T10:30:17.117Z</time></trkpt><trkpt lat="42.006175" lon="12.3786883"><ele>159.0</ele><time>2026-04-04T10:30:18.115Z</time></trkpt><trkpt lat="42.0060483" lon="12.3787367"><ele>159.0</ele><time>2026-04-04T10:30:19.118Z</time></trkpt><trkpt lat="42.0059217" lon="12.3787683"><ele>159.0</ele><time>2026-04-04T10:30:20.112Z</time></trkpt><trkpt lat="42.0057883" lon="12.3787917"><ele>159.0</ele><time>2026-04-04T10:30:21.118Z</time></trkpt><trkpt lat="42.0056483" lon="12.3788033"><ele>158.5</ele><time>2026-04-04T10:30:22.117Z</time></trkpt><trkpt lat="42.0055033" lon="12.3787983"><ele>158.0</ele><time>2026-04-04T10:30:23.113Z</time></trkpt><trkpt lat="42.005365" lon="12.3787717"><ele>157.5</ele><time>2026-04-04T10:30:24.113Z</time></trkpt><trkpt lat="42.0052217" lon="12.3787333"><ele>157.0</ele><time>2026-04-04T10:30:25.115Z</time></trkpt><trkpt lat="42.005075" lon="12.3786933"><ele>156.66666666666669</ele><time>2026-04-04T10:30:26.114Z</time></trkpt><trkpt lat="42.0049233" lon="12.3786567"><ele>156.33333333333334</ele><time>2026-04-04T10:30:27.113Z</time></trkpt><trkpt lat="42.0047733" lon="12.3786167"><ele>156.0</ele><time>2026-04-04T10:30:28.114Z</time></trkpt><trkpt lat="42.0046217" lon="12.3785717"><ele>156.0</ele><time>2026-04-04T10:30:29.113Z</time></trkpt><trkpt lat="42.0044633" lon="12.3785283"><ele>156.0</ele><time>2026-04-04T10:30:30.118Z</time></trkpt><trkpt lat="42.0043017" lon="12.3784867"><ele>156.0</ele><time>2026-04-04T10:30:31.114Z</time></trkpt><trkpt lat="42.0041433" lon="12.3784467"><ele>158.0</ele><time>2026-04-04T10:30:32.115Z</time></trkpt><trkpt lat="42.0039917" lon="12.3784117"><ele>160.0</ele><time>2026-04-04T10:30:33.117Z</time></trkpt><trkpt lat="42.0038433" lon="12.3783833"><ele>162.0</ele><time>2026-04-04T10:30:34.115Z</time></trkpt><trkpt lat="42.0036967" lon="12.37836"><ele>162.0</ele><time>2026-04-04T10:30:35.115Z</time></trkpt><trkpt lat="42.0035467" lon="12.378335"><ele>162.0</ele><time>2026-04-04T10:30:36.111Z</time></trkpt><trkpt lat="42.0034117" lon="12.3783067"><ele>162.0</ele><time>2026-04-04T10:30:37.114Z</time></trkpt><trkpt lat="42.0032817" lon="12.3782767"><ele>162.0</ele><time>2026-04-04T10:30:38.116Z</time></trkpt><trkpt lat="42.0031533" lon="12.3782467"><ele>162.66666666666666</ele><time>2026-04-04T10:30:39.114Z</time></trkpt><trkpt lat="42.0030233" lon="12.3782167"><ele>163.33333333333331</ele><time>2026-04-04T10:30:40.117Z</time></trkpt><trkpt lat="42.002895" lon="12.3781867"><ele>164.0</ele><time>2026-04-04T10:30:41.114Z</time></trkpt><trkpt lat="42.0016483" lon="12.3798383"><ele>158.0</ele><time>2026-04-04T10:30:50.118Z</time></trkpt><trkpt lat="42.0015417" lon="12.38003"><ele>152.0</ele><time>2026-04-04T10:30:51.117Z</time></trkpt><trkpt lat="42.0014517" lon="12.3802167"><ele>146.0</ele><time>2026-04-04T10:30:52.117Z</time></trkpt><trkpt lat="42.0013533" lon="12.3804083"><ele>146.66666666666666</ele><time>2026-04-04T10:30:53.115Z</time></trkpt><trkpt lat="42.0012433" lon="12.3805983"><ele>147.33333333333334</ele><time>2026-04-04T10:30:54.115Z</time></trkpt><trkpt lat="42.0011267" lon="12.3807683"><ele>148.0</ele><time>2026-04-04T10:30:55.117Z</time></trkpt><trkpt lat="42.0009867" lon="12.3809167"><ele>148.0</ele><time>2026-04-04T10:30:56.111Z</time></trkpt><trkpt lat="42.0008333" lon="12.38105"><ele>148.0</ele><time>2026-04-04T10:30:57.118Z</time></trkpt><trkpt lat="42.00067" lon="12.381165"><ele>148.0</ele><time>2026-04-04T10:30:58.116Z</time></trkpt><trkpt lat="42.00051" lon="12.3812633"><ele>151.66666666666669</ele><time>2026-04-04T10:30:59.116Z</time></trkpt><trkpt lat="42.00036" lon="12.3813583"><ele>155.33333333333334</ele><time>2026-04-04T10:31:00.117Z</time></trkpt><trkpt lat="42.0002167" lon="12.38145"><ele>159.0</ele><time>2026-04-04T10:31:01.118Z</time></trkpt><trkpt lat="42.0000767" lon="12.3815383"><ele>159.0</ele><time>2026-04-04T10:31:02.115Z</time></trkpt><trkpt lat="41.9999367" lon="12.3816233"><ele>159.0</ele><time>2026-04-04T10:31:03.12Z</time></trkpt><trkpt lat="41.9997967" lon="12.3817183"><ele>159.0</ele><time>2026-04-04T10:31:04.118Z</time></trkpt><trkpt lat="41.9996567" lon="12.38181"><ele>159.0</ele><time>2026-04-04T10:31:05.116Z</time></trkpt><trkpt lat="41.9995133" lon="12.3819017"><ele>159.0</ele><time>2026-04-04T10:31:06.118Z</time></trkpt><trkpt lat="41.999365" lon="12.3820017"><ele>159.0</ele><time>2026-04-04T10:31:07.116Z</time></trkpt><trkpt lat="41.9992133" lon="12.3821083"><ele>160.0</ele><time>2026-04-04T10:31:08.116Z</time></trkpt><trkpt lat="41.9990617" lon="12.38221"><ele>161.0</ele><time>2026-04-04T10:31:09.118Z</time></trkpt><trkpt lat="41.9989217" lon="12.3822967"><ele>162.0</ele><time>2026-04-04T10:31:10.114Z</time></trkpt><trkpt lat="41.9987867" lon="12.38238"><ele>162.0</ele><time>2026-04-04T10:31:11.114Z</time></trkpt><trkpt lat="41.99866" lon="12.3824767"><ele>162.0</ele><time>2026-04-04T10:31:12.116Z</time></trkpt><trkpt lat="41.99853" lon="12.38259"><ele>162.0</ele><time>2026-04-04T10:31:13.118Z</time></trkpt><trkpt lat="41.9984017" lon="12.3827133"><ele>161.33333333333334</ele><time>2026-04-04T10:31:14.114Z</time></trkpt><trkpt lat="41.9982817" lon="12.382845"><ele>160.66666666666669</ele><time>2026-04-04T10:31:15.116Z</time></trkpt><trkpt lat="41.998175" lon="12.382995"><ele>160.0</ele><time>2026-04-04T10:31:16.119Z</time></trkpt><trkpt lat="41.9980833" lon="12.3831683"><ele>158.66666666666669</ele><time>2026-04-04T10:31:17.114Z</time></trkpt><trkpt lat="41.998" lon="12.38336"><ele>157.33333333333334</ele><time>2026-04-04T10:31:18.114Z</time></trkpt><trkpt lat="41.9979267" lon="12.383565"><ele>156.0</ele><time>2026-04-04T10:31:19.116Z</time></trkpt><trkpt lat="41.99786" lon="12.3837833"><ele>156.33333333333334</ele><time>2026-04-04T10:31:20.11Z</time></trkpt><trkpt lat="41.9977983" lon="12.384005"><ele>156.66666666666669</ele><time>2026-04-04T10:31:21.118Z</time></trkpt><trkpt lat="41.9977367" lon="12.3842283"><ele>157.0</ele><time>2026-04-04T10:31:22.114Z</time></trkpt><trkpt lat="41.9976733" lon="12.3844483"><ele>157.0</ele><time>2026-04-04T10:31:23.116Z</time></trkpt><trkpt lat="41.99761" lon="12.3846683"><ele>157.0</ele><time>2026-04-04T10:31:24.111Z</time></trkpt><trkpt lat="41.9975467" lon="12.384885"><ele>157.0</ele><time>2026-04-04T10:31:25.116Z</time></trkpt><trkpt lat="41.997485" lon="12.3851017"><ele>156.66666666666669</ele><time>2026-04-04T10:31:26.119Z</time></trkpt><trkpt lat="41.9974233" lon="12.3853183"><ele>156.33333333333334</ele><time>2026-04-04T10:31:27.117Z</time></trkpt><trkpt lat="41.9973633" lon="12.3855367"><ele>156.0</ele><time>2026-04-04T10:31:28.114Z</time></trkpt><trkpt lat="41.9973067" lon="12.3857533"><ele>156.0</ele><time>2026-04-04T10:31:29.114Z</time></trkpt><trkpt lat="41.9972533" lon="12.3859733"><ele>156.0</ele><time>2026-04-04T10:31:30.116Z</time></trkpt><trkpt lat="41.997205" lon="12.3861967"><ele>156.0</ele><time>2026-04-04T10:31:31.117Z</time></trkpt><trkpt lat="41.9971667" lon="12.386415"><ele>155.0</ele><time>2026-04-04T10:31:32.115Z</time></trkpt><trkpt lat="41.997135" lon="12.3866267"><ele>154.0</ele><time>2026-04-04T10:31:33.114Z</time></trkpt><trkpt lat="41.997105" lon="12.3868383"><ele>153.0</ele><time>2026-04-04T10:31:34.116Z</time></trkpt><trkpt lat="41.9970883" lon="12.38704"><ele>152.75</ele><time>2026-04-04T10:31:35.114Z</time></trkpt><trkpt lat="41.9970633" lon="12.38724"><ele>152.5</ele><time>2026-04-04T10:31:36.11Z</time></trkpt><trkpt lat="41.9970333" lon="12.3874317"><ele>152.25</ele><time>2026-04-04T10:31:37.109Z</time></trkpt><trkpt lat="41.9969917" lon="12.3876167"><ele>152.0</ele><time>2026-04-04T10:31:38.114Z</time></trkpt><trkpt lat="41.9969233" lon="12.3877967"><ele>152.0</ele><time>2026-04-04T10:31:39.118Z</time></trkpt><trkpt lat="41.9968333" lon="12.3879567"><ele>152.0</ele><time>2026-04-04T10:31:40.117Z</time></trkpt><trkpt lat="41.9967183" lon="12.3881167"><ele>152.0</ele><time>2026-04-04T10:31:41.118Z</time></trkpt><trkpt lat="41.9965933" lon="12.3882717"><ele>150.0</ele><time>2026-04-04T10:31:42.115Z</time></trkpt><trkpt lat="41.9964583" lon="12.3884117"><ele>148.0</ele><time>2026-04-04T10:31:43.116Z</time></trkpt><trkpt lat="41.9963283" lon="12.388555"><ele>146.0</ele><time>2026-04-04T10:31:44.115Z</time></trkpt><trkpt lat="41.9962033" lon="12.3886967"><ele>146.0</ele><time>2026-04-04T10:31:45.116Z</time></trkpt><trkpt lat="41.996085" lon="12.3888283"><ele>146.0</ele><time>2026-04-04T10:31:46.115Z</time></trkpt><trkpt lat="41.9959733" lon="12.3889567"><ele>146.0</ele><time>2026-04-04T10:31:47.116Z</time></trkpt><trkpt lat="41.9958617" lon="12.3890833"><ele>146.0</ele><time>2026-04-04T10:31:48.116Z</time></trkpt><trkpt lat="41.9957517" lon="12.3892033"><ele>147.0</ele><time>2026-04-04T10:31:49.114Z</time></trkpt><trkpt lat="41.9956383" lon="12.3893283"><ele>148.0</ele><time>2026-04-04T10:31:50.114Z</time></trkpt><trkpt lat="41.99506" lon="12.3911317"><ele>148.6</ele><time>2026-04-04T10:32:00.117Z</time></trkpt><trkpt lat="41.99502" lon="12.39125"><ele>149.20000000000002</ele><time>2026-04-04T10:32:01.118Z</time></trkpt><trkpt lat="41.9949433" lon="12.391365"><ele>149.8</ele><time>2026-04-04T10:32:02.116Z</time></trkpt><trkpt lat="41.9948567" lon="12.3914717"><ele>150.4</ele><time>2026-04-04T10:32:03.117Z</time></trkpt><trkpt lat="41.9947683" lon="12.39158"><ele>151.0</ele><time>2026-04-04T10:32:04.114Z</time></trkpt><trkpt lat="41.9946867" lon="12.391675"><ele>151.0</ele><time>2026-04-04T10:32:05.118Z</time></trkpt><trkpt lat="41.99461" lon="12.39177"><ele>151.0</ele><time>2026-04-04T10:32:06.115Z</time></trkpt><trkpt lat="41.994535" lon="12.3918633"><ele>151.0</ele><time>2026-04-04T10:32:07.118Z</time></trkpt><trkpt lat="41.9944617" lon="12.3919667"><ele>151.0</ele><time>2026-04-04T10:32:08.116Z</time></trkpt><trkpt lat="41.99439" lon="12.3920733"><ele>151.0</ele><time>2026-04-04T10:32:09.119Z</time></trkpt><trkpt lat="41.9943167" lon="12.392175"><ele>150.4</ele><time>2026-04-04T10:32:10.116Z</time></trkpt><trkpt lat="41.99425" lon="12.39227"><ele>149.8</ele><time>2026-04-04T10:32:11.117Z</time></trkpt><trkpt lat="41.99419" lon="12.3923567"><ele>149.20000000000002</ele><time>2026-04-04T10:32:12.116Z</time></trkpt><trkpt lat="41.99413" lon="12.3924467"><ele>148.6</ele><time>2026-04-04T10:32:13.116Z</time></trkpt><trkpt lat="41.99407" lon="12.3925417"><ele>148.0</ele><time>2026-04-04T10:32:14.116Z</time></trkpt><trkpt lat="41.9940033" lon="12.3926417"><ele>147.8</ele><time>2026-04-04T10:32:15.116Z</time></trkpt><trkpt lat="41.99393" lon="12.3927517"><ele>147.60000000000002</ele><time>2026-04-04T10:32:16.113Z</time></trkpt><trkpt lat="41.9938567" lon="12.392855"><ele>147.39999999999998</ele><time>2026-04-04T10:32:17.115Z</time></trkpt><trkpt lat="41.9937817" lon="12.3929617"><ele>147.2</ele><time>2026-04-04T10:32:18.107Z</time></trkpt><trkpt lat="41.9937067" lon="12.3930783"><ele>147.0</ele><time>2026-04-04T10:32:19.116Z</time></trkpt><trkpt lat="41.993625" lon="12.3931983"><ele>145.79999999999998</ele><time>2026-04-04T10:32:20.115Z</time></trkpt><trkpt lat="41.9935417" lon="12.3933133"><ele>144.6</ele><time>2026-04-04T10:32:21.116Z</time></trkpt><trkpt lat="41.993465" lon="12.393415"><ele>143.39999999999998</ele><time>2026-04-04T10:32:22.114Z</time></trkpt><trkpt lat="41.993395" lon="12.39351"><ele>142.2</ele><time>2026-04-04T10:32:23.117Z</time></trkpt><trkpt lat="41.9933283" lon="12.3935917"><ele>141.0</ele><time>2026-04-04T10:32:24.116Z</time></trkpt><trkpt lat="41.9932717" lon="12.3936617"><ele>141.0</ele><time>2026-04-04T10:32:25.116Z</time></trkpt><trkpt lat="41.9932233" lon="12.39373"><ele>141.0</ele><time>2026-04-04T10:32:26.117Z</time></trkpt><trkpt lat="41.99317" lon="12.3938"><ele>141.0</ele><time>2026-04-04T10:32:27.116Z</time></trkpt><trkpt lat="41.993105" lon="12.3938783"><ele>141.0</ele><time>2026-04-04T10:32:28.116Z</time></trkpt><trkpt lat="41.9930333" lon="12.3939767"><ele>141.0</ele><time>2026-04-04T10:32:29.117Z</time></trkpt><trkpt lat="41.9929617" lon="12.39408"><ele>141.0</ele><time>2026-04-04T10:32:30.117Z</time></trkpt><trkpt lat="41.9928867" lon="12.3941983"><ele>140.5</ele><time>2026-04-04T10:32:31.118Z</time></trkpt><trkpt lat="41.9928083" lon="12.3943267"><ele>140.0</ele><time>2026-04-04T10:32:32.114Z</time></trkpt><trkpt lat="41.9927317" lon="12.3944583"><ele>139.5</ele><time>2026-04-04T10:32:33.119Z</time></trkpt><trkpt lat="41.9926517" lon="12.3945917"><ele>139.0</ele><time>2026-04-04T10:32:34.116Z</time></trkpt><trkpt lat="41.9925817" lon="12.394715"><ele>139.0</ele><time>2026-04-04T10:32:35.118Z</time></trkpt><trkpt lat="41.99251" lon="12.394835"><ele>139.0</ele><time>2026-04-04T10:32:36.109Z</time></trkpt><trkpt lat="41.992445" lon="12.3949417"><ele>139.0</ele><time>2026-04-04T10:32:37.117Z</time></trkpt><trkpt lat="41.99239" lon="12.3950383"><ele>139.0</ele><time>2026-04-04T10:32:38.118Z</time></trkpt><trkpt lat="41.9923383" lon="12.3951267"><ele>139.0</ele><time>2026-04-04T10:32:39.12Z</time></trkpt><trkpt lat="41.9922867" lon="12.39521"><ele>140.6</ele><time>2026-04-04T10:32:40.118Z</time></trkpt><trkpt lat="41.99223" lon="12.395295"><ele>142.2</ele><time>2026-04-04T10:32:41.114Z</time></trkpt><trkpt lat="41.9921567" lon="12.3953883"><ele>143.79999999999998</ele><time>2026-04-04T10:32:42.118Z</time></trkpt><trkpt lat="41.9920917" lon="12.39549"><ele>145.4</ele><time>2026-04-04T10:32:43.115Z</time></trkpt><trkpt lat="41.9920283" lon="12.3955883"><ele>147.0</ele><time>2026-04-04T10:32:44.117Z</time></trkpt><trkpt lat="41.9919667" lon="12.3956817"><ele>147.2</ele><time>2026-04-04T10:32:45.117Z</time></trkpt><trkpt lat="41.9919117" lon="12.39578"><ele>147.39999999999998</ele><time>2026-04-04T10:32:46.117Z</time></trkpt><trkpt lat="41.9918517" lon="12.395885"><ele>147.60000000000002</ele><time>2026-04-04T10:32:47.115Z</time></trkpt><trkpt lat="41.9917917" lon="12.39598"><ele>147.8</ele><time>2026-04-04T10:32:48.112Z</time></trkpt><trkpt lat="41.9917367" lon="12.39608"><ele>148.0</ele><time>2026-04-04T10:32:49.12Z</time></trkpt><trkpt lat="41.991675" lon="12.3961467"><ele>147.66666666666669</ele><time>2026-04-04T10:32:50.118Z</time></trkpt><trkpt lat="41.9916167" lon="12.39623"><ele>147.33333333333334</ele><time>2026-04-04T10:32:51.113Z</time></trkpt><trkpt lat="41.991565" lon="12.396315"><ele>147.0</ele><time>2026-04-04T10:32:52.116Z</time></trkpt><trkpt lat="41.9915083" lon="12.3964033"><ele>146.66666666666666</ele><time>2026-04-04T10:32:53.113Z</time></trkpt><trkpt lat="41.991445" lon="12.3965017"><ele>146.33333333333331</ele><time>2026-04-04T10:32:54.116Z</time></trkpt><trkpt lat="41.9913817" lon="12.3966017"><ele>146.0</ele><time>2026-04-04T10:32:55.112Z</time></trkpt><trkpt lat="41.9913217" lon="12.3967083"><ele>146.2</ele><time>2026-04-04T10:32:56.114Z</time></trkpt><trkpt lat="41.9912583" lon="12.39682"><ele>146.39999999999998</ele><time>2026-04-04T10:32:57.117Z</time></trkpt><trkpt lat="41.9911933" lon="12.3969283"><ele>146.6</ele><time>2026-04-04T10:32:58.115Z</time></trkpt><trkpt lat="41.9911283" lon="12.39704"><ele>146.79999999999998</ele><time>2026-04-04T10:32:59.114Z</time></trkpt><trkpt lat="41.9910683" lon="12.3971417"><ele>147.0</ele><time>2026-04-04T10:33:00.117Z</time></trkpt><trkpt lat="41.9910117" lon="12.3972483"><ele>147.0</ele><time>2026-04-04T10:33:01.116Z</time></trkpt><trkpt lat="41.9909583" lon="12.3973567"><ele>147.0</ele><time>2026-04-04T10:33:02.117Z</time></trkpt><trkpt lat="41.9908983" lon="12.3974617"><ele>147.0</ele><time>2026-04-04T10:33:03.117Z</time></trkpt><trkpt lat="41.990835" lon="12.3975667"><ele>147.0</ele><time>2026-04-04T10:33:04.114Z</time></trkpt><trkpt lat="41.9907733" lon="12.3976667"><ele>147.0</ele><time>2026-04-04T10:33:05.114Z</time></trkpt><trkpt lat="41.9907167" lon="12.39776"><ele>146.2</ele><time>2026-04-04T10:33:06.118Z</time></trkpt><trkpt lat="41.99066" lon="12.397855"><ele>145.39999999999998</ele><time>2026-04-04T10:33:07.117Z</time></trkpt><trkpt lat="41.9905967" lon="12.3979683"><ele>144.60000000000002</ele><time>2026-04-04T10:33:08.118Z</time></trkpt><trkpt lat="41.9905183" lon="12.39808"><ele>143.8</ele><time>2026-04-04T10:33:09.116Z</time></trkpt><trkpt lat="41.99043" lon="12.398195"><ele>143.0</ele><time>2026-04-04T10:33:10.114Z</time></trkpt><trkpt lat="41.990345" lon="12.39831"><ele>145.0</ele><time>2026-04-04T10:33:11.114Z</time></trkpt><trkpt lat="41.990265" lon="12.3984233"><ele>147.0</ele><time>2026-04-04T10:33:12.115Z</time></trkpt><trkpt lat="41.99018" lon="12.3985267"><ele>149.0</ele><time>2026-04-04T10:33:13.117Z</time></trkpt><trkpt lat="41.990095" lon="12.3986283"><ele>151.0</ele><time>2026-04-04T10:33:14.112Z</time></trkpt><trkpt lat="41.9900167" lon="12.39873"><ele>150.5</ele><time>2026-04-04T10:33:15.116Z</time></trkpt><trkpt lat="41.9899333" lon="12.3988333"><ele>150.0</ele><time>2026-04-04T10:33:16.116Z</time></trkpt><trkpt lat="41.9898517" lon="12.3989367"><ele>149.5</ele><time>2026-04-04T10:33:17.118Z</time></trkpt><trkpt lat="41.98976" lon="12.3990383"><ele>149.0</ele><time>2026-04-04T10:33:18.116Z</time></trkpt><trkpt lat="41.989665" lon="12.3991417"><ele>149.0</ele><time>2026-04-04T10:33:19.115Z</time></trkpt><trkpt lat="41.989575" lon="12.3992533"><ele>149.0</ele><time>2026-04-04T10:33:20.114Z</time></trkpt><trkpt lat="41.9894867" lon="12.3993633"><ele>149.0</ele><time>2026-04-04T10:33:21.118Z</time></trkpt><trkpt lat="41.9893917" lon="12.399475"><ele>149.0</ele><time>2026-04-04T10:33:22.116Z</time></trkpt><trkpt lat="41.9892967" lon="12.3995867"><ele>149.25</ele><time>2026-04-04T10:33:23.114Z</time></trkpt><trkpt lat="41.989205" lon="12.3996883"><ele>149.5</ele><time>2026-04-04T10:33:24.116Z</time></trkpt><trkpt lat="41.9891167" lon="12.3997967"><ele>149.75</ele><time>2026-04-04T10:33:25.113Z</time></trkpt><trkpt lat="41.9890367" lon="12.3999"><ele>150.0</ele><time>2026-04-04T10:33:26.115Z</time></trkpt><trkpt lat="41.988955" lon="12.3999917"><ele>148.6</ele><time>2026-04-04T10:33:27.12Z</time></trkpt><trkpt lat="41.98888" lon="12.4000783"><ele>147.2</ele><time>2026-04-04T10:33:28.114Z</time></trkpt><trkpt lat="41.98881" lon="12.40016"><ele>145.8</ele><time>2026-04-04T10:33:29.116Z</time></trkpt><trkpt lat="41.9887433" lon="12.4002417"><ele>144.4</ele><time>2026-04-04T10:33:30.115Z</time></trkpt><trkpt lat="41.988675" lon="12.4003233"><ele>143.0</ele><time>2026-04-04T10:33:31.115Z</time></trkpt><trkpt lat="41.988605" lon="12.400415"><ele>143.20000000000002</ele><time>2026-04-04T10:33:32.115Z</time></trkpt><trkpt lat="41.9885283" lon="12.4005083"><ele>143.4</ele><time>2026-04-04T10:33:33.117Z</time></trkpt><trkpt lat="41.9884517" lon="12.400605"><ele>143.60000000000002</ele><time>2026-04-04T10:33:34.114Z</time></trkpt><trkpt lat="41.98838" lon="12.4006933"><ele>143.8</ele><time>2026-04-04T10:33:35.115Z</time></trkpt><trkpt lat="41.9883083" lon="12.4007783"><ele>144.0</ele><time>2026-04-04T10:33:36.116Z</time></trkpt><trkpt lat="41.9882317" lon="12.4008683"><ele>143.4</ele><time>2026-04-04T10:33:37.115Z</time></trkpt><trkpt lat="41.9881517" lon="12.4009583"><ele>142.8</ele><time>2026-04-04T10:33:38.112Z</time></trkpt><trkpt lat="41.9880683" lon="12.4010483"><ele>142.2</ele><time>2026-04-04T10:33:39.114Z</time></trkpt><trkpt lat="41.98798" lon="12.4011467"><ele>141.6</ele><time>2026-04-04T10:33:40.117Z</time></trkpt><trkpt lat="41.9878867" lon="12.401245"><ele>141.0</ele><time>2026-04-04T10:33:41.117Z</time></trkpt><trkpt lat="41.9878" lon="12.4013417"><ele>141.0</ele><time>2026-04-04T10:33:42.113Z</time></trkpt><trkpt lat="41.9877033" lon="12.4014417"><ele>141.0</ele><time>2026-04-04T10:33:43.113Z</time></trkpt><trkpt lat="41.9876083" lon="12.4015467"><ele>141.0</ele><time>2026-04-04T10:33:44.114Z</time></trkpt><trkpt lat="41.987515" lon="12.40165"><ele>141.0</ele><time>2026-04-04T10:33:45.11Z</time></trkpt><trkpt lat="41.987425" lon="12.40175"><ele>141.0</ele><time>2026-04-04T10:33:46.111Z</time></trkpt><trkpt lat="41.9873367" lon="12.40185"><ele>141.0</ele><time>2026-04-04T10:33:47.112Z</time></trkpt><trkpt lat="41.9872533" lon="12.4019483"><ele>141.0</ele><time>2026-04-04T10:33:48.115Z</time></trkpt><trkpt lat="41.9871783" lon="12.4020383"><ele>141.0</ele><time>2026-04-04T10:33:49.114Z</time></trkpt><trkpt lat="41.9871083" lon="12.40212"><ele>141.0</ele><time>2026-04-04T10:33:50.116Z</time></trkpt><trkpt lat="41.98704" lon="12.4021983"><ele>141.33333333333334</ele><time>2026-04-04T10:33:51.115Z</time></trkpt><trkpt lat="41.9869817" lon="12.40227"><ele>141.66666666666666</ele><time>2026-04-04T10:33:52.117Z</time></trkpt><trkpt lat="41.9869267" lon="12.4023517"><ele>142.0</ele><time>2026-04-04T10:33:53.114Z</time></trkpt><trkpt lat="41.9868733" lon="12.4024367"><ele>142.33333333333331</ele><time>2026-04-04T10:33:54.116Z</time></trkpt><trkpt lat="41.9868317" lon="12.4025083"><ele>142.66666666666666</ele><time>2026-04-04T10:33:55.114Z</time></trkpt><trkpt lat="41.9867767" lon="12.4026167"><ele>143.0</ele><time>2026-04-04T10:33:57.116Z</time></trkpt><trkpt lat="41.986725" lon="12.4027017"><ele>143.0</ele><time>2026-04-04T10:34:00.116Z</time></trkpt><trkpt lat="41.9866867" lon="12.4027817"><ele>143.0</ele><time>2026-04-04T10:34:02.117Z</time></trkpt><trkpt lat="41.9866383" lon="12.4028967"><ele>143.0</ele><time>2026-04-04T10:34:04.114Z</time></trkpt><trkpt lat="41.98657" lon="12.4030417"><ele>143.0</ele><time>2026-04-04T10:34:06.116Z</time></trkpt><trkpt lat="41.98653" lon="12.4031333"><ele>143.0</ele><time>2026-04-04T10:34:07.116Z</time></trkpt><trkpt lat="41.9864933" lon="12.4032217"><ele>143.8</ele><time>2026-04-04T10:34:08.117Z</time></trkpt><trkpt lat="41.9864617" lon="12.403305"><ele>144.60000000000002</ele><time>2026-04-04T10:34:09.117Z</time></trkpt><trkpt lat="41.986425" lon="12.4033817"><ele>145.39999999999998</ele><time>2026-04-04T10:34:10.116Z</time></trkpt><trkpt lat="41.98636" lon="12.403515"><ele>146.2</ele><time>2026-04-04T10:34:12.115Z</time></trkpt><trkpt lat="41.986305" lon="12.4036533"><ele>147.0</ele><time>2026-04-04T10:34:14.118Z</time></trkpt><trkpt lat="41.986255" lon="12.4037767"><ele>147.5</ele><time>2026-04-04T10:34:16.115Z</time></trkpt><trkpt lat="41.9862017" lon="12.4039017"><ele>148.0</ele><time>2026-04-04T10:34:18.112Z</time></trkpt><trkpt lat="41.9861267" lon="12.4040367"><ele>148.5</ele><time>2026-04-04T10:34:20.117Z</time></trkpt><trkpt lat="41.9860867" lon="12.4041067"><ele>149.0</ele><time>2026-04-04T10:34:21.116Z</time></trkpt><trkpt lat="41.9860483" lon="12.4041817"><ele>149.5</ele><time>2026-04-04T10:34:22.113Z</time></trkpt><trkpt lat="41.9859983" lon="12.4042583"><ele>150.0</ele><time>2026-04-04T10:34:23.115Z</time></trkpt><trkpt lat="41.98595" lon="12.4043217"><ele>150.0</ele><time>2026-04-04T10:34:24.117Z</time></trkpt><trkpt lat="41.9858983" lon="12.40438"><ele>150.0</ele><time>2026-04-04T10:34:25.118Z</time></trkpt><trkpt lat="41.9858467" lon="12.4044383"><ele>150.0</ele><time>2026-04-04T10:34:26.116Z</time></trkpt><trkpt lat="41.9858017" lon="12.4045033"><ele>150.0</ele><time>2026-04-04T10:34:27.109Z</time></trkpt><trkpt lat="41.9857517" lon="12.4045667"><ele>150.0</ele><time>2026-04-04T10:34:28.114Z</time></trkpt><trkpt lat="41.9857133" lon="12.4046367"><ele>150.0</ele><time>2026-04-04T10:34:29.113Z</time></trkpt><trkpt lat="41.985655" lon="12.4047783"><ele>150.0</ele><time>2026-04-04T10:34:31.119Z</time></trkpt><trkpt lat="41.985625" lon="12.4048533"><ele>150.0</ele><time>2026-04-04T10:34:32.117Z</time></trkpt><trkpt lat="41.9855733" lon="12.40499"><ele>150.0</ele><time>2026-04-04T10:34:34.119Z</time></trkpt><trkpt lat="41.9855167" lon="12.4051117"><ele>150.0</ele><time>2026-04-04T10:34:36.116Z</time></trkpt><trkpt lat="41.985455" lon="12.4051683"><ele>150.0</ele><time>2026-04-04T10:34:38.117Z</time></trkpt><trkpt lat="41.9855267" lon="12.4051617"><ele>150.0</ele><time>2026-04-04T10:34:51.114Z</time></trkpt><trkpt lat="41.9856033" lon="12.4051633"><ele>150.0</ele><time>2026-04-04T10:35:06.114Z</time></trkpt><trkpt lat="41.9856417" lon="12.40524"><ele>150.0</ele><time>2026-04-04T10:35:08.115Z</time></trkpt><trkpt lat="41.9856317" lon="12.4053983"><ele>150.0</ele><time>2026-04-04T10:35:10.117Z</time></trkpt><trkpt lat="41.9856167" lon="12.4054817"><ele>150.0</ele><time>2026-04-04T10:35:11.117Z</time></trkpt><trkpt lat="41.98558" lon="12.4056283"><ele>150.0</ele><time>2026-04-04T10:35:13.118Z</time></trkpt><trkpt lat="41.98555" lon="12.4057033"><ele>150.0</ele><time>2026-04-04T10:35:14.115Z</time></trkpt><trkpt lat="41.985515" lon="12.4057883"><ele>149.83333333333334</ele><time>2026-04-04T10:35:15.116Z</time></trkpt><trkpt lat="41.9854717" lon="12.4058817"><ele>149.66666666666666</ele><time>2026-04-04T10:35:16.114Z</time></trkpt><trkpt lat="41.9854283" lon="12.405975"><ele>149.5</ele><time>2026-04-04T10:35:17.112Z</time></trkpt><trkpt lat="41.9853883" lon="12.40608"><ele>149.33333333333331</ele><time>2026-04-04T10:35:18.114Z</time></trkpt><trkpt lat="41.985345" lon="12.4061817"><ele>149.16666666666666</ele><time>2026-04-04T10:35:19.116Z</time></trkpt><trkpt lat="41.9852983" lon="12.4062867"><ele>149.0</ele><time>2026-04-04T10:35:20.117Z</time></trkpt><trkpt lat="41.9852533" lon="12.4063967"><ele>149.0</ele><time>2026-04-04T10:35:21.119Z</time></trkpt><trkpt lat="41.9852067" lon="12.406505"><ele>149.0</ele><time>2026-04-04T10:35:22.116Z</time></trkpt><trkpt lat="41.9851617" lon="12.4066033"><ele>149.0</ele><time>2026-04-04T10:35:23.116Z</time></trkpt><trkpt lat="41.9851083" lon="12.406695"><ele>149.0</ele><time>2026-04-04T10:35:24.116Z</time></trkpt><trkpt lat="41.9850467" lon="12.4067567"><ele>149.0</ele><time>2026-04-04T10:35:25.116Z</time></trkpt><trkpt lat="41.98498" lon="12.40681"><ele>149.0</ele><time>2026-04-04T10:35:26.113Z</time></trkpt><trkpt lat="41.98491" lon="12.4068517"><ele>148.66666666666666</ele><time>2026-04-04T10:35:27.115Z</time></trkpt><trkpt lat="41.9848317" lon="12.4068983"><ele>148.33333333333331</ele><time>2026-04-04T10:35:28.117Z</time></trkpt><trkpt lat="41.9847517" lon="12.4069417"><ele>148.0</ele><time>2026-04-04T10:35:29.114Z</time></trkpt><trkpt lat="41.98467" lon="12.406975"><ele>147.66666666666666</ele><time>2026-04-04T10:35:30.117Z</time></trkpt><trkpt lat="41.9845867" lon="12.4070017"><ele>147.33333333333334</ele><time>2026-04-04T10:35:31.115Z</time></trkpt><trkpt lat="41.984505" lon="12.407025"><ele>147.0</ele><time>2026-04-04T10:35:32.117Z</time></trkpt><trkpt lat="41.9844217" lon="12.4070517"><ele>147.0</ele><time>2026-04-04T10:35:33.118Z</time></trkpt><trkpt lat="41.9843333" lon="12.4070717"><ele>147.0</ele><time>2026-04-04T10:35:34.114Z</time></trkpt><trkpt lat="41.9842433" lon="12.407095"><ele>147.0</ele><time>2026-04-04T10:35:35.113Z</time></trkpt><trkpt lat="41.984155" lon="12.4071183"><ele>147.0</ele><time>2026-04-04T10:35:36.115Z</time></trkpt><trkpt lat="41.98407" lon="12.4071467"><ele>147.0</ele><time>2026-04-04T10:35:37.115Z</time></trkpt><trkpt lat="41.9839833" lon="12.4071767"><ele>147.0</ele><time>2026-04-04T10:35:38.116Z</time></trkpt><trkpt lat="41.9838983" lon="12.4072133"><ele>146.6</ele><time>2026-04-04T10:35:39.118Z</time></trkpt><trkpt lat="41.9838133" lon="12.4072417"><ele>146.2</ele><time>2026-04-04T10:35:40.117Z</time></trkpt><trkpt lat="41.9837217" lon="12.40727"><ele>145.8</ele><time>2026-04-04T10:35:41.117Z</time></trkpt><trkpt lat="41.9836233" lon="12.407295"><ele>145.4</ele><time>2026-04-04T10:35:42.116Z</time></trkpt><trkpt lat="41.9835217" lon="12.40732"><ele>145.0</ele><time>2026-04-04T10:35:43.115Z</time></trkpt><trkpt lat="41.9834267" lon="12.4073467"><ele>144.2</ele><time>2026-04-04T10:35:44.115Z</time></trkpt><trkpt lat="41.983335" lon="12.4073783"><ele>143.4</ele><time>2026-04-04T10:35:45.116Z</time></trkpt><trkpt lat="41.98324" lon="12.4074117"><ele>142.6</ele><time>2026-04-04T10:35:46.113Z</time></trkpt><trkpt lat="41.9831417" lon="12.4074467"><ele>141.8</ele><time>2026-04-04T10:35:47.114Z</time></trkpt><trkpt lat="41.9830367" lon="12.4074833"><ele>141.0</ele><time>2026-04-04T10:35:48.116Z</time></trkpt><trkpt lat="41.9829317" lon="12.4075233"><ele>141.0</ele><time>2026-04-04T10:35:49.117Z</time></trkpt><trkpt lat="41.98283" lon="12.407565"><ele>141.0</ele><time>2026-04-04T10:35:50.117Z</time></trkpt><trkpt lat="41.98273" lon="12.4076067"><ele>141.0</ele><time>2026-04-04T10:35:51.116Z</time></trkpt><trkpt lat="41.9826317" lon="12.40764"><ele>141.0</ele><time>2026-04-04T10:35:52.119Z</time></trkpt><trkpt lat="41.98254" lon="12.4076717"><ele>141.0</ele><time>2026-04-04T10:35:53.11Z</time></trkpt><trkpt lat="41.98245" lon="12.4077"><ele>140.5</ele><time>2026-04-04T10:35:54.114Z</time></trkpt><trkpt lat="41.982365" lon="12.4077217"><ele>140.0</ele><time>2026-04-04T10:35:55.116Z</time></trkpt><trkpt lat="41.9822817" lon="12.4077367"><ele>139.5</ele><time>2026-04-04T10:35:56.113Z</time></trkpt><trkpt lat="41.9822" lon="12.4077433"><ele>139.0</ele><time>2026-04-04T10:35:57.117Z</time></trkpt><trkpt lat="41.98212" lon="12.4077467"><ele>138.5</ele><time>2026-04-04T10:35:58.117Z</time></trkpt><trkpt lat="41.9820467" lon="12.4077367"><ele>138.0</ele><time>2026-04-04T10:35:59.115Z</time></trkpt><trkpt lat="41.9819833" lon="12.407705"><ele>138.0</ele><time>2026-04-04T10:36:00.114Z</time></trkpt><trkpt lat="41.9819267" lon="12.4076467"><ele>138.0</ele><time>2026-04-04T10:36:01.116Z</time></trkpt><trkpt lat="41.9818733" lon="12.4075683"><ele>138.0</ele><time>2026-04-04T10:36:02.116Z</time></trkpt><trkpt lat="41.98182" lon="12.4074783"><ele>138.0</ele><time>2026-04-04T10:36:03.116Z</time></trkpt><trkpt lat="41.9817783" lon="12.4073967"><ele>138.0</ele><time>2026-04-04T10:36:04.113Z</time></trkpt><trkpt lat="41.9817267" lon="12.4073267"><ele>138.0</ele><time>2026-04-04T10:36:05.111Z</time></trkpt><trkpt lat="41.98167" lon="12.4072567"><ele>137.66666666666666</ele><time>2026-04-04T10:36:06.115Z</time></trkpt><trkpt lat="41.9816133" lon="12.4072167"><ele>137.33333333333334</ele><time>2026-04-04T10:36:07.118Z</time></trkpt><trkpt lat="41.9815483" lon="12.407195"><ele>137.0</ele><time>2026-04-04T10:36:08.115Z</time></trkpt><trkpt lat="41.9814733" lon="12.40719"><ele>136.66666666666669</ele><time>2026-04-04T10:36:09.118Z</time></trkpt><trkpt lat="41.9813983" lon="12.4072217"><ele>136.33333333333334</ele><time>2026-04-04T10:36:10.111Z</time></trkpt><trkpt lat="41.9813233" lon="12.40727"><ele>136.0</ele><time>2026-04-04T10:36:11.114Z</time></trkpt><trkpt lat="41.9812417" lon="12.4073383"><ele>136.0</ele><time>2026-04-04T10:36:12.116Z</time></trkpt><trkpt lat="41.98115" lon="12.4074183"><ele>136.0</ele><time>2026-04-04T10:36:13.115Z</time></trkpt><trkpt lat="41.9810567" lon="12.4074967"><ele>136.0</ele><time>2026-04-04T10:36:14.115Z</time></trkpt><trkpt lat="41.9809583" lon="12.4075667"><ele>136.0</ele><time>2026-04-04T10:36:15.116Z</time></trkpt><trkpt lat="41.9808517" lon="12.4076183"><ele>136.0</ele><time>2026-04-04T10:36:16.114Z</time></trkpt><trkpt lat="41.98074" lon="12.4076517"><ele>136.75</ele><time>2026-04-04T10:36:17.117Z</time></trkpt><trkpt lat="41.980625" lon="12.4076683"><ele>137.5</ele><time>2026-04-04T10:36:18.116Z</time></trkpt><trkpt lat="41.9805067" lon="12.4076717"><ele>138.25</ele><time>2026-04-04T10:36:19.116Z</time></trkpt><trkpt lat="41.9803833" lon="12.4076717"><ele>139.0</ele><time>2026-04-04T10:36:20.118Z</time></trkpt><trkpt lat="41.9802617" lon="12.40767"><ele>139.0</ele><time>2026-04-04T10:36:21.115Z</time></trkpt><trkpt lat="41.9801383" lon="12.4076667"><ele>139.0</ele><time>2026-04-04T10:36:22.115Z</time></trkpt><trkpt lat="41.980015" lon="12.4076633"><ele>139.0</ele><time>2026-04-04T10:36:23.114Z</time></trkpt><trkpt lat="41.9798883" lon="12.4076567"><ele>139.0</ele><time>2026-04-04T10:36:24.118Z</time></trkpt><trkpt lat="41.9797583" lon="12.40765"><ele>139.5</ele><time>2026-04-04T10:36:25.119Z</time></trkpt><trkpt lat="41.979635" lon="12.4076433"><ele>140.0</ele><time>2026-04-04T10:36:26.115Z</time></trkpt><trkpt lat="41.9795117" lon="12.4076333"><ele>140.5</ele><time>2026-04-04T10:36:27.117Z</time></trkpt><trkpt lat="41.97939" lon="12.40762"><ele>141.0</ele><time>2026-04-04T10:36:28.113Z</time></trkpt><trkpt lat="41.9792567" lon="12.40761"><ele>140.5</ele><time>2026-04-04T10:36:29.115Z</time></trkpt><trkpt lat="41.97912" lon="12.4075967"><ele>140.0</ele><time>2026-04-04T10:36:30.115Z</time></trkpt><trkpt lat="41.978975" lon="12.4075867"><ele>139.5</ele><time>2026-04-04T10:36:31.117Z</time></trkpt><trkpt lat="41.97882" lon="12.407585"><ele>139.0</ele><time>2026-04-04T10:36:32.115Z</time></trkpt><trkpt lat="41.9786667" lon="12.407585"><ele>139.0</ele><time>2026-04-04T10:36:33.118Z</time></trkpt><trkpt lat="41.9785133" lon="12.4075817"><ele>139.0</ele><time>2026-04-04T10:36:34.115Z</time></trkpt><trkpt lat="41.9783583" lon="12.4075717"><ele>139.0</ele><time>2026-04-04T10:36:35.116Z</time></trkpt><trkpt lat="41.9781983" lon="12.4075583"><ele>138.33333333333334</ele><time>2026-04-04T10:36:36.118Z</time></trkpt><trkpt lat="41.9780367" lon="12.40754"><ele>137.66666666666666</ele><time>2026-04-04T10:36:37.112Z</time></trkpt><trkpt lat="41.9778767" lon="12.4075167"><ele>137.0</ele><time>2026-04-04T10:36:38.114Z</time></trkpt><trkpt lat="41.97772" lon="12.4074917"><ele>137.0</ele><time>2026-04-04T10:36:39.114Z</time></trkpt><trkpt lat="41.9775617" lon="12.4074633"><ele>137.0</ele><time>2026-04-04T10:36:40.117Z</time></trkpt><trkpt lat="41.977405" lon="12.4074333"><ele>137.0</ele><time>2026-04-04T10:36:41.116Z</time></trkpt><trkpt lat="41.9772417" lon="12.4074167"><ele>137.33333333333331</ele><time>2026-04-04T10:36:42.118Z</time></trkpt><trkpt lat="41.9770783" lon="12.4074033"><ele>137.66666666666666</ele><time>2026-04-04T10:36:43.116Z</time></trkpt><trkpt lat="41.976915" lon="12.4073983"><ele>138.0</ele><time>2026-04-04T10:36:44.118Z</time></trkpt><trkpt lat="41.9767617" lon="12.4073983"><ele>138.66666666666666</ele><time>2026-04-04T10:36:45.115Z</time></trkpt><trkpt lat="41.9766083" lon="12.4074"><ele>139.33333333333331</ele><time>2026-04-04T10:36:46.114Z</time></trkpt><trkpt lat="41.9764567" lon="12.4074033"><ele>140.0</ele><time>2026-04-04T10:36:47.115Z</time></trkpt><trkpt lat="41.9762983" lon="12.4074133"><ele>140.0</ele><time>2026-04-04T10:36:48.115Z</time></trkpt><trkpt lat="41.9761367" lon="12.4074233"><ele>140.0</ele><time>2026-04-04T10:36:49.116Z</time></trkpt><trkpt lat="41.97598" lon="12.4074317"><ele>140.0</ele><time>2026-04-04T10:36:50.117Z</time></trkpt><trkpt lat="41.9758217" lon="12.4074383"><ele>140.0</ele><time>2026-04-04T10:36:51.114Z</time></trkpt><trkpt lat="41.975665" lon="12.407435"><ele>140.0</ele><time>2026-04-04T10:36:52.117Z</time></trkpt><trkpt lat="41.9755183" lon="12.4074317"><ele>140.0</ele><time>2026-04-04T10:36:53.114Z</time></trkpt><trkpt lat="41.9753783" lon="12.407425"><ele>140.0</ele><time>2026-04-04T10:36:54.118Z</time></trkpt><trkpt lat="41.9752467" lon="12.40742"><ele>140.0</ele><time>2026-04-04T10:36:55.117Z</time></trkpt><trkpt lat="41.9751217" lon="12.4074167"><ele>140.0</ele><time>2026-04-04T10:36:56.114Z</time></trkpt><trkpt lat="41.9749983" lon="12.4074117"><ele>140.0</ele><time>2026-04-04T10:36:57.115Z</time></trkpt><trkpt lat="41.9748667" lon="12.4074033"><ele>140.0</ele><time>2026-04-04T10:36:58.116Z</time></trkpt><trkpt lat="41.9747217" lon="12.4073967"><ele>140.75</ele><time>2026-04-04T10:36:59.116Z</time></trkpt><trkpt lat="41.9745767" lon="12.4073917"><ele>141.5</ele><time>2026-04-04T10:37:00.114Z</time></trkpt><trkpt lat="41.9744333" lon="12.4073917"><ele>142.25</ele><time>2026-04-04T10:37:01.115Z</time></trkpt><trkpt lat="41.9742933" lon="12.4073917"><ele>143.0</ele><time>2026-04-04T10:37:02.115Z</time></trkpt><trkpt lat="41.9741583" lon="12.40739"><ele>143.5</ele><time>2026-04-04T10:37:03.121Z</time></trkpt><trkpt lat="41.97403" lon="12.4073883"><ele>144.0</ele><time>2026-04-04T10:37:04.114Z</time></trkpt><trkpt lat="41.9739033" lon="12.4073833"><ele>144.5</ele><time>2026-04-04T10:37:05.115Z</time></trkpt><trkpt lat="41.9737783" lon="12.40738"><ele>145.0</ele><time>2026-04-04T10:37:06.118Z</time></trkpt><trkpt lat="41.973655" lon="12.40737"><ele>145.0</ele><time>2026-04-04T10:37:07.117Z</time></trkpt><trkpt lat="41.973535" lon="12.4073517"><ele>145.0</ele><time>2026-04-04T10:37:08.117Z</time></trkpt><trkpt lat="41.9734283" lon="12.40732"><ele>145.0</ele><time>2026-04-04T10:37:09.117Z</time></trkpt><trkpt lat="41.9733283" lon="12.4072733"><ele>145.0</ele><time>2026-04-04T10:37:10.116Z</time></trkpt><trkpt lat="41.973245" lon="12.407225"><ele>145.0</ele><time>2026-04-04T10:37:11.114Z</time></trkpt><trkpt lat="41.9731783" lon="12.407175"><ele>144.16666666666669</ele><time>2026-04-04T10:37:12.116Z</time></trkpt><trkpt lat="41.9731233" lon="12.4071333"><ele>143.33333333333334</ele><time>2026-04-04T10:37:13.116Z</time></trkpt><trkpt lat="41.9730467" lon="12.4070733"><ele>142.5</ele><time>2026-04-04T10:37:15.117Z</time></trkpt><trkpt lat="41.9729567" lon="12.407025"><ele>141.66666666666666</ele><time>2026-04-04T10:37:17.115Z</time></trkpt><trkpt lat="41.9728283" lon="12.4070067"><ele>140.83333333333331</ele><time>2026-04-04T10:37:19.117Z</time></trkpt><trkpt lat="41.9727633" lon="12.4070233"><ele>140.0</ele><time>2026-04-04T10:37:20.114Z</time></trkpt><trkpt lat="41.972695" lon="12.40706"><ele>140.0</ele><time>2026-04-04T10:37:21.119Z</time></trkpt><trkpt lat="41.97262" lon="12.4071167"><ele>140.0</ele><time>2026-04-04T10:37:22.115Z</time></trkpt><trkpt lat="41.9725383" lon="12.4071733"><ele>140.0</ele><time>2026-04-04T10:37:23.115Z</time></trkpt><trkpt lat="41.972435" lon="12.40723"><ele>140.0</ele><time>2026-04-04T10:37:24.117Z</time></trkpt><trkpt lat="41.972315" lon="12.4072767"><ele>140.0</ele><time>2026-04-04T10:37:25.118Z</time></trkpt><trkpt lat="41.9721867" lon="12.407325"><ele>141.0</ele><time>2026-04-04T10:37:26.114Z</time></trkpt><trkpt lat="41.9720517" lon="12.4073717"><ele>142.0</ele><time>2026-04-04T10:37:27.117Z</time></trkpt><trkpt lat="41.9718967" lon="12.4074267"><ele>143.0</ele><time>2026-04-04T10:37:28.109Z</time></trkpt><trkpt lat="41.9717317" lon="12.407485"><ele>140.0</ele><time>2026-04-04T10:37:29.115Z</time></trkpt><trkpt lat="41.9715633" lon="12.4075417"><ele>137.0</ele><time>2026-04-04T10:37:30.115Z</time></trkpt><trkpt lat="41.971395" lon="12.4076033"><ele>134.0</ele><time>2026-04-04T10:37:31.114Z</time></trkpt><trkpt lat="41.9712233" lon="12.4076633"><ele>134.0</ele><time>2026-04-04T10:37:32.116Z</time></trkpt><trkpt lat="41.97106" lon="12.40772"><ele>134.0</ele><time>2026-04-04T10:37:33.115Z</time></trkpt><trkpt lat="41.9709017" lon="12.4077717"><ele>134.0</ele><time>2026-04-04T10:37:34.113Z</time></trkpt><trkpt lat="41.9707433" lon="12.4078233"><ele>132.0</ele><time>2026-04-04T10:37:35.113Z</time></trkpt><trkpt lat="41.970585" lon="12.4078683"><ele>130.0</ele><time>2026-04-04T10:37:36.115Z</time></trkpt><trkpt lat="41.9704317" lon="12.4079017"><ele>128.0</ele><time>2026-04-04T10:37:37.115Z</time></trkpt><trkpt lat="41.970285" lon="12.40793"><ele>128.0</ele><time>2026-04-04T10:37:38.116Z</time></trkpt><trkpt lat="41.9701517" lon="12.4079483"><ele>128.0</ele><time>2026-04-04T10:37:39.114Z</time></trkpt><trkpt lat="41.9700283" lon="12.4079433"><ele>128.0</ele><time>2026-04-04T10:37:40.116Z</time></trkpt><trkpt lat="41.9699133" lon="12.4079117"><ele>128.0</ele><time>2026-04-04T10:37:41.114Z</time></trkpt><trkpt lat="41.9698033" lon="12.4078517"><ele>129.25</ele><time>2026-04-04T10:37:42.116Z</time></trkpt><trkpt lat="41.9696983" lon="12.407765"><ele>130.5</ele><time>2026-04-04T10:37:43.112Z</time></trkpt><trkpt lat="41.96961" lon="12.4076567"><ele>131.75</ele><time>2026-04-04T10:37:44.118Z</time></trkpt><trkpt lat="41.9695317" lon="12.4075333"><ele>133.0</ele><time>2026-04-04T10:37:45.117Z</time></trkpt><trkpt lat="41.9694467" lon="12.407415"><ele>133.0</ele><time>2026-04-04T10:37:46.116Z</time></trkpt><trkpt lat="41.9693517" lon="12.407325"><ele>133.0</ele><time>2026-04-04T10:37:47.111Z</time></trkpt><trkpt lat="41.969245" lon="12.4072567"><ele>133.0</ele><time>2026-04-04T10:37:48.117Z</time></trkpt><trkpt lat="41.9691283" lon="12.4072017"><ele>133.0</ele><time>2026-04-04T10:37:49.119Z</time></trkpt><trkpt lat="41.9690067" lon="12.4071783"><ele>133.5</ele><time>2026-04-04T10:37:50.118Z</time></trkpt><trkpt lat="41.9688833" lon="12.4071783"><ele>134.0</ele><time>2026-04-04T10:37:51.116Z</time></trkpt><trkpt lat="41.9687567" lon="12.407205"><ele>134.5</ele><time>2026-04-04T10:37:52.11Z</time></trkpt><trkpt lat="41.96863" lon="12.4072483"><ele>135.0</ele><time>2026-04-04T10:37:53.116Z</time></trkpt><trkpt lat="41.968495" lon="12.407305"><ele>134.33333333333334</ele><time>2026-04-04T10:37:54.115Z</time></trkpt><trkpt lat="41.9683517" lon="12.40737"><ele>133.66666666666669</ele><time>2026-04-04T10:37:55.114Z</time></trkpt><trkpt lat="41.9682" lon="12.4074433"><ele>133.0</ele><time>2026-04-04T10:37:56.114Z</time></trkpt><trkpt lat="41.9680517" lon="12.4075117"><ele>133.0</ele><time>2026-04-04T10:37:57.114Z</time></trkpt><trkpt lat="41.96791" lon="12.4075783"><ele>133.0</ele><time>2026-04-04T10:37:58.117Z</time></trkpt><trkpt lat="41.9677733" lon="12.4076383"><ele>133.0</ele><time>2026-04-04T10:37:59.115Z</time></trkpt><trkpt lat="41.967635" lon="12.4077"><ele>133.0</ele><time>2026-04-04T10:38:00.114Z</time></trkpt><trkpt lat="41.9674967" lon="12.40776"><ele>131.25</ele><time>2026-04-04T10:38:01.109Z</time></trkpt><trkpt lat="41.967365" lon="12.4078167"><ele>129.5</ele><time>2026-04-04T10:38:02.112Z</time></trkpt><trkpt lat="41.9672317" lon="12.4078583"><ele>127.75</ele><time>2026-04-04T10:38:03.119Z</time></trkpt><trkpt lat="41.967105" lon="12.4078833"><ele>126.0</ele><time>2026-04-04T10:38:04.115Z</time></trkpt><trkpt lat="41.9669817" lon="12.40788"><ele>126.0</ele><time>2026-04-04T10:38:05.116Z</time></trkpt><trkpt lat="41.9668517" lon="12.40786"><ele>126.0</ele><time>2026-04-04T10:38:06.108Z</time></trkpt><trkpt lat="41.9667217" lon="12.4078317"><ele>126.0</ele><time>2026-04-04T10:38:07.116Z</time></trkpt><trkpt lat="41.9666033" lon="12.4078067"><ele>126.0</ele><time>2026-04-04T10:38:08.119Z</time></trkpt><trkpt lat="41.9664983" lon="12.40778"><ele>126.6</ele><time>2026-04-04T10:38:09.108Z</time></trkpt><trkpt lat="41.9664017" lon="12.4077533"><ele>127.19999999999999</ele><time>2026-04-04T10:38:10.116Z</time></trkpt><trkpt lat="41.9663117" lon="12.4077183"><ele>127.80000000000001</ele><time>2026-04-04T10:38:11.114Z</time></trkpt><trkpt lat="41.9662383" lon="12.407685"><ele>128.4</ele><time>2026-04-04T10:38:12.116Z</time></trkpt><trkpt lat="41.9661333" lon="12.407655"><ele>129.0</ele><time>2026-04-04T10:38:14.11Z</time></trkpt><trkpt lat="41.9659967" lon="12.407625"><ele>129.0</ele><time>2026-04-04T10:38:23.116Z</time></trkpt><trkpt lat="41.96587" lon="12.4076817"><ele>129.0</ele><time>2026-04-04T10:38:25.117Z</time></trkpt><trkpt lat="41.965795" lon="12.407745"><ele>129.0</ele><time>2026-04-04T10:38:26.112Z</time></trkpt><trkpt lat="41.9657283" lon="12.40784"><ele>129.0</ele><time>2026-04-04T10:38:27.119Z</time></trkpt><trkpt lat="41.9656533" lon="12.4079617"><ele>129.0</ele><time>2026-04-04T10:38:28.116Z</time></trkpt><trkpt lat="41.9655767" lon="12.4081067"><ele>130.0</ele><time>2026-04-04T10:38:29.116Z</time></trkpt><trkpt lat="41.9654967" lon="12.408265"><ele>131.0</ele><time>2026-04-04T10:38:30.116Z</time></trkpt><trkpt lat="41.965425" lon="12.40842"><ele>132.0</ele><time>2026-04-04T10:38:31.114Z</time></trkpt><trkpt lat="41.965365" lon="12.4085667"><ele>133.0</ele><time>2026-04-04T10:38:32.114Z</time></trkpt><trkpt lat="41.965315" lon="12.40871"><ele>133.0</ele><time>2026-04-04T10:38:33.116Z</time></trkpt><trkpt lat="41.965265" lon="12.40882"><ele>133.0</ele><time>2026-04-04T10:38:34.114Z</time></trkpt><trkpt lat="41.9652083" lon="12.4089067"><ele>133.0</ele><time>2026-04-04T10:38:35.114Z</time></trkpt><trkpt lat="41.9651383" lon="12.4089583"><ele>133.0</ele><time>2026-04-04T10:38:36.118Z</time></trkpt><trkpt lat="41.9650383" lon="12.4089917"><ele>133.0</ele><time>2026-04-04T10:38:37.117Z</time></trkpt><trkpt lat="41.964915" lon="12.4090083"><ele>134.0</ele><time>2026-04-04T10:38:38.112Z</time></trkpt><trkpt lat="41.9647917" lon="12.4090117"><ele>135.0</ele><time>2026-04-04T10:38:39.117Z</time></trkpt><trkpt lat="41.96467" lon="12.4090133"><ele>136.0</ele><time>2026-04-04T10:38:40.118Z</time></trkpt><trkpt lat="41.96454" lon="12.4090133"><ele>137.0</ele><time>2026-04-04T10:38:41.114Z</time></trkpt><trkpt lat="41.964405" lon="12.409"><ele>137.0</ele><time>2026-04-04T10:38:42.116Z</time></trkpt><trkpt lat="41.9642633" lon="12.4089683"><ele>137.0</ele><time>2026-04-04T10:38:43.116Z</time></trkpt><trkpt lat="41.964115" lon="12.4089183"><ele>137.0</ele><time>2026-04-04T10:38:44.119Z</time></trkpt><trkpt lat="41.9639583" lon="12.408865"><ele>136.66666666666666</ele><time>2026-04-04T10:38:45.118Z</time></trkpt><trkpt lat="41.9637967" lon="12.4088267"><ele>136.33333333333334</ele><time>2026-04-04T10:38:46.114Z</time></trkpt><trkpt lat="41.9636383" lon="12.408795"><ele>136.0</ele><time>2026-04-04T10:38:47.115Z</time></trkpt><trkpt lat="41.9634767" lon="12.4087617"><ele>137.33333333333334</ele><time>2026-04-04T10:38:48.115Z</time></trkpt><trkpt lat="41.96331" lon="12.40873"><ele>138.66666666666666</ele><time>2026-04-04T10:38:49.117Z</time></trkpt><trkpt lat="41.9631483" lon="12.4087017"><ele>140.0</ele><time>2026-04-04T10:38:50.116Z</time></trkpt><trkpt lat="41.96299" lon="12.4086833"><ele>140.0</ele><time>2026-04-04T10:38:51.118Z</time></trkpt><trkpt lat="41.9628383" lon="12.4086667"><ele>140.0</ele><time>2026-04-04T10:38:52.114Z</time></trkpt><trkpt lat="41.9626933" lon="12.408645"><ele>140.0</ele><time>2026-04-04T10:38:53.116Z</time></trkpt><trkpt lat="41.96255" lon="12.4086517"><ele>140.0</ele><time>2026-04-04T10:38:54.113Z</time></trkpt><trkpt lat="41.9624183" lon="12.4086733"><ele>139.75</ele><time>2026-04-04T10:38:55.11Z</time></trkpt><trkpt lat="41.9622883" lon="12.4087233"><ele>139.5</ele><time>2026-04-04T10:38:56.116Z</time></trkpt><trkpt lat="41.9621617" lon="12.4088067"><ele>139.25</ele><time>2026-04-04T10:38:57.114Z</time></trkpt><trkpt lat="41.9620383" lon="12.4089"><ele>139.0</ele><time>2026-04-04T10:38:58.118Z</time></trkpt><trkpt lat="41.9619167" lon="12.409005"><ele>138.75</ele><time>2026-04-04T10:38:59.114Z</time></trkpt><trkpt lat="41.961785" lon="12.409115"><ele>138.5</ele><time>2026-04-04T10:39:00.112Z</time></trkpt><trkpt lat="41.9616583" lon="12.4092267"><ele>138.25</ele><time>2026-04-04T10:39:01.109Z</time></trkpt><trkpt lat="41.9615467" lon="12.409335"><ele>138.0</ele><time>2026-04-04T10:39:02.115Z</time></trkpt><trkpt lat="41.96144" lon="12.40944"><ele>138.0</ele><time>2026-04-04T10:39:03.118Z</time></trkpt><trkpt lat="41.9613417" lon="12.409535"><ele>138.0</ele><time>2026-04-04T10:39:04.118Z</time></trkpt><trkpt lat="41.9612467" lon="12.40963"><ele>138.0</ele><time>2026-04-04T10:39:05.116Z</time></trkpt><trkpt lat="41.961155" lon="12.4097133"><ele>138.0</ele><time>2026-04-04T10:39:06.113Z</time></trkpt><trkpt lat="41.961075" lon="12.4098067"><ele>138.0</ele><time>2026-04-04T10:39:07.117Z</time></trkpt><trkpt lat="41.960995" lon="12.4099"><ele>138.0</ele><time>2026-04-04T10:39:08.115Z</time></trkpt><trkpt lat="41.9609233" lon="12.4099917"><ele>138.0</ele><time>2026-04-04T10:39:09.117Z</time></trkpt><trkpt lat="41.9608567" lon="12.4100817"><ele>138.0</ele><time>2026-04-04T10:39:10.114Z</time></trkpt><trkpt lat="41.9607867" lon="12.4101667"><ele>138.0</ele><time>2026-04-04T10:39:11.115Z</time></trkpt><trkpt lat="41.9607133" lon="12.41026"><ele>138.0</ele><time>2026-04-04T10:39:12.117Z</time></trkpt><trkpt lat="41.9606433" lon="12.4103517"><ele>138.0</ele><time>2026-04-04T10:39:13.112Z</time></trkpt><trkpt lat="41.9605767" lon="12.4104383"><ele>138.0</ele><time>2026-04-04T10:39:14.114Z</time></trkpt><trkpt lat="41.9605117" lon="12.41052"><ele>138.0</ele><time>2026-04-04T10:39:15.114Z</time></trkpt><trkpt lat="41.9604483" lon="12.410595"><ele>138.0</ele><time>2026-04-04T10:39:16.117Z</time></trkpt><trkpt lat="41.9603867" lon="12.4106683"><ele>138.0</ele><time>2026-04-04T10:39:17.113Z</time></trkpt><trkpt lat="41.9603283" lon="12.4107467"><ele>138.0</ele><time>2026-04-04T10:39:18.114Z</time></trkpt><trkpt lat="41.9602667" lon="12.4108317"><ele>138.0</ele><time>2026-04-04T10:39:19.116Z</time></trkpt><trkpt lat="41.9602033" lon="12.4109217"><ele>138.0</ele><time>2026-04-04T10:39:20.115Z</time></trkpt><trkpt lat="41.9601367" lon="12.4110117"><ele>138.0</ele><time>2026-04-04T10:39:21.119Z</time></trkpt><trkpt lat="41.9600767" lon="12.4110933"><ele>138.0</ele><time>2026-04-04T10:39:22.114Z</time></trkpt><trkpt lat="41.9600233" lon="12.4111783"><ele>138.0</ele><time>2026-04-04T10:39:23.116Z</time></trkpt><trkpt lat="41.9599683" lon="12.41126"><ele>138.83333333333334</ele><time>2026-04-04T10:39:24.115Z</time></trkpt><trkpt lat="41.9599117" lon="12.4113367"><ele>139.66666666666666</ele><time>2026-04-04T10:39:25.116Z</time></trkpt><trkpt lat="41.9598583" lon="12.4114167"><ele>140.5</ele><time>2026-04-04T10:39:26.116Z</time></trkpt><trkpt lat="41.9597983" lon="12.4114983"><ele>141.33333333333331</ele><time>2026-04-04T10:39:27.115Z</time></trkpt><trkpt lat="41.959735" lon="12.4115917"><ele>142.16666666666666</ele><time>2026-04-04T10:39:28.116Z</time></trkpt><trkpt lat="41.95966" lon="12.4116883"><ele>143.0</ele><time>2026-04-04T10:39:29.116Z</time></trkpt><trkpt lat="41.9595833" lon="12.4117767"><ele>143.0</ele><time>2026-04-04T10:39:30.117Z</time></trkpt><trkpt lat="41.9595" lon="12.4118633"><ele>143.0</ele><time>2026-04-04T10:39:31.116Z</time></trkpt><trkpt lat="41.9594083" lon="12.4119417"><ele>143.0</ele><time>2026-04-04T10:39:32.118Z</time></trkpt><trkpt lat="41.9593033" lon="12.4120067"><ele>143.0</ele><time>2026-04-04T10:39:33.119Z</time></trkpt><trkpt lat="41.9591867" lon="12.4120717"><ele>142.75</ele><time>2026-04-04T10:39:34.113Z</time></trkpt><trkpt lat="41.9590667" lon="12.4121383"><ele>142.5</ele><time>2026-04-04T10:39:35.119Z</time></trkpt><trkpt lat="41.958955" lon="12.4121817"><ele>142.25</ele><time>2026-04-04T10:39:36.118Z</time></trkpt><trkpt lat="41.9588517" lon="12.4122217"><ele>142.0</ele><time>2026-04-04T10:39:37.115Z</time></trkpt><trkpt lat="41.9587533" lon="12.4122733"><ele>141.4</ele><time>2026-04-04T10:39:38.113Z</time></trkpt><trkpt lat="41.9586583" lon="12.4123083"><ele>140.79999999999998</ele><time>2026-04-04T10:39:39.115Z</time></trkpt><trkpt lat="41.958565" lon="12.4123283"><ele>140.2</ele><time>2026-04-04T10:39:40.115Z</time></trkpt><trkpt lat="41.9584767" lon="12.4123417"><ele>139.6</ele><time>2026-04-04T10:39:41.115Z</time></trkpt><trkpt lat="41.9583833" lon="12.4123617"><ele>139.0</ele><time>2026-04-04T10:39:42.116Z</time></trkpt><trkpt lat="41.9582967" lon="12.4123717"><ele>138.66666666666669</ele><time>2026-04-04T10:39:43.116Z</time></trkpt><trkpt lat="41.9582183" lon="12.41238"><ele>138.33333333333334</ele><time>2026-04-04T10:39:44.114Z</time></trkpt><trkpt lat="41.95815" lon="12.4123867"><ele>138.0</ele><time>2026-04-04T10:39:45.116Z</time></trkpt><trkpt lat="41.9580783" lon="12.4123933"><ele>137.66666666666666</ele><time>2026-04-04T10:39:46.114Z</time></trkpt><trkpt lat="41.9580083" lon="12.4123983"><ele>137.33333333333331</ele><time>2026-04-04T10:39:47.114Z</time></trkpt><trkpt lat="41.957945" lon="12.4124033"><ele>137.0</ele><time>2026-04-04T10:39:48.115Z</time></trkpt><trkpt lat="41.9578283" lon="12.4124083"><ele>137.0</ele><time>2026-04-04T10:39:50.116Z</time></trkpt><trkpt lat="41.9577617" lon="12.4123983"><ele>137.0</ele><time>2026-04-04T10:39:52.115Z</time></trkpt><trkpt lat="41.9576783" lon="12.4123867"><ele>137.0</ele><time>2026-04-04T10:39:55.116Z</time></trkpt><trkpt lat="41.957565" lon="12.4124067"><ele>137.0</ele><time>2026-04-04T10:39:57.114Z</time></trkpt><trkpt lat="41.9575" lon="12.4124183"><ele>137.0</ele><time>2026-04-04T10:39:58.118Z</time></trkpt><trkpt lat="41.9574167" lon="12.4124217"><ele>137.0</ele><time>2026-04-04T10:39:59.115Z</time></trkpt><trkpt lat="41.9573283" lon="12.412425"><ele>136.66666666666666</ele><time>2026-04-04T10:40:00.117Z</time></trkpt><trkpt lat="41.9572517" lon="12.4124317"><ele>136.33333333333331</ele><time>2026-04-04T10:40:01.116Z</time></trkpt><trkpt lat="41.957175" lon="12.4124383"><ele>136.0</ele><time>2026-04-04T10:40:02.114Z</time></trkpt><trkpt lat="41.9571" lon="12.4124417"><ele>135.66666666666666</ele><time>2026-04-04T10:40:03.116Z</time></trkpt><trkpt lat="41.9570283" lon="12.4124433"><ele>135.33333333333334</ele><time>2026-04-04T10:40:04.115Z</time></trkpt><trkpt lat="41.95695" lon="12.4124433"><ele>135.0</ele><time>2026-04-04T10:40:05.115Z</time></trkpt><trkpt lat="41.9568583" lon="12.412445"><ele>135.0</ele><time>2026-04-04T10:40:06.115Z</time></trkpt><trkpt lat="41.956765" lon="12.41245"><ele>135.0</ele><time>2026-04-04T10:40:07.113Z</time></trkpt><trkpt lat="41.9566617" lon="12.4124583"><ele>135.0</ele><time>2026-04-04T10:40:08.115Z</time></trkpt><trkpt lat="41.9565517" lon="12.4124667"><ele>135.0</ele><time>2026-04-04T10:40:09.111Z</time></trkpt><trkpt lat="41.9564433" lon="12.4124717"><ele>135.0</ele><time>2026-04-04T10:40:10.117Z</time></trkpt><trkpt lat="41.95633" lon="12.4124683"><ele>135.0</ele><time>2026-04-04T10:40:11.115Z</time></trkpt><trkpt lat="41.9562167" lon="12.4124667"><ele>135.0</ele><time>2026-04-04T10:40:12.114Z</time></trkpt><trkpt lat="41.9561017" lon="12.41246"><ele>135.0</ele><time>2026-04-04T10:40:13.116Z</time></trkpt><trkpt lat="41.9559817" lon="12.4124467"><ele>135.0</ele><time>2026-04-04T10:40:14.117Z</time></trkpt><trkpt lat="41.9558617" lon="12.412425"><ele>134.25</ele><time>2026-04-04T10:40:15.117Z</time></trkpt><trkpt lat="41.955735" lon="12.4123983"><ele>133.5</ele><time>2026-04-04T10:40:16.116Z</time></trkpt><trkpt lat="41.9556067" lon="12.4123667"><ele>132.75</ele><time>2026-04-04T10:40:17.114Z</time></trkpt><trkpt lat="41.9554717" lon="12.4123367"><ele>132.0</ele><time>2026-04-04T10:40:18.115Z</time></trkpt><trkpt lat="41.9553417" lon="12.4123"><ele>132.0</ele><time>2026-04-04T10:40:19.114Z</time></trkpt><trkpt lat="41.95521" lon="12.4122683"><ele>132.0</ele><time>2026-04-04T10:40:20.114Z</time></trkpt><trkpt lat="41.9550817" lon="12.4122383"><ele>132.0</ele><time>2026-04-04T10:40:21.114Z</time></trkpt><trkpt lat="41.954955" lon="12.4122083"><ele>132.0</ele><time>2026-04-04T10:40:22.116Z</time></trkpt><trkpt lat="41.95483" lon="12.4121833"><ele>131.5</ele><time>2026-04-04T10:40:23.118Z</time></trkpt><trkpt lat="41.9547017" lon="12.412155"><ele>131.0</ele><time>2026-04-04T10:40:24.117Z</time></trkpt><trkpt lat="41.9545783" lon="12.4121317"><ele>130.5</ele><time>2026-04-04T10:40:25.115Z</time></trkpt><trkpt lat="41.9544567" lon="12.412105"><ele>130.0</ele><time>2026-04-04T10:40:26.116Z</time></trkpt><trkpt lat="41.95433" lon="12.4120783"><ele>129.5</ele><time>2026-04-04T10:40:27.116Z</time></trkpt><trkpt lat="41.9542017" lon="12.4120567"><ele>129.0</ele><time>2026-04-04T10:40:28.117Z</time></trkpt><trkpt lat="41.95407" lon="12.4120433"><ele>128.5</ele><time>2026-04-04T10:40:29.116Z</time></trkpt><trkpt lat="41.95394" lon="12.4120367"><ele>128.0</ele><time>2026-04-04T10:40:30.117Z</time></trkpt><trkpt lat="41.9538067" lon="12.412035"><ele>128.0</ele><time>2026-04-04T10:40:31.116Z</time></trkpt><trkpt lat="41.9536767" lon="12.4120383"><ele>128.0</ele><time>2026-04-04T10:40:32.114Z</time></trkpt><trkpt lat="41.9535467" lon="12.4120467"><ele>128.0</ele><time>2026-04-04T10:40:33.119Z</time></trkpt><trkpt lat="41.953415" lon="12.41206"><ele>128.0</ele><time>2026-04-04T10:40:34.114Z</time></trkpt><trkpt lat="41.9532783" lon="12.412075"><ele>128.25</ele><time>2026-04-04T10:40:35.115Z</time></trkpt><trkpt lat="41.9531433" lon="12.412085"><ele>128.5</ele><time>2026-04-04T10:40:36.115Z</time></trkpt><trkpt lat="41.9530067" lon="12.412105"><ele>128.75</ele><time>2026-04-04T10:40:37.114Z</time></trkpt><trkpt lat="41.9528683" lon="12.4121283"><ele>129.0</ele><time>2026-04-04T10:40:38.112Z</time></trkpt><trkpt lat="41.9527417" lon="12.4121517"><ele>129.25</ele><time>2026-04-04T10:40:39.118Z</time></trkpt><trkpt lat="41.95262" lon="12.4121783"><ele>129.5</ele><time>2026-04-04T10:40:40.114Z</time></trkpt><trkpt lat="41.9524867" lon="12.41221"><ele>129.75</ele><time>2026-04-04T10:40:41.11Z</time></trkpt><trkpt lat="41.9523467" lon="12.4122433"><ele>130.0</ele><time>2026-04-04T10:40:42.116Z</time></trkpt><trkpt lat="41.95221" lon="12.412275"><ele>130.0</ele><time>2026-04-04T10:40:43.116Z</time></trkpt><trkpt lat="41.9520833" lon="12.4123033"><ele>130.0</ele><time>2026-04-04T10:40:44.115Z</time></trkpt><trkpt lat="41.9519533" lon="12.4123267"><ele>130.0</ele><time>2026-04-04T10:40:45.114Z</time></trkpt><trkpt lat="41.9518233" lon="12.4123517"><ele>130.0</ele><time>2026-04-04T10:40:46.112Z</time></trkpt><trkpt lat="41.95169" lon="12.412365"><ele>129.75</ele><time>2026-04-04T10:40:47.116Z</time></trkpt><trkpt lat="41.9515583" lon="12.4123683"><ele>129.5</ele><time>2026-04-04T10:40:48.113Z</time></trkpt><trkpt lat="41.951435" lon="12.4123633"><ele>129.25</ele><time>2026-04-04T10:40:49.117Z</time></trkpt><trkpt lat="41.9513133" lon="12.412355"><ele>129.0</ele><time>2026-04-04T10:40:50.117Z</time></trkpt><trkpt lat="41.951195" lon="12.412355"><ele>129.0</ele><time>2026-04-04T10:40:51.113Z</time></trkpt><trkpt lat="41.9510867" lon="12.4123533"><ele>129.0</ele><time>2026-04-04T10:40:52.115Z</time></trkpt><trkpt lat="41.9509783" lon="12.4123517"><ele>129.0</ele><time>2026-04-04T10:40:53.116Z</time></trkpt><trkpt lat="41.9508733" lon="12.4123683"><ele>129.0</ele><time>2026-04-04T10:40:54.115Z</time></trkpt><trkpt lat="41.9507683" lon="12.412395"><ele>129.0</ele><time>2026-04-04T10:40:55.116Z</time></trkpt><trkpt lat="41.9506633" lon="12.4124283"><ele>129.0</ele><time>2026-04-04T10:40:56.114Z</time></trkpt><trkpt lat="41.9505617" lon="12.4124783"><ele>129.0</ele><time>2026-04-04T10:40:57.115Z</time></trkpt><trkpt lat="41.9504667" lon="12.412535"><ele>129.0</ele><time>2026-04-04T10:40:58.116Z</time></trkpt><trkpt lat="41.9503867" lon="12.4126033"><ele>129.0</ele><time>2026-04-04T10:40:59.116Z</time></trkpt><trkpt lat="41.9503083" lon="12.4126833"><ele>129.0</ele><time>2026-04-04T10:41:00.117Z</time></trkpt><trkpt lat="41.9502333" lon="12.4127717"><ele>129.0</ele><time>2026-04-04T10:41:01.111Z</time></trkpt><trkpt lat="41.9501583" lon="12.4128683"><ele>129.0</ele><time>2026-04-04T10:41:02.116Z</time></trkpt><trkpt lat="41.950085" lon="12.4129633"><ele>129.0</ele><time>2026-04-04T10:41:03.119Z</time></trkpt><trkpt lat="41.95001" lon="12.4130483"><ele>129.0</ele><time>2026-04-04T10:41:04.115Z</time></trkpt><trkpt lat="41.9499417" lon="12.4131333"><ele>129.0</ele><time>2026-04-04T10:41:05.115Z</time></trkpt><trkpt lat="41.9498717" lon="12.4132167"><ele>128.66666666666666</ele><time>2026-04-04T10:41:06.112Z</time></trkpt><trkpt lat="41.9498017" lon="12.4132983"><ele>128.33333333333334</ele><time>2026-04-04T10:41:07.113Z</time></trkpt><trkpt lat="41.949735" lon="12.4133683"><ele>128.0</ele><time>2026-04-04T10:41:08.114Z</time></trkpt><trkpt lat="41.94967" lon="12.41344"><ele>127.66666666666667</ele><time>2026-04-04T10:41:09.116Z</time></trkpt><trkpt lat="41.9496133" lon="12.4134983"><ele>127.33333333333334</ele><time>2026-04-04T10:41:10.117Z</time></trkpt><trkpt lat="41.949535" lon="12.4135617"><ele>127.0</ele><time>2026-04-04T10:41:12.215Z</time></trkpt><trkpt lat="41.9494633" lon="12.41363"><ele>127.0</ele><time>2026-04-04T10:41:14.115Z</time></trkpt><trkpt lat="41.9493733" lon="12.4137317"><ele>126.99999999999999</ele><time>2026-04-04T10:41:16.116Z</time></trkpt><trkpt lat="41.94932" lon="12.4137917"><ele>126.99999999999999</ele><time>2026-04-04T10:41:17.114Z</time></trkpt><trkpt lat="41.9492517" lon="12.4138617"><ele>127.0</ele><time>2026-04-04T10:41:18.114Z</time></trkpt><trkpt lat="41.94917" lon="12.413945"><ele>127.0</ele><time>2026-04-04T10:41:19.115Z</time></trkpt><trkpt lat="41.9490867" lon="12.4140333"><ele>126.6</ele><time>2026-04-04T10:41:20.11Z</time></trkpt><trkpt lat="41.9490033" lon="12.4141033"><ele>126.19999999999999</ele><time>2026-04-04T10:41:21.118Z</time></trkpt><trkpt lat="41.948925" lon="12.4141667"><ele>125.8</ele><time>2026-04-04T10:41:22.114Z</time></trkpt><trkpt lat="41.9488467" lon="12.4142367"><ele>125.4</ele><time>2026-04-04T10:41:23.113Z</time></trkpt><trkpt lat="41.9487567" lon="12.41431"><ele>125.0</ele><time>2026-04-04T10:41:24.116Z</time></trkpt><trkpt lat="41.9486633" lon="12.414385"><ele>125.0</ele><time>2026-04-04T10:41:25.112Z</time></trkpt><trkpt lat="41.9485733" lon="12.414455"><ele>125.0</ele><time>2026-04-04T10:41:26.114Z</time></trkpt><trkpt lat="41.9484867" lon="12.4145217"><ele>125.0</ele><time>2026-04-04T10:41:27.117Z</time></trkpt><trkpt lat="41.948395" lon="12.4145967"><ele>125.0</ele><time>2026-04-04T10:41:28.114Z</time></trkpt><trkpt lat="41.948305" lon="12.414675"><ele>125.0</ele><time>2026-04-04T10:41:29.114Z</time></trkpt><trkpt lat="41.9482233" lon="12.41476"><ele>125.4</ele><time>2026-04-04T10:41:30.112Z</time></trkpt><trkpt lat="41.94815" lon="12.4148417"><ele>125.8</ele><time>2026-04-04T10:41:31.114Z</time></trkpt><trkpt lat="41.9480667" lon="12.4149333"><ele>126.19999999999999</ele><time>2026-04-04T10:41:32.118Z</time></trkpt><trkpt lat="41.9479833" lon="12.4150317"><ele>126.6</ele><time>2026-04-04T10:41:33.118Z</time></trkpt><trkpt lat="41.9479" lon="12.41513"><ele>127.0</ele><time>2026-04-04T10:41:34.114Z</time></trkpt><trkpt lat="41.947815" lon="12.4152417"><ele>127.0</ele><time>2026-04-04T10:41:35.114Z</time></trkpt><trkpt lat="41.9477317" lon="12.4153483"><ele>127.0</ele><time>2026-04-04T10:41:36.115Z</time></trkpt><trkpt lat="41.947645" lon="12.4154617"><ele>127.0</ele><time>2026-04-04T10:41:37.115Z</time></trkpt><trkpt lat="41.9475517" lon="12.41558"><ele>127.0</ele><time>2026-04-04T10:41:38.114Z</time></trkpt><trkpt lat="41.947455" lon="12.4157"><ele>126.25</ele><time>2026-04-04T10:41:39.118Z</time></trkpt><trkpt lat="41.9473533" lon="12.4158267"><ele>125.5</ele><time>2026-04-04T10:41:40.116Z</time></trkpt><trkpt lat="41.9472567" lon="12.4159467"><ele>124.75</ele><time>2026-04-04T10:41:41.115Z</time></trkpt><trkpt lat="41.94716" lon="12.4160633"><ele>124.0</ele><time>2026-04-04T10:41:42.115Z</time></trkpt><trkpt lat="41.9470667" lon="12.4161767"><ele>124.0</ele><time>2026-04-04T10:41:43.114Z</time></trkpt><trkpt lat="41.9469717" lon="12.4162833"><ele>124.0</ele><time>2026-04-04T10:41:44.115Z</time></trkpt><trkpt lat="41.94688" lon="12.41639"><ele>124.0</ele><time>2026-04-04T10:41:45.114Z</time></trkpt><trkpt lat="41.94679" lon="12.4164867"><ele>124.0</ele><time>2026-04-04T10:41:46.115Z</time></trkpt><trkpt lat="41.9466983" lon="12.4165883"><ele>123.0</ele><time>2026-04-04T10:41:47.116Z</time></trkpt><trkpt lat="41.94661" lon="12.4166817"><ele>122.0</ele><time>2026-04-04T10:41:48.116Z</time></trkpt><trkpt lat="41.9465217" lon="12.4167633"><ele>121.0</ele><time>2026-04-04T10:41:49.117Z</time></trkpt><trkpt lat="41.9464383" lon="12.4168417"><ele>120.0</ele><time>2026-04-04T10:41:50.12Z</time></trkpt><trkpt lat="41.9463583" lon="12.41691"><ele>119.0</ele><time>2026-04-04T10:41:51.115Z</time></trkpt><trkpt lat="41.94628" lon="12.41697"><ele>119.0</ele><time>2026-04-04T10:41:52.114Z</time></trkpt><trkpt lat="41.9462" lon="12.4170383"><ele>119.0</ele><time>2026-04-04T10:41:53.114Z</time></trkpt><trkpt lat="41.94612" lon="12.4171033"><ele>119.0</ele><time>2026-04-04T10:41:54.114Z</time></trkpt><trkpt lat="41.9460433" lon="12.4171617"><ele>119.0</ele><time>2026-04-04T10:41:55.113Z</time></trkpt><trkpt lat="41.9459717" lon="12.417215"><ele>119.0</ele><time>2026-04-04T10:41:56.113Z</time></trkpt><trkpt lat="41.9458917" lon="12.417275"><ele>118.4</ele><time>2026-04-04T10:41:57.119Z</time></trkpt><trkpt lat="41.9458117" lon="12.4173367"><ele>117.80000000000001</ele><time>2026-04-04T10:41:58.116Z</time></trkpt><trkpt lat="41.94573" lon="12.4174083"><ele>117.19999999999999</ele><time>2026-04-04T10:41:59.115Z</time></trkpt><trkpt lat="41.9456517" lon="12.4174817"><ele>116.6</ele><time>2026-04-04T10:42:00.115Z</time></trkpt><trkpt lat="41.9455667" lon="12.4175567"><ele>116.0</ele><time>2026-04-04T10:42:01.114Z</time></trkpt><trkpt lat="41.9454783" lon="12.4176317"><ele>116.0</ele><time>2026-04-04T10:42:02.116Z</time></trkpt><trkpt lat="41.9453833" lon="12.4177117"><ele>116.0</ele><time>2026-04-04T10:42:03.118Z</time></trkpt><trkpt lat="41.9452867" lon="12.4177917"><ele>116.0</ele><time>2026-04-04T10:42:04.112Z</time></trkpt><trkpt lat="41.94519" lon="12.41788"><ele>116.0</ele><time>2026-04-04T10:42:05.111Z</time></trkpt><trkpt lat="41.945085" lon="12.417975"><ele>117.5</ele><time>2026-04-04T10:42:06.115Z</time></trkpt><trkpt lat="41.9449817" lon="12.4180683"><ele>119.0</ele><time>2026-04-04T10:42:07.116Z</time></trkpt><trkpt lat="41.9448683" lon="12.4181617"><ele>120.5</ele><time>2026-04-04T10:42:08.116Z</time></trkpt><trkpt lat="41.9447517" lon="12.4182467"><ele>122.0</ele><time>2026-04-04T10:42:09.119Z</time></trkpt><trkpt lat="41.9446417" lon="12.4183267"><ele>122.0</ele><time>2026-04-04T10:42:10.114Z</time></trkpt><trkpt lat="41.9445267" lon="12.418405"><ele>122.0</ele><time>2026-04-04T10:42:11.115Z</time></trkpt><trkpt lat="41.944415" lon="12.418475"><ele>122.0</ele><time>2026-04-04T10:42:12.117Z</time></trkpt><trkpt lat="41.944295" lon="12.4185383"><ele>122.0</ele><time>2026-04-04T10:42:13.114Z</time></trkpt><trkpt lat="41.9441833" lon="12.4186017"><ele>121.75</ele><time>2026-04-04T10:42:14.117Z</time></trkpt><trkpt lat="41.9440817" lon="12.4186883"><ele>121.5</ele><time>2026-04-04T10:42:15.115Z</time></trkpt><trkpt lat="41.9439683" lon="12.418765"><ele>121.25</ele><time>2026-04-04T10:42:16.116Z</time></trkpt><trkpt lat="41.9438633" lon="12.4188317"><ele>121.0</ele><time>2026-04-04T10:42:17.109Z</time></trkpt><trkpt lat="41.94376" lon="12.418895"><ele>121.0</ele><time>2026-04-04T10:42:18.112Z</time></trkpt><trkpt lat="41.943655" lon="12.4189617"><ele>121.0</ele><time>2026-04-04T10:42:19.113Z</time></trkpt><trkpt lat="41.9435517" lon="12.4190333"><ele>121.0</ele><time>2026-04-04T10:42:20.115Z</time></trkpt><trkpt lat="41.943445" lon="12.4190983"><ele>121.0</ele><time>2026-04-04T10:42:21.117Z</time></trkpt><trkpt lat="41.9433383" lon="12.4191583"><ele>121.19999999999999</ele><time>2026-04-04T10:42:22.116Z</time></trkpt><trkpt lat="41.9432433" lon="12.4192233"><ele>121.39999999999999</ele><time>2026-04-04T10:42:23.113Z</time></trkpt><trkpt lat="41.943145" lon="12.419295"><ele>121.6</ele><time>2026-04-04T10:42:24.114Z</time></trkpt><trkpt lat="41.943055" lon="12.419365"><ele>121.8</ele><time>2026-04-04T10:42:25.115Z</time></trkpt><trkpt lat="41.9429733" lon="12.41943"><ele>122.0</ele><time>2026-04-04T10:42:26.117Z</time></trkpt><trkpt lat="41.9428917" lon="12.4194917"><ele>121.99999999999999</ele><time>2026-04-04T10:42:27.116Z</time></trkpt><trkpt lat="41.9428133" lon="12.419555"><ele>122.0</ele><time>2026-04-04T10:42:28.115Z</time></trkpt><trkpt lat="41.9427383" lon="12.4196117"><ele>122.0</ele><time>2026-04-04T10:42:29.113Z</time></trkpt><trkpt lat="41.9426733" lon="12.4196717"><ele>122.0</ele><time>2026-04-04T10:42:30.116Z</time></trkpt><trkpt lat="41.942615" lon="12.4197333"><ele>121.99999999999999</ele><time>2026-04-04T10:42:31.113Z</time></trkpt><trkpt lat="41.9425467" lon="12.4197817"><ele>122.0</ele><time>2026-04-04T10:42:32.108Z</time></trkpt><trkpt lat="41.9424817" lon="12.4198383"><ele>122.33333333333333</ele><time>2026-04-04T10:42:33.117Z</time></trkpt><trkpt lat="41.9424117" lon="12.4198967"><ele>122.66666666666666</ele><time>2026-04-04T10:42:34.116Z</time></trkpt><trkpt lat="41.9423433" lon="12.4199733"><ele>123.0</ele><time>2026-04-04T10:42:35.117Z</time></trkpt><trkpt lat="41.9422683" lon="12.4200517"><ele>123.33333333333334</ele><time>2026-04-04T10:42:36.117Z</time></trkpt><trkpt lat="41.9422033" lon="12.4201333"><ele>123.66666666666667</ele><time>2026-04-04T10:42:37.118Z</time></trkpt><trkpt lat="41.9421417" lon="12.4202183"><ele>124.0</ele><time>2026-04-04T10:42:38.114Z</time></trkpt><trkpt lat="41.94209" lon="12.4203"><ele>124.00000000000001</ele><time>2026-04-04T10:42:39.114Z</time></trkpt><trkpt lat="41.9420367" lon="12.4203817"><ele>124.0</ele><time>2026-04-04T10:42:40.114Z</time></trkpt><trkpt lat="41.9419867" lon="12.4204517"><ele>124.0</ele><time>2026-04-04T10:42:41.114Z</time></trkpt><trkpt lat="41.9419433" lon="12.4205167"><ele>124.0</ele><time>2026-04-04T10:42:42.115Z</time></trkpt><trkpt lat="41.9418667" lon="12.4206333"><ele>124.00000000000001</ele><time>2026-04-04T10:42:44.213Z</time></trkpt><trkpt lat="41.9418217" lon="12.4207133"><ele>124.0</ele><time>2026-04-04T10:42:46.115Z</time></trkpt><trkpt lat="41.9417533" lon="12.4208733"><ele>124.0</ele><time>2026-04-04T10:43:40.115Z</time></trkpt><trkpt lat="41.941685" lon="12.4209683"><ele>124.0</ele><time>2026-04-04T10:43:42.113Z</time></trkpt><trkpt lat="41.94164" lon="12.4210367"><ele>124.0</ele><time>2026-04-04T10:43:43.117Z</time></trkpt><trkpt lat="41.9415817" lon="12.4211333"><ele>124.0</ele><time>2026-04-04T10:43:44.11Z</time></trkpt><trkpt lat="41.941515" lon="12.4212467"><ele>124.0</ele><time>2026-04-04T10:43:45.117Z</time></trkpt><trkpt lat="41.9414483" lon="12.42137"><ele>124.0</ele><time>2026-04-04T10:43:46.114Z</time></trkpt><trkpt lat="41.9413817" lon="12.4214967"><ele>124.0</ele><time>2026-04-04T10:43:47.114Z</time></trkpt><trkpt lat="41.941315" lon="12.4216367"><ele>124.0</ele><time>2026-04-04T10:43:48.116Z</time></trkpt><trkpt lat="41.9412517" lon="12.4217733"><ele>124.0</ele><time>2026-04-04T10:43:49.114Z</time></trkpt><trkpt lat="41.9411933" lon="12.421915"><ele>124.0</ele><time>2026-04-04T10:43:50.115Z</time></trkpt><trkpt lat="41.941135" lon="12.422055"><ele>124.0</ele><time>2026-04-04T10:43:51.115Z</time></trkpt><trkpt lat="41.9410883" lon="12.4221833"><ele>124.0</ele><time>2026-04-04T10:43:52.117Z</time></trkpt><trkpt lat="41.941045" lon="12.4223033"><ele>124.0</ele><time>2026-04-04T10:43:53.116Z</time></trkpt><trkpt lat="41.9410083" lon="12.422415"><ele>124.0</ele><time>2026-04-04T10:43:54.114Z</time></trkpt><trkpt lat="41.9409717" lon="12.42251"><ele>124.0</ele><time>2026-04-04T10:43:55.114Z</time></trkpt><trkpt lat="41.9409283" lon="12.4226017"><ele>124.0</ele><time>2026-04-04T10:43:56.115Z</time></trkpt><trkpt lat="41.9408783" lon="12.422695"><ele>124.0</ele><time>2026-04-04T10:43:57.117Z</time></trkpt><trkpt lat="41.94082" lon="12.4228"><ele>124.0</ele><time>2026-04-04T10:43:58.114Z</time></trkpt><trkpt lat="41.9407567" lon="12.4229067"><ele>124.0</ele><time>2026-04-04T10:43:59.113Z</time></trkpt><trkpt lat="41.9406867" lon="12.4230067"><ele>124.50000000000001</ele><time>2026-04-04T10:44:00.115Z</time></trkpt><trkpt lat="41.9406117" lon="12.4230917"><ele>125.0</ele><time>2026-04-04T10:44:01.115Z</time></trkpt><trkpt lat="41.9405333" lon="12.4231617"><ele>125.5</ele><time>2026-04-04T10:44:02.119Z</time></trkpt><trkpt lat="41.9404583" lon="12.4232183"><ele>126.0</ele><time>2026-04-04T10:44:03.109Z</time></trkpt><trkpt lat="41.94039" lon="12.4232717"><ele>126.50000000000001</ele><time>2026-04-04T10:44:04.113Z</time></trkpt><trkpt lat="41.940325" lon="12.4233183"><ele>127.0</ele><time>2026-04-04T10:44:05.115Z</time></trkpt><trkpt lat="41.9402667" lon="12.42336"><ele>127.00000000000001</ele><time>2026-04-04T10:44:06.115Z</time></trkpt><trkpt lat="41.9401733" lon="12.4234233"><ele>127.0</ele><time>2026-04-04T10:44:08.117Z</time></trkpt><trkpt lat="41.9401017" lon="12.4234667"><ele>127.0</ele><time>2026-04-04T10:44:11.114Z</time></trkpt><trkpt lat="41.9400633" lon="12.423535"><ele>127.0</ele><time>2026-04-04T10:44:14.114Z</time></trkpt><trkpt lat="41.9400933" lon="12.4236167"><ele>127.00000000000001</ele><time>2026-04-04T10:44:17.114Z</time></trkpt><trkpt lat="41.9401783" lon="12.4236983"><ele>127.0</ele><time>2026-04-04T10:45:05.115Z</time></trkpt><trkpt lat="41.9402883" lon="12.4237233"><ele>127.00000000000001</ele><time>2026-04-04T10:45:19.122Z</time></trkpt><trkpt lat="41.9403633" lon="12.42372"><ele>127.0</ele><time>2026-04-04T10:45:20.116Z</time></trkpt><trkpt lat="41.9404333" lon="12.4237317"><ele>127.0</ele><time>2026-04-04T10:45:21.115Z</time></trkpt><trkpt lat="41.9405067" lon="12.423745"><ele>127.0</ele><time>2026-04-04T10:45:22.117Z</time></trkpt><trkpt lat="41.9405733" lon="12.4237517"><ele>127.00000000000001</ele><time>2026-04-04T10:45:23.115Z</time></trkpt><trkpt lat="41.9406383" lon="12.4237533"><ele>127.0</ele><time>2026-04-04T10:45:24.115Z</time></trkpt><trkpt lat="41.9407383" lon="12.423755"><ele>127.00000000000001</ele><time>2026-04-04T10:45:26.117Z</time></trkpt><trkpt lat="41.9408317" lon="12.4237467"><ele>127.0</ele><time>2026-04-04T10:45:28.116Z</time></trkpt><trkpt lat="41.9408983" lon="12.423745"><ele>127.0</ele><time>2026-04-04T10:45:30.115Z</time></trkpt><trkpt lat="41.9409633" lon="12.4237417"><ele>127.0</ele><time>2026-04-04T10:45:33.116Z</time></trkpt><trkpt lat="41.9410383" lon="12.4237533"><ele>127.00000000000001</ele><time>2026-04-04T10:45:37.116Z</time></trkpt><trkpt lat="41.9411367" lon="12.4237667"><ele>127.0</ele><time>2026-04-04T10:45:39.116Z</time></trkpt><trkpt lat="41.9412583" lon="12.4237817"><ele>128.0</ele><time>2026-04-04T10:45:41.114Z</time></trkpt><trkpt lat="41.9413517" lon="12.4237967"><ele>129.0</ele><time>2026-04-04T10:45:42.117Z</time></trkpt><trkpt lat="41.94145" lon="12.4238117"><ele>130.0</ele><time>2026-04-04T10:45:43.114Z</time></trkpt><trkpt lat="41.9416133" lon="12.4238367"><ele>131.0</ele><time>2026-04-04T10:45:45.115Z</time></trkpt><trkpt lat="41.941705" lon="12.42386"><ele>131.2</ele><time>2026-04-04T10:45:46.115Z</time></trkpt><trkpt lat="41.9418067" lon="12.4238767"><ele>131.39999999999998</ele><time>2026-04-04T10:45:47.116Z</time></trkpt><trkpt lat="41.9419" lon="12.42389"><ele>131.6</ele><time>2026-04-04T10:45:48.115Z</time></trkpt><trkpt lat="41.94201" lon="12.423905"><ele>131.79999999999998</ele><time>2026-04-04T10:45:49.115Z</time></trkpt><trkpt lat="41.9420933" lon="12.4239183"><ele>132.0</ele><time>2026-04-04T10:45:50.113Z</time></trkpt><trkpt lat="41.9421717" lon="12.4239333"><ele>132.0</ele><time>2026-04-04T10:45:51.116Z</time></trkpt><trkpt lat="41.94228" lon="12.4239567"><ele>132.0</ele><time>2026-04-04T10:45:53.114Z</time></trkpt><trkpt lat="41.94236" lon="12.4240817"><ele>132.0</ele><time>2026-04-04T10:46:19.115Z</time></trkpt><trkpt lat="41.9423533" lon="12.4241983"><ele>132.0</ele><time>2026-04-04T10:46:22.116Z</time></trkpt><trkpt lat="41.9422967" lon="12.4242367"><ele>132.0</ele><time>2026-04-04T10:46:25.116Z</time></trkpt><trkpt lat="41.9422983" lon="12.42437"><ele>132.0</ele><time>2026-04-04T10:47:36.114Z</time></trkpt></trkseg></trk></gpx>